<?xml version="1.0" encoding="UTF-8" standalone="no" ?>
<gpx xmlns="http://www.topografix.com/GPX/1/1" xmlns:xsi="http://www.w3.org/2001/XMLSchema-instance" xsi:schemaLocation="http://www.topografix.com/GPX/1/1 http://www.topografix.com/GPX/1/1/gpx.xsd" version="1.1" creator="VisuGPX - https://www.visugpx.com">
  <metadata>
    <name>Vtt du 14/06/2018</name>
    <desc><![CDATA[Vtt du 14/06/2018 avec Marc, Alexis, John, Simonator, Didier et Thierry Archi, Pierrick, Fabrice et Camaloch.]]></desc>
  </metadata>
  <trk>
    <name><![CDATA[2018-06-14-19-03-13 on GPSies.com]]></name>
    <trkseg>
      <trkpt lat="43.89282" lon="1.87758">
        <ele>139</ele>
        <time>2018-06-14T19:03:13Z</time>
      </trkpt>
      <trkpt lat="43.89282" lon="1.8776">
        <ele>139</ele>
        <time>2018-06-14T19:03:14Z</time>
      </trkpt>
      <trkpt lat="43.89281" lon="1.87763">
        <ele>139</ele>
        <time>2018-06-14T19:03:15Z</time>
      </trkpt>
      <trkpt lat="43.8928" lon="1.87767">
        <ele>139</ele>
        <time>2018-06-14T19:03:16Z</time>
      </trkpt>
      <trkpt lat="43.89278" lon="1.8777">
        <ele>139</ele>
        <time>2018-06-14T19:03:17Z</time>
      </trkpt>
      <trkpt lat="43.89277" lon="1.87773">
        <ele>139</ele>
        <time>2018-06-14T19:03:18Z</time>
      </trkpt>
      <trkpt lat="43.89275" lon="1.87776">
        <ele>139</ele>
        <time>2018-06-14T19:03:19Z</time>
      </trkpt>
      <trkpt lat="43.89274" lon="1.87778">
        <ele>139</ele>
        <time>2018-06-14T19:03:20Z</time>
      </trkpt>
      <trkpt lat="43.89273" lon="1.87781">
        <ele>139</ele>
        <time>2018-06-14T19:03:21Z</time>
      </trkpt>
      <trkpt lat="43.89272" lon="1.87783">
        <ele>139</ele>
        <time>2018-06-14T19:03:22Z</time>
      </trkpt>
      <trkpt lat="43.89271" lon="1.87786">
        <ele>139</ele>
        <time>2018-06-14T19:03:23Z</time>
      </trkpt>
      <trkpt lat="43.89269" lon="1.87789">
        <ele>139</ele>
        <time>2018-06-14T19:03:24Z</time>
      </trkpt>
      <trkpt lat="43.89268" lon="1.87791">
        <ele>139</ele>
        <time>2018-06-14T19:03:25Z</time>
      </trkpt>
      <trkpt lat="43.89267" lon="1.87794">
        <ele>139</ele>
        <time>2018-06-14T19:03:26Z</time>
      </trkpt>
      <trkpt lat="43.89265" lon="1.87797">
        <ele>139</ele>
        <time>2018-06-14T19:03:27Z</time>
      </trkpt>
      <trkpt lat="43.89264" lon="1.878">
        <ele>139</ele>
        <time>2018-06-14T19:03:28Z</time>
      </trkpt>
      <trkpt lat="43.89263" lon="1.87803">
        <ele>139</ele>
        <time>2018-06-14T19:03:29Z</time>
      </trkpt>
      <trkpt lat="43.89262" lon="1.87805">
        <ele>139</ele>
        <time>2018-06-14T19:03:30Z</time>
      </trkpt>
      <trkpt lat="43.89261" lon="1.87808">
        <ele>139</ele>
        <time>2018-06-14T19:03:31Z</time>
      </trkpt>
      <trkpt lat="43.8926" lon="1.87811">
        <ele>139</ele>
        <time>2018-06-14T19:03:32Z</time>
      </trkpt>
      <trkpt lat="43.89259" lon="1.87813">
        <ele>139</ele>
        <time>2018-06-14T19:03:33Z</time>
      </trkpt>
      <trkpt lat="43.89258" lon="1.87816">
        <ele>139</ele>
        <time>2018-06-14T19:03:34Z</time>
      </trkpt>
      <trkpt lat="43.89257" lon="1.87818">
        <ele>139</ele>
        <time>2018-06-14T19:03:35Z</time>
      </trkpt>
      <trkpt lat="43.89256" lon="1.87821">
        <ele>139</ele>
        <time>2018-06-14T19:03:36Z</time>
      </trkpt>
      <trkpt lat="43.89254" lon="1.87824">
        <ele>139</ele>
        <time>2018-06-14T19:03:37Z</time>
      </trkpt>
      <trkpt lat="43.89253" lon="1.87826">
        <ele>139</ele>
        <time>2018-06-14T19:03:38Z</time>
      </trkpt>
      <trkpt lat="43.89252" lon="1.87828">
        <ele>139</ele>
        <time>2018-06-14T19:03:39Z</time>
      </trkpt>
      <trkpt lat="43.8925" lon="1.8783">
        <ele>139</ele>
        <time>2018-06-14T19:03:40Z</time>
      </trkpt>
      <trkpt lat="43.89248" lon="1.87831">
        <ele>140</ele>
        <time>2018-06-14T19:03:41Z</time>
      </trkpt>
      <trkpt lat="43.89246" lon="1.87832">
        <ele>140</ele>
        <time>2018-06-14T19:03:42Z</time>
      </trkpt>
      <trkpt lat="43.89243" lon="1.87832">
        <ele>140</ele>
        <time>2018-06-14T19:03:43Z</time>
      </trkpt>
      <trkpt lat="43.8924" lon="1.8783">
        <ele>141</ele>
        <time>2018-06-14T19:03:44Z</time>
      </trkpt>
      <trkpt lat="43.89238" lon="1.87828">
        <ele>140</ele>
        <time>2018-06-14T19:03:45Z</time>
      </trkpt>
      <trkpt lat="43.89235" lon="1.87825">
        <ele>140</ele>
        <time>2018-06-14T19:03:46Z</time>
      </trkpt>
      <trkpt lat="43.89233" lon="1.87822">
        <ele>140</ele>
        <time>2018-06-14T19:03:47Z</time>
      </trkpt>
      <trkpt lat="43.8923" lon="1.87819">
        <ele>140</ele>
        <time>2018-06-14T19:03:48Z</time>
      </trkpt>
      <trkpt lat="43.89227" lon="1.87816">
        <ele>140</ele>
        <time>2018-06-14T19:03:49Z</time>
      </trkpt>
      <trkpt lat="43.89224" lon="1.87813">
        <ele>140</ele>
        <time>2018-06-14T19:03:50Z</time>
      </trkpt>
      <trkpt lat="43.8922" lon="1.87811">
        <ele>140</ele>
        <time>2018-06-14T19:03:51Z</time>
      </trkpt>
      <trkpt lat="43.89216" lon="1.87809">
        <ele>140</ele>
        <time>2018-06-14T19:03:52Z</time>
      </trkpt>
      <trkpt lat="43.89211" lon="1.87808">
        <ele>140</ele>
        <time>2018-06-14T19:03:53Z</time>
      </trkpt>
      <trkpt lat="43.89207" lon="1.87808">
        <ele>141</ele>
        <time>2018-06-14T19:03:54Z</time>
      </trkpt>
      <trkpt lat="43.89203" lon="1.87808">
        <ele>141</ele>
        <time>2018-06-14T19:03:55Z</time>
      </trkpt>
      <trkpt lat="43.89199" lon="1.87808">
        <ele>141</ele>
        <time>2018-06-14T19:03:56Z</time>
      </trkpt>
      <trkpt lat="43.89195" lon="1.87809">
        <ele>141</ele>
        <time>2018-06-14T19:03:57Z</time>
      </trkpt>
      <trkpt lat="43.89191" lon="1.87811">
        <ele>141</ele>
        <time>2018-06-14T19:03:58Z</time>
      </trkpt>
      <trkpt lat="43.89187" lon="1.87814">
        <ele>141</ele>
        <time>2018-06-14T19:03:59Z</time>
      </trkpt>
      <trkpt lat="43.89183" lon="1.87816">
        <ele>141</ele>
        <time>2018-06-14T19:04:00Z</time>
      </trkpt>
      <trkpt lat="43.89178" lon="1.87819">
        <ele>141</ele>
        <time>2018-06-14T19:04:01Z</time>
      </trkpt>
      <trkpt lat="43.89174" lon="1.87822">
        <ele>141</ele>
        <time>2018-06-14T19:04:02Z</time>
      </trkpt>
      <trkpt lat="43.8917" lon="1.87827">
        <ele>141</ele>
        <time>2018-06-14T19:04:03Z</time>
      </trkpt>
      <trkpt lat="43.89167" lon="1.87833">
        <ele>141</ele>
        <time>2018-06-14T19:04:04Z</time>
      </trkpt>
      <trkpt lat="43.89164" lon="1.87839">
        <ele>141</ele>
        <time>2018-06-14T19:04:05Z</time>
      </trkpt>
      <trkpt lat="43.89162" lon="1.87846">
        <ele>141</ele>
        <time>2018-06-14T19:04:06Z</time>
      </trkpt>
      <trkpt lat="43.8916" lon="1.87853">
        <ele>141</ele>
        <time>2018-06-14T19:04:07Z</time>
      </trkpt>
      <trkpt lat="43.89159" lon="1.8786">
        <ele>141</ele>
        <time>2018-06-14T19:04:08Z</time>
      </trkpt>
      <trkpt lat="43.89159" lon="1.87867">
        <ele>141</ele>
        <time>2018-06-14T19:04:09Z</time>
      </trkpt>
      <trkpt lat="43.89159" lon="1.87874">
        <ele>141</ele>
        <time>2018-06-14T19:04:10Z</time>
      </trkpt>
      <trkpt lat="43.8916" lon="1.8788">
        <ele>141</ele>
        <time>2018-06-14T19:04:11Z</time>
      </trkpt>
      <trkpt lat="43.8916" lon="1.87887">
        <ele>141</ele>
        <time>2018-06-14T19:04:12Z</time>
      </trkpt>
      <trkpt lat="43.8916" lon="1.87893">
        <ele>141</ele>
        <time>2018-06-14T19:04:13Z</time>
      </trkpt>
      <trkpt lat="43.89159" lon="1.879">
        <ele>141</ele>
        <time>2018-06-14T19:04:14Z</time>
      </trkpt>
      <trkpt lat="43.89158" lon="1.87906">
        <ele>141</ele>
        <time>2018-06-14T19:04:15Z</time>
      </trkpt>
      <trkpt lat="43.89158" lon="1.87913">
        <ele>141</ele>
        <time>2018-06-14T19:04:16Z</time>
      </trkpt>
      <trkpt lat="43.89159" lon="1.87919">
        <ele>140</ele>
        <time>2018-06-14T19:04:17Z</time>
      </trkpt>
      <trkpt lat="43.8916" lon="1.87926">
        <ele>140</ele>
        <time>2018-06-14T19:04:18Z</time>
      </trkpt>
      <trkpt lat="43.89163" lon="1.87932">
        <ele>140</ele>
        <time>2018-06-14T19:04:19Z</time>
      </trkpt>
      <trkpt lat="43.89165" lon="1.87939">
        <ele>140</ele>
        <time>2018-06-14T19:04:20Z</time>
      </trkpt>
      <trkpt lat="43.89165" lon="1.87946">
        <ele>140</ele>
        <time>2018-06-14T19:04:21Z</time>
      </trkpt>
      <trkpt lat="43.89165" lon="1.87953">
        <ele>139</ele>
        <time>2018-06-14T19:04:22Z</time>
      </trkpt>
      <trkpt lat="43.89164" lon="1.8796">
        <ele>139</ele>
        <time>2018-06-14T19:04:23Z</time>
      </trkpt>
      <trkpt lat="43.89163" lon="1.87968">
        <ele>139</ele>
        <time>2018-06-14T19:04:24Z</time>
      </trkpt>
      <trkpt lat="43.89162" lon="1.87975">
        <ele>139</ele>
        <time>2018-06-14T19:04:25Z</time>
      </trkpt>
      <trkpt lat="43.89161" lon="1.87982">
        <ele>139</ele>
        <time>2018-06-14T19:04:26Z</time>
      </trkpt>
      <trkpt lat="43.89161" lon="1.87989">
        <ele>139</ele>
        <time>2018-06-14T19:04:27Z</time>
      </trkpt>
      <trkpt lat="43.8916" lon="1.87996">
        <ele>139</ele>
        <time>2018-06-14T19:04:28Z</time>
      </trkpt>
      <trkpt lat="43.89159" lon="1.88003">
        <ele>139</ele>
        <time>2018-06-14T19:04:29Z</time>
      </trkpt>
      <trkpt lat="43.89158" lon="1.88009">
        <ele>139</ele>
        <time>2018-06-14T19:04:30Z</time>
      </trkpt>
      <trkpt lat="43.89157" lon="1.88016">
        <ele>139</ele>
        <time>2018-06-14T19:04:31Z</time>
      </trkpt>
      <trkpt lat="43.89155" lon="1.88022">
        <ele>139</ele>
        <time>2018-06-14T19:04:32Z</time>
      </trkpt>
      <trkpt lat="43.89154" lon="1.88029">
        <ele>139</ele>
        <time>2018-06-14T19:04:33Z</time>
      </trkpt>
      <trkpt lat="43.89153" lon="1.88034">
        <ele>139</ele>
        <time>2018-06-14T19:04:34Z</time>
      </trkpt>
      <trkpt lat="43.89151" lon="1.8804">
        <ele>139</ele>
        <time>2018-06-14T19:04:35Z</time>
      </trkpt>
      <trkpt lat="43.89149" lon="1.88046">
        <ele>139</ele>
        <time>2018-06-14T19:04:36Z</time>
      </trkpt>
      <trkpt lat="43.89147" lon="1.88052">
        <ele>139</ele>
        <time>2018-06-14T19:04:37Z</time>
      </trkpt>
      <trkpt lat="43.89145" lon="1.88059">
        <ele>139</ele>
        <time>2018-06-14T19:04:38Z</time>
      </trkpt>
      <trkpt lat="43.89143" lon="1.88065">
        <ele>139</ele>
        <time>2018-06-14T19:04:39Z</time>
      </trkpt>
      <trkpt lat="43.89142" lon="1.88071">
        <ele>139</ele>
        <time>2018-06-14T19:04:40Z</time>
      </trkpt>
      <trkpt lat="43.8914" lon="1.88077">
        <ele>139</ele>
        <time>2018-06-14T19:04:41Z</time>
      </trkpt>
      <trkpt lat="43.89138" lon="1.88084">
        <ele>139</ele>
        <time>2018-06-14T19:04:42Z</time>
      </trkpt>
      <trkpt lat="43.89136" lon="1.8809">
        <ele>138</ele>
        <time>2018-06-14T19:04:43Z</time>
      </trkpt>
      <trkpt lat="43.89134" lon="1.88096">
        <ele>138</ele>
        <time>2018-06-14T19:04:44Z</time>
      </trkpt>
      <trkpt lat="43.89132" lon="1.88102">
        <ele>138</ele>
        <time>2018-06-14T19:04:45Z</time>
      </trkpt>
      <trkpt lat="43.8913" lon="1.88108">
        <ele>138</ele>
        <time>2018-06-14T19:04:46Z</time>
      </trkpt>
      <trkpt lat="43.89127" lon="1.88114">
        <ele>138</ele>
        <time>2018-06-14T19:04:47Z</time>
      </trkpt>
      <trkpt lat="43.89124" lon="1.8812">
        <ele>138</ele>
        <time>2018-06-14T19:04:48Z</time>
      </trkpt>
      <trkpt lat="43.89122" lon="1.88127">
        <ele>138</ele>
        <time>2018-06-14T19:04:49Z</time>
      </trkpt>
      <trkpt lat="43.89119" lon="1.88133">
        <ele>137</ele>
        <time>2018-06-14T19:04:50Z</time>
      </trkpt>
      <trkpt lat="43.89116" lon="1.8814">
        <ele>137</ele>
        <time>2018-06-14T19:04:51Z</time>
      </trkpt>
      <trkpt lat="43.89114" lon="1.88146">
        <ele>137</ele>
        <time>2018-06-14T19:04:52Z</time>
      </trkpt>
      <trkpt lat="43.89111" lon="1.88153">
        <ele>137</ele>
        <time>2018-06-14T19:04:53Z</time>
      </trkpt>
      <trkpt lat="43.89109" lon="1.88159">
        <ele>136</ele>
        <time>2018-06-14T19:04:54Z</time>
      </trkpt>
      <trkpt lat="43.89106" lon="1.88165">
        <ele>136</ele>
        <time>2018-06-14T19:04:55Z</time>
      </trkpt>
      <trkpt lat="43.89103" lon="1.88171">
        <ele>136</ele>
        <time>2018-06-14T19:04:56Z</time>
      </trkpt>
      <trkpt lat="43.891" lon="1.88178">
        <ele>136</ele>
        <time>2018-06-14T19:04:57Z</time>
      </trkpt>
      <trkpt lat="43.89097" lon="1.88184">
        <ele>136</ele>
        <time>2018-06-14T19:04:58Z</time>
      </trkpt>
      <trkpt lat="43.89094" lon="1.8819">
        <ele>136</ele>
        <time>2018-06-14T19:04:59Z</time>
      </trkpt>
      <trkpt lat="43.89091" lon="1.88196">
        <ele>135</ele>
        <time>2018-06-14T19:05:00Z</time>
      </trkpt>
      <trkpt lat="43.89088" lon="1.88202">
        <ele>135</ele>
        <time>2018-06-14T19:05:01Z</time>
      </trkpt>
      <trkpt lat="43.89085" lon="1.88208">
        <ele>135</ele>
        <time>2018-06-14T19:05:02Z</time>
      </trkpt>
      <trkpt lat="43.89081" lon="1.88215">
        <ele>135</ele>
        <time>2018-06-14T19:05:03Z</time>
      </trkpt>
      <trkpt lat="43.89078" lon="1.88221">
        <ele>134</ele>
        <time>2018-06-14T19:05:04Z</time>
      </trkpt>
      <trkpt lat="43.89074" lon="1.88227">
        <ele>134</ele>
        <time>2018-06-14T19:05:05Z</time>
      </trkpt>
      <trkpt lat="43.8907" lon="1.88233">
        <ele>134</ele>
        <time>2018-06-14T19:05:06Z</time>
      </trkpt>
      <trkpt lat="43.89067" lon="1.88239">
        <ele>134</ele>
        <time>2018-06-14T19:05:07Z</time>
      </trkpt>
      <trkpt lat="43.89063" lon="1.88245">
        <ele>133</ele>
        <time>2018-06-14T19:05:08Z</time>
      </trkpt>
      <trkpt lat="43.89058" lon="1.8825">
        <ele>133</ele>
        <time>2018-06-14T19:05:09Z</time>
      </trkpt>
      <trkpt lat="43.89053" lon="1.88254">
        <ele>133</ele>
        <time>2018-06-14T19:05:10Z</time>
      </trkpt>
      <trkpt lat="43.89047" lon="1.88256">
        <ele>133</ele>
        <time>2018-06-14T19:05:11Z</time>
      </trkpt>
      <trkpt lat="43.89042" lon="1.88254">
        <ele>133</ele>
        <time>2018-06-14T19:05:12Z</time>
      </trkpt>
      <trkpt lat="43.89036" lon="1.88252">
        <ele>133</ele>
        <time>2018-06-14T19:05:13Z</time>
      </trkpt>
      <trkpt lat="43.89031" lon="1.88249">
        <ele>133</ele>
        <time>2018-06-14T19:05:14Z</time>
      </trkpt>
      <trkpt lat="43.89027" lon="1.88246">
        <ele>134</ele>
        <time>2018-06-14T19:05:15Z</time>
      </trkpt>
      <trkpt lat="43.89022" lon="1.88243">
        <ele>134</ele>
        <time>2018-06-14T19:05:16Z</time>
      </trkpt>
      <trkpt lat="43.89017" lon="1.8824">
        <ele>134</ele>
        <time>2018-06-14T19:05:17Z</time>
      </trkpt>
      <trkpt lat="43.89012" lon="1.88237">
        <ele>135</ele>
        <time>2018-06-14T19:05:18Z</time>
      </trkpt>
      <trkpt lat="43.89007" lon="1.88234">
        <ele>136</ele>
        <time>2018-06-14T19:05:19Z</time>
      </trkpt>
      <trkpt lat="43.89002" lon="1.88231">
        <ele>136</ele>
        <time>2018-06-14T19:05:20Z</time>
      </trkpt>
      <trkpt lat="43.88997" lon="1.88227">
        <ele>136</ele>
        <time>2018-06-14T19:05:21Z</time>
      </trkpt>
      <trkpt lat="43.88993" lon="1.88223">
        <ele>136</ele>
        <time>2018-06-14T19:05:22Z</time>
      </trkpt>
      <trkpt lat="43.88988" lon="1.8822">
        <ele>137</ele>
        <time>2018-06-14T19:05:23Z</time>
      </trkpt>
      <trkpt lat="43.88984" lon="1.88216">
        <ele>137</ele>
        <time>2018-06-14T19:05:24Z</time>
      </trkpt>
      <trkpt lat="43.8898" lon="1.88214">
        <ele>138</ele>
        <time>2018-06-14T19:05:25Z</time>
      </trkpt>
      <trkpt lat="43.88976" lon="1.88211">
        <ele>138</ele>
        <time>2018-06-14T19:05:26Z</time>
      </trkpt>
      <trkpt lat="43.88972" lon="1.88208">
        <ele>139</ele>
        <time>2018-06-14T19:05:27Z</time>
      </trkpt>
      <trkpt lat="43.88968" lon="1.88205">
        <ele>139</ele>
        <time>2018-06-14T19:05:28Z</time>
      </trkpt>
      <trkpt lat="43.88964" lon="1.88202">
        <ele>139</ele>
        <time>2018-06-14T19:05:29Z</time>
      </trkpt>
      <trkpt lat="43.8896" lon="1.88199">
        <ele>139</ele>
        <time>2018-06-14T19:05:30Z</time>
      </trkpt>
      <trkpt lat="43.88956" lon="1.88196">
        <ele>139</ele>
        <time>2018-06-14T19:05:31Z</time>
      </trkpt>
      <trkpt lat="43.88952" lon="1.88193">
        <ele>139</ele>
        <time>2018-06-14T19:05:32Z</time>
      </trkpt>
      <trkpt lat="43.88948" lon="1.8819">
        <ele>139</ele>
        <time>2018-06-14T19:05:33Z</time>
      </trkpt>
      <trkpt lat="43.88944" lon="1.88188">
        <ele>139</ele>
        <time>2018-06-14T19:05:34Z</time>
      </trkpt>
      <trkpt lat="43.88939" lon="1.88185">
        <ele>139</ele>
        <time>2018-06-14T19:05:35Z</time>
      </trkpt>
      <trkpt lat="43.88935" lon="1.88183">
        <ele>140</ele>
        <time>2018-06-14T19:05:36Z</time>
      </trkpt>
      <trkpt lat="43.88931" lon="1.88181">
        <ele>140</ele>
        <time>2018-06-14T19:05:37Z</time>
      </trkpt>
      <trkpt lat="43.88926" lon="1.88178">
        <ele>139</ele>
        <time>2018-06-14T19:05:38Z</time>
      </trkpt>
      <trkpt lat="43.88921" lon="1.88176">
        <ele>139</ele>
        <time>2018-06-14T19:05:39Z</time>
      </trkpt>
      <trkpt lat="43.88916" lon="1.88173">
        <ele>139</ele>
        <time>2018-06-14T19:05:40Z</time>
      </trkpt>
      <trkpt lat="43.88911" lon="1.88171">
        <ele>139</ele>
        <time>2018-06-14T19:05:41Z</time>
      </trkpt>
      <trkpt lat="43.88906" lon="1.88169">
        <ele>139</ele>
        <time>2018-06-14T19:05:42Z</time>
      </trkpt>
      <trkpt lat="43.88901" lon="1.88167">
        <ele>139</ele>
        <time>2018-06-14T19:05:43Z</time>
      </trkpt>
      <trkpt lat="43.88896" lon="1.88164">
        <ele>139</ele>
        <time>2018-06-14T19:05:44Z</time>
      </trkpt>
      <trkpt lat="43.88891" lon="1.88162">
        <ele>139</ele>
        <time>2018-06-14T19:05:45Z</time>
      </trkpt>
      <trkpt lat="43.88886" lon="1.8816">
        <ele>138</ele>
        <time>2018-06-14T19:05:46Z</time>
      </trkpt>
      <trkpt lat="43.88881" lon="1.88158">
        <ele>139</ele>
        <time>2018-06-14T19:05:47Z</time>
      </trkpt>
      <trkpt lat="43.88876" lon="1.88156">
        <ele>138</ele>
        <time>2018-06-14T19:05:48Z</time>
      </trkpt>
      <trkpt lat="43.88871" lon="1.88154">
        <ele>138</ele>
        <time>2018-06-14T19:05:49Z</time>
      </trkpt>
      <trkpt lat="43.88866" lon="1.88152">
        <ele>138</ele>
        <time>2018-06-14T19:05:50Z</time>
      </trkpt>
      <trkpt lat="43.88861" lon="1.88151">
        <ele>138</ele>
        <time>2018-06-14T19:05:51Z</time>
      </trkpt>
      <trkpt lat="43.88856" lon="1.88149">
        <ele>138</ele>
        <time>2018-06-14T19:05:52Z</time>
      </trkpt>
      <trkpt lat="43.8885" lon="1.88148">
        <ele>138</ele>
        <time>2018-06-14T19:05:53Z</time>
      </trkpt>
      <trkpt lat="43.88845" lon="1.88147">
        <ele>138</ele>
        <time>2018-06-14T19:05:54Z</time>
      </trkpt>
      <trkpt lat="43.8884" lon="1.88145">
        <ele>138</ele>
        <time>2018-06-14T19:05:55Z</time>
      </trkpt>
      <trkpt lat="43.88834" lon="1.88144">
        <ele>138</ele>
        <time>2018-06-14T19:05:56Z</time>
      </trkpt>
      <trkpt lat="43.88829" lon="1.88143">
        <ele>138</ele>
        <time>2018-06-14T19:05:57Z</time>
      </trkpt>
      <trkpt lat="43.88823" lon="1.88142">
        <ele>138</ele>
        <time>2018-06-14T19:05:58Z</time>
      </trkpt>
      <trkpt lat="43.88817" lon="1.88141">
        <ele>138</ele>
        <time>2018-06-14T19:05:59Z</time>
      </trkpt>
      <trkpt lat="43.88811" lon="1.8814">
        <ele>138</ele>
        <time>2018-06-14T19:06:00Z</time>
      </trkpt>
      <trkpt lat="43.88805" lon="1.88139">
        <ele>138</ele>
        <time>2018-06-14T19:06:01Z</time>
      </trkpt>
      <trkpt lat="43.888" lon="1.88139">
        <ele>137</ele>
        <time>2018-06-14T19:06:02Z</time>
      </trkpt>
      <trkpt lat="43.88794" lon="1.88138">
        <ele>137</ele>
        <time>2018-06-14T19:06:03Z</time>
      </trkpt>
      <trkpt lat="43.88788" lon="1.88138">
        <ele>137</ele>
        <time>2018-06-14T19:06:04Z</time>
      </trkpt>
      <trkpt lat="43.88782" lon="1.88138">
        <ele>137</ele>
        <time>2018-06-14T19:06:05Z</time>
      </trkpt>
      <trkpt lat="43.88776" lon="1.88137">
        <ele>137</ele>
        <time>2018-06-14T19:06:06Z</time>
      </trkpt>
      <trkpt lat="43.88771" lon="1.88137">
        <ele>136</ele>
        <time>2018-06-14T19:06:07Z</time>
      </trkpt>
      <trkpt lat="43.88765" lon="1.88137">
        <ele>136</ele>
        <time>2018-06-14T19:06:08Z</time>
      </trkpt>
      <trkpt lat="43.88759" lon="1.88137">
        <ele>136</ele>
        <time>2018-06-14T19:06:09Z</time>
      </trkpt>
      <trkpt lat="43.88753" lon="1.88136">
        <ele>136</ele>
        <time>2018-06-14T19:06:10Z</time>
      </trkpt>
      <trkpt lat="43.88747" lon="1.88136">
        <ele>136</ele>
        <time>2018-06-14T19:06:11Z</time>
      </trkpt>
      <trkpt lat="43.88741" lon="1.88136">
        <ele>136</ele>
        <time>2018-06-14T19:06:12Z</time>
      </trkpt>
      <trkpt lat="43.88735" lon="1.88135">
        <ele>136</ele>
        <time>2018-06-14T19:06:13Z</time>
      </trkpt>
      <trkpt lat="43.88729" lon="1.88135">
        <ele>136</ele>
        <time>2018-06-14T19:06:14Z</time>
      </trkpt>
      <trkpt lat="43.88724" lon="1.88135">
        <ele>136</ele>
        <time>2018-06-14T19:06:15Z</time>
      </trkpt>
      <trkpt lat="43.88718" lon="1.88135">
        <ele>136</ele>
        <time>2018-06-14T19:06:16Z</time>
      </trkpt>
      <trkpt lat="43.88713" lon="1.88134">
        <ele>136</ele>
        <time>2018-06-14T19:06:17Z</time>
      </trkpt>
      <trkpt lat="43.88707" lon="1.88133">
        <ele>135</ele>
        <time>2018-06-14T19:06:18Z</time>
      </trkpt>
      <trkpt lat="43.88701" lon="1.88133">
        <ele>135</ele>
        <time>2018-06-14T19:06:19Z</time>
      </trkpt>
      <trkpt lat="43.88696" lon="1.88132">
        <ele>135</ele>
        <time>2018-06-14T19:06:20Z</time>
      </trkpt>
      <trkpt lat="43.8869" lon="1.88131">
        <ele>135</ele>
        <time>2018-06-14T19:06:21Z</time>
      </trkpt>
      <trkpt lat="43.88684" lon="1.88131">
        <ele>135</ele>
        <time>2018-06-14T19:06:22Z</time>
      </trkpt>
      <trkpt lat="43.88678" lon="1.88131">
        <ele>135</ele>
        <time>2018-06-14T19:06:23Z</time>
      </trkpt>
      <trkpt lat="43.88672" lon="1.88131">
        <ele>135</ele>
        <time>2018-06-14T19:06:24Z</time>
      </trkpt>
      <trkpt lat="43.88666" lon="1.88131">
        <ele>135</ele>
        <time>2018-06-14T19:06:25Z</time>
      </trkpt>
      <trkpt lat="43.88661" lon="1.8813">
        <ele>135</ele>
        <time>2018-06-14T19:06:26Z</time>
      </trkpt>
      <trkpt lat="43.88655" lon="1.8813">
        <ele>135</ele>
        <time>2018-06-14T19:06:27Z</time>
      </trkpt>
      <trkpt lat="43.88649" lon="1.88131">
        <ele>135</ele>
        <time>2018-06-14T19:06:28Z</time>
      </trkpt>
      <trkpt lat="43.88644" lon="1.88131">
        <ele>135</ele>
        <time>2018-06-14T19:06:29Z</time>
      </trkpt>
      <trkpt lat="43.88638" lon="1.8813">
        <ele>135</ele>
        <time>2018-06-14T19:06:30Z</time>
      </trkpt>
      <trkpt lat="43.88633" lon="1.8813">
        <ele>135</ele>
        <time>2018-06-14T19:06:31Z</time>
      </trkpt>
      <trkpt lat="43.88627" lon="1.8813">
        <ele>135</ele>
        <time>2018-06-14T19:06:32Z</time>
      </trkpt>
      <trkpt lat="43.88621" lon="1.8813">
        <ele>135</ele>
        <time>2018-06-14T19:06:33Z</time>
      </trkpt>
      <trkpt lat="43.88616" lon="1.88129">
        <ele>135</ele>
        <time>2018-06-14T19:06:34Z</time>
      </trkpt>
      <trkpt lat="43.8861" lon="1.88129">
        <ele>135</ele>
        <time>2018-06-14T19:06:35Z</time>
      </trkpt>
      <trkpt lat="43.88605" lon="1.88128">
        <ele>135</ele>
        <time>2018-06-14T19:06:36Z</time>
      </trkpt>
      <trkpt lat="43.88599" lon="1.88128">
        <ele>135</ele>
        <time>2018-06-14T19:06:37Z</time>
      </trkpt>
      <trkpt lat="43.88593" lon="1.88127">
        <ele>135</ele>
        <time>2018-06-14T19:06:38Z</time>
      </trkpt>
      <trkpt lat="43.88588" lon="1.88126">
        <ele>135</ele>
        <time>2018-06-14T19:06:39Z</time>
      </trkpt>
      <trkpt lat="43.88583" lon="1.88125">
        <ele>135</ele>
        <time>2018-06-14T19:06:40Z</time>
      </trkpt>
      <trkpt lat="43.88578" lon="1.88123">
        <ele>135</ele>
        <time>2018-06-14T19:06:41Z</time>
      </trkpt>
      <trkpt lat="43.88574" lon="1.88119">
        <ele>135</ele>
        <time>2018-06-14T19:06:42Z</time>
      </trkpt>
      <trkpt lat="43.88571" lon="1.88113">
        <ele>135</ele>
        <time>2018-06-14T19:06:43Z</time>
      </trkpt>
      <trkpt lat="43.8857" lon="1.88106">
        <ele>135</ele>
        <time>2018-06-14T19:06:44Z</time>
      </trkpt>
      <trkpt lat="43.8857" lon="1.88098">
        <ele>135</ele>
        <time>2018-06-14T19:06:45Z</time>
      </trkpt>
      <trkpt lat="43.8857" lon="1.8809">
        <ele>135</ele>
        <time>2018-06-14T19:06:46Z</time>
      </trkpt>
      <trkpt lat="43.88571" lon="1.88082">
        <ele>135</ele>
        <time>2018-06-14T19:06:47Z</time>
      </trkpt>
      <trkpt lat="43.88571" lon="1.88074">
        <ele>135</ele>
        <time>2018-06-14T19:06:48Z</time>
      </trkpt>
      <trkpt lat="43.88572" lon="1.88067">
        <ele>135</ele>
        <time>2018-06-14T19:06:49Z</time>
      </trkpt>
      <trkpt lat="43.88572" lon="1.8806">
        <ele>135</ele>
        <time>2018-06-14T19:06:50Z</time>
      </trkpt>
      <trkpt lat="43.88572" lon="1.88052">
        <ele>135</ele>
        <time>2018-06-14T19:06:51Z</time>
      </trkpt>
      <trkpt lat="43.88573" lon="1.88045">
        <ele>135</ele>
        <time>2018-06-14T19:06:52Z</time>
      </trkpt>
      <trkpt lat="43.88573" lon="1.88038">
        <ele>135</ele>
        <time>2018-06-14T19:06:53Z</time>
      </trkpt>
      <trkpt lat="43.88573" lon="1.88031">
        <ele>135</ele>
        <time>2018-06-14T19:06:54Z</time>
      </trkpt>
      <trkpt lat="43.88574" lon="1.88024">
        <ele>135</ele>
        <time>2018-06-14T19:06:55Z</time>
      </trkpt>
      <trkpt lat="43.88574" lon="1.88017">
        <ele>135</ele>
        <time>2018-06-14T19:06:56Z</time>
      </trkpt>
      <trkpt lat="43.88574" lon="1.8801">
        <ele>135</ele>
        <time>2018-06-14T19:06:57Z</time>
      </trkpt>
      <trkpt lat="43.88575" lon="1.88002">
        <ele>135</ele>
        <time>2018-06-14T19:06:58Z</time>
      </trkpt>
      <trkpt lat="43.88575" lon="1.87994">
        <ele>135</ele>
        <time>2018-06-14T19:06:59Z</time>
      </trkpt>
      <trkpt lat="43.88575" lon="1.87987">
        <ele>135</ele>
        <time>2018-06-14T19:07:00Z</time>
      </trkpt>
      <trkpt lat="43.88575" lon="1.8798">
        <ele>135</ele>
        <time>2018-06-14T19:07:01Z</time>
      </trkpt>
      <trkpt lat="43.88575" lon="1.87973">
        <ele>135</ele>
        <time>2018-06-14T19:07:02Z</time>
      </trkpt>
      <trkpt lat="43.88575" lon="1.87965">
        <ele>135</ele>
        <time>2018-06-14T19:07:03Z</time>
      </trkpt>
      <trkpt lat="43.88575" lon="1.87958">
        <ele>134</ele>
        <time>2018-06-14T19:07:04Z</time>
      </trkpt>
      <trkpt lat="43.88576" lon="1.87951">
        <ele>134</ele>
        <time>2018-06-14T19:07:05Z</time>
      </trkpt>
      <trkpt lat="43.88576" lon="1.87944">
        <ele>134</ele>
        <time>2018-06-14T19:07:06Z</time>
      </trkpt>
      <trkpt lat="43.88576" lon="1.87936">
        <ele>134</ele>
        <time>2018-06-14T19:07:07Z</time>
      </trkpt>
      <trkpt lat="43.88577" lon="1.87929">
        <ele>134</ele>
        <time>2018-06-14T19:07:08Z</time>
      </trkpt>
      <trkpt lat="43.88577" lon="1.87921">
        <ele>134</ele>
        <time>2018-06-14T19:07:09Z</time>
      </trkpt>
      <trkpt lat="43.88578" lon="1.87914">
        <ele>134</ele>
        <time>2018-06-14T19:07:10Z</time>
      </trkpt>
      <trkpt lat="43.88579" lon="1.87906">
        <ele>134</ele>
        <time>2018-06-14T19:07:11Z</time>
      </trkpt>
      <trkpt lat="43.8858" lon="1.87898">
        <ele>134</ele>
        <time>2018-06-14T19:07:12Z</time>
      </trkpt>
      <trkpt lat="43.88581" lon="1.87891">
        <ele>133</ele>
        <time>2018-06-14T19:07:13Z</time>
      </trkpt>
      <trkpt lat="43.88582" lon="1.87883">
        <ele>133</ele>
        <time>2018-06-14T19:07:14Z</time>
      </trkpt>
      <trkpt lat="43.88583" lon="1.87876">
        <ele>134</ele>
        <time>2018-06-14T19:07:15Z</time>
      </trkpt>
      <trkpt lat="43.88583" lon="1.87868">
        <ele>134</ele>
        <time>2018-06-14T19:07:16Z</time>
      </trkpt>
      <trkpt lat="43.88584" lon="1.87861">
        <ele>134</ele>
        <time>2018-06-14T19:07:17Z</time>
      </trkpt>
      <trkpt lat="43.88585" lon="1.87853">
        <ele>133</ele>
        <time>2018-06-14T19:07:18Z</time>
      </trkpt>
      <trkpt lat="43.88585" lon="1.87846">
        <ele>134</ele>
        <time>2018-06-14T19:07:19Z</time>
      </trkpt>
      <trkpt lat="43.88586" lon="1.87838">
        <ele>134</ele>
        <time>2018-06-14T19:07:20Z</time>
      </trkpt>
      <trkpt lat="43.88587" lon="1.87831">
        <ele>134</ele>
        <time>2018-06-14T19:07:21Z</time>
      </trkpt>
      <trkpt lat="43.88588" lon="1.87823">
        <ele>134</ele>
        <time>2018-06-14T19:07:22Z</time>
      </trkpt>
      <trkpt lat="43.88589" lon="1.87816">
        <ele>133</ele>
        <time>2018-06-14T19:07:23Z</time>
      </trkpt>
      <trkpt lat="43.88589" lon="1.87808">
        <ele>133</ele>
        <time>2018-06-14T19:07:24Z</time>
      </trkpt>
      <trkpt lat="43.8859" lon="1.87801">
        <ele>133</ele>
        <time>2018-06-14T19:07:25Z</time>
      </trkpt>
      <trkpt lat="43.88591" lon="1.87793">
        <ele>133</ele>
        <time>2018-06-14T19:07:26Z</time>
      </trkpt>
      <trkpt lat="43.88592" lon="1.87786">
        <ele>133</ele>
        <time>2018-06-14T19:07:27Z</time>
      </trkpt>
      <trkpt lat="43.88593" lon="1.87778">
        <ele>134</ele>
        <time>2018-06-14T19:07:28Z</time>
      </trkpt>
      <trkpt lat="43.88594" lon="1.87771">
        <ele>134</ele>
        <time>2018-06-14T19:07:29Z</time>
      </trkpt>
      <trkpt lat="43.88595" lon="1.87763">
        <ele>133</ele>
        <time>2018-06-14T19:07:30Z</time>
      </trkpt>
      <trkpt lat="43.88595" lon="1.87755">
        <ele>133</ele>
        <time>2018-06-14T19:07:31Z</time>
      </trkpt>
      <trkpt lat="43.88596" lon="1.87748">
        <ele>134</ele>
        <time>2018-06-14T19:07:32Z</time>
      </trkpt>
      <trkpt lat="43.88596" lon="1.8774">
        <ele>134</ele>
        <time>2018-06-14T19:07:33Z</time>
      </trkpt>
      <trkpt lat="43.88597" lon="1.87732">
        <ele>133</ele>
        <time>2018-06-14T19:07:34Z</time>
      </trkpt>
      <trkpt lat="43.88597" lon="1.87725">
        <ele>133</ele>
        <time>2018-06-14T19:07:35Z</time>
      </trkpt>
      <trkpt lat="43.88597" lon="1.87717">
        <ele>133</ele>
        <time>2018-06-14T19:07:36Z</time>
      </trkpt>
      <trkpt lat="43.88597" lon="1.87709">
        <ele>134</ele>
        <time>2018-06-14T19:07:37Z</time>
      </trkpt>
      <trkpt lat="43.88596" lon="1.87701">
        <ele>134</ele>
        <time>2018-06-14T19:07:38Z</time>
      </trkpt>
      <trkpt lat="43.88596" lon="1.87693">
        <ele>134</ele>
        <time>2018-06-14T19:07:39Z</time>
      </trkpt>
      <trkpt lat="43.88596" lon="1.87685">
        <ele>134</ele>
        <time>2018-06-14T19:07:40Z</time>
      </trkpt>
      <trkpt lat="43.88595" lon="1.87677">
        <ele>133</ele>
        <time>2018-06-14T19:07:41Z</time>
      </trkpt>
      <trkpt lat="43.88595" lon="1.8767">
        <ele>133</ele>
        <time>2018-06-14T19:07:42Z</time>
      </trkpt>
      <trkpt lat="43.88594" lon="1.87662">
        <ele>134</ele>
        <time>2018-06-14T19:07:43Z</time>
      </trkpt>
      <trkpt lat="43.88594" lon="1.87654">
        <ele>134</ele>
        <time>2018-06-14T19:07:44Z</time>
      </trkpt>
      <trkpt lat="43.88593" lon="1.87646">
        <ele>134</ele>
        <time>2018-06-14T19:07:45Z</time>
      </trkpt>
      <trkpt lat="43.88592" lon="1.87638">
        <ele>134</ele>
        <time>2018-06-14T19:07:46Z</time>
      </trkpt>
      <trkpt lat="43.88591" lon="1.8763">
        <ele>134</ele>
        <time>2018-06-14T19:07:47Z</time>
      </trkpt>
      <trkpt lat="43.88591" lon="1.87622">
        <ele>134</ele>
        <time>2018-06-14T19:07:48Z</time>
      </trkpt>
      <trkpt lat="43.8859" lon="1.87614">
        <ele>134</ele>
        <time>2018-06-14T19:07:49Z</time>
      </trkpt>
      <trkpt lat="43.8859" lon="1.87606">
        <ele>134</ele>
        <time>2018-06-14T19:07:50Z</time>
      </trkpt>
      <trkpt lat="43.88589" lon="1.87599">
        <ele>134</ele>
        <time>2018-06-14T19:07:51Z</time>
      </trkpt>
      <trkpt lat="43.88588" lon="1.87592">
        <ele>134</ele>
        <time>2018-06-14T19:07:52Z</time>
      </trkpt>
      <trkpt lat="43.88588" lon="1.87584">
        <ele>133</ele>
        <time>2018-06-14T19:07:53Z</time>
      </trkpt>
      <trkpt lat="43.88587" lon="1.87577">
        <ele>133</ele>
        <time>2018-06-14T19:07:54Z</time>
      </trkpt>
      <trkpt lat="43.88587" lon="1.87569">
        <ele>133</ele>
        <time>2018-06-14T19:07:55Z</time>
      </trkpt>
      <trkpt lat="43.88586" lon="1.87562">
        <ele>133</ele>
        <time>2018-06-14T19:07:56Z</time>
      </trkpt>
      <trkpt lat="43.88585" lon="1.87554">
        <ele>133</ele>
        <time>2018-06-14T19:07:57Z</time>
      </trkpt>
      <trkpt lat="43.88585" lon="1.87546">
        <ele>133</ele>
        <time>2018-06-14T19:07:58Z</time>
      </trkpt>
      <trkpt lat="43.88584" lon="1.87539">
        <ele>133</ele>
        <time>2018-06-14T19:07:59Z</time>
      </trkpt>
      <trkpt lat="43.88583" lon="1.87531">
        <ele>133</ele>
        <time>2018-06-14T19:08:00Z</time>
      </trkpt>
      <trkpt lat="43.88583" lon="1.87523">
        <ele>133</ele>
        <time>2018-06-14T19:08:01Z</time>
      </trkpt>
      <trkpt lat="43.88582" lon="1.87516">
        <ele>133</ele>
        <time>2018-06-14T19:08:02Z</time>
      </trkpt>
      <trkpt lat="43.88581" lon="1.87508">
        <ele>133</ele>
        <time>2018-06-14T19:08:03Z</time>
      </trkpt>
      <trkpt lat="43.88579" lon="1.87501">
        <ele>133</ele>
        <time>2018-06-14T19:08:04Z</time>
      </trkpt>
      <trkpt lat="43.88577" lon="1.87493">
        <ele>133</ele>
        <time>2018-06-14T19:08:05Z</time>
      </trkpt>
      <trkpt lat="43.88575" lon="1.87486">
        <ele>133</ele>
        <time>2018-06-14T19:08:06Z</time>
      </trkpt>
      <trkpt lat="43.88573" lon="1.87479">
        <ele>133</ele>
        <time>2018-06-14T19:08:07Z</time>
      </trkpt>
      <trkpt lat="43.88571" lon="1.87472">
        <ele>133</ele>
        <time>2018-06-14T19:08:08Z</time>
      </trkpt>
      <trkpt lat="43.88568" lon="1.87464">
        <ele>133</ele>
        <time>2018-06-14T19:08:09Z</time>
      </trkpt>
      <trkpt lat="43.88566" lon="1.87457">
        <ele>133</ele>
        <time>2018-06-14T19:08:10Z</time>
      </trkpt>
      <trkpt lat="43.88563" lon="1.87451">
        <ele>133</ele>
        <time>2018-06-14T19:08:11Z</time>
      </trkpt>
      <trkpt lat="43.88561" lon="1.87444">
        <ele>133</ele>
        <time>2018-06-14T19:08:12Z</time>
      </trkpt>
      <trkpt lat="43.88558" lon="1.87437">
        <ele>133</ele>
        <time>2018-06-14T19:08:13Z</time>
      </trkpt>
      <trkpt lat="43.88555" lon="1.87431">
        <ele>133</ele>
        <time>2018-06-14T19:08:14Z</time>
      </trkpt>
      <trkpt lat="43.88553" lon="1.87424">
        <ele>133</ele>
        <time>2018-06-14T19:08:15Z</time>
      </trkpt>
      <trkpt lat="43.8855" lon="1.87418">
        <ele>133</ele>
        <time>2018-06-14T19:08:16Z</time>
      </trkpt>
      <trkpt lat="43.88547" lon="1.87411">
        <ele>133</ele>
        <time>2018-06-14T19:08:17Z</time>
      </trkpt>
      <trkpt lat="43.88544" lon="1.87405">
        <ele>133</ele>
        <time>2018-06-14T19:08:18Z</time>
      </trkpt>
      <trkpt lat="43.88541" lon="1.87398">
        <ele>133</ele>
        <time>2018-06-14T19:08:19Z</time>
      </trkpt>
      <trkpt lat="43.88538" lon="1.87392">
        <ele>133</ele>
        <time>2018-06-14T19:08:20Z</time>
      </trkpt>
      <trkpt lat="43.88534" lon="1.87386">
        <ele>133</ele>
        <time>2018-06-14T19:08:21Z</time>
      </trkpt>
      <trkpt lat="43.88531" lon="1.87379">
        <ele>133</ele>
        <time>2018-06-14T19:08:22Z</time>
      </trkpt>
      <trkpt lat="43.88528" lon="1.87373">
        <ele>133</ele>
        <time>2018-06-14T19:08:23Z</time>
      </trkpt>
      <trkpt lat="43.88525" lon="1.87367">
        <ele>133</ele>
        <time>2018-06-14T19:08:24Z</time>
      </trkpt>
      <trkpt lat="43.88522" lon="1.87361">
        <ele>133</ele>
        <time>2018-06-14T19:08:25Z</time>
      </trkpt>
      <trkpt lat="43.88519" lon="1.87354">
        <ele>133</ele>
        <time>2018-06-14T19:08:26Z</time>
      </trkpt>
      <trkpt lat="43.88515" lon="1.87348">
        <ele>133</ele>
        <time>2018-06-14T19:08:27Z</time>
      </trkpt>
      <trkpt lat="43.88512" lon="1.87342">
        <ele>133</ele>
        <time>2018-06-14T19:08:28Z</time>
      </trkpt>
      <trkpt lat="43.88509" lon="1.87336">
        <ele>133</ele>
        <time>2018-06-14T19:08:29Z</time>
      </trkpt>
      <trkpt lat="43.88506" lon="1.87329">
        <ele>133</ele>
        <time>2018-06-14T19:08:30Z</time>
      </trkpt>
      <trkpt lat="43.88502" lon="1.87323">
        <ele>133</ele>
        <time>2018-06-14T19:08:31Z</time>
      </trkpt>
      <trkpt lat="43.88499" lon="1.87317">
        <ele>133</ele>
        <time>2018-06-14T19:08:32Z</time>
      </trkpt>
      <trkpt lat="43.88496" lon="1.87311">
        <ele>133</ele>
        <time>2018-06-14T19:08:33Z</time>
      </trkpt>
      <trkpt lat="43.88492" lon="1.87306">
        <ele>133</ele>
        <time>2018-06-14T19:08:34Z</time>
      </trkpt>
      <trkpt lat="43.88489" lon="1.873">
        <ele>133</ele>
        <time>2018-06-14T19:08:35Z</time>
      </trkpt>
      <trkpt lat="43.88486" lon="1.87293">
        <ele>133</ele>
        <time>2018-06-14T19:08:36Z</time>
      </trkpt>
      <trkpt lat="43.88483" lon="1.87287">
        <ele>133</ele>
        <time>2018-06-14T19:08:37Z</time>
      </trkpt>
      <trkpt lat="43.88481" lon="1.87281">
        <ele>133</ele>
        <time>2018-06-14T19:08:38Z</time>
      </trkpt>
      <trkpt lat="43.88478" lon="1.87274">
        <ele>133</ele>
        <time>2018-06-14T19:08:39Z</time>
      </trkpt>
      <trkpt lat="43.88475" lon="1.87268">
        <ele>133</ele>
        <time>2018-06-14T19:08:40Z</time>
      </trkpt>
      <trkpt lat="43.88472" lon="1.87262">
        <ele>133</ele>
        <time>2018-06-14T19:08:41Z</time>
      </trkpt>
      <trkpt lat="43.8847" lon="1.87256">
        <ele>133</ele>
        <time>2018-06-14T19:08:42Z</time>
      </trkpt>
      <trkpt lat="43.88467" lon="1.8725">
        <ele>133</ele>
        <time>2018-06-14T19:08:43Z</time>
      </trkpt>
      <trkpt lat="43.88464" lon="1.87244">
        <ele>133</ele>
        <time>2018-06-14T19:08:44Z</time>
      </trkpt>
      <trkpt lat="43.88461" lon="1.87238">
        <ele>133</ele>
        <time>2018-06-14T19:08:45Z</time>
      </trkpt>
      <trkpt lat="43.88458" lon="1.87232">
        <ele>133</ele>
        <time>2018-06-14T19:08:46Z</time>
      </trkpt>
      <trkpt lat="43.88455" lon="1.87226">
        <ele>133</ele>
        <time>2018-06-14T19:08:47Z</time>
      </trkpt>
      <trkpt lat="43.88452" lon="1.87219">
        <ele>133</ele>
        <time>2018-06-14T19:08:48Z</time>
      </trkpt>
      <trkpt lat="43.88449" lon="1.87213">
        <ele>133</ele>
        <time>2018-06-14T19:08:49Z</time>
      </trkpt>
      <trkpt lat="43.88445" lon="1.87207">
        <ele>133</ele>
        <time>2018-06-14T19:08:50Z</time>
      </trkpt>
      <trkpt lat="43.88442" lon="1.872">
        <ele>133</ele>
        <time>2018-06-14T19:08:51Z</time>
      </trkpt>
      <trkpt lat="43.88439" lon="1.87194">
        <ele>133</ele>
        <time>2018-06-14T19:08:52Z</time>
      </trkpt>
      <trkpt lat="43.88435" lon="1.87188">
        <ele>133</ele>
        <time>2018-06-14T19:08:53Z</time>
      </trkpt>
      <trkpt lat="43.88432" lon="1.87182">
        <ele>133</ele>
        <time>2018-06-14T19:08:54Z</time>
      </trkpt>
      <trkpt lat="43.88429" lon="1.87175">
        <ele>133</ele>
        <time>2018-06-14T19:08:55Z</time>
      </trkpt>
      <trkpt lat="43.88426" lon="1.8717">
        <ele>133</ele>
        <time>2018-06-14T19:08:56Z</time>
      </trkpt>
      <trkpt lat="43.88422" lon="1.87163">
        <ele>133</ele>
        <time>2018-06-14T19:08:57Z</time>
      </trkpt>
      <trkpt lat="43.88418" lon="1.87157">
        <ele>133</ele>
        <time>2018-06-14T19:08:58Z</time>
      </trkpt>
      <trkpt lat="43.88415" lon="1.87151">
        <ele>133</ele>
        <time>2018-06-14T19:08:59Z</time>
      </trkpt>
      <trkpt lat="43.88411" lon="1.87145">
        <ele>133</ele>
        <time>2018-06-14T19:09:00Z</time>
      </trkpt>
      <trkpt lat="43.88408" lon="1.87139">
        <ele>133</ele>
        <time>2018-06-14T19:09:01Z</time>
      </trkpt>
      <trkpt lat="43.88404" lon="1.87133">
        <ele>133</ele>
        <time>2018-06-14T19:09:02Z</time>
      </trkpt>
      <trkpt lat="43.884" lon="1.87127">
        <ele>133</ele>
        <time>2018-06-14T19:09:03Z</time>
      </trkpt>
      <trkpt lat="43.88397" lon="1.87121">
        <ele>133</ele>
        <time>2018-06-14T19:09:04Z</time>
      </trkpt>
      <trkpt lat="43.88393" lon="1.87115">
        <ele>133</ele>
        <time>2018-06-14T19:09:05Z</time>
      </trkpt>
      <trkpt lat="43.8839" lon="1.87109">
        <ele>133</ele>
        <time>2018-06-14T19:09:06Z</time>
      </trkpt>
      <trkpt lat="43.88386" lon="1.87103">
        <ele>133</ele>
        <time>2018-06-14T19:09:07Z</time>
      </trkpt>
      <trkpt lat="43.88383" lon="1.87097">
        <ele>133</ele>
        <time>2018-06-14T19:09:08Z</time>
      </trkpt>
      <trkpt lat="43.88379" lon="1.87091">
        <ele>133</ele>
        <time>2018-06-14T19:09:09Z</time>
      </trkpt>
      <trkpt lat="43.88375" lon="1.87086">
        <ele>133</ele>
        <time>2018-06-14T19:09:10Z</time>
      </trkpt>
      <trkpt lat="43.88371" lon="1.8708">
        <ele>133</ele>
        <time>2018-06-14T19:09:11Z</time>
      </trkpt>
      <trkpt lat="43.88368" lon="1.87074">
        <ele>133</ele>
        <time>2018-06-14T19:09:12Z</time>
      </trkpt>
      <trkpt lat="43.88364" lon="1.87068">
        <ele>133</ele>
        <time>2018-06-14T19:09:13Z</time>
      </trkpt>
      <trkpt lat="43.8836" lon="1.87062">
        <ele>133</ele>
        <time>2018-06-14T19:09:14Z</time>
      </trkpt>
      <trkpt lat="43.88356" lon="1.87056">
        <ele>133</ele>
        <time>2018-06-14T19:09:15Z</time>
      </trkpt>
      <trkpt lat="43.88353" lon="1.87049">
        <ele>133</ele>
        <time>2018-06-14T19:09:16Z</time>
      </trkpt>
      <trkpt lat="43.88349" lon="1.87043">
        <ele>133</ele>
        <time>2018-06-14T19:09:17Z</time>
      </trkpt>
      <trkpt lat="43.88345" lon="1.87037">
        <ele>133</ele>
        <time>2018-06-14T19:09:18Z</time>
      </trkpt>
      <trkpt lat="43.88341" lon="1.87031">
        <ele>133</ele>
        <time>2018-06-14T19:09:19Z</time>
      </trkpt>
      <trkpt lat="43.88338" lon="1.87024">
        <ele>133</ele>
        <time>2018-06-14T19:09:20Z</time>
      </trkpt>
      <trkpt lat="43.88334" lon="1.87018">
        <ele>133</ele>
        <time>2018-06-14T19:09:21Z</time>
      </trkpt>
      <trkpt lat="43.8833" lon="1.87012">
        <ele>133</ele>
        <time>2018-06-14T19:09:22Z</time>
      </trkpt>
      <trkpt lat="43.88327" lon="1.87006">
        <ele>133</ele>
        <time>2018-06-14T19:09:23Z</time>
      </trkpt>
      <trkpt lat="43.88323" lon="1.87">
        <ele>133</ele>
        <time>2018-06-14T19:09:24Z</time>
      </trkpt>
      <trkpt lat="43.8832" lon="1.86993">
        <ele>133</ele>
        <time>2018-06-14T19:09:25Z</time>
      </trkpt>
      <trkpt lat="43.88317" lon="1.86987">
        <ele>133</ele>
        <time>2018-06-14T19:09:26Z</time>
      </trkpt>
      <trkpt lat="43.88314" lon="1.8698">
        <ele>133</ele>
        <time>2018-06-14T19:09:27Z</time>
      </trkpt>
      <trkpt lat="43.88311" lon="1.86974">
        <ele>132</ele>
        <time>2018-06-14T19:09:28Z</time>
      </trkpt>
      <trkpt lat="43.88309" lon="1.86967">
        <ele>133</ele>
        <time>2018-06-14T19:09:29Z</time>
      </trkpt>
      <trkpt lat="43.88307" lon="1.8696">
        <ele>132</ele>
        <time>2018-06-14T19:09:30Z</time>
      </trkpt>
      <trkpt lat="43.88304" lon="1.86953">
        <ele>133</ele>
        <time>2018-06-14T19:09:31Z</time>
      </trkpt>
      <trkpt lat="43.88301" lon="1.86947">
        <ele>132</ele>
        <time>2018-06-14T19:09:32Z</time>
      </trkpt>
      <trkpt lat="43.88298" lon="1.86941">
        <ele>132</ele>
        <time>2018-06-14T19:09:33Z</time>
      </trkpt>
      <trkpt lat="43.88296" lon="1.86934">
        <ele>132</ele>
        <time>2018-06-14T19:09:34Z</time>
      </trkpt>
      <trkpt lat="43.88293" lon="1.86928">
        <ele>132</ele>
        <time>2018-06-14T19:09:35Z</time>
      </trkpt>
      <trkpt lat="43.88291" lon="1.86921">
        <ele>132</ele>
        <time>2018-06-14T19:09:36Z</time>
      </trkpt>
      <trkpt lat="43.88288" lon="1.86915">
        <ele>132</ele>
        <time>2018-06-14T19:09:37Z</time>
      </trkpt>
      <trkpt lat="43.88285" lon="1.86908">
        <ele>132</ele>
        <time>2018-06-14T19:09:38Z</time>
      </trkpt>
      <trkpt lat="43.88282" lon="1.86901">
        <ele>132</ele>
        <time>2018-06-14T19:09:39Z</time>
      </trkpt>
      <trkpt lat="43.8828" lon="1.86894">
        <ele>132</ele>
        <time>2018-06-14T19:09:40Z</time>
      </trkpt>
      <trkpt lat="43.88277" lon="1.86887">
        <ele>132</ele>
        <time>2018-06-14T19:09:41Z</time>
      </trkpt>
      <trkpt lat="43.88274" lon="1.8688">
        <ele>132</ele>
        <time>2018-06-14T19:09:42Z</time>
      </trkpt>
      <trkpt lat="43.88271" lon="1.86873">
        <ele>132</ele>
        <time>2018-06-14T19:09:43Z</time>
      </trkpt>
      <trkpt lat="43.88268" lon="1.86866">
        <ele>132</ele>
        <time>2018-06-14T19:09:44Z</time>
      </trkpt>
      <trkpt lat="43.88265" lon="1.86859">
        <ele>132</ele>
        <time>2018-06-14T19:09:45Z</time>
      </trkpt>
      <trkpt lat="43.88262" lon="1.86852">
        <ele>132</ele>
        <time>2018-06-14T19:09:46Z</time>
      </trkpt>
      <trkpt lat="43.88259" lon="1.86845">
        <ele>132</ele>
        <time>2018-06-14T19:09:47Z</time>
      </trkpt>
      <trkpt lat="43.88255" lon="1.86839">
        <ele>132</ele>
        <time>2018-06-14T19:09:48Z</time>
      </trkpt>
      <trkpt lat="43.88252" lon="1.86832">
        <ele>132</ele>
        <time>2018-06-14T19:09:49Z</time>
      </trkpt>
      <trkpt lat="43.88248" lon="1.86826">
        <ele>132</ele>
        <time>2018-06-14T19:09:50Z</time>
      </trkpt>
      <trkpt lat="43.88244" lon="1.8682">
        <ele>132</ele>
        <time>2018-06-14T19:09:51Z</time>
      </trkpt>
      <trkpt lat="43.88241" lon="1.86815">
        <ele>132</ele>
        <time>2018-06-14T19:09:52Z</time>
      </trkpt>
      <trkpt lat="43.88237" lon="1.86809">
        <ele>132</ele>
        <time>2018-06-14T19:09:53Z</time>
      </trkpt>
      <trkpt lat="43.88233" lon="1.86803">
        <ele>132</ele>
        <time>2018-06-14T19:09:54Z</time>
      </trkpt>
      <trkpt lat="43.88229" lon="1.86798">
        <ele>132</ele>
        <time>2018-06-14T19:09:55Z</time>
      </trkpt>
      <trkpt lat="43.88224" lon="1.86792">
        <ele>132</ele>
        <time>2018-06-14T19:09:56Z</time>
      </trkpt>
      <trkpt lat="43.8822" lon="1.86787">
        <ele>132</ele>
        <time>2018-06-14T19:09:57Z</time>
      </trkpt>
      <trkpt lat="43.88216" lon="1.86781">
        <ele>132</ele>
        <time>2018-06-14T19:09:58Z</time>
      </trkpt>
      <trkpt lat="43.88212" lon="1.86775">
        <ele>132</ele>
        <time>2018-06-14T19:09:59Z</time>
      </trkpt>
      <trkpt lat="43.88208" lon="1.8677">
        <ele>132</ele>
        <time>2018-06-14T19:10:00Z</time>
      </trkpt>
      <trkpt lat="43.88204" lon="1.86764">
        <ele>132</ele>
        <time>2018-06-14T19:10:01Z</time>
      </trkpt>
      <trkpt lat="43.882" lon="1.86758">
        <ele>132</ele>
        <time>2018-06-14T19:10:02Z</time>
      </trkpt>
      <trkpt lat="43.88196" lon="1.86753">
        <ele>132</ele>
        <time>2018-06-14T19:10:03Z</time>
      </trkpt>
      <trkpt lat="43.88191" lon="1.86747">
        <ele>132</ele>
        <time>2018-06-14T19:10:04Z</time>
      </trkpt>
      <trkpt lat="43.88187" lon="1.86742">
        <ele>132</ele>
        <time>2018-06-14T19:10:05Z</time>
      </trkpt>
      <trkpt lat="43.88183" lon="1.86736">
        <ele>132</ele>
        <time>2018-06-14T19:10:06Z</time>
      </trkpt>
      <trkpt lat="43.88179" lon="1.86732">
        <ele>132</ele>
        <time>2018-06-14T19:10:07Z</time>
      </trkpt>
      <trkpt lat="43.88175" lon="1.86727">
        <ele>132</ele>
        <time>2018-06-14T19:10:08Z</time>
      </trkpt>
      <trkpt lat="43.88171" lon="1.86721">
        <ele>132</ele>
        <time>2018-06-14T19:10:09Z</time>
      </trkpt>
      <trkpt lat="43.88167" lon="1.86715">
        <ele>132</ele>
        <time>2018-06-14T19:10:10Z</time>
      </trkpt>
      <trkpt lat="43.88163" lon="1.8671">
        <ele>132</ele>
        <time>2018-06-14T19:10:11Z</time>
      </trkpt>
      <trkpt lat="43.88159" lon="1.86705">
        <ele>132</ele>
        <time>2018-06-14T19:10:12Z</time>
      </trkpt>
      <trkpt lat="43.88155" lon="1.86699">
        <ele>132</ele>
        <time>2018-06-14T19:10:13Z</time>
      </trkpt>
      <trkpt lat="43.88151" lon="1.86693">
        <ele>132</ele>
        <time>2018-06-14T19:10:14Z</time>
      </trkpt>
      <trkpt lat="43.88147" lon="1.86687">
        <ele>132</ele>
        <time>2018-06-14T19:10:15Z</time>
      </trkpt>
      <trkpt lat="43.88143" lon="1.86682">
        <ele>132</ele>
        <time>2018-06-14T19:10:16Z</time>
      </trkpt>
      <trkpt lat="43.88139" lon="1.86676">
        <ele>132</ele>
        <time>2018-06-14T19:10:17Z</time>
      </trkpt>
      <trkpt lat="43.88136" lon="1.8667">
        <ele>132</ele>
        <time>2018-06-14T19:10:18Z</time>
      </trkpt>
      <trkpt lat="43.88132" lon="1.86664">
        <ele>132</ele>
        <time>2018-06-14T19:10:19Z</time>
      </trkpt>
      <trkpt lat="43.88128" lon="1.86659">
        <ele>132</ele>
        <time>2018-06-14T19:10:20Z</time>
      </trkpt>
      <trkpt lat="43.88124" lon="1.86653">
        <ele>132</ele>
        <time>2018-06-14T19:10:21Z</time>
      </trkpt>
      <trkpt lat="43.8812" lon="1.86647">
        <ele>132</ele>
        <time>2018-06-14T19:10:22Z</time>
      </trkpt>
      <trkpt lat="43.88116" lon="1.86641">
        <ele>132</ele>
        <time>2018-06-14T19:10:23Z</time>
      </trkpt>
      <trkpt lat="43.88112" lon="1.86635">
        <ele>132</ele>
        <time>2018-06-14T19:10:24Z</time>
      </trkpt>
      <trkpt lat="43.88108" lon="1.86629">
        <ele>132</ele>
        <time>2018-06-14T19:10:25Z</time>
      </trkpt>
      <trkpt lat="43.88105" lon="1.86623">
        <ele>132</ele>
        <time>2018-06-14T19:10:26Z</time>
      </trkpt>
      <trkpt lat="43.88102" lon="1.86616">
        <ele>132</ele>
        <time>2018-06-14T19:10:27Z</time>
      </trkpt>
      <trkpt lat="43.88099" lon="1.8661">
        <ele>132</ele>
        <time>2018-06-14T19:10:28Z</time>
      </trkpt>
      <trkpt lat="43.88096" lon="1.86603">
        <ele>132</ele>
        <time>2018-06-14T19:10:29Z</time>
      </trkpt>
      <trkpt lat="43.88093" lon="1.86596">
        <ele>132</ele>
        <time>2018-06-14T19:10:30Z</time>
      </trkpt>
      <trkpt lat="43.88091" lon="1.86588">
        <ele>132</ele>
        <time>2018-06-14T19:10:31Z</time>
      </trkpt>
      <trkpt lat="43.88088" lon="1.86581">
        <ele>132</ele>
        <time>2018-06-14T19:10:32Z</time>
      </trkpt>
      <trkpt lat="43.88085" lon="1.86574">
        <ele>132</ele>
        <time>2018-06-14T19:10:33Z</time>
      </trkpt>
      <trkpt lat="43.88083" lon="1.86567">
        <ele>132</ele>
        <time>2018-06-14T19:10:34Z</time>
      </trkpt>
      <trkpt lat="43.88081" lon="1.86559">
        <ele>132</ele>
        <time>2018-06-14T19:10:35Z</time>
      </trkpt>
      <trkpt lat="43.88079" lon="1.86552">
        <ele>132</ele>
        <time>2018-06-14T19:10:36Z</time>
      </trkpt>
      <trkpt lat="43.88077" lon="1.86544">
        <ele>132</ele>
        <time>2018-06-14T19:10:37Z</time>
      </trkpt>
      <trkpt lat="43.88074" lon="1.86537">
        <ele>132</ele>
        <time>2018-06-14T19:10:38Z</time>
      </trkpt>
      <trkpt lat="43.88072" lon="1.86529">
        <ele>132</ele>
        <time>2018-06-14T19:10:39Z</time>
      </trkpt>
      <trkpt lat="43.88071" lon="1.86521">
        <ele>132</ele>
        <time>2018-06-14T19:10:40Z</time>
      </trkpt>
      <trkpt lat="43.88069" lon="1.86514">
        <ele>132</ele>
        <time>2018-06-14T19:10:41Z</time>
      </trkpt>
      <trkpt lat="43.88067" lon="1.86506">
        <ele>132</ele>
        <time>2018-06-14T19:10:42Z</time>
      </trkpt>
      <trkpt lat="43.88065" lon="1.86498">
        <ele>132</ele>
        <time>2018-06-14T19:10:43Z</time>
      </trkpt>
      <trkpt lat="43.88064" lon="1.8649">
        <ele>132</ele>
        <time>2018-06-14T19:10:44Z</time>
      </trkpt>
      <trkpt lat="43.88062" lon="1.86482">
        <ele>132</ele>
        <time>2018-06-14T19:10:45Z</time>
      </trkpt>
      <trkpt lat="43.88061" lon="1.86474">
        <ele>132</ele>
        <time>2018-06-14T19:10:46Z</time>
      </trkpt>
      <trkpt lat="43.88059" lon="1.86466">
        <ele>132</ele>
        <time>2018-06-14T19:10:47Z</time>
      </trkpt>
      <trkpt lat="43.88058" lon="1.86459">
        <ele>132</ele>
        <time>2018-06-14T19:10:48Z</time>
      </trkpt>
      <trkpt lat="43.88056" lon="1.86451">
        <ele>133</ele>
        <time>2018-06-14T19:10:49Z</time>
      </trkpt>
      <trkpt lat="43.88055" lon="1.86443">
        <ele>132</ele>
        <time>2018-06-14T19:10:50Z</time>
      </trkpt>
      <trkpt lat="43.88053" lon="1.86435">
        <ele>132</ele>
        <time>2018-06-14T19:10:51Z</time>
      </trkpt>
      <trkpt lat="43.88052" lon="1.86427">
        <ele>132</ele>
        <time>2018-06-14T19:10:52Z</time>
      </trkpt>
      <trkpt lat="43.8805" lon="1.86419">
        <ele>132</ele>
        <time>2018-06-14T19:10:53Z</time>
      </trkpt>
      <trkpt lat="43.88049" lon="1.86411">
        <ele>132</ele>
        <time>2018-06-14T19:10:54Z</time>
      </trkpt>
      <trkpt lat="43.88047" lon="1.86403">
        <ele>132</ele>
        <time>2018-06-14T19:10:55Z</time>
      </trkpt>
      <trkpt lat="43.88046" lon="1.86395">
        <ele>132</ele>
        <time>2018-06-14T19:10:56Z</time>
      </trkpt>
      <trkpt lat="43.88044" lon="1.86387">
        <ele>132</ele>
        <time>2018-06-14T19:10:57Z</time>
      </trkpt>
      <trkpt lat="43.88042" lon="1.86379">
        <ele>132</ele>
        <time>2018-06-14T19:10:58Z</time>
      </trkpt>
      <trkpt lat="43.88041" lon="1.86371">
        <ele>132</ele>
        <time>2018-06-14T19:10:59Z</time>
      </trkpt>
      <trkpt lat="43.88038" lon="1.86364">
        <ele>132</ele>
        <time>2018-06-14T19:11:00Z</time>
      </trkpt>
      <trkpt lat="43.88036" lon="1.86356">
        <ele>131</ele>
        <time>2018-06-14T19:11:01Z</time>
      </trkpt>
      <trkpt lat="43.88034" lon="1.86348">
        <ele>131</ele>
        <time>2018-06-14T19:11:02Z</time>
      </trkpt>
      <trkpt lat="43.88031" lon="1.86341">
        <ele>132</ele>
        <time>2018-06-14T19:11:03Z</time>
      </trkpt>
      <trkpt lat="43.88028" lon="1.86333">
        <ele>132</ele>
        <time>2018-06-14T19:11:04Z</time>
      </trkpt>
      <trkpt lat="43.88026" lon="1.86325">
        <ele>132</ele>
        <time>2018-06-14T19:11:05Z</time>
      </trkpt>
      <trkpt lat="43.88023" lon="1.86318">
        <ele>131</ele>
        <time>2018-06-14T19:11:06Z</time>
      </trkpt>
      <trkpt lat="43.88019" lon="1.86311">
        <ele>132</ele>
        <time>2018-06-14T19:11:07Z</time>
      </trkpt>
      <trkpt lat="43.88016" lon="1.86304">
        <ele>131</ele>
        <time>2018-06-14T19:11:08Z</time>
      </trkpt>
      <trkpt lat="43.88013" lon="1.86297">
        <ele>132</ele>
        <time>2018-06-14T19:11:09Z</time>
      </trkpt>
      <trkpt lat="43.88009" lon="1.86291">
        <ele>131</ele>
        <time>2018-06-14T19:11:10Z</time>
      </trkpt>
      <trkpt lat="43.88006" lon="1.86284">
        <ele>131</ele>
        <time>2018-06-14T19:11:11Z</time>
      </trkpt>
      <trkpt lat="43.88003" lon="1.86278">
        <ele>131</ele>
        <time>2018-06-14T19:11:12Z</time>
      </trkpt>
      <trkpt lat="43.88" lon="1.86271">
        <ele>131</ele>
        <time>2018-06-14T19:11:13Z</time>
      </trkpt>
      <trkpt lat="43.87997" lon="1.86265">
        <ele>131</ele>
        <time>2018-06-14T19:11:14Z</time>
      </trkpt>
      <trkpt lat="43.87995" lon="1.86259">
        <ele>131</ele>
        <time>2018-06-14T19:11:15Z</time>
      </trkpt>
      <trkpt lat="43.87992" lon="1.86253">
        <ele>131</ele>
        <time>2018-06-14T19:11:16Z</time>
      </trkpt>
      <trkpt lat="43.87989" lon="1.86247">
        <ele>131</ele>
        <time>2018-06-14T19:11:17Z</time>
      </trkpt>
      <trkpt lat="43.87987" lon="1.8624">
        <ele>131</ele>
        <time>2018-06-14T19:11:18Z</time>
      </trkpt>
      <trkpt lat="43.87984" lon="1.86234">
        <ele>131</ele>
        <time>2018-06-14T19:11:19Z</time>
      </trkpt>
      <trkpt lat="43.87982" lon="1.86227">
        <ele>131</ele>
        <time>2018-06-14T19:11:20Z</time>
      </trkpt>
      <trkpt lat="43.87979" lon="1.86221">
        <ele>131</ele>
        <time>2018-06-14T19:11:21Z</time>
      </trkpt>
      <trkpt lat="43.87977" lon="1.86214">
        <ele>131</ele>
        <time>2018-06-14T19:11:22Z</time>
      </trkpt>
      <trkpt lat="43.87975" lon="1.86207">
        <ele>131</ele>
        <time>2018-06-14T19:11:23Z</time>
      </trkpt>
      <trkpt lat="43.87972" lon="1.86201">
        <ele>132</ele>
        <time>2018-06-14T19:11:24Z</time>
      </trkpt>
      <trkpt lat="43.8797" lon="1.86195">
        <ele>132</ele>
        <time>2018-06-14T19:11:25Z</time>
      </trkpt>
      <trkpt lat="43.87968" lon="1.86189">
        <ele>132</ele>
        <time>2018-06-14T19:11:26Z</time>
      </trkpt>
      <trkpt lat="43.87965" lon="1.86184">
        <ele>132</ele>
        <time>2018-06-14T19:11:27Z</time>
      </trkpt>
      <trkpt lat="43.87963" lon="1.86178">
        <ele>132</ele>
        <time>2018-06-14T19:11:28Z</time>
      </trkpt>
      <trkpt lat="43.87961" lon="1.86174">
        <ele>132</ele>
        <time>2018-06-14T19:11:29Z</time>
      </trkpt>
      <trkpt lat="43.87958" lon="1.86169">
        <ele>132</ele>
        <time>2018-06-14T19:11:30Z</time>
      </trkpt>
      <trkpt lat="43.87956" lon="1.86165">
        <ele>132</ele>
        <time>2018-06-14T19:11:31Z</time>
      </trkpt>
      <trkpt lat="43.87954" lon="1.86161">
        <ele>132</ele>
        <time>2018-06-14T19:11:32Z</time>
      </trkpt>
      <trkpt lat="43.87951" lon="1.86157">
        <ele>132</ele>
        <time>2018-06-14T19:11:33Z</time>
      </trkpt>
      <trkpt lat="43.87949" lon="1.86153">
        <ele>132</ele>
        <time>2018-06-14T19:11:34Z</time>
      </trkpt>
      <trkpt lat="43.87947" lon="1.86149">
        <ele>132</ele>
        <time>2018-06-14T19:11:35Z</time>
      </trkpt>
      <trkpt lat="43.87945" lon="1.86145">
        <ele>132</ele>
        <time>2018-06-14T19:11:36Z</time>
      </trkpt>
      <trkpt lat="43.87943" lon="1.86141">
        <ele>131</ele>
        <time>2018-06-14T19:11:37Z</time>
      </trkpt>
      <trkpt lat="43.8794" lon="1.86137">
        <ele>132</ele>
        <time>2018-06-14T19:11:38Z</time>
      </trkpt>
      <trkpt lat="43.87938" lon="1.86133">
        <ele>132</ele>
        <time>2018-06-14T19:11:39Z</time>
      </trkpt>
      <trkpt lat="43.87936" lon="1.86129">
        <ele>132</ele>
        <time>2018-06-14T19:11:40Z</time>
      </trkpt>
      <trkpt lat="43.87933" lon="1.86125">
        <ele>132</ele>
        <time>2018-06-14T19:11:41Z</time>
      </trkpt>
      <trkpt lat="43.8793" lon="1.86121">
        <ele>132</ele>
        <time>2018-06-14T19:11:42Z</time>
      </trkpt>
      <trkpt lat="43.87928" lon="1.86117">
        <ele>132</ele>
        <time>2018-06-14T19:11:43Z</time>
      </trkpt>
      <trkpt lat="43.87925" lon="1.86113">
        <ele>131</ele>
        <time>2018-06-14T19:11:44Z</time>
      </trkpt>
      <trkpt lat="43.87922" lon="1.86108">
        <ele>131</ele>
        <time>2018-06-14T19:11:45Z</time>
      </trkpt>
      <trkpt lat="43.87919" lon="1.86103">
        <ele>131</ele>
        <time>2018-06-14T19:11:46Z</time>
      </trkpt>
      <trkpt lat="43.87916" lon="1.86098">
        <ele>131</ele>
        <time>2018-06-14T19:11:47Z</time>
      </trkpt>
      <trkpt lat="43.87913" lon="1.86093">
        <ele>131</ele>
        <time>2018-06-14T19:11:48Z</time>
      </trkpt>
      <trkpt lat="43.8791" lon="1.86088">
        <ele>132</ele>
        <time>2018-06-14T19:11:49Z</time>
      </trkpt>
      <trkpt lat="43.87907" lon="1.86083">
        <ele>132</ele>
        <time>2018-06-14T19:11:50Z</time>
      </trkpt>
      <trkpt lat="43.87904" lon="1.86079">
        <ele>132</ele>
        <time>2018-06-14T19:11:51Z</time>
      </trkpt>
      <trkpt lat="43.87902" lon="1.86074">
        <ele>132</ele>
        <time>2018-06-14T19:11:52Z</time>
      </trkpt>
      <trkpt lat="43.87899" lon="1.86069">
        <ele>132</ele>
        <time>2018-06-14T19:11:53Z</time>
      </trkpt>
      <trkpt lat="43.87897" lon="1.86064">
        <ele>131</ele>
        <time>2018-06-14T19:11:54Z</time>
      </trkpt>
      <trkpt lat="43.87894" lon="1.86059">
        <ele>131</ele>
        <time>2018-06-14T19:11:55Z</time>
      </trkpt>
      <trkpt lat="43.87892" lon="1.86055">
        <ele>131</ele>
        <time>2018-06-14T19:11:56Z</time>
      </trkpt>
      <trkpt lat="43.8789" lon="1.8605">
        <ele>131</ele>
        <time>2018-06-14T19:11:57Z</time>
      </trkpt>
      <trkpt lat="43.87888" lon="1.86046">
        <ele>131</ele>
        <time>2018-06-14T19:11:58Z</time>
      </trkpt>
      <trkpt lat="43.87885" lon="1.86041">
        <ele>131</ele>
        <time>2018-06-14T19:11:59Z</time>
      </trkpt>
      <trkpt lat="43.87883" lon="1.86037">
        <ele>131</ele>
        <time>2018-06-14T19:12:00Z</time>
      </trkpt>
      <trkpt lat="43.87881" lon="1.86032">
        <ele>131</ele>
        <time>2018-06-14T19:12:01Z</time>
      </trkpt>
      <trkpt lat="43.87879" lon="1.86027">
        <ele>131</ele>
        <time>2018-06-14T19:12:02Z</time>
      </trkpt>
      <trkpt lat="43.87876" lon="1.86022">
        <ele>131</ele>
        <time>2018-06-14T19:12:03Z</time>
      </trkpt>
      <trkpt lat="43.87874" lon="1.86017">
        <ele>131</ele>
        <time>2018-06-14T19:12:04Z</time>
      </trkpt>
      <trkpt lat="43.87872" lon="1.86012">
        <ele>131</ele>
        <time>2018-06-14T19:12:05Z</time>
      </trkpt>
      <trkpt lat="43.8787" lon="1.86007">
        <ele>131</ele>
        <time>2018-06-14T19:12:06Z</time>
      </trkpt>
      <trkpt lat="43.87868" lon="1.86002">
        <ele>131</ele>
        <time>2018-06-14T19:12:07Z</time>
      </trkpt>
      <trkpt lat="43.87866" lon="1.85997">
        <ele>132</ele>
        <time>2018-06-14T19:12:08Z</time>
      </trkpt>
      <trkpt lat="43.87863" lon="1.85992">
        <ele>131</ele>
        <time>2018-06-14T19:12:09Z</time>
      </trkpt>
      <trkpt lat="43.87861" lon="1.85987">
        <ele>131</ele>
        <time>2018-06-14T19:12:10Z</time>
      </trkpt>
      <trkpt lat="43.87858" lon="1.85982">
        <ele>131</ele>
        <time>2018-06-14T19:12:11Z</time>
      </trkpt>
      <trkpt lat="43.87856" lon="1.85976">
        <ele>132</ele>
        <time>2018-06-14T19:12:12Z</time>
      </trkpt>
      <trkpt lat="43.87854" lon="1.85971">
        <ele>132</ele>
        <time>2018-06-14T19:12:13Z</time>
      </trkpt>
      <trkpt lat="43.87852" lon="1.85965">
        <ele>130</ele>
        <time>2018-06-14T19:12:14Z</time>
      </trkpt>
      <trkpt lat="43.87849" lon="1.8596">
        <ele>130</ele>
        <time>2018-06-14T19:12:15Z</time>
      </trkpt>
      <trkpt lat="43.87846" lon="1.85955">
        <ele>128</ele>
        <time>2018-06-14T19:12:16Z</time>
      </trkpt>
      <trkpt lat="43.87844" lon="1.85949">
        <ele>131</ele>
        <time>2018-06-14T19:12:17Z</time>
      </trkpt>
      <trkpt lat="43.87841" lon="1.85944">
        <ele>130</ele>
        <time>2018-06-14T19:12:18Z</time>
      </trkpt>
      <trkpt lat="43.87839" lon="1.85938">
        <ele>132</ele>
        <time>2018-06-14T19:12:19Z</time>
      </trkpt>
      <trkpt lat="43.87837" lon="1.85933">
        <ele>131</ele>
        <time>2018-06-14T19:12:20Z</time>
      </trkpt>
      <trkpt lat="43.87834" lon="1.85927">
        <ele>132</ele>
        <time>2018-06-14T19:12:21Z</time>
      </trkpt>
      <trkpt lat="43.87831" lon="1.85922">
        <ele>131</ele>
        <time>2018-06-14T19:12:22Z</time>
      </trkpt>
      <trkpt lat="43.87829" lon="1.85916">
        <ele>131</ele>
        <time>2018-06-14T19:12:23Z</time>
      </trkpt>
      <trkpt lat="43.87826" lon="1.85911">
        <ele>130</ele>
        <time>2018-06-14T19:12:24Z</time>
      </trkpt>
      <trkpt lat="43.87823" lon="1.85906">
        <ele>131</ele>
        <time>2018-06-14T19:12:25Z</time>
      </trkpt>
      <trkpt lat="43.87821" lon="1.859">
        <ele>131</ele>
        <time>2018-06-14T19:12:26Z</time>
      </trkpt>
      <trkpt lat="43.87818" lon="1.85894">
        <ele>132</ele>
        <time>2018-06-14T19:12:27Z</time>
      </trkpt>
      <trkpt lat="43.87815" lon="1.85889">
        <ele>131</ele>
        <time>2018-06-14T19:12:28Z</time>
      </trkpt>
      <trkpt lat="43.87813" lon="1.85883">
        <ele>131</ele>
        <time>2018-06-14T19:12:29Z</time>
      </trkpt>
      <trkpt lat="43.8781" lon="1.85878">
        <ele>132</ele>
        <time>2018-06-14T19:12:30Z</time>
      </trkpt>
      <trkpt lat="43.87807" lon="1.85872">
        <ele>132</ele>
        <time>2018-06-14T19:12:31Z</time>
      </trkpt>
      <trkpt lat="43.87804" lon="1.85867">
        <ele>131</ele>
        <time>2018-06-14T19:12:32Z</time>
      </trkpt>
      <trkpt lat="43.87801" lon="1.85861">
        <ele>131</ele>
        <time>2018-06-14T19:12:33Z</time>
      </trkpt>
      <trkpt lat="43.87798" lon="1.85856">
        <ele>132</ele>
        <time>2018-06-14T19:12:34Z</time>
      </trkpt>
      <trkpt lat="43.87796" lon="1.8585">
        <ele>132</ele>
        <time>2018-06-14T19:12:35Z</time>
      </trkpt>
      <trkpt lat="43.87793" lon="1.85845">
        <ele>132</ele>
        <time>2018-06-14T19:12:36Z</time>
      </trkpt>
      <trkpt lat="43.8779" lon="1.8584">
        <ele>132</ele>
        <time>2018-06-14T19:12:37Z</time>
      </trkpt>
      <trkpt lat="43.87788" lon="1.85835">
        <ele>132</ele>
        <time>2018-06-14T19:12:38Z</time>
      </trkpt>
      <trkpt lat="43.87785" lon="1.8583">
        <ele>131</ele>
        <time>2018-06-14T19:12:39Z</time>
      </trkpt>
      <trkpt lat="43.87783" lon="1.85825">
        <ele>131</ele>
        <time>2018-06-14T19:12:40Z</time>
      </trkpt>
      <trkpt lat="43.87781" lon="1.85819">
        <ele>131</ele>
        <time>2018-06-14T19:12:41Z</time>
      </trkpt>
      <trkpt lat="43.87779" lon="1.85814">
        <ele>131</ele>
        <time>2018-06-14T19:12:42Z</time>
      </trkpt>
      <trkpt lat="43.87776" lon="1.85808">
        <ele>131</ele>
        <time>2018-06-14T19:12:43Z</time>
      </trkpt>
      <trkpt lat="43.87773" lon="1.85802">
        <ele>131</ele>
        <time>2018-06-14T19:12:44Z</time>
      </trkpt>
      <trkpt lat="43.8777" lon="1.85796">
        <ele>131</ele>
        <time>2018-06-14T19:12:45Z</time>
      </trkpt>
      <trkpt lat="43.87768" lon="1.8579">
        <ele>131</ele>
        <time>2018-06-14T19:12:46Z</time>
      </trkpt>
      <trkpt lat="43.87765" lon="1.85784">
        <ele>131</ele>
        <time>2018-06-14T19:12:47Z</time>
      </trkpt>
      <trkpt lat="43.87762" lon="1.85778">
        <ele>131</ele>
        <time>2018-06-14T19:12:48Z</time>
      </trkpt>
      <trkpt lat="43.87759" lon="1.85772">
        <ele>131</ele>
        <time>2018-06-14T19:12:49Z</time>
      </trkpt>
      <trkpt lat="43.87756" lon="1.85767">
        <ele>131</ele>
        <time>2018-06-14T19:12:50Z</time>
      </trkpt>
      <trkpt lat="43.87753" lon="1.85761">
        <ele>131</ele>
        <time>2018-06-14T19:12:51Z</time>
      </trkpt>
      <trkpt lat="43.8775" lon="1.85755">
        <ele>131</ele>
        <time>2018-06-14T19:12:52Z</time>
      </trkpt>
      <trkpt lat="43.87747" lon="1.85749">
        <ele>131</ele>
        <time>2018-06-14T19:12:53Z</time>
      </trkpt>
      <trkpt lat="43.87745" lon="1.85744">
        <ele>131</ele>
        <time>2018-06-14T19:12:54Z</time>
      </trkpt>
      <trkpt lat="43.87742" lon="1.85738">
        <ele>131</ele>
        <time>2018-06-14T19:12:55Z</time>
      </trkpt>
      <trkpt lat="43.87741" lon="1.85732">
        <ele>131</ele>
        <time>2018-06-14T19:12:56Z</time>
      </trkpt>
      <trkpt lat="43.87738" lon="1.85726">
        <ele>131</ele>
        <time>2018-06-14T19:12:57Z</time>
      </trkpt>
      <trkpt lat="43.87736" lon="1.8572">
        <ele>131</ele>
        <time>2018-06-14T19:12:58Z</time>
      </trkpt>
      <trkpt lat="43.87735" lon="1.85714">
        <ele>131</ele>
        <time>2018-06-14T19:12:59Z</time>
      </trkpt>
      <trkpt lat="43.87733" lon="1.85707">
        <ele>131</ele>
        <time>2018-06-14T19:13:00Z</time>
      </trkpt>
      <trkpt lat="43.87731" lon="1.857">
        <ele>131</ele>
        <time>2018-06-14T19:13:01Z</time>
      </trkpt>
      <trkpt lat="43.87729" lon="1.85693">
        <ele>131</ele>
        <time>2018-06-14T19:13:02Z</time>
      </trkpt>
      <trkpt lat="43.87728" lon="1.85686">
        <ele>131</ele>
        <time>2018-06-14T19:13:03Z</time>
      </trkpt>
      <trkpt lat="43.87726" lon="1.85678">
        <ele>131</ele>
        <time>2018-06-14T19:13:04Z</time>
      </trkpt>
      <trkpt lat="43.87724" lon="1.85671">
        <ele>130</ele>
        <time>2018-06-14T19:13:05Z</time>
      </trkpt>
      <trkpt lat="43.87723" lon="1.85664">
        <ele>130</ele>
        <time>2018-06-14T19:13:06Z</time>
      </trkpt>
      <trkpt lat="43.87721" lon="1.85656">
        <ele>130</ele>
        <time>2018-06-14T19:13:07Z</time>
      </trkpt>
      <trkpt lat="43.8772" lon="1.85649">
        <ele>130</ele>
        <time>2018-06-14T19:13:08Z</time>
      </trkpt>
      <trkpt lat="43.87718" lon="1.85642">
        <ele>130</ele>
        <time>2018-06-14T19:13:09Z</time>
      </trkpt>
      <trkpt lat="43.87717" lon="1.85635">
        <ele>130</ele>
        <time>2018-06-14T19:13:10Z</time>
      </trkpt>
      <trkpt lat="43.87715" lon="1.85628">
        <ele>131</ele>
        <time>2018-06-14T19:13:11Z</time>
      </trkpt>
      <trkpt lat="43.87714" lon="1.85621">
        <ele>131</ele>
        <time>2018-06-14T19:13:12Z</time>
      </trkpt>
      <trkpt lat="43.87712" lon="1.85614">
        <ele>131</ele>
        <time>2018-06-14T19:13:13Z</time>
      </trkpt>
      <trkpt lat="43.87711" lon="1.85607">
        <ele>130</ele>
        <time>2018-06-14T19:13:14Z</time>
      </trkpt>
      <trkpt lat="43.8771" lon="1.856">
        <ele>130</ele>
        <time>2018-06-14T19:13:15Z</time>
      </trkpt>
      <trkpt lat="43.87708" lon="1.85593">
        <ele>130</ele>
        <time>2018-06-14T19:13:16Z</time>
      </trkpt>
      <trkpt lat="43.87707" lon="1.85586">
        <ele>130</ele>
        <time>2018-06-14T19:13:17Z</time>
      </trkpt>
      <trkpt lat="43.87706" lon="1.85579">
        <ele>131</ele>
        <time>2018-06-14T19:13:18Z</time>
      </trkpt>
      <trkpt lat="43.87704" lon="1.85572">
        <ele>131</ele>
        <time>2018-06-14T19:13:19Z</time>
      </trkpt>
      <trkpt lat="43.87703" lon="1.85565">
        <ele>130</ele>
        <time>2018-06-14T19:13:20Z</time>
      </trkpt>
      <trkpt lat="43.87701" lon="1.85557">
        <ele>130</ele>
        <time>2018-06-14T19:13:21Z</time>
      </trkpt>
      <trkpt lat="43.877" lon="1.8555">
        <ele>130</ele>
        <time>2018-06-14T19:13:22Z</time>
      </trkpt>
      <trkpt lat="43.87699" lon="1.85542">
        <ele>131</ele>
        <time>2018-06-14T19:13:23Z</time>
      </trkpt>
      <trkpt lat="43.87697" lon="1.85535">
        <ele>131</ele>
        <time>2018-06-14T19:13:24Z</time>
      </trkpt>
      <trkpt lat="43.87695" lon="1.85528">
        <ele>131</ele>
        <time>2018-06-14T19:13:25Z</time>
      </trkpt>
      <trkpt lat="43.87694" lon="1.85521">
        <ele>131</ele>
        <time>2018-06-14T19:13:26Z</time>
      </trkpt>
      <trkpt lat="43.87692" lon="1.85514">
        <ele>131</ele>
        <time>2018-06-14T19:13:27Z</time>
      </trkpt>
      <trkpt lat="43.87691" lon="1.85506">
        <ele>131</ele>
        <time>2018-06-14T19:13:28Z</time>
      </trkpt>
      <trkpt lat="43.87689" lon="1.85499">
        <ele>131</ele>
        <time>2018-06-14T19:13:29Z</time>
      </trkpt>
      <trkpt lat="43.87688" lon="1.85492">
        <ele>131</ele>
        <time>2018-06-14T19:13:30Z</time>
      </trkpt>
      <trkpt lat="43.87686" lon="1.85485">
        <ele>131</ele>
        <time>2018-06-14T19:13:31Z</time>
      </trkpt>
      <trkpt lat="43.87684" lon="1.85478">
        <ele>131</ele>
        <time>2018-06-14T19:13:32Z</time>
      </trkpt>
      <trkpt lat="43.87682" lon="1.85471">
        <ele>131</ele>
        <time>2018-06-14T19:13:33Z</time>
      </trkpt>
      <trkpt lat="43.8768" lon="1.85463">
        <ele>131</ele>
        <time>2018-06-14T19:13:34Z</time>
      </trkpt>
      <trkpt lat="43.87678" lon="1.85456">
        <ele>131</ele>
        <time>2018-06-14T19:13:35Z</time>
      </trkpt>
      <trkpt lat="43.87676" lon="1.85448">
        <ele>131</ele>
        <time>2018-06-14T19:13:36Z</time>
      </trkpt>
      <trkpt lat="43.87673" lon="1.85441">
        <ele>131</ele>
        <time>2018-06-14T19:13:37Z</time>
      </trkpt>
      <trkpt lat="43.87671" lon="1.85433">
        <ele>131</ele>
        <time>2018-06-14T19:13:38Z</time>
      </trkpt>
      <trkpt lat="43.87669" lon="1.85426">
        <ele>131</ele>
        <time>2018-06-14T19:13:39Z</time>
      </trkpt>
      <trkpt lat="43.87667" lon="1.8542">
        <ele>131</ele>
        <time>2018-06-14T19:13:40Z</time>
      </trkpt>
      <trkpt lat="43.87665" lon="1.85413">
        <ele>131</ele>
        <time>2018-06-14T19:13:41Z</time>
      </trkpt>
      <trkpt lat="43.87662" lon="1.85408">
        <ele>131</ele>
        <time>2018-06-14T19:13:42Z</time>
      </trkpt>
      <trkpt lat="43.87659" lon="1.85401">
        <ele>131</ele>
        <time>2018-06-14T19:13:43Z</time>
      </trkpt>
      <trkpt lat="43.87656" lon="1.85395">
        <ele>131</ele>
        <time>2018-06-14T19:13:44Z</time>
      </trkpt>
      <trkpt lat="43.87653" lon="1.85389">
        <ele>131</ele>
        <time>2018-06-14T19:13:45Z</time>
      </trkpt>
      <trkpt lat="43.87651" lon="1.85382">
        <ele>131</ele>
        <time>2018-06-14T19:13:46Z</time>
      </trkpt>
      <trkpt lat="43.87648" lon="1.85375">
        <ele>131</ele>
        <time>2018-06-14T19:13:47Z</time>
      </trkpt>
      <trkpt lat="43.87645" lon="1.85369">
        <ele>131</ele>
        <time>2018-06-14T19:13:48Z</time>
      </trkpt>
      <trkpt lat="43.87643" lon="1.85362">
        <ele>131</ele>
        <time>2018-06-14T19:13:49Z</time>
      </trkpt>
      <trkpt lat="43.8764" lon="1.85356">
        <ele>131</ele>
        <time>2018-06-14T19:13:50Z</time>
      </trkpt>
      <trkpt lat="43.87637" lon="1.85349">
        <ele>131</ele>
        <time>2018-06-14T19:13:51Z</time>
      </trkpt>
      <trkpt lat="43.87634" lon="1.85342">
        <ele>131</ele>
        <time>2018-06-14T19:13:52Z</time>
      </trkpt>
      <trkpt lat="43.87632" lon="1.85335">
        <ele>131</ele>
        <time>2018-06-14T19:13:53Z</time>
      </trkpt>
      <trkpt lat="43.87628" lon="1.85328">
        <ele>130</ele>
        <time>2018-06-14T19:13:54Z</time>
      </trkpt>
      <trkpt lat="43.87625" lon="1.85321">
        <ele>130</ele>
        <time>2018-06-14T19:13:55Z</time>
      </trkpt>
      <trkpt lat="43.87622" lon="1.85315">
        <ele>131</ele>
        <time>2018-06-14T19:13:56Z</time>
      </trkpt>
      <trkpt lat="43.87619" lon="1.85308">
        <ele>131</ele>
        <time>2018-06-14T19:13:57Z</time>
      </trkpt>
      <trkpt lat="43.87616" lon="1.85301">
        <ele>131</ele>
        <time>2018-06-14T19:13:58Z</time>
      </trkpt>
      <trkpt lat="43.87613" lon="1.85294">
        <ele>130</ele>
        <time>2018-06-14T19:13:59Z</time>
      </trkpt>
      <trkpt lat="43.8761" lon="1.85287">
        <ele>130</ele>
        <time>2018-06-14T19:14:00Z</time>
      </trkpt>
      <trkpt lat="43.87607" lon="1.85279">
        <ele>130</ele>
        <time>2018-06-14T19:14:01Z</time>
      </trkpt>
      <trkpt lat="43.87604" lon="1.85272">
        <ele>130</ele>
        <time>2018-06-14T19:14:02Z</time>
      </trkpt>
      <trkpt lat="43.87601" lon="1.85264">
        <ele>130</ele>
        <time>2018-06-14T19:14:03Z</time>
      </trkpt>
      <trkpt lat="43.87598" lon="1.85257">
        <ele>130</ele>
        <time>2018-06-14T19:14:04Z</time>
      </trkpt>
      <trkpt lat="43.87594" lon="1.8525">
        <ele>130</ele>
        <time>2018-06-14T19:14:05Z</time>
      </trkpt>
      <trkpt lat="43.87591" lon="1.85242">
        <ele>130</ele>
        <time>2018-06-14T19:14:06Z</time>
      </trkpt>
      <trkpt lat="43.87587" lon="1.85235">
        <ele>130</ele>
        <time>2018-06-14T19:14:07Z</time>
      </trkpt>
      <trkpt lat="43.87584" lon="1.85227">
        <ele>130</ele>
        <time>2018-06-14T19:14:08Z</time>
      </trkpt>
      <trkpt lat="43.87581" lon="1.85219">
        <ele>130</ele>
        <time>2018-06-14T19:14:09Z</time>
      </trkpt>
      <trkpt lat="43.87578" lon="1.85211">
        <ele>130</ele>
        <time>2018-06-14T19:14:10Z</time>
      </trkpt>
      <trkpt lat="43.87575" lon="1.85203">
        <ele>130</ele>
        <time>2018-06-14T19:14:11Z</time>
      </trkpt>
      <trkpt lat="43.87572" lon="1.85196">
        <ele>130</ele>
        <time>2018-06-14T19:14:12Z</time>
      </trkpt>
      <trkpt lat="43.87569" lon="1.85189">
        <ele>130</ele>
        <time>2018-06-14T19:14:13Z</time>
      </trkpt>
      <trkpt lat="43.87565" lon="1.85182">
        <ele>130</ele>
        <time>2018-06-14T19:14:14Z</time>
      </trkpt>
      <trkpt lat="43.87563" lon="1.85174">
        <ele>130</ele>
        <time>2018-06-14T19:14:15Z</time>
      </trkpt>
      <trkpt lat="43.8756" lon="1.85167">
        <ele>129</ele>
        <time>2018-06-14T19:14:16Z</time>
      </trkpt>
      <trkpt lat="43.87556" lon="1.8516">
        <ele>129</ele>
        <time>2018-06-14T19:14:17Z</time>
      </trkpt>
      <trkpt lat="43.87553" lon="1.85153">
        <ele>130</ele>
        <time>2018-06-14T19:14:18Z</time>
      </trkpt>
      <trkpt lat="43.8755" lon="1.85146">
        <ele>130</ele>
        <time>2018-06-14T19:14:19Z</time>
      </trkpt>
      <trkpt lat="43.87547" lon="1.85139">
        <ele>130</ele>
        <time>2018-06-14T19:14:20Z</time>
      </trkpt>
      <trkpt lat="43.87544" lon="1.85132">
        <ele>130</ele>
        <time>2018-06-14T19:14:21Z</time>
      </trkpt>
      <trkpt lat="43.87541" lon="1.85125">
        <ele>129</ele>
        <time>2018-06-14T19:14:22Z</time>
      </trkpt>
      <trkpt lat="43.87538" lon="1.85118">
        <ele>129</ele>
        <time>2018-06-14T19:14:23Z</time>
      </trkpt>
      <trkpt lat="43.87535" lon="1.8511">
        <ele>129</ele>
        <time>2018-06-14T19:14:24Z</time>
      </trkpt>
      <trkpt lat="43.87532" lon="1.85104">
        <ele>129</ele>
        <time>2018-06-14T19:14:25Z</time>
      </trkpt>
      <trkpt lat="43.87529" lon="1.85097">
        <ele>129</ele>
        <time>2018-06-14T19:14:26Z</time>
      </trkpt>
      <trkpt lat="43.87526" lon="1.8509">
        <ele>129</ele>
        <time>2018-06-14T19:14:27Z</time>
      </trkpt>
      <trkpt lat="43.87523" lon="1.85083">
        <ele>129</ele>
        <time>2018-06-14T19:14:28Z</time>
      </trkpt>
      <trkpt lat="43.8752" lon="1.85076">
        <ele>129</ele>
        <time>2018-06-14T19:14:29Z</time>
      </trkpt>
      <trkpt lat="43.87518" lon="1.8507">
        <ele>129</ele>
        <time>2018-06-14T19:14:30Z</time>
      </trkpt>
      <trkpt lat="43.87515" lon="1.85063">
        <ele>129</ele>
        <time>2018-06-14T19:14:31Z</time>
      </trkpt>
      <trkpt lat="43.87512" lon="1.85057">
        <ele>129</ele>
        <time>2018-06-14T19:14:32Z</time>
      </trkpt>
      <trkpt lat="43.87509" lon="1.85051">
        <ele>129</ele>
        <time>2018-06-14T19:14:33Z</time>
      </trkpt>
      <trkpt lat="43.87506" lon="1.85045">
        <ele>129</ele>
        <time>2018-06-14T19:14:34Z</time>
      </trkpt>
      <trkpt lat="43.87504" lon="1.85039">
        <ele>129</ele>
        <time>2018-06-14T19:14:35Z</time>
      </trkpt>
      <trkpt lat="43.87501" lon="1.85033">
        <ele>129</ele>
        <time>2018-06-14T19:14:36Z</time>
      </trkpt>
      <trkpt lat="43.87499" lon="1.85027">
        <ele>129</ele>
        <time>2018-06-14T19:14:37Z</time>
      </trkpt>
      <trkpt lat="43.87496" lon="1.85022">
        <ele>129</ele>
        <time>2018-06-14T19:14:38Z</time>
      </trkpt>
      <trkpt lat="43.87493" lon="1.85019">
        <ele>129</ele>
        <time>2018-06-14T19:14:39Z</time>
      </trkpt>
      <trkpt lat="43.87489" lon="1.85017">
        <ele>129</ele>
        <time>2018-06-14T19:14:40Z</time>
      </trkpt>
      <trkpt lat="43.87485" lon="1.85018">
        <ele>129</ele>
        <time>2018-06-14T19:14:41Z</time>
      </trkpt>
      <trkpt lat="43.87481" lon="1.8502">
        <ele>129</ele>
        <time>2018-06-14T19:14:42Z</time>
      </trkpt>
      <trkpt lat="43.87478" lon="1.85021">
        <ele>129</ele>
        <time>2018-06-14T19:14:43Z</time>
      </trkpt>
      <trkpt lat="43.87474" lon="1.85023">
        <ele>129</ele>
        <time>2018-06-14T19:14:44Z</time>
      </trkpt>
      <trkpt lat="43.87471" lon="1.85024">
        <ele>129</ele>
        <time>2018-06-14T19:14:45Z</time>
      </trkpt>
      <trkpt lat="43.87468" lon="1.85026">
        <ele>129</ele>
        <time>2018-06-14T19:14:46Z</time>
      </trkpt>
      <trkpt lat="43.87465" lon="1.85029">
        <ele>129</ele>
        <time>2018-06-14T19:14:47Z</time>
      </trkpt>
      <trkpt lat="43.87462" lon="1.8503">
        <ele>129</ele>
        <time>2018-06-14T19:14:48Z</time>
      </trkpt>
      <trkpt lat="43.87459" lon="1.85032">
        <ele>129</ele>
        <time>2018-06-14T19:14:49Z</time>
      </trkpt>
      <trkpt lat="43.87456" lon="1.85033">
        <ele>129</ele>
        <time>2018-06-14T19:14:50Z</time>
      </trkpt>
      <trkpt lat="43.87453" lon="1.85035">
        <ele>129</ele>
        <time>2018-06-14T19:14:51Z</time>
      </trkpt>
      <trkpt lat="43.87451" lon="1.85037">
        <ele>129</ele>
        <time>2018-06-14T19:14:52Z</time>
      </trkpt>
      <trkpt lat="43.87448" lon="1.85039">
        <ele>129</ele>
        <time>2018-06-14T19:14:53Z</time>
      </trkpt>
      <trkpt lat="43.87446" lon="1.8504">
        <ele>129</ele>
        <time>2018-06-14T19:14:54Z</time>
      </trkpt>
      <trkpt lat="43.87443" lon="1.8504">
        <ele>129</ele>
        <time>2018-06-14T19:14:55Z</time>
      </trkpt>
      <trkpt lat="43.8744" lon="1.85042">
        <ele>129</ele>
        <time>2018-06-14T19:14:56Z</time>
      </trkpt>
      <trkpt lat="43.87438" lon="1.85043">
        <ele>129</ele>
        <time>2018-06-14T19:14:57Z</time>
      </trkpt>
      <trkpt lat="43.87435" lon="1.85045">
        <ele>129</ele>
        <time>2018-06-14T19:14:58Z</time>
      </trkpt>
      <trkpt lat="43.87433" lon="1.85046">
        <ele>129</ele>
        <time>2018-06-14T19:14:59Z</time>
      </trkpt>
      <trkpt lat="43.8743" lon="1.85047">
        <ele>129</ele>
        <time>2018-06-14T19:15:00Z</time>
      </trkpt>
      <trkpt lat="43.87428" lon="1.85049">
        <ele>129</ele>
        <time>2018-06-14T19:15:01Z</time>
      </trkpt>
      <trkpt lat="43.87426" lon="1.8505">
        <ele>129</ele>
        <time>2018-06-14T19:15:02Z</time>
      </trkpt>
      <trkpt lat="43.87423" lon="1.85051">
        <ele>129</ele>
        <time>2018-06-14T19:15:03Z</time>
      </trkpt>
      <trkpt lat="43.87421" lon="1.85052">
        <ele>129</ele>
        <time>2018-06-14T19:15:04Z</time>
      </trkpt>
      <trkpt lat="43.87419" lon="1.85053">
        <ele>129</ele>
        <time>2018-06-14T19:15:05Z</time>
      </trkpt>
      <trkpt lat="43.87416" lon="1.85054">
        <ele>129</ele>
        <time>2018-06-14T19:15:06Z</time>
      </trkpt>
      <trkpt lat="43.87414" lon="1.85055">
        <ele>129</ele>
        <time>2018-06-14T19:15:07Z</time>
      </trkpt>
      <trkpt lat="43.87412" lon="1.85056">
        <ele>129</ele>
        <time>2018-06-14T19:15:08Z</time>
      </trkpt>
      <trkpt lat="43.87409" lon="1.85057">
        <ele>129</ele>
        <time>2018-06-14T19:15:09Z</time>
      </trkpt>
      <trkpt lat="43.87407" lon="1.85059">
        <ele>129</ele>
        <time>2018-06-14T19:15:10Z</time>
      </trkpt>
      <trkpt lat="43.87405" lon="1.8506">
        <ele>129</ele>
        <time>2018-06-14T19:15:11Z</time>
      </trkpt>
      <trkpt lat="43.87402" lon="1.85061">
        <ele>129</ele>
        <time>2018-06-14T19:15:12Z</time>
      </trkpt>
      <trkpt lat="43.874" lon="1.85062">
        <ele>129</ele>
        <time>2018-06-14T19:15:13Z</time>
      </trkpt>
      <trkpt lat="43.87398" lon="1.85063">
        <ele>129</ele>
        <time>2018-06-14T19:15:14Z</time>
      </trkpt>
      <trkpt lat="43.87395" lon="1.85064">
        <ele>128</ele>
        <time>2018-06-14T19:15:15Z</time>
      </trkpt>
      <trkpt lat="43.87393" lon="1.85064">
        <ele>129</ele>
        <time>2018-06-14T19:15:16Z</time>
      </trkpt>
      <trkpt lat="43.8739" lon="1.85062">
        <ele>129</ele>
        <time>2018-06-14T19:15:17Z</time>
      </trkpt>
      <trkpt lat="43.87388" lon="1.85061">
        <ele>129</ele>
        <time>2018-06-14T19:15:18Z</time>
      </trkpt>
      <trkpt lat="43.87386" lon="1.85057">
        <ele>128</ele>
        <time>2018-06-14T19:15:19Z</time>
      </trkpt>
      <trkpt lat="43.87384" lon="1.85054">
        <ele>128</ele>
        <time>2018-06-14T19:15:20Z</time>
      </trkpt>
      <trkpt lat="43.87382" lon="1.8505">
        <ele>128</ele>
        <time>2018-06-14T19:15:21Z</time>
      </trkpt>
      <trkpt lat="43.8738" lon="1.85046">
        <ele>128</ele>
        <time>2018-06-14T19:15:22Z</time>
      </trkpt>
      <trkpt lat="43.87377" lon="1.85043">
        <ele>128</ele>
        <time>2018-06-14T19:15:23Z</time>
      </trkpt>
      <trkpt lat="43.87375" lon="1.85039">
        <ele>128</ele>
        <time>2018-06-14T19:15:24Z</time>
      </trkpt>
      <trkpt lat="43.87372" lon="1.85035">
        <ele>128</ele>
        <time>2018-06-14T19:15:25Z</time>
      </trkpt>
      <trkpt lat="43.8737" lon="1.85031">
        <ele>128</ele>
        <time>2018-06-14T19:15:26Z</time>
      </trkpt>
      <trkpt lat="43.87367" lon="1.85026">
        <ele>128</ele>
        <time>2018-06-14T19:15:27Z</time>
      </trkpt>
      <trkpt lat="43.87364" lon="1.85022">
        <ele>128</ele>
        <time>2018-06-14T19:15:28Z</time>
      </trkpt>
      <trkpt lat="43.87362" lon="1.85017">
        <ele>128</ele>
        <time>2018-06-14T19:15:29Z</time>
      </trkpt>
      <trkpt lat="43.87359" lon="1.85012">
        <ele>128</ele>
        <time>2018-06-14T19:15:30Z</time>
      </trkpt>
      <trkpt lat="43.87356" lon="1.85007">
        <ele>128</ele>
        <time>2018-06-14T19:15:31Z</time>
      </trkpt>
      <trkpt lat="43.87354" lon="1.85001">
        <ele>129</ele>
        <time>2018-06-14T19:15:32Z</time>
      </trkpt>
      <trkpt lat="43.87352" lon="1.84996">
        <ele>128</ele>
        <time>2018-06-14T19:15:33Z</time>
      </trkpt>
      <trkpt lat="43.87349" lon="1.8499">
        <ele>128</ele>
        <time>2018-06-14T19:15:34Z</time>
      </trkpt>
      <trkpt lat="43.87347" lon="1.84985">
        <ele>128</ele>
        <time>2018-06-14T19:15:35Z</time>
      </trkpt>
      <trkpt lat="43.87345" lon="1.84979">
        <ele>129</ele>
        <time>2018-06-14T19:15:36Z</time>
      </trkpt>
      <trkpt lat="43.87343" lon="1.84974">
        <ele>128</ele>
        <time>2018-06-14T19:15:37Z</time>
      </trkpt>
      <trkpt lat="43.87341" lon="1.84968">
        <ele>128</ele>
        <time>2018-06-14T19:15:38Z</time>
      </trkpt>
      <trkpt lat="43.87339" lon="1.84962">
        <ele>128</ele>
        <time>2018-06-14T19:15:39Z</time>
      </trkpt>
      <trkpt lat="43.87337" lon="1.84957">
        <ele>128</ele>
        <time>2018-06-14T19:15:40Z</time>
      </trkpt>
      <trkpt lat="43.87335" lon="1.84951">
        <ele>128</ele>
        <time>2018-06-14T19:15:41Z</time>
      </trkpt>
      <trkpt lat="43.87334" lon="1.84945">
        <ele>128</ele>
        <time>2018-06-14T19:15:42Z</time>
      </trkpt>
      <trkpt lat="43.87332" lon="1.8494">
        <ele>128</ele>
        <time>2018-06-14T19:15:43Z</time>
      </trkpt>
      <trkpt lat="43.87331" lon="1.84935">
        <ele>128</ele>
        <time>2018-06-14T19:15:44Z</time>
      </trkpt>
      <trkpt lat="43.87329" lon="1.84929">
        <ele>128</ele>
        <time>2018-06-14T19:15:45Z</time>
      </trkpt>
      <trkpt lat="43.87328" lon="1.84923">
        <ele>128</ele>
        <time>2018-06-14T19:15:46Z</time>
      </trkpt>
      <trkpt lat="43.87326" lon="1.84917">
        <ele>128</ele>
        <time>2018-06-14T19:15:47Z</time>
      </trkpt>
      <trkpt lat="43.87324" lon="1.84912">
        <ele>128</ele>
        <time>2018-06-14T19:15:48Z</time>
      </trkpt>
      <trkpt lat="43.87323" lon="1.84906">
        <ele>128</ele>
        <time>2018-06-14T19:15:49Z</time>
      </trkpt>
      <trkpt lat="43.87321" lon="1.849">
        <ele>128</ele>
        <time>2018-06-14T19:15:50Z</time>
      </trkpt>
      <trkpt lat="43.87319" lon="1.84894">
        <ele>128</ele>
        <time>2018-06-14T19:15:51Z</time>
      </trkpt>
      <trkpt lat="43.87318" lon="1.84888">
        <ele>128</ele>
        <time>2018-06-14T19:15:52Z</time>
      </trkpt>
      <trkpt lat="43.87316" lon="1.84883">
        <ele>128</ele>
        <time>2018-06-14T19:15:53Z</time>
      </trkpt>
      <trkpt lat="43.87315" lon="1.84877">
        <ele>128</ele>
        <time>2018-06-14T19:15:54Z</time>
      </trkpt>
      <trkpt lat="43.87314" lon="1.84871">
        <ele>128</ele>
        <time>2018-06-14T19:15:55Z</time>
      </trkpt>
      <trkpt lat="43.87312" lon="1.84865">
        <ele>128</ele>
        <time>2018-06-14T19:15:56Z</time>
      </trkpt>
      <trkpt lat="43.87311" lon="1.8486">
        <ele>128</ele>
        <time>2018-06-14T19:15:57Z</time>
      </trkpt>
      <trkpt lat="43.87309" lon="1.84854">
        <ele>128</ele>
        <time>2018-06-14T19:15:58Z</time>
      </trkpt>
      <trkpt lat="43.87308" lon="1.84848">
        <ele>128</ele>
        <time>2018-06-14T19:15:59Z</time>
      </trkpt>
      <trkpt lat="43.87306" lon="1.84842">
        <ele>128</ele>
        <time>2018-06-14T19:16:00Z</time>
      </trkpt>
      <trkpt lat="43.87305" lon="1.84836">
        <ele>128</ele>
        <time>2018-06-14T19:16:01Z</time>
      </trkpt>
      <trkpt lat="43.87303" lon="1.8483">
        <ele>128</ele>
        <time>2018-06-14T19:16:02Z</time>
      </trkpt>
      <trkpt lat="43.87301" lon="1.84824">
        <ele>128</ele>
        <time>2018-06-14T19:16:03Z</time>
      </trkpt>
      <trkpt lat="43.873" lon="1.84818">
        <ele>128</ele>
        <time>2018-06-14T19:16:04Z</time>
      </trkpt>
      <trkpt lat="43.87298" lon="1.84812">
        <ele>128</ele>
        <time>2018-06-14T19:16:05Z</time>
      </trkpt>
      <trkpt lat="43.87297" lon="1.84806">
        <ele>129</ele>
        <time>2018-06-14T19:16:06Z</time>
      </trkpt>
      <trkpt lat="43.87295" lon="1.848">
        <ele>128</ele>
        <time>2018-06-14T19:16:07Z</time>
      </trkpt>
      <trkpt lat="43.87294" lon="1.84795">
        <ele>128</ele>
        <time>2018-06-14T19:16:08Z</time>
      </trkpt>
      <trkpt lat="43.87292" lon="1.84789">
        <ele>128</ele>
        <time>2018-06-14T19:16:09Z</time>
      </trkpt>
      <trkpt lat="43.8729" lon="1.84783">
        <ele>128</ele>
        <time>2018-06-14T19:16:10Z</time>
      </trkpt>
      <trkpt lat="43.87289" lon="1.84777">
        <ele>128</ele>
        <time>2018-06-14T19:16:11Z</time>
      </trkpt>
      <trkpt lat="43.87287" lon="1.84771">
        <ele>128</ele>
        <time>2018-06-14T19:16:12Z</time>
      </trkpt>
      <trkpt lat="43.87286" lon="1.84765">
        <ele>128</ele>
        <time>2018-06-14T19:16:13Z</time>
      </trkpt>
      <trkpt lat="43.87284" lon="1.84758">
        <ele>129</ele>
        <time>2018-06-14T19:16:14Z</time>
      </trkpt>
      <trkpt lat="43.87283" lon="1.84752">
        <ele>129</ele>
        <time>2018-06-14T19:16:15Z</time>
      </trkpt>
      <trkpt lat="43.87281" lon="1.84747">
        <ele>129</ele>
        <time>2018-06-14T19:16:16Z</time>
      </trkpt>
      <trkpt lat="43.8728" lon="1.84741">
        <ele>128</ele>
        <time>2018-06-14T19:16:17Z</time>
      </trkpt>
      <trkpt lat="43.87278" lon="1.84735">
        <ele>128</ele>
        <time>2018-06-14T19:16:18Z</time>
      </trkpt>
      <trkpt lat="43.87277" lon="1.8473">
        <ele>128</ele>
        <time>2018-06-14T19:16:19Z</time>
      </trkpt>
      <trkpt lat="43.87275" lon="1.84724">
        <ele>128</ele>
        <time>2018-06-14T19:16:20Z</time>
      </trkpt>
      <trkpt lat="43.87274" lon="1.84719">
        <ele>128</ele>
        <time>2018-06-14T19:16:21Z</time>
      </trkpt>
      <trkpt lat="43.87272" lon="1.84715">
        <ele>128</ele>
        <time>2018-06-14T19:16:22Z</time>
      </trkpt>
      <trkpt lat="43.8727" lon="1.84711">
        <ele>128</ele>
        <time>2018-06-14T19:16:23Z</time>
      </trkpt>
      <trkpt lat="43.87269" lon="1.84707">
        <ele>128</ele>
        <time>2018-06-14T19:16:24Z</time>
      </trkpt>
      <trkpt lat="43.87269" lon="1.84704">
        <ele>128</ele>
        <time>2018-06-14T19:16:25Z</time>
      </trkpt>
      <trkpt lat="43.87268" lon="1.84701">
        <ele>128</ele>
        <time>2018-06-14T19:16:26Z</time>
      </trkpt>
      <trkpt lat="43.87267" lon="1.84699">
        <ele>128</ele>
        <time>2018-06-14T19:16:27Z</time>
      </trkpt>
      <trkpt lat="43.87267" lon="1.84697">
        <ele>128</ele>
        <time>2018-06-14T19:16:28Z</time>
      </trkpt>
      <trkpt lat="43.87267" lon="1.84695">
        <ele>128</ele>
        <time>2018-06-14T19:16:29Z</time>
      </trkpt>
      <trkpt lat="43.87266" lon="1.84693">
        <ele>128</ele>
        <time>2018-06-14T19:16:30Z</time>
      </trkpt>
      <trkpt lat="43.87266" lon="1.84691">
        <ele>128</ele>
        <time>2018-06-14T19:16:31Z</time>
      </trkpt>
      <trkpt lat="43.87265" lon="1.84689">
        <ele>128</ele>
        <time>2018-06-14T19:16:32Z</time>
      </trkpt>
      <trkpt lat="43.87265" lon="1.84687">
        <ele>128</ele>
        <time>2018-06-14T19:16:33Z</time>
      </trkpt>
      <trkpt lat="43.87265" lon="1.84684">
        <ele>128</ele>
        <time>2018-06-14T19:16:34Z</time>
      </trkpt>
      <trkpt lat="43.87265" lon="1.8468">
        <ele>128</ele>
        <time>2018-06-14T19:16:35Z</time>
      </trkpt>
      <trkpt lat="43.87264" lon="1.84677">
        <ele>128</ele>
        <time>2018-06-14T19:16:36Z</time>
      </trkpt>
      <trkpt lat="43.87264" lon="1.84673">
        <ele>128</ele>
        <time>2018-06-14T19:16:37Z</time>
      </trkpt>
      <trkpt lat="43.87263" lon="1.8467">
        <ele>128</ele>
        <time>2018-06-14T19:16:38Z</time>
      </trkpt>
      <trkpt lat="43.87262" lon="1.84667">
        <ele>128</ele>
        <time>2018-06-14T19:16:39Z</time>
      </trkpt>
      <trkpt lat="43.87261" lon="1.84663">
        <ele>128</ele>
        <time>2018-06-14T19:16:40Z</time>
      </trkpt>
      <trkpt lat="43.87259" lon="1.84659">
        <ele>128</ele>
        <time>2018-06-14T19:16:41Z</time>
      </trkpt>
      <trkpt lat="43.87258" lon="1.84655">
        <ele>128</ele>
        <time>2018-06-14T19:16:42Z</time>
      </trkpt>
      <trkpt lat="43.87257" lon="1.84651">
        <ele>128</ele>
        <time>2018-06-14T19:16:43Z</time>
      </trkpt>
      <trkpt lat="43.87256" lon="1.84647">
        <ele>128</ele>
        <time>2018-06-14T19:16:44Z</time>
      </trkpt>
      <trkpt lat="43.87254" lon="1.84644">
        <ele>128</ele>
        <time>2018-06-14T19:16:45Z</time>
      </trkpt>
      <trkpt lat="43.87254" lon="1.84639">
        <ele>128</ele>
        <time>2018-06-14T19:16:46Z</time>
      </trkpt>
      <trkpt lat="43.87252" lon="1.84635">
        <ele>128</ele>
        <time>2018-06-14T19:16:47Z</time>
      </trkpt>
      <trkpt lat="43.8725" lon="1.84631">
        <ele>128</ele>
        <time>2018-06-14T19:16:48Z</time>
      </trkpt>
      <trkpt lat="43.87249" lon="1.84627">
        <ele>128</ele>
        <time>2018-06-14T19:16:49Z</time>
      </trkpt>
      <trkpt lat="43.87247" lon="1.84622">
        <ele>128</ele>
        <time>2018-06-14T19:16:50Z</time>
      </trkpt>
      <trkpt lat="43.87246" lon="1.84617">
        <ele>128</ele>
        <time>2018-06-14T19:16:51Z</time>
      </trkpt>
      <trkpt lat="43.87245" lon="1.84613">
        <ele>128</ele>
        <time>2018-06-14T19:16:52Z</time>
      </trkpt>
      <trkpt lat="43.87243" lon="1.84608">
        <ele>128</ele>
        <time>2018-06-14T19:16:53Z</time>
      </trkpt>
      <trkpt lat="43.87242" lon="1.84603">
        <ele>128</ele>
        <time>2018-06-14T19:16:54Z</time>
      </trkpt>
      <trkpt lat="43.87241" lon="1.84599">
        <ele>128</ele>
        <time>2018-06-14T19:16:55Z</time>
      </trkpt>
      <trkpt lat="43.87239" lon="1.84594">
        <ele>128</ele>
        <time>2018-06-14T19:16:56Z</time>
      </trkpt>
      <trkpt lat="43.87238" lon="1.84589">
        <ele>128</ele>
        <time>2018-06-14T19:16:57Z</time>
      </trkpt>
      <trkpt lat="43.87237" lon="1.84585">
        <ele>128</ele>
        <time>2018-06-14T19:16:58Z</time>
      </trkpt>
      <trkpt lat="43.87236" lon="1.8458">
        <ele>128</ele>
        <time>2018-06-14T19:16:59Z</time>
      </trkpt>
      <trkpt lat="43.87235" lon="1.84576">
        <ele>128</ele>
        <time>2018-06-14T19:17:00Z</time>
      </trkpt>
      <trkpt lat="43.87233" lon="1.84571">
        <ele>128</ele>
        <time>2018-06-14T19:17:01Z</time>
      </trkpt>
      <trkpt lat="43.87232" lon="1.84566">
        <ele>128</ele>
        <time>2018-06-14T19:17:02Z</time>
      </trkpt>
      <trkpt lat="43.8723" lon="1.84561">
        <ele>128</ele>
        <time>2018-06-14T19:17:03Z</time>
      </trkpt>
      <trkpt lat="43.87229" lon="1.84556">
        <ele>128</ele>
        <time>2018-06-14T19:17:04Z</time>
      </trkpt>
      <trkpt lat="43.87228" lon="1.84551">
        <ele>128</ele>
        <time>2018-06-14T19:17:05Z</time>
      </trkpt>
      <trkpt lat="43.87227" lon="1.84546">
        <ele>128</ele>
        <time>2018-06-14T19:17:06Z</time>
      </trkpt>
      <trkpt lat="43.87226" lon="1.84541">
        <ele>128</ele>
        <time>2018-06-14T19:17:07Z</time>
      </trkpt>
      <trkpt lat="43.87224" lon="1.84536">
        <ele>128</ele>
        <time>2018-06-14T19:17:08Z</time>
      </trkpt>
      <trkpt lat="43.87222" lon="1.84532">
        <ele>128</ele>
        <time>2018-06-14T19:17:09Z</time>
      </trkpt>
      <trkpt lat="43.87221" lon="1.84527">
        <ele>128</ele>
        <time>2018-06-14T19:17:10Z</time>
      </trkpt>
      <trkpt lat="43.87219" lon="1.84522">
        <ele>128</ele>
        <time>2018-06-14T19:17:11Z</time>
      </trkpt>
      <trkpt lat="43.87218" lon="1.84517">
        <ele>128</ele>
        <time>2018-06-14T19:17:12Z</time>
      </trkpt>
      <trkpt lat="43.87216" lon="1.84512">
        <ele>128</ele>
        <time>2018-06-14T19:17:13Z</time>
      </trkpt>
      <trkpt lat="43.87215" lon="1.84506">
        <ele>128</ele>
        <time>2018-06-14T19:17:14Z</time>
      </trkpt>
      <trkpt lat="43.87213" lon="1.84501">
        <ele>128</ele>
        <time>2018-06-14T19:17:15Z</time>
      </trkpt>
      <trkpt lat="43.87212" lon="1.84495">
        <ele>128</ele>
        <time>2018-06-14T19:17:16Z</time>
      </trkpt>
      <trkpt lat="43.87211" lon="1.8449">
        <ele>128</ele>
        <time>2018-06-14T19:17:17Z</time>
      </trkpt>
      <trkpt lat="43.87209" lon="1.84485">
        <ele>128</ele>
        <time>2018-06-14T19:17:18Z</time>
      </trkpt>
      <trkpt lat="43.87208" lon="1.84479">
        <ele>128</ele>
        <time>2018-06-14T19:17:19Z</time>
      </trkpt>
      <trkpt lat="43.87207" lon="1.84474">
        <ele>128</ele>
        <time>2018-06-14T19:17:20Z</time>
      </trkpt>
      <trkpt lat="43.87205" lon="1.84469">
        <ele>128</ele>
        <time>2018-06-14T19:17:21Z</time>
      </trkpt>
      <trkpt lat="43.87203" lon="1.84463">
        <ele>128</ele>
        <time>2018-06-14T19:17:22Z</time>
      </trkpt>
      <trkpt lat="43.87202" lon="1.84457">
        <ele>128</ele>
        <time>2018-06-14T19:17:23Z</time>
      </trkpt>
      <trkpt lat="43.872" lon="1.84452">
        <ele>128</ele>
        <time>2018-06-14T19:17:24Z</time>
      </trkpt>
      <trkpt lat="43.87199" lon="1.84446">
        <ele>128</ele>
        <time>2018-06-14T19:17:25Z</time>
      </trkpt>
      <trkpt lat="43.87197" lon="1.8444">
        <ele>128</ele>
        <time>2018-06-14T19:17:26Z</time>
      </trkpt>
      <trkpt lat="43.87196" lon="1.84435">
        <ele>128</ele>
        <time>2018-06-14T19:17:27Z</time>
      </trkpt>
      <trkpt lat="43.87194" lon="1.84429">
        <ele>128</ele>
        <time>2018-06-14T19:17:28Z</time>
      </trkpt>
      <trkpt lat="43.87193" lon="1.84424">
        <ele>128</ele>
        <time>2018-06-14T19:17:29Z</time>
      </trkpt>
      <trkpt lat="43.87192" lon="1.84418">
        <ele>128</ele>
        <time>2018-06-14T19:17:30Z</time>
      </trkpt>
      <trkpt lat="43.8719" lon="1.84413">
        <ele>128</ele>
        <time>2018-06-14T19:17:31Z</time>
      </trkpt>
      <trkpt lat="43.87189" lon="1.84407">
        <ele>128</ele>
        <time>2018-06-14T19:17:32Z</time>
      </trkpt>
      <trkpt lat="43.87187" lon="1.84401">
        <ele>128</ele>
        <time>2018-06-14T19:17:33Z</time>
      </trkpt>
      <trkpt lat="43.87186" lon="1.84395">
        <ele>127</ele>
        <time>2018-06-14T19:17:34Z</time>
      </trkpt>
      <trkpt lat="43.87184" lon="1.84389">
        <ele>127</ele>
        <time>2018-06-14T19:17:35Z</time>
      </trkpt>
      <trkpt lat="43.87183" lon="1.84383">
        <ele>127</ele>
        <time>2018-06-14T19:17:36Z</time>
      </trkpt>
      <trkpt lat="43.87182" lon="1.84377">
        <ele>127</ele>
        <time>2018-06-14T19:17:37Z</time>
      </trkpt>
      <trkpt lat="43.87181" lon="1.84371">
        <ele>127</ele>
        <time>2018-06-14T19:17:38Z</time>
      </trkpt>
      <trkpt lat="43.87181" lon="1.84364">
        <ele>128</ele>
        <time>2018-06-14T19:17:39Z</time>
      </trkpt>
      <trkpt lat="43.8718" lon="1.84358">
        <ele>128</ele>
        <time>2018-06-14T19:17:40Z</time>
      </trkpt>
      <trkpt lat="43.87178" lon="1.84352">
        <ele>128</ele>
        <time>2018-06-14T19:17:41Z</time>
      </trkpt>
      <trkpt lat="43.87177" lon="1.84345">
        <ele>128</ele>
        <time>2018-06-14T19:17:42Z</time>
      </trkpt>
      <trkpt lat="43.87176" lon="1.84339">
        <ele>128</ele>
        <time>2018-06-14T19:17:43Z</time>
      </trkpt>
      <trkpt lat="43.87174" lon="1.84332">
        <ele>128</ele>
        <time>2018-06-14T19:17:44Z</time>
      </trkpt>
      <trkpt lat="43.87173" lon="1.84325">
        <ele>127</ele>
        <time>2018-06-14T19:17:45Z</time>
      </trkpt>
      <trkpt lat="43.87171" lon="1.84319">
        <ele>127</ele>
        <time>2018-06-14T19:17:46Z</time>
      </trkpt>
      <trkpt lat="43.87169" lon="1.84312">
        <ele>127</ele>
        <time>2018-06-14T19:17:47Z</time>
      </trkpt>
      <trkpt lat="43.87167" lon="1.84305">
        <ele>127</ele>
        <time>2018-06-14T19:17:48Z</time>
      </trkpt>
      <trkpt lat="43.87165" lon="1.84298">
        <ele>127</ele>
        <time>2018-06-14T19:17:49Z</time>
      </trkpt>
      <trkpt lat="43.87162" lon="1.84291">
        <ele>127</ele>
        <time>2018-06-14T19:17:50Z</time>
      </trkpt>
      <trkpt lat="43.8716" lon="1.84284">
        <ele>127</ele>
        <time>2018-06-14T19:17:51Z</time>
      </trkpt>
      <trkpt lat="43.87158" lon="1.84277">
        <ele>127</ele>
        <time>2018-06-14T19:17:52Z</time>
      </trkpt>
      <trkpt lat="43.87156" lon="1.8427">
        <ele>126</ele>
        <time>2018-06-14T19:17:53Z</time>
      </trkpt>
      <trkpt lat="43.87154" lon="1.84263">
        <ele>126</ele>
        <time>2018-06-14T19:17:54Z</time>
      </trkpt>
      <trkpt lat="43.87152" lon="1.84256">
        <ele>126</ele>
        <time>2018-06-14T19:17:55Z</time>
      </trkpt>
      <trkpt lat="43.8715" lon="1.84249">
        <ele>126</ele>
        <time>2018-06-14T19:17:56Z</time>
      </trkpt>
      <trkpt lat="43.87148" lon="1.84242">
        <ele>126</ele>
        <time>2018-06-14T19:17:57Z</time>
      </trkpt>
      <trkpt lat="43.87147" lon="1.84235">
        <ele>126</ele>
        <time>2018-06-14T19:17:58Z</time>
      </trkpt>
      <trkpt lat="43.87145" lon="1.84228">
        <ele>126</ele>
        <time>2018-06-14T19:17:59Z</time>
      </trkpt>
      <trkpt lat="43.87143" lon="1.84221">
        <ele>126</ele>
        <time>2018-06-14T19:18:00Z</time>
      </trkpt>
      <trkpt lat="43.87141" lon="1.84215">
        <ele>126</ele>
        <time>2018-06-14T19:18:01Z</time>
      </trkpt>
      <trkpt lat="43.8714" lon="1.84208">
        <ele>126</ele>
        <time>2018-06-14T19:18:02Z</time>
      </trkpt>
      <trkpt lat="43.87138" lon="1.84201">
        <ele>126</ele>
        <time>2018-06-14T19:18:03Z</time>
      </trkpt>
      <trkpt lat="43.87137" lon="1.84193">
        <ele>126</ele>
        <time>2018-06-14T19:18:04Z</time>
      </trkpt>
      <trkpt lat="43.87135" lon="1.84186">
        <ele>126</ele>
        <time>2018-06-14T19:18:05Z</time>
      </trkpt>
      <trkpt lat="43.87133" lon="1.84179">
        <ele>126</ele>
        <time>2018-06-14T19:18:06Z</time>
      </trkpt>
      <trkpt lat="43.87132" lon="1.84172">
        <ele>126</ele>
        <time>2018-06-14T19:18:07Z</time>
      </trkpt>
      <trkpt lat="43.8713" lon="1.84165">
        <ele>126</ele>
        <time>2018-06-14T19:18:08Z</time>
      </trkpt>
      <trkpt lat="43.87129" lon="1.84158">
        <ele>126</ele>
        <time>2018-06-14T19:18:09Z</time>
      </trkpt>
      <trkpt lat="43.87128" lon="1.84151">
        <ele>126</ele>
        <time>2018-06-14T19:18:10Z</time>
      </trkpt>
      <trkpt lat="43.87126" lon="1.84144">
        <ele>126</ele>
        <time>2018-06-14T19:18:11Z</time>
      </trkpt>
      <trkpt lat="43.87125" lon="1.84137">
        <ele>126</ele>
        <time>2018-06-14T19:18:12Z</time>
      </trkpt>
      <trkpt lat="43.87123" lon="1.84129">
        <ele>126</ele>
        <time>2018-06-14T19:18:13Z</time>
      </trkpt>
      <trkpt lat="43.87122" lon="1.84122">
        <ele>126</ele>
        <time>2018-06-14T19:18:14Z</time>
      </trkpt>
      <trkpt lat="43.8712" lon="1.84115">
        <ele>126</ele>
        <time>2018-06-14T19:18:15Z</time>
      </trkpt>
      <trkpt lat="43.87119" lon="1.84108">
        <ele>126</ele>
        <time>2018-06-14T19:18:16Z</time>
      </trkpt>
      <trkpt lat="43.87118" lon="1.841">
        <ele>126</ele>
        <time>2018-06-14T19:18:17Z</time>
      </trkpt>
      <trkpt lat="43.87116" lon="1.84093">
        <ele>126</ele>
        <time>2018-06-14T19:18:18Z</time>
      </trkpt>
      <trkpt lat="43.87115" lon="1.84086">
        <ele>126</ele>
        <time>2018-06-14T19:18:19Z</time>
      </trkpt>
      <trkpt lat="43.87114" lon="1.84078">
        <ele>126</ele>
        <time>2018-06-14T19:18:20Z</time>
      </trkpt>
      <trkpt lat="43.87112" lon="1.84071">
        <ele>126</ele>
        <time>2018-06-14T19:18:21Z</time>
      </trkpt>
      <trkpt lat="43.87111" lon="1.84063">
        <ele>126</ele>
        <time>2018-06-14T19:18:22Z</time>
      </trkpt>
      <trkpt lat="43.87109" lon="1.84055">
        <ele>125</ele>
        <time>2018-06-14T19:18:23Z</time>
      </trkpt>
      <trkpt lat="43.87108" lon="1.84048">
        <ele>125</ele>
        <time>2018-06-14T19:18:24Z</time>
      </trkpt>
      <trkpt lat="43.87106" lon="1.8404">
        <ele>125</ele>
        <time>2018-06-14T19:18:25Z</time>
      </trkpt>
      <trkpt lat="43.87105" lon="1.84033">
        <ele>125</ele>
        <time>2018-06-14T19:18:26Z</time>
      </trkpt>
      <trkpt lat="43.87104" lon="1.84026">
        <ele>125</ele>
        <time>2018-06-14T19:18:27Z</time>
      </trkpt>
      <trkpt lat="43.87103" lon="1.84018">
        <ele>125</ele>
        <time>2018-06-14T19:18:28Z</time>
      </trkpt>
      <trkpt lat="43.87102" lon="1.84012">
        <ele>125</ele>
        <time>2018-06-14T19:18:29Z</time>
      </trkpt>
      <trkpt lat="43.87101" lon="1.84005">
        <ele>125</ele>
        <time>2018-06-14T19:18:30Z</time>
      </trkpt>
      <trkpt lat="43.87101" lon="1.83998">
        <ele>125</ele>
        <time>2018-06-14T19:18:31Z</time>
      </trkpt>
      <trkpt lat="43.871" lon="1.83991">
        <ele>125</ele>
        <time>2018-06-14T19:18:32Z</time>
      </trkpt>
      <trkpt lat="43.87099" lon="1.83985">
        <ele>125</ele>
        <time>2018-06-14T19:18:33Z</time>
      </trkpt>
      <trkpt lat="43.87097" lon="1.83978">
        <ele>125</ele>
        <time>2018-06-14T19:18:34Z</time>
      </trkpt>
      <trkpt lat="43.87096" lon="1.8397">
        <ele>125</ele>
        <time>2018-06-14T19:18:35Z</time>
      </trkpt>
      <trkpt lat="43.87095" lon="1.83963">
        <ele>125</ele>
        <time>2018-06-14T19:18:36Z</time>
      </trkpt>
      <trkpt lat="43.87094" lon="1.83956">
        <ele>125</ele>
        <time>2018-06-14T19:18:37Z</time>
      </trkpt>
      <trkpt lat="43.87093" lon="1.83949">
        <ele>125</ele>
        <time>2018-06-14T19:18:38Z</time>
      </trkpt>
      <trkpt lat="43.87092" lon="1.83942">
        <ele>125</ele>
        <time>2018-06-14T19:18:39Z</time>
      </trkpt>
      <trkpt lat="43.8709" lon="1.83936">
        <ele>125</ele>
        <time>2018-06-14T19:18:40Z</time>
      </trkpt>
      <trkpt lat="43.87089" lon="1.83929">
        <ele>125</ele>
        <time>2018-06-14T19:18:41Z</time>
      </trkpt>
      <trkpt lat="43.87088" lon="1.83921">
        <ele>125</ele>
        <time>2018-06-14T19:18:42Z</time>
      </trkpt>
      <trkpt lat="43.87087" lon="1.83914">
        <ele>125</ele>
        <time>2018-06-14T19:18:43Z</time>
      </trkpt>
      <trkpt lat="43.87086" lon="1.83907">
        <ele>125</ele>
        <time>2018-06-14T19:18:44Z</time>
      </trkpt>
      <trkpt lat="43.87084" lon="1.839">
        <ele>125</ele>
        <time>2018-06-14T19:18:45Z</time>
      </trkpt>
      <trkpt lat="43.87082" lon="1.83893">
        <ele>125</ele>
        <time>2018-06-14T19:18:46Z</time>
      </trkpt>
      <trkpt lat="43.87081" lon="1.83887">
        <ele>125</ele>
        <time>2018-06-14T19:18:47Z</time>
      </trkpt>
      <trkpt lat="43.87079" lon="1.8388">
        <ele>125</ele>
        <time>2018-06-14T19:18:48Z</time>
      </trkpt>
      <trkpt lat="43.87078" lon="1.83873">
        <ele>125</ele>
        <time>2018-06-14T19:18:49Z</time>
      </trkpt>
      <trkpt lat="43.87076" lon="1.83867">
        <ele>125</ele>
        <time>2018-06-14T19:18:50Z</time>
      </trkpt>
      <trkpt lat="43.87075" lon="1.8386">
        <ele>125</ele>
        <time>2018-06-14T19:18:51Z</time>
      </trkpt>
      <trkpt lat="43.87073" lon="1.83854">
        <ele>125</ele>
        <time>2018-06-14T19:18:52Z</time>
      </trkpt>
      <trkpt lat="43.87072" lon="1.83847">
        <ele>125</ele>
        <time>2018-06-14T19:18:53Z</time>
      </trkpt>
      <trkpt lat="43.8707" lon="1.83841">
        <ele>125</ele>
        <time>2018-06-14T19:18:54Z</time>
      </trkpt>
      <trkpt lat="43.87069" lon="1.83835">
        <ele>125</ele>
        <time>2018-06-14T19:18:55Z</time>
      </trkpt>
      <trkpt lat="43.87067" lon="1.8383">
        <ele>125</ele>
        <time>2018-06-14T19:18:56Z</time>
      </trkpt>
      <trkpt lat="43.87066" lon="1.83824">
        <ele>125</ele>
        <time>2018-06-14T19:18:57Z</time>
      </trkpt>
      <trkpt lat="43.87064" lon="1.83818">
        <ele>125</ele>
        <time>2018-06-14T19:18:58Z</time>
      </trkpt>
      <trkpt lat="43.87063" lon="1.83811">
        <ele>125</ele>
        <time>2018-06-14T19:18:59Z</time>
      </trkpt>
      <trkpt lat="43.87061" lon="1.83805">
        <ele>125</ele>
        <time>2018-06-14T19:19:00Z</time>
      </trkpt>
      <trkpt lat="43.87059" lon="1.83798">
        <ele>125</ele>
        <time>2018-06-14T19:19:01Z</time>
      </trkpt>
      <trkpt lat="43.87058" lon="1.83791">
        <ele>125</ele>
        <time>2018-06-14T19:19:02Z</time>
      </trkpt>
      <trkpt lat="43.87056" lon="1.83784">
        <ele>125</ele>
        <time>2018-06-14T19:19:03Z</time>
      </trkpt>
      <trkpt lat="43.87055" lon="1.83777">
        <ele>125</ele>
        <time>2018-06-14T19:19:04Z</time>
      </trkpt>
      <trkpt lat="43.87054" lon="1.83771">
        <ele>125</ele>
        <time>2018-06-14T19:19:05Z</time>
      </trkpt>
      <trkpt lat="43.87053" lon="1.83765">
        <ele>125</ele>
        <time>2018-06-14T19:19:06Z</time>
      </trkpt>
      <trkpt lat="43.87051" lon="1.83758">
        <ele>125</ele>
        <time>2018-06-14T19:19:07Z</time>
      </trkpt>
      <trkpt lat="43.8705" lon="1.83752">
        <ele>125</ele>
        <time>2018-06-14T19:19:08Z</time>
      </trkpt>
      <trkpt lat="43.87048" lon="1.83745">
        <ele>125</ele>
        <time>2018-06-14T19:19:09Z</time>
      </trkpt>
      <trkpt lat="43.87047" lon="1.83739">
        <ele>125</ele>
        <time>2018-06-14T19:19:10Z</time>
      </trkpt>
      <trkpt lat="43.87046" lon="1.83733">
        <ele>125</ele>
        <time>2018-06-14T19:19:11Z</time>
      </trkpt>
      <trkpt lat="43.87045" lon="1.83726">
        <ele>125</ele>
        <time>2018-06-14T19:19:12Z</time>
      </trkpt>
      <trkpt lat="43.87043" lon="1.8372">
        <ele>125</ele>
        <time>2018-06-14T19:19:13Z</time>
      </trkpt>
      <trkpt lat="43.87042" lon="1.83714">
        <ele>125</ele>
        <time>2018-06-14T19:19:14Z</time>
      </trkpt>
      <trkpt lat="43.87041" lon="1.83708">
        <ele>125</ele>
        <time>2018-06-14T19:19:15Z</time>
      </trkpt>
      <trkpt lat="43.8704" lon="1.83702">
        <ele>125</ele>
        <time>2018-06-14T19:19:16Z</time>
      </trkpt>
      <trkpt lat="43.87039" lon="1.83695">
        <ele>125</ele>
        <time>2018-06-14T19:19:17Z</time>
      </trkpt>
      <trkpt lat="43.87039" lon="1.83688">
        <ele>125</ele>
        <time>2018-06-14T19:19:18Z</time>
      </trkpt>
      <trkpt lat="43.87038" lon="1.83682">
        <ele>125</ele>
        <time>2018-06-14T19:19:19Z</time>
      </trkpt>
      <trkpt lat="43.87038" lon="1.83675">
        <ele>125</ele>
        <time>2018-06-14T19:19:20Z</time>
      </trkpt>
      <trkpt lat="43.87037" lon="1.83669">
        <ele>125</ele>
        <time>2018-06-14T19:19:21Z</time>
      </trkpt>
      <trkpt lat="43.87037" lon="1.83662">
        <ele>125</ele>
        <time>2018-06-14T19:19:22Z</time>
      </trkpt>
      <trkpt lat="43.87036" lon="1.83655">
        <ele>125</ele>
        <time>2018-06-14T19:19:23Z</time>
      </trkpt>
      <trkpt lat="43.87036" lon="1.83649">
        <ele>125</ele>
        <time>2018-06-14T19:19:24Z</time>
      </trkpt>
      <trkpt lat="43.87036" lon="1.83642">
        <ele>124</ele>
        <time>2018-06-14T19:19:25Z</time>
      </trkpt>
      <trkpt lat="43.87035" lon="1.83636">
        <ele>125</ele>
        <time>2018-06-14T19:19:26Z</time>
      </trkpt>
      <trkpt lat="43.87035" lon="1.83629">
        <ele>125</ele>
        <time>2018-06-14T19:19:27Z</time>
      </trkpt>
      <trkpt lat="43.87034" lon="1.83623">
        <ele>125</ele>
        <time>2018-06-14T19:19:28Z</time>
      </trkpt>
      <trkpt lat="43.87033" lon="1.83616">
        <ele>125</ele>
        <time>2018-06-14T19:19:29Z</time>
      </trkpt>
      <trkpt lat="43.87033" lon="1.83609">
        <ele>125</ele>
        <time>2018-06-14T19:19:30Z</time>
      </trkpt>
      <trkpt lat="43.87032" lon="1.83602">
        <ele>125</ele>
        <time>2018-06-14T19:19:31Z</time>
      </trkpt>
      <trkpt lat="43.87032" lon="1.83595">
        <ele>125</ele>
        <time>2018-06-14T19:19:32Z</time>
      </trkpt>
      <trkpt lat="43.87032" lon="1.83588">
        <ele>125</ele>
        <time>2018-06-14T19:19:33Z</time>
      </trkpt>
      <trkpt lat="43.87031" lon="1.83581">
        <ele>125</ele>
        <time>2018-06-14T19:19:34Z</time>
      </trkpt>
      <trkpt lat="43.87031" lon="1.83575">
        <ele>125</ele>
        <time>2018-06-14T19:19:35Z</time>
      </trkpt>
      <trkpt lat="43.8703" lon="1.83568">
        <ele>125</ele>
        <time>2018-06-14T19:19:36Z</time>
      </trkpt>
      <trkpt lat="43.8703" lon="1.83561">
        <ele>125</ele>
        <time>2018-06-14T19:19:37Z</time>
      </trkpt>
      <trkpt lat="43.8703" lon="1.83555">
        <ele>125</ele>
        <time>2018-06-14T19:19:38Z</time>
      </trkpt>
      <trkpt lat="43.8703" lon="1.83549">
        <ele>125</ele>
        <time>2018-06-14T19:19:39Z</time>
      </trkpt>
      <trkpt lat="43.8703" lon="1.83543">
        <ele>125</ele>
        <time>2018-06-14T19:19:40Z</time>
      </trkpt>
      <trkpt lat="43.8703" lon="1.83538">
        <ele>125</ele>
        <time>2018-06-14T19:19:41Z</time>
      </trkpt>
      <trkpt lat="43.8703" lon="1.83532">
        <ele>125</ele>
        <time>2018-06-14T19:19:42Z</time>
      </trkpt>
      <trkpt lat="43.8703" lon="1.83526">
        <ele>126</ele>
        <time>2018-06-14T19:19:43Z</time>
      </trkpt>
      <trkpt lat="43.8703" lon="1.8352">
        <ele>126</ele>
        <time>2018-06-14T19:19:44Z</time>
      </trkpt>
      <trkpt lat="43.8703" lon="1.83514">
        <ele>126</ele>
        <time>2018-06-14T19:19:45Z</time>
      </trkpt>
      <trkpt lat="43.8703" lon="1.83508">
        <ele>126</ele>
        <time>2018-06-14T19:19:46Z</time>
      </trkpt>
      <trkpt lat="43.87031" lon="1.83502">
        <ele>126</ele>
        <time>2018-06-14T19:19:47Z</time>
      </trkpt>
      <trkpt lat="43.87031" lon="1.83496">
        <ele>126</ele>
        <time>2018-06-14T19:19:48Z</time>
      </trkpt>
      <trkpt lat="43.87031" lon="1.83491">
        <ele>126</ele>
        <time>2018-06-14T19:19:49Z</time>
      </trkpt>
      <trkpt lat="43.87032" lon="1.83486">
        <ele>126</ele>
        <time>2018-06-14T19:19:50Z</time>
      </trkpt>
      <trkpt lat="43.87032" lon="1.8348">
        <ele>126</ele>
        <time>2018-06-14T19:19:51Z</time>
      </trkpt>
      <trkpt lat="43.87034" lon="1.83474">
        <ele>126</ele>
        <time>2018-06-14T19:19:52Z</time>
      </trkpt>
      <trkpt lat="43.87036" lon="1.83468">
        <ele>126</ele>
        <time>2018-06-14T19:19:53Z</time>
      </trkpt>
      <trkpt lat="43.8704" lon="1.83463">
        <ele>125</ele>
        <time>2018-06-14T19:19:54Z</time>
      </trkpt>
      <trkpt lat="43.87044" lon="1.8346">
        <ele>125</ele>
        <time>2018-06-14T19:19:55Z</time>
      </trkpt>
      <trkpt lat="43.87049" lon="1.83457">
        <ele>125</ele>
        <time>2018-06-14T19:19:56Z</time>
      </trkpt>
      <trkpt lat="43.87054" lon="1.83455">
        <ele>125</ele>
        <time>2018-06-14T19:19:57Z</time>
      </trkpt>
      <trkpt lat="43.87059" lon="1.83454">
        <ele>125</ele>
        <time>2018-06-14T19:19:58Z</time>
      </trkpt>
      <trkpt lat="43.87064" lon="1.83452">
        <ele>125</ele>
        <time>2018-06-14T19:19:59Z</time>
      </trkpt>
      <trkpt lat="43.87069" lon="1.8345">
        <ele>125</ele>
        <time>2018-06-14T19:20:00Z</time>
      </trkpt>
      <trkpt lat="43.87074" lon="1.83448">
        <ele>125</ele>
        <time>2018-06-14T19:20:01Z</time>
      </trkpt>
      <trkpt lat="43.87079" lon="1.83447">
        <ele>125</ele>
        <time>2018-06-14T19:20:02Z</time>
      </trkpt>
      <trkpt lat="43.87084" lon="1.83445">
        <ele>125</ele>
        <time>2018-06-14T19:20:03Z</time>
      </trkpt>
      <trkpt lat="43.87089" lon="1.83443">
        <ele>125</ele>
        <time>2018-06-14T19:20:04Z</time>
      </trkpt>
      <trkpt lat="43.87094" lon="1.83441">
        <ele>125</ele>
        <time>2018-06-14T19:20:05Z</time>
      </trkpt>
      <trkpt lat="43.87099" lon="1.83439">
        <ele>125</ele>
        <time>2018-06-14T19:20:06Z</time>
      </trkpt>
      <trkpt lat="43.87104" lon="1.83437">
        <ele>125</ele>
        <time>2018-06-14T19:20:07Z</time>
      </trkpt>
      <trkpt lat="43.87109" lon="1.83436">
        <ele>125</ele>
        <time>2018-06-14T19:20:08Z</time>
      </trkpt>
      <trkpt lat="43.87114" lon="1.83434">
        <ele>125</ele>
        <time>2018-06-14T19:20:09Z</time>
      </trkpt>
      <trkpt lat="43.87119" lon="1.83432">
        <ele>125</ele>
        <time>2018-06-14T19:20:10Z</time>
      </trkpt>
      <trkpt lat="43.87123" lon="1.83429">
        <ele>125</ele>
        <time>2018-06-14T19:20:11Z</time>
      </trkpt>
      <trkpt lat="43.87128" lon="1.83427">
        <ele>125</ele>
        <time>2018-06-14T19:20:12Z</time>
      </trkpt>
      <trkpt lat="43.87133" lon="1.83425">
        <ele>125</ele>
        <time>2018-06-14T19:20:13Z</time>
      </trkpt>
      <trkpt lat="43.87137" lon="1.83423">
        <ele>125</ele>
        <time>2018-06-14T19:20:14Z</time>
      </trkpt>
      <trkpt lat="43.87141" lon="1.83421">
        <ele>125</ele>
        <time>2018-06-14T19:20:15Z</time>
      </trkpt>
      <trkpt lat="43.87145" lon="1.83419">
        <ele>125</ele>
        <time>2018-06-14T19:20:16Z</time>
      </trkpt>
      <trkpt lat="43.87149" lon="1.83417">
        <ele>126</ele>
        <time>2018-06-14T19:20:17Z</time>
      </trkpt>
      <trkpt lat="43.87152" lon="1.83415">
        <ele>126</ele>
        <time>2018-06-14T19:20:18Z</time>
      </trkpt>
      <trkpt lat="43.87155" lon="1.83414">
        <ele>126</ele>
        <time>2018-06-14T19:20:19Z</time>
      </trkpt>
      <trkpt lat="43.87158" lon="1.83414">
        <ele>126</ele>
        <time>2018-06-14T19:20:20Z</time>
      </trkpt>
      <trkpt lat="43.8716" lon="1.83416">
        <ele>126</ele>
        <time>2018-06-14T19:20:21Z</time>
      </trkpt>
      <trkpt lat="43.87163" lon="1.83418">
        <ele>127</ele>
        <time>2018-06-14T19:20:22Z</time>
      </trkpt>
      <trkpt lat="43.87164" lon="1.83422">
        <ele>127</ele>
        <time>2018-06-14T19:20:23Z</time>
      </trkpt>
      <trkpt lat="43.87166" lon="1.83427">
        <ele>127</ele>
        <time>2018-06-14T19:20:24Z</time>
      </trkpt>
      <trkpt lat="43.87168" lon="1.83433">
        <ele>127</ele>
        <time>2018-06-14T19:20:25Z</time>
      </trkpt>
      <trkpt lat="43.87171" lon="1.83439">
        <ele>127</ele>
        <time>2018-06-14T19:20:26Z</time>
      </trkpt>
      <trkpt lat="43.87174" lon="1.83446">
        <ele>127</ele>
        <time>2018-06-14T19:20:27Z</time>
      </trkpt>
      <trkpt lat="43.87176" lon="1.83452">
        <ele>127</ele>
        <time>2018-06-14T19:20:28Z</time>
      </trkpt>
      <trkpt lat="43.87179" lon="1.83459">
        <ele>127</ele>
        <time>2018-06-14T19:20:29Z</time>
      </trkpt>
      <trkpt lat="43.87183" lon="1.83465">
        <ele>127</ele>
        <time>2018-06-14T19:20:30Z</time>
      </trkpt>
      <trkpt lat="43.87187" lon="1.8347">
        <ele>128</ele>
        <time>2018-06-14T19:20:31Z</time>
      </trkpt>
      <trkpt lat="43.8719" lon="1.83475">
        <ele>128</ele>
        <time>2018-06-14T19:20:32Z</time>
      </trkpt>
      <trkpt lat="43.87195" lon="1.83477">
        <ele>128</ele>
        <time>2018-06-14T19:20:33Z</time>
      </trkpt>
      <trkpt lat="43.872" lon="1.83478">
        <ele>128</ele>
        <time>2018-06-14T19:20:34Z</time>
      </trkpt>
      <trkpt lat="43.87205" lon="1.83477">
        <ele>127</ele>
        <time>2018-06-14T19:20:35Z</time>
      </trkpt>
      <trkpt lat="43.8721" lon="1.83475">
        <ele>127</ele>
        <time>2018-06-14T19:20:36Z</time>
      </trkpt>
      <trkpt lat="43.87215" lon="1.83473">
        <ele>127</ele>
        <time>2018-06-14T19:20:37Z</time>
      </trkpt>
      <trkpt lat="43.87219" lon="1.83471">
        <ele>127</ele>
        <time>2018-06-14T19:20:38Z</time>
      </trkpt>
      <trkpt lat="43.87224" lon="1.83469">
        <ele>127</ele>
        <time>2018-06-14T19:20:39Z</time>
      </trkpt>
      <trkpt lat="43.87228" lon="1.83467">
        <ele>127</ele>
        <time>2018-06-14T19:20:40Z</time>
      </trkpt>
      <trkpt lat="43.87233" lon="1.83465">
        <ele>127</ele>
        <time>2018-06-14T19:20:41Z</time>
      </trkpt>
      <trkpt lat="43.87238" lon="1.83462">
        <ele>127</ele>
        <time>2018-06-14T19:20:42Z</time>
      </trkpt>
      <trkpt lat="43.87242" lon="1.8346">
        <ele>127</ele>
        <time>2018-06-14T19:20:43Z</time>
      </trkpt>
      <trkpt lat="43.87247" lon="1.83459">
        <ele>127</ele>
        <time>2018-06-14T19:20:44Z</time>
      </trkpt>
      <trkpt lat="43.87251" lon="1.83456">
        <ele>127</ele>
        <time>2018-06-14T19:20:45Z</time>
      </trkpt>
      <trkpt lat="43.87256" lon="1.83455">
        <ele>127</ele>
        <time>2018-06-14T19:20:46Z</time>
      </trkpt>
      <trkpt lat="43.87261" lon="1.83452">
        <ele>127</ele>
        <time>2018-06-14T19:20:47Z</time>
      </trkpt>
      <trkpt lat="43.87266" lon="1.8345">
        <ele>127</ele>
        <time>2018-06-14T19:20:48Z</time>
      </trkpt>
      <trkpt lat="43.8727" lon="1.83448">
        <ele>127</ele>
        <time>2018-06-14T19:20:49Z</time>
      </trkpt>
      <trkpt lat="43.87275" lon="1.83446">
        <ele>127</ele>
        <time>2018-06-14T19:20:50Z</time>
      </trkpt>
      <trkpt lat="43.8728" lon="1.83443">
        <ele>127</ele>
        <time>2018-06-14T19:20:51Z</time>
      </trkpt>
      <trkpt lat="43.87285" lon="1.83441">
        <ele>127</ele>
        <time>2018-06-14T19:20:52Z</time>
      </trkpt>
      <trkpt lat="43.8729" lon="1.83439">
        <ele>127</ele>
        <time>2018-06-14T19:20:53Z</time>
      </trkpt>
      <trkpt lat="43.87295" lon="1.83437">
        <ele>127</ele>
        <time>2018-06-14T19:20:54Z</time>
      </trkpt>
      <trkpt lat="43.873" lon="1.83434">
        <ele>126</ele>
        <time>2018-06-14T19:20:55Z</time>
      </trkpt>
      <trkpt lat="43.87304" lon="1.83432">
        <ele>126</ele>
        <time>2018-06-14T19:20:56Z</time>
      </trkpt>
      <trkpt lat="43.87309" lon="1.8343">
        <ele>126</ele>
        <time>2018-06-14T19:20:57Z</time>
      </trkpt>
      <trkpt lat="43.87313" lon="1.83429">
        <ele>127</ele>
        <time>2018-06-14T19:20:58Z</time>
      </trkpt>
      <trkpt lat="43.87317" lon="1.83427">
        <ele>127</ele>
        <time>2018-06-14T19:20:59Z</time>
      </trkpt>
      <trkpt lat="43.87321" lon="1.83425">
        <ele>126</ele>
        <time>2018-06-14T19:21:00Z</time>
      </trkpt>
      <trkpt lat="43.87325" lon="1.83423">
        <ele>127</ele>
        <time>2018-06-14T19:21:01Z</time>
      </trkpt>
      <trkpt lat="43.87329" lon="1.83421">
        <ele>127</ele>
        <time>2018-06-14T19:21:02Z</time>
      </trkpt>
      <trkpt lat="43.87333" lon="1.83419">
        <ele>127</ele>
        <time>2018-06-14T19:21:03Z</time>
      </trkpt>
      <trkpt lat="43.87338" lon="1.83417">
        <ele>126</ele>
        <time>2018-06-14T19:21:04Z</time>
      </trkpt>
      <trkpt lat="43.87342" lon="1.83415">
        <ele>126</ele>
        <time>2018-06-14T19:21:05Z</time>
      </trkpt>
      <trkpt lat="43.87346" lon="1.83413">
        <ele>126</ele>
        <time>2018-06-14T19:21:06Z</time>
      </trkpt>
      <trkpt lat="43.87351" lon="1.83411">
        <ele>126</ele>
        <time>2018-06-14T19:21:07Z</time>
      </trkpt>
      <trkpt lat="43.87355" lon="1.83409">
        <ele>126</ele>
        <time>2018-06-14T19:21:08Z</time>
      </trkpt>
      <trkpt lat="43.8736" lon="1.83407">
        <ele>127</ele>
        <time>2018-06-14T19:21:09Z</time>
      </trkpt>
      <trkpt lat="43.87364" lon="1.83405">
        <ele>127</ele>
        <time>2018-06-14T19:21:10Z</time>
      </trkpt>
      <trkpt lat="43.87369" lon="1.83403">
        <ele>127</ele>
        <time>2018-06-14T19:21:11Z</time>
      </trkpt>
      <trkpt lat="43.87373" lon="1.83401">
        <ele>127</ele>
        <time>2018-06-14T19:21:12Z</time>
      </trkpt>
      <trkpt lat="43.87377" lon="1.83399">
        <ele>127</ele>
        <time>2018-06-14T19:21:13Z</time>
      </trkpt>
      <trkpt lat="43.87382" lon="1.83398">
        <ele>127</ele>
        <time>2018-06-14T19:21:14Z</time>
      </trkpt>
      <trkpt lat="43.87386" lon="1.83396">
        <ele>127</ele>
        <time>2018-06-14T19:21:15Z</time>
      </trkpt>
      <trkpt lat="43.8739" lon="1.83394">
        <ele>127</ele>
        <time>2018-06-14T19:21:16Z</time>
      </trkpt>
      <trkpt lat="43.87394" lon="1.83392">
        <ele>127</ele>
        <time>2018-06-14T19:21:17Z</time>
      </trkpt>
      <trkpt lat="43.87397" lon="1.83389">
        <ele>128</ele>
        <time>2018-06-14T19:21:18Z</time>
      </trkpt>
      <trkpt lat="43.874" lon="1.83387">
        <ele>128</ele>
        <time>2018-06-14T19:21:19Z</time>
      </trkpt>
      <trkpt lat="43.87403" lon="1.83384">
        <ele>128</ele>
        <time>2018-06-14T19:21:20Z</time>
      </trkpt>
      <trkpt lat="43.87406" lon="1.83382">
        <ele>128</ele>
        <time>2018-06-14T19:21:21Z</time>
      </trkpt>
      <trkpt lat="43.87408" lon="1.83379">
        <ele>128</ele>
        <time>2018-06-14T19:21:22Z</time>
      </trkpt>
      <trkpt lat="43.8741" lon="1.83376">
        <ele>128</ele>
        <time>2018-06-14T19:21:23Z</time>
      </trkpt>
      <trkpt lat="43.87412" lon="1.83372">
        <ele>128</ele>
        <time>2018-06-14T19:21:24Z</time>
      </trkpt>
      <trkpt lat="43.87413" lon="1.83367">
        <ele>128</ele>
        <time>2018-06-14T19:21:25Z</time>
      </trkpt>
      <trkpt lat="43.87413" lon="1.83362">
        <ele>128</ele>
        <time>2018-06-14T19:21:26Z</time>
      </trkpt>
      <trkpt lat="43.8741" lon="1.83357">
        <ele>128</ele>
        <time>2018-06-14T19:21:27Z</time>
      </trkpt>
      <trkpt lat="43.87408" lon="1.83353">
        <ele>128</ele>
        <time>2018-06-14T19:21:28Z</time>
      </trkpt>
      <trkpt lat="43.87406" lon="1.83347">
        <ele>128</ele>
        <time>2018-06-14T19:21:29Z</time>
      </trkpt>
      <trkpt lat="43.87403" lon="1.83342">
        <ele>128</ele>
        <time>2018-06-14T19:21:30Z</time>
      </trkpt>
      <trkpt lat="43.87401" lon="1.83336">
        <ele>128</ele>
        <time>2018-06-14T19:21:31Z</time>
      </trkpt>
      <trkpt lat="43.87399" lon="1.83331">
        <ele>128</ele>
        <time>2018-06-14T19:21:32Z</time>
      </trkpt>
      <trkpt lat="43.87396" lon="1.83325">
        <ele>128</ele>
        <time>2018-06-14T19:21:33Z</time>
      </trkpt>
      <trkpt lat="43.87394" lon="1.83319">
        <ele>127</ele>
        <time>2018-06-14T19:21:34Z</time>
      </trkpt>
      <trkpt lat="43.87392" lon="1.83313">
        <ele>127</ele>
        <time>2018-06-14T19:21:35Z</time>
      </trkpt>
      <trkpt lat="43.8739" lon="1.83307">
        <ele>127</ele>
        <time>2018-06-14T19:21:36Z</time>
      </trkpt>
      <trkpt lat="43.87388" lon="1.83302">
        <ele>127</ele>
        <time>2018-06-14T19:21:37Z</time>
      </trkpt>
      <trkpt lat="43.87387" lon="1.83295">
        <ele>127</ele>
        <time>2018-06-14T19:21:38Z</time>
      </trkpt>
      <trkpt lat="43.87386" lon="1.83289">
        <ele>127</ele>
        <time>2018-06-14T19:21:39Z</time>
      </trkpt>
      <trkpt lat="43.87384" lon="1.83284">
        <ele>127</ele>
        <time>2018-06-14T19:21:40Z</time>
      </trkpt>
      <trkpt lat="43.87383" lon="1.83278">
        <ele>127</ele>
        <time>2018-06-14T19:21:41Z</time>
      </trkpt>
      <trkpt lat="43.87382" lon="1.83272">
        <ele>127</ele>
        <time>2018-06-14T19:21:42Z</time>
      </trkpt>
      <trkpt lat="43.8738" lon="1.83266">
        <ele>127</ele>
        <time>2018-06-14T19:21:43Z</time>
      </trkpt>
      <trkpt lat="43.87378" lon="1.8326">
        <ele>127</ele>
        <time>2018-06-14T19:21:44Z</time>
      </trkpt>
      <trkpt lat="43.87376" lon="1.83253">
        <ele>127</ele>
        <time>2018-06-14T19:21:45Z</time>
      </trkpt>
      <trkpt lat="43.87375" lon="1.83247">
        <ele>127</ele>
        <time>2018-06-14T19:21:46Z</time>
      </trkpt>
      <trkpt lat="43.87373" lon="1.8324">
        <ele>127</ele>
        <time>2018-06-14T19:21:47Z</time>
      </trkpt>
      <trkpt lat="43.87371" lon="1.83233">
        <ele>127</ele>
        <time>2018-06-14T19:21:48Z</time>
      </trkpt>
      <trkpt lat="43.87369" lon="1.83226">
        <ele>127</ele>
        <time>2018-06-14T19:21:49Z</time>
      </trkpt>
      <trkpt lat="43.87368" lon="1.83219">
        <ele>127</ele>
        <time>2018-06-14T19:21:50Z</time>
      </trkpt>
      <trkpt lat="43.87366" lon="1.83212">
        <ele>127</ele>
        <time>2018-06-14T19:21:51Z</time>
      </trkpt>
      <trkpt lat="43.87364" lon="1.83205">
        <ele>127</ele>
        <time>2018-06-14T19:21:52Z</time>
      </trkpt>
      <trkpt lat="43.87362" lon="1.83199">
        <ele>127</ele>
        <time>2018-06-14T19:21:53Z</time>
      </trkpt>
      <trkpt lat="43.87359" lon="1.83193">
        <ele>127</ele>
        <time>2018-06-14T19:21:54Z</time>
      </trkpt>
      <trkpt lat="43.87357" lon="1.83187">
        <ele>127</ele>
        <time>2018-06-14T19:21:55Z</time>
      </trkpt>
      <trkpt lat="43.87355" lon="1.83181">
        <ele>127</ele>
        <time>2018-06-14T19:21:56Z</time>
      </trkpt>
      <trkpt lat="43.87353" lon="1.83175">
        <ele>127</ele>
        <time>2018-06-14T19:21:57Z</time>
      </trkpt>
      <trkpt lat="43.87351" lon="1.83169">
        <ele>127</ele>
        <time>2018-06-14T19:21:58Z</time>
      </trkpt>
      <trkpt lat="43.87349" lon="1.83163">
        <ele>128</ele>
        <time>2018-06-14T19:21:59Z</time>
      </trkpt>
      <trkpt lat="43.87346" lon="1.83157">
        <ele>128</ele>
        <time>2018-06-14T19:22:00Z</time>
      </trkpt>
      <trkpt lat="43.87344" lon="1.83151">
        <ele>128</ele>
        <time>2018-06-14T19:22:01Z</time>
      </trkpt>
      <trkpt lat="43.87342" lon="1.83146">
        <ele>128</ele>
        <time>2018-06-14T19:22:02Z</time>
      </trkpt>
      <trkpt lat="43.8734" lon="1.8314">
        <ele>128</ele>
        <time>2018-06-14T19:22:03Z</time>
      </trkpt>
      <trkpt lat="43.87338" lon="1.83135">
        <ele>128</ele>
        <time>2018-06-14T19:22:04Z</time>
      </trkpt>
      <trkpt lat="43.87336" lon="1.8313">
        <ele>128</ele>
        <time>2018-06-14T19:22:05Z</time>
      </trkpt>
      <trkpt lat="43.87334" lon="1.83125">
        <ele>128</ele>
        <time>2018-06-14T19:22:06Z</time>
      </trkpt>
      <trkpt lat="43.87332" lon="1.8312">
        <ele>128</ele>
        <time>2018-06-14T19:22:07Z</time>
      </trkpt>
      <trkpt lat="43.8733" lon="1.83115">
        <ele>128</ele>
        <time>2018-06-14T19:22:08Z</time>
      </trkpt>
      <trkpt lat="43.87328" lon="1.83109">
        <ele>128</ele>
        <time>2018-06-14T19:22:09Z</time>
      </trkpt>
      <trkpt lat="43.87326" lon="1.83103">
        <ele>128</ele>
        <time>2018-06-14T19:22:10Z</time>
      </trkpt>
      <trkpt lat="43.87324" lon="1.83097">
        <ele>128</ele>
        <time>2018-06-14T19:22:11Z</time>
      </trkpt>
      <trkpt lat="43.87322" lon="1.83092">
        <ele>128</ele>
        <time>2018-06-14T19:22:12Z</time>
      </trkpt>
      <trkpt lat="43.8732" lon="1.83086">
        <ele>128</ele>
        <time>2018-06-14T19:22:13Z</time>
      </trkpt>
      <trkpt lat="43.87318" lon="1.8308">
        <ele>128</ele>
        <time>2018-06-14T19:22:14Z</time>
      </trkpt>
      <trkpt lat="43.87316" lon="1.83074">
        <ele>128</ele>
        <time>2018-06-14T19:22:15Z</time>
      </trkpt>
      <trkpt lat="43.87314" lon="1.83068">
        <ele>127</ele>
        <time>2018-06-14T19:22:16Z</time>
      </trkpt>
      <trkpt lat="43.87311" lon="1.83061">
        <ele>127</ele>
        <time>2018-06-14T19:22:17Z</time>
      </trkpt>
      <trkpt lat="43.87309" lon="1.83055">
        <ele>127</ele>
        <time>2018-06-14T19:22:18Z</time>
      </trkpt>
      <trkpt lat="43.87306" lon="1.83049">
        <ele>127</ele>
        <time>2018-06-14T19:22:19Z</time>
      </trkpt>
      <trkpt lat="43.87304" lon="1.83043">
        <ele>128</ele>
        <time>2018-06-14T19:22:20Z</time>
      </trkpt>
      <trkpt lat="43.87301" lon="1.83036">
        <ele>128</ele>
        <time>2018-06-14T19:22:21Z</time>
      </trkpt>
      <trkpt lat="43.87299" lon="1.83029">
        <ele>128</ele>
        <time>2018-06-14T19:22:22Z</time>
      </trkpt>
      <trkpt lat="43.87296" lon="1.83023">
        <ele>128</ele>
        <time>2018-06-14T19:22:23Z</time>
      </trkpt>
      <trkpt lat="43.87294" lon="1.83016">
        <ele>128</ele>
        <time>2018-06-14T19:22:24Z</time>
      </trkpt>
      <trkpt lat="43.87292" lon="1.8301">
        <ele>128</ele>
        <time>2018-06-14T19:22:25Z</time>
      </trkpt>
      <trkpt lat="43.8729" lon="1.83003">
        <ele>128</ele>
        <time>2018-06-14T19:22:26Z</time>
      </trkpt>
      <trkpt lat="43.87287" lon="1.82997">
        <ele>128</ele>
        <time>2018-06-14T19:22:27Z</time>
      </trkpt>
      <trkpt lat="43.87285" lon="1.8299">
        <ele>128</ele>
        <time>2018-06-14T19:22:28Z</time>
      </trkpt>
      <trkpt lat="43.87284" lon="1.82984">
        <ele>128</ele>
        <time>2018-06-14T19:22:29Z</time>
      </trkpt>
      <trkpt lat="43.87282" lon="1.82978">
        <ele>128</ele>
        <time>2018-06-14T19:22:30Z</time>
      </trkpt>
      <trkpt lat="43.8728" lon="1.82972">
        <ele>128</ele>
        <time>2018-06-14T19:22:31Z</time>
      </trkpt>
      <trkpt lat="43.87278" lon="1.82965">
        <ele>128</ele>
        <time>2018-06-14T19:22:32Z</time>
      </trkpt>
      <trkpt lat="43.87277" lon="1.82958">
        <ele>128</ele>
        <time>2018-06-14T19:22:33Z</time>
      </trkpt>
      <trkpt lat="43.87276" lon="1.82951">
        <ele>128</ele>
        <time>2018-06-14T19:22:34Z</time>
      </trkpt>
      <trkpt lat="43.87274" lon="1.82945">
        <ele>128</ele>
        <time>2018-06-14T19:22:35Z</time>
      </trkpt>
      <trkpt lat="43.87272" lon="1.82938">
        <ele>128</ele>
        <time>2018-06-14T19:22:36Z</time>
      </trkpt>
      <trkpt lat="43.8727" lon="1.82932">
        <ele>128</ele>
        <time>2018-06-14T19:22:37Z</time>
      </trkpt>
      <trkpt lat="43.87268" lon="1.82925">
        <ele>128</ele>
        <time>2018-06-14T19:22:38Z</time>
      </trkpt>
      <trkpt lat="43.87266" lon="1.82918">
        <ele>127</ele>
        <time>2018-06-14T19:22:39Z</time>
      </trkpt>
      <trkpt lat="43.87265" lon="1.82911">
        <ele>127</ele>
        <time>2018-06-14T19:22:40Z</time>
      </trkpt>
      <trkpt lat="43.87263" lon="1.82905">
        <ele>127</ele>
        <time>2018-06-14T19:22:41Z</time>
      </trkpt>
      <trkpt lat="43.87261" lon="1.82898">
        <ele>127</ele>
        <time>2018-06-14T19:22:42Z</time>
      </trkpt>
      <trkpt lat="43.8726" lon="1.82891">
        <ele>127</ele>
        <time>2018-06-14T19:22:43Z</time>
      </trkpt>
      <trkpt lat="43.87258" lon="1.82884">
        <ele>127</ele>
        <time>2018-06-14T19:22:44Z</time>
      </trkpt>
      <trkpt lat="43.87257" lon="1.82877">
        <ele>127</ele>
        <time>2018-06-14T19:22:45Z</time>
      </trkpt>
      <trkpt lat="43.87255" lon="1.8287">
        <ele>127</ele>
        <time>2018-06-14T19:22:46Z</time>
      </trkpt>
      <trkpt lat="43.87254" lon="1.82863">
        <ele>127</ele>
        <time>2018-06-14T19:22:47Z</time>
      </trkpt>
      <trkpt lat="43.87252" lon="1.82856">
        <ele>127</ele>
        <time>2018-06-14T19:22:48Z</time>
      </trkpt>
      <trkpt lat="43.87251" lon="1.82849">
        <ele>127</ele>
        <time>2018-06-14T19:22:49Z</time>
      </trkpt>
      <trkpt lat="43.8725" lon="1.82843">
        <ele>127</ele>
        <time>2018-06-14T19:22:50Z</time>
      </trkpt>
      <trkpt lat="43.87248" lon="1.82836">
        <ele>127</ele>
        <time>2018-06-14T19:22:51Z</time>
      </trkpt>
      <trkpt lat="43.87247" lon="1.82829">
        <ele>127</ele>
        <time>2018-06-14T19:22:52Z</time>
      </trkpt>
      <trkpt lat="43.87246" lon="1.82823">
        <ele>127</ele>
        <time>2018-06-14T19:22:53Z</time>
      </trkpt>
      <trkpt lat="43.87245" lon="1.82816">
        <ele>127</ele>
        <time>2018-06-14T19:22:54Z</time>
      </trkpt>
      <trkpt lat="43.87243" lon="1.8281">
        <ele>127</ele>
        <time>2018-06-14T19:22:55Z</time>
      </trkpt>
      <trkpt lat="43.87242" lon="1.82803">
        <ele>127</ele>
        <time>2018-06-14T19:22:56Z</time>
      </trkpt>
      <trkpt lat="43.8724" lon="1.82797">
        <ele>127</ele>
        <time>2018-06-14T19:22:57Z</time>
      </trkpt>
      <trkpt lat="43.87239" lon="1.8279">
        <ele>126</ele>
        <time>2018-06-14T19:22:58Z</time>
      </trkpt>
      <trkpt lat="43.87238" lon="1.82784">
        <ele>126</ele>
        <time>2018-06-14T19:22:59Z</time>
      </trkpt>
      <trkpt lat="43.87236" lon="1.82778">
        <ele>126</ele>
        <time>2018-06-14T19:23:00Z</time>
      </trkpt>
      <trkpt lat="43.87235" lon="1.82771">
        <ele>126</ele>
        <time>2018-06-14T19:23:01Z</time>
      </trkpt>
      <trkpt lat="43.87233" lon="1.82765">
        <ele>127</ele>
        <time>2018-06-14T19:23:02Z</time>
      </trkpt>
      <trkpt lat="43.87231" lon="1.82758">
        <ele>127</ele>
        <time>2018-06-14T19:23:03Z</time>
      </trkpt>
      <trkpt lat="43.8723" lon="1.82752">
        <ele>127</ele>
        <time>2018-06-14T19:23:04Z</time>
      </trkpt>
      <trkpt lat="43.87228" lon="1.82745">
        <ele>127</ele>
        <time>2018-06-14T19:23:05Z</time>
      </trkpt>
      <trkpt lat="43.87226" lon="1.82739">
        <ele>127</ele>
        <time>2018-06-14T19:23:06Z</time>
      </trkpt>
      <trkpt lat="43.87224" lon="1.82732">
        <ele>127</ele>
        <time>2018-06-14T19:23:07Z</time>
      </trkpt>
      <trkpt lat="43.87223" lon="1.82725">
        <ele>126</ele>
        <time>2018-06-14T19:23:08Z</time>
      </trkpt>
      <trkpt lat="43.87221" lon="1.82718">
        <ele>126</ele>
        <time>2018-06-14T19:23:09Z</time>
      </trkpt>
      <trkpt lat="43.8722" lon="1.82712">
        <ele>126</ele>
        <time>2018-06-14T19:23:10Z</time>
      </trkpt>
      <trkpt lat="43.87218" lon="1.82705">
        <ele>126</ele>
        <time>2018-06-14T19:23:11Z</time>
      </trkpt>
      <trkpt lat="43.87217" lon="1.82699">
        <ele>126</ele>
        <time>2018-06-14T19:23:12Z</time>
      </trkpt>
      <trkpt lat="43.87216" lon="1.82693">
        <ele>126</ele>
        <time>2018-06-14T19:23:13Z</time>
      </trkpt>
      <trkpt lat="43.87215" lon="1.82687">
        <ele>126</ele>
        <time>2018-06-14T19:23:14Z</time>
      </trkpt>
      <trkpt lat="43.87214" lon="1.82681">
        <ele>126</ele>
        <time>2018-06-14T19:23:15Z</time>
      </trkpt>
      <trkpt lat="43.87214" lon="1.82675">
        <ele>126</ele>
        <time>2018-06-14T19:23:16Z</time>
      </trkpt>
      <trkpt lat="43.87213" lon="1.8267">
        <ele>126</ele>
        <time>2018-06-14T19:23:17Z</time>
      </trkpt>
      <trkpt lat="43.87213" lon="1.82665">
        <ele>126</ele>
        <time>2018-06-14T19:23:18Z</time>
      </trkpt>
      <trkpt lat="43.87212" lon="1.82661">
        <ele>126</ele>
        <time>2018-06-14T19:23:19Z</time>
      </trkpt>
      <trkpt lat="43.87212" lon="1.82656">
        <ele>126</ele>
        <time>2018-06-14T19:23:20Z</time>
      </trkpt>
      <trkpt lat="43.87211" lon="1.82653">
        <ele>126</ele>
        <time>2018-06-14T19:23:21Z</time>
      </trkpt>
      <trkpt lat="43.8721" lon="1.8265">
        <ele>126</ele>
        <time>2018-06-14T19:23:22Z</time>
      </trkpt>
      <trkpt lat="43.87209" lon="1.82648">
        <ele>126</ele>
        <time>2018-06-14T19:23:23Z</time>
      </trkpt>
      <trkpt lat="43.87206" lon="1.82649">
        <ele>126</ele>
        <time>2018-06-14T19:23:24Z</time>
      </trkpt>
      <trkpt lat="43.87204" lon="1.82652">
        <ele>126</ele>
        <time>2018-06-14T19:23:25Z</time>
      </trkpt>
      <trkpt lat="43.87202" lon="1.82655">
        <ele>126</ele>
        <time>2018-06-14T19:23:26Z</time>
      </trkpt>
      <trkpt lat="43.87199" lon="1.82658">
        <ele>126</ele>
        <time>2018-06-14T19:23:27Z</time>
      </trkpt>
      <trkpt lat="43.87195" lon="1.82661">
        <ele>126</ele>
        <time>2018-06-14T19:23:28Z</time>
      </trkpt>
      <trkpt lat="43.87193" lon="1.82664">
        <ele>126</ele>
        <time>2018-06-14T19:23:29Z</time>
      </trkpt>
      <trkpt lat="43.87189" lon="1.82667">
        <ele>126</ele>
        <time>2018-06-14T19:23:30Z</time>
      </trkpt>
      <trkpt lat="43.87186" lon="1.8267">
        <ele>126</ele>
        <time>2018-06-14T19:23:31Z</time>
      </trkpt>
      <trkpt lat="43.87183" lon="1.82674">
        <ele>126</ele>
        <time>2018-06-14T19:23:32Z</time>
      </trkpt>
      <trkpt lat="43.87179" lon="1.82677">
        <ele>126</ele>
        <time>2018-06-14T19:23:33Z</time>
      </trkpt>
      <trkpt lat="43.87176" lon="1.8268">
        <ele>126</ele>
        <time>2018-06-14T19:23:34Z</time>
      </trkpt>
      <trkpt lat="43.87172" lon="1.82683">
        <ele>126</ele>
        <time>2018-06-14T19:23:35Z</time>
      </trkpt>
      <trkpt lat="43.87168" lon="1.82686">
        <ele>126</ele>
        <time>2018-06-14T19:23:36Z</time>
      </trkpt>
      <trkpt lat="43.87164" lon="1.82688">
        <ele>126</ele>
        <time>2018-06-14T19:23:37Z</time>
      </trkpt>
      <trkpt lat="43.8716" lon="1.82691">
        <ele>126</ele>
        <time>2018-06-14T19:23:38Z</time>
      </trkpt>
      <trkpt lat="43.87156" lon="1.82694">
        <ele>126</ele>
        <time>2018-06-14T19:23:39Z</time>
      </trkpt>
      <trkpt lat="43.87152" lon="1.82697">
        <ele>126</ele>
        <time>2018-06-14T19:23:40Z</time>
      </trkpt>
      <trkpt lat="43.87148" lon="1.827">
        <ele>126</ele>
        <time>2018-06-14T19:23:41Z</time>
      </trkpt>
      <trkpt lat="43.87144" lon="1.82704">
        <ele>126</ele>
        <time>2018-06-14T19:23:42Z</time>
      </trkpt>
      <trkpt lat="43.87139" lon="1.82707">
        <ele>126</ele>
        <time>2018-06-14T19:23:43Z</time>
      </trkpt>
      <trkpt lat="43.87135" lon="1.82712">
        <ele>126</ele>
        <time>2018-06-14T19:23:44Z</time>
      </trkpt>
      <trkpt lat="43.87131" lon="1.82716">
        <ele>126</ele>
        <time>2018-06-14T19:23:45Z</time>
      </trkpt>
      <trkpt lat="43.87127" lon="1.82721">
        <ele>126</ele>
        <time>2018-06-14T19:23:46Z</time>
      </trkpt>
      <trkpt lat="43.87123" lon="1.82726">
        <ele>126</ele>
        <time>2018-06-14T19:23:47Z</time>
      </trkpt>
      <trkpt lat="43.8712" lon="1.82731">
        <ele>126</ele>
        <time>2018-06-14T19:23:48Z</time>
      </trkpt>
      <trkpt lat="43.87116" lon="1.82737">
        <ele>126</ele>
        <time>2018-06-14T19:23:49Z</time>
      </trkpt>
      <trkpt lat="43.87112" lon="1.82742">
        <ele>126</ele>
        <time>2018-06-14T19:23:50Z</time>
      </trkpt>
      <trkpt lat="43.87108" lon="1.82747">
        <ele>126</ele>
        <time>2018-06-14T19:23:51Z</time>
      </trkpt>
      <trkpt lat="43.87103" lon="1.82752">
        <ele>126</ele>
        <time>2018-06-14T19:23:52Z</time>
      </trkpt>
      <trkpt lat="43.87099" lon="1.82756">
        <ele>126</ele>
        <time>2018-06-14T19:23:53Z</time>
      </trkpt>
      <trkpt lat="43.87095" lon="1.82761">
        <ele>126</ele>
        <time>2018-06-14T19:23:54Z</time>
      </trkpt>
      <trkpt lat="43.87091" lon="1.82766">
        <ele>126</ele>
        <time>2018-06-14T19:23:55Z</time>
      </trkpt>
      <trkpt lat="43.87086" lon="1.82769">
        <ele>126</ele>
        <time>2018-06-14T19:23:56Z</time>
      </trkpt>
      <trkpt lat="43.87082" lon="1.82773">
        <ele>126</ele>
        <time>2018-06-14T19:23:57Z</time>
      </trkpt>
      <trkpt lat="43.87078" lon="1.82777">
        <ele>126</ele>
        <time>2018-06-14T19:23:58Z</time>
      </trkpt>
      <trkpt lat="43.87073" lon="1.82781">
        <ele>127</ele>
        <time>2018-06-14T19:23:59Z</time>
      </trkpt>
      <trkpt lat="43.87069" lon="1.82786">
        <ele>126</ele>
        <time>2018-06-14T19:24:00Z</time>
      </trkpt>
      <trkpt lat="43.87064" lon="1.82791">
        <ele>126</ele>
        <time>2018-06-14T19:24:01Z</time>
      </trkpt>
      <trkpt lat="43.87059" lon="1.82796">
        <ele>126</ele>
        <time>2018-06-14T19:24:02Z</time>
      </trkpt>
      <trkpt lat="43.87054" lon="1.82802">
        <ele>126</ele>
        <time>2018-06-14T19:24:03Z</time>
      </trkpt>
      <trkpt lat="43.87049" lon="1.82807">
        <ele>126</ele>
        <time>2018-06-14T19:24:04Z</time>
      </trkpt>
      <trkpt lat="43.87044" lon="1.82812">
        <ele>126</ele>
        <time>2018-06-14T19:24:05Z</time>
      </trkpt>
      <trkpt lat="43.87039" lon="1.82816">
        <ele>125</ele>
        <time>2018-06-14T19:24:06Z</time>
      </trkpt>
      <trkpt lat="43.87034" lon="1.82821">
        <ele>125</ele>
        <time>2018-06-14T19:24:07Z</time>
      </trkpt>
      <trkpt lat="43.87029" lon="1.82826">
        <ele>125</ele>
        <time>2018-06-14T19:24:08Z</time>
      </trkpt>
      <trkpt lat="43.87024" lon="1.82831">
        <ele>125</ele>
        <time>2018-06-14T19:24:09Z</time>
      </trkpt>
      <trkpt lat="43.87019" lon="1.82836">
        <ele>125</ele>
        <time>2018-06-14T19:24:10Z</time>
      </trkpt>
      <trkpt lat="43.87014" lon="1.82841">
        <ele>125</ele>
        <time>2018-06-14T19:24:11Z</time>
      </trkpt>
      <trkpt lat="43.8701" lon="1.82846">
        <ele>125</ele>
        <time>2018-06-14T19:24:12Z</time>
      </trkpt>
      <trkpt lat="43.87005" lon="1.8285">
        <ele>125</ele>
        <time>2018-06-14T19:24:13Z</time>
      </trkpt>
      <trkpt lat="43.87001" lon="1.82855">
        <ele>125</ele>
        <time>2018-06-14T19:24:14Z</time>
      </trkpt>
      <trkpt lat="43.86997" lon="1.82859">
        <ele>125</ele>
        <time>2018-06-14T19:24:15Z</time>
      </trkpt>
      <trkpt lat="43.86993" lon="1.82864">
        <ele>125</ele>
        <time>2018-06-14T19:24:16Z</time>
      </trkpt>
      <trkpt lat="43.86989" lon="1.82867">
        <ele>125</ele>
        <time>2018-06-14T19:24:17Z</time>
      </trkpt>
      <trkpt lat="43.86985" lon="1.82871">
        <ele>125</ele>
        <time>2018-06-14T19:24:18Z</time>
      </trkpt>
      <trkpt lat="43.86981" lon="1.82875">
        <ele>125</ele>
        <time>2018-06-14T19:24:19Z</time>
      </trkpt>
      <trkpt lat="43.86977" lon="1.82878">
        <ele>125</ele>
        <time>2018-06-14T19:24:20Z</time>
      </trkpt>
      <trkpt lat="43.86973" lon="1.82881">
        <ele>125</ele>
        <time>2018-06-14T19:24:21Z</time>
      </trkpt>
      <trkpt lat="43.8697" lon="1.82884">
        <ele>125</ele>
        <time>2018-06-14T19:24:22Z</time>
      </trkpt>
      <trkpt lat="43.86968" lon="1.82885">
        <ele>125</ele>
        <time>2018-06-14T19:24:23Z</time>
      </trkpt>
      <trkpt lat="43.86966" lon="1.82887">
        <ele>125</ele>
        <time>2018-06-14T19:24:24Z</time>
      </trkpt>
      <trkpt lat="43.86964" lon="1.82889">
        <ele>125</ele>
        <time>2018-06-14T19:24:25Z</time>
      </trkpt>
      <trkpt lat="43.86962" lon="1.82892">
        <ele>124</ele>
        <time>2018-06-14T19:24:26Z</time>
      </trkpt>
      <trkpt lat="43.86961" lon="1.82894">
        <ele>124</ele>
        <time>2018-06-14T19:24:27Z</time>
      </trkpt>
      <trkpt lat="43.86959" lon="1.82896">
        <ele>124</ele>
        <time>2018-06-14T19:24:28Z</time>
      </trkpt>
      <trkpt lat="43.86958" lon="1.82897">
        <ele>124</ele>
        <time>2018-06-14T19:24:29Z</time>
      </trkpt>
      <trkpt lat="43.86957" lon="1.82899">
        <ele>124</ele>
        <time>2018-06-14T19:24:30Z</time>
      </trkpt>
      <trkpt lat="43.86956" lon="1.829">
        <ele>124</ele>
        <time>2018-06-14T19:24:31Z</time>
      </trkpt>
      <trkpt lat="43.86955" lon="1.82901">
        <ele>124</ele>
        <time>2018-06-14T19:24:32Z</time>
      </trkpt>
      <trkpt lat="43.86954" lon="1.82903">
        <ele>124</ele>
        <time>2018-06-14T19:24:33Z</time>
      </trkpt>
      <trkpt lat="43.86953" lon="1.82904">
        <ele>124</ele>
        <time>2018-06-14T19:24:34Z</time>
      </trkpt>
      <trkpt lat="43.86951" lon="1.82905">
        <ele>124</ele>
        <time>2018-06-14T19:24:35Z</time>
      </trkpt>
      <trkpt lat="43.86951" lon="1.82906">
        <ele>124</ele>
        <time>2018-06-14T19:24:36Z</time>
      </trkpt>
      <trkpt lat="43.8695" lon="1.82907">
        <ele>124</ele>
        <time>2018-06-14T19:24:37Z</time>
      </trkpt>
      <trkpt lat="43.86949" lon="1.82908">
        <ele>124</ele>
        <time>2018-06-14T19:24:38Z</time>
      </trkpt>
      <trkpt lat="43.86948" lon="1.82909">
        <ele>124</ele>
        <time>2018-06-14T19:24:39Z</time>
      </trkpt>
      <trkpt lat="43.86948" lon="1.8291">
        <ele>124</ele>
        <time>2018-06-14T19:24:40Z</time>
      </trkpt>
      <trkpt lat="43.86946" lon="1.82911">
        <ele>124</ele>
        <time>2018-06-14T19:24:41Z</time>
      </trkpt>
      <trkpt lat="43.86945" lon="1.82913">
        <ele>124</ele>
        <time>2018-06-14T19:24:42Z</time>
      </trkpt>
      <trkpt lat="43.86943" lon="1.82914">
        <ele>124</ele>
        <time>2018-06-14T19:24:43Z</time>
      </trkpt>
      <trkpt lat="43.86941" lon="1.82916">
        <ele>124</ele>
        <time>2018-06-14T19:24:44Z</time>
      </trkpt>
      <trkpt lat="43.86939" lon="1.82918">
        <ele>125</ele>
        <time>2018-06-14T19:24:45Z</time>
      </trkpt>
      <trkpt lat="43.86937" lon="1.8292">
        <ele>125</ele>
        <time>2018-06-14T19:24:46Z</time>
      </trkpt>
      <trkpt lat="43.86934" lon="1.82922">
        <ele>124</ele>
        <time>2018-06-14T19:24:47Z</time>
      </trkpt>
      <trkpt lat="43.86933" lon="1.82923">
        <ele>124</ele>
        <time>2018-06-14T19:24:48Z</time>
      </trkpt>
      <trkpt lat="43.8693" lon="1.82924">
        <ele>124</ele>
        <time>2018-06-14T19:24:49Z</time>
      </trkpt>
      <trkpt lat="43.86928" lon="1.82925">
        <ele>124</ele>
        <time>2018-06-14T19:24:50Z</time>
      </trkpt>
      <trkpt lat="43.86925" lon="1.82927">
        <ele>124</ele>
        <time>2018-06-14T19:24:51Z</time>
      </trkpt>
      <trkpt lat="43.86923" lon="1.82929">
        <ele>124</ele>
        <time>2018-06-14T19:24:52Z</time>
      </trkpt>
      <trkpt lat="43.86921" lon="1.8293">
        <ele>124</ele>
        <time>2018-06-14T19:24:53Z</time>
      </trkpt>
      <trkpt lat="43.86918" lon="1.82932">
        <ele>124</ele>
        <time>2018-06-14T19:24:54Z</time>
      </trkpt>
      <trkpt lat="43.86916" lon="1.82934">
        <ele>124</ele>
        <time>2018-06-14T19:24:55Z</time>
      </trkpt>
      <trkpt lat="43.86914" lon="1.82935">
        <ele>124</ele>
        <time>2018-06-14T19:24:56Z</time>
      </trkpt>
      <trkpt lat="43.86912" lon="1.82936">
        <ele>124</ele>
        <time>2018-06-14T19:24:57Z</time>
      </trkpt>
      <trkpt lat="43.8691" lon="1.82936">
        <ele>124</ele>
        <time>2018-06-14T19:24:58Z</time>
      </trkpt>
      <trkpt lat="43.86907" lon="1.82936">
        <ele>124</ele>
        <time>2018-06-14T19:24:59Z</time>
      </trkpt>
      <trkpt lat="43.86905" lon="1.82936">
        <ele>124</ele>
        <time>2018-06-14T19:25:00Z</time>
      </trkpt>
      <trkpt lat="43.86903" lon="1.82935">
        <ele>124</ele>
        <time>2018-06-14T19:25:01Z</time>
      </trkpt>
      <trkpt lat="43.86901" lon="1.82935">
        <ele>124</ele>
        <time>2018-06-14T19:25:02Z</time>
      </trkpt>
      <trkpt lat="43.86898" lon="1.82933">
        <ele>124</ele>
        <time>2018-06-14T19:25:03Z</time>
      </trkpt>
      <trkpt lat="43.86896" lon="1.82931">
        <ele>124</ele>
        <time>2018-06-14T19:25:04Z</time>
      </trkpt>
      <trkpt lat="43.86894" lon="1.8293">
        <ele>124</ele>
        <time>2018-06-14T19:25:05Z</time>
      </trkpt>
      <trkpt lat="43.86891" lon="1.82928">
        <ele>124</ele>
        <time>2018-06-14T19:25:06Z</time>
      </trkpt>
      <trkpt lat="43.86889" lon="1.82925">
        <ele>124</ele>
        <time>2018-06-14T19:25:07Z</time>
      </trkpt>
      <trkpt lat="43.86886" lon="1.82923">
        <ele>125</ele>
        <time>2018-06-14T19:25:08Z</time>
      </trkpt>
      <trkpt lat="43.86883" lon="1.82919">
        <ele>125</ele>
        <time>2018-06-14T19:25:09Z</time>
      </trkpt>
      <trkpt lat="43.86881" lon="1.82916">
        <ele>125</ele>
        <time>2018-06-14T19:25:10Z</time>
      </trkpt>
      <trkpt lat="43.86878" lon="1.82914">
        <ele>125</ele>
        <time>2018-06-14T19:25:11Z</time>
      </trkpt>
      <trkpt lat="43.86876" lon="1.82911">
        <ele>125</ele>
        <time>2018-06-14T19:25:12Z</time>
      </trkpt>
      <trkpt lat="43.86873" lon="1.82908">
        <ele>125</ele>
        <time>2018-06-14T19:25:13Z</time>
      </trkpt>
      <trkpt lat="43.86871" lon="1.82905">
        <ele>125</ele>
        <time>2018-06-14T19:25:14Z</time>
      </trkpt>
      <trkpt lat="43.86868" lon="1.82902">
        <ele>125</ele>
        <time>2018-06-14T19:25:15Z</time>
      </trkpt>
      <trkpt lat="43.86866" lon="1.82898">
        <ele>125</ele>
        <time>2018-06-14T19:25:16Z</time>
      </trkpt>
      <trkpt lat="43.86863" lon="1.82895">
        <ele>125</ele>
        <time>2018-06-14T19:25:17Z</time>
      </trkpt>
      <trkpt lat="43.8686" lon="1.82892">
        <ele>125</ele>
        <time>2018-06-14T19:25:18Z</time>
      </trkpt>
      <trkpt lat="43.86857" lon="1.82889">
        <ele>126</ele>
        <time>2018-06-14T19:25:19Z</time>
      </trkpt>
      <trkpt lat="43.86855" lon="1.82886">
        <ele>126</ele>
        <time>2018-06-14T19:25:20Z</time>
      </trkpt>
      <trkpt lat="43.86853" lon="1.82883">
        <ele>126</ele>
        <time>2018-06-14T19:25:21Z</time>
      </trkpt>
      <trkpt lat="43.8685" lon="1.8288">
        <ele>126</ele>
        <time>2018-06-14T19:25:22Z</time>
      </trkpt>
      <trkpt lat="43.86847" lon="1.82878">
        <ele>126</ele>
        <time>2018-06-14T19:25:23Z</time>
      </trkpt>
      <trkpt lat="43.86844" lon="1.82874">
        <ele>126</ele>
        <time>2018-06-14T19:25:24Z</time>
      </trkpt>
      <trkpt lat="43.86841" lon="1.82871">
        <ele>126</ele>
        <time>2018-06-14T19:25:25Z</time>
      </trkpt>
      <trkpt lat="43.86838" lon="1.82868">
        <ele>126</ele>
        <time>2018-06-14T19:25:26Z</time>
      </trkpt>
      <trkpt lat="43.86835" lon="1.82866">
        <ele>126</ele>
        <time>2018-06-14T19:25:27Z</time>
      </trkpt>
      <trkpt lat="43.86832" lon="1.82863">
        <ele>126</ele>
        <time>2018-06-14T19:25:28Z</time>
      </trkpt>
      <trkpt lat="43.86829" lon="1.82859">
        <ele>126</ele>
        <time>2018-06-14T19:25:29Z</time>
      </trkpt>
      <trkpt lat="43.86826" lon="1.82856">
        <ele>125</ele>
        <time>2018-06-14T19:25:30Z</time>
      </trkpt>
      <trkpt lat="43.86823" lon="1.82852">
        <ele>125</ele>
        <time>2018-06-14T19:25:31Z</time>
      </trkpt>
      <trkpt lat="43.8682" lon="1.82849">
        <ele>125</ele>
        <time>2018-06-14T19:25:32Z</time>
      </trkpt>
      <trkpt lat="43.86817" lon="1.82845">
        <ele>125</ele>
        <time>2018-06-14T19:25:33Z</time>
      </trkpt>
      <trkpt lat="43.86814" lon="1.82841">
        <ele>125</ele>
        <time>2018-06-14T19:25:34Z</time>
      </trkpt>
      <trkpt lat="43.86811" lon="1.82838">
        <ele>125</ele>
        <time>2018-06-14T19:25:35Z</time>
      </trkpt>
      <trkpt lat="43.86808" lon="1.82834">
        <ele>125</ele>
        <time>2018-06-14T19:25:36Z</time>
      </trkpt>
      <trkpt lat="43.86804" lon="1.8283">
        <ele>125</ele>
        <time>2018-06-14T19:25:37Z</time>
      </trkpt>
      <trkpt lat="43.86801" lon="1.82826">
        <ele>125</ele>
        <time>2018-06-14T19:25:38Z</time>
      </trkpt>
      <trkpt lat="43.86798" lon="1.82822">
        <ele>125</ele>
        <time>2018-06-14T19:25:39Z</time>
      </trkpt>
      <trkpt lat="43.86795" lon="1.82818">
        <ele>125</ele>
        <time>2018-06-14T19:25:40Z</time>
      </trkpt>
      <trkpt lat="43.86792" lon="1.82814">
        <ele>125</ele>
        <time>2018-06-14T19:25:41Z</time>
      </trkpt>
      <trkpt lat="43.86789" lon="1.82809">
        <ele>125</ele>
        <time>2018-06-14T19:25:42Z</time>
      </trkpt>
      <trkpt lat="43.86786" lon="1.82804">
        <ele>125</ele>
        <time>2018-06-14T19:25:43Z</time>
      </trkpt>
      <trkpt lat="43.86783" lon="1.828">
        <ele>125</ele>
        <time>2018-06-14T19:25:44Z</time>
      </trkpt>
      <trkpt lat="43.8678" lon="1.82796">
        <ele>125</ele>
        <time>2018-06-14T19:25:45Z</time>
      </trkpt>
      <trkpt lat="43.86777" lon="1.82791">
        <ele>125</ele>
        <time>2018-06-14T19:25:46Z</time>
      </trkpt>
      <trkpt lat="43.86774" lon="1.82786">
        <ele>125</ele>
        <time>2018-06-14T19:25:47Z</time>
      </trkpt>
      <trkpt lat="43.86771" lon="1.82781">
        <ele>125</ele>
        <time>2018-06-14T19:25:48Z</time>
      </trkpt>
      <trkpt lat="43.86768" lon="1.82777">
        <ele>125</ele>
        <time>2018-06-14T19:25:49Z</time>
      </trkpt>
      <trkpt lat="43.86765" lon="1.82773">
        <ele>125</ele>
        <time>2018-06-14T19:25:50Z</time>
      </trkpt>
      <trkpt lat="43.86762" lon="1.82769">
        <ele>125</ele>
        <time>2018-06-14T19:25:51Z</time>
      </trkpt>
      <trkpt lat="43.86758" lon="1.82764">
        <ele>125</ele>
        <time>2018-06-14T19:25:52Z</time>
      </trkpt>
      <trkpt lat="43.86755" lon="1.8276">
        <ele>125</ele>
        <time>2018-06-14T19:25:53Z</time>
      </trkpt>
      <trkpt lat="43.86752" lon="1.82755">
        <ele>125</ele>
        <time>2018-06-14T19:25:54Z</time>
      </trkpt>
      <trkpt lat="43.86749" lon="1.82751">
        <ele>125</ele>
        <time>2018-06-14T19:25:55Z</time>
      </trkpt>
      <trkpt lat="43.86746" lon="1.82747">
        <ele>125</ele>
        <time>2018-06-14T19:25:56Z</time>
      </trkpt>
      <trkpt lat="43.86744" lon="1.82744">
        <ele>125</ele>
        <time>2018-06-14T19:25:57Z</time>
      </trkpt>
      <trkpt lat="43.86741" lon="1.8274">
        <ele>125</ele>
        <time>2018-06-14T19:25:58Z</time>
      </trkpt>
      <trkpt lat="43.86739" lon="1.82736">
        <ele>125</ele>
        <time>2018-06-14T19:25:59Z</time>
      </trkpt>
      <trkpt lat="43.86736" lon="1.82732">
        <ele>125</ele>
        <time>2018-06-14T19:26:00Z</time>
      </trkpt>
      <trkpt lat="43.86733" lon="1.82728">
        <ele>125</ele>
        <time>2018-06-14T19:26:01Z</time>
      </trkpt>
      <trkpt lat="43.8673" lon="1.82725">
        <ele>125</ele>
        <time>2018-06-14T19:26:02Z</time>
      </trkpt>
      <trkpt lat="43.86727" lon="1.8272">
        <ele>125</ele>
        <time>2018-06-14T19:26:03Z</time>
      </trkpt>
      <trkpt lat="43.86724" lon="1.82716">
        <ele>125</ele>
        <time>2018-06-14T19:26:04Z</time>
      </trkpt>
      <trkpt lat="43.86721" lon="1.82713">
        <ele>125</ele>
        <time>2018-06-14T19:26:05Z</time>
      </trkpt>
      <trkpt lat="43.86717" lon="1.82709">
        <ele>125</ele>
        <time>2018-06-14T19:26:06Z</time>
      </trkpt>
      <trkpt lat="43.86714" lon="1.82705">
        <ele>125</ele>
        <time>2018-06-14T19:26:07Z</time>
      </trkpt>
      <trkpt lat="43.86711" lon="1.82701">
        <ele>125</ele>
        <time>2018-06-14T19:26:08Z</time>
      </trkpt>
      <trkpt lat="43.86708" lon="1.82696">
        <ele>125</ele>
        <time>2018-06-14T19:26:09Z</time>
      </trkpt>
      <trkpt lat="43.86706" lon="1.82692">
        <ele>125</ele>
        <time>2018-06-14T19:26:10Z</time>
      </trkpt>
      <trkpt lat="43.86703" lon="1.82687">
        <ele>125</ele>
        <time>2018-06-14T19:26:11Z</time>
      </trkpt>
      <trkpt lat="43.86699" lon="1.82683">
        <ele>125</ele>
        <time>2018-06-14T19:26:12Z</time>
      </trkpt>
      <trkpt lat="43.86697" lon="1.82678">
        <ele>125</ele>
        <time>2018-06-14T19:26:13Z</time>
      </trkpt>
      <trkpt lat="43.86694" lon="1.82674">
        <ele>125</ele>
        <time>2018-06-14T19:26:14Z</time>
      </trkpt>
      <trkpt lat="43.86691" lon="1.82669">
        <ele>125</ele>
        <time>2018-06-14T19:26:15Z</time>
      </trkpt>
      <trkpt lat="43.86688" lon="1.82664">
        <ele>125</ele>
        <time>2018-06-14T19:26:16Z</time>
      </trkpt>
      <trkpt lat="43.86685" lon="1.82659">
        <ele>125</ele>
        <time>2018-06-14T19:26:17Z</time>
      </trkpt>
      <trkpt lat="43.86682" lon="1.82654">
        <ele>125</ele>
        <time>2018-06-14T19:26:18Z</time>
      </trkpt>
      <trkpt lat="43.86679" lon="1.8265">
        <ele>125</ele>
        <time>2018-06-14T19:26:19Z</time>
      </trkpt>
      <trkpt lat="43.86676" lon="1.82645">
        <ele>125</ele>
        <time>2018-06-14T19:26:20Z</time>
      </trkpt>
      <trkpt lat="43.86673" lon="1.82639">
        <ele>125</ele>
        <time>2018-06-14T19:26:21Z</time>
      </trkpt>
      <trkpt lat="43.8667" lon="1.82634">
        <ele>125</ele>
        <time>2018-06-14T19:26:22Z</time>
      </trkpt>
      <trkpt lat="43.86667" lon="1.82629">
        <ele>125</ele>
        <time>2018-06-14T19:26:23Z</time>
      </trkpt>
      <trkpt lat="43.86664" lon="1.82624">
        <ele>125</ele>
        <time>2018-06-14T19:26:24Z</time>
      </trkpt>
      <trkpt lat="43.86662" lon="1.82619">
        <ele>125</ele>
        <time>2018-06-14T19:26:25Z</time>
      </trkpt>
      <trkpt lat="43.86659" lon="1.82613">
        <ele>125</ele>
        <time>2018-06-14T19:26:26Z</time>
      </trkpt>
      <trkpt lat="43.86656" lon="1.82608">
        <ele>125</ele>
        <time>2018-06-14T19:26:27Z</time>
      </trkpt>
      <trkpt lat="43.86654" lon="1.82602">
        <ele>125</ele>
        <time>2018-06-14T19:26:28Z</time>
      </trkpt>
      <trkpt lat="43.86651" lon="1.82597">
        <ele>125</ele>
        <time>2018-06-14T19:26:29Z</time>
      </trkpt>
      <trkpt lat="43.86648" lon="1.82592">
        <ele>125</ele>
        <time>2018-06-14T19:26:30Z</time>
      </trkpt>
      <trkpt lat="43.86646" lon="1.82586">
        <ele>125</ele>
        <time>2018-06-14T19:26:31Z</time>
      </trkpt>
      <trkpt lat="43.86644" lon="1.8258">
        <ele>125</ele>
        <time>2018-06-14T19:26:32Z</time>
      </trkpt>
      <trkpt lat="43.86641" lon="1.82575">
        <ele>125</ele>
        <time>2018-06-14T19:26:33Z</time>
      </trkpt>
      <trkpt lat="43.86638" lon="1.8257">
        <ele>125</ele>
        <time>2018-06-14T19:26:34Z</time>
      </trkpt>
      <trkpt lat="43.86636" lon="1.82564">
        <ele>125</ele>
        <time>2018-06-14T19:26:35Z</time>
      </trkpt>
      <trkpt lat="43.86634" lon="1.82557">
        <ele>125</ele>
        <time>2018-06-14T19:26:36Z</time>
      </trkpt>
      <trkpt lat="43.86632" lon="1.82551">
        <ele>125</ele>
        <time>2018-06-14T19:26:37Z</time>
      </trkpt>
      <trkpt lat="43.86629" lon="1.82545">
        <ele>125</ele>
        <time>2018-06-14T19:26:38Z</time>
      </trkpt>
      <trkpt lat="43.86627" lon="1.82539">
        <ele>125</ele>
        <time>2018-06-14T19:26:39Z</time>
      </trkpt>
      <trkpt lat="43.86625" lon="1.82533">
        <ele>125</ele>
        <time>2018-06-14T19:26:40Z</time>
      </trkpt>
      <trkpt lat="43.86622" lon="1.82527">
        <ele>125</ele>
        <time>2018-06-14T19:26:41Z</time>
      </trkpt>
      <trkpt lat="43.86621" lon="1.82521">
        <ele>125</ele>
        <time>2018-06-14T19:26:42Z</time>
      </trkpt>
      <trkpt lat="43.86619" lon="1.82514">
        <ele>125</ele>
        <time>2018-06-14T19:26:43Z</time>
      </trkpt>
      <trkpt lat="43.86617" lon="1.82508">
        <ele>125</ele>
        <time>2018-06-14T19:26:44Z</time>
      </trkpt>
      <trkpt lat="43.86615" lon="1.82502">
        <ele>125</ele>
        <time>2018-06-14T19:26:45Z</time>
      </trkpt>
      <trkpt lat="43.86613" lon="1.82496">
        <ele>125</ele>
        <time>2018-06-14T19:26:46Z</time>
      </trkpt>
      <trkpt lat="43.86612" lon="1.82489">
        <ele>125</ele>
        <time>2018-06-14T19:26:47Z</time>
      </trkpt>
      <trkpt lat="43.86611" lon="1.82483">
        <ele>125</ele>
        <time>2018-06-14T19:26:48Z</time>
      </trkpt>
      <trkpt lat="43.86609" lon="1.82477">
        <ele>125</ele>
        <time>2018-06-14T19:26:49Z</time>
      </trkpt>
      <trkpt lat="43.86607" lon="1.8247">
        <ele>125</ele>
        <time>2018-06-14T19:26:50Z</time>
      </trkpt>
      <trkpt lat="43.86606" lon="1.82464">
        <ele>125</ele>
        <time>2018-06-14T19:26:51Z</time>
      </trkpt>
      <trkpt lat="43.86605" lon="1.82457">
        <ele>125</ele>
        <time>2018-06-14T19:26:52Z</time>
      </trkpt>
      <trkpt lat="43.86603" lon="1.82451">
        <ele>125</ele>
        <time>2018-06-14T19:26:53Z</time>
      </trkpt>
      <trkpt lat="43.86602" lon="1.82444">
        <ele>125</ele>
        <time>2018-06-14T19:26:54Z</time>
      </trkpt>
      <trkpt lat="43.86601" lon="1.82438">
        <ele>125</ele>
        <time>2018-06-14T19:26:55Z</time>
      </trkpt>
      <trkpt lat="43.86599" lon="1.82432">
        <ele>125</ele>
        <time>2018-06-14T19:26:56Z</time>
      </trkpt>
      <trkpt lat="43.86597" lon="1.82426">
        <ele>125</ele>
        <time>2018-06-14T19:26:57Z</time>
      </trkpt>
      <trkpt lat="43.86595" lon="1.8242">
        <ele>125</ele>
        <time>2018-06-14T19:26:58Z</time>
      </trkpt>
      <trkpt lat="43.86593" lon="1.82414">
        <ele>125</ele>
        <time>2018-06-14T19:26:59Z</time>
      </trkpt>
      <trkpt lat="43.8659" lon="1.82409">
        <ele>125</ele>
        <time>2018-06-14T19:27:00Z</time>
      </trkpt>
      <trkpt lat="43.86587" lon="1.82403">
        <ele>125</ele>
        <time>2018-06-14T19:27:01Z</time>
      </trkpt>
      <trkpt lat="43.86585" lon="1.82397">
        <ele>125</ele>
        <time>2018-06-14T19:27:02Z</time>
      </trkpt>
      <trkpt lat="43.86582" lon="1.82392">
        <ele>125</ele>
        <time>2018-06-14T19:27:03Z</time>
      </trkpt>
      <trkpt lat="43.86579" lon="1.82387">
        <ele>125</ele>
        <time>2018-06-14T19:27:04Z</time>
      </trkpt>
      <trkpt lat="43.86575" lon="1.82382">
        <ele>125</ele>
        <time>2018-06-14T19:27:05Z</time>
      </trkpt>
      <trkpt lat="43.86572" lon="1.82377">
        <ele>125</ele>
        <time>2018-06-14T19:27:06Z</time>
      </trkpt>
      <trkpt lat="43.86568" lon="1.82372">
        <ele>125</ele>
        <time>2018-06-14T19:27:07Z</time>
      </trkpt>
      <trkpt lat="43.86564" lon="1.82367">
        <ele>125</ele>
        <time>2018-06-14T19:27:08Z</time>
      </trkpt>
      <trkpt lat="43.8656" lon="1.82363">
        <ele>125</ele>
        <time>2018-06-14T19:27:09Z</time>
      </trkpt>
      <trkpt lat="43.86556" lon="1.82359">
        <ele>125</ele>
        <time>2018-06-14T19:27:10Z</time>
      </trkpt>
      <trkpt lat="43.86551" lon="1.82355">
        <ele>125</ele>
        <time>2018-06-14T19:27:11Z</time>
      </trkpt>
      <trkpt lat="43.86547" lon="1.82351">
        <ele>125</ele>
        <time>2018-06-14T19:27:12Z</time>
      </trkpt>
      <trkpt lat="43.86543" lon="1.82347">
        <ele>124</ele>
        <time>2018-06-14T19:27:13Z</time>
      </trkpt>
      <trkpt lat="43.86538" lon="1.82343">
        <ele>124</ele>
        <time>2018-06-14T19:27:14Z</time>
      </trkpt>
      <trkpt lat="43.86534" lon="1.82339">
        <ele>124</ele>
        <time>2018-06-14T19:27:15Z</time>
      </trkpt>
      <trkpt lat="43.86529" lon="1.82335">
        <ele>124</ele>
        <time>2018-06-14T19:27:16Z</time>
      </trkpt>
      <trkpt lat="43.86525" lon="1.82331">
        <ele>124</ele>
        <time>2018-06-14T19:27:17Z</time>
      </trkpt>
      <trkpt lat="43.86521" lon="1.82327">
        <ele>124</ele>
        <time>2018-06-14T19:27:18Z</time>
      </trkpt>
      <trkpt lat="43.86517" lon="1.82322">
        <ele>124</ele>
        <time>2018-06-14T19:27:19Z</time>
      </trkpt>
      <trkpt lat="43.86513" lon="1.82317">
        <ele>124</ele>
        <time>2018-06-14T19:27:20Z</time>
      </trkpt>
      <trkpt lat="43.8651" lon="1.82312">
        <ele>124</ele>
        <time>2018-06-14T19:27:21Z</time>
      </trkpt>
      <trkpt lat="43.86506" lon="1.82307">
        <ele>124</ele>
        <time>2018-06-14T19:27:22Z</time>
      </trkpt>
      <trkpt lat="43.86502" lon="1.82302">
        <ele>124</ele>
        <time>2018-06-14T19:27:23Z</time>
      </trkpt>
      <trkpt lat="43.86498" lon="1.82297">
        <ele>124</ele>
        <time>2018-06-14T19:27:24Z</time>
      </trkpt>
      <trkpt lat="43.86495" lon="1.82292">
        <ele>124</ele>
        <time>2018-06-14T19:27:25Z</time>
      </trkpt>
      <trkpt lat="43.86491" lon="1.82287">
        <ele>124</ele>
        <time>2018-06-14T19:27:26Z</time>
      </trkpt>
      <trkpt lat="43.86488" lon="1.82282">
        <ele>124</ele>
        <time>2018-06-14T19:27:27Z</time>
      </trkpt>
      <trkpt lat="43.86484" lon="1.82276">
        <ele>124</ele>
        <time>2018-06-14T19:27:28Z</time>
      </trkpt>
      <trkpt lat="43.86481" lon="1.82271">
        <ele>124</ele>
        <time>2018-06-14T19:27:29Z</time>
      </trkpt>
      <trkpt lat="43.86477" lon="1.82265">
        <ele>124</ele>
        <time>2018-06-14T19:27:30Z</time>
      </trkpt>
      <trkpt lat="43.86474" lon="1.8226">
        <ele>124</ele>
        <time>2018-06-14T19:27:31Z</time>
      </trkpt>
      <trkpt lat="43.8647" lon="1.82254">
        <ele>124</ele>
        <time>2018-06-14T19:27:32Z</time>
      </trkpt>
      <trkpt lat="43.86467" lon="1.82249">
        <ele>124</ele>
        <time>2018-06-14T19:27:33Z</time>
      </trkpt>
      <trkpt lat="43.86463" lon="1.82244">
        <ele>124</ele>
        <time>2018-06-14T19:27:34Z</time>
      </trkpt>
      <trkpt lat="43.8646" lon="1.82239">
        <ele>124</ele>
        <time>2018-06-14T19:27:35Z</time>
      </trkpt>
      <trkpt lat="43.86457" lon="1.82233">
        <ele>124</ele>
        <time>2018-06-14T19:27:36Z</time>
      </trkpt>
      <trkpt lat="43.86454" lon="1.82227">
        <ele>124</ele>
        <time>2018-06-14T19:27:37Z</time>
      </trkpt>
      <trkpt lat="43.8645" lon="1.82222">
        <ele>123</ele>
        <time>2018-06-14T19:27:38Z</time>
      </trkpt>
      <trkpt lat="43.86447" lon="1.82216">
        <ele>124</ele>
        <time>2018-06-14T19:27:39Z</time>
      </trkpt>
      <trkpt lat="43.86444" lon="1.8221">
        <ele>124</ele>
        <time>2018-06-14T19:27:40Z</time>
      </trkpt>
      <trkpt lat="43.86441" lon="1.82205">
        <ele>124</ele>
        <time>2018-06-14T19:27:41Z</time>
      </trkpt>
      <trkpt lat="43.86438" lon="1.82199">
        <ele>124</ele>
        <time>2018-06-14T19:27:42Z</time>
      </trkpt>
      <trkpt lat="43.86435" lon="1.82193">
        <ele>124</ele>
        <time>2018-06-14T19:27:43Z</time>
      </trkpt>
      <trkpt lat="43.86433" lon="1.82186">
        <ele>124</ele>
        <time>2018-06-14T19:27:44Z</time>
      </trkpt>
      <trkpt lat="43.8643" lon="1.8218">
        <ele>124</ele>
        <time>2018-06-14T19:27:45Z</time>
      </trkpt>
      <trkpt lat="43.86428" lon="1.82174">
        <ele>124</ele>
        <time>2018-06-14T19:27:46Z</time>
      </trkpt>
      <trkpt lat="43.86425" lon="1.82167">
        <ele>124</ele>
        <time>2018-06-14T19:27:47Z</time>
      </trkpt>
      <trkpt lat="43.86423" lon="1.82162">
        <ele>124</ele>
        <time>2018-06-14T19:27:48Z</time>
      </trkpt>
      <trkpt lat="43.86421" lon="1.82156">
        <ele>124</ele>
        <time>2018-06-14T19:27:49Z</time>
      </trkpt>
      <trkpt lat="43.86418" lon="1.8215">
        <ele>124</ele>
        <time>2018-06-14T19:27:50Z</time>
      </trkpt>
      <trkpt lat="43.86416" lon="1.82144">
        <ele>124</ele>
        <time>2018-06-14T19:27:51Z</time>
      </trkpt>
      <trkpt lat="43.86414" lon="1.82138">
        <ele>124</ele>
        <time>2018-06-14T19:27:52Z</time>
      </trkpt>
      <trkpt lat="43.86411" lon="1.82132">
        <ele>124</ele>
        <time>2018-06-14T19:27:53Z</time>
      </trkpt>
      <trkpt lat="43.86409" lon="1.82126">
        <ele>123</ele>
        <time>2018-06-14T19:27:54Z</time>
      </trkpt>
      <trkpt lat="43.86407" lon="1.8212">
        <ele>123</ele>
        <time>2018-06-14T19:27:55Z</time>
      </trkpt>
      <trkpt lat="43.86404" lon="1.82114">
        <ele>123</ele>
        <time>2018-06-14T19:27:56Z</time>
      </trkpt>
      <trkpt lat="43.86402" lon="1.82108">
        <ele>123</ele>
        <time>2018-06-14T19:27:57Z</time>
      </trkpt>
      <trkpt lat="43.864" lon="1.82102">
        <ele>123</ele>
        <time>2018-06-14T19:27:58Z</time>
      </trkpt>
      <trkpt lat="43.86397" lon="1.82096">
        <ele>123</ele>
        <time>2018-06-14T19:27:59Z</time>
      </trkpt>
      <trkpt lat="43.86395" lon="1.8209">
        <ele>123</ele>
        <time>2018-06-14T19:28:00Z</time>
      </trkpt>
      <trkpt lat="43.86392" lon="1.82084">
        <ele>123</ele>
        <time>2018-06-14T19:28:01Z</time>
      </trkpt>
      <trkpt lat="43.86389" lon="1.82079">
        <ele>123</ele>
        <time>2018-06-14T19:28:02Z</time>
      </trkpt>
      <trkpt lat="43.86386" lon="1.82073">
        <ele>123</ele>
        <time>2018-06-14T19:28:03Z</time>
      </trkpt>
      <trkpt lat="43.86383" lon="1.82067">
        <ele>123</ele>
        <time>2018-06-14T19:28:04Z</time>
      </trkpt>
      <trkpt lat="43.86381" lon="1.82062">
        <ele>123</ele>
        <time>2018-06-14T19:28:05Z</time>
      </trkpt>
      <trkpt lat="43.86378" lon="1.82056">
        <ele>123</ele>
        <time>2018-06-14T19:28:06Z</time>
      </trkpt>
      <trkpt lat="43.86376" lon="1.8205">
        <ele>123</ele>
        <time>2018-06-14T19:28:07Z</time>
      </trkpt>
      <trkpt lat="43.86373" lon="1.82044">
        <ele>123</ele>
        <time>2018-06-14T19:28:08Z</time>
      </trkpt>
      <trkpt lat="43.86371" lon="1.82038">
        <ele>123</ele>
        <time>2018-06-14T19:28:09Z</time>
      </trkpt>
      <trkpt lat="43.86368" lon="1.82032">
        <ele>123</ele>
        <time>2018-06-14T19:28:10Z</time>
      </trkpt>
      <trkpt lat="43.86366" lon="1.82026">
        <ele>123</ele>
        <time>2018-06-14T19:28:11Z</time>
      </trkpt>
      <trkpt lat="43.86364" lon="1.8202">
        <ele>123</ele>
        <time>2018-06-14T19:28:12Z</time>
      </trkpt>
      <trkpt lat="43.86361" lon="1.82014">
        <ele>123</ele>
        <time>2018-06-14T19:28:13Z</time>
      </trkpt>
      <trkpt lat="43.86358" lon="1.82008">
        <ele>123</ele>
        <time>2018-06-14T19:28:14Z</time>
      </trkpt>
      <trkpt lat="43.86356" lon="1.82003">
        <ele>123</ele>
        <time>2018-06-14T19:28:15Z</time>
      </trkpt>
      <trkpt lat="43.86353" lon="1.81997">
        <ele>123</ele>
        <time>2018-06-14T19:28:16Z</time>
      </trkpt>
      <trkpt lat="43.86351" lon="1.81991">
        <ele>123</ele>
        <time>2018-06-14T19:28:17Z</time>
      </trkpt>
      <trkpt lat="43.86349" lon="1.81984">
        <ele>123</ele>
        <time>2018-06-14T19:28:18Z</time>
      </trkpt>
      <trkpt lat="43.86347" lon="1.81978">
        <ele>123</ele>
        <time>2018-06-14T19:28:19Z</time>
      </trkpt>
      <trkpt lat="43.86344" lon="1.81972">
        <ele>123</ele>
        <time>2018-06-14T19:28:20Z</time>
      </trkpt>
      <trkpt lat="43.86342" lon="1.81966">
        <ele>123</ele>
        <time>2018-06-14T19:28:21Z</time>
      </trkpt>
      <trkpt lat="43.8634" lon="1.8196">
        <ele>123</ele>
        <time>2018-06-14T19:28:22Z</time>
      </trkpt>
      <trkpt lat="43.86338" lon="1.81954">
        <ele>124</ele>
        <time>2018-06-14T19:28:23Z</time>
      </trkpt>
      <trkpt lat="43.86336" lon="1.81947">
        <ele>124</ele>
        <time>2018-06-14T19:28:24Z</time>
      </trkpt>
      <trkpt lat="43.86334" lon="1.81941">
        <ele>124</ele>
        <time>2018-06-14T19:28:25Z</time>
      </trkpt>
      <trkpt lat="43.86331" lon="1.81935">
        <ele>124</ele>
        <time>2018-06-14T19:28:26Z</time>
      </trkpt>
      <trkpt lat="43.86329" lon="1.81929">
        <ele>124</ele>
        <time>2018-06-14T19:28:27Z</time>
      </trkpt>
      <trkpt lat="43.86327" lon="1.81923">
        <ele>124</ele>
        <time>2018-06-14T19:28:28Z</time>
      </trkpt>
      <trkpt lat="43.86324" lon="1.81917">
        <ele>124</ele>
        <time>2018-06-14T19:28:29Z</time>
      </trkpt>
      <trkpt lat="43.86322" lon="1.81911">
        <ele>124</ele>
        <time>2018-06-14T19:28:30Z</time>
      </trkpt>
      <trkpt lat="43.8632" lon="1.81905">
        <ele>124</ele>
        <time>2018-06-14T19:28:31Z</time>
      </trkpt>
      <trkpt lat="43.86318" lon="1.81899">
        <ele>124</ele>
        <time>2018-06-14T19:28:32Z</time>
      </trkpt>
      <trkpt lat="43.86316" lon="1.81893">
        <ele>124</ele>
        <time>2018-06-14T19:28:33Z</time>
      </trkpt>
      <trkpt lat="43.86314" lon="1.81886">
        <ele>124</ele>
        <time>2018-06-14T19:28:34Z</time>
      </trkpt>
      <trkpt lat="43.86312" lon="1.81881">
        <ele>124</ele>
        <time>2018-06-14T19:28:35Z</time>
      </trkpt>
      <trkpt lat="43.86309" lon="1.81875">
        <ele>124</ele>
        <time>2018-06-14T19:28:36Z</time>
      </trkpt>
      <trkpt lat="43.86307" lon="1.81869">
        <ele>124</ele>
        <time>2018-06-14T19:28:37Z</time>
      </trkpt>
      <trkpt lat="43.86305" lon="1.81863">
        <ele>124</ele>
        <time>2018-06-14T19:28:38Z</time>
      </trkpt>
      <trkpt lat="43.86303" lon="1.81857">
        <ele>124</ele>
        <time>2018-06-14T19:28:39Z</time>
      </trkpt>
      <trkpt lat="43.86301" lon="1.81851">
        <ele>123</ele>
        <time>2018-06-14T19:28:40Z</time>
      </trkpt>
      <trkpt lat="43.86299" lon="1.81845">
        <ele>123</ele>
        <time>2018-06-14T19:28:41Z</time>
      </trkpt>
      <trkpt lat="43.86297" lon="1.81839">
        <ele>123</ele>
        <time>2018-06-14T19:28:42Z</time>
      </trkpt>
      <trkpt lat="43.86294" lon="1.81834">
        <ele>123</ele>
        <time>2018-06-14T19:28:43Z</time>
      </trkpt>
      <trkpt lat="43.86289" lon="1.81831">
        <ele>124</ele>
        <time>2018-06-14T19:28:44Z</time>
      </trkpt>
      <trkpt lat="43.86284" lon="1.81829">
        <ele>124</ele>
        <time>2018-06-14T19:28:45Z</time>
      </trkpt>
      <trkpt lat="43.86279" lon="1.81828">
        <ele>123</ele>
        <time>2018-06-14T19:28:46Z</time>
      </trkpt>
      <trkpt lat="43.86274" lon="1.81827">
        <ele>123</ele>
        <time>2018-06-14T19:28:47Z</time>
      </trkpt>
      <trkpt lat="43.86269" lon="1.81827">
        <ele>123</ele>
        <time>2018-06-14T19:28:48Z</time>
      </trkpt>
      <trkpt lat="43.86264" lon="1.81825">
        <ele>124</ele>
        <time>2018-06-14T19:28:49Z</time>
      </trkpt>
      <trkpt lat="43.8626" lon="1.81826">
        <ele>124</ele>
        <time>2018-06-14T19:28:50Z</time>
      </trkpt>
      <trkpt lat="43.86255" lon="1.81827">
        <ele>124</ele>
        <time>2018-06-14T19:28:51Z</time>
      </trkpt>
      <trkpt lat="43.86251" lon="1.81828">
        <ele>124</ele>
        <time>2018-06-14T19:28:52Z</time>
      </trkpt>
      <trkpt lat="43.86246" lon="1.81828">
        <ele>124</ele>
        <time>2018-06-14T19:28:53Z</time>
      </trkpt>
      <trkpt lat="43.86241" lon="1.81828">
        <ele>124</ele>
        <time>2018-06-14T19:28:54Z</time>
      </trkpt>
      <trkpt lat="43.86237" lon="1.81827">
        <ele>124</ele>
        <time>2018-06-14T19:28:55Z</time>
      </trkpt>
      <trkpt lat="43.86232" lon="1.81826">
        <ele>124</ele>
        <time>2018-06-14T19:28:56Z</time>
      </trkpt>
      <trkpt lat="43.86228" lon="1.81824">
        <ele>124</ele>
        <time>2018-06-14T19:28:57Z</time>
      </trkpt>
      <trkpt lat="43.86224" lon="1.81822">
        <ele>124</ele>
        <time>2018-06-14T19:28:58Z</time>
      </trkpt>
      <trkpt lat="43.8622" lon="1.81819">
        <ele>124</ele>
        <time>2018-06-14T19:28:59Z</time>
      </trkpt>
      <trkpt lat="43.86215" lon="1.81815">
        <ele>124</ele>
        <time>2018-06-14T19:29:00Z</time>
      </trkpt>
      <trkpt lat="43.86212" lon="1.8181">
        <ele>124</ele>
        <time>2018-06-14T19:29:01Z</time>
      </trkpt>
      <trkpt lat="43.86208" lon="1.81806">
        <ele>124</ele>
        <time>2018-06-14T19:29:02Z</time>
      </trkpt>
      <trkpt lat="43.86205" lon="1.81802">
        <ele>124</ele>
        <time>2018-06-14T19:29:03Z</time>
      </trkpt>
      <trkpt lat="43.86202" lon="1.81797">
        <ele>124</ele>
        <time>2018-06-14T19:29:04Z</time>
      </trkpt>
      <trkpt lat="43.86199" lon="1.81793">
        <ele>124</ele>
        <time>2018-06-14T19:29:05Z</time>
      </trkpt>
      <trkpt lat="43.86195" lon="1.81788">
        <ele>124</ele>
        <time>2018-06-14T19:29:06Z</time>
      </trkpt>
      <trkpt lat="43.86192" lon="1.81783">
        <ele>124</ele>
        <time>2018-06-14T19:29:07Z</time>
      </trkpt>
      <trkpt lat="43.86189" lon="1.81777">
        <ele>124</ele>
        <time>2018-06-14T19:29:08Z</time>
      </trkpt>
      <trkpt lat="43.86186" lon="1.81773">
        <ele>124</ele>
        <time>2018-06-14T19:29:09Z</time>
      </trkpt>
      <trkpt lat="43.86182" lon="1.81767">
        <ele>123</ele>
        <time>2018-06-14T19:29:10Z</time>
      </trkpt>
      <trkpt lat="43.86179" lon="1.81763">
        <ele>123</ele>
        <time>2018-06-14T19:29:11Z</time>
      </trkpt>
      <trkpt lat="43.86176" lon="1.81757">
        <ele>123</ele>
        <time>2018-06-14T19:29:12Z</time>
      </trkpt>
      <trkpt lat="43.86173" lon="1.81752">
        <ele>123</ele>
        <time>2018-06-14T19:29:13Z</time>
      </trkpt>
      <trkpt lat="43.86169" lon="1.81747">
        <ele>123</ele>
        <time>2018-06-14T19:29:14Z</time>
      </trkpt>
      <trkpt lat="43.86166" lon="1.81741">
        <ele>123</ele>
        <time>2018-06-14T19:29:15Z</time>
      </trkpt>
      <trkpt lat="43.86163" lon="1.81736">
        <ele>123</ele>
        <time>2018-06-14T19:29:16Z</time>
      </trkpt>
      <trkpt lat="43.86159" lon="1.8173">
        <ele>123</ele>
        <time>2018-06-14T19:29:17Z</time>
      </trkpt>
      <trkpt lat="43.86156" lon="1.81725">
        <ele>124</ele>
        <time>2018-06-14T19:29:18Z</time>
      </trkpt>
      <trkpt lat="43.86153" lon="1.81719">
        <ele>124</ele>
        <time>2018-06-14T19:29:19Z</time>
      </trkpt>
      <trkpt lat="43.8615" lon="1.81713">
        <ele>124</ele>
        <time>2018-06-14T19:29:20Z</time>
      </trkpt>
      <trkpt lat="43.86146" lon="1.81708">
        <ele>124</ele>
        <time>2018-06-14T19:29:21Z</time>
      </trkpt>
      <trkpt lat="43.86143" lon="1.81702">
        <ele>125</ele>
        <time>2018-06-14T19:29:22Z</time>
      </trkpt>
      <trkpt lat="43.8614" lon="1.81697">
        <ele>124</ele>
        <time>2018-06-14T19:29:23Z</time>
      </trkpt>
      <trkpt lat="43.86137" lon="1.81691">
        <ele>124</ele>
        <time>2018-06-14T19:29:24Z</time>
      </trkpt>
      <trkpt lat="43.86133" lon="1.81685">
        <ele>124</ele>
        <time>2018-06-14T19:29:25Z</time>
      </trkpt>
      <trkpt lat="43.8613" lon="1.8168">
        <ele>124</ele>
        <time>2018-06-14T19:29:26Z</time>
      </trkpt>
      <trkpt lat="43.86126" lon="1.81674">
        <ele>124</ele>
        <time>2018-06-14T19:29:27Z</time>
      </trkpt>
      <trkpt lat="43.86123" lon="1.81669">
        <ele>124</ele>
        <time>2018-06-14T19:29:28Z</time>
      </trkpt>
      <trkpt lat="43.8612" lon="1.81664">
        <ele>124</ele>
        <time>2018-06-14T19:29:29Z</time>
      </trkpt>
      <trkpt lat="43.86116" lon="1.81658">
        <ele>123</ele>
        <time>2018-06-14T19:29:30Z</time>
      </trkpt>
      <trkpt lat="43.86113" lon="1.81653">
        <ele>123</ele>
        <time>2018-06-14T19:29:31Z</time>
      </trkpt>
      <trkpt lat="43.8611" lon="1.81647">
        <ele>124</ele>
        <time>2018-06-14T19:29:32Z</time>
      </trkpt>
      <trkpt lat="43.86107" lon="1.81642">
        <ele>124</ele>
        <time>2018-06-14T19:29:33Z</time>
      </trkpt>
      <trkpt lat="43.86104" lon="1.81637">
        <ele>123</ele>
        <time>2018-06-14T19:29:34Z</time>
      </trkpt>
      <trkpt lat="43.861" lon="1.81632">
        <ele>123</ele>
        <time>2018-06-14T19:29:35Z</time>
      </trkpt>
      <trkpt lat="43.86097" lon="1.81626">
        <ele>123</ele>
        <time>2018-06-14T19:29:36Z</time>
      </trkpt>
      <trkpt lat="43.86094" lon="1.81621">
        <ele>124</ele>
        <time>2018-06-14T19:29:37Z</time>
      </trkpt>
      <trkpt lat="43.86091" lon="1.81615">
        <ele>124</ele>
        <time>2018-06-14T19:29:38Z</time>
      </trkpt>
      <trkpt lat="43.86088" lon="1.8161">
        <ele>124</ele>
        <time>2018-06-14T19:29:39Z</time>
      </trkpt>
      <trkpt lat="43.86084" lon="1.81605">
        <ele>124</ele>
        <time>2018-06-14T19:29:40Z</time>
      </trkpt>
      <trkpt lat="43.86081" lon="1.81599">
        <ele>124</ele>
        <time>2018-06-14T19:29:41Z</time>
      </trkpt>
      <trkpt lat="43.86077" lon="1.81594">
        <ele>124</ele>
        <time>2018-06-14T19:29:42Z</time>
      </trkpt>
      <trkpt lat="43.86074" lon="1.81589">
        <ele>124</ele>
        <time>2018-06-14T19:29:43Z</time>
      </trkpt>
      <trkpt lat="43.86071" lon="1.81583">
        <ele>124</ele>
        <time>2018-06-14T19:29:44Z</time>
      </trkpt>
      <trkpt lat="43.86067" lon="1.81578">
        <ele>124</ele>
        <time>2018-06-14T19:29:45Z</time>
      </trkpt>
      <trkpt lat="43.86063" lon="1.81573">
        <ele>124</ele>
        <time>2018-06-14T19:29:46Z</time>
      </trkpt>
      <trkpt lat="43.86059" lon="1.81568">
        <ele>124</ele>
        <time>2018-06-14T19:29:47Z</time>
      </trkpt>
      <trkpt lat="43.86055" lon="1.81564">
        <ele>124</ele>
        <time>2018-06-14T19:29:48Z</time>
      </trkpt>
      <trkpt lat="43.86051" lon="1.8156">
        <ele>124</ele>
        <time>2018-06-14T19:29:49Z</time>
      </trkpt>
      <trkpt lat="43.86046" lon="1.81556">
        <ele>124</ele>
        <time>2018-06-14T19:29:50Z</time>
      </trkpt>
      <trkpt lat="43.86042" lon="1.81552">
        <ele>124</ele>
        <time>2018-06-14T19:29:51Z</time>
      </trkpt>
      <trkpt lat="43.86037" lon="1.81548">
        <ele>124</ele>
        <time>2018-06-14T19:29:52Z</time>
      </trkpt>
      <trkpt lat="43.86033" lon="1.81544">
        <ele>124</ele>
        <time>2018-06-14T19:29:53Z</time>
      </trkpt>
      <trkpt lat="43.86028" lon="1.81541">
        <ele>124</ele>
        <time>2018-06-14T19:29:54Z</time>
      </trkpt>
      <trkpt lat="43.86024" lon="1.81537">
        <ele>124</ele>
        <time>2018-06-14T19:29:55Z</time>
      </trkpt>
      <trkpt lat="43.86019" lon="1.81535">
        <ele>124</ele>
        <time>2018-06-14T19:29:56Z</time>
      </trkpt>
      <trkpt lat="43.86014" lon="1.81532">
        <ele>124</ele>
        <time>2018-06-14T19:29:57Z</time>
      </trkpt>
      <trkpt lat="43.86009" lon="1.81529">
        <ele>124</ele>
        <time>2018-06-14T19:29:58Z</time>
      </trkpt>
      <trkpt lat="43.86004" lon="1.81526">
        <ele>124</ele>
        <time>2018-06-14T19:29:59Z</time>
      </trkpt>
      <trkpt lat="43.86" lon="1.81523">
        <ele>124</ele>
        <time>2018-06-14T19:30:00Z</time>
      </trkpt>
      <trkpt lat="43.85995" lon="1.8152">
        <ele>124</ele>
        <time>2018-06-14T19:30:01Z</time>
      </trkpt>
      <trkpt lat="43.85991" lon="1.81517">
        <ele>124</ele>
        <time>2018-06-14T19:30:02Z</time>
      </trkpt>
      <trkpt lat="43.85986" lon="1.81514">
        <ele>124</ele>
        <time>2018-06-14T19:30:03Z</time>
      </trkpt>
      <trkpt lat="43.85981" lon="1.81511">
        <ele>124</ele>
        <time>2018-06-14T19:30:04Z</time>
      </trkpt>
      <trkpt lat="43.85976" lon="1.81509">
        <ele>124</ele>
        <time>2018-06-14T19:30:05Z</time>
      </trkpt>
      <trkpt lat="43.85971" lon="1.81505">
        <ele>124</ele>
        <time>2018-06-14T19:30:06Z</time>
      </trkpt>
      <trkpt lat="43.85967" lon="1.81503">
        <ele>124</ele>
        <time>2018-06-14T19:30:07Z</time>
      </trkpt>
      <trkpt lat="43.85962" lon="1.815">
        <ele>124</ele>
        <time>2018-06-14T19:30:08Z</time>
      </trkpt>
      <trkpt lat="43.85957" lon="1.81497">
        <ele>124</ele>
        <time>2018-06-14T19:30:09Z</time>
      </trkpt>
      <trkpt lat="43.85953" lon="1.81495">
        <ele>124</ele>
        <time>2018-06-14T19:30:10Z</time>
      </trkpt>
      <trkpt lat="43.85949" lon="1.81493">
        <ele>124</ele>
        <time>2018-06-14T19:30:11Z</time>
      </trkpt>
      <trkpt lat="43.85945" lon="1.8149">
        <ele>124</ele>
        <time>2018-06-14T19:30:12Z</time>
      </trkpt>
      <trkpt lat="43.85942" lon="1.81487">
        <ele>124</ele>
        <time>2018-06-14T19:30:13Z</time>
      </trkpt>
      <trkpt lat="43.8594" lon="1.81483">
        <ele>124</ele>
        <time>2018-06-14T19:30:14Z</time>
      </trkpt>
      <trkpt lat="43.85939" lon="1.81479">
        <ele>124</ele>
        <time>2018-06-14T19:30:15Z</time>
      </trkpt>
      <trkpt lat="43.85939" lon="1.81476">
        <ele>124</ele>
        <time>2018-06-14T19:30:16Z</time>
      </trkpt>
      <trkpt lat="43.85938" lon="1.81473">
        <ele>124</ele>
        <time>2018-06-14T19:30:17Z</time>
      </trkpt>
      <trkpt lat="43.85938" lon="1.8147">
        <ele>124</ele>
        <time>2018-06-14T19:30:18Z</time>
      </trkpt>
      <trkpt lat="43.85938" lon="1.81467">
        <ele>124</ele>
        <time>2018-06-14T19:30:19Z</time>
      </trkpt>
      <trkpt lat="43.85939" lon="1.81463">
        <ele>124</ele>
        <time>2018-06-14T19:30:20Z</time>
      </trkpt>
      <trkpt lat="43.8594" lon="1.8146">
        <ele>124</ele>
        <time>2018-06-14T19:30:21Z</time>
      </trkpt>
      <trkpt lat="43.85941" lon="1.81456">
        <ele>124</ele>
        <time>2018-06-14T19:30:22Z</time>
      </trkpt>
      <trkpt lat="43.85942" lon="1.81453">
        <ele>124</ele>
        <time>2018-06-14T19:30:23Z</time>
      </trkpt>
      <trkpt lat="43.85943" lon="1.81449">
        <ele>124</ele>
        <time>2018-06-14T19:30:24Z</time>
      </trkpt>
      <trkpt lat="43.85943" lon="1.81445">
        <ele>124</ele>
        <time>2018-06-14T19:30:25Z</time>
      </trkpt>
      <trkpt lat="43.85942" lon="1.81441">
        <ele>124</ele>
        <time>2018-06-14T19:30:26Z</time>
      </trkpt>
      <trkpt lat="43.8594" lon="1.81438">
        <ele>124</ele>
        <time>2018-06-14T19:30:27Z</time>
      </trkpt>
      <trkpt lat="43.85938" lon="1.81437">
        <ele>124</ele>
        <time>2018-06-14T19:30:28Z</time>
      </trkpt>
      <trkpt lat="43.85936" lon="1.81438">
        <ele>124</ele>
        <time>2018-06-14T19:30:29Z</time>
      </trkpt>
      <trkpt lat="43.85933" lon="1.8144">
        <ele>124</ele>
        <time>2018-06-14T19:30:30Z</time>
      </trkpt>
      <trkpt lat="43.8593" lon="1.81443">
        <ele>123</ele>
        <time>2018-06-14T19:30:31Z</time>
      </trkpt>
      <trkpt lat="43.85927" lon="1.81445">
        <ele>123</ele>
        <time>2018-06-14T19:30:32Z</time>
      </trkpt>
      <trkpt lat="43.85924" lon="1.81446">
        <ele>123</ele>
        <time>2018-06-14T19:30:33Z</time>
      </trkpt>
      <trkpt lat="43.85921" lon="1.81445">
        <ele>122</ele>
        <time>2018-06-14T19:30:34Z</time>
      </trkpt>
      <trkpt lat="43.85918" lon="1.81443">
        <ele>122</ele>
        <time>2018-06-14T19:30:35Z</time>
      </trkpt>
      <trkpt lat="43.85914" lon="1.81441">
        <ele>122</ele>
        <time>2018-06-14T19:30:36Z</time>
      </trkpt>
      <trkpt lat="43.8591" lon="1.8144">
        <ele>122</ele>
        <time>2018-06-14T19:30:37Z</time>
      </trkpt>
      <trkpt lat="43.85906" lon="1.8144">
        <ele>122</ele>
        <time>2018-06-14T19:30:38Z</time>
      </trkpt>
      <trkpt lat="43.85902" lon="1.8144">
        <ele>122</ele>
        <time>2018-06-14T19:30:39Z</time>
      </trkpt>
      <trkpt lat="43.85897" lon="1.8144">
        <ele>121</ele>
        <time>2018-06-14T19:30:40Z</time>
      </trkpt>
      <trkpt lat="43.85893" lon="1.81439">
        <ele>121</ele>
        <time>2018-06-14T19:30:41Z</time>
      </trkpt>
      <trkpt lat="43.85885" lon="1.81438">
        <ele>120</ele>
        <time>2018-06-14T19:30:42Z</time>
      </trkpt>
      <trkpt lat="43.85879" lon="1.81436">
        <ele>120</ele>
        <time>2018-06-14T19:30:43Z</time>
      </trkpt>
      <trkpt lat="43.85872" lon="1.81433">
        <ele>119</ele>
        <time>2018-06-14T19:30:44Z</time>
      </trkpt>
      <trkpt lat="43.85866" lon="1.8143">
        <ele>120</ele>
        <time>2018-06-14T19:30:45Z</time>
      </trkpt>
      <trkpt lat="43.85862" lon="1.81427">
        <ele>121</ele>
        <time>2018-06-14T19:30:46Z</time>
      </trkpt>
      <trkpt lat="43.85857" lon="1.81423">
        <ele>122</ele>
        <time>2018-06-14T19:30:47Z</time>
      </trkpt>
      <trkpt lat="43.85853" lon="1.81419">
        <ele>123</ele>
        <time>2018-06-14T19:30:48Z</time>
      </trkpt>
      <trkpt lat="43.8585" lon="1.81414">
        <ele>123</ele>
        <time>2018-06-14T19:30:49Z</time>
      </trkpt>
      <trkpt lat="43.85847" lon="1.81411">
        <ele>124</ele>
        <time>2018-06-14T19:30:50Z</time>
      </trkpt>
      <trkpt lat="43.85846" lon="1.81409">
        <ele>125</ele>
        <time>2018-06-14T19:30:51Z</time>
      </trkpt>
      <trkpt lat="43.85844" lon="1.81407">
        <ele>125</ele>
        <time>2018-06-14T19:30:52Z</time>
      </trkpt>
      <trkpt lat="43.85842" lon="1.81406">
        <ele>125</ele>
        <time>2018-06-14T19:30:53Z</time>
      </trkpt>
      <trkpt lat="43.85841" lon="1.81405">
        <ele>125</ele>
        <time>2018-06-14T19:30:54Z</time>
      </trkpt>
      <trkpt lat="43.85839" lon="1.81403">
        <ele>125</ele>
        <time>2018-06-14T19:30:55Z</time>
      </trkpt>
      <trkpt lat="43.85838" lon="1.81401">
        <ele>125</ele>
        <time>2018-06-14T19:30:56Z</time>
      </trkpt>
      <trkpt lat="43.85837" lon="1.81399">
        <ele>125</ele>
        <time>2018-06-14T19:30:57Z</time>
      </trkpt>
      <trkpt lat="43.85836" lon="1.81397">
        <ele>125</ele>
        <time>2018-06-14T19:30:58Z</time>
      </trkpt>
      <trkpt lat="43.85834" lon="1.81395">
        <ele>125</ele>
        <time>2018-06-14T19:30:59Z</time>
      </trkpt>
      <trkpt lat="43.85833" lon="1.81393">
        <ele>125</ele>
        <time>2018-06-14T19:31:00Z</time>
      </trkpt>
      <trkpt lat="43.85832" lon="1.81391">
        <ele>125</ele>
        <time>2018-06-14T19:31:01Z</time>
      </trkpt>
      <trkpt lat="43.8583" lon="1.81388">
        <ele>125</ele>
        <time>2018-06-14T19:31:02Z</time>
      </trkpt>
      <trkpt lat="43.85829" lon="1.81385">
        <ele>125</ele>
        <time>2018-06-14T19:31:03Z</time>
      </trkpt>
      <trkpt lat="43.85827" lon="1.81382">
        <ele>125</ele>
        <time>2018-06-14T19:31:04Z</time>
      </trkpt>
      <trkpt lat="43.85826" lon="1.81379">
        <ele>125</ele>
        <time>2018-06-14T19:31:05Z</time>
      </trkpt>
      <trkpt lat="43.85824" lon="1.81376">
        <ele>125</ele>
        <time>2018-06-14T19:31:06Z</time>
      </trkpt>
      <trkpt lat="43.85822" lon="1.81373">
        <ele>125</ele>
        <time>2018-06-14T19:31:07Z</time>
      </trkpt>
      <trkpt lat="43.8582" lon="1.8137">
        <ele>125</ele>
        <time>2018-06-14T19:31:08Z</time>
      </trkpt>
      <trkpt lat="43.85818" lon="1.81367">
        <ele>125</ele>
        <time>2018-06-14T19:31:09Z</time>
      </trkpt>
      <trkpt lat="43.85816" lon="1.81363">
        <ele>125</ele>
        <time>2018-06-14T19:31:10Z</time>
      </trkpt>
      <trkpt lat="43.85815" lon="1.8136">
        <ele>125</ele>
        <time>2018-06-14T19:31:11Z</time>
      </trkpt>
      <trkpt lat="43.85813" lon="1.81356">
        <ele>125</ele>
        <time>2018-06-14T19:31:12Z</time>
      </trkpt>
      <trkpt lat="43.85812" lon="1.81353">
        <ele>125</ele>
        <time>2018-06-14T19:31:13Z</time>
      </trkpt>
      <trkpt lat="43.8581" lon="1.8135">
        <ele>125</ele>
        <time>2018-06-14T19:31:14Z</time>
      </trkpt>
      <trkpt lat="43.85808" lon="1.81347">
        <ele>125</ele>
        <time>2018-06-14T19:31:15Z</time>
      </trkpt>
      <trkpt lat="43.85807" lon="1.81344">
        <ele>125</ele>
        <time>2018-06-14T19:31:16Z</time>
      </trkpt>
      <trkpt lat="43.85805" lon="1.81342">
        <ele>124</ele>
        <time>2018-06-14T19:31:17Z</time>
      </trkpt>
      <trkpt lat="43.85804" lon="1.81339">
        <ele>124</ele>
        <time>2018-06-14T19:31:18Z</time>
      </trkpt>
      <trkpt lat="43.85802" lon="1.81336">
        <ele>124</ele>
        <time>2018-06-14T19:31:19Z</time>
      </trkpt>
      <trkpt lat="43.85801" lon="1.81333">
        <ele>125</ele>
        <time>2018-06-14T19:31:20Z</time>
      </trkpt>
      <trkpt lat="43.85799" lon="1.81329">
        <ele>125</ele>
        <time>2018-06-14T19:31:21Z</time>
      </trkpt>
      <trkpt lat="43.85797" lon="1.81326">
        <ele>125</ele>
        <time>2018-06-14T19:31:22Z</time>
      </trkpt>
      <trkpt lat="43.85795" lon="1.81322">
        <ele>125</ele>
        <time>2018-06-14T19:31:23Z</time>
      </trkpt>
      <trkpt lat="43.85792" lon="1.81318">
        <ele>125</ele>
        <time>2018-06-14T19:31:24Z</time>
      </trkpt>
      <trkpt lat="43.8579" lon="1.81315">
        <ele>125</ele>
        <time>2018-06-14T19:31:25Z</time>
      </trkpt>
      <trkpt lat="43.85788" lon="1.81311">
        <ele>125</ele>
        <time>2018-06-14T19:31:26Z</time>
      </trkpt>
      <trkpt lat="43.85786" lon="1.81307">
        <ele>125</ele>
        <time>2018-06-14T19:31:27Z</time>
      </trkpt>
      <trkpt lat="43.85783" lon="1.81305">
        <ele>125</ele>
        <time>2018-06-14T19:31:28Z</time>
      </trkpt>
      <trkpt lat="43.85781" lon="1.81302">
        <ele>125</ele>
        <time>2018-06-14T19:31:29Z</time>
      </trkpt>
      <trkpt lat="43.85779" lon="1.813">
        <ele>125</ele>
        <time>2018-06-14T19:31:30Z</time>
      </trkpt>
      <trkpt lat="43.85777" lon="1.81298">
        <ele>125</ele>
        <time>2018-06-14T19:31:31Z</time>
      </trkpt>
      <trkpt lat="43.85776" lon="1.81296">
        <ele>125</ele>
        <time>2018-06-14T19:31:32Z</time>
      </trkpt>
      <trkpt lat="43.85774" lon="1.81295">
        <ele>124</ele>
        <time>2018-06-14T19:31:33Z</time>
      </trkpt>
      <trkpt lat="43.85773" lon="1.81293">
        <ele>124</ele>
        <time>2018-06-14T19:31:34Z</time>
      </trkpt>
      <trkpt lat="43.85771" lon="1.81291">
        <ele>124</ele>
        <time>2018-06-14T19:31:35Z</time>
      </trkpt>
      <trkpt lat="43.85769" lon="1.81291">
        <ele>124</ele>
        <time>2018-06-14T19:31:36Z</time>
      </trkpt>
      <trkpt lat="43.85768" lon="1.81292">
        <ele>124</ele>
        <time>2018-06-14T19:31:37Z</time>
      </trkpt>
      <trkpt lat="43.85766" lon="1.81293">
        <ele>124</ele>
        <time>2018-06-14T19:31:38Z</time>
      </trkpt>
      <trkpt lat="43.85764" lon="1.81295">
        <ele>124</ele>
        <time>2018-06-14T19:31:39Z</time>
      </trkpt>
      <trkpt lat="43.85761" lon="1.81296">
        <ele>124</ele>
        <time>2018-06-14T19:31:40Z</time>
      </trkpt>
      <trkpt lat="43.85758" lon="1.81298">
        <ele>124</ele>
        <time>2018-06-14T19:31:41Z</time>
      </trkpt>
      <trkpt lat="43.85756" lon="1.81299">
        <ele>124</ele>
        <time>2018-06-14T19:31:42Z</time>
      </trkpt>
      <trkpt lat="43.85753" lon="1.81299">
        <ele>124</ele>
        <time>2018-06-14T19:31:43Z</time>
      </trkpt>
      <trkpt lat="43.85751" lon="1.81297">
        <ele>124</ele>
        <time>2018-06-14T19:31:44Z</time>
      </trkpt>
      <trkpt lat="43.8575" lon="1.81294">
        <ele>124</ele>
        <time>2018-06-14T19:31:45Z</time>
      </trkpt>
      <trkpt lat="43.85749" lon="1.81291">
        <ele>124</ele>
        <time>2018-06-14T19:31:46Z</time>
      </trkpt>
      <trkpt lat="43.85748" lon="1.81288">
        <ele>124</ele>
        <time>2018-06-14T19:31:47Z</time>
      </trkpt>
      <trkpt lat="43.85747" lon="1.81285">
        <ele>125</ele>
        <time>2018-06-14T19:31:48Z</time>
      </trkpt>
      <trkpt lat="43.85746" lon="1.81282">
        <ele>125</ele>
        <time>2018-06-14T19:31:49Z</time>
      </trkpt>
      <trkpt lat="43.85746" lon="1.81278">
        <ele>125</ele>
        <time>2018-06-14T19:31:50Z</time>
      </trkpt>
      <trkpt lat="43.85745" lon="1.81275">
        <ele>125</ele>
        <time>2018-06-14T19:31:51Z</time>
      </trkpt>
      <trkpt lat="43.85744" lon="1.81271">
        <ele>125</ele>
        <time>2018-06-14T19:31:52Z</time>
      </trkpt>
      <trkpt lat="43.85743" lon="1.81268">
        <ele>125</ele>
        <time>2018-06-14T19:31:53Z</time>
      </trkpt>
      <trkpt lat="43.85742" lon="1.81264">
        <ele>125</ele>
        <time>2018-06-14T19:31:54Z</time>
      </trkpt>
      <trkpt lat="43.85741" lon="1.8126">
        <ele>125</ele>
        <time>2018-06-14T19:31:55Z</time>
      </trkpt>
      <trkpt lat="43.85742" lon="1.81256">
        <ele>124</ele>
        <time>2018-06-14T19:31:56Z</time>
      </trkpt>
      <trkpt lat="43.85742" lon="1.81252">
        <ele>124</ele>
        <time>2018-06-14T19:31:57Z</time>
      </trkpt>
      <trkpt lat="43.85741" lon="1.81248">
        <ele>125</ele>
        <time>2018-06-14T19:31:58Z</time>
      </trkpt>
      <trkpt lat="43.8574" lon="1.81243">
        <ele>125</ele>
        <time>2018-06-14T19:31:59Z</time>
      </trkpt>
      <trkpt lat="43.85739" lon="1.81238">
        <ele>125</ele>
        <time>2018-06-14T19:32:00Z</time>
      </trkpt>
      <trkpt lat="43.85737" lon="1.81233">
        <ele>124</ele>
        <time>2018-06-14T19:32:01Z</time>
      </trkpt>
      <trkpt lat="43.85735" lon="1.81229">
        <ele>124</ele>
        <time>2018-06-14T19:32:02Z</time>
      </trkpt>
      <trkpt lat="43.85733" lon="1.81225">
        <ele>124</ele>
        <time>2018-06-14T19:32:03Z</time>
      </trkpt>
      <trkpt lat="43.85732" lon="1.8122">
        <ele>124</ele>
        <time>2018-06-14T19:32:04Z</time>
      </trkpt>
      <trkpt lat="43.8573" lon="1.81216">
        <ele>124</ele>
        <time>2018-06-14T19:32:05Z</time>
      </trkpt>
      <trkpt lat="43.85729" lon="1.81212">
        <ele>125</ele>
        <time>2018-06-14T19:32:06Z</time>
      </trkpt>
      <trkpt lat="43.85728" lon="1.81208">
        <ele>125</ele>
        <time>2018-06-14T19:32:07Z</time>
      </trkpt>
      <trkpt lat="43.85728" lon="1.81203">
        <ele>125</ele>
        <time>2018-06-14T19:32:08Z</time>
      </trkpt>
      <trkpt lat="43.8573" lon="1.81199">
        <ele>124</ele>
        <time>2018-06-14T19:32:09Z</time>
      </trkpt>
      <trkpt lat="43.85732" lon="1.81195">
        <ele>124</ele>
        <time>2018-06-14T19:32:10Z</time>
      </trkpt>
      <trkpt lat="43.85734" lon="1.81191">
        <ele>125</ele>
        <time>2018-06-14T19:32:11Z</time>
      </trkpt>
      <trkpt lat="43.85736" lon="1.81186">
        <ele>125</ele>
        <time>2018-06-14T19:32:12Z</time>
      </trkpt>
      <trkpt lat="43.85737" lon="1.81182">
        <ele>125</ele>
        <time>2018-06-14T19:32:13Z</time>
      </trkpt>
      <trkpt lat="43.85738" lon="1.81178">
        <ele>125</ele>
        <time>2018-06-14T19:32:14Z</time>
      </trkpt>
      <trkpt lat="43.85739" lon="1.81174">
        <ele>125</ele>
        <time>2018-06-14T19:32:15Z</time>
      </trkpt>
      <trkpt lat="43.8574" lon="1.81171">
        <ele>125</ele>
        <time>2018-06-14T19:32:16Z</time>
      </trkpt>
      <trkpt lat="43.85741" lon="1.81168">
        <ele>125</ele>
        <time>2018-06-14T19:32:17Z</time>
      </trkpt>
      <trkpt lat="43.85743" lon="1.81165">
        <ele>125</ele>
        <time>2018-06-14T19:32:18Z</time>
      </trkpt>
      <trkpt lat="43.85744" lon="1.81162">
        <ele>125</ele>
        <time>2018-06-14T19:32:19Z</time>
      </trkpt>
      <trkpt lat="43.85746" lon="1.8116">
        <ele>125</ele>
        <time>2018-06-14T19:32:20Z</time>
      </trkpt>
      <trkpt lat="43.85748" lon="1.81159">
        <ele>125</ele>
        <time>2018-06-14T19:32:21Z</time>
      </trkpt>
      <trkpt lat="43.85751" lon="1.81159">
        <ele>125</ele>
        <time>2018-06-14T19:32:22Z</time>
      </trkpt>
      <trkpt lat="43.85754" lon="1.8116">
        <ele>125</ele>
        <time>2018-06-14T19:32:23Z</time>
      </trkpt>
      <trkpt lat="43.85758" lon="1.81162">
        <ele>125</ele>
        <time>2018-06-14T19:32:24Z</time>
      </trkpt>
      <trkpt lat="43.85761" lon="1.81164">
        <ele>125</ele>
        <time>2018-06-14T19:32:25Z</time>
      </trkpt>
      <trkpt lat="43.85766" lon="1.81165">
        <ele>125</ele>
        <time>2018-06-14T19:32:26Z</time>
      </trkpt>
      <trkpt lat="43.8577" lon="1.81166">
        <ele>125</ele>
        <time>2018-06-14T19:32:27Z</time>
      </trkpt>
      <trkpt lat="43.85774" lon="1.81168">
        <ele>125</ele>
        <time>2018-06-14T19:32:28Z</time>
      </trkpt>
      <trkpt lat="43.85777" lon="1.81169">
        <ele>125</ele>
        <time>2018-06-14T19:32:29Z</time>
      </trkpt>
      <trkpt lat="43.85781" lon="1.8117">
        <ele>125</ele>
        <time>2018-06-14T19:32:30Z</time>
      </trkpt>
      <trkpt lat="43.85785" lon="1.81172">
        <ele>125</ele>
        <time>2018-06-14T19:32:31Z</time>
      </trkpt>
      <trkpt lat="43.85789" lon="1.81173">
        <ele>125</ele>
        <time>2018-06-14T19:32:32Z</time>
      </trkpt>
      <trkpt lat="43.85792" lon="1.81175">
        <ele>125</ele>
        <time>2018-06-14T19:32:33Z</time>
      </trkpt>
      <trkpt lat="43.85796" lon="1.81177">
        <ele>125</ele>
        <time>2018-06-14T19:32:34Z</time>
      </trkpt>
      <trkpt lat="43.858" lon="1.81178">
        <ele>125</ele>
        <time>2018-06-14T19:32:35Z</time>
      </trkpt>
      <trkpt lat="43.85804" lon="1.81179">
        <ele>125</ele>
        <time>2018-06-14T19:32:36Z</time>
      </trkpt>
      <trkpt lat="43.85807" lon="1.81181">
        <ele>125</ele>
        <time>2018-06-14T19:32:37Z</time>
      </trkpt>
      <trkpt lat="43.85811" lon="1.81182">
        <ele>125</ele>
        <time>2018-06-14T19:32:38Z</time>
      </trkpt>
      <trkpt lat="43.85814" lon="1.81183">
        <ele>125</ele>
        <time>2018-06-14T19:32:39Z</time>
      </trkpt>
      <trkpt lat="43.85818" lon="1.81184">
        <ele>125</ele>
        <time>2018-06-14T19:32:40Z</time>
      </trkpt>
      <trkpt lat="43.85822" lon="1.81186">
        <ele>125</ele>
        <time>2018-06-14T19:32:41Z</time>
      </trkpt>
      <trkpt lat="43.85825" lon="1.81188">
        <ele>125</ele>
        <time>2018-06-14T19:32:42Z</time>
      </trkpt>
      <trkpt lat="43.85828" lon="1.8119">
        <ele>125</ele>
        <time>2018-06-14T19:32:43Z</time>
      </trkpt>
      <trkpt lat="43.85831" lon="1.81191">
        <ele>125</ele>
        <time>2018-06-14T19:32:44Z</time>
      </trkpt>
      <trkpt lat="43.85834" lon="1.81192">
        <ele>125</ele>
        <time>2018-06-14T19:32:45Z</time>
      </trkpt>
      <trkpt lat="43.85837" lon="1.81191">
        <ele>125</ele>
        <time>2018-06-14T19:32:46Z</time>
      </trkpt>
      <trkpt lat="43.8584" lon="1.81189">
        <ele>125</ele>
        <time>2018-06-14T19:32:47Z</time>
      </trkpt>
      <trkpt lat="43.85843" lon="1.81187">
        <ele>125</ele>
        <time>2018-06-14T19:32:48Z</time>
      </trkpt>
      <trkpt lat="43.85846" lon="1.81184">
        <ele>125</ele>
        <time>2018-06-14T19:32:49Z</time>
      </trkpt>
      <trkpt lat="43.85849" lon="1.8118">
        <ele>125</ele>
        <time>2018-06-14T19:32:50Z</time>
      </trkpt>
      <trkpt lat="43.85852" lon="1.81177">
        <ele>125</ele>
        <time>2018-06-14T19:32:51Z</time>
      </trkpt>
      <trkpt lat="43.85855" lon="1.81173">
        <ele>125</ele>
        <time>2018-06-14T19:32:52Z</time>
      </trkpt>
      <trkpt lat="43.85858" lon="1.8117">
        <ele>125</ele>
        <time>2018-06-14T19:32:53Z</time>
      </trkpt>
      <trkpt lat="43.85861" lon="1.81166">
        <ele>125</ele>
        <time>2018-06-14T19:32:54Z</time>
      </trkpt>
      <trkpt lat="43.85865" lon="1.81163">
        <ele>125</ele>
        <time>2018-06-14T19:32:55Z</time>
      </trkpt>
      <trkpt lat="43.85868" lon="1.81159">
        <ele>125</ele>
        <time>2018-06-14T19:32:56Z</time>
      </trkpt>
      <trkpt lat="43.85871" lon="1.81156">
        <ele>125</ele>
        <time>2018-06-14T19:32:57Z</time>
      </trkpt>
      <trkpt lat="43.85875" lon="1.81153">
        <ele>125</ele>
        <time>2018-06-14T19:32:58Z</time>
      </trkpt>
      <trkpt lat="43.85878" lon="1.8115">
        <ele>125</ele>
        <time>2018-06-14T19:32:59Z</time>
      </trkpt>
      <trkpt lat="43.85881" lon="1.81146">
        <ele>125</ele>
        <time>2018-06-14T19:33:00Z</time>
      </trkpt>
      <trkpt lat="43.85884" lon="1.81143">
        <ele>125</ele>
        <time>2018-06-14T19:33:01Z</time>
      </trkpt>
      <trkpt lat="43.85887" lon="1.8114">
        <ele>125</ele>
        <time>2018-06-14T19:33:02Z</time>
      </trkpt>
      <trkpt lat="43.85891" lon="1.81137">
        <ele>125</ele>
        <time>2018-06-14T19:33:03Z</time>
      </trkpt>
      <trkpt lat="43.85894" lon="1.81134">
        <ele>125</ele>
        <time>2018-06-14T19:33:04Z</time>
      </trkpt>
      <trkpt lat="43.85897" lon="1.8113">
        <ele>125</ele>
        <time>2018-06-14T19:33:05Z</time>
      </trkpt>
      <trkpt lat="43.85901" lon="1.81127">
        <ele>125</ele>
        <time>2018-06-14T19:33:06Z</time>
      </trkpt>
      <trkpt lat="43.85904" lon="1.81123">
        <ele>125</ele>
        <time>2018-06-14T19:33:07Z</time>
      </trkpt>
      <trkpt lat="43.85907" lon="1.8112">
        <ele>125</ele>
        <time>2018-06-14T19:33:08Z</time>
      </trkpt>
      <trkpt lat="43.85911" lon="1.81116">
        <ele>124</ele>
        <time>2018-06-14T19:33:09Z</time>
      </trkpt>
      <trkpt lat="43.85914" lon="1.81113">
        <ele>125</ele>
        <time>2018-06-14T19:33:10Z</time>
      </trkpt>
      <trkpt lat="43.85918" lon="1.81109">
        <ele>124</ele>
        <time>2018-06-14T19:33:11Z</time>
      </trkpt>
      <trkpt lat="43.85921" lon="1.81106">
        <ele>124</ele>
        <time>2018-06-14T19:33:12Z</time>
      </trkpt>
      <trkpt lat="43.85924" lon="1.81103">
        <ele>124</ele>
        <time>2018-06-14T19:33:13Z</time>
      </trkpt>
      <trkpt lat="43.85928" lon="1.81099">
        <ele>124</ele>
        <time>2018-06-14T19:33:14Z</time>
      </trkpt>
      <trkpt lat="43.85931" lon="1.81096">
        <ele>124</ele>
        <time>2018-06-14T19:33:15Z</time>
      </trkpt>
      <trkpt lat="43.85934" lon="1.81093">
        <ele>125</ele>
        <time>2018-06-14T19:33:16Z</time>
      </trkpt>
      <trkpt lat="43.85937" lon="1.81089">
        <ele>125</ele>
        <time>2018-06-14T19:33:17Z</time>
      </trkpt>
      <trkpt lat="43.8594" lon="1.81086">
        <ele>125</ele>
        <time>2018-06-14T19:33:18Z</time>
      </trkpt>
      <trkpt lat="43.85944" lon="1.81083">
        <ele>125</ele>
        <time>2018-06-14T19:33:19Z</time>
      </trkpt>
      <trkpt lat="43.85946" lon="1.8108">
        <ele>125</ele>
        <time>2018-06-14T19:33:20Z</time>
      </trkpt>
      <trkpt lat="43.85949" lon="1.81077">
        <ele>125</ele>
        <time>2018-06-14T19:33:21Z</time>
      </trkpt>
      <trkpt lat="43.85951" lon="1.81074">
        <ele>125</ele>
        <time>2018-06-14T19:33:22Z</time>
      </trkpt>
      <trkpt lat="43.85952" lon="1.8107">
        <ele>125</ele>
        <time>2018-06-14T19:33:23Z</time>
      </trkpt>
      <trkpt lat="43.85951" lon="1.81067">
        <ele>125</ele>
        <time>2018-06-14T19:33:24Z</time>
      </trkpt>
      <trkpt lat="43.8595" lon="1.81065">
        <ele>125</ele>
        <time>2018-06-14T19:33:25Z</time>
      </trkpt>
      <trkpt lat="43.85949" lon="1.81063">
        <ele>125</ele>
        <time>2018-06-14T19:33:26Z</time>
      </trkpt>
      <trkpt lat="43.85948" lon="1.81062">
        <ele>125</ele>
        <time>2018-06-14T19:33:27Z</time>
      </trkpt>
      <trkpt lat="43.85947" lon="1.8106">
        <ele>125</ele>
        <time>2018-06-14T19:33:28Z</time>
      </trkpt>
      <trkpt lat="43.85945" lon="1.81059">
        <ele>125</ele>
        <time>2018-06-14T19:33:29Z</time>
      </trkpt>
      <trkpt lat="43.85944" lon="1.81056">
        <ele>125</ele>
        <time>2018-06-14T19:33:30Z</time>
      </trkpt>
      <trkpt lat="43.85943" lon="1.81053">
        <ele>125</ele>
        <time>2018-06-14T19:33:31Z</time>
      </trkpt>
      <trkpt lat="43.85941" lon="1.81049">
        <ele>125</ele>
        <time>2018-06-14T19:33:32Z</time>
      </trkpt>
      <trkpt lat="43.85939" lon="1.81045">
        <ele>125</ele>
        <time>2018-06-14T19:33:33Z</time>
      </trkpt>
      <trkpt lat="43.85938" lon="1.8104">
        <ele>125</ele>
        <time>2018-06-14T19:33:34Z</time>
      </trkpt>
      <trkpt lat="43.85935" lon="1.81035">
        <ele>125</ele>
        <time>2018-06-14T19:33:35Z</time>
      </trkpt>
      <trkpt lat="43.85932" lon="1.81031">
        <ele>125</ele>
        <time>2018-06-14T19:33:36Z</time>
      </trkpt>
      <trkpt lat="43.85929" lon="1.81027">
        <ele>125</ele>
        <time>2018-06-14T19:33:37Z</time>
      </trkpt>
      <trkpt lat="43.85925" lon="1.81023">
        <ele>125</ele>
        <time>2018-06-14T19:33:38Z</time>
      </trkpt>
      <trkpt lat="43.85921" lon="1.8102">
        <ele>125</ele>
        <time>2018-06-14T19:33:39Z</time>
      </trkpt>
      <trkpt lat="43.85917" lon="1.81016">
        <ele>125</ele>
        <time>2018-06-14T19:33:40Z</time>
      </trkpt>
      <trkpt lat="43.85913" lon="1.81013">
        <ele>124</ele>
        <time>2018-06-14T19:33:41Z</time>
      </trkpt>
      <trkpt lat="43.85909" lon="1.8101">
        <ele>124</ele>
        <time>2018-06-14T19:33:42Z</time>
      </trkpt>
      <trkpt lat="43.85904" lon="1.81007">
        <ele>124</ele>
        <time>2018-06-14T19:33:43Z</time>
      </trkpt>
      <trkpt lat="43.859" lon="1.81003">
        <ele>124</ele>
        <time>2018-06-14T19:33:44Z</time>
      </trkpt>
      <trkpt lat="43.85895" lon="1.81">
        <ele>124</ele>
        <time>2018-06-14T19:33:45Z</time>
      </trkpt>
      <trkpt lat="43.85891" lon="1.80997">
        <ele>124</ele>
        <time>2018-06-14T19:33:46Z</time>
      </trkpt>
      <trkpt lat="43.85886" lon="1.80993">
        <ele>124</ele>
        <time>2018-06-14T19:33:47Z</time>
      </trkpt>
      <trkpt lat="43.85881" lon="1.8099">
        <ele>124</ele>
        <time>2018-06-14T19:33:48Z</time>
      </trkpt>
      <trkpt lat="43.85876" lon="1.80987">
        <ele>124</ele>
        <time>2018-06-14T19:33:49Z</time>
      </trkpt>
      <trkpt lat="43.85871" lon="1.80983">
        <ele>124</ele>
        <time>2018-06-14T19:33:50Z</time>
      </trkpt>
      <trkpt lat="43.85867" lon="1.80979">
        <ele>124</ele>
        <time>2018-06-14T19:33:51Z</time>
      </trkpt>
      <trkpt lat="43.85862" lon="1.80976">
        <ele>124</ele>
        <time>2018-06-14T19:33:52Z</time>
      </trkpt>
      <trkpt lat="43.85857" lon="1.80973">
        <ele>124</ele>
        <time>2018-06-14T19:33:53Z</time>
      </trkpt>
      <trkpt lat="43.85852" lon="1.8097">
        <ele>124</ele>
        <time>2018-06-14T19:33:54Z</time>
      </trkpt>
      <trkpt lat="43.85847" lon="1.80967">
        <ele>124</ele>
        <time>2018-06-14T19:33:55Z</time>
      </trkpt>
      <trkpt lat="43.85843" lon="1.80964">
        <ele>124</ele>
        <time>2018-06-14T19:33:56Z</time>
      </trkpt>
      <trkpt lat="43.85838" lon="1.8096">
        <ele>124</ele>
        <time>2018-06-14T19:33:57Z</time>
      </trkpt>
      <trkpt lat="43.85833" lon="1.80957">
        <ele>124</ele>
        <time>2018-06-14T19:33:58Z</time>
      </trkpt>
      <trkpt lat="43.85829" lon="1.80954">
        <ele>124</ele>
        <time>2018-06-14T19:33:59Z</time>
      </trkpt>
      <trkpt lat="43.85824" lon="1.80951">
        <ele>124</ele>
        <time>2018-06-14T19:34:00Z</time>
      </trkpt>
      <trkpt lat="43.85819" lon="1.80948">
        <ele>124</ele>
        <time>2018-06-14T19:34:01Z</time>
      </trkpt>
      <trkpt lat="43.85813" lon="1.80945">
        <ele>124</ele>
        <time>2018-06-14T19:34:02Z</time>
      </trkpt>
      <trkpt lat="43.85808" lon="1.80943">
        <ele>124</ele>
        <time>2018-06-14T19:34:03Z</time>
      </trkpt>
      <trkpt lat="43.85803" lon="1.8094">
        <ele>124</ele>
        <time>2018-06-14T19:34:04Z</time>
      </trkpt>
      <trkpt lat="43.85798" lon="1.80938">
        <ele>124</ele>
        <time>2018-06-14T19:34:05Z</time>
      </trkpt>
      <trkpt lat="43.85793" lon="1.80936">
        <ele>124</ele>
        <time>2018-06-14T19:34:06Z</time>
      </trkpt>
      <trkpt lat="43.85787" lon="1.80933">
        <ele>124</ele>
        <time>2018-06-14T19:34:07Z</time>
      </trkpt>
      <trkpt lat="43.85782" lon="1.80931">
        <ele>124</ele>
        <time>2018-06-14T19:34:08Z</time>
      </trkpt>
      <trkpt lat="43.85776" lon="1.8093">
        <ele>124</ele>
        <time>2018-06-14T19:34:09Z</time>
      </trkpt>
      <trkpt lat="43.85771" lon="1.80928">
        <ele>124</ele>
        <time>2018-06-14T19:34:10Z</time>
      </trkpt>
      <trkpt lat="43.85765" lon="1.80927">
        <ele>124</ele>
        <time>2018-06-14T19:34:11Z</time>
      </trkpt>
      <trkpt lat="43.8576" lon="1.80925">
        <ele>124</ele>
        <time>2018-06-14T19:34:12Z</time>
      </trkpt>
      <trkpt lat="43.85754" lon="1.80924">
        <ele>124</ele>
        <time>2018-06-14T19:34:13Z</time>
      </trkpt>
      <trkpt lat="43.85749" lon="1.80923">
        <ele>124</ele>
        <time>2018-06-14T19:34:14Z</time>
      </trkpt>
      <trkpt lat="43.85743" lon="1.80921">
        <ele>124</ele>
        <time>2018-06-14T19:34:15Z</time>
      </trkpt>
      <trkpt lat="43.85738" lon="1.8092">
        <ele>124</ele>
        <time>2018-06-14T19:34:16Z</time>
      </trkpt>
      <trkpt lat="43.85733" lon="1.80919">
        <ele>124</ele>
        <time>2018-06-14T19:34:17Z</time>
      </trkpt>
      <trkpt lat="43.85727" lon="1.80918">
        <ele>124</ele>
        <time>2018-06-14T19:34:18Z</time>
      </trkpt>
      <trkpt lat="43.85722" lon="1.80917">
        <ele>124</ele>
        <time>2018-06-14T19:34:19Z</time>
      </trkpt>
      <trkpt lat="43.85717" lon="1.80915">
        <ele>124</ele>
        <time>2018-06-14T19:34:20Z</time>
      </trkpt>
      <trkpt lat="43.85711" lon="1.80914">
        <ele>124</ele>
        <time>2018-06-14T19:34:21Z</time>
      </trkpt>
      <trkpt lat="43.85706" lon="1.80912">
        <ele>124</ele>
        <time>2018-06-14T19:34:22Z</time>
      </trkpt>
      <trkpt lat="43.85701" lon="1.8091">
        <ele>124</ele>
        <time>2018-06-14T19:34:23Z</time>
      </trkpt>
      <trkpt lat="43.85697" lon="1.80907">
        <ele>124</ele>
        <time>2018-06-14T19:34:24Z</time>
      </trkpt>
      <trkpt lat="43.85692" lon="1.80903">
        <ele>124</ele>
        <time>2018-06-14T19:34:25Z</time>
      </trkpt>
      <trkpt lat="43.85687" lon="1.809">
        <ele>124</ele>
        <time>2018-06-14T19:34:26Z</time>
      </trkpt>
      <trkpt lat="43.85682" lon="1.80897">
        <ele>124</ele>
        <time>2018-06-14T19:34:27Z</time>
      </trkpt>
      <trkpt lat="43.85677" lon="1.80893">
        <ele>124</ele>
        <time>2018-06-14T19:34:28Z</time>
      </trkpt>
      <trkpt lat="43.85673" lon="1.8089">
        <ele>124</ele>
        <time>2018-06-14T19:34:29Z</time>
      </trkpt>
      <trkpt lat="43.85668" lon="1.80886">
        <ele>124</ele>
        <time>2018-06-14T19:34:30Z</time>
      </trkpt>
      <trkpt lat="43.85664" lon="1.80882">
        <ele>125</ele>
        <time>2018-06-14T19:34:31Z</time>
      </trkpt>
      <trkpt lat="43.85659" lon="1.80879">
        <ele>125</ele>
        <time>2018-06-14T19:34:32Z</time>
      </trkpt>
      <trkpt lat="43.85654" lon="1.80875">
        <ele>125</ele>
        <time>2018-06-14T19:34:33Z</time>
      </trkpt>
      <trkpt lat="43.8565" lon="1.80871">
        <ele>125</ele>
        <time>2018-06-14T19:34:34Z</time>
      </trkpt>
      <trkpt lat="43.85646" lon="1.80868">
        <ele>125</ele>
        <time>2018-06-14T19:34:35Z</time>
      </trkpt>
      <trkpt lat="43.85641" lon="1.80863">
        <ele>125</ele>
        <time>2018-06-14T19:34:36Z</time>
      </trkpt>
      <trkpt lat="43.85637" lon="1.80859">
        <ele>125</ele>
        <time>2018-06-14T19:34:37Z</time>
      </trkpt>
      <trkpt lat="43.85633" lon="1.80854">
        <ele>125</ele>
        <time>2018-06-14T19:34:38Z</time>
      </trkpt>
      <trkpt lat="43.85629" lon="1.80849">
        <ele>125</ele>
        <time>2018-06-14T19:34:39Z</time>
      </trkpt>
      <trkpt lat="43.85625" lon="1.80843">
        <ele>125</ele>
        <time>2018-06-14T19:34:40Z</time>
      </trkpt>
      <trkpt lat="43.85621" lon="1.80838">
        <ele>125</ele>
        <time>2018-06-14T19:34:41Z</time>
      </trkpt>
      <trkpt lat="43.85617" lon="1.80832">
        <ele>125</ele>
        <time>2018-06-14T19:34:42Z</time>
      </trkpt>
      <trkpt lat="43.85614" lon="1.80826">
        <ele>125</ele>
        <time>2018-06-14T19:34:43Z</time>
      </trkpt>
      <trkpt lat="43.8561" lon="1.8082">
        <ele>125</ele>
        <time>2018-06-14T19:34:44Z</time>
      </trkpt>
      <trkpt lat="43.85606" lon="1.80814">
        <ele>125</ele>
        <time>2018-06-14T19:34:45Z</time>
      </trkpt>
      <trkpt lat="43.85602" lon="1.80807">
        <ele>125</ele>
        <time>2018-06-14T19:34:46Z</time>
      </trkpt>
      <trkpt lat="43.85598" lon="1.80801">
        <ele>125</ele>
        <time>2018-06-14T19:34:47Z</time>
      </trkpt>
      <trkpt lat="43.85594" lon="1.80795">
        <ele>125</ele>
        <time>2018-06-14T19:34:48Z</time>
      </trkpt>
      <trkpt lat="43.8559" lon="1.8079">
        <ele>125</ele>
        <time>2018-06-14T19:34:49Z</time>
      </trkpt>
      <trkpt lat="43.85586" lon="1.80784">
        <ele>125</ele>
        <time>2018-06-14T19:34:50Z</time>
      </trkpt>
      <trkpt lat="43.85581" lon="1.8078">
        <ele>125</ele>
        <time>2018-06-14T19:34:51Z</time>
      </trkpt>
      <trkpt lat="43.85576" lon="1.80775">
        <ele>125</ele>
        <time>2018-06-14T19:34:52Z</time>
      </trkpt>
      <trkpt lat="43.85572" lon="1.8077">
        <ele>125</ele>
        <time>2018-06-14T19:34:53Z</time>
      </trkpt>
      <trkpt lat="43.85567" lon="1.80766">
        <ele>125</ele>
        <time>2018-06-14T19:34:54Z</time>
      </trkpt>
      <trkpt lat="43.85562" lon="1.80761">
        <ele>125</ele>
        <time>2018-06-14T19:34:55Z</time>
      </trkpt>
      <trkpt lat="43.85558" lon="1.80756">
        <ele>125</ele>
        <time>2018-06-14T19:34:56Z</time>
      </trkpt>
      <trkpt lat="43.85553" lon="1.80751">
        <ele>125</ele>
        <time>2018-06-14T19:34:57Z</time>
      </trkpt>
      <trkpt lat="43.85548" lon="1.80746">
        <ele>125</ele>
        <time>2018-06-14T19:34:58Z</time>
      </trkpt>
      <trkpt lat="43.85544" lon="1.80741">
        <ele>125</ele>
        <time>2018-06-14T19:34:59Z</time>
      </trkpt>
      <trkpt lat="43.85538" lon="1.80737">
        <ele>126</ele>
        <time>2018-06-14T19:35:00Z</time>
      </trkpt>
      <trkpt lat="43.85533" lon="1.80733">
        <ele>126</ele>
        <time>2018-06-14T19:35:01Z</time>
      </trkpt>
      <trkpt lat="43.85528" lon="1.80728">
        <ele>126</ele>
        <time>2018-06-14T19:35:02Z</time>
      </trkpt>
      <trkpt lat="43.85523" lon="1.80724">
        <ele>126</ele>
        <time>2018-06-14T19:35:03Z</time>
      </trkpt>
      <trkpt lat="43.85518" lon="1.80721">
        <ele>125</ele>
        <time>2018-06-14T19:35:04Z</time>
      </trkpt>
      <trkpt lat="43.85513" lon="1.80717">
        <ele>125</ele>
        <time>2018-06-14T19:35:05Z</time>
      </trkpt>
      <trkpt lat="43.85508" lon="1.80713">
        <ele>125</ele>
        <time>2018-06-14T19:35:06Z</time>
      </trkpt>
      <trkpt lat="43.85503" lon="1.80709">
        <ele>125</ele>
        <time>2018-06-14T19:35:07Z</time>
      </trkpt>
      <trkpt lat="43.85498" lon="1.80706">
        <ele>125</ele>
        <time>2018-06-14T19:35:08Z</time>
      </trkpt>
      <trkpt lat="43.85493" lon="1.80702">
        <ele>125</ele>
        <time>2018-06-14T19:35:09Z</time>
      </trkpt>
      <trkpt lat="43.85488" lon="1.80698">
        <ele>125</ele>
        <time>2018-06-14T19:35:10Z</time>
      </trkpt>
      <trkpt lat="43.85483" lon="1.80694">
        <ele>125</ele>
        <time>2018-06-14T19:35:11Z</time>
      </trkpt>
      <trkpt lat="43.85478" lon="1.80691">
        <ele>125</ele>
        <time>2018-06-14T19:35:12Z</time>
      </trkpt>
      <trkpt lat="43.85474" lon="1.80688">
        <ele>125</ele>
        <time>2018-06-14T19:35:13Z</time>
      </trkpt>
      <trkpt lat="43.85469" lon="1.80686">
        <ele>125</ele>
        <time>2018-06-14T19:35:14Z</time>
      </trkpt>
      <trkpt lat="43.85465" lon="1.80683">
        <ele>125</ele>
        <time>2018-06-14T19:35:15Z</time>
      </trkpt>
      <trkpt lat="43.85462" lon="1.8068">
        <ele>125</ele>
        <time>2018-06-14T19:35:16Z</time>
      </trkpt>
      <trkpt lat="43.8546" lon="1.80676">
        <ele>125</ele>
        <time>2018-06-14T19:35:17Z</time>
      </trkpt>
      <trkpt lat="43.8546" lon="1.80672">
        <ele>125</ele>
        <time>2018-06-14T19:35:18Z</time>
      </trkpt>
      <trkpt lat="43.8546" lon="1.80667">
        <ele>125</ele>
        <time>2018-06-14T19:35:19Z</time>
      </trkpt>
      <trkpt lat="43.85461" lon="1.80662">
        <ele>125</ele>
        <time>2018-06-14T19:35:20Z</time>
      </trkpt>
      <trkpt lat="43.85463" lon="1.80658">
        <ele>125</ele>
        <time>2018-06-14T19:35:21Z</time>
      </trkpt>
      <trkpt lat="43.85465" lon="1.80654">
        <ele>125</ele>
        <time>2018-06-14T19:35:22Z</time>
      </trkpt>
      <trkpt lat="43.85467" lon="1.8065">
        <ele>125</ele>
        <time>2018-06-14T19:35:23Z</time>
      </trkpt>
      <trkpt lat="43.85469" lon="1.80646">
        <ele>125</ele>
        <time>2018-06-14T19:35:24Z</time>
      </trkpt>
      <trkpt lat="43.85471" lon="1.80644">
        <ele>125</ele>
        <time>2018-06-14T19:35:25Z</time>
      </trkpt>
      <trkpt lat="43.85472" lon="1.80643">
        <ele>125</ele>
        <time>2018-06-14T19:35:26Z</time>
      </trkpt>
      <trkpt lat="43.85473" lon="1.80642">
        <ele>125</ele>
        <time>2018-06-14T19:35:27Z</time>
      </trkpt>
      <trkpt lat="43.85474" lon="1.80641">
        <ele>125</ele>
        <time>2018-06-14T19:35:28Z</time>
      </trkpt>
      <trkpt lat="43.85474" lon="1.8064">
        <ele>125</ele>
        <time>2018-06-14T19:35:29Z</time>
      </trkpt>
      <trkpt lat="43.85475" lon="1.80639">
        <ele>125</ele>
        <time>2018-06-14T19:35:30Z</time>
      </trkpt>
      <trkpt lat="43.85475" lon="1.80638">
        <ele>125</ele>
        <time>2018-06-14T19:35:31Z</time>
      </trkpt>
      <trkpt lat="43.85476" lon="1.80637">
        <ele>125</ele>
        <time>2018-06-14T19:35:32Z</time>
      </trkpt>
      <trkpt lat="43.85477" lon="1.80635">
        <ele>125</ele>
        <time>2018-06-14T19:35:33Z</time>
      </trkpt>
      <trkpt lat="43.85479" lon="1.80631">
        <ele>126</ele>
        <time>2018-06-14T19:35:34Z</time>
      </trkpt>
      <trkpt lat="43.85481" lon="1.80627">
        <ele>126</ele>
        <time>2018-06-14T19:35:35Z</time>
      </trkpt>
      <trkpt lat="43.85483" lon="1.80622">
        <ele>126</ele>
        <time>2018-06-14T19:35:36Z</time>
      </trkpt>
      <trkpt lat="43.85485" lon="1.80618">
        <ele>126</ele>
        <time>2018-06-14T19:35:37Z</time>
      </trkpt>
      <trkpt lat="43.85487" lon="1.80613">
        <ele>125</ele>
        <time>2018-06-14T19:35:38Z</time>
      </trkpt>
      <trkpt lat="43.85488" lon="1.80607">
        <ele>125</ele>
        <time>2018-06-14T19:35:39Z</time>
      </trkpt>
      <trkpt lat="43.8549" lon="1.80602">
        <ele>125</ele>
        <time>2018-06-14T19:35:40Z</time>
      </trkpt>
      <trkpt lat="43.85493" lon="1.80597">
        <ele>125</ele>
        <time>2018-06-14T19:35:41Z</time>
      </trkpt>
      <trkpt lat="43.85496" lon="1.80591">
        <ele>125</ele>
        <time>2018-06-14T19:35:42Z</time>
      </trkpt>
      <trkpt lat="43.85498" lon="1.80585">
        <ele>125</ele>
        <time>2018-06-14T19:35:43Z</time>
      </trkpt>
      <trkpt lat="43.85501" lon="1.80579">
        <ele>124</ele>
        <time>2018-06-14T19:35:44Z</time>
      </trkpt>
      <trkpt lat="43.85504" lon="1.80573">
        <ele>124</ele>
        <time>2018-06-14T19:35:45Z</time>
      </trkpt>
      <trkpt lat="43.85507" lon="1.80567">
        <ele>124</ele>
        <time>2018-06-14T19:35:46Z</time>
      </trkpt>
      <trkpt lat="43.8551" lon="1.80561">
        <ele>124</ele>
        <time>2018-06-14T19:35:47Z</time>
      </trkpt>
      <trkpt lat="43.85513" lon="1.80554">
        <ele>124</ele>
        <time>2018-06-14T19:35:48Z</time>
      </trkpt>
      <trkpt lat="43.85517" lon="1.80548">
        <ele>124</ele>
        <time>2018-06-14T19:35:49Z</time>
      </trkpt>
      <trkpt lat="43.8552" lon="1.80542">
        <ele>124</ele>
        <time>2018-06-14T19:35:50Z</time>
      </trkpt>
      <trkpt lat="43.85523" lon="1.80536">
        <ele>124</ele>
        <time>2018-06-14T19:35:51Z</time>
      </trkpt>
      <trkpt lat="43.85526" lon="1.80529">
        <ele>124</ele>
        <time>2018-06-14T19:35:52Z</time>
      </trkpt>
      <trkpt lat="43.85528" lon="1.80523">
        <ele>124</ele>
        <time>2018-06-14T19:35:53Z</time>
      </trkpt>
      <trkpt lat="43.85531" lon="1.80517">
        <ele>124</ele>
        <time>2018-06-14T19:35:54Z</time>
      </trkpt>
      <trkpt lat="43.85534" lon="1.8051">
        <ele>124</ele>
        <time>2018-06-14T19:35:55Z</time>
      </trkpt>
      <trkpt lat="43.85537" lon="1.80504">
        <ele>124</ele>
        <time>2018-06-14T19:35:56Z</time>
      </trkpt>
      <trkpt lat="43.8554" lon="1.80498">
        <ele>124</ele>
        <time>2018-06-14T19:35:57Z</time>
      </trkpt>
      <trkpt lat="43.85543" lon="1.80491">
        <ele>124</ele>
        <time>2018-06-14T19:35:58Z</time>
      </trkpt>
      <trkpt lat="43.85546" lon="1.80485">
        <ele>124</ele>
        <time>2018-06-14T19:35:59Z</time>
      </trkpt>
      <trkpt lat="43.85549" lon="1.80478">
        <ele>124</ele>
        <time>2018-06-14T19:36:00Z</time>
      </trkpt>
      <trkpt lat="43.85552" lon="1.80472">
        <ele>124</ele>
        <time>2018-06-14T19:36:01Z</time>
      </trkpt>
      <trkpt lat="43.85555" lon="1.80465">
        <ele>124</ele>
        <time>2018-06-14T19:36:02Z</time>
      </trkpt>
      <trkpt lat="43.85559" lon="1.80459">
        <ele>124</ele>
        <time>2018-06-14T19:36:03Z</time>
      </trkpt>
      <trkpt lat="43.85562" lon="1.80452">
        <ele>124</ele>
        <time>2018-06-14T19:36:04Z</time>
      </trkpt>
      <trkpt lat="43.85565" lon="1.80445">
        <ele>124</ele>
        <time>2018-06-14T19:36:05Z</time>
      </trkpt>
      <trkpt lat="43.85568" lon="1.80439">
        <ele>124</ele>
        <time>2018-06-14T19:36:06Z</time>
      </trkpt>
      <trkpt lat="43.85572" lon="1.80432">
        <ele>124</ele>
        <time>2018-06-14T19:36:07Z</time>
      </trkpt>
      <trkpt lat="43.85575" lon="1.80426">
        <ele>124</ele>
        <time>2018-06-14T19:36:08Z</time>
      </trkpt>
      <trkpt lat="43.85578" lon="1.80419">
        <ele>124</ele>
        <time>2018-06-14T19:36:09Z</time>
      </trkpt>
      <trkpt lat="43.85581" lon="1.80413">
        <ele>124</ele>
        <time>2018-06-14T19:36:10Z</time>
      </trkpt>
      <trkpt lat="43.85584" lon="1.80407">
        <ele>124</ele>
        <time>2018-06-14T19:36:11Z</time>
      </trkpt>
      <trkpt lat="43.85587" lon="1.80401">
        <ele>124</ele>
        <time>2018-06-14T19:36:12Z</time>
      </trkpt>
      <trkpt lat="43.8559" lon="1.80394">
        <ele>124</ele>
        <time>2018-06-14T19:36:13Z</time>
      </trkpt>
      <trkpt lat="43.85593" lon="1.80388">
        <ele>125</ele>
        <time>2018-06-14T19:36:14Z</time>
      </trkpt>
      <trkpt lat="43.85596" lon="1.80382">
        <ele>125</ele>
        <time>2018-06-14T19:36:15Z</time>
      </trkpt>
      <trkpt lat="43.85599" lon="1.80376">
        <ele>125</ele>
        <time>2018-06-14T19:36:16Z</time>
      </trkpt>
      <trkpt lat="43.85602" lon="1.8037">
        <ele>125</ele>
        <time>2018-06-14T19:36:17Z</time>
      </trkpt>
      <trkpt lat="43.85605" lon="1.80364">
        <ele>125</ele>
        <time>2018-06-14T19:36:18Z</time>
      </trkpt>
      <trkpt lat="43.85608" lon="1.80358">
        <ele>125</ele>
        <time>2018-06-14T19:36:19Z</time>
      </trkpt>
      <trkpt lat="43.85611" lon="1.80352">
        <ele>125</ele>
        <time>2018-06-14T19:36:20Z</time>
      </trkpt>
      <trkpt lat="43.85615" lon="1.80347">
        <ele>125</ele>
        <time>2018-06-14T19:36:21Z</time>
      </trkpt>
      <trkpt lat="43.85618" lon="1.80341">
        <ele>125</ele>
        <time>2018-06-14T19:36:22Z</time>
      </trkpt>
      <trkpt lat="43.85622" lon="1.80335">
        <ele>125</ele>
        <time>2018-06-14T19:36:23Z</time>
      </trkpt>
      <trkpt lat="43.85625" lon="1.8033">
        <ele>125</ele>
        <time>2018-06-14T19:36:24Z</time>
      </trkpt>
      <trkpt lat="43.85628" lon="1.80324">
        <ele>125</ele>
        <time>2018-06-14T19:36:25Z</time>
      </trkpt>
      <trkpt lat="43.85631" lon="1.80319">
        <ele>125</ele>
        <time>2018-06-14T19:36:26Z</time>
      </trkpt>
      <trkpt lat="43.85634" lon="1.80314">
        <ele>125</ele>
        <time>2018-06-14T19:36:27Z</time>
      </trkpt>
      <trkpt lat="43.85637" lon="1.8031">
        <ele>125</ele>
        <time>2018-06-14T19:36:28Z</time>
      </trkpt>
      <trkpt lat="43.85641" lon="1.80305">
        <ele>125</ele>
        <time>2018-06-14T19:36:29Z</time>
      </trkpt>
      <trkpt lat="43.85644" lon="1.803">
        <ele>125</ele>
        <time>2018-06-14T19:36:30Z</time>
      </trkpt>
      <trkpt lat="43.85648" lon="1.80295">
        <ele>125</ele>
        <time>2018-06-14T19:36:31Z</time>
      </trkpt>
      <trkpt lat="43.85651" lon="1.80289">
        <ele>125</ele>
        <time>2018-06-14T19:36:32Z</time>
      </trkpt>
      <trkpt lat="43.85654" lon="1.80284">
        <ele>125</ele>
        <time>2018-06-14T19:36:33Z</time>
      </trkpt>
      <trkpt lat="43.85657" lon="1.80278">
        <ele>125</ele>
        <time>2018-06-14T19:36:34Z</time>
      </trkpt>
      <trkpt lat="43.8566" lon="1.80273">
        <ele>125</ele>
        <time>2018-06-14T19:36:35Z</time>
      </trkpt>
      <trkpt lat="43.85663" lon="1.80267">
        <ele>125</ele>
        <time>2018-06-14T19:36:36Z</time>
      </trkpt>
      <trkpt lat="43.85667" lon="1.80261">
        <ele>125</ele>
        <time>2018-06-14T19:36:37Z</time>
      </trkpt>
      <trkpt lat="43.8567" lon="1.80256">
        <ele>125</ele>
        <time>2018-06-14T19:36:38Z</time>
      </trkpt>
      <trkpt lat="43.85673" lon="1.8025">
        <ele>125</ele>
        <time>2018-06-14T19:36:39Z</time>
      </trkpt>
      <trkpt lat="43.85677" lon="1.80244">
        <ele>125</ele>
        <time>2018-06-14T19:36:40Z</time>
      </trkpt>
      <trkpt lat="43.8568" lon="1.80238">
        <ele>125</ele>
        <time>2018-06-14T19:36:41Z</time>
      </trkpt>
      <trkpt lat="43.85684" lon="1.80232">
        <ele>125</ele>
        <time>2018-06-14T19:36:42Z</time>
      </trkpt>
      <trkpt lat="43.85687" lon="1.80226">
        <ele>125</ele>
        <time>2018-06-14T19:36:43Z</time>
      </trkpt>
      <trkpt lat="43.8569" lon="1.80221">
        <ele>125</ele>
        <time>2018-06-14T19:36:44Z</time>
      </trkpt>
      <trkpt lat="43.85694" lon="1.80215">
        <ele>125</ele>
        <time>2018-06-14T19:36:45Z</time>
      </trkpt>
      <trkpt lat="43.85697" lon="1.8021">
        <ele>125</ele>
        <time>2018-06-14T19:36:46Z</time>
      </trkpt>
      <trkpt lat="43.85701" lon="1.80206">
        <ele>125</ele>
        <time>2018-06-14T19:36:47Z</time>
      </trkpt>
      <trkpt lat="43.85705" lon="1.80202">
        <ele>125</ele>
        <time>2018-06-14T19:36:48Z</time>
      </trkpt>
      <trkpt lat="43.8571" lon="1.80198">
        <ele>125</ele>
        <time>2018-06-14T19:36:49Z</time>
      </trkpt>
      <trkpt lat="43.85715" lon="1.80195">
        <ele>125</ele>
        <time>2018-06-14T19:36:50Z</time>
      </trkpt>
      <trkpt lat="43.8572" lon="1.80191">
        <ele>125</ele>
        <time>2018-06-14T19:36:51Z</time>
      </trkpt>
      <trkpt lat="43.85725" lon="1.80188">
        <ele>125</ele>
        <time>2018-06-14T19:36:52Z</time>
      </trkpt>
      <trkpt lat="43.8573" lon="1.80185">
        <ele>125</ele>
        <time>2018-06-14T19:36:53Z</time>
      </trkpt>
      <trkpt lat="43.85735" lon="1.80182">
        <ele>125</ele>
        <time>2018-06-14T19:36:54Z</time>
      </trkpt>
      <trkpt lat="43.8574" lon="1.80178">
        <ele>125</ele>
        <time>2018-06-14T19:36:55Z</time>
      </trkpt>
      <trkpt lat="43.85745" lon="1.80175">
        <ele>125</ele>
        <time>2018-06-14T19:36:56Z</time>
      </trkpt>
      <trkpt lat="43.8575" lon="1.80172">
        <ele>125</ele>
        <time>2018-06-14T19:36:57Z</time>
      </trkpt>
      <trkpt lat="43.85755" lon="1.80168">
        <ele>125</ele>
        <time>2018-06-14T19:36:58Z</time>
      </trkpt>
      <trkpt lat="43.8576" lon="1.80164">
        <ele>125</ele>
        <time>2018-06-14T19:36:59Z</time>
      </trkpt>
      <trkpt lat="43.85764" lon="1.8016">
        <ele>125</ele>
        <time>2018-06-14T19:37:00Z</time>
      </trkpt>
      <trkpt lat="43.85769" lon="1.80156">
        <ele>125</ele>
        <time>2018-06-14T19:37:01Z</time>
      </trkpt>
      <trkpt lat="43.85774" lon="1.80152">
        <ele>125</ele>
        <time>2018-06-14T19:37:02Z</time>
      </trkpt>
      <trkpt lat="43.85778" lon="1.80148">
        <ele>125</ele>
        <time>2018-06-14T19:37:03Z</time>
      </trkpt>
      <trkpt lat="43.85783" lon="1.80143">
        <ele>125</ele>
        <time>2018-06-14T19:37:04Z</time>
      </trkpt>
      <trkpt lat="43.85787" lon="1.80139">
        <ele>125</ele>
        <time>2018-06-14T19:37:05Z</time>
      </trkpt>
      <trkpt lat="43.85792" lon="1.80134">
        <ele>125</ele>
        <time>2018-06-14T19:37:06Z</time>
      </trkpt>
      <trkpt lat="43.85796" lon="1.8013">
        <ele>126</ele>
        <time>2018-06-14T19:37:07Z</time>
      </trkpt>
      <trkpt lat="43.858" lon="1.80125">
        <ele>125</ele>
        <time>2018-06-14T19:37:08Z</time>
      </trkpt>
      <trkpt lat="43.85804" lon="1.80121">
        <ele>125</ele>
        <time>2018-06-14T19:37:09Z</time>
      </trkpt>
      <trkpt lat="43.85809" lon="1.80116">
        <ele>125</ele>
        <time>2018-06-14T19:37:10Z</time>
      </trkpt>
      <trkpt lat="43.85813" lon="1.80112">
        <ele>125</ele>
        <time>2018-06-14T19:37:11Z</time>
      </trkpt>
      <trkpt lat="43.85818" lon="1.80107">
        <ele>125</ele>
        <time>2018-06-14T19:37:12Z</time>
      </trkpt>
      <trkpt lat="43.85822" lon="1.80103">
        <ele>125</ele>
        <time>2018-06-14T19:37:13Z</time>
      </trkpt>
      <trkpt lat="43.85827" lon="1.80098">
        <ele>125</ele>
        <time>2018-06-14T19:37:14Z</time>
      </trkpt>
      <trkpt lat="43.85832" lon="1.80094">
        <ele>125</ele>
        <time>2018-06-14T19:37:15Z</time>
      </trkpt>
      <trkpt lat="43.85836" lon="1.80089">
        <ele>125</ele>
        <time>2018-06-14T19:37:16Z</time>
      </trkpt>
      <trkpt lat="43.85841" lon="1.80085">
        <ele>125</ele>
        <time>2018-06-14T19:37:17Z</time>
      </trkpt>
      <trkpt lat="43.85846" lon="1.80081">
        <ele>125</ele>
        <time>2018-06-14T19:37:18Z</time>
      </trkpt>
      <trkpt lat="43.8585" lon="1.80077">
        <ele>125</ele>
        <time>2018-06-14T19:37:19Z</time>
      </trkpt>
      <trkpt lat="43.85855" lon="1.80073">
        <ele>125</ele>
        <time>2018-06-14T19:37:20Z</time>
      </trkpt>
      <trkpt lat="43.8586" lon="1.80069">
        <ele>126</ele>
        <time>2018-06-14T19:37:21Z</time>
      </trkpt>
      <trkpt lat="43.85865" lon="1.80065">
        <ele>126</ele>
        <time>2018-06-14T19:37:22Z</time>
      </trkpt>
      <trkpt lat="43.8587" lon="1.80062">
        <ele>126</ele>
        <time>2018-06-14T19:37:23Z</time>
      </trkpt>
      <trkpt lat="43.85875" lon="1.80058">
        <ele>126</ele>
        <time>2018-06-14T19:37:24Z</time>
      </trkpt>
      <trkpt lat="43.8588" lon="1.80055">
        <ele>126</ele>
        <time>2018-06-14T19:37:25Z</time>
      </trkpt>
      <trkpt lat="43.85885" lon="1.80051">
        <ele>126</ele>
        <time>2018-06-14T19:37:26Z</time>
      </trkpt>
      <trkpt lat="43.8589" lon="1.80048">
        <ele>126</ele>
        <time>2018-06-14T19:37:27Z</time>
      </trkpt>
      <trkpt lat="43.85896" lon="1.80045">
        <ele>126</ele>
        <time>2018-06-14T19:37:28Z</time>
      </trkpt>
      <trkpt lat="43.85901" lon="1.80042">
        <ele>126</ele>
        <time>2018-06-14T19:37:29Z</time>
      </trkpt>
      <trkpt lat="43.85906" lon="1.80038">
        <ele>126</ele>
        <time>2018-06-14T19:37:30Z</time>
      </trkpt>
      <trkpt lat="43.85912" lon="1.80035">
        <ele>126</ele>
        <time>2018-06-14T19:37:31Z</time>
      </trkpt>
      <trkpt lat="43.85917" lon="1.80032">
        <ele>126</ele>
        <time>2018-06-14T19:37:32Z</time>
      </trkpt>
      <trkpt lat="43.85923" lon="1.80029">
        <ele>126</ele>
        <time>2018-06-14T19:37:33Z</time>
      </trkpt>
      <trkpt lat="43.85928" lon="1.80026">
        <ele>126</ele>
        <time>2018-06-14T19:37:34Z</time>
      </trkpt>
      <trkpt lat="43.85934" lon="1.80023">
        <ele>126</ele>
        <time>2018-06-14T19:37:35Z</time>
      </trkpt>
      <trkpt lat="43.85939" lon="1.80021">
        <ele>126</ele>
        <time>2018-06-14T19:37:36Z</time>
      </trkpt>
      <trkpt lat="43.85945" lon="1.80018">
        <ele>126</ele>
        <time>2018-06-14T19:37:37Z</time>
      </trkpt>
      <trkpt lat="43.8595" lon="1.80015">
        <ele>126</ele>
        <time>2018-06-14T19:37:38Z</time>
      </trkpt>
      <trkpt lat="43.85956" lon="1.80013">
        <ele>126</ele>
        <time>2018-06-14T19:37:39Z</time>
      </trkpt>
      <trkpt lat="43.85962" lon="1.80012">
        <ele>126</ele>
        <time>2018-06-14T19:37:40Z</time>
      </trkpt>
      <trkpt lat="43.85968" lon="1.80011">
        <ele>126</ele>
        <time>2018-06-14T19:37:41Z</time>
      </trkpt>
      <trkpt lat="43.85973" lon="1.8001">
        <ele>126</ele>
        <time>2018-06-14T19:37:42Z</time>
      </trkpt>
      <trkpt lat="43.85979" lon="1.80009">
        <ele>126</ele>
        <time>2018-06-14T19:37:43Z</time>
      </trkpt>
      <trkpt lat="43.85985" lon="1.80008">
        <ele>126</ele>
        <time>2018-06-14T19:37:44Z</time>
      </trkpt>
      <trkpt lat="43.85991" lon="1.80007">
        <ele>126</ele>
        <time>2018-06-14T19:37:45Z</time>
      </trkpt>
      <trkpt lat="43.85997" lon="1.80006">
        <ele>126</ele>
        <time>2018-06-14T19:37:46Z</time>
      </trkpt>
      <trkpt lat="43.86002" lon="1.80006">
        <ele>126</ele>
        <time>2018-06-14T19:37:47Z</time>
      </trkpt>
      <trkpt lat="43.86008" lon="1.80005">
        <ele>126</ele>
        <time>2018-06-14T19:37:48Z</time>
      </trkpt>
      <trkpt lat="43.86013" lon="1.80004">
        <ele>126</ele>
        <time>2018-06-14T19:37:49Z</time>
      </trkpt>
      <trkpt lat="43.86019" lon="1.80003">
        <ele>126</ele>
        <time>2018-06-14T19:37:50Z</time>
      </trkpt>
      <trkpt lat="43.86024" lon="1.80002">
        <ele>126</ele>
        <time>2018-06-14T19:37:51Z</time>
      </trkpt>
      <trkpt lat="43.8603" lon="1.80001">
        <ele>127</ele>
        <time>2018-06-14T19:37:52Z</time>
      </trkpt>
      <trkpt lat="43.86035" lon="1.8">
        <ele>127</ele>
        <time>2018-06-14T19:37:53Z</time>
      </trkpt>
      <trkpt lat="43.8604" lon="1.79999">
        <ele>127</ele>
        <time>2018-06-14T19:37:54Z</time>
      </trkpt>
      <trkpt lat="43.86045" lon="1.79999">
        <ele>127</ele>
        <time>2018-06-14T19:37:55Z</time>
      </trkpt>
      <trkpt lat="43.8605" lon="1.79998">
        <ele>127</ele>
        <time>2018-06-14T19:37:56Z</time>
      </trkpt>
      <trkpt lat="43.86055" lon="1.79997">
        <ele>127</ele>
        <time>2018-06-14T19:37:57Z</time>
      </trkpt>
      <trkpt lat="43.86061" lon="1.79996">
        <ele>127</ele>
        <time>2018-06-14T19:37:58Z</time>
      </trkpt>
      <trkpt lat="43.86066" lon="1.79994">
        <ele>127</ele>
        <time>2018-06-14T19:37:59Z</time>
      </trkpt>
      <trkpt lat="43.86071" lon="1.79992">
        <ele>127</ele>
        <time>2018-06-14T19:38:00Z</time>
      </trkpt>
      <trkpt lat="43.86076" lon="1.79991">
        <ele>127</ele>
        <time>2018-06-14T19:38:01Z</time>
      </trkpt>
      <trkpt lat="43.86081" lon="1.79989">
        <ele>127</ele>
        <time>2018-06-14T19:38:02Z</time>
      </trkpt>
      <trkpt lat="43.86086" lon="1.79987">
        <ele>127</ele>
        <time>2018-06-14T19:38:03Z</time>
      </trkpt>
      <trkpt lat="43.86092" lon="1.79985">
        <ele>127</ele>
        <time>2018-06-14T19:38:04Z</time>
      </trkpt>
      <trkpt lat="43.86097" lon="1.79983">
        <ele>128</ele>
        <time>2018-06-14T19:38:05Z</time>
      </trkpt>
      <trkpt lat="43.86102" lon="1.7998">
        <ele>128</ele>
        <time>2018-06-14T19:38:06Z</time>
      </trkpt>
      <trkpt lat="43.86107" lon="1.79978">
        <ele>128</ele>
        <time>2018-06-14T19:38:07Z</time>
      </trkpt>
      <trkpt lat="43.86112" lon="1.79975">
        <ele>128</ele>
        <time>2018-06-14T19:38:08Z</time>
      </trkpt>
      <trkpt lat="43.86117" lon="1.79972">
        <ele>128</ele>
        <time>2018-06-14T19:38:09Z</time>
      </trkpt>
      <trkpt lat="43.86122" lon="1.79969">
        <ele>128</ele>
        <time>2018-06-14T19:38:10Z</time>
      </trkpt>
      <trkpt lat="43.86127" lon="1.79966">
        <ele>128</ele>
        <time>2018-06-14T19:38:11Z</time>
      </trkpt>
      <trkpt lat="43.86132" lon="1.79963">
        <ele>128</ele>
        <time>2018-06-14T19:38:12Z</time>
      </trkpt>
      <trkpt lat="43.86137" lon="1.7996">
        <ele>128</ele>
        <time>2018-06-14T19:38:13Z</time>
      </trkpt>
      <trkpt lat="43.86142" lon="1.79957">
        <ele>128</ele>
        <time>2018-06-14T19:38:14Z</time>
      </trkpt>
      <trkpt lat="43.86147" lon="1.79953">
        <ele>128</ele>
        <time>2018-06-14T19:38:15Z</time>
      </trkpt>
      <trkpt lat="43.86152" lon="1.79949">
        <ele>128</ele>
        <time>2018-06-14T19:38:16Z</time>
      </trkpt>
      <trkpt lat="43.86156" lon="1.79946">
        <ele>128</ele>
        <time>2018-06-14T19:38:17Z</time>
      </trkpt>
      <trkpt lat="43.86161" lon="1.79942">
        <ele>128</ele>
        <time>2018-06-14T19:38:18Z</time>
      </trkpt>
      <trkpt lat="43.86165" lon="1.79939">
        <ele>129</ele>
        <time>2018-06-14T19:38:19Z</time>
      </trkpt>
      <trkpt lat="43.86169" lon="1.79937">
        <ele>129</ele>
        <time>2018-06-14T19:38:20Z</time>
      </trkpt>
      <trkpt lat="43.86173" lon="1.79935">
        <ele>129</ele>
        <time>2018-06-14T19:38:21Z</time>
      </trkpt>
      <trkpt lat="43.86177" lon="1.79933">
        <ele>128</ele>
        <time>2018-06-14T19:38:22Z</time>
      </trkpt>
      <trkpt lat="43.86181" lon="1.79931">
        <ele>128</ele>
        <time>2018-06-14T19:38:23Z</time>
      </trkpt>
      <trkpt lat="43.86185" lon="1.79929">
        <ele>129</ele>
        <time>2018-06-14T19:38:24Z</time>
      </trkpt>
      <trkpt lat="43.86189" lon="1.79927">
        <ele>129</ele>
        <time>2018-06-14T19:38:25Z</time>
      </trkpt>
      <trkpt lat="43.86192" lon="1.79925">
        <ele>129</ele>
        <time>2018-06-14T19:38:26Z</time>
      </trkpt>
      <trkpt lat="43.86196" lon="1.79924">
        <ele>129</ele>
        <time>2018-06-14T19:38:27Z</time>
      </trkpt>
      <trkpt lat="43.862" lon="1.79922">
        <ele>129</ele>
        <time>2018-06-14T19:38:28Z</time>
      </trkpt>
      <trkpt lat="43.86204" lon="1.7992">
        <ele>129</ele>
        <time>2018-06-14T19:38:29Z</time>
      </trkpt>
      <trkpt lat="43.86208" lon="1.79918">
        <ele>129</ele>
        <time>2018-06-14T19:38:30Z</time>
      </trkpt>
      <trkpt lat="43.86212" lon="1.79916">
        <ele>129</ele>
        <time>2018-06-14T19:38:31Z</time>
      </trkpt>
      <trkpt lat="43.86217" lon="1.79915">
        <ele>129</ele>
        <time>2018-06-14T19:38:32Z</time>
      </trkpt>
      <trkpt lat="43.86221" lon="1.79913">
        <ele>129</ele>
        <time>2018-06-14T19:38:33Z</time>
      </trkpt>
      <trkpt lat="43.86226" lon="1.79911">
        <ele>129</ele>
        <time>2018-06-14T19:38:34Z</time>
      </trkpt>
      <trkpt lat="43.8623" lon="1.79909">
        <ele>129</ele>
        <time>2018-06-14T19:38:35Z</time>
      </trkpt>
      <trkpt lat="43.86235" lon="1.79907">
        <ele>129</ele>
        <time>2018-06-14T19:38:36Z</time>
      </trkpt>
      <trkpt lat="43.86239" lon="1.79905">
        <ele>129</ele>
        <time>2018-06-14T19:38:37Z</time>
      </trkpt>
      <trkpt lat="43.86244" lon="1.79904">
        <ele>129</ele>
        <time>2018-06-14T19:38:38Z</time>
      </trkpt>
      <trkpt lat="43.86248" lon="1.79902">
        <ele>129</ele>
        <time>2018-06-14T19:38:39Z</time>
      </trkpt>
      <trkpt lat="43.86253" lon="1.799">
        <ele>129</ele>
        <time>2018-06-14T19:38:40Z</time>
      </trkpt>
      <trkpt lat="43.86257" lon="1.79899">
        <ele>129</ele>
        <time>2018-06-14T19:38:41Z</time>
      </trkpt>
      <trkpt lat="43.86262" lon="1.79897">
        <ele>129</ele>
        <time>2018-06-14T19:38:42Z</time>
      </trkpt>
      <trkpt lat="43.86266" lon="1.79896">
        <ele>129</ele>
        <time>2018-06-14T19:38:43Z</time>
      </trkpt>
      <trkpt lat="43.86271" lon="1.79894">
        <ele>129</ele>
        <time>2018-06-14T19:38:44Z</time>
      </trkpt>
      <trkpt lat="43.86276" lon="1.79892">
        <ele>129</ele>
        <time>2018-06-14T19:38:45Z</time>
      </trkpt>
      <trkpt lat="43.86281" lon="1.7989">
        <ele>129</ele>
        <time>2018-06-14T19:38:46Z</time>
      </trkpt>
      <trkpt lat="43.86286" lon="1.79888">
        <ele>129</ele>
        <time>2018-06-14T19:38:47Z</time>
      </trkpt>
      <trkpt lat="43.86291" lon="1.79887">
        <ele>129</ele>
        <time>2018-06-14T19:38:48Z</time>
      </trkpt>
      <trkpt lat="43.86296" lon="1.79884">
        <ele>129</ele>
        <time>2018-06-14T19:38:49Z</time>
      </trkpt>
      <trkpt lat="43.863" lon="1.79882">
        <ele>129</ele>
        <time>2018-06-14T19:38:50Z</time>
      </trkpt>
      <trkpt lat="43.86305" lon="1.7988">
        <ele>129</ele>
        <time>2018-06-14T19:38:51Z</time>
      </trkpt>
      <trkpt lat="43.8631" lon="1.79878">
        <ele>129</ele>
        <time>2018-06-14T19:38:52Z</time>
      </trkpt>
      <trkpt lat="43.86315" lon="1.79876">
        <ele>129</ele>
        <time>2018-06-14T19:38:53Z</time>
      </trkpt>
      <trkpt lat="43.8632" lon="1.79875">
        <ele>129</ele>
        <time>2018-06-14T19:38:54Z</time>
      </trkpt>
      <trkpt lat="43.86326" lon="1.79873">
        <ele>129</ele>
        <time>2018-06-14T19:38:55Z</time>
      </trkpt>
      <trkpt lat="43.86331" lon="1.79871">
        <ele>129</ele>
        <time>2018-06-14T19:38:56Z</time>
      </trkpt>
      <trkpt lat="43.86336" lon="1.7987">
        <ele>129</ele>
        <time>2018-06-14T19:38:57Z</time>
      </trkpt>
      <trkpt lat="43.86341" lon="1.79868">
        <ele>129</ele>
        <time>2018-06-14T19:38:58Z</time>
      </trkpt>
      <trkpt lat="43.86346" lon="1.79866">
        <ele>129</ele>
        <time>2018-06-14T19:38:59Z</time>
      </trkpt>
      <trkpt lat="43.86351" lon="1.79865">
        <ele>129</ele>
        <time>2018-06-14T19:39:00Z</time>
      </trkpt>
      <trkpt lat="43.86356" lon="1.79864">
        <ele>130</ele>
        <time>2018-06-14T19:39:01Z</time>
      </trkpt>
      <trkpt lat="43.86361" lon="1.79863">
        <ele>130</ele>
        <time>2018-06-14T19:39:02Z</time>
      </trkpt>
      <trkpt lat="43.86366" lon="1.79863">
        <ele>130</ele>
        <time>2018-06-14T19:39:03Z</time>
      </trkpt>
      <trkpt lat="43.86371" lon="1.79862">
        <ele>130</ele>
        <time>2018-06-14T19:39:04Z</time>
      </trkpt>
      <trkpt lat="43.86376" lon="1.79862">
        <ele>130</ele>
        <time>2018-06-14T19:39:05Z</time>
      </trkpt>
      <trkpt lat="43.86381" lon="1.79862">
        <ele>130</ele>
        <time>2018-06-14T19:39:06Z</time>
      </trkpt>
      <trkpt lat="43.86386" lon="1.79862">
        <ele>130</ele>
        <time>2018-06-14T19:39:07Z</time>
      </trkpt>
      <trkpt lat="43.86391" lon="1.79862">
        <ele>130</ele>
        <time>2018-06-14T19:39:08Z</time>
      </trkpt>
      <trkpt lat="43.86396" lon="1.79862">
        <ele>130</ele>
        <time>2018-06-14T19:39:09Z</time>
      </trkpt>
      <trkpt lat="43.86401" lon="1.79862">
        <ele>130</ele>
        <time>2018-06-14T19:39:10Z</time>
      </trkpt>
      <trkpt lat="43.86406" lon="1.79862">
        <ele>130</ele>
        <time>2018-06-14T19:39:11Z</time>
      </trkpt>
      <trkpt lat="43.86411" lon="1.79862">
        <ele>130</ele>
        <time>2018-06-14T19:39:12Z</time>
      </trkpt>
      <trkpt lat="43.86416" lon="1.79861">
        <ele>130</ele>
        <time>2018-06-14T19:39:13Z</time>
      </trkpt>
      <trkpt lat="43.86421" lon="1.79861">
        <ele>130</ele>
        <time>2018-06-14T19:39:14Z</time>
      </trkpt>
      <trkpt lat="43.86427" lon="1.79861">
        <ele>130</ele>
        <time>2018-06-14T19:39:15Z</time>
      </trkpt>
      <trkpt lat="43.86432" lon="1.79861">
        <ele>130</ele>
        <time>2018-06-14T19:39:16Z</time>
      </trkpt>
      <trkpt lat="43.86437" lon="1.79861">
        <ele>130</ele>
        <time>2018-06-14T19:39:17Z</time>
      </trkpt>
      <trkpt lat="43.86442" lon="1.79861">
        <ele>130</ele>
        <time>2018-06-14T19:39:18Z</time>
      </trkpt>
      <trkpt lat="43.86448" lon="1.79861">
        <ele>130</ele>
        <time>2018-06-14T19:39:19Z</time>
      </trkpt>
      <trkpt lat="43.86453" lon="1.79861">
        <ele>130</ele>
        <time>2018-06-14T19:39:20Z</time>
      </trkpt>
      <trkpt lat="43.86458" lon="1.79861">
        <ele>130</ele>
        <time>2018-06-14T19:39:21Z</time>
      </trkpt>
      <trkpt lat="43.86463" lon="1.7986">
        <ele>130</ele>
        <time>2018-06-14T19:39:22Z</time>
      </trkpt>
      <trkpt lat="43.86469" lon="1.7986">
        <ele>130</ele>
        <time>2018-06-14T19:39:23Z</time>
      </trkpt>
      <trkpt lat="43.86474" lon="1.7986">
        <ele>130</ele>
        <time>2018-06-14T19:39:24Z</time>
      </trkpt>
      <trkpt lat="43.86479" lon="1.7986">
        <ele>130</ele>
        <time>2018-06-14T19:39:25Z</time>
      </trkpt>
      <trkpt lat="43.86484" lon="1.7986">
        <ele>130</ele>
        <time>2018-06-14T19:39:26Z</time>
      </trkpt>
      <trkpt lat="43.86489" lon="1.7986">
        <ele>130</ele>
        <time>2018-06-14T19:39:27Z</time>
      </trkpt>
      <trkpt lat="43.86495" lon="1.7986">
        <ele>130</ele>
        <time>2018-06-14T19:39:28Z</time>
      </trkpt>
      <trkpt lat="43.865" lon="1.7986">
        <ele>130</ele>
        <time>2018-06-14T19:39:29Z</time>
      </trkpt>
      <trkpt lat="43.86505" lon="1.79859">
        <ele>130</ele>
        <time>2018-06-14T19:39:30Z</time>
      </trkpt>
      <trkpt lat="43.8651" lon="1.79859">
        <ele>130</ele>
        <time>2018-06-14T19:39:31Z</time>
      </trkpt>
      <trkpt lat="43.86516" lon="1.79859">
        <ele>130</ele>
        <time>2018-06-14T19:39:32Z</time>
      </trkpt>
      <trkpt lat="43.86521" lon="1.79859">
        <ele>130</ele>
        <time>2018-06-14T19:39:33Z</time>
      </trkpt>
      <trkpt lat="43.86526" lon="1.79859">
        <ele>130</ele>
        <time>2018-06-14T19:39:34Z</time>
      </trkpt>
      <trkpt lat="43.86532" lon="1.79859">
        <ele>130</ele>
        <time>2018-06-14T19:39:35Z</time>
      </trkpt>
      <trkpt lat="43.86537" lon="1.79859">
        <ele>130</ele>
        <time>2018-06-14T19:39:36Z</time>
      </trkpt>
      <trkpt lat="43.86542" lon="1.79859">
        <ele>130</ele>
        <time>2018-06-14T19:39:37Z</time>
      </trkpt>
      <trkpt lat="43.86547" lon="1.79859">
        <ele>130</ele>
        <time>2018-06-14T19:39:38Z</time>
      </trkpt>
      <trkpt lat="43.86553" lon="1.79858">
        <ele>130</ele>
        <time>2018-06-14T19:39:39Z</time>
      </trkpt>
      <trkpt lat="43.86558" lon="1.79858">
        <ele>130</ele>
        <time>2018-06-14T19:39:40Z</time>
      </trkpt>
      <trkpt lat="43.86563" lon="1.79858">
        <ele>129</ele>
        <time>2018-06-14T19:39:41Z</time>
      </trkpt>
      <trkpt lat="43.86568" lon="1.79858">
        <ele>129</ele>
        <time>2018-06-14T19:39:42Z</time>
      </trkpt>
      <trkpt lat="43.86574" lon="1.79858">
        <ele>129</ele>
        <time>2018-06-14T19:39:43Z</time>
      </trkpt>
      <trkpt lat="43.86579" lon="1.79858">
        <ele>129</ele>
        <time>2018-06-14T19:39:44Z</time>
      </trkpt>
      <trkpt lat="43.86584" lon="1.79858">
        <ele>130</ele>
        <time>2018-06-14T19:39:45Z</time>
      </trkpt>
      <trkpt lat="43.86589" lon="1.79857">
        <ele>131</ele>
        <time>2018-06-14T19:39:46Z</time>
      </trkpt>
      <trkpt lat="43.86594" lon="1.79857">
        <ele>130</ele>
        <time>2018-06-14T19:39:47Z</time>
      </trkpt>
      <trkpt lat="43.86599" lon="1.79856">
        <ele>130</ele>
        <time>2018-06-14T19:39:48Z</time>
      </trkpt>
      <trkpt lat="43.86604" lon="1.79857">
        <ele>130</ele>
        <time>2018-06-14T19:39:49Z</time>
      </trkpt>
      <trkpt lat="43.8661" lon="1.79857">
        <ele>130</ele>
        <time>2018-06-14T19:39:50Z</time>
      </trkpt>
      <trkpt lat="43.86614" lon="1.79856">
        <ele>130</ele>
        <time>2018-06-14T19:39:51Z</time>
      </trkpt>
      <trkpt lat="43.86619" lon="1.79856">
        <ele>130</ele>
        <time>2018-06-14T19:39:52Z</time>
      </trkpt>
      <trkpt lat="43.86624" lon="1.79856">
        <ele>130</ele>
        <time>2018-06-14T19:39:53Z</time>
      </trkpt>
      <trkpt lat="43.86628" lon="1.79856">
        <ele>130</ele>
        <time>2018-06-14T19:39:54Z</time>
      </trkpt>
      <trkpt lat="43.86632" lon="1.79856">
        <ele>130</ele>
        <time>2018-06-14T19:39:55Z</time>
      </trkpt>
      <trkpt lat="43.86636" lon="1.79856">
        <ele>130</ele>
        <time>2018-06-14T19:39:56Z</time>
      </trkpt>
      <trkpt lat="43.8664" lon="1.79856">
        <ele>130</ele>
        <time>2018-06-14T19:39:57Z</time>
      </trkpt>
      <trkpt lat="43.86643" lon="1.79855">
        <ele>130</ele>
        <time>2018-06-14T19:39:58Z</time>
      </trkpt>
      <trkpt lat="43.86646" lon="1.79855">
        <ele>131</ele>
        <time>2018-06-14T19:39:59Z</time>
      </trkpt>
      <trkpt lat="43.86649" lon="1.79855">
        <ele>131</ele>
        <time>2018-06-14T19:40:00Z</time>
      </trkpt>
      <trkpt lat="43.86651" lon="1.79855">
        <ele>131</ele>
        <time>2018-06-14T19:40:01Z</time>
      </trkpt>
      <trkpt lat="43.86653" lon="1.79855">
        <ele>131</ele>
        <time>2018-06-14T19:40:02Z</time>
      </trkpt>
      <trkpt lat="43.86656" lon="1.79854">
        <ele>131</ele>
        <time>2018-06-14T19:40:03Z</time>
      </trkpt>
      <trkpt lat="43.86658" lon="1.79853">
        <ele>131</ele>
        <time>2018-06-14T19:40:04Z</time>
      </trkpt>
      <trkpt lat="43.86661" lon="1.79852">
        <ele>131</ele>
        <time>2018-06-14T19:40:05Z</time>
      </trkpt>
      <trkpt lat="43.86664" lon="1.79852">
        <ele>131</ele>
        <time>2018-06-14T19:40:06Z</time>
      </trkpt>
      <trkpt lat="43.86667" lon="1.79852">
        <ele>131</ele>
        <time>2018-06-14T19:40:07Z</time>
      </trkpt>
      <trkpt lat="43.8667" lon="1.79853">
        <ele>131</ele>
        <time>2018-06-14T19:40:08Z</time>
      </trkpt>
      <trkpt lat="43.86673" lon="1.79854">
        <ele>131</ele>
        <time>2018-06-14T19:40:09Z</time>
      </trkpt>
      <trkpt lat="43.86676" lon="1.79855">
        <ele>131</ele>
        <time>2018-06-14T19:40:10Z</time>
      </trkpt>
      <trkpt lat="43.8668" lon="1.79855">
        <ele>131</ele>
        <time>2018-06-14T19:40:11Z</time>
      </trkpt>
      <trkpt lat="43.86683" lon="1.79855">
        <ele>131</ele>
        <time>2018-06-14T19:40:12Z</time>
      </trkpt>
      <trkpt lat="43.86686" lon="1.79856">
        <ele>131</ele>
        <time>2018-06-14T19:40:13Z</time>
      </trkpt>
      <trkpt lat="43.8669" lon="1.79856">
        <ele>131</ele>
        <time>2018-06-14T19:40:14Z</time>
      </trkpt>
      <trkpt lat="43.86694" lon="1.79856">
        <ele>131</ele>
        <time>2018-06-14T19:40:15Z</time>
      </trkpt>
      <trkpt lat="43.86697" lon="1.79856">
        <ele>131</ele>
        <time>2018-06-14T19:40:16Z</time>
      </trkpt>
      <trkpt lat="43.86701" lon="1.79857">
        <ele>131</ele>
        <time>2018-06-14T19:40:17Z</time>
      </trkpt>
      <trkpt lat="43.86704" lon="1.79857">
        <ele>130</ele>
        <time>2018-06-14T19:40:18Z</time>
      </trkpt>
      <trkpt lat="43.86708" lon="1.79856">
        <ele>130</ele>
        <time>2018-06-14T19:40:19Z</time>
      </trkpt>
      <trkpt lat="43.86712" lon="1.79856">
        <ele>130</ele>
        <time>2018-06-14T19:40:20Z</time>
      </trkpt>
      <trkpt lat="43.86715" lon="1.79856">
        <ele>131</ele>
        <time>2018-06-14T19:40:21Z</time>
      </trkpt>
      <trkpt lat="43.86719" lon="1.79856">
        <ele>131</ele>
        <time>2018-06-14T19:40:22Z</time>
      </trkpt>
      <trkpt lat="43.86722" lon="1.79855">
        <ele>131</ele>
        <time>2018-06-14T19:40:23Z</time>
      </trkpt>
      <trkpt lat="43.86725" lon="1.79855">
        <ele>131</ele>
        <time>2018-06-14T19:40:24Z</time>
      </trkpt>
      <trkpt lat="43.86729" lon="1.79855">
        <ele>131</ele>
        <time>2018-06-14T19:40:25Z</time>
      </trkpt>
      <trkpt lat="43.86733" lon="1.79855">
        <ele>131</ele>
        <time>2018-06-14T19:40:26Z</time>
      </trkpt>
      <trkpt lat="43.86736" lon="1.79854">
        <ele>131</ele>
        <time>2018-06-14T19:40:27Z</time>
      </trkpt>
      <trkpt lat="43.8674" lon="1.79854">
        <ele>130</ele>
        <time>2018-06-14T19:40:28Z</time>
      </trkpt>
      <trkpt lat="43.86743" lon="1.79854">
        <ele>130</ele>
        <time>2018-06-14T19:40:29Z</time>
      </trkpt>
      <trkpt lat="43.86747" lon="1.79853">
        <ele>131</ele>
        <time>2018-06-14T19:40:30Z</time>
      </trkpt>
      <trkpt lat="43.8675" lon="1.79853">
        <ele>131</ele>
        <time>2018-06-14T19:40:31Z</time>
      </trkpt>
      <trkpt lat="43.86754" lon="1.79852">
        <ele>131</ele>
        <time>2018-06-14T19:40:32Z</time>
      </trkpt>
      <trkpt lat="43.86758" lon="1.79852">
        <ele>131</ele>
        <time>2018-06-14T19:40:33Z</time>
      </trkpt>
      <trkpt lat="43.86761" lon="1.79852">
        <ele>131</ele>
        <time>2018-06-14T19:40:34Z</time>
      </trkpt>
      <trkpt lat="43.86765" lon="1.79851">
        <ele>131</ele>
        <time>2018-06-14T19:40:35Z</time>
      </trkpt>
      <trkpt lat="43.86769" lon="1.79851">
        <ele>131</ele>
        <time>2018-06-14T19:40:36Z</time>
      </trkpt>
      <trkpt lat="43.86773" lon="1.7985">
        <ele>130</ele>
        <time>2018-06-14T19:40:37Z</time>
      </trkpt>
      <trkpt lat="43.86776" lon="1.7985">
        <ele>130</ele>
        <time>2018-06-14T19:40:38Z</time>
      </trkpt>
      <trkpt lat="43.8678" lon="1.79849">
        <ele>131</ele>
        <time>2018-06-14T19:40:39Z</time>
      </trkpt>
      <trkpt lat="43.86784" lon="1.79849">
        <ele>131</ele>
        <time>2018-06-14T19:40:40Z</time>
      </trkpt>
      <trkpt lat="43.86787" lon="1.79848">
        <ele>131</ele>
        <time>2018-06-14T19:40:41Z</time>
      </trkpt>
      <trkpt lat="43.86791" lon="1.79847">
        <ele>131</ele>
        <time>2018-06-14T19:40:42Z</time>
      </trkpt>
      <trkpt lat="43.86795" lon="1.79847">
        <ele>131</ele>
        <time>2018-06-14T19:40:43Z</time>
      </trkpt>
      <trkpt lat="43.86798" lon="1.79846">
        <ele>131</ele>
        <time>2018-06-14T19:40:44Z</time>
      </trkpt>
      <trkpt lat="43.86802" lon="1.79846">
        <ele>131</ele>
        <time>2018-06-14T19:40:45Z</time>
      </trkpt>
      <trkpt lat="43.86806" lon="1.79845">
        <ele>131</ele>
        <time>2018-06-14T19:40:46Z</time>
      </trkpt>
      <trkpt lat="43.86809" lon="1.79845">
        <ele>131</ele>
        <time>2018-06-14T19:40:47Z</time>
      </trkpt>
      <trkpt lat="43.86813" lon="1.79844">
        <ele>131</ele>
        <time>2018-06-14T19:40:48Z</time>
      </trkpt>
      <trkpt lat="43.86817" lon="1.79844">
        <ele>131</ele>
        <time>2018-06-14T19:40:49Z</time>
      </trkpt>
      <trkpt lat="43.8682" lon="1.79844">
        <ele>131</ele>
        <time>2018-06-14T19:40:50Z</time>
      </trkpt>
      <trkpt lat="43.86824" lon="1.79843">
        <ele>131</ele>
        <time>2018-06-14T19:40:51Z</time>
      </trkpt>
      <trkpt lat="43.86828" lon="1.79843">
        <ele>131</ele>
        <time>2018-06-14T19:40:52Z</time>
      </trkpt>
      <trkpt lat="43.86831" lon="1.79843">
        <ele>131</ele>
        <time>2018-06-14T19:40:53Z</time>
      </trkpt>
      <trkpt lat="43.86835" lon="1.79843">
        <ele>131</ele>
        <time>2018-06-14T19:40:54Z</time>
      </trkpt>
      <trkpt lat="43.86839" lon="1.79844">
        <ele>131</ele>
        <time>2018-06-14T19:40:55Z</time>
      </trkpt>
      <trkpt lat="43.86842" lon="1.79845">
        <ele>131</ele>
        <time>2018-06-14T19:40:56Z</time>
      </trkpt>
      <trkpt lat="43.86845" lon="1.79845">
        <ele>131</ele>
        <time>2018-06-14T19:40:57Z</time>
      </trkpt>
      <trkpt lat="43.86849" lon="1.79846">
        <ele>131</ele>
        <time>2018-06-14T19:40:58Z</time>
      </trkpt>
      <trkpt lat="43.86852" lon="1.79848">
        <ele>131</ele>
        <time>2018-06-14T19:40:59Z</time>
      </trkpt>
      <trkpt lat="43.86855" lon="1.79849">
        <ele>131</ele>
        <time>2018-06-14T19:41:00Z</time>
      </trkpt>
      <trkpt lat="43.86859" lon="1.7985">
        <ele>131</ele>
        <time>2018-06-14T19:41:01Z</time>
      </trkpt>
      <trkpt lat="43.86863" lon="1.79851">
        <ele>131</ele>
        <time>2018-06-14T19:41:02Z</time>
      </trkpt>
      <trkpt lat="43.86866" lon="1.79853">
        <ele>131</ele>
        <time>2018-06-14T19:41:03Z</time>
      </trkpt>
      <trkpt lat="43.8687" lon="1.79854">
        <ele>131</ele>
        <time>2018-06-14T19:41:04Z</time>
      </trkpt>
      <trkpt lat="43.86873" lon="1.79855">
        <ele>131</ele>
        <time>2018-06-14T19:41:05Z</time>
      </trkpt>
      <trkpt lat="43.86876" lon="1.79856">
        <ele>131</ele>
        <time>2018-06-14T19:41:06Z</time>
      </trkpt>
      <trkpt lat="43.8688" lon="1.79856">
        <ele>131</ele>
        <time>2018-06-14T19:41:07Z</time>
      </trkpt>
      <trkpt lat="43.86883" lon="1.79857">
        <ele>131</ele>
        <time>2018-06-14T19:41:08Z</time>
      </trkpt>
      <trkpt lat="43.86887" lon="1.79858">
        <ele>131</ele>
        <time>2018-06-14T19:41:09Z</time>
      </trkpt>
      <trkpt lat="43.8689" lon="1.79859">
        <ele>131</ele>
        <time>2018-06-14T19:41:10Z</time>
      </trkpt>
      <trkpt lat="43.86894" lon="1.7986">
        <ele>131</ele>
        <time>2018-06-14T19:41:11Z</time>
      </trkpt>
      <trkpt lat="43.86897" lon="1.79861">
        <ele>132</ele>
        <time>2018-06-14T19:41:12Z</time>
      </trkpt>
      <trkpt lat="43.86901" lon="1.79861">
        <ele>132</ele>
        <time>2018-06-14T19:41:13Z</time>
      </trkpt>
      <trkpt lat="43.86904" lon="1.79862">
        <ele>132</ele>
        <time>2018-06-14T19:41:14Z</time>
      </trkpt>
      <trkpt lat="43.86908" lon="1.79862">
        <ele>131</ele>
        <time>2018-06-14T19:41:15Z</time>
      </trkpt>
      <trkpt lat="43.86911" lon="1.79863">
        <ele>131</ele>
        <time>2018-06-14T19:41:16Z</time>
      </trkpt>
      <trkpt lat="43.86915" lon="1.79864">
        <ele>131</ele>
        <time>2018-06-14T19:41:17Z</time>
      </trkpt>
      <trkpt lat="43.86918" lon="1.79864">
        <ele>131</ele>
        <time>2018-06-14T19:41:18Z</time>
      </trkpt>
      <trkpt lat="43.86922" lon="1.79865">
        <ele>132</ele>
        <time>2018-06-14T19:41:19Z</time>
      </trkpt>
      <trkpt lat="43.86925" lon="1.79865">
        <ele>131</ele>
        <time>2018-06-14T19:41:20Z</time>
      </trkpt>
      <trkpt lat="43.86929" lon="1.79866">
        <ele>132</ele>
        <time>2018-06-14T19:41:21Z</time>
      </trkpt>
      <trkpt lat="43.86932" lon="1.79866">
        <ele>132</ele>
        <time>2018-06-14T19:41:22Z</time>
      </trkpt>
      <trkpt lat="43.86936" lon="1.79867">
        <ele>132</ele>
        <time>2018-06-14T19:41:23Z</time>
      </trkpt>
      <trkpt lat="43.8694" lon="1.79868">
        <ele>132</ele>
        <time>2018-06-14T19:41:24Z</time>
      </trkpt>
      <trkpt lat="43.86943" lon="1.79868">
        <ele>132</ele>
        <time>2018-06-14T19:41:25Z</time>
      </trkpt>
      <trkpt lat="43.86947" lon="1.79868">
        <ele>132</ele>
        <time>2018-06-14T19:41:26Z</time>
      </trkpt>
      <trkpt lat="43.86951" lon="1.79869">
        <ele>132</ele>
        <time>2018-06-14T19:41:27Z</time>
      </trkpt>
      <trkpt lat="43.86954" lon="1.7987">
        <ele>132</ele>
        <time>2018-06-14T19:41:28Z</time>
      </trkpt>
      <trkpt lat="43.86958" lon="1.7987">
        <ele>132</ele>
        <time>2018-06-14T19:41:29Z</time>
      </trkpt>
      <trkpt lat="43.86962" lon="1.79871">
        <ele>132</ele>
        <time>2018-06-14T19:41:30Z</time>
      </trkpt>
      <trkpt lat="43.86965" lon="1.79872">
        <ele>132</ele>
        <time>2018-06-14T19:41:31Z</time>
      </trkpt>
      <trkpt lat="43.86969" lon="1.79873">
        <ele>132</ele>
        <time>2018-06-14T19:41:32Z</time>
      </trkpt>
      <trkpt lat="43.86972" lon="1.79874">
        <ele>132</ele>
        <time>2018-06-14T19:41:33Z</time>
      </trkpt>
      <trkpt lat="43.86976" lon="1.79875">
        <ele>132</ele>
        <time>2018-06-14T19:41:34Z</time>
      </trkpt>
      <trkpt lat="43.8698" lon="1.79876">
        <ele>132</ele>
        <time>2018-06-14T19:41:35Z</time>
      </trkpt>
      <trkpt lat="43.86983" lon="1.79876">
        <ele>132</ele>
        <time>2018-06-14T19:41:36Z</time>
      </trkpt>
      <trkpt lat="43.86987" lon="1.79877">
        <ele>132</ele>
        <time>2018-06-14T19:41:37Z</time>
      </trkpt>
      <trkpt lat="43.8699" lon="1.79879">
        <ele>132</ele>
        <time>2018-06-14T19:41:38Z</time>
      </trkpt>
      <trkpt lat="43.86994" lon="1.7988">
        <ele>132</ele>
        <time>2018-06-14T19:41:39Z</time>
      </trkpt>
      <trkpt lat="43.86997" lon="1.79881">
        <ele>132</ele>
        <time>2018-06-14T19:41:40Z</time>
      </trkpt>
      <trkpt lat="43.87001" lon="1.79882">
        <ele>132</ele>
        <time>2018-06-14T19:41:41Z</time>
      </trkpt>
      <trkpt lat="43.87004" lon="1.79882">
        <ele>132</ele>
        <time>2018-06-14T19:41:42Z</time>
      </trkpt>
      <trkpt lat="43.87008" lon="1.79883">
        <ele>132</ele>
        <time>2018-06-14T19:41:43Z</time>
      </trkpt>
      <trkpt lat="43.87011" lon="1.79884">
        <ele>132</ele>
        <time>2018-06-14T19:41:44Z</time>
      </trkpt>
      <trkpt lat="43.87015" lon="1.79885">
        <ele>133</ele>
        <time>2018-06-14T19:41:45Z</time>
      </trkpt>
      <trkpt lat="43.87018" lon="1.79886">
        <ele>133</ele>
        <time>2018-06-14T19:41:46Z</time>
      </trkpt>
      <trkpt lat="43.87022" lon="1.79887">
        <ele>133</ele>
        <time>2018-06-14T19:41:47Z</time>
      </trkpt>
      <trkpt lat="43.87026" lon="1.79887">
        <ele>133</ele>
        <time>2018-06-14T19:41:48Z</time>
      </trkpt>
      <trkpt lat="43.87029" lon="1.79887">
        <ele>133</ele>
        <time>2018-06-14T19:41:49Z</time>
      </trkpt>
      <trkpt lat="43.87033" lon="1.79888">
        <ele>133</ele>
        <time>2018-06-14T19:41:50Z</time>
      </trkpt>
      <trkpt lat="43.87036" lon="1.79889">
        <ele>133</ele>
        <time>2018-06-14T19:41:51Z</time>
      </trkpt>
      <trkpt lat="43.8704" lon="1.79889">
        <ele>133</ele>
        <time>2018-06-14T19:41:52Z</time>
      </trkpt>
      <trkpt lat="43.87044" lon="1.7989">
        <ele>133</ele>
        <time>2018-06-14T19:41:53Z</time>
      </trkpt>
      <trkpt lat="43.87048" lon="1.79891">
        <ele>133</ele>
        <time>2018-06-14T19:41:54Z</time>
      </trkpt>
      <trkpt lat="43.87051" lon="1.79891">
        <ele>133</ele>
        <time>2018-06-14T19:41:55Z</time>
      </trkpt>
      <trkpt lat="43.87054" lon="1.79891">
        <ele>133</ele>
        <time>2018-06-14T19:41:56Z</time>
      </trkpt>
      <trkpt lat="43.87058" lon="1.79892">
        <ele>133</ele>
        <time>2018-06-14T19:41:57Z</time>
      </trkpt>
      <trkpt lat="43.87062" lon="1.79893">
        <ele>133</ele>
        <time>2018-06-14T19:41:58Z</time>
      </trkpt>
      <trkpt lat="43.87065" lon="1.79893">
        <ele>133</ele>
        <time>2018-06-14T19:41:59Z</time>
      </trkpt>
      <trkpt lat="43.87069" lon="1.79894">
        <ele>133</ele>
        <time>2018-06-14T19:42:00Z</time>
      </trkpt>
      <trkpt lat="43.87072" lon="1.79895">
        <ele>133</ele>
        <time>2018-06-14T19:42:01Z</time>
      </trkpt>
      <trkpt lat="43.87076" lon="1.79895">
        <ele>133</ele>
        <time>2018-06-14T19:42:02Z</time>
      </trkpt>
      <trkpt lat="43.8708" lon="1.79896">
        <ele>133</ele>
        <time>2018-06-14T19:42:03Z</time>
      </trkpt>
      <trkpt lat="43.87083" lon="1.79896">
        <ele>133</ele>
        <time>2018-06-14T19:42:04Z</time>
      </trkpt>
      <trkpt lat="43.87087" lon="1.79897">
        <ele>133</ele>
        <time>2018-06-14T19:42:05Z</time>
      </trkpt>
      <trkpt lat="43.87091" lon="1.79898">
        <ele>133</ele>
        <time>2018-06-14T19:42:06Z</time>
      </trkpt>
      <trkpt lat="43.87094" lon="1.79898">
        <ele>133</ele>
        <time>2018-06-14T19:42:07Z</time>
      </trkpt>
      <trkpt lat="43.87098" lon="1.79899">
        <ele>133</ele>
        <time>2018-06-14T19:42:08Z</time>
      </trkpt>
      <trkpt lat="43.87102" lon="1.799">
        <ele>133</ele>
        <time>2018-06-14T19:42:09Z</time>
      </trkpt>
      <trkpt lat="43.87105" lon="1.79901">
        <ele>133</ele>
        <time>2018-06-14T19:42:10Z</time>
      </trkpt>
      <trkpt lat="43.87109" lon="1.79902">
        <ele>133</ele>
        <time>2018-06-14T19:42:11Z</time>
      </trkpt>
      <trkpt lat="43.87112" lon="1.79903">
        <ele>133</ele>
        <time>2018-06-14T19:42:12Z</time>
      </trkpt>
      <trkpt lat="43.87116" lon="1.79904">
        <ele>133</ele>
        <time>2018-06-14T19:42:13Z</time>
      </trkpt>
      <trkpt lat="43.87119" lon="1.79905">
        <ele>133</ele>
        <time>2018-06-14T19:42:14Z</time>
      </trkpt>
      <trkpt lat="43.87122" lon="1.79906">
        <ele>133</ele>
        <time>2018-06-14T19:42:15Z</time>
      </trkpt>
      <trkpt lat="43.87124" lon="1.79907">
        <ele>133</ele>
        <time>2018-06-14T19:42:16Z</time>
      </trkpt>
      <trkpt lat="43.87126" lon="1.79908">
        <ele>133</ele>
        <time>2018-06-14T19:42:17Z</time>
      </trkpt>
      <trkpt lat="43.87129" lon="1.79908">
        <ele>133</ele>
        <time>2018-06-14T19:42:18Z</time>
      </trkpt>
      <trkpt lat="43.87131" lon="1.79909">
        <ele>133</ele>
        <time>2018-06-14T19:42:19Z</time>
      </trkpt>
      <trkpt lat="43.87133" lon="1.79909">
        <ele>133</ele>
        <time>2018-06-14T19:42:20Z</time>
      </trkpt>
      <trkpt lat="43.87135" lon="1.7991">
        <ele>133</ele>
        <time>2018-06-14T19:42:21Z</time>
      </trkpt>
      <trkpt lat="43.87137" lon="1.79911">
        <ele>133</ele>
        <time>2018-06-14T19:42:22Z</time>
      </trkpt>
      <trkpt lat="43.87139" lon="1.79912">
        <ele>133</ele>
        <time>2018-06-14T19:42:23Z</time>
      </trkpt>
      <trkpt lat="43.87141" lon="1.79913">
        <ele>133</ele>
        <time>2018-06-14T19:42:24Z</time>
      </trkpt>
      <trkpt lat="43.87144" lon="1.79914">
        <ele>133</ele>
        <time>2018-06-14T19:42:25Z</time>
      </trkpt>
      <trkpt lat="43.87147" lon="1.79913">
        <ele>133</ele>
        <time>2018-06-14T19:42:26Z</time>
      </trkpt>
      <trkpt lat="43.8715" lon="1.79912">
        <ele>133</ele>
        <time>2018-06-14T19:42:27Z</time>
      </trkpt>
      <trkpt lat="43.87153" lon="1.79911">
        <ele>133</ele>
        <time>2018-06-14T19:42:28Z</time>
      </trkpt>
      <trkpt lat="43.87156" lon="1.7991">
        <ele>133</ele>
        <time>2018-06-14T19:42:29Z</time>
      </trkpt>
      <trkpt lat="43.8716" lon="1.79909">
        <ele>133</ele>
        <time>2018-06-14T19:42:30Z</time>
      </trkpt>
      <trkpt lat="43.87163" lon="1.79908">
        <ele>133</ele>
        <time>2018-06-14T19:42:31Z</time>
      </trkpt>
      <trkpt lat="43.87166" lon="1.79907">
        <ele>133</ele>
        <time>2018-06-14T19:42:32Z</time>
      </trkpt>
      <trkpt lat="43.8717" lon="1.79907">
        <ele>133</ele>
        <time>2018-06-14T19:42:33Z</time>
      </trkpt>
      <trkpt lat="43.87174" lon="1.79908">
        <ele>133</ele>
        <time>2018-06-14T19:42:34Z</time>
      </trkpt>
      <trkpt lat="43.87178" lon="1.79909">
        <ele>133</ele>
        <time>2018-06-14T19:42:35Z</time>
      </trkpt>
      <trkpt lat="43.87182" lon="1.7991">
        <ele>134</ele>
        <time>2018-06-14T19:42:36Z</time>
      </trkpt>
      <trkpt lat="43.87185" lon="1.79912">
        <ele>134</ele>
        <time>2018-06-14T19:42:37Z</time>
      </trkpt>
      <trkpt lat="43.87189" lon="1.79914">
        <ele>134</ele>
        <time>2018-06-14T19:42:38Z</time>
      </trkpt>
      <trkpt lat="43.87192" lon="1.79917">
        <ele>134</ele>
        <time>2018-06-14T19:42:39Z</time>
      </trkpt>
      <trkpt lat="43.87195" lon="1.7992">
        <ele>134</ele>
        <time>2018-06-14T19:42:40Z</time>
      </trkpt>
      <trkpt lat="43.87199" lon="1.79924">
        <ele>133</ele>
        <time>2018-06-14T19:42:41Z</time>
      </trkpt>
      <trkpt lat="43.87202" lon="1.79927">
        <ele>134</ele>
        <time>2018-06-14T19:42:42Z</time>
      </trkpt>
      <trkpt lat="43.87205" lon="1.79931">
        <ele>134</ele>
        <time>2018-06-14T19:42:43Z</time>
      </trkpt>
      <trkpt lat="43.87208" lon="1.79934">
        <ele>134</ele>
        <time>2018-06-14T19:42:44Z</time>
      </trkpt>
      <trkpt lat="43.87212" lon="1.79938">
        <ele>134</ele>
        <time>2018-06-14T19:42:45Z</time>
      </trkpt>
      <trkpt lat="43.87215" lon="1.79942">
        <ele>134</ele>
        <time>2018-06-14T19:42:46Z</time>
      </trkpt>
      <trkpt lat="43.87219" lon="1.79945">
        <ele>134</ele>
        <time>2018-06-14T19:42:47Z</time>
      </trkpt>
      <trkpt lat="43.87222" lon="1.79948">
        <ele>134</ele>
        <time>2018-06-14T19:42:48Z</time>
      </trkpt>
      <trkpt lat="43.87226" lon="1.79951">
        <ele>134</ele>
        <time>2018-06-14T19:42:49Z</time>
      </trkpt>
      <trkpt lat="43.8723" lon="1.79954">
        <ele>134</ele>
        <time>2018-06-14T19:42:50Z</time>
      </trkpt>
      <trkpt lat="43.87234" lon="1.79956">
        <ele>134</ele>
        <time>2018-06-14T19:42:51Z</time>
      </trkpt>
      <trkpt lat="43.87238" lon="1.79958">
        <ele>134</ele>
        <time>2018-06-14T19:42:52Z</time>
      </trkpt>
      <trkpt lat="43.87242" lon="1.7996">
        <ele>134</ele>
        <time>2018-06-14T19:42:53Z</time>
      </trkpt>
      <trkpt lat="43.87246" lon="1.79961">
        <ele>134</ele>
        <time>2018-06-14T19:42:54Z</time>
      </trkpt>
      <trkpt lat="43.87251" lon="1.79962">
        <ele>134</ele>
        <time>2018-06-14T19:42:55Z</time>
      </trkpt>
      <trkpt lat="43.87255" lon="1.79964">
        <ele>134</ele>
        <time>2018-06-14T19:42:56Z</time>
      </trkpt>
      <trkpt lat="43.87259" lon="1.79965">
        <ele>134</ele>
        <time>2018-06-14T19:42:57Z</time>
      </trkpt>
      <trkpt lat="43.87264" lon="1.79966">
        <ele>134</ele>
        <time>2018-06-14T19:42:58Z</time>
      </trkpt>
      <trkpt lat="43.87268" lon="1.79966">
        <ele>134</ele>
        <time>2018-06-14T19:42:59Z</time>
      </trkpt>
      <trkpt lat="43.87273" lon="1.79967">
        <ele>134</ele>
        <time>2018-06-14T19:43:00Z</time>
      </trkpt>
      <trkpt lat="43.87277" lon="1.79968">
        <ele>134</ele>
        <time>2018-06-14T19:43:01Z</time>
      </trkpt>
      <trkpt lat="43.87282" lon="1.79969">
        <ele>134</ele>
        <time>2018-06-14T19:43:02Z</time>
      </trkpt>
      <trkpt lat="43.87286" lon="1.79969">
        <ele>134</ele>
        <time>2018-06-14T19:43:03Z</time>
      </trkpt>
      <trkpt lat="43.8729" lon="1.7997">
        <ele>134</ele>
        <time>2018-06-14T19:43:04Z</time>
      </trkpt>
      <trkpt lat="43.87294" lon="1.79971">
        <ele>134</ele>
        <time>2018-06-14T19:43:05Z</time>
      </trkpt>
      <trkpt lat="43.87299" lon="1.79971">
        <ele>134</ele>
        <time>2018-06-14T19:43:06Z</time>
      </trkpt>
      <trkpt lat="43.87303" lon="1.79972">
        <ele>134</ele>
        <time>2018-06-14T19:43:07Z</time>
      </trkpt>
      <trkpt lat="43.87307" lon="1.79972">
        <ele>134</ele>
        <time>2018-06-14T19:43:08Z</time>
      </trkpt>
      <trkpt lat="43.87312" lon="1.79973">
        <ele>135</ele>
        <time>2018-06-14T19:43:09Z</time>
      </trkpt>
      <trkpt lat="43.87316" lon="1.79973">
        <ele>134</ele>
        <time>2018-06-14T19:43:10Z</time>
      </trkpt>
      <trkpt lat="43.87321" lon="1.79974">
        <ele>135</ele>
        <time>2018-06-14T19:43:11Z</time>
      </trkpt>
      <trkpt lat="43.87325" lon="1.79975">
        <ele>135</ele>
        <time>2018-06-14T19:43:12Z</time>
      </trkpt>
      <trkpt lat="43.8733" lon="1.79976">
        <ele>135</ele>
        <time>2018-06-14T19:43:13Z</time>
      </trkpt>
      <trkpt lat="43.87335" lon="1.79976">
        <ele>135</ele>
        <time>2018-06-14T19:43:14Z</time>
      </trkpt>
      <trkpt lat="43.87339" lon="1.79977">
        <ele>135</ele>
        <time>2018-06-14T19:43:15Z</time>
      </trkpt>
      <trkpt lat="43.87344" lon="1.79978">
        <ele>135</ele>
        <time>2018-06-14T19:43:16Z</time>
      </trkpt>
      <trkpt lat="43.87348" lon="1.79978">
        <ele>135</ele>
        <time>2018-06-14T19:43:17Z</time>
      </trkpt>
      <trkpt lat="43.87353" lon="1.79979">
        <ele>135</ele>
        <time>2018-06-14T19:43:18Z</time>
      </trkpt>
      <trkpt lat="43.87357" lon="1.79979">
        <ele>135</ele>
        <time>2018-06-14T19:43:19Z</time>
      </trkpt>
      <trkpt lat="43.87361" lon="1.7998">
        <ele>135</ele>
        <time>2018-06-14T19:43:20Z</time>
      </trkpt>
      <trkpt lat="43.87366" lon="1.7998">
        <ele>135</ele>
        <time>2018-06-14T19:43:21Z</time>
      </trkpt>
      <trkpt lat="43.8737" lon="1.79981">
        <ele>135</ele>
        <time>2018-06-14T19:43:22Z</time>
      </trkpt>
      <trkpt lat="43.87374" lon="1.79981">
        <ele>135</ele>
        <time>2018-06-14T19:43:23Z</time>
      </trkpt>
      <trkpt lat="43.87379" lon="1.79982">
        <ele>135</ele>
        <time>2018-06-14T19:43:24Z</time>
      </trkpt>
      <trkpt lat="43.87383" lon="1.79982">
        <ele>135</ele>
        <time>2018-06-14T19:43:25Z</time>
      </trkpt>
      <trkpt lat="43.87388" lon="1.79982">
        <ele>135</ele>
        <time>2018-06-14T19:43:26Z</time>
      </trkpt>
      <trkpt lat="43.87392" lon="1.79983">
        <ele>135</ele>
        <time>2018-06-14T19:43:27Z</time>
      </trkpt>
      <trkpt lat="43.87396" lon="1.79983">
        <ele>135</ele>
        <time>2018-06-14T19:43:28Z</time>
      </trkpt>
      <trkpt lat="43.87401" lon="1.79983">
        <ele>136</ele>
        <time>2018-06-14T19:43:29Z</time>
      </trkpt>
      <trkpt lat="43.87405" lon="1.79984">
        <ele>136</ele>
        <time>2018-06-14T19:43:30Z</time>
      </trkpt>
      <trkpt lat="43.8741" lon="1.79984">
        <ele>135</ele>
        <time>2018-06-14T19:43:31Z</time>
      </trkpt>
      <trkpt lat="43.87414" lon="1.79984">
        <ele>135</ele>
        <time>2018-06-14T19:43:32Z</time>
      </trkpt>
      <trkpt lat="43.87418" lon="1.79984">
        <ele>135</ele>
        <time>2018-06-14T19:43:33Z</time>
      </trkpt>
      <trkpt lat="43.87423" lon="1.79984">
        <ele>135</ele>
        <time>2018-06-14T19:43:34Z</time>
      </trkpt>
      <trkpt lat="43.87427" lon="1.79985">
        <ele>135</ele>
        <time>2018-06-14T19:43:35Z</time>
      </trkpt>
      <trkpt lat="43.87432" lon="1.79985">
        <ele>135</ele>
        <time>2018-06-14T19:43:36Z</time>
      </trkpt>
      <trkpt lat="43.87436" lon="1.79985">
        <ele>135</ele>
        <time>2018-06-14T19:43:37Z</time>
      </trkpt>
      <trkpt lat="43.87441" lon="1.79986">
        <ele>136</ele>
        <time>2018-06-14T19:43:38Z</time>
      </trkpt>
      <trkpt lat="43.87445" lon="1.79986">
        <ele>136</ele>
        <time>2018-06-14T19:43:39Z</time>
      </trkpt>
      <trkpt lat="43.87449" lon="1.79986">
        <ele>135</ele>
        <time>2018-06-14T19:43:40Z</time>
      </trkpt>
      <trkpt lat="43.87453" lon="1.79986">
        <ele>135</ele>
        <time>2018-06-14T19:43:41Z</time>
      </trkpt>
      <trkpt lat="43.87458" lon="1.79985">
        <ele>135</ele>
        <time>2018-06-14T19:43:42Z</time>
      </trkpt>
      <trkpt lat="43.87462" lon="1.79985">
        <ele>135</ele>
        <time>2018-06-14T19:43:43Z</time>
      </trkpt>
      <trkpt lat="43.87466" lon="1.79984">
        <ele>135</ele>
        <time>2018-06-14T19:43:44Z</time>
      </trkpt>
      <trkpt lat="43.87471" lon="1.79983">
        <ele>135</ele>
        <time>2018-06-14T19:43:45Z</time>
      </trkpt>
      <trkpt lat="43.87475" lon="1.79983">
        <ele>136</ele>
        <time>2018-06-14T19:43:46Z</time>
      </trkpt>
      <trkpt lat="43.8748" lon="1.79982">
        <ele>136</ele>
        <time>2018-06-14T19:43:47Z</time>
      </trkpt>
      <trkpt lat="43.87484" lon="1.79981">
        <ele>136</ele>
        <time>2018-06-14T19:43:48Z</time>
      </trkpt>
      <trkpt lat="43.87489" lon="1.79981">
        <ele>136</ele>
        <time>2018-06-14T19:43:49Z</time>
      </trkpt>
      <trkpt lat="43.87493" lon="1.7998">
        <ele>136</ele>
        <time>2018-06-14T19:43:50Z</time>
      </trkpt>
      <trkpt lat="43.87497" lon="1.79979">
        <ele>136</ele>
        <time>2018-06-14T19:43:51Z</time>
      </trkpt>
      <trkpt lat="43.87501" lon="1.79979">
        <ele>136</ele>
        <time>2018-06-14T19:43:52Z</time>
      </trkpt>
      <trkpt lat="43.87506" lon="1.79978">
        <ele>136</ele>
        <time>2018-06-14T19:43:53Z</time>
      </trkpt>
      <trkpt lat="43.8751" lon="1.79978">
        <ele>136</ele>
        <time>2018-06-14T19:43:54Z</time>
      </trkpt>
      <trkpt lat="43.87515" lon="1.79978">
        <ele>136</ele>
        <time>2018-06-14T19:43:55Z</time>
      </trkpt>
      <trkpt lat="43.87519" lon="1.79979">
        <ele>136</ele>
        <time>2018-06-14T19:43:56Z</time>
      </trkpt>
      <trkpt lat="43.87524" lon="1.79981">
        <ele>136</ele>
        <time>2018-06-14T19:43:57Z</time>
      </trkpt>
      <trkpt lat="43.87528" lon="1.79981">
        <ele>136</ele>
        <time>2018-06-14T19:43:58Z</time>
      </trkpt>
      <trkpt lat="43.87533" lon="1.79982">
        <ele>136</ele>
        <time>2018-06-14T19:43:59Z</time>
      </trkpt>
      <trkpt lat="43.87537" lon="1.79982">
        <ele>136</ele>
        <time>2018-06-14T19:44:00Z</time>
      </trkpt>
      <trkpt lat="43.87542" lon="1.79982">
        <ele>136</ele>
        <time>2018-06-14T19:44:01Z</time>
      </trkpt>
      <trkpt lat="43.87547" lon="1.79983">
        <ele>136</ele>
        <time>2018-06-14T19:44:02Z</time>
      </trkpt>
      <trkpt lat="43.87551" lon="1.79984">
        <ele>136</ele>
        <time>2018-06-14T19:44:03Z</time>
      </trkpt>
      <trkpt lat="43.87555" lon="1.79984">
        <ele>136</ele>
        <time>2018-06-14T19:44:04Z</time>
      </trkpt>
      <trkpt lat="43.8756" lon="1.79985">
        <ele>137</ele>
        <time>2018-06-14T19:44:05Z</time>
      </trkpt>
      <trkpt lat="43.87564" lon="1.79986">
        <ele>137</ele>
        <time>2018-06-14T19:44:06Z</time>
      </trkpt>
      <trkpt lat="43.87569" lon="1.79987">
        <ele>137</ele>
        <time>2018-06-14T19:44:07Z</time>
      </trkpt>
      <trkpt lat="43.87573" lon="1.79987">
        <ele>137</ele>
        <time>2018-06-14T19:44:08Z</time>
      </trkpt>
      <trkpt lat="43.87578" lon="1.79988">
        <ele>137</ele>
        <time>2018-06-14T19:44:09Z</time>
      </trkpt>
      <trkpt lat="43.87582" lon="1.79989">
        <ele>137</ele>
        <time>2018-06-14T19:44:10Z</time>
      </trkpt>
      <trkpt lat="43.87587" lon="1.79989">
        <ele>137</ele>
        <time>2018-06-14T19:44:11Z</time>
      </trkpt>
      <trkpt lat="43.87591" lon="1.7999">
        <ele>137</ele>
        <time>2018-06-14T19:44:12Z</time>
      </trkpt>
      <trkpt lat="43.87596" lon="1.79991">
        <ele>137</ele>
        <time>2018-06-14T19:44:13Z</time>
      </trkpt>
      <trkpt lat="43.87601" lon="1.79991">
        <ele>137</ele>
        <time>2018-06-14T19:44:14Z</time>
      </trkpt>
      <trkpt lat="43.87605" lon="1.79992">
        <ele>137</ele>
        <time>2018-06-14T19:44:15Z</time>
      </trkpt>
      <trkpt lat="43.87609" lon="1.79993">
        <ele>137</ele>
        <time>2018-06-14T19:44:16Z</time>
      </trkpt>
      <trkpt lat="43.87614" lon="1.79994">
        <ele>137</ele>
        <time>2018-06-14T19:44:17Z</time>
      </trkpt>
      <trkpt lat="43.87619" lon="1.79995">
        <ele>137</ele>
        <time>2018-06-14T19:44:18Z</time>
      </trkpt>
      <trkpt lat="43.87623" lon="1.79996">
        <ele>137</ele>
        <time>2018-06-14T19:44:19Z</time>
      </trkpt>
      <trkpt lat="43.87628" lon="1.79997">
        <ele>137</ele>
        <time>2018-06-14T19:44:20Z</time>
      </trkpt>
      <trkpt lat="43.87632" lon="1.79998">
        <ele>137</ele>
        <time>2018-06-14T19:44:21Z</time>
      </trkpt>
      <trkpt lat="43.87637" lon="1.79999">
        <ele>137</ele>
        <time>2018-06-14T19:44:22Z</time>
      </trkpt>
      <trkpt lat="43.87641" lon="1.8">
        <ele>137</ele>
        <time>2018-06-14T19:44:23Z</time>
      </trkpt>
      <trkpt lat="43.87646" lon="1.80001">
        <ele>137</ele>
        <time>2018-06-14T19:44:24Z</time>
      </trkpt>
      <trkpt lat="43.8765" lon="1.80002">
        <ele>137</ele>
        <time>2018-06-14T19:44:25Z</time>
      </trkpt>
      <trkpt lat="43.87655" lon="1.80003">
        <ele>137</ele>
        <time>2018-06-14T19:44:26Z</time>
      </trkpt>
      <trkpt lat="43.8766" lon="1.80005">
        <ele>137</ele>
        <time>2018-06-14T19:44:27Z</time>
      </trkpt>
      <trkpt lat="43.87664" lon="1.80006">
        <ele>137</ele>
        <time>2018-06-14T19:44:28Z</time>
      </trkpt>
      <trkpt lat="43.87668" lon="1.80008">
        <ele>138</ele>
        <time>2018-06-14T19:44:29Z</time>
      </trkpt>
      <trkpt lat="43.87672" lon="1.8001">
        <ele>138</ele>
        <time>2018-06-14T19:44:30Z</time>
      </trkpt>
      <trkpt lat="43.87677" lon="1.80011">
        <ele>138</ele>
        <time>2018-06-14T19:44:31Z</time>
      </trkpt>
      <trkpt lat="43.87681" lon="1.80013">
        <ele>138</ele>
        <time>2018-06-14T19:44:32Z</time>
      </trkpt>
      <trkpt lat="43.87685" lon="1.80014">
        <ele>138</ele>
        <time>2018-06-14T19:44:33Z</time>
      </trkpt>
      <trkpt lat="43.87689" lon="1.80016">
        <ele>138</ele>
        <time>2018-06-14T19:44:34Z</time>
      </trkpt>
      <trkpt lat="43.87693" lon="1.80017">
        <ele>138</ele>
        <time>2018-06-14T19:44:35Z</time>
      </trkpt>
      <trkpt lat="43.87698" lon="1.80019">
        <ele>138</ele>
        <time>2018-06-14T19:44:36Z</time>
      </trkpt>
      <trkpt lat="43.87702" lon="1.8002">
        <ele>138</ele>
        <time>2018-06-14T19:44:37Z</time>
      </trkpt>
      <trkpt lat="43.87706" lon="1.80021">
        <ele>138</ele>
        <time>2018-06-14T19:44:38Z</time>
      </trkpt>
      <trkpt lat="43.8771" lon="1.80022">
        <ele>138</ele>
        <time>2018-06-14T19:44:39Z</time>
      </trkpt>
      <trkpt lat="43.87714" lon="1.80023">
        <ele>138</ele>
        <time>2018-06-14T19:44:40Z</time>
      </trkpt>
      <trkpt lat="43.87719" lon="1.80023">
        <ele>139</ele>
        <time>2018-06-14T19:44:41Z</time>
      </trkpt>
      <trkpt lat="43.87723" lon="1.80024">
        <ele>139</ele>
        <time>2018-06-14T19:44:42Z</time>
      </trkpt>
      <trkpt lat="43.87728" lon="1.80024">
        <ele>139</ele>
        <time>2018-06-14T19:44:43Z</time>
      </trkpt>
      <trkpt lat="43.87732" lon="1.80024">
        <ele>139</ele>
        <time>2018-06-14T19:44:44Z</time>
      </trkpt>
      <trkpt lat="43.87736" lon="1.80024">
        <ele>139</ele>
        <time>2018-06-14T19:44:45Z</time>
      </trkpt>
      <trkpt lat="43.87741" lon="1.80023">
        <ele>139</ele>
        <time>2018-06-14T19:44:46Z</time>
      </trkpt>
      <trkpt lat="43.87745" lon="1.80023">
        <ele>139</ele>
        <time>2018-06-14T19:44:47Z</time>
      </trkpt>
      <trkpt lat="43.8775" lon="1.80022">
        <ele>139</ele>
        <time>2018-06-14T19:44:48Z</time>
      </trkpt>
      <trkpt lat="43.87754" lon="1.80021">
        <ele>139</ele>
        <time>2018-06-14T19:44:49Z</time>
      </trkpt>
      <trkpt lat="43.87758" lon="1.8002">
        <ele>139</ele>
        <time>2018-06-14T19:44:50Z</time>
      </trkpt>
      <trkpt lat="43.87763" lon="1.80019">
        <ele>139</ele>
        <time>2018-06-14T19:44:51Z</time>
      </trkpt>
      <trkpt lat="43.87767" lon="1.80018">
        <ele>139</ele>
        <time>2018-06-14T19:44:52Z</time>
      </trkpt>
      <trkpt lat="43.87771" lon="1.80017">
        <ele>139</ele>
        <time>2018-06-14T19:44:53Z</time>
      </trkpt>
      <trkpt lat="43.87776" lon="1.80016">
        <ele>139</ele>
        <time>2018-06-14T19:44:54Z</time>
      </trkpt>
      <trkpt lat="43.8778" lon="1.80015">
        <ele>139</ele>
        <time>2018-06-14T19:44:55Z</time>
      </trkpt>
      <trkpt lat="43.87784" lon="1.80013">
        <ele>139</ele>
        <time>2018-06-14T19:44:56Z</time>
      </trkpt>
      <trkpt lat="43.87789" lon="1.80012">
        <ele>139</ele>
        <time>2018-06-14T19:44:57Z</time>
      </trkpt>
      <trkpt lat="43.87793" lon="1.80011">
        <ele>139</ele>
        <time>2018-06-14T19:44:58Z</time>
      </trkpt>
      <trkpt lat="43.87798" lon="1.80009">
        <ele>139</ele>
        <time>2018-06-14T19:44:59Z</time>
      </trkpt>
      <trkpt lat="43.87802" lon="1.80008">
        <ele>140</ele>
        <time>2018-06-14T19:45:00Z</time>
      </trkpt>
      <trkpt lat="43.87807" lon="1.80006">
        <ele>140</ele>
        <time>2018-06-14T19:45:01Z</time>
      </trkpt>
      <trkpt lat="43.87811" lon="1.80004">
        <ele>140</ele>
        <time>2018-06-14T19:45:02Z</time>
      </trkpt>
      <trkpt lat="43.87815" lon="1.80002">
        <ele>139</ele>
        <time>2018-06-14T19:45:03Z</time>
      </trkpt>
      <trkpt lat="43.8782" lon="1.80001">
        <ele>139</ele>
        <time>2018-06-14T19:45:04Z</time>
      </trkpt>
      <trkpt lat="43.87824" lon="1.79999">
        <ele>140</ele>
        <time>2018-06-14T19:45:05Z</time>
      </trkpt>
      <trkpt lat="43.87828" lon="1.79996">
        <ele>140</ele>
        <time>2018-06-14T19:45:06Z</time>
      </trkpt>
      <trkpt lat="43.87833" lon="1.79994">
        <ele>140</ele>
        <time>2018-06-14T19:45:07Z</time>
      </trkpt>
      <trkpt lat="43.87837" lon="1.79992">
        <ele>140</ele>
        <time>2018-06-14T19:45:08Z</time>
      </trkpt>
      <trkpt lat="43.87841" lon="1.7999">
        <ele>140</ele>
        <time>2018-06-14T19:45:09Z</time>
      </trkpt>
      <trkpt lat="43.87846" lon="1.79988">
        <ele>140</ele>
        <time>2018-06-14T19:45:10Z</time>
      </trkpt>
      <trkpt lat="43.8785" lon="1.79986">
        <ele>140</ele>
        <time>2018-06-14T19:45:11Z</time>
      </trkpt>
      <trkpt lat="43.87854" lon="1.79983">
        <ele>140</ele>
        <time>2018-06-14T19:45:12Z</time>
      </trkpt>
      <trkpt lat="43.87857" lon="1.79982">
        <ele>140</ele>
        <time>2018-06-14T19:45:13Z</time>
      </trkpt>
      <trkpt lat="43.87861" lon="1.7998">
        <ele>140</ele>
        <time>2018-06-14T19:45:14Z</time>
      </trkpt>
      <trkpt lat="43.87866" lon="1.79979">
        <ele>140</ele>
        <time>2018-06-14T19:45:15Z</time>
      </trkpt>
      <trkpt lat="43.8787" lon="1.79979">
        <ele>140</ele>
        <time>2018-06-14T19:45:16Z</time>
      </trkpt>
      <trkpt lat="43.87874" lon="1.79978">
        <ele>140</ele>
        <time>2018-06-14T19:45:17Z</time>
      </trkpt>
      <trkpt lat="43.87878" lon="1.79979">
        <ele>140</ele>
        <time>2018-06-14T19:45:18Z</time>
      </trkpt>
      <trkpt lat="43.87882" lon="1.7998">
        <ele>140</ele>
        <time>2018-06-14T19:45:19Z</time>
      </trkpt>
      <trkpt lat="43.87886" lon="1.7998">
        <ele>140</ele>
        <time>2018-06-14T19:45:20Z</time>
      </trkpt>
      <trkpt lat="43.8789" lon="1.79981">
        <ele>140</ele>
        <time>2018-06-14T19:45:21Z</time>
      </trkpt>
      <trkpt lat="43.87894" lon="1.79982">
        <ele>140</ele>
        <time>2018-06-14T19:45:22Z</time>
      </trkpt>
      <trkpt lat="43.87898" lon="1.79983">
        <ele>140</ele>
        <time>2018-06-14T19:45:23Z</time>
      </trkpt>
      <trkpt lat="43.87902" lon="1.79984">
        <ele>140</ele>
        <time>2018-06-14T19:45:24Z</time>
      </trkpt>
      <trkpt lat="43.87906" lon="1.79985">
        <ele>141</ele>
        <time>2018-06-14T19:45:25Z</time>
      </trkpt>
      <trkpt lat="43.8791" lon="1.79986">
        <ele>141</ele>
        <time>2018-06-14T19:45:26Z</time>
      </trkpt>
      <trkpt lat="43.87914" lon="1.79987">
        <ele>141</ele>
        <time>2018-06-14T19:45:27Z</time>
      </trkpt>
      <trkpt lat="43.87918" lon="1.79988">
        <ele>141</ele>
        <time>2018-06-14T19:45:28Z</time>
      </trkpt>
      <trkpt lat="43.87922" lon="1.79989">
        <ele>141</ele>
        <time>2018-06-14T19:45:29Z</time>
      </trkpt>
      <trkpt lat="43.87926" lon="1.7999">
        <ele>141</ele>
        <time>2018-06-14T19:45:30Z</time>
      </trkpt>
      <trkpt lat="43.87931" lon="1.79991">
        <ele>141</ele>
        <time>2018-06-14T19:45:31Z</time>
      </trkpt>
      <trkpt lat="43.87935" lon="1.79992">
        <ele>141</ele>
        <time>2018-06-14T19:45:32Z</time>
      </trkpt>
      <trkpt lat="43.87939" lon="1.79993">
        <ele>141</ele>
        <time>2018-06-14T19:45:33Z</time>
      </trkpt>
      <trkpt lat="43.87944" lon="1.79993">
        <ele>141</ele>
        <time>2018-06-14T19:45:34Z</time>
      </trkpt>
      <trkpt lat="43.87948" lon="1.79994">
        <ele>141</ele>
        <time>2018-06-14T19:45:35Z</time>
      </trkpt>
      <trkpt lat="43.87952" lon="1.79994">
        <ele>141</ele>
        <time>2018-06-14T19:45:36Z</time>
      </trkpt>
      <trkpt lat="43.87956" lon="1.79995">
        <ele>141</ele>
        <time>2018-06-14T19:45:37Z</time>
      </trkpt>
      <trkpt lat="43.87961" lon="1.79995">
        <ele>141</ele>
        <time>2018-06-14T19:45:38Z</time>
      </trkpt>
      <trkpt lat="43.87965" lon="1.79996">
        <ele>141</ele>
        <time>2018-06-14T19:45:39Z</time>
      </trkpt>
      <trkpt lat="43.8797" lon="1.79997">
        <ele>141</ele>
        <time>2018-06-14T19:45:40Z</time>
      </trkpt>
      <trkpt lat="43.87975" lon="1.79997">
        <ele>141</ele>
        <time>2018-06-14T19:45:41Z</time>
      </trkpt>
      <trkpt lat="43.87979" lon="1.79998">
        <ele>141</ele>
        <time>2018-06-14T19:45:42Z</time>
      </trkpt>
      <trkpt lat="43.87984" lon="1.79998">
        <ele>141</ele>
        <time>2018-06-14T19:45:43Z</time>
      </trkpt>
      <trkpt lat="43.87989" lon="1.79998">
        <ele>141</ele>
        <time>2018-06-14T19:45:44Z</time>
      </trkpt>
      <trkpt lat="43.87993" lon="1.79998">
        <ele>141</ele>
        <time>2018-06-14T19:45:45Z</time>
      </trkpt>
      <trkpt lat="43.87998" lon="1.79998">
        <ele>141</ele>
        <time>2018-06-14T19:45:46Z</time>
      </trkpt>
      <trkpt lat="43.88002" lon="1.79999">
        <ele>141</ele>
        <time>2018-06-14T19:45:47Z</time>
      </trkpt>
      <trkpt lat="43.88007" lon="1.79999">
        <ele>141</ele>
        <time>2018-06-14T19:45:48Z</time>
      </trkpt>
      <trkpt lat="43.88012" lon="1.79999">
        <ele>141</ele>
        <time>2018-06-14T19:45:49Z</time>
      </trkpt>
      <trkpt lat="43.88016" lon="1.79999">
        <ele>141</ele>
        <time>2018-06-14T19:45:50Z</time>
      </trkpt>
      <trkpt lat="43.8802" lon="1.79999">
        <ele>141</ele>
        <time>2018-06-14T19:45:51Z</time>
      </trkpt>
      <trkpt lat="43.88025" lon="1.79999">
        <ele>141</ele>
        <time>2018-06-14T19:45:52Z</time>
      </trkpt>
      <trkpt lat="43.8803" lon="1.8">
        <ele>141</ele>
        <time>2018-06-14T19:45:53Z</time>
      </trkpt>
      <trkpt lat="43.88035" lon="1.8">
        <ele>142</ele>
        <time>2018-06-14T19:45:54Z</time>
      </trkpt>
      <trkpt lat="43.88039" lon="1.8">
        <ele>142</ele>
        <time>2018-06-14T19:45:55Z</time>
      </trkpt>
      <trkpt lat="43.88044" lon="1.80001">
        <ele>142</ele>
        <time>2018-06-14T19:45:56Z</time>
      </trkpt>
      <trkpt lat="43.88048" lon="1.80001">
        <ele>142</ele>
        <time>2018-06-14T19:45:57Z</time>
      </trkpt>
      <trkpt lat="43.88053" lon="1.80002">
        <ele>142</ele>
        <time>2018-06-14T19:45:58Z</time>
      </trkpt>
      <trkpt lat="43.88057" lon="1.80002">
        <ele>142</ele>
        <time>2018-06-14T19:45:59Z</time>
      </trkpt>
      <trkpt lat="43.88062" lon="1.80003">
        <ele>142</ele>
        <time>2018-06-14T19:46:00Z</time>
      </trkpt>
      <trkpt lat="43.88066" lon="1.80004">
        <ele>142</ele>
        <time>2018-06-14T19:46:01Z</time>
      </trkpt>
      <trkpt lat="43.88071" lon="1.80005">
        <ele>142</ele>
        <time>2018-06-14T19:46:02Z</time>
      </trkpt>
      <trkpt lat="43.88075" lon="1.80005">
        <ele>142</ele>
        <time>2018-06-14T19:46:03Z</time>
      </trkpt>
      <trkpt lat="43.8808" lon="1.80005">
        <ele>142</ele>
        <time>2018-06-14T19:46:04Z</time>
      </trkpt>
      <trkpt lat="43.88084" lon="1.80005">
        <ele>142</ele>
        <time>2018-06-14T19:46:05Z</time>
      </trkpt>
      <trkpt lat="43.88088" lon="1.80005">
        <ele>142</ele>
        <time>2018-06-14T19:46:06Z</time>
      </trkpt>
      <trkpt lat="43.88092" lon="1.80005">
        <ele>142</ele>
        <time>2018-06-14T19:46:07Z</time>
      </trkpt>
      <trkpt lat="43.88096" lon="1.80006">
        <ele>142</ele>
        <time>2018-06-14T19:46:08Z</time>
      </trkpt>
      <trkpt lat="43.881" lon="1.80005">
        <ele>143</ele>
        <time>2018-06-14T19:46:09Z</time>
      </trkpt>
      <trkpt lat="43.88105" lon="1.80006">
        <ele>143</ele>
        <time>2018-06-14T19:46:10Z</time>
      </trkpt>
      <trkpt lat="43.88109" lon="1.80006">
        <ele>143</ele>
        <time>2018-06-14T19:46:11Z</time>
      </trkpt>
      <trkpt lat="43.88114" lon="1.80006">
        <ele>143</ele>
        <time>2018-06-14T19:46:12Z</time>
      </trkpt>
      <trkpt lat="43.88118" lon="1.80006">
        <ele>143</ele>
        <time>2018-06-14T19:46:13Z</time>
      </trkpt>
      <trkpt lat="43.88123" lon="1.80006">
        <ele>143</ele>
        <time>2018-06-14T19:46:14Z</time>
      </trkpt>
      <trkpt lat="43.88127" lon="1.80005">
        <ele>143</ele>
        <time>2018-06-14T19:46:15Z</time>
      </trkpt>
      <trkpt lat="43.88132" lon="1.80005">
        <ele>143</ele>
        <time>2018-06-14T19:46:16Z</time>
      </trkpt>
      <trkpt lat="43.88136" lon="1.80004">
        <ele>143</ele>
        <time>2018-06-14T19:46:17Z</time>
      </trkpt>
      <trkpt lat="43.88141" lon="1.80003">
        <ele>143</ele>
        <time>2018-06-14T19:46:18Z</time>
      </trkpt>
      <trkpt lat="43.88145" lon="1.80002">
        <ele>143</ele>
        <time>2018-06-14T19:46:19Z</time>
      </trkpt>
      <trkpt lat="43.88149" lon="1.80002">
        <ele>143</ele>
        <time>2018-06-14T19:46:20Z</time>
      </trkpt>
      <trkpt lat="43.88154" lon="1.80001">
        <ele>143</ele>
        <time>2018-06-14T19:46:21Z</time>
      </trkpt>
      <trkpt lat="43.88158" lon="1.80001">
        <ele>143</ele>
        <time>2018-06-14T19:46:22Z</time>
      </trkpt>
      <trkpt lat="43.88162" lon="1.8">
        <ele>143</ele>
        <time>2018-06-14T19:46:23Z</time>
      </trkpt>
      <trkpt lat="43.88166" lon="1.8">
        <ele>143</ele>
        <time>2018-06-14T19:46:24Z</time>
      </trkpt>
      <trkpt lat="43.8817" lon="1.79999">
        <ele>143</ele>
        <time>2018-06-14T19:46:25Z</time>
      </trkpt>
      <trkpt lat="43.88174" lon="1.79998">
        <ele>143</ele>
        <time>2018-06-14T19:46:26Z</time>
      </trkpt>
      <trkpt lat="43.88178" lon="1.79997">
        <ele>144</ele>
        <time>2018-06-14T19:46:27Z</time>
      </trkpt>
      <trkpt lat="43.88182" lon="1.79997">
        <ele>144</ele>
        <time>2018-06-14T19:46:28Z</time>
      </trkpt>
      <trkpt lat="43.88186" lon="1.79996">
        <ele>144</ele>
        <time>2018-06-14T19:46:29Z</time>
      </trkpt>
      <trkpt lat="43.8819" lon="1.79995">
        <ele>144</ele>
        <time>2018-06-14T19:46:30Z</time>
      </trkpt>
      <trkpt lat="43.88194" lon="1.79994">
        <ele>144</ele>
        <time>2018-06-14T19:46:31Z</time>
      </trkpt>
      <trkpt lat="43.88197" lon="1.79993">
        <ele>144</ele>
        <time>2018-06-14T19:46:32Z</time>
      </trkpt>
      <trkpt lat="43.88201" lon="1.79993">
        <ele>144</ele>
        <time>2018-06-14T19:46:33Z</time>
      </trkpt>
      <trkpt lat="43.88204" lon="1.79992">
        <ele>144</ele>
        <time>2018-06-14T19:46:34Z</time>
      </trkpt>
      <trkpt lat="43.88208" lon="1.79992">
        <ele>144</ele>
        <time>2018-06-14T19:46:35Z</time>
      </trkpt>
      <trkpt lat="43.88212" lon="1.79991">
        <ele>144</ele>
        <time>2018-06-14T19:46:36Z</time>
      </trkpt>
      <trkpt lat="43.88216" lon="1.7999">
        <ele>144</ele>
        <time>2018-06-14T19:46:37Z</time>
      </trkpt>
      <trkpt lat="43.88219" lon="1.79989">
        <ele>144</ele>
        <time>2018-06-14T19:46:38Z</time>
      </trkpt>
      <trkpt lat="43.88223" lon="1.79989">
        <ele>144</ele>
        <time>2018-06-14T19:46:39Z</time>
      </trkpt>
      <trkpt lat="43.88227" lon="1.79989">
        <ele>145</ele>
        <time>2018-06-14T19:46:40Z</time>
      </trkpt>
      <trkpt lat="43.88231" lon="1.79989">
        <ele>145</ele>
        <time>2018-06-14T19:46:41Z</time>
      </trkpt>
      <trkpt lat="43.88235" lon="1.79989">
        <ele>145</ele>
        <time>2018-06-14T19:46:42Z</time>
      </trkpt>
      <trkpt lat="43.88238" lon="1.79991">
        <ele>145</ele>
        <time>2018-06-14T19:46:43Z</time>
      </trkpt>
      <trkpt lat="43.88241" lon="1.79994">
        <ele>145</ele>
        <time>2018-06-14T19:46:44Z</time>
      </trkpt>
      <trkpt lat="43.88243" lon="1.79998">
        <ele>145</ele>
        <time>2018-06-14T19:46:45Z</time>
      </trkpt>
      <trkpt lat="43.88244" lon="1.80003">
        <ele>145</ele>
        <time>2018-06-14T19:46:46Z</time>
      </trkpt>
      <trkpt lat="43.88245" lon="1.80008">
        <ele>145</ele>
        <time>2018-06-14T19:46:47Z</time>
      </trkpt>
      <trkpt lat="43.88246" lon="1.80014">
        <ele>145</ele>
        <time>2018-06-14T19:46:48Z</time>
      </trkpt>
      <trkpt lat="43.88247" lon="1.80019">
        <ele>145</ele>
        <time>2018-06-14T19:46:49Z</time>
      </trkpt>
      <trkpt lat="43.88248" lon="1.80025">
        <ele>145</ele>
        <time>2018-06-14T19:46:50Z</time>
      </trkpt>
      <trkpt lat="43.8825" lon="1.8003">
        <ele>145</ele>
        <time>2018-06-14T19:46:51Z</time>
      </trkpt>
      <trkpt lat="43.88251" lon="1.80036">
        <ele>145</ele>
        <time>2018-06-14T19:46:52Z</time>
      </trkpt>
      <trkpt lat="43.88252" lon="1.80042">
        <ele>145</ele>
        <time>2018-06-14T19:46:53Z</time>
      </trkpt>
      <trkpt lat="43.88254" lon="1.80047">
        <ele>145</ele>
        <time>2018-06-14T19:46:54Z</time>
      </trkpt>
      <trkpt lat="43.88255" lon="1.80053">
        <ele>145</ele>
        <time>2018-06-14T19:46:55Z</time>
      </trkpt>
      <trkpt lat="43.88257" lon="1.80059">
        <ele>145</ele>
        <time>2018-06-14T19:46:56Z</time>
      </trkpt>
      <trkpt lat="43.88259" lon="1.80065">
        <ele>145</ele>
        <time>2018-06-14T19:46:57Z</time>
      </trkpt>
      <trkpt lat="43.8826" lon="1.80071">
        <ele>145</ele>
        <time>2018-06-14T19:46:58Z</time>
      </trkpt>
      <trkpt lat="43.88262" lon="1.80077">
        <ele>146</ele>
        <time>2018-06-14T19:46:59Z</time>
      </trkpt>
      <trkpt lat="43.88264" lon="1.80083">
        <ele>146</ele>
        <time>2018-06-14T19:47:00Z</time>
      </trkpt>
      <trkpt lat="43.88265" lon="1.80088">
        <ele>146</ele>
        <time>2018-06-14T19:47:01Z</time>
      </trkpt>
      <trkpt lat="43.88267" lon="1.80094">
        <ele>146</ele>
        <time>2018-06-14T19:47:02Z</time>
      </trkpt>
      <trkpt lat="43.8827" lon="1.801">
        <ele>146</ele>
        <time>2018-06-14T19:47:03Z</time>
      </trkpt>
      <trkpt lat="43.88272" lon="1.80105">
        <ele>146</ele>
        <time>2018-06-14T19:47:04Z</time>
      </trkpt>
      <trkpt lat="43.88274" lon="1.80111">
        <ele>146</ele>
        <time>2018-06-14T19:47:05Z</time>
      </trkpt>
      <trkpt lat="43.88277" lon="1.80117">
        <ele>146</ele>
        <time>2018-06-14T19:47:06Z</time>
      </trkpt>
      <trkpt lat="43.88279" lon="1.80122">
        <ele>146</ele>
        <time>2018-06-14T19:47:07Z</time>
      </trkpt>
      <trkpt lat="43.88281" lon="1.80128">
        <ele>146</ele>
        <time>2018-06-14T19:47:08Z</time>
      </trkpt>
      <trkpt lat="43.88283" lon="1.80134">
        <ele>146</ele>
        <time>2018-06-14T19:47:09Z</time>
      </trkpt>
      <trkpt lat="43.88286" lon="1.8014">
        <ele>146</ele>
        <time>2018-06-14T19:47:10Z</time>
      </trkpt>
      <trkpt lat="43.88288" lon="1.80145">
        <ele>146</ele>
        <time>2018-06-14T19:47:11Z</time>
      </trkpt>
      <trkpt lat="43.8829" lon="1.8015">
        <ele>146</ele>
        <time>2018-06-14T19:47:12Z</time>
      </trkpt>
      <trkpt lat="43.88292" lon="1.80156">
        <ele>146</ele>
        <time>2018-06-14T19:47:13Z</time>
      </trkpt>
      <trkpt lat="43.88294" lon="1.80161">
        <ele>146</ele>
        <time>2018-06-14T19:47:14Z</time>
      </trkpt>
      <trkpt lat="43.88296" lon="1.80167">
        <ele>146</ele>
        <time>2018-06-14T19:47:15Z</time>
      </trkpt>
      <trkpt lat="43.88298" lon="1.80173">
        <ele>146</ele>
        <time>2018-06-14T19:47:16Z</time>
      </trkpt>
      <trkpt lat="43.883" lon="1.80178">
        <ele>147</ele>
        <time>2018-06-14T19:47:17Z</time>
      </trkpt>
      <trkpt lat="43.88302" lon="1.80184">
        <ele>147</ele>
        <time>2018-06-14T19:47:18Z</time>
      </trkpt>
      <trkpt lat="43.88303" lon="1.80189">
        <ele>147</ele>
        <time>2018-06-14T19:47:19Z</time>
      </trkpt>
      <trkpt lat="43.88304" lon="1.80194">
        <ele>147</ele>
        <time>2018-06-14T19:47:20Z</time>
      </trkpt>
      <trkpt lat="43.88306" lon="1.80199">
        <ele>147</ele>
        <time>2018-06-14T19:47:21Z</time>
      </trkpt>
      <trkpt lat="43.88307" lon="1.80204">
        <ele>147</ele>
        <time>2018-06-14T19:47:22Z</time>
      </trkpt>
      <trkpt lat="43.88307" lon="1.80208">
        <ele>147</ele>
        <time>2018-06-14T19:47:23Z</time>
      </trkpt>
      <trkpt lat="43.88307" lon="1.80212">
        <ele>147</ele>
        <time>2018-06-14T19:47:24Z</time>
      </trkpt>
      <trkpt lat="43.88307" lon="1.80214">
        <ele>147</ele>
        <time>2018-06-14T19:47:25Z</time>
      </trkpt>
      <trkpt lat="43.88307" lon="1.80215">
        <ele>147</ele>
        <time>2018-06-14T19:47:26Z</time>
      </trkpt>
      <trkpt lat="43.88307" lon="1.80215">
        <ele>147</ele>
        <time>2018-06-14T19:47:27Z</time>
      </trkpt>
      <trkpt lat="43.88307" lon="1.80216">
        <ele>147</ele>
        <time>2018-06-14T19:47:28Z</time>
      </trkpt>
      <trkpt lat="43.88309" lon="1.80215">
        <ele>147</ele>
        <time>2018-06-14T19:47:29Z</time>
      </trkpt>
      <trkpt lat="43.8831" lon="1.80215">
        <ele>147</ele>
        <time>2018-06-14T19:47:30Z</time>
      </trkpt>
      <trkpt lat="43.88311" lon="1.80213">
        <ele>147</ele>
        <time>2018-06-14T19:47:31Z</time>
      </trkpt>
      <trkpt lat="43.8831" lon="1.80209">
        <ele>147</ele>
        <time>2018-06-14T19:47:32Z</time>
      </trkpt>
      <trkpt lat="43.8831" lon="1.80206">
        <ele>147</ele>
        <time>2018-06-14T19:47:33Z</time>
      </trkpt>
      <trkpt lat="43.88308" lon="1.80202">
        <ele>147</ele>
        <time>2018-06-14T19:47:34Z</time>
      </trkpt>
      <trkpt lat="43.88307" lon="1.80197">
        <ele>147</ele>
        <time>2018-06-14T19:47:35Z</time>
      </trkpt>
      <trkpt lat="43.88306" lon="1.80192">
        <ele>147</ele>
        <time>2018-06-14T19:47:36Z</time>
      </trkpt>
      <trkpt lat="43.88305" lon="1.80187">
        <ele>147</ele>
        <time>2018-06-14T19:47:37Z</time>
      </trkpt>
      <trkpt lat="43.88305" lon="1.80182">
        <ele>147</ele>
        <time>2018-06-14T19:47:38Z</time>
      </trkpt>
      <trkpt lat="43.88305" lon="1.80178">
        <ele>147</ele>
        <time>2018-06-14T19:47:39Z</time>
      </trkpt>
      <trkpt lat="43.88306" lon="1.80174">
        <ele>147</ele>
        <time>2018-06-14T19:47:40Z</time>
      </trkpt>
      <trkpt lat="43.88309" lon="1.80171">
        <ele>147</ele>
        <time>2018-06-14T19:47:41Z</time>
      </trkpt>
      <trkpt lat="43.88312" lon="1.80169">
        <ele>147</ele>
        <time>2018-06-14T19:47:42Z</time>
      </trkpt>
      <trkpt lat="43.88315" lon="1.80167">
        <ele>147</ele>
        <time>2018-06-14T19:47:43Z</time>
      </trkpt>
      <trkpt lat="43.88318" lon="1.80165">
        <ele>147</ele>
        <time>2018-06-14T19:47:44Z</time>
      </trkpt>
      <trkpt lat="43.88322" lon="1.80163">
        <ele>147</ele>
        <time>2018-06-14T19:47:45Z</time>
      </trkpt>
      <trkpt lat="43.88326" lon="1.80161">
        <ele>147</ele>
        <time>2018-06-14T19:47:46Z</time>
      </trkpt>
      <trkpt lat="43.88329" lon="1.80159">
        <ele>147</ele>
        <time>2018-06-14T19:47:47Z</time>
      </trkpt>
      <trkpt lat="43.88333" lon="1.80156">
        <ele>147</ele>
        <time>2018-06-14T19:47:48Z</time>
      </trkpt>
      <trkpt lat="43.88337" lon="1.80154">
        <ele>147</ele>
        <time>2018-06-14T19:47:49Z</time>
      </trkpt>
      <trkpt lat="43.8834" lon="1.80151">
        <ele>147</ele>
        <time>2018-06-14T19:47:50Z</time>
      </trkpt>
      <trkpt lat="43.88344" lon="1.80148">
        <ele>147</ele>
        <time>2018-06-14T19:47:51Z</time>
      </trkpt>
      <trkpt lat="43.88348" lon="1.80146">
        <ele>147</ele>
        <time>2018-06-14T19:47:52Z</time>
      </trkpt>
      <trkpt lat="43.88351" lon="1.80145">
        <ele>147</ele>
        <time>2018-06-14T19:47:53Z</time>
      </trkpt>
      <trkpt lat="43.88355" lon="1.80143">
        <ele>147</ele>
        <time>2018-06-14T19:47:54Z</time>
      </trkpt>
      <trkpt lat="43.88358" lon="1.80141">
        <ele>147</ele>
        <time>2018-06-14T19:47:55Z</time>
      </trkpt>
      <trkpt lat="43.88362" lon="1.80139">
        <ele>147</ele>
        <time>2018-06-14T19:47:56Z</time>
      </trkpt>
      <trkpt lat="43.88366" lon="1.80138">
        <ele>147</ele>
        <time>2018-06-14T19:47:57Z</time>
      </trkpt>
      <trkpt lat="43.88369" lon="1.80136">
        <ele>147</ele>
        <time>2018-06-14T19:47:58Z</time>
      </trkpt>
      <trkpt lat="43.88373" lon="1.80133">
        <ele>147</ele>
        <time>2018-06-14T19:47:59Z</time>
      </trkpt>
      <trkpt lat="43.88377" lon="1.80131">
        <ele>147</ele>
        <time>2018-06-14T19:48:00Z</time>
      </trkpt>
      <trkpt lat="43.88381" lon="1.8013">
        <ele>147</ele>
        <time>2018-06-14T19:48:01Z</time>
      </trkpt>
      <trkpt lat="43.88385" lon="1.80128">
        <ele>147</ele>
        <time>2018-06-14T19:48:02Z</time>
      </trkpt>
      <trkpt lat="43.88389" lon="1.80126">
        <ele>148</ele>
        <time>2018-06-14T19:48:03Z</time>
      </trkpt>
      <trkpt lat="43.88392" lon="1.80123">
        <ele>148</ele>
        <time>2018-06-14T19:48:04Z</time>
      </trkpt>
      <trkpt lat="43.88396" lon="1.80121">
        <ele>148</ele>
        <time>2018-06-14T19:48:05Z</time>
      </trkpt>
      <trkpt lat="43.88399" lon="1.80119">
        <ele>148</ele>
        <time>2018-06-14T19:48:06Z</time>
      </trkpt>
      <trkpt lat="43.88403" lon="1.80117">
        <ele>148</ele>
        <time>2018-06-14T19:48:07Z</time>
      </trkpt>
      <trkpt lat="43.88407" lon="1.80115">
        <ele>148</ele>
        <time>2018-06-14T19:48:08Z</time>
      </trkpt>
      <trkpt lat="43.8841" lon="1.80112">
        <ele>148</ele>
        <time>2018-06-14T19:48:09Z</time>
      </trkpt>
      <trkpt lat="43.88414" lon="1.8011">
        <ele>148</ele>
        <time>2018-06-14T19:48:10Z</time>
      </trkpt>
      <trkpt lat="43.88418" lon="1.80107">
        <ele>148</ele>
        <time>2018-06-14T19:48:11Z</time>
      </trkpt>
      <trkpt lat="43.88422" lon="1.80105">
        <ele>148</ele>
        <time>2018-06-14T19:48:12Z</time>
      </trkpt>
      <trkpt lat="43.88426" lon="1.80102">
        <ele>148</ele>
        <time>2018-06-14T19:48:13Z</time>
      </trkpt>
      <trkpt lat="43.8843" lon="1.801">
        <ele>148</ele>
        <time>2018-06-14T19:48:14Z</time>
      </trkpt>
      <trkpt lat="43.88433" lon="1.80097">
        <ele>148</ele>
        <time>2018-06-14T19:48:15Z</time>
      </trkpt>
      <trkpt lat="43.88437" lon="1.80095">
        <ele>148</ele>
        <time>2018-06-14T19:48:16Z</time>
      </trkpt>
      <trkpt lat="43.88441" lon="1.80093">
        <ele>148</ele>
        <time>2018-06-14T19:48:17Z</time>
      </trkpt>
      <trkpt lat="43.88445" lon="1.80092">
        <ele>149</ele>
        <time>2018-06-14T19:48:18Z</time>
      </trkpt>
      <trkpt lat="43.88449" lon="1.80091">
        <ele>149</ele>
        <time>2018-06-14T19:48:19Z</time>
      </trkpt>
      <trkpt lat="43.88453" lon="1.8009">
        <ele>149</ele>
        <time>2018-06-14T19:48:20Z</time>
      </trkpt>
      <trkpt lat="43.88457" lon="1.80089">
        <ele>149</ele>
        <time>2018-06-14T19:48:21Z</time>
      </trkpt>
      <trkpt lat="43.88461" lon="1.80088">
        <ele>149</ele>
        <time>2018-06-14T19:48:22Z</time>
      </trkpt>
      <trkpt lat="43.88465" lon="1.80088">
        <ele>149</ele>
        <time>2018-06-14T19:48:23Z</time>
      </trkpt>
      <trkpt lat="43.88469" lon="1.80087">
        <ele>149</ele>
        <time>2018-06-14T19:48:24Z</time>
      </trkpt>
      <trkpt lat="43.88473" lon="1.80086">
        <ele>149</ele>
        <time>2018-06-14T19:48:25Z</time>
      </trkpt>
      <trkpt lat="43.88476" lon="1.80086">
        <ele>149</ele>
        <time>2018-06-14T19:48:26Z</time>
      </trkpt>
      <trkpt lat="43.8848" lon="1.80086">
        <ele>149</ele>
        <time>2018-06-14T19:48:27Z</time>
      </trkpt>
      <trkpt lat="43.88484" lon="1.80087">
        <ele>149</ele>
        <time>2018-06-14T19:48:28Z</time>
      </trkpt>
      <trkpt lat="43.88488" lon="1.80087">
        <ele>150</ele>
        <time>2018-06-14T19:48:29Z</time>
      </trkpt>
      <trkpt lat="43.88491" lon="1.80088">
        <ele>150</ele>
        <time>2018-06-14T19:48:30Z</time>
      </trkpt>
      <trkpt lat="43.88495" lon="1.80088">
        <ele>150</ele>
        <time>2018-06-14T19:48:31Z</time>
      </trkpt>
      <trkpt lat="43.88499" lon="1.80089">
        <ele>150</ele>
        <time>2018-06-14T19:48:32Z</time>
      </trkpt>
      <trkpt lat="43.88503" lon="1.8009">
        <ele>150</ele>
        <time>2018-06-14T19:48:33Z</time>
      </trkpt>
      <trkpt lat="43.88507" lon="1.8009">
        <ele>150</ele>
        <time>2018-06-14T19:48:34Z</time>
      </trkpt>
      <trkpt lat="43.88511" lon="1.80091">
        <ele>150</ele>
        <time>2018-06-14T19:48:35Z</time>
      </trkpt>
      <trkpt lat="43.88515" lon="1.80092">
        <ele>150</ele>
        <time>2018-06-14T19:48:36Z</time>
      </trkpt>
      <trkpt lat="43.88519" lon="1.80092">
        <ele>150</ele>
        <time>2018-06-14T19:48:37Z</time>
      </trkpt>
      <trkpt lat="43.88523" lon="1.80093">
        <ele>150</ele>
        <time>2018-06-14T19:48:38Z</time>
      </trkpt>
      <trkpt lat="43.88527" lon="1.80094">
        <ele>150</ele>
        <time>2018-06-14T19:48:39Z</time>
      </trkpt>
      <trkpt lat="43.88531" lon="1.80094">
        <ele>150</ele>
        <time>2018-06-14T19:48:40Z</time>
      </trkpt>
      <trkpt lat="43.88535" lon="1.80095">
        <ele>150</ele>
        <time>2018-06-14T19:48:41Z</time>
      </trkpt>
      <trkpt lat="43.88538" lon="1.80096">
        <ele>150</ele>
        <time>2018-06-14T19:48:42Z</time>
      </trkpt>
      <trkpt lat="43.88542" lon="1.80097">
        <ele>150</ele>
        <time>2018-06-14T19:48:43Z</time>
      </trkpt>
      <trkpt lat="43.88546" lon="1.80097">
        <ele>150</ele>
        <time>2018-06-14T19:48:44Z</time>
      </trkpt>
      <trkpt lat="43.8855" lon="1.80098">
        <ele>150</ele>
        <time>2018-06-14T19:48:45Z</time>
      </trkpt>
      <trkpt lat="43.88554" lon="1.80098">
        <ele>150</ele>
        <time>2018-06-14T19:48:46Z</time>
      </trkpt>
      <trkpt lat="43.88558" lon="1.80099">
        <ele>151</ele>
        <time>2018-06-14T19:48:47Z</time>
      </trkpt>
      <trkpt lat="43.88561" lon="1.801">
        <ele>151</ele>
        <time>2018-06-14T19:48:48Z</time>
      </trkpt>
      <trkpt lat="43.88565" lon="1.80101">
        <ele>151</ele>
        <time>2018-06-14T19:48:49Z</time>
      </trkpt>
      <trkpt lat="43.88569" lon="1.80102">
        <ele>151</ele>
        <time>2018-06-14T19:48:50Z</time>
      </trkpt>
      <trkpt lat="43.88572" lon="1.80103">
        <ele>151</ele>
        <time>2018-06-14T19:48:51Z</time>
      </trkpt>
      <trkpt lat="43.88576" lon="1.80105">
        <ele>151</ele>
        <time>2018-06-14T19:48:52Z</time>
      </trkpt>
      <trkpt lat="43.8858" lon="1.80106">
        <ele>151</ele>
        <time>2018-06-14T19:48:53Z</time>
      </trkpt>
      <trkpt lat="43.88583" lon="1.80108">
        <ele>151</ele>
        <time>2018-06-14T19:48:54Z</time>
      </trkpt>
      <trkpt lat="43.88587" lon="1.80109">
        <ele>152</ele>
        <time>2018-06-14T19:48:55Z</time>
      </trkpt>
      <trkpt lat="43.88591" lon="1.8011">
        <ele>152</ele>
        <time>2018-06-14T19:48:56Z</time>
      </trkpt>
      <trkpt lat="43.88594" lon="1.80111">
        <ele>152</ele>
        <time>2018-06-14T19:48:57Z</time>
      </trkpt>
      <trkpt lat="43.88598" lon="1.80112">
        <ele>152</ele>
        <time>2018-06-14T19:48:58Z</time>
      </trkpt>
      <trkpt lat="43.88601" lon="1.80113">
        <ele>152</ele>
        <time>2018-06-14T19:48:59Z</time>
      </trkpt>
      <trkpt lat="43.88605" lon="1.80114">
        <ele>152</ele>
        <time>2018-06-14T19:49:00Z</time>
      </trkpt>
      <trkpt lat="43.88608" lon="1.80114">
        <ele>152</ele>
        <time>2018-06-14T19:49:01Z</time>
      </trkpt>
      <trkpt lat="43.88611" lon="1.80115">
        <ele>153</ele>
        <time>2018-06-14T19:49:02Z</time>
      </trkpt>
      <trkpt lat="43.88615" lon="1.80116">
        <ele>152</ele>
        <time>2018-06-14T19:49:03Z</time>
      </trkpt>
      <trkpt lat="43.88618" lon="1.80117">
        <ele>152</ele>
        <time>2018-06-14T19:49:04Z</time>
      </trkpt>
      <trkpt lat="43.88621" lon="1.80118">
        <ele>153</ele>
        <time>2018-06-14T19:49:05Z</time>
      </trkpt>
      <trkpt lat="43.88624" lon="1.80119">
        <ele>153</ele>
        <time>2018-06-14T19:49:06Z</time>
      </trkpt>
      <trkpt lat="43.88626" lon="1.80119">
        <ele>153</ele>
        <time>2018-06-14T19:49:07Z</time>
      </trkpt>
      <trkpt lat="43.88629" lon="1.8012">
        <ele>153</ele>
        <time>2018-06-14T19:49:08Z</time>
      </trkpt>
      <trkpt lat="43.88631" lon="1.80121">
        <ele>153</ele>
        <time>2018-06-14T19:49:09Z</time>
      </trkpt>
      <trkpt lat="43.88634" lon="1.80122">
        <ele>153</ele>
        <time>2018-06-14T19:49:10Z</time>
      </trkpt>
      <trkpt lat="43.88637" lon="1.80123">
        <ele>153</ele>
        <time>2018-06-14T19:49:11Z</time>
      </trkpt>
      <trkpt lat="43.88639" lon="1.80123">
        <ele>153</ele>
        <time>2018-06-14T19:49:12Z</time>
      </trkpt>
      <trkpt lat="43.88642" lon="1.80125">
        <ele>153</ele>
        <time>2018-06-14T19:49:13Z</time>
      </trkpt>
      <trkpt lat="43.88644" lon="1.80126">
        <ele>154</ele>
        <time>2018-06-14T19:49:14Z</time>
      </trkpt>
      <trkpt lat="43.88646" lon="1.80128">
        <ele>154</ele>
        <time>2018-06-14T19:49:15Z</time>
      </trkpt>
      <trkpt lat="43.88649" lon="1.80129">
        <ele>154</ele>
        <time>2018-06-14T19:49:16Z</time>
      </trkpt>
      <trkpt lat="43.8865" lon="1.80131">
        <ele>154</ele>
        <time>2018-06-14T19:49:17Z</time>
      </trkpt>
      <trkpt lat="43.88652" lon="1.80134">
        <ele>154</ele>
        <time>2018-06-14T19:49:18Z</time>
      </trkpt>
      <trkpt lat="43.88654" lon="1.80136">
        <ele>154</ele>
        <time>2018-06-14T19:49:19Z</time>
      </trkpt>
      <trkpt lat="43.88656" lon="1.80139">
        <ele>154</ele>
        <time>2018-06-14T19:49:20Z</time>
      </trkpt>
      <trkpt lat="43.88658" lon="1.80141">
        <ele>155</ele>
        <time>2018-06-14T19:49:21Z</time>
      </trkpt>
      <trkpt lat="43.8866" lon="1.80144">
        <ele>155</ele>
        <time>2018-06-14T19:49:22Z</time>
      </trkpt>
      <trkpt lat="43.88661" lon="1.80147">
        <ele>155</ele>
        <time>2018-06-14T19:49:23Z</time>
      </trkpt>
      <trkpt lat="43.88663" lon="1.8015">
        <ele>155</ele>
        <time>2018-06-14T19:49:24Z</time>
      </trkpt>
      <trkpt lat="43.88666" lon="1.80153">
        <ele>155</ele>
        <time>2018-06-14T19:49:25Z</time>
      </trkpt>
      <trkpt lat="43.88668" lon="1.80155">
        <ele>155</ele>
        <time>2018-06-14T19:49:26Z</time>
      </trkpt>
      <trkpt lat="43.8867" lon="1.80158">
        <ele>155</ele>
        <time>2018-06-14T19:49:27Z</time>
      </trkpt>
      <trkpt lat="43.88672" lon="1.80161">
        <ele>155</ele>
        <time>2018-06-14T19:49:28Z</time>
      </trkpt>
      <trkpt lat="43.88674" lon="1.80164">
        <ele>155</ele>
        <time>2018-06-14T19:49:29Z</time>
      </trkpt>
      <trkpt lat="43.88677" lon="1.80167">
        <ele>155</ele>
        <time>2018-06-14T19:49:30Z</time>
      </trkpt>
      <trkpt lat="43.88679" lon="1.80171">
        <ele>155</ele>
        <time>2018-06-14T19:49:31Z</time>
      </trkpt>
      <trkpt lat="43.88681" lon="1.80174">
        <ele>155</ele>
        <time>2018-06-14T19:49:32Z</time>
      </trkpt>
      <trkpt lat="43.88683" lon="1.80177">
        <ele>155</ele>
        <time>2018-06-14T19:49:33Z</time>
      </trkpt>
      <trkpt lat="43.88685" lon="1.80179">
        <ele>155</ele>
        <time>2018-06-14T19:49:34Z</time>
      </trkpt>
      <trkpt lat="43.88688" lon="1.80183">
        <ele>155</ele>
        <time>2018-06-14T19:49:35Z</time>
      </trkpt>
      <trkpt lat="43.8869" lon="1.80186">
        <ele>155</ele>
        <time>2018-06-14T19:49:36Z</time>
      </trkpt>
      <trkpt lat="43.88692" lon="1.8019">
        <ele>155</ele>
        <time>2018-06-14T19:49:37Z</time>
      </trkpt>
      <trkpt lat="43.88695" lon="1.80193">
        <ele>155</ele>
        <time>2018-06-14T19:49:38Z</time>
      </trkpt>
      <trkpt lat="43.88699" lon="1.80195">
        <ele>155</ele>
        <time>2018-06-14T19:49:39Z</time>
      </trkpt>
      <trkpt lat="43.88702" lon="1.80196">
        <ele>155</ele>
        <time>2018-06-14T19:49:40Z</time>
      </trkpt>
      <trkpt lat="43.88705" lon="1.80196">
        <ele>155</ele>
        <time>2018-06-14T19:49:41Z</time>
      </trkpt>
      <trkpt lat="43.88708" lon="1.80196">
        <ele>155</ele>
        <time>2018-06-14T19:49:42Z</time>
      </trkpt>
      <trkpt lat="43.88709" lon="1.80197">
        <ele>155</ele>
        <time>2018-06-14T19:49:43Z</time>
      </trkpt>
      <trkpt lat="43.88711" lon="1.80197">
        <ele>155</ele>
        <time>2018-06-14T19:49:44Z</time>
      </trkpt>
      <trkpt lat="43.88713" lon="1.80197">
        <ele>155</ele>
        <time>2018-06-14T19:49:45Z</time>
      </trkpt>
      <trkpt lat="43.88714" lon="1.80198">
        <ele>155</ele>
        <time>2018-06-14T19:49:46Z</time>
      </trkpt>
      <trkpt lat="43.88715" lon="1.80199">
        <ele>155</ele>
        <time>2018-06-14T19:49:47Z</time>
      </trkpt>
      <trkpt lat="43.88717" lon="1.802">
        <ele>155</ele>
        <time>2018-06-14T19:49:48Z</time>
      </trkpt>
      <trkpt lat="43.88718" lon="1.80201">
        <ele>155</ele>
        <time>2018-06-14T19:49:49Z</time>
      </trkpt>
      <trkpt lat="43.8872" lon="1.80202">
        <ele>155</ele>
        <time>2018-06-14T19:49:50Z</time>
      </trkpt>
      <trkpt lat="43.88722" lon="1.80203">
        <ele>155</ele>
        <time>2018-06-14T19:49:51Z</time>
      </trkpt>
      <trkpt lat="43.88723" lon="1.80203">
        <ele>155</ele>
        <time>2018-06-14T19:49:52Z</time>
      </trkpt>
      <trkpt lat="43.88725" lon="1.80204">
        <ele>155</ele>
        <time>2018-06-14T19:49:53Z</time>
      </trkpt>
      <trkpt lat="43.88727" lon="1.80205">
        <ele>155</ele>
        <time>2018-06-14T19:49:54Z</time>
      </trkpt>
      <trkpt lat="43.88728" lon="1.80207">
        <ele>155</ele>
        <time>2018-06-14T19:49:55Z</time>
      </trkpt>
      <trkpt lat="43.88729" lon="1.80208">
        <ele>155</ele>
        <time>2018-06-14T19:49:56Z</time>
      </trkpt>
      <trkpt lat="43.88731" lon="1.80209">
        <ele>155</ele>
        <time>2018-06-14T19:49:57Z</time>
      </trkpt>
      <trkpt lat="43.88732" lon="1.8021">
        <ele>155</ele>
        <time>2018-06-14T19:49:58Z</time>
      </trkpt>
      <trkpt lat="43.88733" lon="1.80211">
        <ele>156</ele>
        <time>2018-06-14T19:49:59Z</time>
      </trkpt>
      <trkpt lat="43.88735" lon="1.80212">
        <ele>156</ele>
        <time>2018-06-14T19:50:00Z</time>
      </trkpt>
      <trkpt lat="43.88736" lon="1.80214">
        <ele>156</ele>
        <time>2018-06-14T19:50:01Z</time>
      </trkpt>
      <trkpt lat="43.88737" lon="1.80215">
        <ele>156</ele>
        <time>2018-06-14T19:50:02Z</time>
      </trkpt>
      <trkpt lat="43.88739" lon="1.80216">
        <ele>156</ele>
        <time>2018-06-14T19:50:03Z</time>
      </trkpt>
      <trkpt lat="43.8874" lon="1.80217">
        <ele>156</ele>
        <time>2018-06-14T19:50:04Z</time>
      </trkpt>
      <trkpt lat="43.88741" lon="1.80219">
        <ele>156</ele>
        <time>2018-06-14T19:50:05Z</time>
      </trkpt>
      <trkpt lat="43.88743" lon="1.8022">
        <ele>156</ele>
        <time>2018-06-14T19:50:06Z</time>
      </trkpt>
      <trkpt lat="43.88744" lon="1.80221">
        <ele>156</ele>
        <time>2018-06-14T19:50:07Z</time>
      </trkpt>
      <trkpt lat="43.88746" lon="1.80222">
        <ele>156</ele>
        <time>2018-06-14T19:50:08Z</time>
      </trkpt>
      <trkpt lat="43.88747" lon="1.80223">
        <ele>156</ele>
        <time>2018-06-14T19:50:09Z</time>
      </trkpt>
      <trkpt lat="43.88748" lon="1.80225">
        <ele>156</ele>
        <time>2018-06-14T19:50:10Z</time>
      </trkpt>
      <trkpt lat="43.88749" lon="1.80226">
        <ele>156</ele>
        <time>2018-06-14T19:50:11Z</time>
      </trkpt>
      <trkpt lat="43.8875" lon="1.80227">
        <ele>156</ele>
        <time>2018-06-14T19:50:12Z</time>
      </trkpt>
      <trkpt lat="43.88752" lon="1.80228">
        <ele>157</ele>
        <time>2018-06-14T19:50:13Z</time>
      </trkpt>
      <trkpt lat="43.88753" lon="1.8023">
        <ele>157</ele>
        <time>2018-06-14T19:50:14Z</time>
      </trkpt>
      <trkpt lat="43.88754" lon="1.80231">
        <ele>157</ele>
        <time>2018-06-14T19:50:15Z</time>
      </trkpt>
      <trkpt lat="43.88756" lon="1.80232">
        <ele>157</ele>
        <time>2018-06-14T19:50:16Z</time>
      </trkpt>
      <trkpt lat="43.88757" lon="1.80233">
        <ele>157</ele>
        <time>2018-06-14T19:50:17Z</time>
      </trkpt>
      <trkpt lat="43.88758" lon="1.80234">
        <ele>157</ele>
        <time>2018-06-14T19:50:18Z</time>
      </trkpt>
      <trkpt lat="43.88759" lon="1.80235">
        <ele>157</ele>
        <time>2018-06-14T19:50:19Z</time>
      </trkpt>
      <trkpt lat="43.8876" lon="1.80236">
        <ele>157</ele>
        <time>2018-06-14T19:50:20Z</time>
      </trkpt>
      <trkpt lat="43.88762" lon="1.80237">
        <ele>157</ele>
        <time>2018-06-14T19:50:21Z</time>
      </trkpt>
      <trkpt lat="43.88763" lon="1.80239">
        <ele>157</ele>
        <time>2018-06-14T19:50:22Z</time>
      </trkpt>
      <trkpt lat="43.88764" lon="1.8024">
        <ele>157</ele>
        <time>2018-06-14T19:50:23Z</time>
      </trkpt>
      <trkpt lat="43.88766" lon="1.80241">
        <ele>158</ele>
        <time>2018-06-14T19:50:24Z</time>
      </trkpt>
      <trkpt lat="43.88767" lon="1.80242">
        <ele>158</ele>
        <time>2018-06-14T19:50:25Z</time>
      </trkpt>
      <trkpt lat="43.88768" lon="1.80243">
        <ele>158</ele>
        <time>2018-06-14T19:50:26Z</time>
      </trkpt>
      <trkpt lat="43.8877" lon="1.80244">
        <ele>158</ele>
        <time>2018-06-14T19:50:27Z</time>
      </trkpt>
      <trkpt lat="43.88771" lon="1.80245">
        <ele>158</ele>
        <time>2018-06-14T19:50:28Z</time>
      </trkpt>
      <trkpt lat="43.88772" lon="1.80246">
        <ele>158</ele>
        <time>2018-06-14T19:50:29Z</time>
      </trkpt>
      <trkpt lat="43.88773" lon="1.80247">
        <ele>158</ele>
        <time>2018-06-14T19:50:30Z</time>
      </trkpt>
      <trkpt lat="43.88774" lon="1.80248">
        <ele>158</ele>
        <time>2018-06-14T19:50:31Z</time>
      </trkpt>
      <trkpt lat="43.88776" lon="1.8025">
        <ele>158</ele>
        <time>2018-06-14T19:50:32Z</time>
      </trkpt>
      <trkpt lat="43.88777" lon="1.8025">
        <ele>159</ele>
        <time>2018-06-14T19:50:33Z</time>
      </trkpt>
      <trkpt lat="43.88778" lon="1.80251">
        <ele>159</ele>
        <time>2018-06-14T19:50:34Z</time>
      </trkpt>
      <trkpt lat="43.88779" lon="1.80252">
        <ele>159</ele>
        <time>2018-06-14T19:50:35Z</time>
      </trkpt>
      <trkpt lat="43.8878" lon="1.80253">
        <ele>159</ele>
        <time>2018-06-14T19:50:36Z</time>
      </trkpt>
      <trkpt lat="43.88782" lon="1.80254">
        <ele>159</ele>
        <time>2018-06-14T19:50:37Z</time>
      </trkpt>
      <trkpt lat="43.88783" lon="1.80256">
        <ele>159</ele>
        <time>2018-06-14T19:50:38Z</time>
      </trkpt>
      <trkpt lat="43.88784" lon="1.80257">
        <ele>159</ele>
        <time>2018-06-14T19:50:39Z</time>
      </trkpt>
      <trkpt lat="43.88785" lon="1.80258">
        <ele>159</ele>
        <time>2018-06-14T19:50:40Z</time>
      </trkpt>
      <trkpt lat="43.88786" lon="1.80259">
        <ele>160</ele>
        <time>2018-06-14T19:50:41Z</time>
      </trkpt>
      <trkpt lat="43.88788" lon="1.80261">
        <ele>160</ele>
        <time>2018-06-14T19:50:42Z</time>
      </trkpt>
      <trkpt lat="43.88789" lon="1.80262">
        <ele>160</ele>
        <time>2018-06-14T19:50:43Z</time>
      </trkpt>
      <trkpt lat="43.88791" lon="1.80263">
        <ele>160</ele>
        <time>2018-06-14T19:50:44Z</time>
      </trkpt>
      <trkpt lat="43.88792" lon="1.80264">
        <ele>160</ele>
        <time>2018-06-14T19:50:45Z</time>
      </trkpt>
      <trkpt lat="43.88793" lon="1.80265">
        <ele>160</ele>
        <time>2018-06-14T19:50:46Z</time>
      </trkpt>
      <trkpt lat="43.88794" lon="1.80266">
        <ele>160</ele>
        <time>2018-06-14T19:50:47Z</time>
      </trkpt>
      <trkpt lat="43.88796" lon="1.80267">
        <ele>161</ele>
        <time>2018-06-14T19:50:48Z</time>
      </trkpt>
      <trkpt lat="43.88797" lon="1.80268">
        <ele>161</ele>
        <time>2018-06-14T19:50:49Z</time>
      </trkpt>
      <trkpt lat="43.88798" lon="1.80269">
        <ele>161</ele>
        <time>2018-06-14T19:50:50Z</time>
      </trkpt>
      <trkpt lat="43.88799" lon="1.8027">
        <ele>161</ele>
        <time>2018-06-14T19:50:51Z</time>
      </trkpt>
      <trkpt lat="43.888" lon="1.80271">
        <ele>161</ele>
        <time>2018-06-14T19:50:52Z</time>
      </trkpt>
      <trkpt lat="43.88801" lon="1.80272">
        <ele>161</ele>
        <time>2018-06-14T19:50:53Z</time>
      </trkpt>
      <trkpt lat="43.88802" lon="1.80273">
        <ele>161</ele>
        <time>2018-06-14T19:50:54Z</time>
      </trkpt>
      <trkpt lat="43.88803" lon="1.80273">
        <ele>162</ele>
        <time>2018-06-14T19:50:55Z</time>
      </trkpt>
      <trkpt lat="43.88805" lon="1.80274">
        <ele>162</ele>
        <time>2018-06-14T19:50:56Z</time>
      </trkpt>
      <trkpt lat="43.88806" lon="1.80275">
        <ele>162</ele>
        <time>2018-06-14T19:50:57Z</time>
      </trkpt>
      <trkpt lat="43.88807" lon="1.80276">
        <ele>162</ele>
        <time>2018-06-14T19:50:58Z</time>
      </trkpt>
      <trkpt lat="43.88808" lon="1.80277">
        <ele>162</ele>
        <time>2018-06-14T19:50:59Z</time>
      </trkpt>
      <trkpt lat="43.88809" lon="1.80278">
        <ele>162</ele>
        <time>2018-06-14T19:51:00Z</time>
      </trkpt>
      <trkpt lat="43.88811" lon="1.80279">
        <ele>163</ele>
        <time>2018-06-14T19:51:01Z</time>
      </trkpt>
      <trkpt lat="43.88812" lon="1.8028">
        <ele>163</ele>
        <time>2018-06-14T19:51:02Z</time>
      </trkpt>
      <trkpt lat="43.88813" lon="1.80281">
        <ele>163</ele>
        <time>2018-06-14T19:51:03Z</time>
      </trkpt>
      <trkpt lat="43.88814" lon="1.80282">
        <ele>163</ele>
        <time>2018-06-14T19:51:04Z</time>
      </trkpt>
      <trkpt lat="43.88815" lon="1.80283">
        <ele>163</ele>
        <time>2018-06-14T19:51:05Z</time>
      </trkpt>
      <trkpt lat="43.88817" lon="1.80284">
        <ele>164</ele>
        <time>2018-06-14T19:51:06Z</time>
      </trkpt>
      <trkpt lat="43.88818" lon="1.80285">
        <ele>164</ele>
        <time>2018-06-14T19:51:07Z</time>
      </trkpt>
      <trkpt lat="43.88819" lon="1.80286">
        <ele>164</ele>
        <time>2018-06-14T19:51:08Z</time>
      </trkpt>
      <trkpt lat="43.88821" lon="1.80287">
        <ele>164</ele>
        <time>2018-06-14T19:51:09Z</time>
      </trkpt>
      <trkpt lat="43.88822" lon="1.80288">
        <ele>164</ele>
        <time>2018-06-14T19:51:10Z</time>
      </trkpt>
      <trkpt lat="43.88823" lon="1.80289">
        <ele>164</ele>
        <time>2018-06-14T19:51:11Z</time>
      </trkpt>
      <trkpt lat="43.88824" lon="1.8029">
        <ele>164</ele>
        <time>2018-06-14T19:51:12Z</time>
      </trkpt>
      <trkpt lat="43.88826" lon="1.80291">
        <ele>165</ele>
        <time>2018-06-14T19:51:13Z</time>
      </trkpt>
      <trkpt lat="43.88827" lon="1.80292">
        <ele>165</ele>
        <time>2018-06-14T19:51:14Z</time>
      </trkpt>
      <trkpt lat="43.88828" lon="1.80293">
        <ele>165</ele>
        <time>2018-06-14T19:51:15Z</time>
      </trkpt>
      <trkpt lat="43.88829" lon="1.80294">
        <ele>165</ele>
        <time>2018-06-14T19:51:16Z</time>
      </trkpt>
      <trkpt lat="43.88831" lon="1.80295">
        <ele>165</ele>
        <time>2018-06-14T19:51:17Z</time>
      </trkpt>
      <trkpt lat="43.88832" lon="1.80295">
        <ele>165</ele>
        <time>2018-06-14T19:51:18Z</time>
      </trkpt>
      <trkpt lat="43.88833" lon="1.80295">
        <ele>165</ele>
        <time>2018-06-14T19:51:19Z</time>
      </trkpt>
      <trkpt lat="43.88834" lon="1.80296">
        <ele>165</ele>
        <time>2018-06-14T19:51:20Z</time>
      </trkpt>
      <trkpt lat="43.88835" lon="1.80296">
        <ele>166</ele>
        <time>2018-06-14T19:51:21Z</time>
      </trkpt>
      <trkpt lat="43.88836" lon="1.80297">
        <ele>166</ele>
        <time>2018-06-14T19:51:22Z</time>
      </trkpt>
      <trkpt lat="43.88837" lon="1.80297">
        <ele>166</ele>
        <time>2018-06-14T19:51:23Z</time>
      </trkpt>
      <trkpt lat="43.88839" lon="1.80297">
        <ele>166</ele>
        <time>2018-06-14T19:51:24Z</time>
      </trkpt>
      <trkpt lat="43.8884" lon="1.80298">
        <ele>166</ele>
        <time>2018-06-14T19:51:25Z</time>
      </trkpt>
      <trkpt lat="43.88841" lon="1.80298">
        <ele>166</ele>
        <time>2018-06-14T19:51:26Z</time>
      </trkpt>
      <trkpt lat="43.88843" lon="1.80298">
        <ele>166</ele>
        <time>2018-06-14T19:51:27Z</time>
      </trkpt>
      <trkpt lat="43.88844" lon="1.80297">
        <ele>167</ele>
        <time>2018-06-14T19:51:28Z</time>
      </trkpt>
      <trkpt lat="43.88845" lon="1.80297">
        <ele>167</ele>
        <time>2018-06-14T19:51:29Z</time>
      </trkpt>
      <trkpt lat="43.88847" lon="1.80297">
        <ele>167</ele>
        <time>2018-06-14T19:51:30Z</time>
      </trkpt>
      <trkpt lat="43.88848" lon="1.80297">
        <ele>167</ele>
        <time>2018-06-14T19:51:31Z</time>
      </trkpt>
      <trkpt lat="43.88849" lon="1.80297">
        <ele>167</ele>
        <time>2018-06-14T19:51:32Z</time>
      </trkpt>
      <trkpt lat="43.8885" lon="1.80297">
        <ele>167</ele>
        <time>2018-06-14T19:51:33Z</time>
      </trkpt>
      <trkpt lat="43.88851" lon="1.80296">
        <ele>168</ele>
        <time>2018-06-14T19:51:34Z</time>
      </trkpt>
      <trkpt lat="43.88851" lon="1.80295">
        <ele>168</ele>
        <time>2018-06-14T19:51:35Z</time>
      </trkpt>
      <trkpt lat="43.88852" lon="1.80295">
        <ele>168</ele>
        <time>2018-06-14T19:51:36Z</time>
      </trkpt>
      <trkpt lat="43.88853" lon="1.80294">
        <ele>168</ele>
        <time>2018-06-14T19:51:37Z</time>
      </trkpt>
      <trkpt lat="43.88854" lon="1.80293">
        <ele>168</ele>
        <time>2018-06-14T19:51:38Z</time>
      </trkpt>
      <trkpt lat="43.88855" lon="1.80292">
        <ele>168</ele>
        <time>2018-06-14T19:51:39Z</time>
      </trkpt>
      <trkpt lat="43.88856" lon="1.80291">
        <ele>169</ele>
        <time>2018-06-14T19:51:40Z</time>
      </trkpt>
      <trkpt lat="43.88857" lon="1.8029">
        <ele>169</ele>
        <time>2018-06-14T19:51:41Z</time>
      </trkpt>
      <trkpt lat="43.88858" lon="1.80289">
        <ele>169</ele>
        <time>2018-06-14T19:51:42Z</time>
      </trkpt>
      <trkpt lat="43.88859" lon="1.80287">
        <ele>169</ele>
        <time>2018-06-14T19:51:43Z</time>
      </trkpt>
      <trkpt lat="43.88861" lon="1.80286">
        <ele>169</ele>
        <time>2018-06-14T19:51:44Z</time>
      </trkpt>
      <trkpt lat="43.88862" lon="1.80285">
        <ele>170</ele>
        <time>2018-06-14T19:51:45Z</time>
      </trkpt>
      <trkpt lat="43.88863" lon="1.80284">
        <ele>170</ele>
        <time>2018-06-14T19:51:46Z</time>
      </trkpt>
      <trkpt lat="43.88864" lon="1.80282">
        <ele>170</ele>
        <time>2018-06-14T19:51:47Z</time>
      </trkpt>
      <trkpt lat="43.88865" lon="1.8028">
        <ele>170</ele>
        <time>2018-06-14T19:51:48Z</time>
      </trkpt>
      <trkpt lat="43.88866" lon="1.80278">
        <ele>170</ele>
        <time>2018-06-14T19:51:49Z</time>
      </trkpt>
      <trkpt lat="43.88868" lon="1.80276">
        <ele>171</ele>
        <time>2018-06-14T19:51:50Z</time>
      </trkpt>
      <trkpt lat="43.8887" lon="1.80275">
        <ele>171</ele>
        <time>2018-06-14T19:51:51Z</time>
      </trkpt>
      <trkpt lat="43.88871" lon="1.80274">
        <ele>171</ele>
        <time>2018-06-14T19:51:52Z</time>
      </trkpt>
      <trkpt lat="43.88872" lon="1.80273">
        <ele>171</ele>
        <time>2018-06-14T19:51:53Z</time>
      </trkpt>
      <trkpt lat="43.88873" lon="1.80272">
        <ele>171</ele>
        <time>2018-06-14T19:51:54Z</time>
      </trkpt>
      <trkpt lat="43.88875" lon="1.80271">
        <ele>172</ele>
        <time>2018-06-14T19:51:55Z</time>
      </trkpt>
      <trkpt lat="43.88876" lon="1.80269">
        <ele>172</ele>
        <time>2018-06-14T19:51:56Z</time>
      </trkpt>
      <trkpt lat="43.88876" lon="1.80268">
        <ele>172</ele>
        <time>2018-06-14T19:51:57Z</time>
      </trkpt>
      <trkpt lat="43.88877" lon="1.80267">
        <ele>172</ele>
        <time>2018-06-14T19:51:58Z</time>
      </trkpt>
      <trkpt lat="43.88878" lon="1.80266">
        <ele>172</ele>
        <time>2018-06-14T19:51:59Z</time>
      </trkpt>
      <trkpt lat="43.88879" lon="1.80266">
        <ele>173</ele>
        <time>2018-06-14T19:52:00Z</time>
      </trkpt>
      <trkpt lat="43.8888" lon="1.80265">
        <ele>173</ele>
        <time>2018-06-14T19:52:01Z</time>
      </trkpt>
      <trkpt lat="43.88881" lon="1.80263">
        <ele>173</ele>
        <time>2018-06-14T19:52:02Z</time>
      </trkpt>
      <trkpt lat="43.88882" lon="1.80262">
        <ele>173</ele>
        <time>2018-06-14T19:52:03Z</time>
      </trkpt>
      <trkpt lat="43.88883" lon="1.80261">
        <ele>173</ele>
        <time>2018-06-14T19:52:04Z</time>
      </trkpt>
      <trkpt lat="43.88884" lon="1.8026">
        <ele>173</ele>
        <time>2018-06-14T19:52:05Z</time>
      </trkpt>
      <trkpt lat="43.88885" lon="1.80259">
        <ele>173</ele>
        <time>2018-06-14T19:52:06Z</time>
      </trkpt>
      <trkpt lat="43.88886" lon="1.80258">
        <ele>173</ele>
        <time>2018-06-14T19:52:07Z</time>
      </trkpt>
      <trkpt lat="43.88887" lon="1.80256">
        <ele>174</ele>
        <time>2018-06-14T19:52:08Z</time>
      </trkpt>
      <trkpt lat="43.88888" lon="1.80255">
        <ele>174</ele>
        <time>2018-06-14T19:52:09Z</time>
      </trkpt>
      <trkpt lat="43.88889" lon="1.80254">
        <ele>174</ele>
        <time>2018-06-14T19:52:10Z</time>
      </trkpt>
      <trkpt lat="43.8889" lon="1.80253">
        <ele>174</ele>
        <time>2018-06-14T19:52:11Z</time>
      </trkpt>
      <trkpt lat="43.88891" lon="1.80252">
        <ele>174</ele>
        <time>2018-06-14T19:52:12Z</time>
      </trkpt>
      <trkpt lat="43.88892" lon="1.80252">
        <ele>175</ele>
        <time>2018-06-14T19:52:13Z</time>
      </trkpt>
      <trkpt lat="43.88894" lon="1.80251">
        <ele>175</ele>
        <time>2018-06-14T19:52:14Z</time>
      </trkpt>
      <trkpt lat="43.88895" lon="1.80249">
        <ele>175</ele>
        <time>2018-06-14T19:52:15Z</time>
      </trkpt>
      <trkpt lat="43.88896" lon="1.80249">
        <ele>175</ele>
        <time>2018-06-14T19:52:16Z</time>
      </trkpt>
      <trkpt lat="43.88897" lon="1.80248">
        <ele>175</ele>
        <time>2018-06-14T19:52:17Z</time>
      </trkpt>
      <trkpt lat="43.88898" lon="1.80247">
        <ele>175</ele>
        <time>2018-06-14T19:52:18Z</time>
      </trkpt>
      <trkpt lat="43.88898" lon="1.80245">
        <ele>176</ele>
        <time>2018-06-14T19:52:19Z</time>
      </trkpt>
      <trkpt lat="43.88899" lon="1.80244">
        <ele>176</ele>
        <time>2018-06-14T19:52:20Z</time>
      </trkpt>
      <trkpt lat="43.889" lon="1.80243">
        <ele>176</ele>
        <time>2018-06-14T19:52:21Z</time>
      </trkpt>
      <trkpt lat="43.88901" lon="1.80242">
        <ele>176</ele>
        <time>2018-06-14T19:52:22Z</time>
      </trkpt>
      <trkpt lat="43.88902" lon="1.80241">
        <ele>176</ele>
        <time>2018-06-14T19:52:23Z</time>
      </trkpt>
      <trkpt lat="43.88903" lon="1.8024">
        <ele>176</ele>
        <time>2018-06-14T19:52:24Z</time>
      </trkpt>
      <trkpt lat="43.88904" lon="1.80239">
        <ele>177</ele>
        <time>2018-06-14T19:52:25Z</time>
      </trkpt>
      <trkpt lat="43.88905" lon="1.80237">
        <ele>177</ele>
        <time>2018-06-14T19:52:26Z</time>
      </trkpt>
      <trkpt lat="43.88906" lon="1.80236">
        <ele>177</ele>
        <time>2018-06-14T19:52:27Z</time>
      </trkpt>
      <trkpt lat="43.88907" lon="1.80234">
        <ele>177</ele>
        <time>2018-06-14T19:52:28Z</time>
      </trkpt>
      <trkpt lat="43.88908" lon="1.80233">
        <ele>177</ele>
        <time>2018-06-14T19:52:29Z</time>
      </trkpt>
      <trkpt lat="43.88909" lon="1.80231">
        <ele>177</ele>
        <time>2018-06-14T19:52:30Z</time>
      </trkpt>
      <trkpt lat="43.8891" lon="1.8023">
        <ele>177</ele>
        <time>2018-06-14T19:52:31Z</time>
      </trkpt>
      <trkpt lat="43.8891" lon="1.80229">
        <ele>177</ele>
        <time>2018-06-14T19:52:32Z</time>
      </trkpt>
      <trkpt lat="43.88911" lon="1.80228">
        <ele>178</ele>
        <time>2018-06-14T19:52:33Z</time>
      </trkpt>
      <trkpt lat="43.88912" lon="1.80226">
        <ele>178</ele>
        <time>2018-06-14T19:52:34Z</time>
      </trkpt>
      <trkpt lat="43.88913" lon="1.80225">
        <ele>178</ele>
        <time>2018-06-14T19:52:35Z</time>
      </trkpt>
      <trkpt lat="43.88914" lon="1.80223">
        <ele>178</ele>
        <time>2018-06-14T19:52:36Z</time>
      </trkpt>
      <trkpt lat="43.88915" lon="1.80222">
        <ele>178</ele>
        <time>2018-06-14T19:52:37Z</time>
      </trkpt>
      <trkpt lat="43.88916" lon="1.8022">
        <ele>178</ele>
        <time>2018-06-14T19:52:38Z</time>
      </trkpt>
      <trkpt lat="43.88916" lon="1.80219">
        <ele>178</ele>
        <time>2018-06-14T19:52:39Z</time>
      </trkpt>
      <trkpt lat="43.88917" lon="1.80217">
        <ele>179</ele>
        <time>2018-06-14T19:52:40Z</time>
      </trkpt>
      <trkpt lat="43.88918" lon="1.80216">
        <ele>179</ele>
        <time>2018-06-14T19:52:41Z</time>
      </trkpt>
      <trkpt lat="43.88919" lon="1.80215">
        <ele>179</ele>
        <time>2018-06-14T19:52:42Z</time>
      </trkpt>
      <trkpt lat="43.8892" lon="1.80214">
        <ele>179</ele>
        <time>2018-06-14T19:52:43Z</time>
      </trkpt>
      <trkpt lat="43.88921" lon="1.80212">
        <ele>179</ele>
        <time>2018-06-14T19:52:44Z</time>
      </trkpt>
      <trkpt lat="43.88922" lon="1.80211">
        <ele>179</ele>
        <time>2018-06-14T19:52:45Z</time>
      </trkpt>
      <trkpt lat="43.88923" lon="1.8021">
        <ele>179</ele>
        <time>2018-06-14T19:52:46Z</time>
      </trkpt>
      <trkpt lat="43.88924" lon="1.80208">
        <ele>180</ele>
        <time>2018-06-14T19:52:47Z</time>
      </trkpt>
      <trkpt lat="43.88925" lon="1.80207">
        <ele>180</ele>
        <time>2018-06-14T19:52:48Z</time>
      </trkpt>
      <trkpt lat="43.88925" lon="1.80206">
        <ele>180</ele>
        <time>2018-06-14T19:52:49Z</time>
      </trkpt>
      <trkpt lat="43.88926" lon="1.80204">
        <ele>180</ele>
        <time>2018-06-14T19:52:50Z</time>
      </trkpt>
      <trkpt lat="43.88927" lon="1.80202">
        <ele>180</ele>
        <time>2018-06-14T19:52:51Z</time>
      </trkpt>
      <trkpt lat="43.88928" lon="1.80201">
        <ele>180</ele>
        <time>2018-06-14T19:52:52Z</time>
      </trkpt>
      <trkpt lat="43.88929" lon="1.80199">
        <ele>180</ele>
        <time>2018-06-14T19:52:53Z</time>
      </trkpt>
      <trkpt lat="43.8893" lon="1.80198">
        <ele>181</ele>
        <time>2018-06-14T19:52:54Z</time>
      </trkpt>
      <trkpt lat="43.88931" lon="1.80197">
        <ele>181</ele>
        <time>2018-06-14T19:52:55Z</time>
      </trkpt>
      <trkpt lat="43.88931" lon="1.80195">
        <ele>181</ele>
        <time>2018-06-14T19:52:56Z</time>
      </trkpt>
      <trkpt lat="43.88932" lon="1.80194">
        <ele>181</ele>
        <time>2018-06-14T19:52:57Z</time>
      </trkpt>
      <trkpt lat="43.88933" lon="1.80193">
        <ele>181</ele>
        <time>2018-06-14T19:52:58Z</time>
      </trkpt>
      <trkpt lat="43.88935" lon="1.80192">
        <ele>182</ele>
        <time>2018-06-14T19:52:59Z</time>
      </trkpt>
      <trkpt lat="43.88935" lon="1.8019">
        <ele>182</ele>
        <time>2018-06-14T19:53:00Z</time>
      </trkpt>
      <trkpt lat="43.88936" lon="1.80189">
        <ele>182</ele>
        <time>2018-06-14T19:53:01Z</time>
      </trkpt>
      <trkpt lat="43.88937" lon="1.80188">
        <ele>182</ele>
        <time>2018-06-14T19:53:02Z</time>
      </trkpt>
      <trkpt lat="43.88938" lon="1.80186">
        <ele>182</ele>
        <time>2018-06-14T19:53:03Z</time>
      </trkpt>
      <trkpt lat="43.88939" lon="1.80185">
        <ele>182</ele>
        <time>2018-06-14T19:53:04Z</time>
      </trkpt>
      <trkpt lat="43.88941" lon="1.80184">
        <ele>182</ele>
        <time>2018-06-14T19:53:05Z</time>
      </trkpt>
      <trkpt lat="43.88942" lon="1.80183">
        <ele>182</ele>
        <time>2018-06-14T19:53:06Z</time>
      </trkpt>
      <trkpt lat="43.88943" lon="1.80182">
        <ele>183</ele>
        <time>2018-06-14T19:53:07Z</time>
      </trkpt>
      <trkpt lat="43.88944" lon="1.80181">
        <ele>183</ele>
        <time>2018-06-14T19:53:08Z</time>
      </trkpt>
      <trkpt lat="43.88945" lon="1.8018">
        <ele>183</ele>
        <time>2018-06-14T19:53:09Z</time>
      </trkpt>
      <trkpt lat="43.88945" lon="1.80179">
        <ele>183</ele>
        <time>2018-06-14T19:53:10Z</time>
      </trkpt>
      <trkpt lat="43.88946" lon="1.80177">
        <ele>183</ele>
        <time>2018-06-14T19:53:11Z</time>
      </trkpt>
      <trkpt lat="43.88947" lon="1.80176">
        <ele>183</ele>
        <time>2018-06-14T19:53:12Z</time>
      </trkpt>
      <trkpt lat="43.88948" lon="1.80175">
        <ele>184</ele>
        <time>2018-06-14T19:53:13Z</time>
      </trkpt>
      <trkpt lat="43.88949" lon="1.80174">
        <ele>184</ele>
        <time>2018-06-14T19:53:14Z</time>
      </trkpt>
      <trkpt lat="43.8895" lon="1.80173">
        <ele>184</ele>
        <time>2018-06-14T19:53:15Z</time>
      </trkpt>
      <trkpt lat="43.88951" lon="1.80171">
        <ele>184</ele>
        <time>2018-06-14T19:53:16Z</time>
      </trkpt>
      <trkpt lat="43.88952" lon="1.80171">
        <ele>184</ele>
        <time>2018-06-14T19:53:17Z</time>
      </trkpt>
      <trkpt lat="43.88953" lon="1.8017">
        <ele>184</ele>
        <time>2018-06-14T19:53:18Z</time>
      </trkpt>
      <trkpt lat="43.88953" lon="1.80168">
        <ele>184</ele>
        <time>2018-06-14T19:53:19Z</time>
      </trkpt>
      <trkpt lat="43.88954" lon="1.80167">
        <ele>185</ele>
        <time>2018-06-14T19:53:20Z</time>
      </trkpt>
      <trkpt lat="43.88955" lon="1.80166">
        <ele>185</ele>
        <time>2018-06-14T19:53:21Z</time>
      </trkpt>
      <trkpt lat="43.88956" lon="1.80165">
        <ele>185</ele>
        <time>2018-06-14T19:53:22Z</time>
      </trkpt>
      <trkpt lat="43.88957" lon="1.80164">
        <ele>186</ele>
        <time>2018-06-14T19:53:23Z</time>
      </trkpt>
      <trkpt lat="43.88958" lon="1.80162">
        <ele>186</ele>
        <time>2018-06-14T19:53:24Z</time>
      </trkpt>
      <trkpt lat="43.88959" lon="1.80161">
        <ele>186</ele>
        <time>2018-06-14T19:53:25Z</time>
      </trkpt>
      <trkpt lat="43.8896" lon="1.8016">
        <ele>186</ele>
        <time>2018-06-14T19:53:26Z</time>
      </trkpt>
      <trkpt lat="43.88961" lon="1.80159">
        <ele>186</ele>
        <time>2018-06-14T19:53:27Z</time>
      </trkpt>
      <trkpt lat="43.88962" lon="1.80158">
        <ele>187</ele>
        <time>2018-06-14T19:53:28Z</time>
      </trkpt>
      <trkpt lat="43.88963" lon="1.80157">
        <ele>187</ele>
        <time>2018-06-14T19:53:29Z</time>
      </trkpt>
      <trkpt lat="43.88964" lon="1.80156">
        <ele>187</ele>
        <time>2018-06-14T19:53:30Z</time>
      </trkpt>
      <trkpt lat="43.88965" lon="1.80154">
        <ele>187</ele>
        <time>2018-06-14T19:53:31Z</time>
      </trkpt>
      <trkpt lat="43.88966" lon="1.80154">
        <ele>187</ele>
        <time>2018-06-14T19:53:32Z</time>
      </trkpt>
      <trkpt lat="43.88967" lon="1.80153">
        <ele>187</ele>
        <time>2018-06-14T19:53:33Z</time>
      </trkpt>
      <trkpt lat="43.88968" lon="1.80151">
        <ele>188</ele>
        <time>2018-06-14T19:53:34Z</time>
      </trkpt>
      <trkpt lat="43.88969" lon="1.80151">
        <ele>188</ele>
        <time>2018-06-14T19:53:35Z</time>
      </trkpt>
      <trkpt lat="43.88969" lon="1.80149">
        <ele>188</ele>
        <time>2018-06-14T19:53:36Z</time>
      </trkpt>
      <trkpt lat="43.88971" lon="1.80148">
        <ele>188</ele>
        <time>2018-06-14T19:53:37Z</time>
      </trkpt>
      <trkpt lat="43.88972" lon="1.80147">
        <ele>188</ele>
        <time>2018-06-14T19:53:38Z</time>
      </trkpt>
      <trkpt lat="43.88973" lon="1.80146">
        <ele>189</ele>
        <time>2018-06-14T19:53:39Z</time>
      </trkpt>
      <trkpt lat="43.88974" lon="1.80144">
        <ele>189</ele>
        <time>2018-06-14T19:53:40Z</time>
      </trkpt>
      <trkpt lat="43.88975" lon="1.80143">
        <ele>189</ele>
        <time>2018-06-14T19:53:41Z</time>
      </trkpt>
      <trkpt lat="43.88976" lon="1.80142">
        <ele>189</ele>
        <time>2018-06-14T19:53:42Z</time>
      </trkpt>
      <trkpt lat="43.88977" lon="1.8014">
        <ele>189</ele>
        <time>2018-06-14T19:53:43Z</time>
      </trkpt>
      <trkpt lat="43.88978" lon="1.80139">
        <ele>189</ele>
        <time>2018-06-14T19:53:44Z</time>
      </trkpt>
      <trkpt lat="43.88979" lon="1.80138">
        <ele>190</ele>
        <time>2018-06-14T19:53:45Z</time>
      </trkpt>
      <trkpt lat="43.8898" lon="1.80137">
        <ele>190</ele>
        <time>2018-06-14T19:53:46Z</time>
      </trkpt>
      <trkpt lat="43.8898" lon="1.80136">
        <ele>190</ele>
        <time>2018-06-14T19:53:47Z</time>
      </trkpt>
      <trkpt lat="43.88982" lon="1.80135">
        <ele>190</ele>
        <time>2018-06-14T19:53:48Z</time>
      </trkpt>
      <trkpt lat="43.88983" lon="1.80134">
        <ele>190</ele>
        <time>2018-06-14T19:53:49Z</time>
      </trkpt>
      <trkpt lat="43.88984" lon="1.80133">
        <ele>191</ele>
        <time>2018-06-14T19:53:50Z</time>
      </trkpt>
      <trkpt lat="43.88985" lon="1.80132">
        <ele>191</ele>
        <time>2018-06-14T19:53:51Z</time>
      </trkpt>
      <trkpt lat="43.88986" lon="1.8013">
        <ele>191</ele>
        <time>2018-06-14T19:53:52Z</time>
      </trkpt>
      <trkpt lat="43.88987" lon="1.80129">
        <ele>191</ele>
        <time>2018-06-14T19:53:53Z</time>
      </trkpt>
      <trkpt lat="43.88988" lon="1.80129">
        <ele>191</ele>
        <time>2018-06-14T19:53:54Z</time>
      </trkpt>
      <trkpt lat="43.88989" lon="1.80127">
        <ele>192</ele>
        <time>2018-06-14T19:53:55Z</time>
      </trkpt>
      <trkpt lat="43.8899" lon="1.80127">
        <ele>192</ele>
        <time>2018-06-14T19:53:56Z</time>
      </trkpt>
      <trkpt lat="43.88991" lon="1.80126">
        <ele>192</ele>
        <time>2018-06-14T19:53:57Z</time>
      </trkpt>
      <trkpt lat="43.88992" lon="1.80125">
        <ele>192</ele>
        <time>2018-06-14T19:53:58Z</time>
      </trkpt>
      <trkpt lat="43.88993" lon="1.80123">
        <ele>192</ele>
        <time>2018-06-14T19:53:59Z</time>
      </trkpt>
      <trkpt lat="43.88994" lon="1.80122">
        <ele>193</ele>
        <time>2018-06-14T19:54:00Z</time>
      </trkpt>
      <trkpt lat="43.88995" lon="1.8012">
        <ele>193</ele>
        <time>2018-06-14T19:54:01Z</time>
      </trkpt>
      <trkpt lat="43.88996" lon="1.80119">
        <ele>193</ele>
        <time>2018-06-14T19:54:02Z</time>
      </trkpt>
      <trkpt lat="43.88997" lon="1.80118">
        <ele>193</ele>
        <time>2018-06-14T19:54:03Z</time>
      </trkpt>
      <trkpt lat="43.88998" lon="1.80117">
        <ele>194</ele>
        <time>2018-06-14T19:54:04Z</time>
      </trkpt>
      <trkpt lat="43.88999" lon="1.80116">
        <ele>194</ele>
        <time>2018-06-14T19:54:05Z</time>
      </trkpt>
      <trkpt lat="43.89" lon="1.80115">
        <ele>194</ele>
        <time>2018-06-14T19:54:06Z</time>
      </trkpt>
      <trkpt lat="43.89001" lon="1.80113">
        <ele>194</ele>
        <time>2018-06-14T19:54:07Z</time>
      </trkpt>
      <trkpt lat="43.89002" lon="1.80112">
        <ele>194</ele>
        <time>2018-06-14T19:54:08Z</time>
      </trkpt>
      <trkpt lat="43.89003" lon="1.8011">
        <ele>194</ele>
        <time>2018-06-14T19:54:09Z</time>
      </trkpt>
      <trkpt lat="43.89004" lon="1.80108">
        <ele>195</ele>
        <time>2018-06-14T19:54:10Z</time>
      </trkpt>
      <trkpt lat="43.89006" lon="1.80106">
        <ele>195</ele>
        <time>2018-06-14T19:54:11Z</time>
      </trkpt>
      <trkpt lat="43.89007" lon="1.80104">
        <ele>195</ele>
        <time>2018-06-14T19:54:12Z</time>
      </trkpt>
      <trkpt lat="43.89009" lon="1.80101">
        <ele>195</ele>
        <time>2018-06-14T19:54:13Z</time>
      </trkpt>
      <trkpt lat="43.89011" lon="1.801">
        <ele>195</ele>
        <time>2018-06-14T19:54:14Z</time>
      </trkpt>
      <trkpt lat="43.89013" lon="1.80099">
        <ele>196</ele>
        <time>2018-06-14T19:54:15Z</time>
      </trkpt>
      <trkpt lat="43.89014" lon="1.80099">
        <ele>196</ele>
        <time>2018-06-14T19:54:16Z</time>
      </trkpt>
      <trkpt lat="43.89016" lon="1.80099">
        <ele>196</ele>
        <time>2018-06-14T19:54:17Z</time>
      </trkpt>
      <trkpt lat="43.89017" lon="1.80099">
        <ele>196</ele>
        <time>2018-06-14T19:54:18Z</time>
      </trkpt>
      <trkpt lat="43.89019" lon="1.80099">
        <ele>196</ele>
        <time>2018-06-14T19:54:19Z</time>
      </trkpt>
      <trkpt lat="43.8902" lon="1.80099">
        <ele>197</ele>
        <time>2018-06-14T19:54:20Z</time>
      </trkpt>
      <trkpt lat="43.89021" lon="1.801">
        <ele>197</ele>
        <time>2018-06-14T19:54:21Z</time>
      </trkpt>
      <trkpt lat="43.89023" lon="1.801">
        <ele>197</ele>
        <time>2018-06-14T19:54:22Z</time>
      </trkpt>
      <trkpt lat="43.89024" lon="1.80101">
        <ele>198</ele>
        <time>2018-06-14T19:54:23Z</time>
      </trkpt>
      <trkpt lat="43.89025" lon="1.80102">
        <ele>198</ele>
        <time>2018-06-14T19:54:24Z</time>
      </trkpt>
      <trkpt lat="43.89027" lon="1.80103">
        <ele>198</ele>
        <time>2018-06-14T19:54:25Z</time>
      </trkpt>
      <trkpt lat="43.89028" lon="1.80104">
        <ele>198</ele>
        <time>2018-06-14T19:54:26Z</time>
      </trkpt>
      <trkpt lat="43.89029" lon="1.80105">
        <ele>198</ele>
        <time>2018-06-14T19:54:27Z</time>
      </trkpt>
      <trkpt lat="43.8903" lon="1.80106">
        <ele>199</ele>
        <time>2018-06-14T19:54:28Z</time>
      </trkpt>
      <trkpt lat="43.89032" lon="1.80107">
        <ele>199</ele>
        <time>2018-06-14T19:54:29Z</time>
      </trkpt>
      <trkpt lat="43.89033" lon="1.80108">
        <ele>199</ele>
        <time>2018-06-14T19:54:30Z</time>
      </trkpt>
      <trkpt lat="43.89034" lon="1.80108">
        <ele>199</ele>
        <time>2018-06-14T19:54:31Z</time>
      </trkpt>
      <trkpt lat="43.89035" lon="1.80109">
        <ele>199</ele>
        <time>2018-06-14T19:54:32Z</time>
      </trkpt>
      <trkpt lat="43.89037" lon="1.80109">
        <ele>199</ele>
        <time>2018-06-14T19:54:33Z</time>
      </trkpt>
      <trkpt lat="43.89038" lon="1.8011">
        <ele>199</ele>
        <time>2018-06-14T19:54:34Z</time>
      </trkpt>
      <trkpt lat="43.89039" lon="1.80111">
        <ele>200</ele>
        <time>2018-06-14T19:54:35Z</time>
      </trkpt>
      <trkpt lat="43.89041" lon="1.80111">
        <ele>200</ele>
        <time>2018-06-14T19:54:36Z</time>
      </trkpt>
      <trkpt lat="43.89043" lon="1.80111">
        <ele>200</ele>
        <time>2018-06-14T19:54:37Z</time>
      </trkpt>
      <trkpt lat="43.89045" lon="1.80111">
        <ele>200</ele>
        <time>2018-06-14T19:54:38Z</time>
      </trkpt>
      <trkpt lat="43.89046" lon="1.80112">
        <ele>200</ele>
        <time>2018-06-14T19:54:39Z</time>
      </trkpt>
      <trkpt lat="43.89048" lon="1.80112">
        <ele>201</ele>
        <time>2018-06-14T19:54:40Z</time>
      </trkpt>
      <trkpt lat="43.89049" lon="1.80113">
        <ele>201</ele>
        <time>2018-06-14T19:54:41Z</time>
      </trkpt>
      <trkpt lat="43.8905" lon="1.80113">
        <ele>201</ele>
        <time>2018-06-14T19:54:42Z</time>
      </trkpt>
      <trkpt lat="43.89052" lon="1.80114">
        <ele>201</ele>
        <time>2018-06-14T19:54:43Z</time>
      </trkpt>
      <trkpt lat="43.89053" lon="1.80115">
        <ele>201</ele>
        <time>2018-06-14T19:54:44Z</time>
      </trkpt>
      <trkpt lat="43.89055" lon="1.80115">
        <ele>201</ele>
        <time>2018-06-14T19:54:45Z</time>
      </trkpt>
      <trkpt lat="43.89056" lon="1.80116">
        <ele>202</ele>
        <time>2018-06-14T19:54:46Z</time>
      </trkpt>
      <trkpt lat="43.89057" lon="1.80117">
        <ele>202</ele>
        <time>2018-06-14T19:54:47Z</time>
      </trkpt>
      <trkpt lat="43.89059" lon="1.80118">
        <ele>202</ele>
        <time>2018-06-14T19:54:48Z</time>
      </trkpt>
      <trkpt lat="43.8906" lon="1.80119">
        <ele>202</ele>
        <time>2018-06-14T19:54:49Z</time>
      </trkpt>
      <trkpt lat="43.89061" lon="1.80119">
        <ele>203</ele>
        <time>2018-06-14T19:54:50Z</time>
      </trkpt>
      <trkpt lat="43.89062" lon="1.8012">
        <ele>203</ele>
        <time>2018-06-14T19:54:51Z</time>
      </trkpt>
      <trkpt lat="43.89064" lon="1.80121">
        <ele>203</ele>
        <time>2018-06-14T19:54:52Z</time>
      </trkpt>
      <trkpt lat="43.89066" lon="1.80122">
        <ele>203</ele>
        <time>2018-06-14T19:54:53Z</time>
      </trkpt>
      <trkpt lat="43.89067" lon="1.80123">
        <ele>203</ele>
        <time>2018-06-14T19:54:54Z</time>
      </trkpt>
      <trkpt lat="43.89069" lon="1.80123">
        <ele>203</ele>
        <time>2018-06-14T19:54:55Z</time>
      </trkpt>
      <trkpt lat="43.8907" lon="1.80124">
        <ele>204</ele>
        <time>2018-06-14T19:54:56Z</time>
      </trkpt>
      <trkpt lat="43.89072" lon="1.80125">
        <ele>204</ele>
        <time>2018-06-14T19:54:57Z</time>
      </trkpt>
      <trkpt lat="43.89073" lon="1.80126">
        <ele>204</ele>
        <time>2018-06-14T19:54:58Z</time>
      </trkpt>
      <trkpt lat="43.89074" lon="1.80127">
        <ele>204</ele>
        <time>2018-06-14T19:54:59Z</time>
      </trkpt>
      <trkpt lat="43.89076" lon="1.80128">
        <ele>205</ele>
        <time>2018-06-14T19:55:00Z</time>
      </trkpt>
      <trkpt lat="43.89077" lon="1.80128">
        <ele>205</ele>
        <time>2018-06-14T19:55:01Z</time>
      </trkpt>
      <trkpt lat="43.89079" lon="1.80129">
        <ele>205</ele>
        <time>2018-06-14T19:55:02Z</time>
      </trkpt>
      <trkpt lat="43.89081" lon="1.8013">
        <ele>205</ele>
        <time>2018-06-14T19:55:03Z</time>
      </trkpt>
      <trkpt lat="43.89083" lon="1.8013">
        <ele>205</ele>
        <time>2018-06-14T19:55:04Z</time>
      </trkpt>
      <trkpt lat="43.89084" lon="1.80131">
        <ele>205</ele>
        <time>2018-06-14T19:55:05Z</time>
      </trkpt>
      <trkpt lat="43.89086" lon="1.80131">
        <ele>205</ele>
        <time>2018-06-14T19:55:06Z</time>
      </trkpt>
      <trkpt lat="43.89087" lon="1.80131">
        <ele>205</ele>
        <time>2018-06-14T19:55:07Z</time>
      </trkpt>
      <trkpt lat="43.89089" lon="1.80131">
        <ele>205</ele>
        <time>2018-06-14T19:55:08Z</time>
      </trkpt>
      <trkpt lat="43.89091" lon="1.80131">
        <ele>205</ele>
        <time>2018-06-14T19:55:09Z</time>
      </trkpt>
      <trkpt lat="43.89093" lon="1.8013">
        <ele>205</ele>
        <time>2018-06-14T19:55:10Z</time>
      </trkpt>
      <trkpt lat="43.89094" lon="1.8013">
        <ele>205</ele>
        <time>2018-06-14T19:55:11Z</time>
      </trkpt>
      <trkpt lat="43.89096" lon="1.8013">
        <ele>205</ele>
        <time>2018-06-14T19:55:12Z</time>
      </trkpt>
      <trkpt lat="43.89098" lon="1.8013">
        <ele>205</ele>
        <time>2018-06-14T19:55:13Z</time>
      </trkpt>
      <trkpt lat="43.891" lon="1.8013">
        <ele>206</ele>
        <time>2018-06-14T19:55:14Z</time>
      </trkpt>
      <trkpt lat="43.89102" lon="1.8013">
        <ele>206</ele>
        <time>2018-06-14T19:55:15Z</time>
      </trkpt>
      <trkpt lat="43.89103" lon="1.8013">
        <ele>206</ele>
        <time>2018-06-14T19:55:16Z</time>
      </trkpt>
      <trkpt lat="43.89105" lon="1.80128">
        <ele>206</ele>
        <time>2018-06-14T19:55:17Z</time>
      </trkpt>
      <trkpt lat="43.89106" lon="1.80128">
        <ele>206</ele>
        <time>2018-06-14T19:55:18Z</time>
      </trkpt>
      <trkpt lat="43.89108" lon="1.80127">
        <ele>206</ele>
        <time>2018-06-14T19:55:19Z</time>
      </trkpt>
      <trkpt lat="43.89109" lon="1.80128">
        <ele>206</ele>
        <time>2018-06-14T19:55:20Z</time>
      </trkpt>
      <trkpt lat="43.8911" lon="1.80128">
        <ele>206</ele>
        <time>2018-06-14T19:55:21Z</time>
      </trkpt>
      <trkpt lat="43.89112" lon="1.80129">
        <ele>206</ele>
        <time>2018-06-14T19:55:22Z</time>
      </trkpt>
      <trkpt lat="43.89114" lon="1.80129">
        <ele>206</ele>
        <time>2018-06-14T19:55:23Z</time>
      </trkpt>
      <trkpt lat="43.89116" lon="1.8013">
        <ele>206</ele>
        <time>2018-06-14T19:55:24Z</time>
      </trkpt>
      <trkpt lat="43.89117" lon="1.80129">
        <ele>205</ele>
        <time>2018-06-14T19:55:25Z</time>
      </trkpt>
      <trkpt lat="43.89118" lon="1.80129">
        <ele>205</ele>
        <time>2018-06-14T19:55:26Z</time>
      </trkpt>
      <trkpt lat="43.89118" lon="1.80127">
        <ele>205</ele>
        <time>2018-06-14T19:55:27Z</time>
      </trkpt>
      <trkpt lat="43.89117" lon="1.80127">
        <ele>206</ele>
        <time>2018-06-14T19:55:28Z</time>
      </trkpt>
      <trkpt lat="43.89115" lon="1.80127">
        <ele>205</ele>
        <time>2018-06-14T19:55:29Z</time>
      </trkpt>
      <trkpt lat="43.89114" lon="1.80127">
        <ele>205</ele>
        <time>2018-06-14T19:55:30Z</time>
      </trkpt>
      <trkpt lat="43.89112" lon="1.80127">
        <ele>205</ele>
        <time>2018-06-14T19:55:31Z</time>
      </trkpt>
      <trkpt lat="43.8911" lon="1.80127">
        <ele>205</ele>
        <time>2018-06-14T19:55:32Z</time>
      </trkpt>
      <trkpt lat="43.89109" lon="1.80127">
        <ele>205</ele>
        <time>2018-06-14T19:55:33Z</time>
      </trkpt>
      <trkpt lat="43.89107" lon="1.80128">
        <ele>206</ele>
        <time>2018-06-14T19:55:34Z</time>
      </trkpt>
      <trkpt lat="43.89105" lon="1.80128">
        <ele>206</ele>
        <time>2018-06-14T19:55:35Z</time>
      </trkpt>
      <trkpt lat="43.89103" lon="1.80128">
        <ele>206</ele>
        <time>2018-06-14T19:55:36Z</time>
      </trkpt>
      <trkpt lat="43.89101" lon="1.80129">
        <ele>206</ele>
        <time>2018-06-14T19:55:37Z</time>
      </trkpt>
      <trkpt lat="43.891" lon="1.80129">
        <ele>206</ele>
        <time>2018-06-14T19:55:38Z</time>
      </trkpt>
      <trkpt lat="43.89098" lon="1.8013">
        <ele>206</ele>
        <time>2018-06-14T19:55:39Z</time>
      </trkpt>
      <trkpt lat="43.89096" lon="1.80131">
        <ele>206</ele>
        <time>2018-06-14T19:55:40Z</time>
      </trkpt>
      <trkpt lat="43.89095" lon="1.80131">
        <ele>206</ele>
        <time>2018-06-14T19:55:41Z</time>
      </trkpt>
      <trkpt lat="43.89093" lon="1.80131">
        <ele>206</ele>
        <time>2018-06-14T19:55:42Z</time>
      </trkpt>
      <trkpt lat="43.89091" lon="1.80131">
        <ele>206</ele>
        <time>2018-06-14T19:55:43Z</time>
      </trkpt>
      <trkpt lat="43.89089" lon="1.80131">
        <ele>206</ele>
        <time>2018-06-14T19:55:44Z</time>
      </trkpt>
      <trkpt lat="43.89087" lon="1.8013">
        <ele>205</ele>
        <time>2018-06-14T19:55:45Z</time>
      </trkpt>
      <trkpt lat="43.89085" lon="1.8013">
        <ele>205</ele>
        <time>2018-06-14T19:55:46Z</time>
      </trkpt>
      <trkpt lat="43.89084" lon="1.8013">
        <ele>205</ele>
        <time>2018-06-14T19:55:47Z</time>
      </trkpt>
      <trkpt lat="43.89082" lon="1.8013">
        <ele>205</ele>
        <time>2018-06-14T19:55:48Z</time>
      </trkpt>
      <trkpt lat="43.8908" lon="1.8013">
        <ele>205</ele>
        <time>2018-06-14T19:55:49Z</time>
      </trkpt>
      <trkpt lat="43.89079" lon="1.8013">
        <ele>205</ele>
        <time>2018-06-14T19:55:50Z</time>
      </trkpt>
      <trkpt lat="43.89077" lon="1.8013">
        <ele>205</ele>
        <time>2018-06-14T19:55:51Z</time>
      </trkpt>
      <trkpt lat="43.89076" lon="1.80129">
        <ele>205</ele>
        <time>2018-06-14T19:55:52Z</time>
      </trkpt>
      <trkpt lat="43.89075" lon="1.80129">
        <ele>205</ele>
        <time>2018-06-14T19:55:53Z</time>
      </trkpt>
      <trkpt lat="43.89074" lon="1.80128">
        <ele>205</ele>
        <time>2018-06-14T19:55:54Z</time>
      </trkpt>
      <trkpt lat="43.89073" lon="1.80127">
        <ele>205</ele>
        <time>2018-06-14T19:55:55Z</time>
      </trkpt>
      <trkpt lat="43.89071" lon="1.80126">
        <ele>205</ele>
        <time>2018-06-14T19:55:56Z</time>
      </trkpt>
      <trkpt lat="43.8907" lon="1.80125">
        <ele>205</ele>
        <time>2018-06-14T19:55:57Z</time>
      </trkpt>
      <trkpt lat="43.89069" lon="1.80125">
        <ele>204</ele>
        <time>2018-06-14T19:55:58Z</time>
      </trkpt>
      <trkpt lat="43.89068" lon="1.80124">
        <ele>204</ele>
        <time>2018-06-14T19:55:59Z</time>
      </trkpt>
      <trkpt lat="43.89067" lon="1.80124">
        <ele>204</ele>
        <time>2018-06-14T19:56:00Z</time>
      </trkpt>
      <trkpt lat="43.89068" lon="1.80124">
        <ele>204</ele>
        <time>2018-06-14T19:56:01Z</time>
      </trkpt>
      <trkpt lat="43.89067" lon="1.80123">
        <ele>204</ele>
        <time>2018-06-14T19:56:02Z</time>
      </trkpt>
      <trkpt lat="43.89066" lon="1.80123">
        <ele>204</ele>
        <time>2018-06-14T19:56:03Z</time>
      </trkpt>
      <trkpt lat="43.89066" lon="1.80124">
        <ele>204</ele>
        <time>2018-06-14T19:56:04Z</time>
      </trkpt>
      <trkpt lat="43.89066" lon="1.80124">
        <ele>203</ele>
        <time>2018-06-14T19:56:07Z</time>
      </trkpt>
      <trkpt lat="43.89066" lon="1.80124">
        <ele>204</ele>
        <time>2018-06-14T19:56:10Z</time>
      </trkpt>
      <trkpt lat="43.89067" lon="1.80124">
        <ele>204</ele>
        <time>2018-06-14T19:56:11Z</time>
      </trkpt>
      <trkpt lat="43.89068" lon="1.80125">
        <ele>204</ele>
        <time>2018-06-14T19:56:12Z</time>
      </trkpt>
      <trkpt lat="43.89069" lon="1.80125">
        <ele>204</ele>
        <time>2018-06-14T19:56:13Z</time>
      </trkpt>
      <trkpt lat="43.8907" lon="1.80126">
        <ele>204</ele>
        <time>2018-06-14T19:56:14Z</time>
      </trkpt>
      <trkpt lat="43.89071" lon="1.80127">
        <ele>204</ele>
        <time>2018-06-14T19:56:15Z</time>
      </trkpt>
      <trkpt lat="43.89071" lon="1.80128">
        <ele>204</ele>
        <time>2018-06-14T19:56:16Z</time>
      </trkpt>
      <trkpt lat="43.89073" lon="1.80128">
        <ele>204</ele>
        <time>2018-06-14T19:56:17Z</time>
      </trkpt>
      <trkpt lat="43.89074" lon="1.80128">
        <ele>204</ele>
        <time>2018-06-14T19:56:18Z</time>
      </trkpt>
      <trkpt lat="43.89076" lon="1.80129">
        <ele>204</ele>
        <time>2018-06-14T19:56:19Z</time>
      </trkpt>
      <trkpt lat="43.89079" lon="1.80129">
        <ele>205</ele>
        <time>2018-06-14T19:56:20Z</time>
      </trkpt>
      <trkpt lat="43.89081" lon="1.8013">
        <ele>205</ele>
        <time>2018-06-14T19:56:21Z</time>
      </trkpt>
      <trkpt lat="43.89082" lon="1.80131">
        <ele>205</ele>
        <time>2018-06-14T19:56:22Z</time>
      </trkpt>
      <trkpt lat="43.89084" lon="1.8013">
        <ele>205</ele>
        <time>2018-06-14T19:56:23Z</time>
      </trkpt>
      <trkpt lat="43.89086" lon="1.80131">
        <ele>205</ele>
        <time>2018-06-14T19:56:24Z</time>
      </trkpt>
      <trkpt lat="43.89088" lon="1.8013">
        <ele>205</ele>
        <time>2018-06-14T19:56:25Z</time>
      </trkpt>
      <trkpt lat="43.89089" lon="1.8013">
        <ele>205</ele>
        <time>2018-06-14T19:56:26Z</time>
      </trkpt>
      <trkpt lat="43.89091" lon="1.8013">
        <ele>206</ele>
        <time>2018-06-14T19:56:27Z</time>
      </trkpt>
      <trkpt lat="43.89093" lon="1.80131">
        <ele>206</ele>
        <time>2018-06-14T19:56:28Z</time>
      </trkpt>
      <trkpt lat="43.89094" lon="1.80131">
        <ele>206</ele>
        <time>2018-06-14T19:56:29Z</time>
      </trkpt>
      <trkpt lat="43.89096" lon="1.80131">
        <ele>206</ele>
        <time>2018-06-14T19:56:30Z</time>
      </trkpt>
      <trkpt lat="43.89098" lon="1.8013">
        <ele>206</ele>
        <time>2018-06-14T19:56:31Z</time>
      </trkpt>
      <trkpt lat="43.89101" lon="1.8013">
        <ele>206</ele>
        <time>2018-06-14T19:56:32Z</time>
      </trkpt>
      <trkpt lat="43.89103" lon="1.80129">
        <ele>206</ele>
        <time>2018-06-14T19:56:33Z</time>
      </trkpt>
      <trkpt lat="43.89104" lon="1.80128">
        <ele>206</ele>
        <time>2018-06-14T19:56:34Z</time>
      </trkpt>
      <trkpt lat="43.89106" lon="1.80128">
        <ele>206</ele>
        <time>2018-06-14T19:56:35Z</time>
      </trkpt>
      <trkpt lat="43.89109" lon="1.80127">
        <ele>206</ele>
        <time>2018-06-14T19:56:36Z</time>
      </trkpt>
      <trkpt lat="43.89111" lon="1.80127">
        <ele>206</ele>
        <time>2018-06-14T19:56:37Z</time>
      </trkpt>
      <trkpt lat="43.89113" lon="1.80126">
        <ele>206</ele>
        <time>2018-06-14T19:56:38Z</time>
      </trkpt>
      <trkpt lat="43.89116" lon="1.80126">
        <ele>206</ele>
        <time>2018-06-14T19:56:39Z</time>
      </trkpt>
      <trkpt lat="43.89118" lon="1.80125">
        <ele>206</ele>
        <time>2018-06-14T19:56:40Z</time>
      </trkpt>
      <trkpt lat="43.89121" lon="1.80125">
        <ele>206</ele>
        <time>2018-06-14T19:56:41Z</time>
      </trkpt>
      <trkpt lat="43.89123" lon="1.80125">
        <ele>206</ele>
        <time>2018-06-14T19:56:42Z</time>
      </trkpt>
      <trkpt lat="43.89125" lon="1.80124">
        <ele>206</ele>
        <time>2018-06-14T19:56:43Z</time>
      </trkpt>
      <trkpt lat="43.89128" lon="1.80124">
        <ele>206</ele>
        <time>2018-06-14T19:56:44Z</time>
      </trkpt>
      <trkpt lat="43.8913" lon="1.80123">
        <ele>206</ele>
        <time>2018-06-14T19:56:45Z</time>
      </trkpt>
      <trkpt lat="43.89133" lon="1.80123">
        <ele>206</ele>
        <time>2018-06-14T19:56:46Z</time>
      </trkpt>
      <trkpt lat="43.89136" lon="1.80123">
        <ele>206</ele>
        <time>2018-06-14T19:56:47Z</time>
      </trkpt>
      <trkpt lat="43.89138" lon="1.80122">
        <ele>206</ele>
        <time>2018-06-14T19:56:48Z</time>
      </trkpt>
      <trkpt lat="43.89141" lon="1.80122">
        <ele>206</ele>
        <time>2018-06-14T19:56:49Z</time>
      </trkpt>
      <trkpt lat="43.89143" lon="1.80122">
        <ele>206</ele>
        <time>2018-06-14T19:56:50Z</time>
      </trkpt>
      <trkpt lat="43.89145" lon="1.80122">
        <ele>206</ele>
        <time>2018-06-14T19:56:51Z</time>
      </trkpt>
      <trkpt lat="43.89147" lon="1.80122">
        <ele>206</ele>
        <time>2018-06-14T19:56:52Z</time>
      </trkpt>
      <trkpt lat="43.89149" lon="1.80122">
        <ele>206</ele>
        <time>2018-06-14T19:56:53Z</time>
      </trkpt>
      <trkpt lat="43.8915" lon="1.80122">
        <ele>206</ele>
        <time>2018-06-14T19:56:54Z</time>
      </trkpt>
      <trkpt lat="43.89149" lon="1.80122">
        <ele>206</ele>
        <time>2018-06-14T19:56:55Z</time>
      </trkpt>
      <trkpt lat="43.8915" lon="1.80122">
        <ele>206</ele>
        <time>2018-06-14T19:56:56Z</time>
      </trkpt>
      <trkpt lat="43.8915" lon="1.80122">
        <ele>206</ele>
        <time>2018-06-14T19:57:35Z</time>
      </trkpt>
      <trkpt lat="43.8915" lon="1.80122">
        <ele>206</ele>
        <time>2018-06-14T19:58:15Z</time>
      </trkpt>
      <trkpt lat="43.8915" lon="1.80122">
        <ele>206</ele>
        <time>2018-06-14T19:58:55Z</time>
      </trkpt>
      <trkpt lat="43.89151" lon="1.80122">
        <ele>206</ele>
        <time>2018-06-14T19:59:25Z</time>
      </trkpt>
      <trkpt lat="43.8915" lon="1.80122">
        <ele>206</ele>
        <time>2018-06-14T19:59:26Z</time>
      </trkpt>
      <trkpt lat="43.89151" lon="1.80121">
        <ele>206</ele>
        <time>2018-06-14T19:59:27Z</time>
      </trkpt>
      <trkpt lat="43.89151" lon="1.80121">
        <ele>206</ele>
        <time>2018-06-14T19:59:30Z</time>
      </trkpt>
      <trkpt lat="43.89152" lon="1.80121">
        <ele>206</ele>
        <time>2018-06-14T19:59:31Z</time>
      </trkpt>
      <trkpt lat="43.89152" lon="1.80121">
        <ele>206</ele>
        <time>2018-06-14T19:59:32Z</time>
      </trkpt>
      <trkpt lat="43.89152" lon="1.8012">
        <ele>206</ele>
        <time>2018-06-14T19:59:33Z</time>
      </trkpt>
      <trkpt lat="43.89153" lon="1.8012">
        <ele>206</ele>
        <time>2018-06-14T19:59:34Z</time>
      </trkpt>
      <trkpt lat="43.89154" lon="1.80119">
        <ele>206</ele>
        <time>2018-06-14T19:59:35Z</time>
      </trkpt>
      <trkpt lat="43.89156" lon="1.80119">
        <ele>206</ele>
        <time>2018-06-14T19:59:36Z</time>
      </trkpt>
      <trkpt lat="43.89158" lon="1.80118">
        <ele>206</ele>
        <time>2018-06-14T19:59:37Z</time>
      </trkpt>
      <trkpt lat="43.89159" lon="1.80118">
        <ele>206</ele>
        <time>2018-06-14T19:59:38Z</time>
      </trkpt>
      <trkpt lat="43.89161" lon="1.80118">
        <ele>206</ele>
        <time>2018-06-14T19:59:39Z</time>
      </trkpt>
      <trkpt lat="43.89163" lon="1.80118">
        <ele>206</ele>
        <time>2018-06-14T19:59:40Z</time>
      </trkpt>
      <trkpt lat="43.89165" lon="1.80117">
        <ele>206</ele>
        <time>2018-06-14T19:59:41Z</time>
      </trkpt>
      <trkpt lat="43.89167" lon="1.80116">
        <ele>206</ele>
        <time>2018-06-14T19:59:42Z</time>
      </trkpt>
      <trkpt lat="43.89169" lon="1.80116">
        <ele>206</ele>
        <time>2018-06-14T19:59:43Z</time>
      </trkpt>
      <trkpt lat="43.89171" lon="1.80116">
        <ele>206</ele>
        <time>2018-06-14T19:59:44Z</time>
      </trkpt>
      <trkpt lat="43.89173" lon="1.80115">
        <ele>206</ele>
        <time>2018-06-14T19:59:45Z</time>
      </trkpt>
      <trkpt lat="43.89175" lon="1.80115">
        <ele>206</ele>
        <time>2018-06-14T19:59:46Z</time>
      </trkpt>
      <trkpt lat="43.89177" lon="1.80114">
        <ele>206</ele>
        <time>2018-06-14T19:59:47Z</time>
      </trkpt>
      <trkpt lat="43.89179" lon="1.80113">
        <ele>206</ele>
        <time>2018-06-14T19:59:48Z</time>
      </trkpt>
      <trkpt lat="43.89181" lon="1.80113">
        <ele>206</ele>
        <time>2018-06-14T19:59:49Z</time>
      </trkpt>
      <trkpt lat="43.89183" lon="1.80113">
        <ele>206</ele>
        <time>2018-06-14T19:59:50Z</time>
      </trkpt>
      <trkpt lat="43.89185" lon="1.80113">
        <ele>206</ele>
        <time>2018-06-14T19:59:51Z</time>
      </trkpt>
      <trkpt lat="43.89188" lon="1.80114">
        <ele>207</ele>
        <time>2018-06-14T19:59:52Z</time>
      </trkpt>
      <trkpt lat="43.8919" lon="1.80114">
        <ele>206</ele>
        <time>2018-06-14T19:59:53Z</time>
      </trkpt>
      <trkpt lat="43.89192" lon="1.80115">
        <ele>206</ele>
        <time>2018-06-14T19:59:54Z</time>
      </trkpt>
      <trkpt lat="43.89194" lon="1.80116">
        <ele>206</ele>
        <time>2018-06-14T19:59:55Z</time>
      </trkpt>
      <trkpt lat="43.89196" lon="1.80117">
        <ele>206</ele>
        <time>2018-06-14T19:59:56Z</time>
      </trkpt>
      <trkpt lat="43.89198" lon="1.80118">
        <ele>207</ele>
        <time>2018-06-14T19:59:57Z</time>
      </trkpt>
      <trkpt lat="43.892" lon="1.80118">
        <ele>207</ele>
        <time>2018-06-14T19:59:58Z</time>
      </trkpt>
      <trkpt lat="43.89202" lon="1.80119">
        <ele>207</ele>
        <time>2018-06-14T19:59:59Z</time>
      </trkpt>
      <trkpt lat="43.89203" lon="1.80119">
        <ele>207</ele>
        <time>2018-06-14T20:00:00Z</time>
      </trkpt>
      <trkpt lat="43.89205" lon="1.8012">
        <ele>207</ele>
        <time>2018-06-14T20:00:01Z</time>
      </trkpt>
      <trkpt lat="43.89206" lon="1.80121">
        <ele>207</ele>
        <time>2018-06-14T20:00:02Z</time>
      </trkpt>
      <trkpt lat="43.89207" lon="1.80122">
        <ele>207</ele>
        <time>2018-06-14T20:00:03Z</time>
      </trkpt>
      <trkpt lat="43.89208" lon="1.80124">
        <ele>207</ele>
        <time>2018-06-14T20:00:04Z</time>
      </trkpt>
      <trkpt lat="43.89209" lon="1.80125">
        <ele>207</ele>
        <time>2018-06-14T20:00:05Z</time>
      </trkpt>
      <trkpt lat="43.89211" lon="1.80126">
        <ele>207</ele>
        <time>2018-06-14T20:00:06Z</time>
      </trkpt>
      <trkpt lat="43.89212" lon="1.80127">
        <ele>207</ele>
        <time>2018-06-14T20:00:07Z</time>
      </trkpt>
      <trkpt lat="43.89213" lon="1.80128">
        <ele>207</ele>
        <time>2018-06-14T20:00:08Z</time>
      </trkpt>
      <trkpt lat="43.89214" lon="1.80129">
        <ele>207</ele>
        <time>2018-06-14T20:00:09Z</time>
      </trkpt>
      <trkpt lat="43.89215" lon="1.8013">
        <ele>207</ele>
        <time>2018-06-14T20:00:10Z</time>
      </trkpt>
      <trkpt lat="43.89216" lon="1.80131">
        <ele>207</ele>
        <time>2018-06-14T20:00:11Z</time>
      </trkpt>
      <trkpt lat="43.89217" lon="1.80132">
        <ele>207</ele>
        <time>2018-06-14T20:00:12Z</time>
      </trkpt>
      <trkpt lat="43.89218" lon="1.80133">
        <ele>207</ele>
        <time>2018-06-14T20:00:13Z</time>
      </trkpt>
      <trkpt lat="43.89219" lon="1.80135">
        <ele>207</ele>
        <time>2018-06-14T20:00:14Z</time>
      </trkpt>
      <trkpt lat="43.8922" lon="1.80136">
        <ele>207</ele>
        <time>2018-06-14T20:00:15Z</time>
      </trkpt>
      <trkpt lat="43.89221" lon="1.80138">
        <ele>207</ele>
        <time>2018-06-14T20:00:16Z</time>
      </trkpt>
      <trkpt lat="43.89222" lon="1.80139">
        <ele>207</ele>
        <time>2018-06-14T20:00:17Z</time>
      </trkpt>
      <trkpt lat="43.89223" lon="1.80141">
        <ele>207</ele>
        <time>2018-06-14T20:00:18Z</time>
      </trkpt>
      <trkpt lat="43.89224" lon="1.80142">
        <ele>207</ele>
        <time>2018-06-14T20:00:19Z</time>
      </trkpt>
      <trkpt lat="43.89225" lon="1.80143">
        <ele>207</ele>
        <time>2018-06-14T20:00:20Z</time>
      </trkpt>
      <trkpt lat="43.89226" lon="1.80145">
        <ele>207</ele>
        <time>2018-06-14T20:00:21Z</time>
      </trkpt>
      <trkpt lat="43.89227" lon="1.80146">
        <ele>207</ele>
        <time>2018-06-14T20:00:22Z</time>
      </trkpt>
      <trkpt lat="43.89227" lon="1.80147">
        <ele>207</ele>
        <time>2018-06-14T20:00:23Z</time>
      </trkpt>
      <trkpt lat="43.89228" lon="1.80149">
        <ele>207</ele>
        <time>2018-06-14T20:00:24Z</time>
      </trkpt>
      <trkpt lat="43.89229" lon="1.8015">
        <ele>207</ele>
        <time>2018-06-14T20:00:25Z</time>
      </trkpt>
      <trkpt lat="43.89229" lon="1.80152">
        <ele>207</ele>
        <time>2018-06-14T20:00:26Z</time>
      </trkpt>
      <trkpt lat="43.8923" lon="1.80154">
        <ele>207</ele>
        <time>2018-06-14T20:00:27Z</time>
      </trkpt>
      <trkpt lat="43.8923" lon="1.80156">
        <ele>208</ele>
        <time>2018-06-14T20:00:28Z</time>
      </trkpt>
      <trkpt lat="43.89231" lon="1.80157">
        <ele>208</ele>
        <time>2018-06-14T20:00:29Z</time>
      </trkpt>
      <trkpt lat="43.89232" lon="1.80159">
        <ele>208</ele>
        <time>2018-06-14T20:00:30Z</time>
      </trkpt>
      <trkpt lat="43.89233" lon="1.8016">
        <ele>208</ele>
        <time>2018-06-14T20:00:31Z</time>
      </trkpt>
      <trkpt lat="43.89234" lon="1.80161">
        <ele>208</ele>
        <time>2018-06-14T20:00:32Z</time>
      </trkpt>
      <trkpt lat="43.89234" lon="1.80163">
        <ele>208</ele>
        <time>2018-06-14T20:00:33Z</time>
      </trkpt>
      <trkpt lat="43.89235" lon="1.80164">
        <ele>208</ele>
        <time>2018-06-14T20:00:34Z</time>
      </trkpt>
      <trkpt lat="43.89235" lon="1.80165">
        <ele>208</ele>
        <time>2018-06-14T20:00:35Z</time>
      </trkpt>
      <trkpt lat="43.89235" lon="1.80166">
        <ele>208</ele>
        <time>2018-06-14T20:00:36Z</time>
      </trkpt>
      <trkpt lat="43.89236" lon="1.80168">
        <ele>208</ele>
        <time>2018-06-14T20:00:37Z</time>
      </trkpt>
      <trkpt lat="43.89237" lon="1.80169">
        <ele>208</ele>
        <time>2018-06-14T20:00:38Z</time>
      </trkpt>
      <trkpt lat="43.89237" lon="1.8017">
        <ele>208</ele>
        <time>2018-06-14T20:00:39Z</time>
      </trkpt>
      <trkpt lat="43.89238" lon="1.80172">
        <ele>209</ele>
        <time>2018-06-14T20:00:40Z</time>
      </trkpt>
      <trkpt lat="43.89238" lon="1.80173">
        <ele>209</ele>
        <time>2018-06-14T20:00:41Z</time>
      </trkpt>
      <trkpt lat="43.89239" lon="1.80175">
        <ele>209</ele>
        <time>2018-06-14T20:00:42Z</time>
      </trkpt>
      <trkpt lat="43.89239" lon="1.80176">
        <ele>209</ele>
        <time>2018-06-14T20:00:43Z</time>
      </trkpt>
      <trkpt lat="43.89239" lon="1.80177">
        <ele>209</ele>
        <time>2018-06-14T20:00:44Z</time>
      </trkpt>
      <trkpt lat="43.8924" lon="1.80178">
        <ele>209</ele>
        <time>2018-06-14T20:00:45Z</time>
      </trkpt>
      <trkpt lat="43.8924" lon="1.80179">
        <ele>209</ele>
        <time>2018-06-14T20:00:46Z</time>
      </trkpt>
      <trkpt lat="43.89241" lon="1.8018">
        <ele>209</ele>
        <time>2018-06-14T20:00:47Z</time>
      </trkpt>
      <trkpt lat="43.89241" lon="1.80182">
        <ele>209</ele>
        <time>2018-06-14T20:00:48Z</time>
      </trkpt>
      <trkpt lat="43.89242" lon="1.80183">
        <ele>209</ele>
        <time>2018-06-14T20:00:49Z</time>
      </trkpt>
      <trkpt lat="43.89242" lon="1.80184">
        <ele>209</ele>
        <time>2018-06-14T20:00:50Z</time>
      </trkpt>
      <trkpt lat="43.89243" lon="1.80185">
        <ele>209</ele>
        <time>2018-06-14T20:00:51Z</time>
      </trkpt>
      <trkpt lat="43.89243" lon="1.80187">
        <ele>209</ele>
        <time>2018-06-14T20:00:52Z</time>
      </trkpt>
      <trkpt lat="43.89244" lon="1.80188">
        <ele>209</ele>
        <time>2018-06-14T20:00:53Z</time>
      </trkpt>
      <trkpt lat="43.89245" lon="1.80189">
        <ele>209</ele>
        <time>2018-06-14T20:00:54Z</time>
      </trkpt>
      <trkpt lat="43.89245" lon="1.8019">
        <ele>209</ele>
        <time>2018-06-14T20:00:55Z</time>
      </trkpt>
      <trkpt lat="43.89246" lon="1.80191">
        <ele>209</ele>
        <time>2018-06-14T20:00:56Z</time>
      </trkpt>
      <trkpt lat="43.89246" lon="1.80192">
        <ele>210</ele>
        <time>2018-06-14T20:00:57Z</time>
      </trkpt>
      <trkpt lat="43.89247" lon="1.80193">
        <ele>210</ele>
        <time>2018-06-14T20:00:58Z</time>
      </trkpt>
      <trkpt lat="43.89248" lon="1.80193">
        <ele>210</ele>
        <time>2018-06-14T20:00:59Z</time>
      </trkpt>
      <trkpt lat="43.89248" lon="1.80194">
        <ele>210</ele>
        <time>2018-06-14T20:01:00Z</time>
      </trkpt>
      <trkpt lat="43.89249" lon="1.80195">
        <ele>210</ele>
        <time>2018-06-14T20:01:01Z</time>
      </trkpt>
      <trkpt lat="43.89249" lon="1.80195">
        <ele>210</ele>
        <time>2018-06-14T20:01:02Z</time>
      </trkpt>
      <trkpt lat="43.8925" lon="1.80196">
        <ele>210</ele>
        <time>2018-06-14T20:01:03Z</time>
      </trkpt>
      <trkpt lat="43.89251" lon="1.80197">
        <ele>210</ele>
        <time>2018-06-14T20:01:04Z</time>
      </trkpt>
      <trkpt lat="43.89252" lon="1.80198">
        <ele>210</ele>
        <time>2018-06-14T20:01:05Z</time>
      </trkpt>
      <trkpt lat="43.89252" lon="1.80198">
        <ele>210</ele>
        <time>2018-06-14T20:01:06Z</time>
      </trkpt>
      <trkpt lat="43.89253" lon="1.80199">
        <ele>210</ele>
        <time>2018-06-14T20:01:07Z</time>
      </trkpt>
      <trkpt lat="43.89253" lon="1.802">
        <ele>211</ele>
        <time>2018-06-14T20:01:08Z</time>
      </trkpt>
      <trkpt lat="43.89254" lon="1.80201">
        <ele>211</ele>
        <time>2018-06-14T20:01:09Z</time>
      </trkpt>
      <trkpt lat="43.89255" lon="1.80202">
        <ele>211</ele>
        <time>2018-06-14T20:01:10Z</time>
      </trkpt>
      <trkpt lat="43.89254" lon="1.80201">
        <ele>211</ele>
        <time>2018-06-14T20:01:11Z</time>
      </trkpt>
      <trkpt lat="43.89255" lon="1.80203">
        <ele>211</ele>
        <time>2018-06-14T20:01:12Z</time>
      </trkpt>
      <trkpt lat="43.89256" lon="1.80204">
        <ele>211</ele>
        <time>2018-06-14T20:01:13Z</time>
      </trkpt>
      <trkpt lat="43.89257" lon="1.80205">
        <ele>211</ele>
        <time>2018-06-14T20:01:14Z</time>
      </trkpt>
      <trkpt lat="43.89257" lon="1.80206">
        <ele>211</ele>
        <time>2018-06-14T20:01:15Z</time>
      </trkpt>
      <trkpt lat="43.89258" lon="1.80207">
        <ele>211</ele>
        <time>2018-06-14T20:01:16Z</time>
      </trkpt>
      <trkpt lat="43.89259" lon="1.80208">
        <ele>211</ele>
        <time>2018-06-14T20:01:17Z</time>
      </trkpt>
      <trkpt lat="43.8926" lon="1.80208">
        <ele>212</ele>
        <time>2018-06-14T20:01:18Z</time>
      </trkpt>
      <trkpt lat="43.8926" lon="1.80209">
        <ele>212</ele>
        <time>2018-06-14T20:01:19Z</time>
      </trkpt>
      <trkpt lat="43.89261" lon="1.8021">
        <ele>212</ele>
        <time>2018-06-14T20:01:20Z</time>
      </trkpt>
      <trkpt lat="43.89261" lon="1.80211">
        <ele>212</ele>
        <time>2018-06-14T20:01:21Z</time>
      </trkpt>
      <trkpt lat="43.89262" lon="1.8021">
        <ele>212</ele>
        <time>2018-06-14T20:01:22Z</time>
      </trkpt>
      <trkpt lat="43.89263" lon="1.80209">
        <ele>212</ele>
        <time>2018-06-14T20:01:23Z</time>
      </trkpt>
      <trkpt lat="43.89264" lon="1.80208">
        <ele>212</ele>
        <time>2018-06-14T20:01:24Z</time>
      </trkpt>
      <trkpt lat="43.89263" lon="1.80207">
        <ele>212</ele>
        <time>2018-06-14T20:01:25Z</time>
      </trkpt>
      <trkpt lat="43.89262" lon="1.80207">
        <ele>212</ele>
        <time>2018-06-14T20:01:26Z</time>
      </trkpt>
      <trkpt lat="43.8926" lon="1.80208">
        <ele>212</ele>
        <time>2018-06-14T20:01:27Z</time>
      </trkpt>
      <trkpt lat="43.8926" lon="1.8021">
        <ele>212</ele>
        <time>2018-06-14T20:01:28Z</time>
      </trkpt>
      <trkpt lat="43.8926" lon="1.80211">
        <ele>212</ele>
        <time>2018-06-14T20:01:29Z</time>
      </trkpt>
      <trkpt lat="43.89261" lon="1.80212">
        <ele>212</ele>
        <time>2018-06-14T20:01:30Z</time>
      </trkpt>
      <trkpt lat="43.89262" lon="1.80214">
        <ele>212</ele>
        <time>2018-06-14T20:01:31Z</time>
      </trkpt>
      <trkpt lat="43.89263" lon="1.80215">
        <ele>212</ele>
        <time>2018-06-14T20:01:32Z</time>
      </trkpt>
      <trkpt lat="43.89263" lon="1.80216">
        <ele>212</ele>
        <time>2018-06-14T20:01:33Z</time>
      </trkpt>
      <trkpt lat="43.89264" lon="1.80217">
        <ele>213</ele>
        <time>2018-06-14T20:01:34Z</time>
      </trkpt>
      <trkpt lat="43.89264" lon="1.80218">
        <ele>213</ele>
        <time>2018-06-14T20:01:35Z</time>
      </trkpt>
      <trkpt lat="43.89264" lon="1.80219">
        <ele>213</ele>
        <time>2018-06-14T20:01:36Z</time>
      </trkpt>
      <trkpt lat="43.89265" lon="1.8022">
        <ele>213</ele>
        <time>2018-06-14T20:01:37Z</time>
      </trkpt>
      <trkpt lat="43.89266" lon="1.80221">
        <ele>213</ele>
        <time>2018-06-14T20:01:38Z</time>
      </trkpt>
      <trkpt lat="43.89267" lon="1.80222">
        <ele>213</ele>
        <time>2018-06-14T20:01:39Z</time>
      </trkpt>
      <trkpt lat="43.89267" lon="1.80223">
        <ele>214</ele>
        <time>2018-06-14T20:01:40Z</time>
      </trkpt>
      <trkpt lat="43.89268" lon="1.80225">
        <ele>214</ele>
        <time>2018-06-14T20:01:41Z</time>
      </trkpt>
      <trkpt lat="43.89269" lon="1.80228">
        <ele>214</ele>
        <time>2018-06-14T20:01:42Z</time>
      </trkpt>
      <trkpt lat="43.8927" lon="1.8023">
        <ele>215</ele>
        <time>2018-06-14T20:01:43Z</time>
      </trkpt>
      <trkpt lat="43.89271" lon="1.80232">
        <ele>215</ele>
        <time>2018-06-14T20:01:44Z</time>
      </trkpt>
      <trkpt lat="43.89273" lon="1.80234">
        <ele>216</ele>
        <time>2018-06-14T20:01:45Z</time>
      </trkpt>
      <trkpt lat="43.89274" lon="1.80236">
        <ele>217</ele>
        <time>2018-06-14T20:01:46Z</time>
      </trkpt>
      <trkpt lat="43.89275" lon="1.80237">
        <ele>218</ele>
        <time>2018-06-14T20:01:47Z</time>
      </trkpt>
      <trkpt lat="43.89276" lon="1.80239">
        <ele>218</ele>
        <time>2018-06-14T20:01:48Z</time>
      </trkpt>
      <trkpt lat="43.89276" lon="1.8024">
        <ele>219</ele>
        <time>2018-06-14T20:01:49Z</time>
      </trkpt>
      <trkpt lat="43.89277" lon="1.80242">
        <ele>219</ele>
        <time>2018-06-14T20:01:50Z</time>
      </trkpt>
      <trkpt lat="43.89278" lon="1.80244">
        <ele>220</ele>
        <time>2018-06-14T20:01:51Z</time>
      </trkpt>
      <trkpt lat="43.89278" lon="1.80246">
        <ele>220</ele>
        <time>2018-06-14T20:01:52Z</time>
      </trkpt>
      <trkpt lat="43.89279" lon="1.80249">
        <ele>221</ele>
        <time>2018-06-14T20:01:53Z</time>
      </trkpt>
      <trkpt lat="43.8928" lon="1.80251">
        <ele>221</ele>
        <time>2018-06-14T20:01:54Z</time>
      </trkpt>
      <trkpt lat="43.8928" lon="1.80253">
        <ele>222</ele>
        <time>2018-06-14T20:01:55Z</time>
      </trkpt>
      <trkpt lat="43.89281" lon="1.80256">
        <ele>222</ele>
        <time>2018-06-14T20:01:56Z</time>
      </trkpt>
      <trkpt lat="43.89281" lon="1.80257">
        <ele>223</ele>
        <time>2018-06-14T20:01:57Z</time>
      </trkpt>
      <trkpt lat="43.89281" lon="1.80259">
        <ele>223</ele>
        <time>2018-06-14T20:01:58Z</time>
      </trkpt>
      <trkpt lat="43.89281" lon="1.80262">
        <ele>224</ele>
        <time>2018-06-14T20:01:59Z</time>
      </trkpt>
      <trkpt lat="43.89282" lon="1.80264">
        <ele>224</ele>
        <time>2018-06-14T20:02:00Z</time>
      </trkpt>
      <trkpt lat="43.89282" lon="1.80267">
        <ele>224</ele>
        <time>2018-06-14T20:02:01Z</time>
      </trkpt>
      <trkpt lat="43.89281" lon="1.80269">
        <ele>224</ele>
        <time>2018-06-14T20:02:02Z</time>
      </trkpt>
      <trkpt lat="43.89282" lon="1.80272">
        <ele>225</ele>
        <time>2018-06-14T20:02:03Z</time>
      </trkpt>
      <trkpt lat="43.89282" lon="1.80274">
        <ele>225</ele>
        <time>2018-06-14T20:02:04Z</time>
      </trkpt>
      <trkpt lat="43.89283" lon="1.80275">
        <ele>226</ele>
        <time>2018-06-14T20:02:05Z</time>
      </trkpt>
      <trkpt lat="43.89285" lon="1.80277">
        <ele>226</ele>
        <time>2018-06-14T20:02:06Z</time>
      </trkpt>
      <trkpt lat="43.89285" lon="1.80279">
        <ele>226</ele>
        <time>2018-06-14T20:02:07Z</time>
      </trkpt>
      <trkpt lat="43.89287" lon="1.8028">
        <ele>226</ele>
        <time>2018-06-14T20:02:08Z</time>
      </trkpt>
      <trkpt lat="43.89287" lon="1.80282">
        <ele>227</ele>
        <time>2018-06-14T20:02:09Z</time>
      </trkpt>
      <trkpt lat="43.89288" lon="1.80284">
        <ele>227</ele>
        <time>2018-06-14T20:02:10Z</time>
      </trkpt>
      <trkpt lat="43.89288" lon="1.80286">
        <ele>227</ele>
        <time>2018-06-14T20:02:11Z</time>
      </trkpt>
      <trkpt lat="43.89289" lon="1.80287">
        <ele>228</ele>
        <time>2018-06-14T20:02:12Z</time>
      </trkpt>
      <trkpt lat="43.89289" lon="1.80289">
        <ele>228</ele>
        <time>2018-06-14T20:02:13Z</time>
      </trkpt>
      <trkpt lat="43.89289" lon="1.80291">
        <ele>228</ele>
        <time>2018-06-14T20:02:14Z</time>
      </trkpt>
      <trkpt lat="43.89289" lon="1.80292">
        <ele>228</ele>
        <time>2018-06-14T20:02:15Z</time>
      </trkpt>
      <trkpt lat="43.89289" lon="1.80293">
        <ele>228</ele>
        <time>2018-06-14T20:02:16Z</time>
      </trkpt>
      <trkpt lat="43.89289" lon="1.80295">
        <ele>229</ele>
        <time>2018-06-14T20:02:17Z</time>
      </trkpt>
      <trkpt lat="43.89289" lon="1.80296">
        <ele>229</ele>
        <time>2018-06-14T20:02:18Z</time>
      </trkpt>
      <trkpt lat="43.8929" lon="1.80298">
        <ele>229</ele>
        <time>2018-06-14T20:02:19Z</time>
      </trkpt>
      <trkpt lat="43.8929" lon="1.80299">
        <ele>229</ele>
        <time>2018-06-14T20:02:20Z</time>
      </trkpt>
      <trkpt lat="43.8929" lon="1.80298">
        <ele>228</ele>
        <time>2018-06-14T20:02:21Z</time>
      </trkpt>
      <trkpt lat="43.8929" lon="1.80299">
        <ele>228</ele>
        <time>2018-06-14T20:02:22Z</time>
      </trkpt>
      <trkpt lat="43.8929" lon="1.803">
        <ele>228</ele>
        <time>2018-06-14T20:02:36Z</time>
      </trkpt>
      <trkpt lat="43.89289" lon="1.80302">
        <ele>228</ele>
        <time>2018-06-14T20:02:37Z</time>
      </trkpt>
      <trkpt lat="43.89289" lon="1.80304">
        <ele>228</ele>
        <time>2018-06-14T20:02:38Z</time>
      </trkpt>
      <trkpt lat="43.89289" lon="1.80306">
        <ele>228</ele>
        <time>2018-06-14T20:02:39Z</time>
      </trkpt>
      <trkpt lat="43.89289" lon="1.80308">
        <ele>228</ele>
        <time>2018-06-14T20:02:40Z</time>
      </trkpt>
      <trkpt lat="43.89289" lon="1.8031">
        <ele>228</ele>
        <time>2018-06-14T20:02:41Z</time>
      </trkpt>
      <trkpt lat="43.89289" lon="1.80313">
        <ele>228</ele>
        <time>2018-06-14T20:02:42Z</time>
      </trkpt>
      <trkpt lat="43.8929" lon="1.80316">
        <ele>228</ele>
        <time>2018-06-14T20:02:43Z</time>
      </trkpt>
      <trkpt lat="43.89291" lon="1.80319">
        <ele>228</ele>
        <time>2018-06-14T20:02:44Z</time>
      </trkpt>
      <trkpt lat="43.89293" lon="1.80323">
        <ele>228</ele>
        <time>2018-06-14T20:02:45Z</time>
      </trkpt>
      <trkpt lat="43.89294" lon="1.80326">
        <ele>227</ele>
        <time>2018-06-14T20:02:46Z</time>
      </trkpt>
      <trkpt lat="43.89296" lon="1.80329">
        <ele>227</ele>
        <time>2018-06-14T20:02:47Z</time>
      </trkpt>
      <trkpt lat="43.89299" lon="1.80331">
        <ele>227</ele>
        <time>2018-06-14T20:02:48Z</time>
      </trkpt>
      <trkpt lat="43.89302" lon="1.80331">
        <ele>227</ele>
        <time>2018-06-14T20:02:49Z</time>
      </trkpt>
      <trkpt lat="43.89305" lon="1.80331">
        <ele>226</ele>
        <time>2018-06-14T20:02:50Z</time>
      </trkpt>
      <trkpt lat="43.89308" lon="1.8033">
        <ele>226</ele>
        <time>2018-06-14T20:02:51Z</time>
      </trkpt>
      <trkpt lat="43.89311" lon="1.8033">
        <ele>226</ele>
        <time>2018-06-14T20:02:52Z</time>
      </trkpt>
      <trkpt lat="43.89314" lon="1.80329">
        <ele>225</ele>
        <time>2018-06-14T20:02:53Z</time>
      </trkpt>
      <trkpt lat="43.89317" lon="1.80328">
        <ele>225</ele>
        <time>2018-06-14T20:02:54Z</time>
      </trkpt>
      <trkpt lat="43.89321" lon="1.80327">
        <ele>225</ele>
        <time>2018-06-14T20:02:55Z</time>
      </trkpt>
      <trkpt lat="43.89324" lon="1.80325">
        <ele>225</ele>
        <time>2018-06-14T20:02:56Z</time>
      </trkpt>
      <trkpt lat="43.89327" lon="1.80323">
        <ele>224</ele>
        <time>2018-06-14T20:02:57Z</time>
      </trkpt>
      <trkpt lat="43.8933" lon="1.80321">
        <ele>224</ele>
        <time>2018-06-14T20:02:58Z</time>
      </trkpt>
      <trkpt lat="43.89334" lon="1.80319">
        <ele>223</ele>
        <time>2018-06-14T20:02:59Z</time>
      </trkpt>
      <trkpt lat="43.89338" lon="1.80317">
        <ele>223</ele>
        <time>2018-06-14T20:03:00Z</time>
      </trkpt>
      <trkpt lat="43.89342" lon="1.80314">
        <ele>223</ele>
        <time>2018-06-14T20:03:01Z</time>
      </trkpt>
      <trkpt lat="43.89346" lon="1.80311">
        <ele>222</ele>
        <time>2018-06-14T20:03:02Z</time>
      </trkpt>
      <trkpt lat="43.8935" lon="1.80309">
        <ele>222</ele>
        <time>2018-06-14T20:03:03Z</time>
      </trkpt>
      <trkpt lat="43.89354" lon="1.80306">
        <ele>221</ele>
        <time>2018-06-14T20:03:04Z</time>
      </trkpt>
      <trkpt lat="43.89357" lon="1.80304">
        <ele>221</ele>
        <time>2018-06-14T20:03:05Z</time>
      </trkpt>
      <trkpt lat="43.89361" lon="1.80301">
        <ele>221</ele>
        <time>2018-06-14T20:03:06Z</time>
      </trkpt>
      <trkpt lat="43.89364" lon="1.80299">
        <ele>221</ele>
        <time>2018-06-14T20:03:07Z</time>
      </trkpt>
      <trkpt lat="43.89366" lon="1.80297">
        <ele>221</ele>
        <time>2018-06-14T20:03:08Z</time>
      </trkpt>
      <trkpt lat="43.89368" lon="1.80295">
        <ele>221</ele>
        <time>2018-06-14T20:03:09Z</time>
      </trkpt>
      <trkpt lat="43.8937" lon="1.80294">
        <ele>220</ele>
        <time>2018-06-14T20:03:10Z</time>
      </trkpt>
      <trkpt lat="43.89372" lon="1.80292">
        <ele>220</ele>
        <time>2018-06-14T20:03:11Z</time>
      </trkpt>
      <trkpt lat="43.89373" lon="1.80292">
        <ele>220</ele>
        <time>2018-06-14T20:03:12Z</time>
      </trkpt>
      <trkpt lat="43.89374" lon="1.80293">
        <ele>220</ele>
        <time>2018-06-14T20:03:13Z</time>
      </trkpt>
      <trkpt lat="43.89374" lon="1.80295">
        <ele>220</ele>
        <time>2018-06-14T20:03:14Z</time>
      </trkpt>
      <trkpt lat="43.89374" lon="1.80296">
        <ele>220</ele>
        <time>2018-06-14T20:03:15Z</time>
      </trkpt>
      <trkpt lat="43.89373" lon="1.80297">
        <ele>220</ele>
        <time>2018-06-14T20:03:16Z</time>
      </trkpt>
      <trkpt lat="43.89372" lon="1.80297">
        <ele>219</ele>
        <time>2018-06-14T20:03:17Z</time>
      </trkpt>
      <trkpt lat="43.89373" lon="1.80297">
        <ele>219</ele>
        <time>2018-06-14T20:03:18Z</time>
      </trkpt>
      <trkpt lat="43.89372" lon="1.80298">
        <ele>219</ele>
        <time>2018-06-14T20:03:19Z</time>
      </trkpt>
      <trkpt lat="43.89372" lon="1.80298">
        <ele>219</ele>
        <time>2018-06-14T20:03:59Z</time>
      </trkpt>
      <trkpt lat="43.89372" lon="1.80299">
        <ele>219</ele>
        <time>2018-06-14T20:04:27Z</time>
      </trkpt>
      <trkpt lat="43.89371" lon="1.80301">
        <ele>219</ele>
        <time>2018-06-14T20:04:28Z</time>
      </trkpt>
      <trkpt lat="43.89369" lon="1.80304">
        <ele>218</ele>
        <time>2018-06-14T20:04:29Z</time>
      </trkpt>
      <trkpt lat="43.89366" lon="1.80308">
        <ele>218</ele>
        <time>2018-06-14T20:04:30Z</time>
      </trkpt>
      <trkpt lat="43.89362" lon="1.80313">
        <ele>218</ele>
        <time>2018-06-14T20:04:31Z</time>
      </trkpt>
      <trkpt lat="43.89358" lon="1.8032">
        <ele>217</ele>
        <time>2018-06-14T20:04:32Z</time>
      </trkpt>
      <trkpt lat="43.89354" lon="1.80326">
        <ele>217</ele>
        <time>2018-06-14T20:04:33Z</time>
      </trkpt>
      <trkpt lat="43.89351" lon="1.80331">
        <ele>216</ele>
        <time>2018-06-14T20:04:34Z</time>
      </trkpt>
      <trkpt lat="43.89347" lon="1.80336">
        <ele>215</ele>
        <time>2018-06-14T20:04:35Z</time>
      </trkpt>
      <trkpt lat="43.89343" lon="1.80342">
        <ele>214</ele>
        <time>2018-06-14T20:04:36Z</time>
      </trkpt>
      <trkpt lat="43.89339" lon="1.80348">
        <ele>214</ele>
        <time>2018-06-14T20:04:37Z</time>
      </trkpt>
      <trkpt lat="43.89336" lon="1.80354">
        <ele>213</ele>
        <time>2018-06-14T20:04:38Z</time>
      </trkpt>
      <trkpt lat="43.89332" lon="1.8036">
        <ele>212</ele>
        <time>2018-06-14T20:04:39Z</time>
      </trkpt>
      <trkpt lat="43.89329" lon="1.80366">
        <ele>211</ele>
        <time>2018-06-14T20:04:40Z</time>
      </trkpt>
      <trkpt lat="43.89326" lon="1.80371">
        <ele>211</ele>
        <time>2018-06-14T20:04:41Z</time>
      </trkpt>
      <trkpt lat="43.89323" lon="1.80376">
        <ele>210</ele>
        <time>2018-06-14T20:04:42Z</time>
      </trkpt>
      <trkpt lat="43.89321" lon="1.8038">
        <ele>210</ele>
        <time>2018-06-14T20:04:43Z</time>
      </trkpt>
      <trkpt lat="43.89319" lon="1.80383">
        <ele>210</ele>
        <time>2018-06-14T20:04:44Z</time>
      </trkpt>
      <trkpt lat="43.89317" lon="1.80386">
        <ele>210</ele>
        <time>2018-06-14T20:04:45Z</time>
      </trkpt>
      <trkpt lat="43.89316" lon="1.80388">
        <ele>210</ele>
        <time>2018-06-14T20:04:46Z</time>
      </trkpt>
      <trkpt lat="43.89315" lon="1.80389">
        <ele>209</ele>
        <time>2018-06-14T20:04:47Z</time>
      </trkpt>
      <trkpt lat="43.89314" lon="1.80392">
        <ele>209</ele>
        <time>2018-06-14T20:04:48Z</time>
      </trkpt>
      <trkpt lat="43.89312" lon="1.80395">
        <ele>209</ele>
        <time>2018-06-14T20:04:49Z</time>
      </trkpt>
      <trkpt lat="43.8931" lon="1.80397">
        <ele>209</ele>
        <time>2018-06-14T20:04:50Z</time>
      </trkpt>
      <trkpt lat="43.89308" lon="1.804">
        <ele>208</ele>
        <time>2018-06-14T20:04:51Z</time>
      </trkpt>
      <trkpt lat="43.89305" lon="1.80404">
        <ele>208</ele>
        <time>2018-06-14T20:04:52Z</time>
      </trkpt>
      <trkpt lat="43.89303" lon="1.80407">
        <ele>208</ele>
        <time>2018-06-14T20:04:53Z</time>
      </trkpt>
      <trkpt lat="43.89303" lon="1.80413">
        <ele>208</ele>
        <time>2018-06-14T20:04:54Z</time>
      </trkpt>
      <trkpt lat="43.89304" lon="1.80418">
        <ele>207</ele>
        <time>2018-06-14T20:04:55Z</time>
      </trkpt>
      <trkpt lat="43.89306" lon="1.80424">
        <ele>206</ele>
        <time>2018-06-14T20:04:56Z</time>
      </trkpt>
      <trkpt lat="43.89308" lon="1.80431">
        <ele>206</ele>
        <time>2018-06-14T20:04:57Z</time>
      </trkpt>
      <trkpt lat="43.8931" lon="1.80438">
        <ele>203</ele>
        <time>2018-06-14T20:04:58Z</time>
      </trkpt>
      <trkpt lat="43.89312" lon="1.80446">
        <ele>202</ele>
        <time>2018-06-14T20:04:59Z</time>
      </trkpt>
      <trkpt lat="43.89315" lon="1.80453">
        <ele>200</ele>
        <time>2018-06-14T20:05:00Z</time>
      </trkpt>
      <trkpt lat="43.89318" lon="1.8046">
        <ele>199</ele>
        <time>2018-06-14T20:05:01Z</time>
      </trkpt>
      <trkpt lat="43.89321" lon="1.80467">
        <ele>198</ele>
        <time>2018-06-14T20:05:02Z</time>
      </trkpt>
      <trkpt lat="43.89324" lon="1.80475">
        <ele>197</ele>
        <time>2018-06-14T20:05:03Z</time>
      </trkpt>
      <trkpt lat="43.89327" lon="1.80482">
        <ele>195</ele>
        <time>2018-06-14T20:05:04Z</time>
      </trkpt>
      <trkpt lat="43.8933" lon="1.80491">
        <ele>194</ele>
        <time>2018-06-14T20:05:05Z</time>
      </trkpt>
      <trkpt lat="43.89332" lon="1.805">
        <ele>192</ele>
        <time>2018-06-14T20:05:06Z</time>
      </trkpt>
      <trkpt lat="43.89335" lon="1.80509">
        <ele>191</ele>
        <time>2018-06-14T20:05:07Z</time>
      </trkpt>
      <trkpt lat="43.89338" lon="1.80519">
        <ele>190</ele>
        <time>2018-06-14T20:05:08Z</time>
      </trkpt>
      <trkpt lat="43.89341" lon="1.80529">
        <ele>189</ele>
        <time>2018-06-14T20:05:09Z</time>
      </trkpt>
      <trkpt lat="43.89344" lon="1.80539">
        <ele>187</ele>
        <time>2018-06-14T20:05:10Z</time>
      </trkpt>
      <trkpt lat="43.89347" lon="1.80549">
        <ele>185</ele>
        <time>2018-06-14T20:05:11Z</time>
      </trkpt>
      <trkpt lat="43.89351" lon="1.80559">
        <ele>183</ele>
        <time>2018-06-14T20:05:12Z</time>
      </trkpt>
      <trkpt lat="43.89355" lon="1.8057">
        <ele>182</ele>
        <time>2018-06-14T20:05:13Z</time>
      </trkpt>
      <trkpt lat="43.89358" lon="1.8058">
        <ele>181</ele>
        <time>2018-06-14T20:05:14Z</time>
      </trkpt>
      <trkpt lat="43.89361" lon="1.80588">
        <ele>179</ele>
        <time>2018-06-14T20:05:15Z</time>
      </trkpt>
      <trkpt lat="43.89362" lon="1.80594">
        <ele>178</ele>
        <time>2018-06-14T20:05:16Z</time>
      </trkpt>
      <trkpt lat="43.89361" lon="1.80599">
        <ele>177</ele>
        <time>2018-06-14T20:05:17Z</time>
      </trkpt>
      <trkpt lat="43.89358" lon="1.80603">
        <ele>177</ele>
        <time>2018-06-14T20:05:18Z</time>
      </trkpt>
      <trkpt lat="43.89355" lon="1.80607">
        <ele>176</ele>
        <time>2018-06-14T20:05:19Z</time>
      </trkpt>
      <trkpt lat="43.89351" lon="1.80609">
        <ele>176</ele>
        <time>2018-06-14T20:05:20Z</time>
      </trkpt>
      <trkpt lat="43.89347" lon="1.80612">
        <ele>176</ele>
        <time>2018-06-14T20:05:21Z</time>
      </trkpt>
      <trkpt lat="43.89344" lon="1.80616">
        <ele>175</ele>
        <time>2018-06-14T20:05:22Z</time>
      </trkpt>
      <trkpt lat="43.8934" lon="1.8062">
        <ele>175</ele>
        <time>2018-06-14T20:05:23Z</time>
      </trkpt>
      <trkpt lat="43.89336" lon="1.80624">
        <ele>174</ele>
        <time>2018-06-14T20:05:24Z</time>
      </trkpt>
      <trkpt lat="43.89332" lon="1.80629">
        <ele>173</ele>
        <time>2018-06-14T20:05:25Z</time>
      </trkpt>
      <trkpt lat="43.8933" lon="1.80637">
        <ele>172</ele>
        <time>2018-06-14T20:05:26Z</time>
      </trkpt>
      <trkpt lat="43.89329" lon="1.80645">
        <ele>172</ele>
        <time>2018-06-14T20:05:27Z</time>
      </trkpt>
      <trkpt lat="43.89329" lon="1.80654">
        <ele>171</ele>
        <time>2018-06-14T20:05:28Z</time>
      </trkpt>
      <trkpt lat="43.8933" lon="1.80663">
        <ele>171</ele>
        <time>2018-06-14T20:05:29Z</time>
      </trkpt>
      <trkpt lat="43.89331" lon="1.80671">
        <ele>170</ele>
        <time>2018-06-14T20:05:30Z</time>
      </trkpt>
      <trkpt lat="43.89332" lon="1.80678">
        <ele>170</ele>
        <time>2018-06-14T20:05:31Z</time>
      </trkpt>
      <trkpt lat="43.89333" lon="1.80685">
        <ele>169</ele>
        <time>2018-06-14T20:05:32Z</time>
      </trkpt>
      <trkpt lat="43.89333" lon="1.80691">
        <ele>169</ele>
        <time>2018-06-14T20:05:33Z</time>
      </trkpt>
      <trkpt lat="43.89334" lon="1.80697">
        <ele>169</ele>
        <time>2018-06-14T20:05:34Z</time>
      </trkpt>
      <trkpt lat="43.89335" lon="1.80703">
        <ele>168</ele>
        <time>2018-06-14T20:05:35Z</time>
      </trkpt>
      <trkpt lat="43.89335" lon="1.80708">
        <ele>168</ele>
        <time>2018-06-14T20:05:36Z</time>
      </trkpt>
      <trkpt lat="43.89336" lon="1.80712">
        <ele>167</ele>
        <time>2018-06-14T20:05:37Z</time>
      </trkpt>
      <trkpt lat="43.89338" lon="1.80715">
        <ele>167</ele>
        <time>2018-06-14T20:05:38Z</time>
      </trkpt>
      <trkpt lat="43.8934" lon="1.80717">
        <ele>167</ele>
        <time>2018-06-14T20:05:39Z</time>
      </trkpt>
      <trkpt lat="43.89342" lon="1.80719">
        <ele>167</ele>
        <time>2018-06-14T20:05:40Z</time>
      </trkpt>
      <trkpt lat="43.89344" lon="1.80719">
        <ele>167</ele>
        <time>2018-06-14T20:05:41Z</time>
      </trkpt>
      <trkpt lat="43.89345" lon="1.80719">
        <ele>167</ele>
        <time>2018-06-14T20:05:42Z</time>
      </trkpt>
      <trkpt lat="43.89346" lon="1.80719">
        <ele>167</ele>
        <time>2018-06-14T20:05:43Z</time>
      </trkpt>
      <trkpt lat="43.89348" lon="1.80719">
        <ele>167</ele>
        <time>2018-06-14T20:05:44Z</time>
      </trkpt>
      <trkpt lat="43.8935" lon="1.80718">
        <ele>167</ele>
        <time>2018-06-14T20:05:45Z</time>
      </trkpt>
      <trkpt lat="43.89351" lon="1.80717">
        <ele>167</ele>
        <time>2018-06-14T20:05:46Z</time>
      </trkpt>
      <trkpt lat="43.89352" lon="1.80717">
        <ele>168</ele>
        <time>2018-06-14T20:05:47Z</time>
      </trkpt>
      <trkpt lat="43.89354" lon="1.80716">
        <ele>168</ele>
        <time>2018-06-14T20:05:48Z</time>
      </trkpt>
      <trkpt lat="43.89355" lon="1.80715">
        <ele>168</ele>
        <time>2018-06-14T20:05:49Z</time>
      </trkpt>
      <trkpt lat="43.89357" lon="1.80714">
        <ele>168</ele>
        <time>2018-06-14T20:05:50Z</time>
      </trkpt>
      <trkpt lat="43.89358" lon="1.80713">
        <ele>168</ele>
        <time>2018-06-14T20:05:51Z</time>
      </trkpt>
      <trkpt lat="43.8936" lon="1.80712">
        <ele>168</ele>
        <time>2018-06-14T20:05:52Z</time>
      </trkpt>
      <trkpt lat="43.89361" lon="1.80712">
        <ele>168</ele>
        <time>2018-06-14T20:05:53Z</time>
      </trkpt>
      <trkpt lat="43.89363" lon="1.80711">
        <ele>168</ele>
        <time>2018-06-14T20:05:54Z</time>
      </trkpt>
      <trkpt lat="43.89364" lon="1.8071">
        <ele>168</ele>
        <time>2018-06-14T20:05:55Z</time>
      </trkpt>
      <trkpt lat="43.89365" lon="1.80709">
        <ele>169</ele>
        <time>2018-06-14T20:05:56Z</time>
      </trkpt>
      <trkpt lat="43.89367" lon="1.80708">
        <ele>169</ele>
        <time>2018-06-14T20:05:57Z</time>
      </trkpt>
      <trkpt lat="43.89368" lon="1.80707">
        <ele>169</ele>
        <time>2018-06-14T20:05:58Z</time>
      </trkpt>
      <trkpt lat="43.89369" lon="1.80705">
        <ele>169</ele>
        <time>2018-06-14T20:05:59Z</time>
      </trkpt>
      <trkpt lat="43.8937" lon="1.80704">
        <ele>169</ele>
        <time>2018-06-14T20:06:00Z</time>
      </trkpt>
      <trkpt lat="43.89371" lon="1.80702">
        <ele>169</ele>
        <time>2018-06-14T20:06:01Z</time>
      </trkpt>
      <trkpt lat="43.89372" lon="1.807">
        <ele>169</ele>
        <time>2018-06-14T20:06:02Z</time>
      </trkpt>
      <trkpt lat="43.89373" lon="1.80698">
        <ele>169</ele>
        <time>2018-06-14T20:06:03Z</time>
      </trkpt>
      <trkpt lat="43.89373" lon="1.80696">
        <ele>169</ele>
        <time>2018-06-14T20:06:04Z</time>
      </trkpt>
      <trkpt lat="43.89373" lon="1.80694">
        <ele>169</ele>
        <time>2018-06-14T20:06:05Z</time>
      </trkpt>
      <trkpt lat="43.89374" lon="1.80692">
        <ele>170</ele>
        <time>2018-06-14T20:06:06Z</time>
      </trkpt>
      <trkpt lat="43.89374" lon="1.80689">
        <ele>170</ele>
        <time>2018-06-14T20:06:07Z</time>
      </trkpt>
      <trkpt lat="43.89374" lon="1.80687">
        <ele>170</ele>
        <time>2018-06-14T20:06:08Z</time>
      </trkpt>
      <trkpt lat="43.89374" lon="1.80685">
        <ele>170</ele>
        <time>2018-06-14T20:06:09Z</time>
      </trkpt>
      <trkpt lat="43.89374" lon="1.80683">
        <ele>170</ele>
        <time>2018-06-14T20:06:10Z</time>
      </trkpt>
      <trkpt lat="43.89375" lon="1.8068">
        <ele>170</ele>
        <time>2018-06-14T20:06:11Z</time>
      </trkpt>
      <trkpt lat="43.89375" lon="1.80678">
        <ele>170</ele>
        <time>2018-06-14T20:06:12Z</time>
      </trkpt>
      <trkpt lat="43.89375" lon="1.80676">
        <ele>170</ele>
        <time>2018-06-14T20:06:13Z</time>
      </trkpt>
      <trkpt lat="43.89375" lon="1.80674">
        <ele>170</ele>
        <time>2018-06-14T20:06:14Z</time>
      </trkpt>
      <trkpt lat="43.89375" lon="1.80672">
        <ele>171</ele>
        <time>2018-06-14T20:06:15Z</time>
      </trkpt>
      <trkpt lat="43.89376" lon="1.80669">
        <ele>171</ele>
        <time>2018-06-14T20:06:16Z</time>
      </trkpt>
      <trkpt lat="43.89377" lon="1.80667">
        <ele>171</ele>
        <time>2018-06-14T20:06:17Z</time>
      </trkpt>
      <trkpt lat="43.89377" lon="1.80666">
        <ele>171</ele>
        <time>2018-06-14T20:06:18Z</time>
      </trkpt>
      <trkpt lat="43.89378" lon="1.80664">
        <ele>171</ele>
        <time>2018-06-14T20:06:19Z</time>
      </trkpt>
      <trkpt lat="43.89379" lon="1.80662">
        <ele>171</ele>
        <time>2018-06-14T20:06:20Z</time>
      </trkpt>
      <trkpt lat="43.89379" lon="1.8066">
        <ele>171</ele>
        <time>2018-06-14T20:06:21Z</time>
      </trkpt>
      <trkpt lat="43.89381" lon="1.80659">
        <ele>172</ele>
        <time>2018-06-14T20:06:22Z</time>
      </trkpt>
      <trkpt lat="43.89381" lon="1.80657">
        <ele>172</ele>
        <time>2018-06-14T20:06:23Z</time>
      </trkpt>
      <trkpt lat="43.89383" lon="1.80656">
        <ele>172</ele>
        <time>2018-06-14T20:06:24Z</time>
      </trkpt>
      <trkpt lat="43.89384" lon="1.80655">
        <ele>172</ele>
        <time>2018-06-14T20:06:25Z</time>
      </trkpt>
      <trkpt lat="43.89385" lon="1.80653">
        <ele>172</ele>
        <time>2018-06-14T20:06:26Z</time>
      </trkpt>
      <trkpt lat="43.89386" lon="1.80652">
        <ele>172</ele>
        <time>2018-06-14T20:06:27Z</time>
      </trkpt>
      <trkpt lat="43.89387" lon="1.80651">
        <ele>172</ele>
        <time>2018-06-14T20:06:28Z</time>
      </trkpt>
      <trkpt lat="43.89388" lon="1.8065">
        <ele>172</ele>
        <time>2018-06-14T20:06:29Z</time>
      </trkpt>
      <trkpt lat="43.89389" lon="1.80649">
        <ele>172</ele>
        <time>2018-06-14T20:06:30Z</time>
      </trkpt>
      <trkpt lat="43.89391" lon="1.80648">
        <ele>173</ele>
        <time>2018-06-14T20:06:31Z</time>
      </trkpt>
      <trkpt lat="43.89392" lon="1.80647">
        <ele>173</ele>
        <time>2018-06-14T20:06:32Z</time>
      </trkpt>
      <trkpt lat="43.89393" lon="1.80646">
        <ele>173</ele>
        <time>2018-06-14T20:06:33Z</time>
      </trkpt>
      <trkpt lat="43.89394" lon="1.80645">
        <ele>173</ele>
        <time>2018-06-14T20:06:34Z</time>
      </trkpt>
      <trkpt lat="43.89395" lon="1.80644">
        <ele>173</ele>
        <time>2018-06-14T20:06:35Z</time>
      </trkpt>
      <trkpt lat="43.89397" lon="1.80643">
        <ele>173</ele>
        <time>2018-06-14T20:06:36Z</time>
      </trkpt>
      <trkpt lat="43.89397" lon="1.80641">
        <ele>173</ele>
        <time>2018-06-14T20:06:37Z</time>
      </trkpt>
      <trkpt lat="43.89399" lon="1.80639">
        <ele>173</ele>
        <time>2018-06-14T20:06:38Z</time>
      </trkpt>
      <trkpt lat="43.89399" lon="1.80638">
        <ele>173</ele>
        <time>2018-06-14T20:06:39Z</time>
      </trkpt>
      <trkpt lat="43.894" lon="1.80637">
        <ele>174</ele>
        <time>2018-06-14T20:06:40Z</time>
      </trkpt>
      <trkpt lat="43.89401" lon="1.80635">
        <ele>174</ele>
        <time>2018-06-14T20:06:41Z</time>
      </trkpt>
      <trkpt lat="43.89402" lon="1.80633">
        <ele>174</ele>
        <time>2018-06-14T20:06:42Z</time>
      </trkpt>
      <trkpt lat="43.89403" lon="1.80632">
        <ele>174</ele>
        <time>2018-06-14T20:06:43Z</time>
      </trkpt>
      <trkpt lat="43.89404" lon="1.8063">
        <ele>174</ele>
        <time>2018-06-14T20:06:44Z</time>
      </trkpt>
      <trkpt lat="43.89405" lon="1.80629">
        <ele>174</ele>
        <time>2018-06-14T20:06:45Z</time>
      </trkpt>
      <trkpt lat="43.89406" lon="1.80627">
        <ele>174</ele>
        <time>2018-06-14T20:06:46Z</time>
      </trkpt>
      <trkpt lat="43.89406" lon="1.80625">
        <ele>174</ele>
        <time>2018-06-14T20:06:47Z</time>
      </trkpt>
      <trkpt lat="43.89407" lon="1.80623">
        <ele>175</ele>
        <time>2018-06-14T20:06:48Z</time>
      </trkpt>
      <trkpt lat="43.89408" lon="1.80622">
        <ele>175</ele>
        <time>2018-06-14T20:06:49Z</time>
      </trkpt>
      <trkpt lat="43.89409" lon="1.8062">
        <ele>175</ele>
        <time>2018-06-14T20:06:50Z</time>
      </trkpt>
      <trkpt lat="43.8941" lon="1.80618">
        <ele>175</ele>
        <time>2018-06-14T20:06:51Z</time>
      </trkpt>
      <trkpt lat="43.89411" lon="1.80617">
        <ele>175</ele>
        <time>2018-06-14T20:06:52Z</time>
      </trkpt>
      <trkpt lat="43.89411" lon="1.80615">
        <ele>175</ele>
        <time>2018-06-14T20:06:53Z</time>
      </trkpt>
      <trkpt lat="43.89412" lon="1.80614">
        <ele>175</ele>
        <time>2018-06-14T20:06:54Z</time>
      </trkpt>
      <trkpt lat="43.89413" lon="1.80612">
        <ele>175</ele>
        <time>2018-06-14T20:06:55Z</time>
      </trkpt>
      <trkpt lat="43.89413" lon="1.8061">
        <ele>175</ele>
        <time>2018-06-14T20:06:56Z</time>
      </trkpt>
      <trkpt lat="43.89414" lon="1.80609">
        <ele>175</ele>
        <time>2018-06-14T20:06:57Z</time>
      </trkpt>
      <trkpt lat="43.89415" lon="1.80607">
        <ele>176</ele>
        <time>2018-06-14T20:06:58Z</time>
      </trkpt>
      <trkpt lat="43.89416" lon="1.80605">
        <ele>176</ele>
        <time>2018-06-14T20:06:59Z</time>
      </trkpt>
      <trkpt lat="43.89416" lon="1.80604">
        <ele>176</ele>
        <time>2018-06-14T20:07:00Z</time>
      </trkpt>
      <trkpt lat="43.89417" lon="1.80602">
        <ele>176</ele>
        <time>2018-06-14T20:07:01Z</time>
      </trkpt>
      <trkpt lat="43.89418" lon="1.80601">
        <ele>176</ele>
        <time>2018-06-14T20:07:02Z</time>
      </trkpt>
      <trkpt lat="43.89419" lon="1.80599">
        <ele>176</ele>
        <time>2018-06-14T20:07:03Z</time>
      </trkpt>
      <trkpt lat="43.8942" lon="1.80598">
        <ele>176</ele>
        <time>2018-06-14T20:07:04Z</time>
      </trkpt>
      <trkpt lat="43.89421" lon="1.80596">
        <ele>176</ele>
        <time>2018-06-14T20:07:05Z</time>
      </trkpt>
      <trkpt lat="43.89421" lon="1.80595">
        <ele>176</ele>
        <time>2018-06-14T20:07:06Z</time>
      </trkpt>
      <trkpt lat="43.89422" lon="1.80593">
        <ele>177</ele>
        <time>2018-06-14T20:07:07Z</time>
      </trkpt>
      <trkpt lat="43.89423" lon="1.80591">
        <ele>177</ele>
        <time>2018-06-14T20:07:08Z</time>
      </trkpt>
      <trkpt lat="43.89424" lon="1.8059">
        <ele>177</ele>
        <time>2018-06-14T20:07:09Z</time>
      </trkpt>
      <trkpt lat="43.89425" lon="1.80588">
        <ele>177</ele>
        <time>2018-06-14T20:07:10Z</time>
      </trkpt>
      <trkpt lat="43.89426" lon="1.80586">
        <ele>177</ele>
        <time>2018-06-14T20:07:11Z</time>
      </trkpt>
      <trkpt lat="43.89427" lon="1.80585">
        <ele>177</ele>
        <time>2018-06-14T20:07:12Z</time>
      </trkpt>
      <trkpt lat="43.89428" lon="1.80583">
        <ele>177</ele>
        <time>2018-06-14T20:07:13Z</time>
      </trkpt>
      <trkpt lat="43.89429" lon="1.80581">
        <ele>177</ele>
        <time>2018-06-14T20:07:14Z</time>
      </trkpt>
      <trkpt lat="43.8943" lon="1.80579">
        <ele>177</ele>
        <time>2018-06-14T20:07:15Z</time>
      </trkpt>
      <trkpt lat="43.89431" lon="1.80577">
        <ele>177</ele>
        <time>2018-06-14T20:07:16Z</time>
      </trkpt>
      <trkpt lat="43.89431" lon="1.80576">
        <ele>177</ele>
        <time>2018-06-14T20:07:17Z</time>
      </trkpt>
      <trkpt lat="43.89432" lon="1.80574">
        <ele>177</ele>
        <time>2018-06-14T20:07:18Z</time>
      </trkpt>
      <trkpt lat="43.89433" lon="1.80572">
        <ele>178</ele>
        <time>2018-06-14T20:07:19Z</time>
      </trkpt>
      <trkpt lat="43.89434" lon="1.8057">
        <ele>178</ele>
        <time>2018-06-14T20:07:20Z</time>
      </trkpt>
      <trkpt lat="43.89435" lon="1.80569">
        <ele>178</ele>
        <time>2018-06-14T20:07:21Z</time>
      </trkpt>
      <trkpt lat="43.89436" lon="1.80567">
        <ele>178</ele>
        <time>2018-06-14T20:07:22Z</time>
      </trkpt>
      <trkpt lat="43.89437" lon="1.80565">
        <ele>178</ele>
        <time>2018-06-14T20:07:23Z</time>
      </trkpt>
      <trkpt lat="43.89438" lon="1.80563">
        <ele>178</ele>
        <time>2018-06-14T20:07:24Z</time>
      </trkpt>
      <trkpt lat="43.89439" lon="1.80561">
        <ele>178</ele>
        <time>2018-06-14T20:07:25Z</time>
      </trkpt>
      <trkpt lat="43.8944" lon="1.80559">
        <ele>178</ele>
        <time>2018-06-14T20:07:26Z</time>
      </trkpt>
      <trkpt lat="43.89441" lon="1.80558">
        <ele>178</ele>
        <time>2018-06-14T20:07:27Z</time>
      </trkpt>
      <trkpt lat="43.89442" lon="1.80556">
        <ele>178</ele>
        <time>2018-06-14T20:07:28Z</time>
      </trkpt>
      <trkpt lat="43.89442" lon="1.80555">
        <ele>179</ele>
        <time>2018-06-14T20:07:29Z</time>
      </trkpt>
      <trkpt lat="43.89443" lon="1.80552">
        <ele>179</ele>
        <time>2018-06-14T20:07:30Z</time>
      </trkpt>
      <trkpt lat="43.89444" lon="1.8055">
        <ele>179</ele>
        <time>2018-06-14T20:07:31Z</time>
      </trkpt>
      <trkpt lat="43.89445" lon="1.80548">
        <ele>179</ele>
        <time>2018-06-14T20:07:32Z</time>
      </trkpt>
      <trkpt lat="43.89445" lon="1.80546">
        <ele>179</ele>
        <time>2018-06-14T20:07:33Z</time>
      </trkpt>
      <trkpt lat="43.89446" lon="1.80545">
        <ele>179</ele>
        <time>2018-06-14T20:07:34Z</time>
      </trkpt>
      <trkpt lat="43.89447" lon="1.80543">
        <ele>179</ele>
        <time>2018-06-14T20:07:35Z</time>
      </trkpt>
      <trkpt lat="43.89448" lon="1.80541">
        <ele>179</ele>
        <time>2018-06-14T20:07:36Z</time>
      </trkpt>
      <trkpt lat="43.89449" lon="1.80539">
        <ele>179</ele>
        <time>2018-06-14T20:07:37Z</time>
      </trkpt>
      <trkpt lat="43.8945" lon="1.80538">
        <ele>179</ele>
        <time>2018-06-14T20:07:38Z</time>
      </trkpt>
      <trkpt lat="43.89451" lon="1.80536">
        <ele>179</ele>
        <time>2018-06-14T20:07:39Z</time>
      </trkpt>
      <trkpt lat="43.89451" lon="1.80534">
        <ele>179</ele>
        <time>2018-06-14T20:07:40Z</time>
      </trkpt>
      <trkpt lat="43.89452" lon="1.80532">
        <ele>180</ele>
        <time>2018-06-14T20:07:41Z</time>
      </trkpt>
      <trkpt lat="43.89453" lon="1.80531">
        <ele>180</ele>
        <time>2018-06-14T20:07:42Z</time>
      </trkpt>
      <trkpt lat="43.89454" lon="1.80529">
        <ele>180</ele>
        <time>2018-06-14T20:07:43Z</time>
      </trkpt>
      <trkpt lat="43.89455" lon="1.80527">
        <ele>180</ele>
        <time>2018-06-14T20:07:44Z</time>
      </trkpt>
      <trkpt lat="43.89456" lon="1.80525">
        <ele>180</ele>
        <time>2018-06-14T20:07:45Z</time>
      </trkpt>
      <trkpt lat="43.89457" lon="1.80524">
        <ele>180</ele>
        <time>2018-06-14T20:07:46Z</time>
      </trkpt>
      <trkpt lat="43.89458" lon="1.80522">
        <ele>180</ele>
        <time>2018-06-14T20:07:47Z</time>
      </trkpt>
      <trkpt lat="43.89459" lon="1.80521">
        <ele>180</ele>
        <time>2018-06-14T20:07:48Z</time>
      </trkpt>
      <trkpt lat="43.8946" lon="1.80519">
        <ele>180</ele>
        <time>2018-06-14T20:07:49Z</time>
      </trkpt>
      <trkpt lat="43.89461" lon="1.80517">
        <ele>180</ele>
        <time>2018-06-14T20:07:50Z</time>
      </trkpt>
      <trkpt lat="43.89461" lon="1.80516">
        <ele>181</ele>
        <time>2018-06-14T20:07:51Z</time>
      </trkpt>
      <trkpt lat="43.89462" lon="1.80514">
        <ele>181</ele>
        <time>2018-06-14T20:07:52Z</time>
      </trkpt>
      <trkpt lat="43.89463" lon="1.80513">
        <ele>181</ele>
        <time>2018-06-14T20:07:53Z</time>
      </trkpt>
      <trkpt lat="43.89463" lon="1.80511">
        <ele>181</ele>
        <time>2018-06-14T20:07:54Z</time>
      </trkpt>
      <trkpt lat="43.89464" lon="1.8051">
        <ele>181</ele>
        <time>2018-06-14T20:07:55Z</time>
      </trkpt>
      <trkpt lat="43.89465" lon="1.80508">
        <ele>181</ele>
        <time>2018-06-14T20:07:56Z</time>
      </trkpt>
      <trkpt lat="43.89466" lon="1.80506">
        <ele>181</ele>
        <time>2018-06-14T20:07:57Z</time>
      </trkpt>
      <trkpt lat="43.89467" lon="1.80505">
        <ele>181</ele>
        <time>2018-06-14T20:07:58Z</time>
      </trkpt>
      <trkpt lat="43.89468" lon="1.80503">
        <ele>181</ele>
        <time>2018-06-14T20:07:59Z</time>
      </trkpt>
      <trkpt lat="43.89469" lon="1.80502">
        <ele>181</ele>
        <time>2018-06-14T20:08:00Z</time>
      </trkpt>
      <trkpt lat="43.8947" lon="1.805">
        <ele>181</ele>
        <time>2018-06-14T20:08:01Z</time>
      </trkpt>
      <trkpt lat="43.8947" lon="1.80498">
        <ele>181</ele>
        <time>2018-06-14T20:08:02Z</time>
      </trkpt>
      <trkpt lat="43.89471" lon="1.80497">
        <ele>182</ele>
        <time>2018-06-14T20:08:03Z</time>
      </trkpt>
      <trkpt lat="43.89472" lon="1.80496">
        <ele>182</ele>
        <time>2018-06-14T20:08:04Z</time>
      </trkpt>
      <trkpt lat="43.89474" lon="1.80494">
        <ele>182</ele>
        <time>2018-06-14T20:08:05Z</time>
      </trkpt>
      <trkpt lat="43.89474" lon="1.80493">
        <ele>182</ele>
        <time>2018-06-14T20:08:06Z</time>
      </trkpt>
      <trkpt lat="43.89476" lon="1.80491">
        <ele>182</ele>
        <time>2018-06-14T20:08:07Z</time>
      </trkpt>
      <trkpt lat="43.89477" lon="1.8049">
        <ele>182</ele>
        <time>2018-06-14T20:08:08Z</time>
      </trkpt>
      <trkpt lat="43.89478" lon="1.80489">
        <ele>183</ele>
        <time>2018-06-14T20:08:09Z</time>
      </trkpt>
      <trkpt lat="43.89479" lon="1.80488">
        <ele>183</ele>
        <time>2018-06-14T20:08:10Z</time>
      </trkpt>
      <trkpt lat="43.8948" lon="1.80486">
        <ele>183</ele>
        <time>2018-06-14T20:08:11Z</time>
      </trkpt>
      <trkpt lat="43.89481" lon="1.80485">
        <ele>183</ele>
        <time>2018-06-14T20:08:12Z</time>
      </trkpt>
      <trkpt lat="43.89483" lon="1.80484">
        <ele>183</ele>
        <time>2018-06-14T20:08:13Z</time>
      </trkpt>
      <trkpt lat="43.89484" lon="1.80483">
        <ele>183</ele>
        <time>2018-06-14T20:08:14Z</time>
      </trkpt>
      <trkpt lat="43.89485" lon="1.80482">
        <ele>183</ele>
        <time>2018-06-14T20:08:15Z</time>
      </trkpt>
      <trkpt lat="43.89486" lon="1.8048">
        <ele>183</ele>
        <time>2018-06-14T20:08:16Z</time>
      </trkpt>
      <trkpt lat="43.89488" lon="1.80479">
        <ele>184</ele>
        <time>2018-06-14T20:08:17Z</time>
      </trkpt>
      <trkpt lat="43.89489" lon="1.80477">
        <ele>184</ele>
        <time>2018-06-14T20:08:18Z</time>
      </trkpt>
      <trkpt lat="43.8949" lon="1.80476">
        <ele>184</ele>
        <time>2018-06-14T20:08:19Z</time>
      </trkpt>
      <trkpt lat="43.89491" lon="1.80475">
        <ele>184</ele>
        <time>2018-06-14T20:08:20Z</time>
      </trkpt>
      <trkpt lat="43.89493" lon="1.80474">
        <ele>184</ele>
        <time>2018-06-14T20:08:21Z</time>
      </trkpt>
      <trkpt lat="43.89494" lon="1.80473">
        <ele>184</ele>
        <time>2018-06-14T20:08:22Z</time>
      </trkpt>
      <trkpt lat="43.89495" lon="1.80471">
        <ele>184</ele>
        <time>2018-06-14T20:08:23Z</time>
      </trkpt>
      <trkpt lat="43.89497" lon="1.8047">
        <ele>184</ele>
        <time>2018-06-14T20:08:24Z</time>
      </trkpt>
      <trkpt lat="43.89498" lon="1.80469">
        <ele>184</ele>
        <time>2018-06-14T20:08:25Z</time>
      </trkpt>
      <trkpt lat="43.89499" lon="1.80468">
        <ele>184</ele>
        <time>2018-06-14T20:08:26Z</time>
      </trkpt>
      <trkpt lat="43.895" lon="1.80466">
        <ele>184</ele>
        <time>2018-06-14T20:08:27Z</time>
      </trkpt>
      <trkpt lat="43.89501" lon="1.80465">
        <ele>184</ele>
        <time>2018-06-14T20:08:28Z</time>
      </trkpt>
      <trkpt lat="43.89503" lon="1.80465">
        <ele>184</ele>
        <time>2018-06-14T20:08:29Z</time>
      </trkpt>
      <trkpt lat="43.89504" lon="1.80464">
        <ele>185</ele>
        <time>2018-06-14T20:08:30Z</time>
      </trkpt>
      <trkpt lat="43.89505" lon="1.80463">
        <ele>185</ele>
        <time>2018-06-14T20:08:31Z</time>
      </trkpt>
      <trkpt lat="43.89506" lon="1.80461">
        <ele>185</ele>
        <time>2018-06-14T20:08:32Z</time>
      </trkpt>
      <trkpt lat="43.89508" lon="1.80461">
        <ele>185</ele>
        <time>2018-06-14T20:08:33Z</time>
      </trkpt>
      <trkpt lat="43.89509" lon="1.80459">
        <ele>185</ele>
        <time>2018-06-14T20:08:34Z</time>
      </trkpt>
      <trkpt lat="43.89511" lon="1.80458">
        <ele>185</ele>
        <time>2018-06-14T20:08:35Z</time>
      </trkpt>
      <trkpt lat="43.89512" lon="1.80456">
        <ele>185</ele>
        <time>2018-06-14T20:08:36Z</time>
      </trkpt>
      <trkpt lat="43.89513" lon="1.80455">
        <ele>185</ele>
        <time>2018-06-14T20:08:37Z</time>
      </trkpt>
      <trkpt lat="43.89514" lon="1.80454">
        <ele>185</ele>
        <time>2018-06-14T20:08:38Z</time>
      </trkpt>
      <trkpt lat="43.89515" lon="1.80452">
        <ele>185</ele>
        <time>2018-06-14T20:08:39Z</time>
      </trkpt>
      <trkpt lat="43.89516" lon="1.80451">
        <ele>185</ele>
        <time>2018-06-14T20:08:40Z</time>
      </trkpt>
      <trkpt lat="43.89517" lon="1.80449">
        <ele>186</ele>
        <time>2018-06-14T20:08:41Z</time>
      </trkpt>
      <trkpt lat="43.89518" lon="1.80447">
        <ele>186</ele>
        <time>2018-06-14T20:08:42Z</time>
      </trkpt>
      <trkpt lat="43.8952" lon="1.80445">
        <ele>186</ele>
        <time>2018-06-14T20:08:43Z</time>
      </trkpt>
      <trkpt lat="43.89521" lon="1.80443">
        <ele>186</ele>
        <time>2018-06-14T20:08:44Z</time>
      </trkpt>
      <trkpt lat="43.89522" lon="1.80442">
        <ele>186</ele>
        <time>2018-06-14T20:08:45Z</time>
      </trkpt>
      <trkpt lat="43.89522" lon="1.80439">
        <ele>186</ele>
        <time>2018-06-14T20:08:46Z</time>
      </trkpt>
      <trkpt lat="43.89523" lon="1.80438">
        <ele>186</ele>
        <time>2018-06-14T20:08:47Z</time>
      </trkpt>
      <trkpt lat="43.89524" lon="1.80436">
        <ele>186</ele>
        <time>2018-06-14T20:08:48Z</time>
      </trkpt>
      <trkpt lat="43.89525" lon="1.80434">
        <ele>186</ele>
        <time>2018-06-14T20:08:49Z</time>
      </trkpt>
      <trkpt lat="43.89526" lon="1.80432">
        <ele>186</ele>
        <time>2018-06-14T20:08:50Z</time>
      </trkpt>
      <trkpt lat="43.89527" lon="1.8043">
        <ele>186</ele>
        <time>2018-06-14T20:08:51Z</time>
      </trkpt>
      <trkpt lat="43.89528" lon="1.80428">
        <ele>187</ele>
        <time>2018-06-14T20:08:52Z</time>
      </trkpt>
      <trkpt lat="43.89529" lon="1.80426">
        <ele>187</ele>
        <time>2018-06-14T20:08:53Z</time>
      </trkpt>
      <trkpt lat="43.8953" lon="1.80424">
        <ele>187</ele>
        <time>2018-06-14T20:08:54Z</time>
      </trkpt>
      <trkpt lat="43.89531" lon="1.80422">
        <ele>187</ele>
        <time>2018-06-14T20:08:55Z</time>
      </trkpt>
      <trkpt lat="43.89532" lon="1.8042">
        <ele>187</ele>
        <time>2018-06-14T20:08:56Z</time>
      </trkpt>
      <trkpt lat="43.89533" lon="1.80418">
        <ele>187</ele>
        <time>2018-06-14T20:08:57Z</time>
      </trkpt>
      <trkpt lat="43.89534" lon="1.80417">
        <ele>187</ele>
        <time>2018-06-14T20:08:58Z</time>
      </trkpt>
      <trkpt lat="43.89535" lon="1.80415">
        <ele>187</ele>
        <time>2018-06-14T20:08:59Z</time>
      </trkpt>
      <trkpt lat="43.89537" lon="1.80414">
        <ele>187</ele>
        <time>2018-06-14T20:09:00Z</time>
      </trkpt>
      <trkpt lat="43.89538" lon="1.80413">
        <ele>187</ele>
        <time>2018-06-14T20:09:01Z</time>
      </trkpt>
      <trkpt lat="43.89539" lon="1.80411">
        <ele>188</ele>
        <time>2018-06-14T20:09:02Z</time>
      </trkpt>
      <trkpt lat="43.8954" lon="1.8041">
        <ele>188</ele>
        <time>2018-06-14T20:09:03Z</time>
      </trkpt>
      <trkpt lat="43.89541" lon="1.80408">
        <ele>188</ele>
        <time>2018-06-14T20:09:04Z</time>
      </trkpt>
      <trkpt lat="43.89542" lon="1.80407">
        <ele>188</ele>
        <time>2018-06-14T20:09:05Z</time>
      </trkpt>
      <trkpt lat="43.89544" lon="1.80405">
        <ele>188</ele>
        <time>2018-06-14T20:09:06Z</time>
      </trkpt>
      <trkpt lat="43.89545" lon="1.80404">
        <ele>188</ele>
        <time>2018-06-14T20:09:07Z</time>
      </trkpt>
      <trkpt lat="43.89546" lon="1.80403">
        <ele>188</ele>
        <time>2018-06-14T20:09:08Z</time>
      </trkpt>
      <trkpt lat="43.89547" lon="1.80401">
        <ele>188</ele>
        <time>2018-06-14T20:09:09Z</time>
      </trkpt>
      <trkpt lat="43.89548" lon="1.804">
        <ele>189</ele>
        <time>2018-06-14T20:09:10Z</time>
      </trkpt>
      <trkpt lat="43.8955" lon="1.80398">
        <ele>189</ele>
        <time>2018-06-14T20:09:11Z</time>
      </trkpt>
      <trkpt lat="43.89551" lon="1.80397">
        <ele>189</ele>
        <time>2018-06-14T20:09:12Z</time>
      </trkpt>
      <trkpt lat="43.89552" lon="1.80396">
        <ele>189</ele>
        <time>2018-06-14T20:09:13Z</time>
      </trkpt>
      <trkpt lat="43.89553" lon="1.80394">
        <ele>189</ele>
        <time>2018-06-14T20:09:14Z</time>
      </trkpt>
      <trkpt lat="43.89554" lon="1.80393">
        <ele>189</ele>
        <time>2018-06-14T20:09:15Z</time>
      </trkpt>
      <trkpt lat="43.89556" lon="1.80392">
        <ele>189</ele>
        <time>2018-06-14T20:09:16Z</time>
      </trkpt>
      <trkpt lat="43.89557" lon="1.8039">
        <ele>189</ele>
        <time>2018-06-14T20:09:17Z</time>
      </trkpt>
      <trkpt lat="43.89558" lon="1.80388">
        <ele>189</ele>
        <time>2018-06-14T20:09:18Z</time>
      </trkpt>
      <trkpt lat="43.89559" lon="1.80386">
        <ele>190</ele>
        <time>2018-06-14T20:09:19Z</time>
      </trkpt>
      <trkpt lat="43.8956" lon="1.80385">
        <ele>190</ele>
        <time>2018-06-14T20:09:20Z</time>
      </trkpt>
      <trkpt lat="43.8956" lon="1.80384">
        <ele>190</ele>
        <time>2018-06-14T20:09:21Z</time>
      </trkpt>
      <trkpt lat="43.89561" lon="1.80382">
        <ele>190</ele>
        <time>2018-06-14T20:09:22Z</time>
      </trkpt>
      <trkpt lat="43.89562" lon="1.80381">
        <ele>190</ele>
        <time>2018-06-14T20:09:23Z</time>
      </trkpt>
      <trkpt lat="43.89563" lon="1.8038">
        <ele>190</ele>
        <time>2018-06-14T20:09:24Z</time>
      </trkpt>
      <trkpt lat="43.89564" lon="1.80379">
        <ele>190</ele>
        <time>2018-06-14T20:09:25Z</time>
      </trkpt>
      <trkpt lat="43.89565" lon="1.80377">
        <ele>191</ele>
        <time>2018-06-14T20:09:26Z</time>
      </trkpt>
      <trkpt lat="43.89566" lon="1.80376">
        <ele>191</ele>
        <time>2018-06-14T20:09:27Z</time>
      </trkpt>
      <trkpt lat="43.89567" lon="1.80375">
        <ele>191</ele>
        <time>2018-06-14T20:09:28Z</time>
      </trkpt>
      <trkpt lat="43.89568" lon="1.80375">
        <ele>191</ele>
        <time>2018-06-14T20:09:29Z</time>
      </trkpt>
      <trkpt lat="43.89569" lon="1.80373">
        <ele>191</ele>
        <time>2018-06-14T20:09:30Z</time>
      </trkpt>
      <trkpt lat="43.8957" lon="1.80372">
        <ele>191</ele>
        <time>2018-06-14T20:09:31Z</time>
      </trkpt>
      <trkpt lat="43.89571" lon="1.80371">
        <ele>191</ele>
        <time>2018-06-14T20:09:32Z</time>
      </trkpt>
      <trkpt lat="43.89571" lon="1.8037">
        <ele>192</ele>
        <time>2018-06-14T20:09:33Z</time>
      </trkpt>
      <trkpt lat="43.89573" lon="1.80369">
        <ele>192</ele>
        <time>2018-06-14T20:09:34Z</time>
      </trkpt>
      <trkpt lat="43.89573" lon="1.80368">
        <ele>192</ele>
        <time>2018-06-14T20:09:35Z</time>
      </trkpt>
      <trkpt lat="43.89574" lon="1.80367">
        <ele>192</ele>
        <time>2018-06-14T20:09:36Z</time>
      </trkpt>
      <trkpt lat="43.89575" lon="1.80366">
        <ele>192</ele>
        <time>2018-06-14T20:09:37Z</time>
      </trkpt>
      <trkpt lat="43.89576" lon="1.80364">
        <ele>192</ele>
        <time>2018-06-14T20:09:38Z</time>
      </trkpt>
      <trkpt lat="43.89577" lon="1.80363">
        <ele>192</ele>
        <time>2018-06-14T20:09:39Z</time>
      </trkpt>
      <trkpt lat="43.89578" lon="1.80362">
        <ele>192</ele>
        <time>2018-06-14T20:09:40Z</time>
      </trkpt>
      <trkpt lat="43.89579" lon="1.80361">
        <ele>192</ele>
        <time>2018-06-14T20:09:41Z</time>
      </trkpt>
      <trkpt lat="43.8958" lon="1.8036">
        <ele>193</ele>
        <time>2018-06-14T20:09:42Z</time>
      </trkpt>
      <trkpt lat="43.89581" lon="1.80359">
        <ele>193</ele>
        <time>2018-06-14T20:09:43Z</time>
      </trkpt>
      <trkpt lat="43.89582" lon="1.80358">
        <ele>193</ele>
        <time>2018-06-14T20:09:44Z</time>
      </trkpt>
      <trkpt lat="43.89583" lon="1.80357">
        <ele>193</ele>
        <time>2018-06-14T20:09:45Z</time>
      </trkpt>
      <trkpt lat="43.89584" lon="1.80356">
        <ele>193</ele>
        <time>2018-06-14T20:09:46Z</time>
      </trkpt>
      <trkpt lat="43.89585" lon="1.80354">
        <ele>194</ele>
        <time>2018-06-14T20:09:47Z</time>
      </trkpt>
      <trkpt lat="43.89586" lon="1.80353">
        <ele>194</ele>
        <time>2018-06-14T20:09:48Z</time>
      </trkpt>
      <trkpt lat="43.89587" lon="1.80352">
        <ele>194</ele>
        <time>2018-06-14T20:09:49Z</time>
      </trkpt>
      <trkpt lat="43.89588" lon="1.80351">
        <ele>194</ele>
        <time>2018-06-14T20:09:50Z</time>
      </trkpt>
      <trkpt lat="43.89589" lon="1.8035">
        <ele>194</ele>
        <time>2018-06-14T20:09:51Z</time>
      </trkpt>
      <trkpt lat="43.8959" lon="1.80349">
        <ele>194</ele>
        <time>2018-06-14T20:09:52Z</time>
      </trkpt>
      <trkpt lat="43.89591" lon="1.80347">
        <ele>194</ele>
        <time>2018-06-14T20:09:53Z</time>
      </trkpt>
      <trkpt lat="43.89592" lon="1.80346">
        <ele>194</ele>
        <time>2018-06-14T20:09:54Z</time>
      </trkpt>
      <trkpt lat="43.89593" lon="1.80345">
        <ele>195</ele>
        <time>2018-06-14T20:09:55Z</time>
      </trkpt>
      <trkpt lat="43.89594" lon="1.80345">
        <ele>195</ele>
        <time>2018-06-14T20:09:56Z</time>
      </trkpt>
      <trkpt lat="43.89595" lon="1.80343">
        <ele>195</ele>
        <time>2018-06-14T20:09:57Z</time>
      </trkpt>
      <trkpt lat="43.89596" lon="1.80343">
        <ele>195</ele>
        <time>2018-06-14T20:09:58Z</time>
      </trkpt>
      <trkpt lat="43.89597" lon="1.80342">
        <ele>195</ele>
        <time>2018-06-14T20:09:59Z</time>
      </trkpt>
      <trkpt lat="43.89598" lon="1.8034">
        <ele>195</ele>
        <time>2018-06-14T20:10:00Z</time>
      </trkpt>
      <trkpt lat="43.89598" lon="1.80339">
        <ele>195</ele>
        <time>2018-06-14T20:10:01Z</time>
      </trkpt>
      <trkpt lat="43.89599" lon="1.80338">
        <ele>195</ele>
        <time>2018-06-14T20:10:02Z</time>
      </trkpt>
      <trkpt lat="43.896" lon="1.80336">
        <ele>196</ele>
        <time>2018-06-14T20:10:03Z</time>
      </trkpt>
      <trkpt lat="43.89601" lon="1.80335">
        <ele>196</ele>
        <time>2018-06-14T20:10:04Z</time>
      </trkpt>
      <trkpt lat="43.89602" lon="1.80334">
        <ele>196</ele>
        <time>2018-06-14T20:10:05Z</time>
      </trkpt>
      <trkpt lat="43.89604" lon="1.80333">
        <ele>196</ele>
        <time>2018-06-14T20:10:06Z</time>
      </trkpt>
      <trkpt lat="43.89605" lon="1.80333">
        <ele>196</ele>
        <time>2018-06-14T20:10:07Z</time>
      </trkpt>
      <trkpt lat="43.89606" lon="1.80333">
        <ele>196</ele>
        <time>2018-06-14T20:10:08Z</time>
      </trkpt>
      <trkpt lat="43.89608" lon="1.80333">
        <ele>196</ele>
        <time>2018-06-14T20:10:09Z</time>
      </trkpt>
      <trkpt lat="43.89609" lon="1.80334">
        <ele>196</ele>
        <time>2018-06-14T20:10:10Z</time>
      </trkpt>
      <trkpt lat="43.8961" lon="1.80336">
        <ele>196</ele>
        <time>2018-06-14T20:10:11Z</time>
      </trkpt>
      <trkpt lat="43.8961" lon="1.80338">
        <ele>196</ele>
        <time>2018-06-14T20:10:12Z</time>
      </trkpt>
      <trkpt lat="43.89611" lon="1.8034">
        <ele>196</ele>
        <time>2018-06-14T20:10:13Z</time>
      </trkpt>
      <trkpt lat="43.89612" lon="1.80341">
        <ele>196</ele>
        <time>2018-06-14T20:10:14Z</time>
      </trkpt>
      <trkpt lat="43.89612" lon="1.80342">
        <ele>196</ele>
        <time>2018-06-14T20:10:15Z</time>
      </trkpt>
      <trkpt lat="43.89613" lon="1.80344">
        <ele>196</ele>
        <time>2018-06-14T20:10:16Z</time>
      </trkpt>
      <trkpt lat="43.89614" lon="1.80345">
        <ele>196</ele>
        <time>2018-06-14T20:10:17Z</time>
      </trkpt>
      <trkpt lat="43.89615" lon="1.80347">
        <ele>197</ele>
        <time>2018-06-14T20:10:18Z</time>
      </trkpt>
      <trkpt lat="43.89615" lon="1.80349">
        <ele>197</ele>
        <time>2018-06-14T20:10:19Z</time>
      </trkpt>
      <trkpt lat="43.89616" lon="1.8035">
        <ele>197</ele>
        <time>2018-06-14T20:10:20Z</time>
      </trkpt>
      <trkpt lat="43.89617" lon="1.80352">
        <ele>197</ele>
        <time>2018-06-14T20:10:21Z</time>
      </trkpt>
      <trkpt lat="43.89617" lon="1.80354">
        <ele>197</ele>
        <time>2018-06-14T20:10:22Z</time>
      </trkpt>
      <trkpt lat="43.89618" lon="1.80356">
        <ele>197</ele>
        <time>2018-06-14T20:10:23Z</time>
      </trkpt>
      <trkpt lat="43.89618" lon="1.80357">
        <ele>197</ele>
        <time>2018-06-14T20:10:24Z</time>
      </trkpt>
      <trkpt lat="43.89619" lon="1.80359">
        <ele>197</ele>
        <time>2018-06-14T20:10:25Z</time>
      </trkpt>
      <trkpt lat="43.8962" lon="1.8036">
        <ele>197</ele>
        <time>2018-06-14T20:10:26Z</time>
      </trkpt>
      <trkpt lat="43.8962" lon="1.80362">
        <ele>197</ele>
        <time>2018-06-14T20:10:27Z</time>
      </trkpt>
      <trkpt lat="43.89621" lon="1.80363">
        <ele>197</ele>
        <time>2018-06-14T20:10:28Z</time>
      </trkpt>
      <trkpt lat="43.89621" lon="1.80365">
        <ele>197</ele>
        <time>2018-06-14T20:10:29Z</time>
      </trkpt>
      <trkpt lat="43.89622" lon="1.80366">
        <ele>197</ele>
        <time>2018-06-14T20:10:30Z</time>
      </trkpt>
      <trkpt lat="43.89623" lon="1.80368">
        <ele>197</ele>
        <time>2018-06-14T20:10:31Z</time>
      </trkpt>
      <trkpt lat="43.89623" lon="1.8037">
        <ele>198</ele>
        <time>2018-06-14T20:10:32Z</time>
      </trkpt>
      <trkpt lat="43.89624" lon="1.80371">
        <ele>198</ele>
        <time>2018-06-14T20:10:33Z</time>
      </trkpt>
      <trkpt lat="43.89624" lon="1.80373">
        <ele>198</ele>
        <time>2018-06-14T20:10:34Z</time>
      </trkpt>
      <trkpt lat="43.89625" lon="1.80375">
        <ele>198</ele>
        <time>2018-06-14T20:10:35Z</time>
      </trkpt>
      <trkpt lat="43.89626" lon="1.80376">
        <ele>198</ele>
        <time>2018-06-14T20:10:36Z</time>
      </trkpt>
      <trkpt lat="43.89626" lon="1.80378">
        <ele>198</ele>
        <time>2018-06-14T20:10:37Z</time>
      </trkpt>
      <trkpt lat="43.89627" lon="1.80379">
        <ele>198</ele>
        <time>2018-06-14T20:10:38Z</time>
      </trkpt>
      <trkpt lat="43.89628" lon="1.80381">
        <ele>198</ele>
        <time>2018-06-14T20:10:39Z</time>
      </trkpt>
      <trkpt lat="43.89629" lon="1.80382">
        <ele>199</ele>
        <time>2018-06-14T20:10:40Z</time>
      </trkpt>
      <trkpt lat="43.89629" lon="1.80384">
        <ele>199</ele>
        <time>2018-06-14T20:10:41Z</time>
      </trkpt>
      <trkpt lat="43.8963" lon="1.80386">
        <ele>199</ele>
        <time>2018-06-14T20:10:42Z</time>
      </trkpt>
      <trkpt lat="43.8963" lon="1.80388">
        <ele>199</ele>
        <time>2018-06-14T20:10:43Z</time>
      </trkpt>
      <trkpt lat="43.89631" lon="1.8039">
        <ele>199</ele>
        <time>2018-06-14T20:10:44Z</time>
      </trkpt>
      <trkpt lat="43.89631" lon="1.80392">
        <ele>200</ele>
        <time>2018-06-14T20:10:45Z</time>
      </trkpt>
      <trkpt lat="43.89632" lon="1.80394">
        <ele>200</ele>
        <time>2018-06-14T20:10:46Z</time>
      </trkpt>
      <trkpt lat="43.89632" lon="1.80396">
        <ele>200</ele>
        <time>2018-06-14T20:10:47Z</time>
      </trkpt>
      <trkpt lat="43.89632" lon="1.80398">
        <ele>200</ele>
        <time>2018-06-14T20:10:48Z</time>
      </trkpt>
      <trkpt lat="43.89633" lon="1.804">
        <ele>200</ele>
        <time>2018-06-14T20:10:49Z</time>
      </trkpt>
      <trkpt lat="43.89634" lon="1.80402">
        <ele>201</ele>
        <time>2018-06-14T20:10:50Z</time>
      </trkpt>
      <trkpt lat="43.89635" lon="1.80404">
        <ele>201</ele>
        <time>2018-06-14T20:10:51Z</time>
      </trkpt>
      <trkpt lat="43.89636" lon="1.80407">
        <ele>202</ele>
        <time>2018-06-14T20:10:52Z</time>
      </trkpt>
      <trkpt lat="43.89638" lon="1.80409">
        <ele>202</ele>
        <time>2018-06-14T20:10:53Z</time>
      </trkpt>
      <trkpt lat="43.89638" lon="1.80411">
        <ele>203</ele>
        <time>2018-06-14T20:10:54Z</time>
      </trkpt>
      <trkpt lat="43.89639" lon="1.80413">
        <ele>203</ele>
        <time>2018-06-14T20:10:55Z</time>
      </trkpt>
      <trkpt lat="43.8964" lon="1.80415">
        <ele>203</ele>
        <time>2018-06-14T20:10:56Z</time>
      </trkpt>
      <trkpt lat="43.89642" lon="1.80416">
        <ele>204</ele>
        <time>2018-06-14T20:10:57Z</time>
      </trkpt>
      <trkpt lat="43.89643" lon="1.80417">
        <ele>204</ele>
        <time>2018-06-14T20:10:58Z</time>
      </trkpt>
      <trkpt lat="43.89644" lon="1.80419">
        <ele>205</ele>
        <time>2018-06-14T20:10:59Z</time>
      </trkpt>
      <trkpt lat="43.89645" lon="1.80419">
        <ele>205</ele>
        <time>2018-06-14T20:11:00Z</time>
      </trkpt>
      <trkpt lat="43.89646" lon="1.8042">
        <ele>205</ele>
        <time>2018-06-14T20:11:01Z</time>
      </trkpt>
      <trkpt lat="43.89647" lon="1.8042">
        <ele>205</ele>
        <time>2018-06-14T20:11:02Z</time>
      </trkpt>
      <trkpt lat="43.89648" lon="1.8042">
        <ele>206</ele>
        <time>2018-06-14T20:11:03Z</time>
      </trkpt>
      <trkpt lat="43.89649" lon="1.8042">
        <ele>206</ele>
        <time>2018-06-14T20:11:04Z</time>
      </trkpt>
      <trkpt lat="43.89651" lon="1.80421">
        <ele>206</ele>
        <time>2018-06-14T20:11:05Z</time>
      </trkpt>
      <trkpt lat="43.89652" lon="1.8042">
        <ele>206</ele>
        <time>2018-06-14T20:11:06Z</time>
      </trkpt>
      <trkpt lat="43.89653" lon="1.8042">
        <ele>206</ele>
        <time>2018-06-14T20:11:07Z</time>
      </trkpt>
      <trkpt lat="43.89654" lon="1.8042">
        <ele>206</ele>
        <time>2018-06-14T20:11:08Z</time>
      </trkpt>
      <trkpt lat="43.89655" lon="1.8042">
        <ele>206</ele>
        <time>2018-06-14T20:11:09Z</time>
      </trkpt>
      <trkpt lat="43.89656" lon="1.80419">
        <ele>206</ele>
        <time>2018-06-14T20:11:10Z</time>
      </trkpt>
      <trkpt lat="43.89657" lon="1.80419">
        <ele>206</ele>
        <time>2018-06-14T20:11:11Z</time>
      </trkpt>
      <trkpt lat="43.89658" lon="1.80418">
        <ele>206</ele>
        <time>2018-06-14T20:11:12Z</time>
      </trkpt>
      <trkpt lat="43.89659" lon="1.80418">
        <ele>207</ele>
        <time>2018-06-14T20:11:13Z</time>
      </trkpt>
      <trkpt lat="43.8966" lon="1.80417">
        <ele>207</ele>
        <time>2018-06-14T20:11:14Z</time>
      </trkpt>
      <trkpt lat="43.89661" lon="1.80417">
        <ele>207</ele>
        <time>2018-06-14T20:11:15Z</time>
      </trkpt>
      <trkpt lat="43.89662" lon="1.80416">
        <ele>207</ele>
        <time>2018-06-14T20:11:16Z</time>
      </trkpt>
      <trkpt lat="43.89663" lon="1.80415">
        <ele>207</ele>
        <time>2018-06-14T20:11:17Z</time>
      </trkpt>
      <trkpt lat="43.89665" lon="1.80414">
        <ele>207</ele>
        <time>2018-06-14T20:11:18Z</time>
      </trkpt>
      <trkpt lat="43.89666" lon="1.80414">
        <ele>207</ele>
        <time>2018-06-14T20:11:19Z</time>
      </trkpt>
      <trkpt lat="43.89666" lon="1.80413">
        <ele>208</ele>
        <time>2018-06-14T20:11:20Z</time>
      </trkpt>
      <trkpt lat="43.89667" lon="1.80412">
        <ele>208</ele>
        <time>2018-06-14T20:11:21Z</time>
      </trkpt>
      <trkpt lat="43.89668" lon="1.80411">
        <ele>208</ele>
        <time>2018-06-14T20:11:22Z</time>
      </trkpt>
      <trkpt lat="43.89669" lon="1.8041">
        <ele>208</ele>
        <time>2018-06-14T20:11:23Z</time>
      </trkpt>
      <trkpt lat="43.8967" lon="1.8041">
        <ele>208</ele>
        <time>2018-06-14T20:11:24Z</time>
      </trkpt>
      <trkpt lat="43.8967" lon="1.80409">
        <ele>208</ele>
        <time>2018-06-14T20:11:25Z</time>
      </trkpt>
      <trkpt lat="43.89672" lon="1.80408">
        <ele>208</ele>
        <time>2018-06-14T20:11:26Z</time>
      </trkpt>
      <trkpt lat="43.89673" lon="1.80408">
        <ele>209</ele>
        <time>2018-06-14T20:11:27Z</time>
      </trkpt>
      <trkpt lat="43.89674" lon="1.80407">
        <ele>209</ele>
        <time>2018-06-14T20:11:28Z</time>
      </trkpt>
      <trkpt lat="43.89674" lon="1.80407">
        <ele>209</ele>
        <time>2018-06-14T20:11:29Z</time>
      </trkpt>
      <trkpt lat="43.89675" lon="1.80406">
        <ele>209</ele>
        <time>2018-06-14T20:11:30Z</time>
      </trkpt>
      <trkpt lat="43.89677" lon="1.80406">
        <ele>209</ele>
        <time>2018-06-14T20:11:31Z</time>
      </trkpt>
      <trkpt lat="43.89678" lon="1.80405">
        <ele>209</ele>
        <time>2018-06-14T20:11:32Z</time>
      </trkpt>
      <trkpt lat="43.89678" lon="1.80404">
        <ele>209</ele>
        <time>2018-06-14T20:11:33Z</time>
      </trkpt>
      <trkpt lat="43.89679" lon="1.80403">
        <ele>209</ele>
        <time>2018-06-14T20:11:34Z</time>
      </trkpt>
      <trkpt lat="43.8968" lon="1.80402">
        <ele>209</ele>
        <time>2018-06-14T20:11:35Z</time>
      </trkpt>
      <trkpt lat="43.89681" lon="1.80401">
        <ele>209</ele>
        <time>2018-06-14T20:11:36Z</time>
      </trkpt>
      <trkpt lat="43.89682" lon="1.804">
        <ele>209</ele>
        <time>2018-06-14T20:11:37Z</time>
      </trkpt>
      <trkpt lat="43.89683" lon="1.80399">
        <ele>210</ele>
        <time>2018-06-14T20:11:38Z</time>
      </trkpt>
      <trkpt lat="43.89684" lon="1.80398">
        <ele>210</ele>
        <time>2018-06-14T20:11:39Z</time>
      </trkpt>
      <trkpt lat="43.89685" lon="1.80397">
        <ele>210</ele>
        <time>2018-06-14T20:11:40Z</time>
      </trkpt>
      <trkpt lat="43.89686" lon="1.80397">
        <ele>210</ele>
        <time>2018-06-14T20:11:41Z</time>
      </trkpt>
      <trkpt lat="43.89687" lon="1.80396">
        <ele>210</ele>
        <time>2018-06-14T20:11:42Z</time>
      </trkpt>
      <trkpt lat="43.89688" lon="1.80396">
        <ele>210</ele>
        <time>2018-06-14T20:11:43Z</time>
      </trkpt>
      <trkpt lat="43.89689" lon="1.80396">
        <ele>211</ele>
        <time>2018-06-14T20:11:44Z</time>
      </trkpt>
      <trkpt lat="43.8969" lon="1.80395">
        <ele>211</ele>
        <time>2018-06-14T20:11:45Z</time>
      </trkpt>
      <trkpt lat="43.89691" lon="1.80394">
        <ele>211</ele>
        <time>2018-06-14T20:11:46Z</time>
      </trkpt>
      <trkpt lat="43.89692" lon="1.80393">
        <ele>211</ele>
        <time>2018-06-14T20:11:47Z</time>
      </trkpt>
      <trkpt lat="43.89694" lon="1.80392">
        <ele>211</ele>
        <time>2018-06-14T20:11:48Z</time>
      </trkpt>
      <trkpt lat="43.89695" lon="1.80392">
        <ele>211</ele>
        <time>2018-06-14T20:11:49Z</time>
      </trkpt>
      <trkpt lat="43.89694" lon="1.80392">
        <ele>211</ele>
        <time>2018-06-14T20:11:50Z</time>
      </trkpt>
      <trkpt lat="43.89696" lon="1.8039">
        <ele>211</ele>
        <time>2018-06-14T20:11:51Z</time>
      </trkpt>
      <trkpt lat="43.89697" lon="1.80389">
        <ele>211</ele>
        <time>2018-06-14T20:11:52Z</time>
      </trkpt>
      <trkpt lat="43.89697" lon="1.80388">
        <ele>212</ele>
        <time>2018-06-14T20:11:53Z</time>
      </trkpt>
      <trkpt lat="43.89698" lon="1.80386">
        <ele>212</ele>
        <time>2018-06-14T20:11:54Z</time>
      </trkpt>
      <trkpt lat="43.897" lon="1.80385">
        <ele>212</ele>
        <time>2018-06-14T20:11:55Z</time>
      </trkpt>
      <trkpt lat="43.89701" lon="1.80385">
        <ele>212</ele>
        <time>2018-06-14T20:11:56Z</time>
      </trkpt>
      <trkpt lat="43.89702" lon="1.80384">
        <ele>212</ele>
        <time>2018-06-14T20:11:57Z</time>
      </trkpt>
      <trkpt lat="43.89703" lon="1.80383">
        <ele>212</ele>
        <time>2018-06-14T20:11:58Z</time>
      </trkpt>
      <trkpt lat="43.89705" lon="1.80382">
        <ele>212</ele>
        <time>2018-06-14T20:11:59Z</time>
      </trkpt>
      <trkpt lat="43.89706" lon="1.80381">
        <ele>212</ele>
        <time>2018-06-14T20:12:00Z</time>
      </trkpt>
      <trkpt lat="43.89707" lon="1.8038">
        <ele>213</ele>
        <time>2018-06-14T20:12:01Z</time>
      </trkpt>
      <trkpt lat="43.89708" lon="1.80379">
        <ele>213</ele>
        <time>2018-06-14T20:12:02Z</time>
      </trkpt>
      <trkpt lat="43.89709" lon="1.80378">
        <ele>213</ele>
        <time>2018-06-14T20:12:03Z</time>
      </trkpt>
      <trkpt lat="43.8971" lon="1.80376">
        <ele>213</ele>
        <time>2018-06-14T20:12:04Z</time>
      </trkpt>
      <trkpt lat="43.89711" lon="1.80375">
        <ele>213</ele>
        <time>2018-06-14T20:12:05Z</time>
      </trkpt>
      <trkpt lat="43.89712" lon="1.80374">
        <ele>213</ele>
        <time>2018-06-14T20:12:06Z</time>
      </trkpt>
      <trkpt lat="43.89712" lon="1.80372">
        <ele>213</ele>
        <time>2018-06-14T20:12:07Z</time>
      </trkpt>
      <trkpt lat="43.89714" lon="1.80371">
        <ele>213</ele>
        <time>2018-06-14T20:12:08Z</time>
      </trkpt>
      <trkpt lat="43.89715" lon="1.80371">
        <ele>214</ele>
        <time>2018-06-14T20:12:09Z</time>
      </trkpt>
      <trkpt lat="43.89716" lon="1.8037">
        <ele>214</ele>
        <time>2018-06-14T20:12:10Z</time>
      </trkpt>
      <trkpt lat="43.89717" lon="1.80368">
        <ele>214</ele>
        <time>2018-06-14T20:12:11Z</time>
      </trkpt>
      <trkpt lat="43.89718" lon="1.80367">
        <ele>214</ele>
        <time>2018-06-14T20:12:12Z</time>
      </trkpt>
      <trkpt lat="43.89718" lon="1.80366">
        <ele>214</ele>
        <time>2018-06-14T20:12:13Z</time>
      </trkpt>
      <trkpt lat="43.8972" lon="1.80364">
        <ele>214</ele>
        <time>2018-06-14T20:12:14Z</time>
      </trkpt>
      <trkpt lat="43.89721" lon="1.80363">
        <ele>214</ele>
        <time>2018-06-14T20:12:15Z</time>
      </trkpt>
      <trkpt lat="43.89721" lon="1.80361">
        <ele>215</ele>
        <time>2018-06-14T20:12:16Z</time>
      </trkpt>
      <trkpt lat="43.89722" lon="1.8036">
        <ele>215</ele>
        <time>2018-06-14T20:12:17Z</time>
      </trkpt>
      <trkpt lat="43.89723" lon="1.80359">
        <ele>215</ele>
        <time>2018-06-14T20:12:18Z</time>
      </trkpt>
      <trkpt lat="43.89724" lon="1.80359">
        <ele>215</ele>
        <time>2018-06-14T20:12:19Z</time>
      </trkpt>
      <trkpt lat="43.89726" lon="1.80358">
        <ele>215</ele>
        <time>2018-06-14T20:12:20Z</time>
      </trkpt>
      <trkpt lat="43.89726" lon="1.80357">
        <ele>215</ele>
        <time>2018-06-14T20:12:21Z</time>
      </trkpt>
      <trkpt lat="43.89727" lon="1.80356">
        <ele>215</ele>
        <time>2018-06-14T20:12:22Z</time>
      </trkpt>
      <trkpt lat="43.89728" lon="1.80355">
        <ele>215</ele>
        <time>2018-06-14T20:12:23Z</time>
      </trkpt>
      <trkpt lat="43.8973" lon="1.80355">
        <ele>216</ele>
        <time>2018-06-14T20:12:24Z</time>
      </trkpt>
      <trkpt lat="43.8973" lon="1.80354">
        <ele>216</ele>
        <time>2018-06-14T20:12:25Z</time>
      </trkpt>
      <trkpt lat="43.89731" lon="1.80353">
        <ele>216</ele>
        <time>2018-06-14T20:12:26Z</time>
      </trkpt>
      <trkpt lat="43.89732" lon="1.80352">
        <ele>216</ele>
        <time>2018-06-14T20:12:27Z</time>
      </trkpt>
      <trkpt lat="43.89734" lon="1.80351">
        <ele>216</ele>
        <time>2018-06-14T20:12:28Z</time>
      </trkpt>
      <trkpt lat="43.89735" lon="1.8035">
        <ele>216</ele>
        <time>2018-06-14T20:12:29Z</time>
      </trkpt>
      <trkpt lat="43.89736" lon="1.80349">
        <ele>216</ele>
        <time>2018-06-14T20:12:30Z</time>
      </trkpt>
      <trkpt lat="43.89738" lon="1.80348">
        <ele>216</ele>
        <time>2018-06-14T20:12:31Z</time>
      </trkpt>
      <trkpt lat="43.89739" lon="1.80347">
        <ele>216</ele>
        <time>2018-06-14T20:12:32Z</time>
      </trkpt>
      <trkpt lat="43.89741" lon="1.80346">
        <ele>217</ele>
        <time>2018-06-14T20:12:33Z</time>
      </trkpt>
      <trkpt lat="43.89742" lon="1.80345">
        <ele>217</ele>
        <time>2018-06-14T20:12:34Z</time>
      </trkpt>
      <trkpt lat="43.89744" lon="1.80344">
        <ele>217</ele>
        <time>2018-06-14T20:12:35Z</time>
      </trkpt>
      <trkpt lat="43.89745" lon="1.80342">
        <ele>218</ele>
        <time>2018-06-14T20:12:36Z</time>
      </trkpt>
      <trkpt lat="43.89747" lon="1.80341">
        <ele>218</ele>
        <time>2018-06-14T20:12:37Z</time>
      </trkpt>
      <trkpt lat="43.89748" lon="1.80341">
        <ele>218</ele>
        <time>2018-06-14T20:12:38Z</time>
      </trkpt>
      <trkpt lat="43.89749" lon="1.8034">
        <ele>218</ele>
        <time>2018-06-14T20:12:39Z</time>
      </trkpt>
      <trkpt lat="43.8975" lon="1.80339">
        <ele>219</ele>
        <time>2018-06-14T20:12:40Z</time>
      </trkpt>
      <trkpt lat="43.89751" lon="1.80339">
        <ele>219</ele>
        <time>2018-06-14T20:12:41Z</time>
      </trkpt>
      <trkpt lat="43.89752" lon="1.80338">
        <ele>219</ele>
        <time>2018-06-14T20:12:42Z</time>
      </trkpt>
      <trkpt lat="43.89754" lon="1.80338">
        <ele>219</ele>
        <time>2018-06-14T20:12:43Z</time>
      </trkpt>
      <trkpt lat="43.89755" lon="1.80338">
        <ele>219</ele>
        <time>2018-06-14T20:12:44Z</time>
      </trkpt>
      <trkpt lat="43.89756" lon="1.80338">
        <ele>219</ele>
        <time>2018-06-14T20:12:45Z</time>
      </trkpt>
      <trkpt lat="43.89757" lon="1.80337">
        <ele>219</ele>
        <time>2018-06-14T20:12:46Z</time>
      </trkpt>
      <trkpt lat="43.89759" lon="1.80337">
        <ele>220</ele>
        <time>2018-06-14T20:12:47Z</time>
      </trkpt>
      <trkpt lat="43.89759" lon="1.80337">
        <ele>220</ele>
        <time>2018-06-14T20:12:48Z</time>
      </trkpt>
      <trkpt lat="43.89761" lon="1.80337">
        <ele>220</ele>
        <time>2018-06-14T20:12:49Z</time>
      </trkpt>
      <trkpt lat="43.89762" lon="1.80336">
        <ele>220</ele>
        <time>2018-06-14T20:12:50Z</time>
      </trkpt>
      <trkpt lat="43.89763" lon="1.80336">
        <ele>220</ele>
        <time>2018-06-14T20:12:51Z</time>
      </trkpt>
      <trkpt lat="43.89764" lon="1.80335">
        <ele>220</ele>
        <time>2018-06-14T20:12:52Z</time>
      </trkpt>
      <trkpt lat="43.89765" lon="1.80335">
        <ele>220</ele>
        <time>2018-06-14T20:12:53Z</time>
      </trkpt>
      <trkpt lat="43.89767" lon="1.80334">
        <ele>221</ele>
        <time>2018-06-14T20:12:54Z</time>
      </trkpt>
      <trkpt lat="43.89768" lon="1.80334">
        <ele>221</ele>
        <time>2018-06-14T20:12:55Z</time>
      </trkpt>
      <trkpt lat="43.89769" lon="1.80334">
        <ele>221</ele>
        <time>2018-06-14T20:12:56Z</time>
      </trkpt>
      <trkpt lat="43.89771" lon="1.80333">
        <ele>221</ele>
        <time>2018-06-14T20:12:57Z</time>
      </trkpt>
      <trkpt lat="43.89772" lon="1.80333">
        <ele>221</ele>
        <time>2018-06-14T20:12:58Z</time>
      </trkpt>
      <trkpt lat="43.89773" lon="1.80334">
        <ele>222</ele>
        <time>2018-06-14T20:12:59Z</time>
      </trkpt>
      <trkpt lat="43.89774" lon="1.80333">
        <ele>222</ele>
        <time>2018-06-14T20:13:00Z</time>
      </trkpt>
      <trkpt lat="43.89775" lon="1.80334">
        <ele>222</ele>
        <time>2018-06-14T20:13:01Z</time>
      </trkpt>
      <trkpt lat="43.89776" lon="1.80334">
        <ele>222</ele>
        <time>2018-06-14T20:13:02Z</time>
      </trkpt>
      <trkpt lat="43.89777" lon="1.80334">
        <ele>222</ele>
        <time>2018-06-14T20:13:03Z</time>
      </trkpt>
      <trkpt lat="43.89779" lon="1.80334">
        <ele>223</ele>
        <time>2018-06-14T20:13:04Z</time>
      </trkpt>
      <trkpt lat="43.8978" lon="1.80334">
        <ele>223</ele>
        <time>2018-06-14T20:13:05Z</time>
      </trkpt>
      <trkpt lat="43.89782" lon="1.80334">
        <ele>223</ele>
        <time>2018-06-14T20:13:06Z</time>
      </trkpt>
      <trkpt lat="43.89783" lon="1.80334">
        <ele>223</ele>
        <time>2018-06-14T20:13:07Z</time>
      </trkpt>
      <trkpt lat="43.89785" lon="1.80334">
        <ele>223</ele>
        <time>2018-06-14T20:13:08Z</time>
      </trkpt>
      <trkpt lat="43.89787" lon="1.80333">
        <ele>223</ele>
        <time>2018-06-14T20:13:09Z</time>
      </trkpt>
      <trkpt lat="43.89788" lon="1.80333">
        <ele>223</ele>
        <time>2018-06-14T20:13:10Z</time>
      </trkpt>
      <trkpt lat="43.8979" lon="1.80334">
        <ele>224</ele>
        <time>2018-06-14T20:13:11Z</time>
      </trkpt>
      <trkpt lat="43.89791" lon="1.80334">
        <ele>224</ele>
        <time>2018-06-14T20:13:12Z</time>
      </trkpt>
      <trkpt lat="43.89793" lon="1.80335">
        <ele>224</ele>
        <time>2018-06-14T20:13:13Z</time>
      </trkpt>
      <trkpt lat="43.89794" lon="1.80336">
        <ele>225</ele>
        <time>2018-06-14T20:13:14Z</time>
      </trkpt>
      <trkpt lat="43.89795" lon="1.80336">
        <ele>225</ele>
        <time>2018-06-14T20:13:15Z</time>
      </trkpt>
      <trkpt lat="43.89797" lon="1.80337">
        <ele>225</ele>
        <time>2018-06-14T20:13:16Z</time>
      </trkpt>
      <trkpt lat="43.89799" lon="1.80338">
        <ele>225</ele>
        <time>2018-06-14T20:13:17Z</time>
      </trkpt>
      <trkpt lat="43.898" lon="1.80338">
        <ele>225</ele>
        <time>2018-06-14T20:13:18Z</time>
      </trkpt>
      <trkpt lat="43.89802" lon="1.80339">
        <ele>225</ele>
        <time>2018-06-14T20:13:19Z</time>
      </trkpt>
      <trkpt lat="43.89804" lon="1.8034">
        <ele>226</ele>
        <time>2018-06-14T20:13:20Z</time>
      </trkpt>
      <trkpt lat="43.89805" lon="1.8034">
        <ele>226</ele>
        <time>2018-06-14T20:13:21Z</time>
      </trkpt>
      <trkpt lat="43.89807" lon="1.80341">
        <ele>226</ele>
        <time>2018-06-14T20:13:22Z</time>
      </trkpt>
      <trkpt lat="43.89808" lon="1.80341">
        <ele>227</ele>
        <time>2018-06-14T20:13:23Z</time>
      </trkpt>
      <trkpt lat="43.8981" lon="1.80341">
        <ele>227</ele>
        <time>2018-06-14T20:13:24Z</time>
      </trkpt>
      <trkpt lat="43.89812" lon="1.80341">
        <ele>227</ele>
        <time>2018-06-14T20:13:25Z</time>
      </trkpt>
      <trkpt lat="43.89813" lon="1.80342">
        <ele>228</ele>
        <time>2018-06-14T20:13:26Z</time>
      </trkpt>
      <trkpt lat="43.89815" lon="1.80342">
        <ele>228</ele>
        <time>2018-06-14T20:13:27Z</time>
      </trkpt>
      <trkpt lat="43.89816" lon="1.80342">
        <ele>228</ele>
        <time>2018-06-14T20:13:28Z</time>
      </trkpt>
      <trkpt lat="43.89818" lon="1.80343">
        <ele>229</ele>
        <time>2018-06-14T20:13:29Z</time>
      </trkpt>
      <trkpt lat="43.89819" lon="1.80344">
        <ele>229</ele>
        <time>2018-06-14T20:13:30Z</time>
      </trkpt>
      <trkpt lat="43.89821" lon="1.80344">
        <ele>229</ele>
        <time>2018-06-14T20:13:31Z</time>
      </trkpt>
      <trkpt lat="43.89822" lon="1.80345">
        <ele>229</ele>
        <time>2018-06-14T20:13:32Z</time>
      </trkpt>
      <trkpt lat="43.89824" lon="1.80346">
        <ele>230</ele>
        <time>2018-06-14T20:13:33Z</time>
      </trkpt>
      <trkpt lat="43.89825" lon="1.80346">
        <ele>230</ele>
        <time>2018-06-14T20:13:34Z</time>
      </trkpt>
      <trkpt lat="43.89827" lon="1.80347">
        <ele>230</ele>
        <time>2018-06-14T20:13:35Z</time>
      </trkpt>
      <trkpt lat="43.89828" lon="1.80347">
        <ele>230</ele>
        <time>2018-06-14T20:13:36Z</time>
      </trkpt>
      <trkpt lat="43.89829" lon="1.80349">
        <ele>230</ele>
        <time>2018-06-14T20:13:37Z</time>
      </trkpt>
      <trkpt lat="43.89831" lon="1.80349">
        <ele>230</ele>
        <time>2018-06-14T20:13:38Z</time>
      </trkpt>
      <trkpt lat="43.89832" lon="1.8035">
        <ele>231</ele>
        <time>2018-06-14T20:13:39Z</time>
      </trkpt>
      <trkpt lat="43.89833" lon="1.80351">
        <ele>231</ele>
        <time>2018-06-14T20:13:40Z</time>
      </trkpt>
      <trkpt lat="43.89835" lon="1.80352">
        <ele>231</ele>
        <time>2018-06-14T20:13:41Z</time>
      </trkpt>
      <trkpt lat="43.89836" lon="1.80352">
        <ele>231</ele>
        <time>2018-06-14T20:13:42Z</time>
      </trkpt>
      <trkpt lat="43.89838" lon="1.80353">
        <ele>231</ele>
        <time>2018-06-14T20:13:43Z</time>
      </trkpt>
      <trkpt lat="43.8984" lon="1.80353">
        <ele>231</ele>
        <time>2018-06-14T20:13:44Z</time>
      </trkpt>
      <trkpt lat="43.89841" lon="1.80354">
        <ele>231</ele>
        <time>2018-06-14T20:13:45Z</time>
      </trkpt>
      <trkpt lat="43.89843" lon="1.80355">
        <ele>232</ele>
        <time>2018-06-14T20:13:46Z</time>
      </trkpt>
      <trkpt lat="43.89844" lon="1.80355">
        <ele>232</ele>
        <time>2018-06-14T20:13:47Z</time>
      </trkpt>
      <trkpt lat="43.89846" lon="1.80355">
        <ele>232</ele>
        <time>2018-06-14T20:13:48Z</time>
      </trkpt>
      <trkpt lat="43.89848" lon="1.80356">
        <ele>232</ele>
        <time>2018-06-14T20:13:49Z</time>
      </trkpt>
      <trkpt lat="43.8985" lon="1.80356">
        <ele>232</ele>
        <time>2018-06-14T20:13:50Z</time>
      </trkpt>
      <trkpt lat="43.89851" lon="1.80357">
        <ele>232</ele>
        <time>2018-06-14T20:13:51Z</time>
      </trkpt>
      <trkpt lat="43.89853" lon="1.80357">
        <ele>232</ele>
        <time>2018-06-14T20:13:52Z</time>
      </trkpt>
      <trkpt lat="43.89855" lon="1.80358">
        <ele>233</ele>
        <time>2018-06-14T20:13:53Z</time>
      </trkpt>
      <trkpt lat="43.89857" lon="1.80358">
        <ele>233</ele>
        <time>2018-06-14T20:13:54Z</time>
      </trkpt>
      <trkpt lat="43.89859" lon="1.80358">
        <ele>233</ele>
        <time>2018-06-14T20:13:55Z</time>
      </trkpt>
      <trkpt lat="43.89861" lon="1.80358">
        <ele>233</ele>
        <time>2018-06-14T20:13:56Z</time>
      </trkpt>
      <trkpt lat="43.89863" lon="1.80358">
        <ele>233</ele>
        <time>2018-06-14T20:13:57Z</time>
      </trkpt>
      <trkpt lat="43.89864" lon="1.80357">
        <ele>233</ele>
        <time>2018-06-14T20:13:58Z</time>
      </trkpt>
      <trkpt lat="43.89866" lon="1.80356">
        <ele>234</ele>
        <time>2018-06-14T20:13:59Z</time>
      </trkpt>
      <trkpt lat="43.89868" lon="1.80355">
        <ele>234</ele>
        <time>2018-06-14T20:14:00Z</time>
      </trkpt>
      <trkpt lat="43.89869" lon="1.80354">
        <ele>234</ele>
        <time>2018-06-14T20:14:01Z</time>
      </trkpt>
      <trkpt lat="43.89871" lon="1.80353">
        <ele>235</ele>
        <time>2018-06-14T20:14:02Z</time>
      </trkpt>
      <trkpt lat="43.89873" lon="1.80352">
        <ele>235</ele>
        <time>2018-06-14T20:14:03Z</time>
      </trkpt>
      <trkpt lat="43.89875" lon="1.80351">
        <ele>235</ele>
        <time>2018-06-14T20:14:04Z</time>
      </trkpt>
      <trkpt lat="43.89876" lon="1.8035">
        <ele>235</ele>
        <time>2018-06-14T20:14:05Z</time>
      </trkpt>
      <trkpt lat="43.89878" lon="1.80348">
        <ele>236</ele>
        <time>2018-06-14T20:14:06Z</time>
      </trkpt>
      <trkpt lat="43.89879" lon="1.80347">
        <ele>236</ele>
        <time>2018-06-14T20:14:07Z</time>
      </trkpt>
      <trkpt lat="43.89881" lon="1.80345">
        <ele>237</ele>
        <time>2018-06-14T20:14:08Z</time>
      </trkpt>
      <trkpt lat="43.89881" lon="1.80344">
        <ele>237</ele>
        <time>2018-06-14T20:14:09Z</time>
      </trkpt>
      <trkpt lat="43.89882" lon="1.80342">
        <ele>237</ele>
        <time>2018-06-14T20:14:10Z</time>
      </trkpt>
      <trkpt lat="43.89882" lon="1.80341">
        <ele>237</ele>
        <time>2018-06-14T20:14:11Z</time>
      </trkpt>
      <trkpt lat="43.89883" lon="1.80339">
        <ele>238</ele>
        <time>2018-06-14T20:14:12Z</time>
      </trkpt>
      <trkpt lat="43.89883" lon="1.80337">
        <ele>238</ele>
        <time>2018-06-14T20:14:13Z</time>
      </trkpt>
      <trkpt lat="43.89883" lon="1.80335">
        <ele>238</ele>
        <time>2018-06-14T20:14:14Z</time>
      </trkpt>
      <trkpt lat="43.89883" lon="1.80334">
        <ele>238</ele>
        <time>2018-06-14T20:14:15Z</time>
      </trkpt>
      <trkpt lat="43.89883" lon="1.80333">
        <ele>238</ele>
        <time>2018-06-14T20:14:16Z</time>
      </trkpt>
      <trkpt lat="43.89884" lon="1.80331">
        <ele>238</ele>
        <time>2018-06-14T20:14:17Z</time>
      </trkpt>
      <trkpt lat="43.89884" lon="1.80329">
        <ele>238</ele>
        <time>2018-06-14T20:14:18Z</time>
      </trkpt>
      <trkpt lat="43.89884" lon="1.80327">
        <ele>239</ele>
        <time>2018-06-14T20:14:19Z</time>
      </trkpt>
      <trkpt lat="43.89885" lon="1.80327">
        <ele>239</ele>
        <time>2018-06-14T20:14:20Z</time>
      </trkpt>
      <trkpt lat="43.89886" lon="1.80326">
        <ele>239</ele>
        <time>2018-06-14T20:14:21Z</time>
      </trkpt>
      <trkpt lat="43.89887" lon="1.80328">
        <ele>239</ele>
        <time>2018-06-14T20:14:22Z</time>
      </trkpt>
      <trkpt lat="43.89888" lon="1.80329">
        <ele>239</ele>
        <time>2018-06-14T20:14:23Z</time>
      </trkpt>
      <trkpt lat="43.89887" lon="1.80331">
        <ele>239</ele>
        <time>2018-06-14T20:14:24Z</time>
      </trkpt>
      <trkpt lat="43.89887" lon="1.80332">
        <ele>239</ele>
        <time>2018-06-14T20:14:25Z</time>
      </trkpt>
      <trkpt lat="43.89887" lon="1.80334">
        <ele>239</ele>
        <time>2018-06-14T20:14:26Z</time>
      </trkpt>
      <trkpt lat="43.89887" lon="1.80335">
        <ele>239</ele>
        <time>2018-06-14T20:14:27Z</time>
      </trkpt>
      <trkpt lat="43.89887" lon="1.80336">
        <ele>239</ele>
        <time>2018-06-14T20:14:28Z</time>
      </trkpt>
      <trkpt lat="43.89887" lon="1.80338">
        <ele>239</ele>
        <time>2018-06-14T20:14:29Z</time>
      </trkpt>
      <trkpt lat="43.89888" lon="1.80339">
        <ele>239</ele>
        <time>2018-06-14T20:14:30Z</time>
      </trkpt>
      <trkpt lat="43.89888" lon="1.80341">
        <ele>239</ele>
        <time>2018-06-14T20:14:31Z</time>
      </trkpt>
      <trkpt lat="43.89889" lon="1.80342">
        <ele>239</ele>
        <time>2018-06-14T20:14:32Z</time>
      </trkpt>
      <trkpt lat="43.89889" lon="1.80343">
        <ele>239</ele>
        <time>2018-06-14T20:14:33Z</time>
      </trkpt>
      <trkpt lat="43.89889" lon="1.80345">
        <ele>239</ele>
        <time>2018-06-14T20:14:34Z</time>
      </trkpt>
      <trkpt lat="43.8989" lon="1.80346">
        <ele>240</ele>
        <time>2018-06-14T20:14:35Z</time>
      </trkpt>
      <trkpt lat="43.8989" lon="1.80347">
        <ele>240</ele>
        <time>2018-06-14T20:14:36Z</time>
      </trkpt>
      <trkpt lat="43.89891" lon="1.80349">
        <ele>240</ele>
        <time>2018-06-14T20:14:37Z</time>
      </trkpt>
      <trkpt lat="43.89891" lon="1.8035">
        <ele>240</ele>
        <time>2018-06-14T20:14:38Z</time>
      </trkpt>
      <trkpt lat="43.89891" lon="1.80352">
        <ele>240</ele>
        <time>2018-06-14T20:14:39Z</time>
      </trkpt>
      <trkpt lat="43.89892" lon="1.80353">
        <ele>240</ele>
        <time>2018-06-14T20:14:40Z</time>
      </trkpt>
      <trkpt lat="43.89893" lon="1.80354">
        <ele>240</ele>
        <time>2018-06-14T20:14:41Z</time>
      </trkpt>
      <trkpt lat="43.89893" lon="1.80355">
        <ele>240</ele>
        <time>2018-06-14T20:14:42Z</time>
      </trkpt>
      <trkpt lat="43.89894" lon="1.80357">
        <ele>240</ele>
        <time>2018-06-14T20:14:43Z</time>
      </trkpt>
      <trkpt lat="43.89895" lon="1.80358">
        <ele>240</ele>
        <time>2018-06-14T20:14:44Z</time>
      </trkpt>
      <trkpt lat="43.89895" lon="1.80359">
        <ele>240</ele>
        <time>2018-06-14T20:14:45Z</time>
      </trkpt>
      <trkpt lat="43.89896" lon="1.8036">
        <ele>240</ele>
        <time>2018-06-14T20:14:46Z</time>
      </trkpt>
      <trkpt lat="43.89897" lon="1.80362">
        <ele>240</ele>
        <time>2018-06-14T20:14:47Z</time>
      </trkpt>
      <trkpt lat="43.89898" lon="1.80363">
        <ele>240</ele>
        <time>2018-06-14T20:14:48Z</time>
      </trkpt>
      <trkpt lat="43.89898" lon="1.80364">
        <ele>240</ele>
        <time>2018-06-14T20:14:49Z</time>
      </trkpt>
      <trkpt lat="43.89899" lon="1.80365">
        <ele>240</ele>
        <time>2018-06-14T20:14:50Z</time>
      </trkpt>
      <trkpt lat="43.899" lon="1.80366">
        <ele>240</ele>
        <time>2018-06-14T20:14:51Z</time>
      </trkpt>
      <trkpt lat="43.89901" lon="1.80367">
        <ele>240</ele>
        <time>2018-06-14T20:14:52Z</time>
      </trkpt>
      <trkpt lat="43.89902" lon="1.80368">
        <ele>240</ele>
        <time>2018-06-14T20:14:53Z</time>
      </trkpt>
      <trkpt lat="43.89903" lon="1.8037">
        <ele>240</ele>
        <time>2018-06-14T20:14:54Z</time>
      </trkpt>
      <trkpt lat="43.89904" lon="1.80371">
        <ele>240</ele>
        <time>2018-06-14T20:14:55Z</time>
      </trkpt>
      <trkpt lat="43.89905" lon="1.80372">
        <ele>240</ele>
        <time>2018-06-14T20:14:56Z</time>
      </trkpt>
      <trkpt lat="43.89905" lon="1.80373">
        <ele>240</ele>
        <time>2018-06-14T20:14:57Z</time>
      </trkpt>
      <trkpt lat="43.89906" lon="1.80375">
        <ele>240</ele>
        <time>2018-06-14T20:14:58Z</time>
      </trkpt>
      <trkpt lat="43.89907" lon="1.80376">
        <ele>240</ele>
        <time>2018-06-14T20:14:59Z</time>
      </trkpt>
      <trkpt lat="43.89909" lon="1.80377">
        <ele>240</ele>
        <time>2018-06-14T20:15:00Z</time>
      </trkpt>
      <trkpt lat="43.8991" lon="1.80378">
        <ele>240</ele>
        <time>2018-06-14T20:15:01Z</time>
      </trkpt>
      <trkpt lat="43.89911" lon="1.80379">
        <ele>240</ele>
        <time>2018-06-14T20:15:02Z</time>
      </trkpt>
      <trkpt lat="43.89912" lon="1.80381">
        <ele>241</ele>
        <time>2018-06-14T20:15:03Z</time>
      </trkpt>
      <trkpt lat="43.89913" lon="1.80383">
        <ele>241</ele>
        <time>2018-06-14T20:15:04Z</time>
      </trkpt>
      <trkpt lat="43.89913" lon="1.80384">
        <ele>240</ele>
        <time>2018-06-14T20:15:05Z</time>
      </trkpt>
      <trkpt lat="43.89914" lon="1.80386">
        <ele>240</ele>
        <time>2018-06-14T20:15:06Z</time>
      </trkpt>
      <trkpt lat="43.89915" lon="1.80387">
        <ele>240</ele>
        <time>2018-06-14T20:15:07Z</time>
      </trkpt>
      <trkpt lat="43.89916" lon="1.80388">
        <ele>241</ele>
        <time>2018-06-14T20:15:08Z</time>
      </trkpt>
      <trkpt lat="43.89917" lon="1.80389">
        <ele>241</ele>
        <time>2018-06-14T20:15:09Z</time>
      </trkpt>
      <trkpt lat="43.89918" lon="1.80391">
        <ele>241</ele>
        <time>2018-06-14T20:15:10Z</time>
      </trkpt>
      <trkpt lat="43.89919" lon="1.80392">
        <ele>241</ele>
        <time>2018-06-14T20:15:11Z</time>
      </trkpt>
      <trkpt lat="43.8992" lon="1.80394">
        <ele>241</ele>
        <time>2018-06-14T20:15:12Z</time>
      </trkpt>
      <trkpt lat="43.89921" lon="1.80395">
        <ele>241</ele>
        <time>2018-06-14T20:15:13Z</time>
      </trkpt>
      <trkpt lat="43.89922" lon="1.80396">
        <ele>241</ele>
        <time>2018-06-14T20:15:14Z</time>
      </trkpt>
      <trkpt lat="43.89922" lon="1.80398">
        <ele>241</ele>
        <time>2018-06-14T20:15:15Z</time>
      </trkpt>
      <trkpt lat="43.89923" lon="1.804">
        <ele>241</ele>
        <time>2018-06-14T20:15:16Z</time>
      </trkpt>
      <trkpt lat="43.89924" lon="1.80402">
        <ele>241</ele>
        <time>2018-06-14T20:15:17Z</time>
      </trkpt>
      <trkpt lat="43.89925" lon="1.80404">
        <ele>241</ele>
        <time>2018-06-14T20:15:18Z</time>
      </trkpt>
      <trkpt lat="43.89925" lon="1.80407">
        <ele>240</ele>
        <time>2018-06-14T20:15:19Z</time>
      </trkpt>
      <trkpt lat="43.89926" lon="1.8041">
        <ele>240</ele>
        <time>2018-06-14T20:15:20Z</time>
      </trkpt>
      <trkpt lat="43.89927" lon="1.80413">
        <ele>240</ele>
        <time>2018-06-14T20:15:21Z</time>
      </trkpt>
      <trkpt lat="43.89927" lon="1.80416">
        <ele>240</ele>
        <time>2018-06-14T20:15:22Z</time>
      </trkpt>
      <trkpt lat="43.89927" lon="1.80419">
        <ele>240</ele>
        <time>2018-06-14T20:15:23Z</time>
      </trkpt>
      <trkpt lat="43.89928" lon="1.80421">
        <ele>240</ele>
        <time>2018-06-14T20:15:24Z</time>
      </trkpt>
      <trkpt lat="43.89929" lon="1.80422">
        <ele>240</ele>
        <time>2018-06-14T20:15:25Z</time>
      </trkpt>
      <trkpt lat="43.8993" lon="1.80423">
        <ele>240</ele>
        <time>2018-06-14T20:15:26Z</time>
      </trkpt>
      <trkpt lat="43.89931" lon="1.80426">
        <ele>240</ele>
        <time>2018-06-14T20:15:27Z</time>
      </trkpt>
      <trkpt lat="43.89931" lon="1.80428">
        <ele>240</ele>
        <time>2018-06-14T20:15:28Z</time>
      </trkpt>
      <trkpt lat="43.89931" lon="1.80431">
        <ele>240</ele>
        <time>2018-06-14T20:15:29Z</time>
      </trkpt>
      <trkpt lat="43.89932" lon="1.80433">
        <ele>240</ele>
        <time>2018-06-14T20:15:30Z</time>
      </trkpt>
      <trkpt lat="43.89932" lon="1.80435">
        <ele>240</ele>
        <time>2018-06-14T20:15:31Z</time>
      </trkpt>
      <trkpt lat="43.89932" lon="1.80437">
        <ele>240</ele>
        <time>2018-06-14T20:15:32Z</time>
      </trkpt>
      <trkpt lat="43.89933" lon="1.80438">
        <ele>239</ele>
        <time>2018-06-14T20:15:33Z</time>
      </trkpt>
      <trkpt lat="43.89935" lon="1.80437">
        <ele>240</ele>
        <time>2018-06-14T20:15:34Z</time>
      </trkpt>
      <trkpt lat="43.89936" lon="1.80435">
        <ele>240</ele>
        <time>2018-06-14T20:15:35Z</time>
      </trkpt>
      <trkpt lat="43.89936" lon="1.80433">
        <ele>240</ele>
        <time>2018-06-14T20:15:36Z</time>
      </trkpt>
      <trkpt lat="43.89935" lon="1.80431">
        <ele>240</ele>
        <time>2018-06-14T20:15:37Z</time>
      </trkpt>
      <trkpt lat="43.89934" lon="1.80428">
        <ele>240</ele>
        <time>2018-06-14T20:15:38Z</time>
      </trkpt>
      <trkpt lat="43.89933" lon="1.80427">
        <ele>240</ele>
        <time>2018-06-14T20:15:39Z</time>
      </trkpt>
      <trkpt lat="43.89932" lon="1.80424">
        <ele>240</ele>
        <time>2018-06-14T20:15:40Z</time>
      </trkpt>
      <trkpt lat="43.8993" lon="1.80422">
        <ele>240</ele>
        <time>2018-06-14T20:15:41Z</time>
      </trkpt>
      <trkpt lat="43.89929" lon="1.80419">
        <ele>240</ele>
        <time>2018-06-14T20:15:42Z</time>
      </trkpt>
      <trkpt lat="43.89927" lon="1.80417">
        <ele>240</ele>
        <time>2018-06-14T20:15:43Z</time>
      </trkpt>
      <trkpt lat="43.89927" lon="1.80414">
        <ele>240</ele>
        <time>2018-06-14T20:15:44Z</time>
      </trkpt>
      <trkpt lat="43.89927" lon="1.80412">
        <ele>240</ele>
        <time>2018-06-14T20:15:45Z</time>
      </trkpt>
      <trkpt lat="43.89926" lon="1.8041">
        <ele>240</ele>
        <time>2018-06-14T20:15:46Z</time>
      </trkpt>
      <trkpt lat="43.89926" lon="1.80408">
        <ele>240</ele>
        <time>2018-06-14T20:15:47Z</time>
      </trkpt>
      <trkpt lat="43.89925" lon="1.80406">
        <ele>240</ele>
        <time>2018-06-14T20:15:48Z</time>
      </trkpt>
      <trkpt lat="43.89925" lon="1.80404">
        <ele>240</ele>
        <time>2018-06-14T20:15:49Z</time>
      </trkpt>
      <trkpt lat="43.89925" lon="1.80403">
        <ele>240</ele>
        <time>2018-06-14T20:15:50Z</time>
      </trkpt>
      <trkpt lat="43.89925" lon="1.80401">
        <ele>241</ele>
        <time>2018-06-14T20:15:51Z</time>
      </trkpt>
      <trkpt lat="43.89925" lon="1.804">
        <ele>241</ele>
        <time>2018-06-14T20:15:52Z</time>
      </trkpt>
      <trkpt lat="43.89925" lon="1.80398">
        <ele>241</ele>
        <time>2018-06-14T20:15:53Z</time>
      </trkpt>
      <trkpt lat="43.89924" lon="1.80397">
        <ele>241</ele>
        <time>2018-06-14T20:15:54Z</time>
      </trkpt>
      <trkpt lat="43.89923" lon="1.80395">
        <ele>241</ele>
        <time>2018-06-14T20:15:55Z</time>
      </trkpt>
      <trkpt lat="43.89922" lon="1.80393">
        <ele>241</ele>
        <time>2018-06-14T20:15:56Z</time>
      </trkpt>
      <trkpt lat="43.8992" lon="1.80392">
        <ele>241</ele>
        <time>2018-06-14T20:15:57Z</time>
      </trkpt>
      <trkpt lat="43.89919" lon="1.80391">
        <ele>241</ele>
        <time>2018-06-14T20:15:58Z</time>
      </trkpt>
      <trkpt lat="43.89918" lon="1.80389">
        <ele>241</ele>
        <time>2018-06-14T20:15:59Z</time>
      </trkpt>
      <trkpt lat="43.89917" lon="1.80386">
        <ele>240</ele>
        <time>2018-06-14T20:16:00Z</time>
      </trkpt>
      <trkpt lat="43.89916" lon="1.80385">
        <ele>240</ele>
        <time>2018-06-14T20:16:01Z</time>
      </trkpt>
      <trkpt lat="43.89915" lon="1.80383">
        <ele>240</ele>
        <time>2018-06-14T20:16:02Z</time>
      </trkpt>
      <trkpt lat="43.89914" lon="1.80381">
        <ele>240</ele>
        <time>2018-06-14T20:16:03Z</time>
      </trkpt>
      <trkpt lat="43.89913" lon="1.8038">
        <ele>240</ele>
        <time>2018-06-14T20:16:04Z</time>
      </trkpt>
      <trkpt lat="43.89912" lon="1.80378">
        <ele>241</ele>
        <time>2018-06-14T20:16:05Z</time>
      </trkpt>
      <trkpt lat="43.89911" lon="1.80377">
        <ele>240</ele>
        <time>2018-06-14T20:16:06Z</time>
      </trkpt>
      <trkpt lat="43.89909" lon="1.80375">
        <ele>240</ele>
        <time>2018-06-14T20:16:07Z</time>
      </trkpt>
      <trkpt lat="43.89908" lon="1.80373">
        <ele>240</ele>
        <time>2018-06-14T20:16:08Z</time>
      </trkpt>
      <trkpt lat="43.89906" lon="1.80371">
        <ele>240</ele>
        <time>2018-06-14T20:16:09Z</time>
      </trkpt>
      <trkpt lat="43.89905" lon="1.80369">
        <ele>240</ele>
        <time>2018-06-14T20:16:10Z</time>
      </trkpt>
      <trkpt lat="43.89903" lon="1.80367">
        <ele>240</ele>
        <time>2018-06-14T20:16:11Z</time>
      </trkpt>
      <trkpt lat="43.89902" lon="1.80366">
        <ele>240</ele>
        <time>2018-06-14T20:16:12Z</time>
      </trkpt>
      <trkpt lat="43.89901" lon="1.80363">
        <ele>240</ele>
        <time>2018-06-14T20:16:13Z</time>
      </trkpt>
      <trkpt lat="43.899" lon="1.80361">
        <ele>240</ele>
        <time>2018-06-14T20:16:14Z</time>
      </trkpt>
      <trkpt lat="43.89899" lon="1.80359">
        <ele>240</ele>
        <time>2018-06-14T20:16:15Z</time>
      </trkpt>
      <trkpt lat="43.89897" lon="1.80357">
        <ele>240</ele>
        <time>2018-06-14T20:16:16Z</time>
      </trkpt>
      <trkpt lat="43.89896" lon="1.80355">
        <ele>240</ele>
        <time>2018-06-14T20:16:17Z</time>
      </trkpt>
      <trkpt lat="43.89894" lon="1.80352">
        <ele>240</ele>
        <time>2018-06-14T20:16:18Z</time>
      </trkpt>
      <trkpt lat="43.89893" lon="1.8035">
        <ele>240</ele>
        <time>2018-06-14T20:16:19Z</time>
      </trkpt>
      <trkpt lat="43.89892" lon="1.80347">
        <ele>240</ele>
        <time>2018-06-14T20:16:20Z</time>
      </trkpt>
      <trkpt lat="43.89891" lon="1.80344">
        <ele>240</ele>
        <time>2018-06-14T20:16:21Z</time>
      </trkpt>
      <trkpt lat="43.89891" lon="1.80341">
        <ele>240</ele>
        <time>2018-06-14T20:16:22Z</time>
      </trkpt>
      <trkpt lat="43.8989" lon="1.80338">
        <ele>240</ele>
        <time>2018-06-14T20:16:23Z</time>
      </trkpt>
      <trkpt lat="43.8989" lon="1.80335">
        <ele>239</ele>
        <time>2018-06-14T20:16:24Z</time>
      </trkpt>
      <trkpt lat="43.89889" lon="1.80331">
        <ele>239</ele>
        <time>2018-06-14T20:16:25Z</time>
      </trkpt>
      <trkpt lat="43.89888" lon="1.80329">
        <ele>239</ele>
        <time>2018-06-14T20:16:26Z</time>
      </trkpt>
      <trkpt lat="43.89888" lon="1.80326">
        <ele>239</ele>
        <time>2018-06-14T20:16:27Z</time>
      </trkpt>
      <trkpt lat="43.89888" lon="1.80323">
        <ele>239</ele>
        <time>2018-06-14T20:16:28Z</time>
      </trkpt>
      <trkpt lat="43.89888" lon="1.80321">
        <ele>239</ele>
        <time>2018-06-14T20:16:29Z</time>
      </trkpt>
      <trkpt lat="43.89888" lon="1.80319">
        <ele>239</ele>
        <time>2018-06-14T20:16:30Z</time>
      </trkpt>
      <trkpt lat="43.89888" lon="1.80318">
        <ele>238</ele>
        <time>2018-06-14T20:16:31Z</time>
      </trkpt>
      <trkpt lat="43.89887" lon="1.80316">
        <ele>238</ele>
        <time>2018-06-14T20:16:32Z</time>
      </trkpt>
      <trkpt lat="43.89885" lon="1.80316">
        <ele>238</ele>
        <time>2018-06-14T20:16:33Z</time>
      </trkpt>
      <trkpt lat="43.89884" lon="1.80318">
        <ele>238</ele>
        <time>2018-06-14T20:16:34Z</time>
      </trkpt>
      <trkpt lat="43.89884" lon="1.8032">
        <ele>238</ele>
        <time>2018-06-14T20:16:35Z</time>
      </trkpt>
      <trkpt lat="43.89884" lon="1.80322">
        <ele>238</ele>
        <time>2018-06-14T20:16:36Z</time>
      </trkpt>
      <trkpt lat="43.89885" lon="1.80323">
        <ele>238</ele>
        <time>2018-06-14T20:16:37Z</time>
      </trkpt>
      <trkpt lat="43.89886" lon="1.80322">
        <ele>238</ele>
        <time>2018-06-14T20:16:38Z</time>
      </trkpt>
      <trkpt lat="43.89887" lon="1.80324">
        <ele>238</ele>
        <time>2018-06-14T20:16:39Z</time>
      </trkpt>
      <trkpt lat="43.89887" lon="1.80326">
        <ele>238</ele>
        <time>2018-06-14T20:16:40Z</time>
      </trkpt>
      <trkpt lat="43.89887" lon="1.80327">
        <ele>238</ele>
        <time>2018-06-14T20:16:41Z</time>
      </trkpt>
      <trkpt lat="43.89887" lon="1.80329">
        <ele>239</ele>
        <time>2018-06-14T20:16:42Z</time>
      </trkpt>
      <trkpt lat="43.89888" lon="1.8033">
        <ele>239</ele>
        <time>2018-06-14T20:16:43Z</time>
      </trkpt>
      <trkpt lat="43.89888" lon="1.80331">
        <ele>239</ele>
        <time>2018-06-14T20:16:44Z</time>
      </trkpt>
      <trkpt lat="43.89888" lon="1.80332">
        <ele>239</ele>
        <time>2018-06-14T20:16:45Z</time>
      </trkpt>
      <trkpt lat="43.89888" lon="1.80334">
        <ele>239</ele>
        <time>2018-06-14T20:16:46Z</time>
      </trkpt>
      <trkpt lat="43.89888" lon="1.80335">
        <ele>239</ele>
        <time>2018-06-14T20:16:47Z</time>
      </trkpt>
      <trkpt lat="43.89889" lon="1.80336">
        <ele>239</ele>
        <time>2018-06-14T20:16:48Z</time>
      </trkpt>
      <trkpt lat="43.89889" lon="1.80337">
        <ele>239</ele>
        <time>2018-06-14T20:16:49Z</time>
      </trkpt>
      <trkpt lat="43.89889" lon="1.80339">
        <ele>239</ele>
        <time>2018-06-14T20:16:50Z</time>
      </trkpt>
      <trkpt lat="43.89889" lon="1.80341">
        <ele>239</ele>
        <time>2018-06-14T20:16:51Z</time>
      </trkpt>
      <trkpt lat="43.89889" lon="1.80342">
        <ele>239</ele>
        <time>2018-06-14T20:16:52Z</time>
      </trkpt>
      <trkpt lat="43.89889" lon="1.8034">
        <ele>239</ele>
        <time>2018-06-14T20:16:53Z</time>
      </trkpt>
      <trkpt lat="43.89889" lon="1.80342">
        <ele>239</ele>
        <time>2018-06-14T20:16:54Z</time>
      </trkpt>
      <trkpt lat="43.89889" lon="1.80343">
        <ele>239</ele>
        <time>2018-06-14T20:17:16Z</time>
      </trkpt>
      <trkpt lat="43.8989" lon="1.80344">
        <ele>239</ele>
        <time>2018-06-14T20:17:17Z</time>
      </trkpt>
      <trkpt lat="43.89891" lon="1.80345">
        <ele>239</ele>
        <time>2018-06-14T20:17:18Z</time>
      </trkpt>
      <trkpt lat="43.89891" lon="1.80345">
        <ele>239</ele>
        <time>2018-06-14T20:17:19Z</time>
      </trkpt>
      <trkpt lat="43.89891" lon="1.80345">
        <ele>239</ele>
        <time>2018-06-14T20:17:20Z</time>
      </trkpt>
      <trkpt lat="43.89892" lon="1.80346">
        <ele>239</ele>
        <time>2018-06-14T20:17:21Z</time>
      </trkpt>
      <trkpt lat="43.89892" lon="1.80347">
        <ele>239</ele>
        <time>2018-06-14T20:17:22Z</time>
      </trkpt>
      <trkpt lat="43.89893" lon="1.80349">
        <ele>239</ele>
        <time>2018-06-14T20:17:45Z</time>
      </trkpt>
      <trkpt lat="43.89893" lon="1.8035">
        <ele>239</ele>
        <time>2018-06-14T20:17:46Z</time>
      </trkpt>
      <trkpt lat="43.89894" lon="1.80352">
        <ele>240</ele>
        <time>2018-06-14T20:17:47Z</time>
      </trkpt>
      <trkpt lat="43.89895" lon="1.80353">
        <ele>240</ele>
        <time>2018-06-14T20:17:48Z</time>
      </trkpt>
      <trkpt lat="43.89896" lon="1.80354">
        <ele>240</ele>
        <time>2018-06-14T20:17:49Z</time>
      </trkpt>
      <trkpt lat="43.89896" lon="1.80356">
        <ele>240</ele>
        <time>2018-06-14T20:17:50Z</time>
      </trkpt>
      <trkpt lat="43.89897" lon="1.80357">
        <ele>240</ele>
        <time>2018-06-14T20:17:51Z</time>
      </trkpt>
      <trkpt lat="43.89898" lon="1.80358">
        <ele>240</ele>
        <time>2018-06-14T20:17:52Z</time>
      </trkpt>
      <trkpt lat="43.89899" lon="1.80359">
        <ele>240</ele>
        <time>2018-06-14T20:17:53Z</time>
      </trkpt>
      <trkpt lat="43.89899" lon="1.8036">
        <ele>240</ele>
        <time>2018-06-14T20:17:54Z</time>
      </trkpt>
      <trkpt lat="43.899" lon="1.80362">
        <ele>240</ele>
        <time>2018-06-14T20:17:55Z</time>
      </trkpt>
      <trkpt lat="43.899" lon="1.80363">
        <ele>240</ele>
        <time>2018-06-14T20:17:56Z</time>
      </trkpt>
      <trkpt lat="43.89902" lon="1.80365">
        <ele>240</ele>
        <time>2018-06-14T20:17:57Z</time>
      </trkpt>
      <trkpt lat="43.89903" lon="1.80367">
        <ele>240</ele>
        <time>2018-06-14T20:17:58Z</time>
      </trkpt>
      <trkpt lat="43.89903" lon="1.80368">
        <ele>240</ele>
        <time>2018-06-14T20:17:59Z</time>
      </trkpt>
      <trkpt lat="43.89904" lon="1.8037">
        <ele>240</ele>
        <time>2018-06-14T20:18:00Z</time>
      </trkpt>
      <trkpt lat="43.89905" lon="1.80372">
        <ele>240</ele>
        <time>2018-06-14T20:18:01Z</time>
      </trkpt>
      <trkpt lat="43.89907" lon="1.80373">
        <ele>240</ele>
        <time>2018-06-14T20:18:02Z</time>
      </trkpt>
      <trkpt lat="43.89909" lon="1.80375">
        <ele>240</ele>
        <time>2018-06-14T20:18:03Z</time>
      </trkpt>
      <trkpt lat="43.8991" lon="1.80376">
        <ele>240</ele>
        <time>2018-06-14T20:18:04Z</time>
      </trkpt>
      <trkpt lat="43.89912" lon="1.80377">
        <ele>240</ele>
        <time>2018-06-14T20:18:05Z</time>
      </trkpt>
      <trkpt lat="43.89913" lon="1.80379">
        <ele>240</ele>
        <time>2018-06-14T20:18:06Z</time>
      </trkpt>
      <trkpt lat="43.89914" lon="1.80381">
        <ele>240</ele>
        <time>2018-06-14T20:18:07Z</time>
      </trkpt>
      <trkpt lat="43.89915" lon="1.80383">
        <ele>240</ele>
        <time>2018-06-14T20:18:08Z</time>
      </trkpt>
      <trkpt lat="43.89916" lon="1.80385">
        <ele>240</ele>
        <time>2018-06-14T20:18:09Z</time>
      </trkpt>
      <trkpt lat="43.89917" lon="1.80387">
        <ele>240</ele>
        <time>2018-06-14T20:18:10Z</time>
      </trkpt>
      <trkpt lat="43.89918" lon="1.80389">
        <ele>240</ele>
        <time>2018-06-14T20:18:11Z</time>
      </trkpt>
      <trkpt lat="43.89919" lon="1.80391">
        <ele>240</ele>
        <time>2018-06-14T20:18:12Z</time>
      </trkpt>
      <trkpt lat="43.8992" lon="1.80393">
        <ele>240</ele>
        <time>2018-06-14T20:18:13Z</time>
      </trkpt>
      <trkpt lat="43.89921" lon="1.80394">
        <ele>240</ele>
        <time>2018-06-14T20:18:14Z</time>
      </trkpt>
      <trkpt lat="43.89922" lon="1.80396">
        <ele>240</ele>
        <time>2018-06-14T20:18:15Z</time>
      </trkpt>
      <trkpt lat="43.89923" lon="1.80398">
        <ele>241</ele>
        <time>2018-06-14T20:18:16Z</time>
      </trkpt>
      <trkpt lat="43.89924" lon="1.804">
        <ele>240</ele>
        <time>2018-06-14T20:18:17Z</time>
      </trkpt>
      <trkpt lat="43.89925" lon="1.80402">
        <ele>240</ele>
        <time>2018-06-14T20:18:18Z</time>
      </trkpt>
      <trkpt lat="43.89927" lon="1.80405">
        <ele>240</ele>
        <time>2018-06-14T20:18:19Z</time>
      </trkpt>
      <trkpt lat="43.89927" lon="1.80409">
        <ele>240</ele>
        <time>2018-06-14T20:18:20Z</time>
      </trkpt>
      <trkpt lat="43.89928" lon="1.80413">
        <ele>240</ele>
        <time>2018-06-14T20:18:21Z</time>
      </trkpt>
      <trkpt lat="43.89929" lon="1.80417">
        <ele>240</ele>
        <time>2018-06-14T20:18:22Z</time>
      </trkpt>
      <trkpt lat="43.89929" lon="1.80421">
        <ele>240</ele>
        <time>2018-06-14T20:18:23Z</time>
      </trkpt>
      <trkpt lat="43.89929" lon="1.80424">
        <ele>240</ele>
        <time>2018-06-14T20:18:24Z</time>
      </trkpt>
      <trkpt lat="43.89929" lon="1.80428">
        <ele>239</ele>
        <time>2018-06-14T20:18:25Z</time>
      </trkpt>
      <trkpt lat="43.89929" lon="1.8043">
        <ele>239</ele>
        <time>2018-06-14T20:18:26Z</time>
      </trkpt>
      <trkpt lat="43.89929" lon="1.80432">
        <ele>239</ele>
        <time>2018-06-14T20:18:27Z</time>
      </trkpt>
      <trkpt lat="43.89929" lon="1.80434">
        <ele>239</ele>
        <time>2018-06-14T20:18:28Z</time>
      </trkpt>
      <trkpt lat="43.89929" lon="1.80435">
        <ele>239</ele>
        <time>2018-06-14T20:18:29Z</time>
      </trkpt>
      <trkpt lat="43.89929" lon="1.80435">
        <ele>239</ele>
        <time>2018-06-14T20:18:30Z</time>
      </trkpt>
      <trkpt lat="43.89929" lon="1.80436">
        <ele>239</ele>
        <time>2018-06-14T20:18:32Z</time>
      </trkpt>
      <trkpt lat="43.89929" lon="1.80438">
        <ele>239</ele>
        <time>2018-06-14T20:18:34Z</time>
      </trkpt>
      <trkpt lat="43.89929" lon="1.80441">
        <ele>238</ele>
        <time>2018-06-14T20:18:35Z</time>
      </trkpt>
      <trkpt lat="43.89929" lon="1.80443">
        <ele>238</ele>
        <time>2018-06-14T20:18:36Z</time>
      </trkpt>
      <trkpt lat="43.89929" lon="1.80445">
        <ele>238</ele>
        <time>2018-06-14T20:18:37Z</time>
      </trkpt>
      <trkpt lat="43.89929" lon="1.80446">
        <ele>238</ele>
        <time>2018-06-14T20:18:38Z</time>
      </trkpt>
      <trkpt lat="43.89928" lon="1.80448">
        <ele>238</ele>
        <time>2018-06-14T20:18:39Z</time>
      </trkpt>
      <trkpt lat="43.89928" lon="1.8045">
        <ele>238</ele>
        <time>2018-06-14T20:18:40Z</time>
      </trkpt>
      <trkpt lat="43.89928" lon="1.80452">
        <ele>238</ele>
        <time>2018-06-14T20:18:41Z</time>
      </trkpt>
      <trkpt lat="43.89929" lon="1.80455">
        <ele>238</ele>
        <time>2018-06-14T20:18:42Z</time>
      </trkpt>
      <trkpt lat="43.89929" lon="1.80458">
        <ele>238</ele>
        <time>2018-06-14T20:18:43Z</time>
      </trkpt>
      <trkpt lat="43.89929" lon="1.80462">
        <ele>238</ele>
        <time>2018-06-14T20:18:44Z</time>
      </trkpt>
      <trkpt lat="43.89929" lon="1.80465">
        <ele>237</ele>
        <time>2018-06-14T20:18:45Z</time>
      </trkpt>
      <trkpt lat="43.89929" lon="1.80469">
        <ele>237</ele>
        <time>2018-06-14T20:18:46Z</time>
      </trkpt>
      <trkpt lat="43.8993" lon="1.80472">
        <ele>237</ele>
        <time>2018-06-14T20:18:47Z</time>
      </trkpt>
      <trkpt lat="43.8993" lon="1.80476">
        <ele>237</ele>
        <time>2018-06-14T20:18:48Z</time>
      </trkpt>
      <trkpt lat="43.8993" lon="1.8048">
        <ele>237</ele>
        <time>2018-06-14T20:18:49Z</time>
      </trkpt>
      <trkpt lat="43.8993" lon="1.80483">
        <ele>236</ele>
        <time>2018-06-14T20:18:50Z</time>
      </trkpt>
      <trkpt lat="43.89931" lon="1.80487">
        <ele>236</ele>
        <time>2018-06-14T20:18:51Z</time>
      </trkpt>
      <trkpt lat="43.89932" lon="1.80492">
        <ele>236</ele>
        <time>2018-06-14T20:18:52Z</time>
      </trkpt>
      <trkpt lat="43.89932" lon="1.80497">
        <ele>235</ele>
        <time>2018-06-14T20:18:53Z</time>
      </trkpt>
      <trkpt lat="43.89933" lon="1.80502">
        <ele>235</ele>
        <time>2018-06-14T20:18:54Z</time>
      </trkpt>
      <trkpt lat="43.89934" lon="1.80507">
        <ele>235</ele>
        <time>2018-06-14T20:18:55Z</time>
      </trkpt>
      <trkpt lat="43.89934" lon="1.80512">
        <ele>234</ele>
        <time>2018-06-14T20:18:56Z</time>
      </trkpt>
      <trkpt lat="43.89934" lon="1.80517">
        <ele>234</ele>
        <time>2018-06-14T20:18:57Z</time>
      </trkpt>
      <trkpt lat="43.89935" lon="1.80522">
        <ele>234</ele>
        <time>2018-06-14T20:18:58Z</time>
      </trkpt>
      <trkpt lat="43.89937" lon="1.80527">
        <ele>233</ele>
        <time>2018-06-14T20:18:59Z</time>
      </trkpt>
      <trkpt lat="43.89938" lon="1.80532">
        <ele>233</ele>
        <time>2018-06-14T20:19:00Z</time>
      </trkpt>
      <trkpt lat="43.8994" lon="1.80537">
        <ele>232</ele>
        <time>2018-06-14T20:19:01Z</time>
      </trkpt>
      <trkpt lat="43.89941" lon="1.80543">
        <ele>232</ele>
        <time>2018-06-14T20:19:02Z</time>
      </trkpt>
      <trkpt lat="43.89942" lon="1.80548">
        <ele>232</ele>
        <time>2018-06-14T20:19:03Z</time>
      </trkpt>
      <trkpt lat="43.89943" lon="1.80554">
        <ele>232</ele>
        <time>2018-06-14T20:19:04Z</time>
      </trkpt>
      <trkpt lat="43.89944" lon="1.8056">
        <ele>232</ele>
        <time>2018-06-14T20:19:05Z</time>
      </trkpt>
      <trkpt lat="43.89944" lon="1.80566">
        <ele>232</ele>
        <time>2018-06-14T20:19:06Z</time>
      </trkpt>
      <trkpt lat="43.89945" lon="1.80571">
        <ele>232</ele>
        <time>2018-06-14T20:19:07Z</time>
      </trkpt>
      <trkpt lat="43.89945" lon="1.80576">
        <ele>232</ele>
        <time>2018-06-14T20:19:08Z</time>
      </trkpt>
      <trkpt lat="43.89945" lon="1.8058">
        <ele>232</ele>
        <time>2018-06-14T20:19:09Z</time>
      </trkpt>
      <trkpt lat="43.89946" lon="1.80583">
        <ele>232</ele>
        <time>2018-06-14T20:19:10Z</time>
      </trkpt>
      <trkpt lat="43.89946" lon="1.80586">
        <ele>232</ele>
        <time>2018-06-14T20:19:11Z</time>
      </trkpt>
      <trkpt lat="43.89945" lon="1.80588">
        <ele>232</ele>
        <time>2018-06-14T20:19:12Z</time>
      </trkpt>
      <trkpt lat="43.89945" lon="1.80589">
        <ele>232</ele>
        <time>2018-06-14T20:19:13Z</time>
      </trkpt>
      <trkpt lat="43.89944" lon="1.80589">
        <ele>232</ele>
        <time>2018-06-14T20:19:14Z</time>
      </trkpt>
      <trkpt lat="43.89944" lon="1.80591">
        <ele>232</ele>
        <time>2018-06-14T20:19:15Z</time>
      </trkpt>
      <trkpt lat="43.89944" lon="1.80591">
        <ele>232</ele>
        <time>2018-06-14T20:19:16Z</time>
      </trkpt>
      <trkpt lat="43.89943" lon="1.80591">
        <ele>232</ele>
        <time>2018-06-14T20:19:17Z</time>
      </trkpt>
      <trkpt lat="43.89944" lon="1.80593">
        <ele>232</ele>
        <time>2018-06-14T20:19:37Z</time>
      </trkpt>
      <trkpt lat="43.89944" lon="1.80592">
        <ele>232</ele>
        <time>2018-06-14T20:19:38Z</time>
      </trkpt>
      <trkpt lat="43.89944" lon="1.80593">
        <ele>232</ele>
        <time>2018-06-14T20:19:39Z</time>
      </trkpt>
      <trkpt lat="43.89945" lon="1.80594">
        <ele>232</ele>
        <time>2018-06-14T20:19:47Z</time>
      </trkpt>
      <trkpt lat="43.89946" lon="1.80596">
        <ele>232</ele>
        <time>2018-06-14T20:19:48Z</time>
      </trkpt>
      <trkpt lat="43.89947" lon="1.80598">
        <ele>232</ele>
        <time>2018-06-14T20:19:49Z</time>
      </trkpt>
      <trkpt lat="43.8995" lon="1.806">
        <ele>231</ele>
        <time>2018-06-14T20:19:50Z</time>
      </trkpt>
      <trkpt lat="43.89953" lon="1.80603">
        <ele>230</ele>
        <time>2018-06-14T20:19:51Z</time>
      </trkpt>
      <trkpt lat="43.89957" lon="1.80605">
        <ele>229</ele>
        <time>2018-06-14T20:19:52Z</time>
      </trkpt>
      <trkpt lat="43.89962" lon="1.80604">
        <ele>228</ele>
        <time>2018-06-14T20:19:53Z</time>
      </trkpt>
      <trkpt lat="43.89966" lon="1.80602">
        <ele>227</ele>
        <time>2018-06-14T20:19:54Z</time>
      </trkpt>
      <trkpt lat="43.89971" lon="1.80597">
        <ele>226</ele>
        <time>2018-06-14T20:19:55Z</time>
      </trkpt>
      <trkpt lat="43.89975" lon="1.80592">
        <ele>225</ele>
        <time>2018-06-14T20:19:56Z</time>
      </trkpt>
      <trkpt lat="43.8998" lon="1.80587">
        <ele>224</ele>
        <time>2018-06-14T20:19:57Z</time>
      </trkpt>
      <trkpt lat="43.89986" lon="1.80583">
        <ele>223</ele>
        <time>2018-06-14T20:19:58Z</time>
      </trkpt>
      <trkpt lat="43.89992" lon="1.80578">
        <ele>222</ele>
        <time>2018-06-14T20:19:59Z</time>
      </trkpt>
      <trkpt lat="43.89998" lon="1.80574">
        <ele>222</ele>
        <time>2018-06-14T20:20:00Z</time>
      </trkpt>
      <trkpt lat="43.90004" lon="1.80571">
        <ele>221</ele>
        <time>2018-06-14T20:20:01Z</time>
      </trkpt>
      <trkpt lat="43.90009" lon="1.80568">
        <ele>220</ele>
        <time>2018-06-14T20:20:02Z</time>
      </trkpt>
      <trkpt lat="43.90015" lon="1.80565">
        <ele>219</ele>
        <time>2018-06-14T20:20:03Z</time>
      </trkpt>
      <trkpt lat="43.9002" lon="1.80563">
        <ele>219</ele>
        <time>2018-06-14T20:20:04Z</time>
      </trkpt>
      <trkpt lat="43.90025" lon="1.80561">
        <ele>218</ele>
        <time>2018-06-14T20:20:05Z</time>
      </trkpt>
      <trkpt lat="43.9003" lon="1.80559">
        <ele>218</ele>
        <time>2018-06-14T20:20:06Z</time>
      </trkpt>
      <trkpt lat="43.90035" lon="1.80556">
        <ele>218</ele>
        <time>2018-06-14T20:20:07Z</time>
      </trkpt>
      <trkpt lat="43.9004" lon="1.80553">
        <ele>217</ele>
        <time>2018-06-14T20:20:08Z</time>
      </trkpt>
      <trkpt lat="43.90047" lon="1.8055">
        <ele>216</ele>
        <time>2018-06-14T20:20:09Z</time>
      </trkpt>
      <trkpt lat="43.90054" lon="1.80546">
        <ele>215</ele>
        <time>2018-06-14T20:20:10Z</time>
      </trkpt>
      <trkpt lat="43.90061" lon="1.80543">
        <ele>214</ele>
        <time>2018-06-14T20:20:11Z</time>
      </trkpt>
      <trkpt lat="43.90068" lon="1.80539">
        <ele>212</ele>
        <time>2018-06-14T20:20:12Z</time>
      </trkpt>
      <trkpt lat="43.90074" lon="1.80537">
        <ele>211</ele>
        <time>2018-06-14T20:20:13Z</time>
      </trkpt>
      <trkpt lat="43.90081" lon="1.80534">
        <ele>210</ele>
        <time>2018-06-14T20:20:14Z</time>
      </trkpt>
      <trkpt lat="43.90087" lon="1.80533">
        <ele>209</ele>
        <time>2018-06-14T20:20:15Z</time>
      </trkpt>
      <trkpt lat="43.90094" lon="1.80532">
        <ele>208</ele>
        <time>2018-06-14T20:20:16Z</time>
      </trkpt>
      <trkpt lat="43.90099" lon="1.80532">
        <ele>208</ele>
        <time>2018-06-14T20:20:17Z</time>
      </trkpt>
      <trkpt lat="43.90105" lon="1.80534">
        <ele>207</ele>
        <time>2018-06-14T20:20:18Z</time>
      </trkpt>
      <trkpt lat="43.9011" lon="1.80535">
        <ele>206</ele>
        <time>2018-06-14T20:20:19Z</time>
      </trkpt>
      <trkpt lat="43.90116" lon="1.80536">
        <ele>206</ele>
        <time>2018-06-14T20:20:20Z</time>
      </trkpt>
      <trkpt lat="43.90121" lon="1.80538">
        <ele>205</ele>
        <time>2018-06-14T20:20:21Z</time>
      </trkpt>
      <trkpt lat="43.90126" lon="1.80539">
        <ele>205</ele>
        <time>2018-06-14T20:20:22Z</time>
      </trkpt>
      <trkpt lat="43.9013" lon="1.80541">
        <ele>205</ele>
        <time>2018-06-14T20:20:23Z</time>
      </trkpt>
      <trkpt lat="43.90134" lon="1.80544">
        <ele>204</ele>
        <time>2018-06-14T20:20:24Z</time>
      </trkpt>
      <trkpt lat="43.90136" lon="1.80547">
        <ele>204</ele>
        <time>2018-06-14T20:20:25Z</time>
      </trkpt>
      <trkpt lat="43.90138" lon="1.80552">
        <ele>203</ele>
        <time>2018-06-14T20:20:26Z</time>
      </trkpt>
      <trkpt lat="43.90139" lon="1.80557">
        <ele>203</ele>
        <time>2018-06-14T20:20:27Z</time>
      </trkpt>
      <trkpt lat="43.90139" lon="1.80563">
        <ele>203</ele>
        <time>2018-06-14T20:20:28Z</time>
      </trkpt>
      <trkpt lat="43.90139" lon="1.80569">
        <ele>202</ele>
        <time>2018-06-14T20:20:29Z</time>
      </trkpt>
      <trkpt lat="43.90139" lon="1.80576">
        <ele>202</ele>
        <time>2018-06-14T20:20:30Z</time>
      </trkpt>
      <trkpt lat="43.90139" lon="1.80583">
        <ele>201</ele>
        <time>2018-06-14T20:20:31Z</time>
      </trkpt>
      <trkpt lat="43.90139" lon="1.8059">
        <ele>201</ele>
        <time>2018-06-14T20:20:32Z</time>
      </trkpt>
      <trkpt lat="43.90139" lon="1.80598">
        <ele>200</ele>
        <time>2018-06-14T20:20:33Z</time>
      </trkpt>
      <trkpt lat="43.90138" lon="1.80606">
        <ele>199</ele>
        <time>2018-06-14T20:20:34Z</time>
      </trkpt>
      <trkpt lat="43.90138" lon="1.80615">
        <ele>199</ele>
        <time>2018-06-14T20:20:35Z</time>
      </trkpt>
      <trkpt lat="43.90138" lon="1.80624">
        <ele>198</ele>
        <time>2018-06-14T20:20:36Z</time>
      </trkpt>
      <trkpt lat="43.90138" lon="1.80633">
        <ele>198</ele>
        <time>2018-06-14T20:20:37Z</time>
      </trkpt>
      <trkpt lat="43.90138" lon="1.80642">
        <ele>198</ele>
        <time>2018-06-14T20:20:38Z</time>
      </trkpt>
      <trkpt lat="43.90138" lon="1.80651">
        <ele>197</ele>
        <time>2018-06-14T20:20:39Z</time>
      </trkpt>
      <trkpt lat="43.90138" lon="1.8066">
        <ele>196</ele>
        <time>2018-06-14T20:20:40Z</time>
      </trkpt>
      <trkpt lat="43.90137" lon="1.80669">
        <ele>195</ele>
        <time>2018-06-14T20:20:41Z</time>
      </trkpt>
      <trkpt lat="43.90136" lon="1.80677">
        <ele>195</ele>
        <time>2018-06-14T20:20:42Z</time>
      </trkpt>
      <trkpt lat="43.90134" lon="1.80684">
        <ele>195</ele>
        <time>2018-06-14T20:20:43Z</time>
      </trkpt>
      <trkpt lat="43.90132" lon="1.80693">
        <ele>194</ele>
        <time>2018-06-14T20:20:44Z</time>
      </trkpt>
      <trkpt lat="43.9013" lon="1.80701">
        <ele>194</ele>
        <time>2018-06-14T20:20:45Z</time>
      </trkpt>
      <trkpt lat="43.90126" lon="1.80708">
        <ele>193</ele>
        <time>2018-06-14T20:20:46Z</time>
      </trkpt>
      <trkpt lat="43.90122" lon="1.80716">
        <ele>193</ele>
        <time>2018-06-14T20:20:47Z</time>
      </trkpt>
      <trkpt lat="43.90118" lon="1.80724">
        <ele>193</ele>
        <time>2018-06-14T20:20:48Z</time>
      </trkpt>
      <trkpt lat="43.90114" lon="1.80731">
        <ele>193</ele>
        <time>2018-06-14T20:20:49Z</time>
      </trkpt>
      <trkpt lat="43.90109" lon="1.80737">
        <ele>193</ele>
        <time>2018-06-14T20:20:50Z</time>
      </trkpt>
      <trkpt lat="43.90105" lon="1.80743">
        <ele>192</ele>
        <time>2018-06-14T20:20:51Z</time>
      </trkpt>
      <trkpt lat="43.901" lon="1.80749">
        <ele>192</ele>
        <time>2018-06-14T20:20:52Z</time>
      </trkpt>
      <trkpt lat="43.90096" lon="1.80754">
        <ele>192</ele>
        <time>2018-06-14T20:20:53Z</time>
      </trkpt>
      <trkpt lat="43.90092" lon="1.80759">
        <ele>192</ele>
        <time>2018-06-14T20:20:54Z</time>
      </trkpt>
      <trkpt lat="43.90088" lon="1.80763">
        <ele>192</ele>
        <time>2018-06-14T20:20:55Z</time>
      </trkpt>
      <trkpt lat="43.90084" lon="1.80768">
        <ele>191</ele>
        <time>2018-06-14T20:20:56Z</time>
      </trkpt>
      <trkpt lat="43.9008" lon="1.80773">
        <ele>191</ele>
        <time>2018-06-14T20:20:57Z</time>
      </trkpt>
      <trkpt lat="43.90076" lon="1.80777">
        <ele>191</ele>
        <time>2018-06-14T20:20:58Z</time>
      </trkpt>
      <trkpt lat="43.90073" lon="1.80782">
        <ele>191</ele>
        <time>2018-06-14T20:20:59Z</time>
      </trkpt>
      <trkpt lat="43.9007" lon="1.80786">
        <ele>191</ele>
        <time>2018-06-14T20:21:00Z</time>
      </trkpt>
      <trkpt lat="43.90067" lon="1.80791">
        <ele>191</ele>
        <time>2018-06-14T20:21:01Z</time>
      </trkpt>
      <trkpt lat="43.90064" lon="1.80796">
        <ele>191</ele>
        <time>2018-06-14T20:21:02Z</time>
      </trkpt>
      <trkpt lat="43.90061" lon="1.80802">
        <ele>190</ele>
        <time>2018-06-14T20:21:03Z</time>
      </trkpt>
      <trkpt lat="43.90059" lon="1.80808">
        <ele>190</ele>
        <time>2018-06-14T20:21:04Z</time>
      </trkpt>
      <trkpt lat="43.90058" lon="1.80813">
        <ele>190</ele>
        <time>2018-06-14T20:21:05Z</time>
      </trkpt>
      <trkpt lat="43.90057" lon="1.80818">
        <ele>190</ele>
        <time>2018-06-14T20:21:06Z</time>
      </trkpt>
      <trkpt lat="43.90057" lon="1.80822">
        <ele>190</ele>
        <time>2018-06-14T20:21:07Z</time>
      </trkpt>
      <trkpt lat="43.90057" lon="1.80826">
        <ele>190</ele>
        <time>2018-06-14T20:21:08Z</time>
      </trkpt>
      <trkpt lat="43.90056" lon="1.8083">
        <ele>190</ele>
        <time>2018-06-14T20:21:09Z</time>
      </trkpt>
      <trkpt lat="43.90056" lon="1.80833">
        <ele>189</ele>
        <time>2018-06-14T20:21:10Z</time>
      </trkpt>
      <trkpt lat="43.90056" lon="1.80837">
        <ele>189</ele>
        <time>2018-06-14T20:21:11Z</time>
      </trkpt>
      <trkpt lat="43.90055" lon="1.80841">
        <ele>189</ele>
        <time>2018-06-14T20:21:12Z</time>
      </trkpt>
      <trkpt lat="43.90055" lon="1.80844">
        <ele>188</ele>
        <time>2018-06-14T20:21:13Z</time>
      </trkpt>
      <trkpt lat="43.90054" lon="1.80847">
        <ele>188</ele>
        <time>2018-06-14T20:21:14Z</time>
      </trkpt>
      <trkpt lat="43.90054" lon="1.80851">
        <ele>188</ele>
        <time>2018-06-14T20:21:15Z</time>
      </trkpt>
      <trkpt lat="43.90053" lon="1.80854">
        <ele>188</ele>
        <time>2018-06-14T20:21:16Z</time>
      </trkpt>
      <trkpt lat="43.90053" lon="1.80857">
        <ele>188</ele>
        <time>2018-06-14T20:21:17Z</time>
      </trkpt>
      <trkpt lat="43.90053" lon="1.8086">
        <ele>188</ele>
        <time>2018-06-14T20:21:18Z</time>
      </trkpt>
      <trkpt lat="43.90052" lon="1.80863">
        <ele>188</ele>
        <time>2018-06-14T20:21:19Z</time>
      </trkpt>
      <trkpt lat="43.90052" lon="1.80867">
        <ele>188</ele>
        <time>2018-06-14T20:21:20Z</time>
      </trkpt>
      <trkpt lat="43.90051" lon="1.8087">
        <ele>187</ele>
        <time>2018-06-14T20:21:21Z</time>
      </trkpt>
      <trkpt lat="43.9005" lon="1.80874">
        <ele>187</ele>
        <time>2018-06-14T20:21:22Z</time>
      </trkpt>
      <trkpt lat="43.90049" lon="1.80877">
        <ele>187</ele>
        <time>2018-06-14T20:21:23Z</time>
      </trkpt>
      <trkpt lat="43.90049" lon="1.80881">
        <ele>187</ele>
        <time>2018-06-14T20:21:24Z</time>
      </trkpt>
      <trkpt lat="43.90048" lon="1.80884">
        <ele>187</ele>
        <time>2018-06-14T20:21:25Z</time>
      </trkpt>
      <trkpt lat="43.90048" lon="1.80887">
        <ele>187</ele>
        <time>2018-06-14T20:21:26Z</time>
      </trkpt>
      <trkpt lat="43.90047" lon="1.80891">
        <ele>187</ele>
        <time>2018-06-14T20:21:27Z</time>
      </trkpt>
      <trkpt lat="43.90047" lon="1.80894">
        <ele>186</ele>
        <time>2018-06-14T20:21:28Z</time>
      </trkpt>
      <trkpt lat="43.90046" lon="1.80897">
        <ele>186</ele>
        <time>2018-06-14T20:21:29Z</time>
      </trkpt>
      <trkpt lat="43.90044" lon="1.809">
        <ele>186</ele>
        <time>2018-06-14T20:21:30Z</time>
      </trkpt>
      <trkpt lat="43.90043" lon="1.80903">
        <ele>186</ele>
        <time>2018-06-14T20:21:31Z</time>
      </trkpt>
      <trkpt lat="43.90041" lon="1.80907">
        <ele>186</ele>
        <time>2018-06-14T20:21:32Z</time>
      </trkpt>
      <trkpt lat="43.9004" lon="1.80911">
        <ele>186</ele>
        <time>2018-06-14T20:21:33Z</time>
      </trkpt>
      <trkpt lat="43.90038" lon="1.80915">
        <ele>185</ele>
        <time>2018-06-14T20:21:34Z</time>
      </trkpt>
      <trkpt lat="43.90037" lon="1.80919">
        <ele>185</ele>
        <time>2018-06-14T20:21:35Z</time>
      </trkpt>
      <trkpt lat="43.90035" lon="1.80923">
        <ele>185</ele>
        <time>2018-06-14T20:21:36Z</time>
      </trkpt>
      <trkpt lat="43.90033" lon="1.80926">
        <ele>185</ele>
        <time>2018-06-14T20:21:37Z</time>
      </trkpt>
      <trkpt lat="43.90031" lon="1.80929">
        <ele>185</ele>
        <time>2018-06-14T20:21:38Z</time>
      </trkpt>
      <trkpt lat="43.90029" lon="1.80931">
        <ele>185</ele>
        <time>2018-06-14T20:21:39Z</time>
      </trkpt>
      <trkpt lat="43.90027" lon="1.80934">
        <ele>185</ele>
        <time>2018-06-14T20:21:40Z</time>
      </trkpt>
      <trkpt lat="43.90025" lon="1.80935">
        <ele>185</ele>
        <time>2018-06-14T20:21:41Z</time>
      </trkpt>
      <trkpt lat="43.90023" lon="1.80937">
        <ele>186</ele>
        <time>2018-06-14T20:21:42Z</time>
      </trkpt>
      <trkpt lat="43.90022" lon="1.80938">
        <ele>186</ele>
        <time>2018-06-14T20:21:43Z</time>
      </trkpt>
      <trkpt lat="43.9002" lon="1.80939">
        <ele>186</ele>
        <time>2018-06-14T20:21:44Z</time>
      </trkpt>
      <trkpt lat="43.90019" lon="1.8094">
        <ele>186</ele>
        <time>2018-06-14T20:21:45Z</time>
      </trkpt>
      <trkpt lat="43.90018" lon="1.80941">
        <ele>186</ele>
        <time>2018-06-14T20:21:46Z</time>
      </trkpt>
      <trkpt lat="43.90017" lon="1.80942">
        <ele>186</ele>
        <time>2018-06-14T20:21:47Z</time>
      </trkpt>
      <trkpt lat="43.90015" lon="1.80943">
        <ele>186</ele>
        <time>2018-06-14T20:21:48Z</time>
      </trkpt>
      <trkpt lat="43.90014" lon="1.80944">
        <ele>187</ele>
        <time>2018-06-14T20:21:49Z</time>
      </trkpt>
      <trkpt lat="43.90012" lon="1.80945">
        <ele>187</ele>
        <time>2018-06-14T20:21:50Z</time>
      </trkpt>
      <trkpt lat="43.90011" lon="1.80946">
        <ele>187</ele>
        <time>2018-06-14T20:21:51Z</time>
      </trkpt>
      <trkpt lat="43.90009" lon="1.80947">
        <ele>187</ele>
        <time>2018-06-14T20:21:52Z</time>
      </trkpt>
      <trkpt lat="43.90008" lon="1.80948">
        <ele>187</ele>
        <time>2018-06-14T20:21:53Z</time>
      </trkpt>
      <trkpt lat="43.90007" lon="1.80949">
        <ele>188</ele>
        <time>2018-06-14T20:21:54Z</time>
      </trkpt>
      <trkpt lat="43.90005" lon="1.8095">
        <ele>188</ele>
        <time>2018-06-14T20:21:55Z</time>
      </trkpt>
      <trkpt lat="43.90004" lon="1.80951">
        <ele>188</ele>
        <time>2018-06-14T20:21:56Z</time>
      </trkpt>
      <trkpt lat="43.90003" lon="1.80952">
        <ele>188</ele>
        <time>2018-06-14T20:21:57Z</time>
      </trkpt>
      <trkpt lat="43.90001" lon="1.80954">
        <ele>188</ele>
        <time>2018-06-14T20:21:58Z</time>
      </trkpt>
      <trkpt lat="43.9" lon="1.80955">
        <ele>189</ele>
        <time>2018-06-14T20:21:59Z</time>
      </trkpt>
      <trkpt lat="43.89999" lon="1.80956">
        <ele>189</ele>
        <time>2018-06-14T20:22:00Z</time>
      </trkpt>
      <trkpt lat="43.89997" lon="1.80957">
        <ele>189</ele>
        <time>2018-06-14T20:22:01Z</time>
      </trkpt>
      <trkpt lat="43.89996" lon="1.80958">
        <ele>189</ele>
        <time>2018-06-14T20:22:02Z</time>
      </trkpt>
      <trkpt lat="43.89994" lon="1.80959">
        <ele>189</ele>
        <time>2018-06-14T20:22:03Z</time>
      </trkpt>
      <trkpt lat="43.89992" lon="1.8096">
        <ele>189</ele>
        <time>2018-06-14T20:22:04Z</time>
      </trkpt>
      <trkpt lat="43.8999" lon="1.80962">
        <ele>189</ele>
        <time>2018-06-14T20:22:05Z</time>
      </trkpt>
      <trkpt lat="43.89988" lon="1.80963">
        <ele>189</ele>
        <time>2018-06-14T20:22:06Z</time>
      </trkpt>
      <trkpt lat="43.89986" lon="1.80964">
        <ele>189</ele>
        <time>2018-06-14T20:22:07Z</time>
      </trkpt>
      <trkpt lat="43.89984" lon="1.80966">
        <ele>189</ele>
        <time>2018-06-14T20:22:08Z</time>
      </trkpt>
      <trkpt lat="43.89983" lon="1.80967">
        <ele>189</ele>
        <time>2018-06-14T20:22:09Z</time>
      </trkpt>
      <trkpt lat="43.89981" lon="1.80969">
        <ele>189</ele>
        <time>2018-06-14T20:22:10Z</time>
      </trkpt>
      <trkpt lat="43.89979" lon="1.8097">
        <ele>189</ele>
        <time>2018-06-14T20:22:11Z</time>
      </trkpt>
      <trkpt lat="43.89978" lon="1.80972">
        <ele>189</ele>
        <time>2018-06-14T20:22:12Z</time>
      </trkpt>
      <trkpt lat="43.89976" lon="1.80974">
        <ele>189</ele>
        <time>2018-06-14T20:22:13Z</time>
      </trkpt>
      <trkpt lat="43.89974" lon="1.80976">
        <ele>189</ele>
        <time>2018-06-14T20:22:14Z</time>
      </trkpt>
      <trkpt lat="43.89971" lon="1.80979">
        <ele>188</ele>
        <time>2018-06-14T20:22:15Z</time>
      </trkpt>
      <trkpt lat="43.89966" lon="1.80983">
        <ele>188</ele>
        <time>2018-06-14T20:22:16Z</time>
      </trkpt>
      <trkpt lat="43.89962" lon="1.80985">
        <ele>187</ele>
        <time>2018-06-14T20:22:17Z</time>
      </trkpt>
      <trkpt lat="43.89957" lon="1.80988">
        <ele>187</ele>
        <time>2018-06-14T20:22:18Z</time>
      </trkpt>
      <trkpt lat="43.89951" lon="1.80992">
        <ele>186</ele>
        <time>2018-06-14T20:22:19Z</time>
      </trkpt>
      <trkpt lat="43.89946" lon="1.80994">
        <ele>186</ele>
        <time>2018-06-14T20:22:20Z</time>
      </trkpt>
      <trkpt lat="43.89941" lon="1.80997">
        <ele>186</ele>
        <time>2018-06-14T20:22:21Z</time>
      </trkpt>
      <trkpt lat="43.89936" lon="1.81">
        <ele>186</ele>
        <time>2018-06-14T20:22:22Z</time>
      </trkpt>
      <trkpt lat="43.89931" lon="1.81003">
        <ele>186</ele>
        <time>2018-06-14T20:22:23Z</time>
      </trkpt>
      <trkpt lat="43.89925" lon="1.81006">
        <ele>186</ele>
        <time>2018-06-14T20:22:24Z</time>
      </trkpt>
      <trkpt lat="43.8992" lon="1.81009">
        <ele>185</ele>
        <time>2018-06-14T20:22:25Z</time>
      </trkpt>
      <trkpt lat="43.89915" lon="1.81011">
        <ele>185</ele>
        <time>2018-06-14T20:22:26Z</time>
      </trkpt>
      <trkpt lat="43.89911" lon="1.81013">
        <ele>185</ele>
        <time>2018-06-14T20:22:27Z</time>
      </trkpt>
      <trkpt lat="43.89907" lon="1.81014">
        <ele>185</ele>
        <time>2018-06-14T20:22:28Z</time>
      </trkpt>
      <trkpt lat="43.89903" lon="1.81016">
        <ele>185</ele>
        <time>2018-06-14T20:22:29Z</time>
      </trkpt>
      <trkpt lat="43.89899" lon="1.81017">
        <ele>185</ele>
        <time>2018-06-14T20:22:30Z</time>
      </trkpt>
      <trkpt lat="43.89895" lon="1.81018">
        <ele>185</ele>
        <time>2018-06-14T20:22:31Z</time>
      </trkpt>
      <trkpt lat="43.89892" lon="1.81019">
        <ele>185</ele>
        <time>2018-06-14T20:22:32Z</time>
      </trkpt>
      <trkpt lat="43.89888" lon="1.81021">
        <ele>185</ele>
        <time>2018-06-14T20:22:33Z</time>
      </trkpt>
      <trkpt lat="43.89883" lon="1.81022">
        <ele>185</ele>
        <time>2018-06-14T20:22:34Z</time>
      </trkpt>
      <trkpt lat="43.89879" lon="1.81023">
        <ele>184</ele>
        <time>2018-06-14T20:22:35Z</time>
      </trkpt>
      <trkpt lat="43.89874" lon="1.81025">
        <ele>184</ele>
        <time>2018-06-14T20:22:36Z</time>
      </trkpt>
      <trkpt lat="43.8987" lon="1.81027">
        <ele>184</ele>
        <time>2018-06-14T20:22:37Z</time>
      </trkpt>
      <trkpt lat="43.89865" lon="1.81029">
        <ele>184</ele>
        <time>2018-06-14T20:22:38Z</time>
      </trkpt>
      <trkpt lat="43.89861" lon="1.81031">
        <ele>183</ele>
        <time>2018-06-14T20:22:39Z</time>
      </trkpt>
      <trkpt lat="43.89857" lon="1.81033">
        <ele>183</ele>
        <time>2018-06-14T20:22:40Z</time>
      </trkpt>
      <trkpt lat="43.89853" lon="1.81035">
        <ele>183</ele>
        <time>2018-06-14T20:22:41Z</time>
      </trkpt>
      <trkpt lat="43.8985" lon="1.81038">
        <ele>183</ele>
        <time>2018-06-14T20:22:42Z</time>
      </trkpt>
      <trkpt lat="43.89847" lon="1.8104">
        <ele>183</ele>
        <time>2018-06-14T20:22:43Z</time>
      </trkpt>
      <trkpt lat="43.89845" lon="1.81042">
        <ele>183</ele>
        <time>2018-06-14T20:22:44Z</time>
      </trkpt>
      <trkpt lat="43.89842" lon="1.81045">
        <ele>183</ele>
        <time>2018-06-14T20:22:45Z</time>
      </trkpt>
      <trkpt lat="43.8984" lon="1.81048">
        <ele>183</ele>
        <time>2018-06-14T20:22:46Z</time>
      </trkpt>
      <trkpt lat="43.89837" lon="1.8105">
        <ele>183</ele>
        <time>2018-06-14T20:22:47Z</time>
      </trkpt>
      <trkpt lat="43.89834" lon="1.81053">
        <ele>183</ele>
        <time>2018-06-14T20:22:48Z</time>
      </trkpt>
      <trkpt lat="43.89831" lon="1.81055">
        <ele>183</ele>
        <time>2018-06-14T20:22:49Z</time>
      </trkpt>
      <trkpt lat="43.89827" lon="1.81057">
        <ele>183</ele>
        <time>2018-06-14T20:22:50Z</time>
      </trkpt>
      <trkpt lat="43.89824" lon="1.81059">
        <ele>183</ele>
        <time>2018-06-14T20:22:51Z</time>
      </trkpt>
      <trkpt lat="43.89821" lon="1.81061">
        <ele>182</ele>
        <time>2018-06-14T20:22:52Z</time>
      </trkpt>
      <trkpt lat="43.89819" lon="1.81063">
        <ele>182</ele>
        <time>2018-06-14T20:22:53Z</time>
      </trkpt>
      <trkpt lat="43.89816" lon="1.81064">
        <ele>182</ele>
        <time>2018-06-14T20:22:54Z</time>
      </trkpt>
      <trkpt lat="43.89814" lon="1.81065">
        <ele>182</ele>
        <time>2018-06-14T20:22:55Z</time>
      </trkpt>
      <trkpt lat="43.89812" lon="1.81066">
        <ele>182</ele>
        <time>2018-06-14T20:22:56Z</time>
      </trkpt>
      <trkpt lat="43.89809" lon="1.81067">
        <ele>182</ele>
        <time>2018-06-14T20:22:57Z</time>
      </trkpt>
      <trkpt lat="43.89807" lon="1.81067">
        <ele>182</ele>
        <time>2018-06-14T20:22:58Z</time>
      </trkpt>
      <trkpt lat="43.89805" lon="1.81068">
        <ele>182</ele>
        <time>2018-06-14T20:22:59Z</time>
      </trkpt>
      <trkpt lat="43.89802" lon="1.81069">
        <ele>181</ele>
        <time>2018-06-14T20:23:00Z</time>
      </trkpt>
      <trkpt lat="43.898" lon="1.8107">
        <ele>181</ele>
        <time>2018-06-14T20:23:01Z</time>
      </trkpt>
      <trkpt lat="43.89797" lon="1.81071">
        <ele>181</ele>
        <time>2018-06-14T20:23:02Z</time>
      </trkpt>
      <trkpt lat="43.89794" lon="1.81073">
        <ele>181</ele>
        <time>2018-06-14T20:23:03Z</time>
      </trkpt>
      <trkpt lat="43.8979" lon="1.81075">
        <ele>181</ele>
        <time>2018-06-14T20:23:04Z</time>
      </trkpt>
      <trkpt lat="43.89787" lon="1.81077">
        <ele>181</ele>
        <time>2018-06-14T20:23:05Z</time>
      </trkpt>
      <trkpt lat="43.89783" lon="1.81079">
        <ele>181</ele>
        <time>2018-06-14T20:23:06Z</time>
      </trkpt>
      <trkpt lat="43.89779" lon="1.81081">
        <ele>181</ele>
        <time>2018-06-14T20:23:07Z</time>
      </trkpt>
      <trkpt lat="43.89775" lon="1.81082">
        <ele>180</ele>
        <time>2018-06-14T20:23:08Z</time>
      </trkpt>
      <trkpt lat="43.89771" lon="1.81084">
        <ele>180</ele>
        <time>2018-06-14T20:23:09Z</time>
      </trkpt>
      <trkpt lat="43.89768" lon="1.81085">
        <ele>180</ele>
        <time>2018-06-14T20:23:10Z</time>
      </trkpt>
      <trkpt lat="43.89764" lon="1.81086">
        <ele>180</ele>
        <time>2018-06-14T20:23:11Z</time>
      </trkpt>
      <trkpt lat="43.89761" lon="1.81087">
        <ele>180</ele>
        <time>2018-06-14T20:23:12Z</time>
      </trkpt>
      <trkpt lat="43.89758" lon="1.81088">
        <ele>180</ele>
        <time>2018-06-14T20:23:13Z</time>
      </trkpt>
      <trkpt lat="43.89756" lon="1.81089">
        <ele>180</ele>
        <time>2018-06-14T20:23:14Z</time>
      </trkpt>
      <trkpt lat="43.89754" lon="1.81089">
        <ele>180</ele>
        <time>2018-06-14T20:23:15Z</time>
      </trkpt>
      <trkpt lat="43.89753" lon="1.81089">
        <ele>180</ele>
        <time>2018-06-14T20:23:16Z</time>
      </trkpt>
      <trkpt lat="43.89753" lon="1.81089">
        <ele>180</ele>
        <time>2018-06-14T20:23:17Z</time>
      </trkpt>
      <trkpt lat="43.89752" lon="1.81089">
        <ele>180</ele>
        <time>2018-06-14T20:23:18Z</time>
      </trkpt>
      <trkpt lat="43.89752" lon="1.81089">
        <ele>180</ele>
        <time>2018-06-14T20:23:49Z</time>
      </trkpt>
      <trkpt lat="43.89752" lon="1.81091">
        <ele>180</ele>
        <time>2018-06-14T20:23:59Z</time>
      </trkpt>
      <trkpt lat="43.89752" lon="1.81093">
        <ele>180</ele>
        <time>2018-06-14T20:24:00Z</time>
      </trkpt>
      <trkpt lat="43.89752" lon="1.81095">
        <ele>180</ele>
        <time>2018-06-14T20:24:01Z</time>
      </trkpt>
      <trkpt lat="43.89753" lon="1.81098">
        <ele>180</ele>
        <time>2018-06-14T20:24:02Z</time>
      </trkpt>
      <trkpt lat="43.89753" lon="1.81102">
        <ele>180</ele>
        <time>2018-06-14T20:24:03Z</time>
      </trkpt>
      <trkpt lat="43.89754" lon="1.81105">
        <ele>180</ele>
        <time>2018-06-14T20:24:04Z</time>
      </trkpt>
      <trkpt lat="43.89756" lon="1.81109">
        <ele>179</ele>
        <time>2018-06-14T20:24:05Z</time>
      </trkpt>
      <trkpt lat="43.89757" lon="1.81114">
        <ele>179</ele>
        <time>2018-06-14T20:24:06Z</time>
      </trkpt>
      <trkpt lat="43.89758" lon="1.81122">
        <ele>178</ele>
        <time>2018-06-14T20:24:07Z</time>
      </trkpt>
      <trkpt lat="43.89759" lon="1.8113">
        <ele>177</ele>
        <time>2018-06-14T20:24:08Z</time>
      </trkpt>
      <trkpt lat="43.89761" lon="1.81139">
        <ele>176</ele>
        <time>2018-06-14T20:24:09Z</time>
      </trkpt>
      <trkpt lat="43.89763" lon="1.81149">
        <ele>176</ele>
        <time>2018-06-14T20:24:10Z</time>
      </trkpt>
      <trkpt lat="43.89764" lon="1.81159">
        <ele>173</ele>
        <time>2018-06-14T20:24:11Z</time>
      </trkpt>
      <trkpt lat="43.89766" lon="1.81169">
        <ele>172</ele>
        <time>2018-06-14T20:24:12Z</time>
      </trkpt>
      <trkpt lat="43.89768" lon="1.81178">
        <ele>174</ele>
        <time>2018-06-14T20:24:13Z</time>
      </trkpt>
      <trkpt lat="43.89769" lon="1.81188">
        <ele>173</ele>
        <time>2018-06-14T20:24:14Z</time>
      </trkpt>
      <trkpt lat="43.89771" lon="1.81196">
        <ele>173</ele>
        <time>2018-06-14T20:24:15Z</time>
      </trkpt>
      <trkpt lat="43.89774" lon="1.81204">
        <ele>173</ele>
        <time>2018-06-14T20:24:16Z</time>
      </trkpt>
      <trkpt lat="43.89777" lon="1.81211">
        <ele>173</ele>
        <time>2018-06-14T20:24:17Z</time>
      </trkpt>
      <trkpt lat="43.8978" lon="1.81216">
        <ele>173</ele>
        <time>2018-06-14T20:24:18Z</time>
      </trkpt>
      <trkpt lat="43.89784" lon="1.8122">
        <ele>173</ele>
        <time>2018-06-14T20:24:19Z</time>
      </trkpt>
      <trkpt lat="43.89787" lon="1.81224">
        <ele>173</ele>
        <time>2018-06-14T20:24:20Z</time>
      </trkpt>
      <trkpt lat="43.89789" lon="1.81227">
        <ele>173</ele>
        <time>2018-06-14T20:24:21Z</time>
      </trkpt>
      <trkpt lat="43.89791" lon="1.81229">
        <ele>174</ele>
        <time>2018-06-14T20:24:22Z</time>
      </trkpt>
      <trkpt lat="43.89793" lon="1.81232">
        <ele>174</ele>
        <time>2018-06-14T20:24:23Z</time>
      </trkpt>
      <trkpt lat="43.89795" lon="1.81234">
        <ele>174</ele>
        <time>2018-06-14T20:24:24Z</time>
      </trkpt>
      <trkpt lat="43.89796" lon="1.81235">
        <ele>174</ele>
        <time>2018-06-14T20:24:25Z</time>
      </trkpt>
      <trkpt lat="43.89796" lon="1.81237">
        <ele>174</ele>
        <time>2018-06-14T20:24:26Z</time>
      </trkpt>
      <trkpt lat="43.89796" lon="1.81239">
        <ele>175</ele>
        <time>2018-06-14T20:24:27Z</time>
      </trkpt>
      <trkpt lat="43.89795" lon="1.8124">
        <ele>175</ele>
        <time>2018-06-14T20:24:28Z</time>
      </trkpt>
      <trkpt lat="43.89795" lon="1.81241">
        <ele>175</ele>
        <time>2018-06-14T20:24:29Z</time>
      </trkpt>
      <trkpt lat="43.89794" lon="1.81242">
        <ele>175</ele>
        <time>2018-06-14T20:24:30Z</time>
      </trkpt>
      <trkpt lat="43.89794" lon="1.81243">
        <ele>175</ele>
        <time>2018-06-14T20:24:31Z</time>
      </trkpt>
      <trkpt lat="43.89793" lon="1.81244">
        <ele>175</ele>
        <time>2018-06-14T20:24:32Z</time>
      </trkpt>
      <trkpt lat="43.89792" lon="1.81245">
        <ele>175</ele>
        <time>2018-06-14T20:24:33Z</time>
      </trkpt>
      <trkpt lat="43.89791" lon="1.81246">
        <ele>175</ele>
        <time>2018-06-14T20:24:34Z</time>
      </trkpt>
      <trkpt lat="43.8979" lon="1.81247">
        <ele>175</ele>
        <time>2018-06-14T20:24:35Z</time>
      </trkpt>
      <trkpt lat="43.8979" lon="1.81247">
        <ele>175</ele>
        <time>2018-06-14T20:24:36Z</time>
      </trkpt>
      <trkpt lat="43.89788" lon="1.81247">
        <ele>175</ele>
        <time>2018-06-14T20:24:37Z</time>
      </trkpt>
      <trkpt lat="43.89787" lon="1.81248">
        <ele>175</ele>
        <time>2018-06-14T20:24:38Z</time>
      </trkpt>
      <trkpt lat="43.89787" lon="1.81249">
        <ele>175</ele>
        <time>2018-06-14T20:24:39Z</time>
      </trkpt>
      <trkpt lat="43.89786" lon="1.81249">
        <ele>175</ele>
        <time>2018-06-14T20:24:40Z</time>
      </trkpt>
      <trkpt lat="43.89786" lon="1.8125">
        <ele>175</ele>
        <time>2018-06-14T20:24:41Z</time>
      </trkpt>
      <trkpt lat="43.89786" lon="1.81251">
        <ele>175</ele>
        <time>2018-06-14T20:24:42Z</time>
      </trkpt>
      <trkpt lat="43.89785" lon="1.81251">
        <ele>175</ele>
        <time>2018-06-14T20:24:43Z</time>
      </trkpt>
      <trkpt lat="43.89785" lon="1.81251">
        <ele>175</ele>
        <time>2018-06-14T20:25:06Z</time>
      </trkpt>
      <trkpt lat="43.89785" lon="1.81251">
        <ele>175</ele>
        <time>2018-06-14T20:25:09Z</time>
      </trkpt>
      <trkpt lat="43.89784" lon="1.81252">
        <ele>175</ele>
        <time>2018-06-14T20:25:10Z</time>
      </trkpt>
      <trkpt lat="43.89783" lon="1.81252">
        <ele>175</ele>
        <time>2018-06-14T20:25:11Z</time>
      </trkpt>
      <trkpt lat="43.89782" lon="1.81252">
        <ele>175</ele>
        <time>2018-06-14T20:25:12Z</time>
      </trkpt>
      <trkpt lat="43.8978" lon="1.81252">
        <ele>175</ele>
        <time>2018-06-14T20:25:13Z</time>
      </trkpt>
      <trkpt lat="43.89778" lon="1.81252">
        <ele>175</ele>
        <time>2018-06-14T20:25:14Z</time>
      </trkpt>
      <trkpt lat="43.89776" lon="1.81252">
        <ele>175</ele>
        <time>2018-06-14T20:25:15Z</time>
      </trkpt>
      <trkpt lat="43.89774" lon="1.81252">
        <ele>175</ele>
        <time>2018-06-14T20:25:16Z</time>
      </trkpt>
      <trkpt lat="43.89773" lon="1.81253">
        <ele>175</ele>
        <time>2018-06-14T20:25:17Z</time>
      </trkpt>
      <trkpt lat="43.89772" lon="1.81254">
        <ele>175</ele>
        <time>2018-06-14T20:25:18Z</time>
      </trkpt>
      <trkpt lat="43.8977" lon="1.81254">
        <ele>175</ele>
        <time>2018-06-14T20:25:19Z</time>
      </trkpt>
      <trkpt lat="43.89769" lon="1.81255">
        <ele>175</ele>
        <time>2018-06-14T20:25:20Z</time>
      </trkpt>
      <trkpt lat="43.89767" lon="1.81256">
        <ele>175</ele>
        <time>2018-06-14T20:25:21Z</time>
      </trkpt>
      <trkpt lat="43.89765" lon="1.81256">
        <ele>175</ele>
        <time>2018-06-14T20:25:22Z</time>
      </trkpt>
      <trkpt lat="43.89764" lon="1.81257">
        <ele>175</ele>
        <time>2018-06-14T20:25:23Z</time>
      </trkpt>
      <trkpt lat="43.89762" lon="1.81257">
        <ele>174</ele>
        <time>2018-06-14T20:25:24Z</time>
      </trkpt>
      <trkpt lat="43.89761" lon="1.81258">
        <ele>174</ele>
        <time>2018-06-14T20:25:25Z</time>
      </trkpt>
      <trkpt lat="43.89759" lon="1.81259">
        <ele>174</ele>
        <time>2018-06-14T20:25:26Z</time>
      </trkpt>
      <trkpt lat="43.89758" lon="1.8126">
        <ele>174</ele>
        <time>2018-06-14T20:25:27Z</time>
      </trkpt>
      <trkpt lat="43.89756" lon="1.81261">
        <ele>174</ele>
        <time>2018-06-14T20:25:28Z</time>
      </trkpt>
      <trkpt lat="43.89754" lon="1.81261">
        <ele>174</ele>
        <time>2018-06-14T20:25:29Z</time>
      </trkpt>
      <trkpt lat="43.89752" lon="1.81262">
        <ele>174</ele>
        <time>2018-06-14T20:25:30Z</time>
      </trkpt>
      <trkpt lat="43.89751" lon="1.81264">
        <ele>174</ele>
        <time>2018-06-14T20:25:31Z</time>
      </trkpt>
      <trkpt lat="43.89749" lon="1.81265">
        <ele>174</ele>
        <time>2018-06-14T20:25:32Z</time>
      </trkpt>
      <trkpt lat="43.89747" lon="1.81266">
        <ele>174</ele>
        <time>2018-06-14T20:25:33Z</time>
      </trkpt>
      <trkpt lat="43.89745" lon="1.81268">
        <ele>173</ele>
        <time>2018-06-14T20:25:34Z</time>
      </trkpt>
      <trkpt lat="43.89743" lon="1.81269">
        <ele>173</ele>
        <time>2018-06-14T20:25:35Z</time>
      </trkpt>
      <trkpt lat="43.89741" lon="1.81271">
        <ele>173</ele>
        <time>2018-06-14T20:25:36Z</time>
      </trkpt>
      <trkpt lat="43.89738" lon="1.81272">
        <ele>173</ele>
        <time>2018-06-14T20:25:37Z</time>
      </trkpt>
      <trkpt lat="43.89736" lon="1.81274">
        <ele>173</ele>
        <time>2018-06-14T20:25:38Z</time>
      </trkpt>
      <trkpt lat="43.89733" lon="1.81275">
        <ele>173</ele>
        <time>2018-06-14T20:25:39Z</time>
      </trkpt>
      <trkpt lat="43.8973" lon="1.81277">
        <ele>172</ele>
        <time>2018-06-14T20:25:40Z</time>
      </trkpt>
      <trkpt lat="43.89726" lon="1.81279">
        <ele>172</ele>
        <time>2018-06-14T20:25:41Z</time>
      </trkpt>
      <trkpt lat="43.89722" lon="1.8128">
        <ele>172</ele>
        <time>2018-06-14T20:25:42Z</time>
      </trkpt>
      <trkpt lat="43.89718" lon="1.81281">
        <ele>172</ele>
        <time>2018-06-14T20:25:43Z</time>
      </trkpt>
      <trkpt lat="43.89713" lon="1.81282">
        <ele>172</ele>
        <time>2018-06-14T20:25:44Z</time>
      </trkpt>
      <trkpt lat="43.89708" lon="1.81283">
        <ele>172</ele>
        <time>2018-06-14T20:25:45Z</time>
      </trkpt>
      <trkpt lat="43.89704" lon="1.81283">
        <ele>171</ele>
        <time>2018-06-14T20:25:46Z</time>
      </trkpt>
      <trkpt lat="43.89699" lon="1.81283">
        <ele>171</ele>
        <time>2018-06-14T20:25:47Z</time>
      </trkpt>
      <trkpt lat="43.89695" lon="1.81283">
        <ele>171</ele>
        <time>2018-06-14T20:25:48Z</time>
      </trkpt>
      <trkpt lat="43.8969" lon="1.81283">
        <ele>171</ele>
        <time>2018-06-14T20:25:49Z</time>
      </trkpt>
      <trkpt lat="43.89686" lon="1.81284">
        <ele>171</ele>
        <time>2018-06-14T20:25:50Z</time>
      </trkpt>
      <trkpt lat="43.89682" lon="1.81287">
        <ele>171</ele>
        <time>2018-06-14T20:25:51Z</time>
      </trkpt>
      <trkpt lat="43.89679" lon="1.81291">
        <ele>171</ele>
        <time>2018-06-14T20:25:52Z</time>
      </trkpt>
      <trkpt lat="43.89678" lon="1.81296">
        <ele>171</ele>
        <time>2018-06-14T20:25:53Z</time>
      </trkpt>
      <trkpt lat="43.89678" lon="1.81301">
        <ele>171</ele>
        <time>2018-06-14T20:25:54Z</time>
      </trkpt>
      <trkpt lat="43.89679" lon="1.81306">
        <ele>171</ele>
        <time>2018-06-14T20:25:55Z</time>
      </trkpt>
      <trkpt lat="43.89681" lon="1.8131">
        <ele>171</ele>
        <time>2018-06-14T20:25:56Z</time>
      </trkpt>
      <trkpt lat="43.89683" lon="1.81313">
        <ele>171</ele>
        <time>2018-06-14T20:25:57Z</time>
      </trkpt>
      <trkpt lat="43.89685" lon="1.81316">
        <ele>171</ele>
        <time>2018-06-14T20:25:58Z</time>
      </trkpt>
      <trkpt lat="43.89687" lon="1.81319">
        <ele>171</ele>
        <time>2018-06-14T20:25:59Z</time>
      </trkpt>
      <trkpt lat="43.89689" lon="1.81323">
        <ele>171</ele>
        <time>2018-06-14T20:26:00Z</time>
      </trkpt>
      <trkpt lat="43.89691" lon="1.81326">
        <ele>171</ele>
        <time>2018-06-14T20:26:01Z</time>
      </trkpt>
      <trkpt lat="43.89693" lon="1.81329">
        <ele>171</ele>
        <time>2018-06-14T20:26:02Z</time>
      </trkpt>
      <trkpt lat="43.89695" lon="1.81332">
        <ele>171</ele>
        <time>2018-06-14T20:26:03Z</time>
      </trkpt>
      <trkpt lat="43.89698" lon="1.81335">
        <ele>171</ele>
        <time>2018-06-14T20:26:04Z</time>
      </trkpt>
      <trkpt lat="43.897" lon="1.81338">
        <ele>171</ele>
        <time>2018-06-14T20:26:05Z</time>
      </trkpt>
      <trkpt lat="43.89701" lon="1.81341">
        <ele>171</ele>
        <time>2018-06-14T20:26:06Z</time>
      </trkpt>
      <trkpt lat="43.89703" lon="1.81343">
        <ele>172</ele>
        <time>2018-06-14T20:26:07Z</time>
      </trkpt>
      <trkpt lat="43.89705" lon="1.81346">
        <ele>172</ele>
        <time>2018-06-14T20:26:08Z</time>
      </trkpt>
      <trkpt lat="43.89707" lon="1.81349">
        <ele>172</ele>
        <time>2018-06-14T20:26:09Z</time>
      </trkpt>
      <trkpt lat="43.89708" lon="1.81352">
        <ele>172</ele>
        <time>2018-06-14T20:26:10Z</time>
      </trkpt>
      <trkpt lat="43.8971" lon="1.81356">
        <ele>172</ele>
        <time>2018-06-14T20:26:11Z</time>
      </trkpt>
      <trkpt lat="43.89711" lon="1.81359">
        <ele>172</ele>
        <time>2018-06-14T20:26:12Z</time>
      </trkpt>
      <trkpt lat="43.89713" lon="1.81362">
        <ele>173</ele>
        <time>2018-06-14T20:26:13Z</time>
      </trkpt>
      <trkpt lat="43.89714" lon="1.81365">
        <ele>173</ele>
        <time>2018-06-14T20:26:14Z</time>
      </trkpt>
      <trkpt lat="43.89715" lon="1.81368">
        <ele>173</ele>
        <time>2018-06-14T20:26:15Z</time>
      </trkpt>
      <trkpt lat="43.89716" lon="1.81371">
        <ele>173</ele>
        <time>2018-06-14T20:26:16Z</time>
      </trkpt>
      <trkpt lat="43.89717" lon="1.81375">
        <ele>173</ele>
        <time>2018-06-14T20:26:17Z</time>
      </trkpt>
      <trkpt lat="43.89717" lon="1.81378">
        <ele>173</ele>
        <time>2018-06-14T20:26:18Z</time>
      </trkpt>
      <trkpt lat="43.89718" lon="1.81382">
        <ele>173</ele>
        <time>2018-06-14T20:26:19Z</time>
      </trkpt>
      <trkpt lat="43.89719" lon="1.81385">
        <ele>173</ele>
        <time>2018-06-14T20:26:20Z</time>
      </trkpt>
      <trkpt lat="43.89719" lon="1.81388">
        <ele>174</ele>
        <time>2018-06-14T20:26:21Z</time>
      </trkpt>
      <trkpt lat="43.8972" lon="1.81392">
        <ele>174</ele>
        <time>2018-06-14T20:26:22Z</time>
      </trkpt>
      <trkpt lat="43.89721" lon="1.81395">
        <ele>174</ele>
        <time>2018-06-14T20:26:23Z</time>
      </trkpt>
      <trkpt lat="43.89722" lon="1.81398">
        <ele>174</ele>
        <time>2018-06-14T20:26:24Z</time>
      </trkpt>
      <trkpt lat="43.89723" lon="1.81402">
        <ele>174</ele>
        <time>2018-06-14T20:26:25Z</time>
      </trkpt>
      <trkpt lat="43.89724" lon="1.81405">
        <ele>174</ele>
        <time>2018-06-14T20:26:26Z</time>
      </trkpt>
      <trkpt lat="43.89725" lon="1.81409">
        <ele>174</ele>
        <time>2018-06-14T20:26:27Z</time>
      </trkpt>
      <trkpt lat="43.89726" lon="1.81412">
        <ele>174</ele>
        <time>2018-06-14T20:26:28Z</time>
      </trkpt>
      <trkpt lat="43.89728" lon="1.81416">
        <ele>174</ele>
        <time>2018-06-14T20:26:29Z</time>
      </trkpt>
      <trkpt lat="43.89729" lon="1.81419">
        <ele>174</ele>
        <time>2018-06-14T20:26:30Z</time>
      </trkpt>
      <trkpt lat="43.8973" lon="1.81422">
        <ele>175</ele>
        <time>2018-06-14T20:26:31Z</time>
      </trkpt>
      <trkpt lat="43.89731" lon="1.81426">
        <ele>175</ele>
        <time>2018-06-14T20:26:32Z</time>
      </trkpt>
      <trkpt lat="43.89732" lon="1.81429">
        <ele>175</ele>
        <time>2018-06-14T20:26:33Z</time>
      </trkpt>
      <trkpt lat="43.89733" lon="1.81432">
        <ele>175</ele>
        <time>2018-06-14T20:26:34Z</time>
      </trkpt>
      <trkpt lat="43.89734" lon="1.81436">
        <ele>175</ele>
        <time>2018-06-14T20:26:35Z</time>
      </trkpt>
      <trkpt lat="43.89735" lon="1.81439">
        <ele>176</ele>
        <time>2018-06-14T20:26:36Z</time>
      </trkpt>
      <trkpt lat="43.89735" lon="1.81441">
        <ele>176</ele>
        <time>2018-06-14T20:26:37Z</time>
      </trkpt>
      <trkpt lat="43.89736" lon="1.81444">
        <ele>176</ele>
        <time>2018-06-14T20:26:38Z</time>
      </trkpt>
      <trkpt lat="43.89737" lon="1.81448">
        <ele>176</ele>
        <time>2018-06-14T20:26:39Z</time>
      </trkpt>
      <trkpt lat="43.89737" lon="1.81451">
        <ele>176</ele>
        <time>2018-06-14T20:26:40Z</time>
      </trkpt>
      <trkpt lat="43.89738" lon="1.81454">
        <ele>176</ele>
        <time>2018-06-14T20:26:41Z</time>
      </trkpt>
      <trkpt lat="43.89739" lon="1.81457">
        <ele>177</ele>
        <time>2018-06-14T20:26:42Z</time>
      </trkpt>
      <trkpt lat="43.8974" lon="1.8146">
        <ele>177</ele>
        <time>2018-06-14T20:26:43Z</time>
      </trkpt>
      <trkpt lat="43.89741" lon="1.81464">
        <ele>177</ele>
        <time>2018-06-14T20:26:44Z</time>
      </trkpt>
      <trkpt lat="43.89742" lon="1.81468">
        <ele>177</ele>
        <time>2018-06-14T20:26:45Z</time>
      </trkpt>
      <trkpt lat="43.89742" lon="1.81471">
        <ele>177</ele>
        <time>2018-06-14T20:26:46Z</time>
      </trkpt>
      <trkpt lat="43.89743" lon="1.81474">
        <ele>177</ele>
        <time>2018-06-14T20:26:47Z</time>
      </trkpt>
      <trkpt lat="43.89744" lon="1.81478">
        <ele>177</ele>
        <time>2018-06-14T20:26:48Z</time>
      </trkpt>
      <trkpt lat="43.89744" lon="1.8148">
        <ele>178</ele>
        <time>2018-06-14T20:26:49Z</time>
      </trkpt>
      <trkpt lat="43.89745" lon="1.81483">
        <ele>178</ele>
        <time>2018-06-14T20:26:50Z</time>
      </trkpt>
      <trkpt lat="43.89745" lon="1.81487">
        <ele>178</ele>
        <time>2018-06-14T20:26:51Z</time>
      </trkpt>
      <trkpt lat="43.89745" lon="1.8149">
        <ele>178</ele>
        <time>2018-06-14T20:26:52Z</time>
      </trkpt>
      <trkpt lat="43.89746" lon="1.81493">
        <ele>179</ele>
        <time>2018-06-14T20:26:53Z</time>
      </trkpt>
      <trkpt lat="43.89746" lon="1.81496">
        <ele>179</ele>
        <time>2018-06-14T20:26:54Z</time>
      </trkpt>
      <trkpt lat="43.89747" lon="1.81499">
        <ele>179</ele>
        <time>2018-06-14T20:26:55Z</time>
      </trkpt>
      <trkpt lat="43.89747" lon="1.81502">
        <ele>179</ele>
        <time>2018-06-14T20:26:56Z</time>
      </trkpt>
      <trkpt lat="43.89748" lon="1.81505">
        <ele>179</ele>
        <time>2018-06-14T20:26:57Z</time>
      </trkpt>
      <trkpt lat="43.89748" lon="1.81508">
        <ele>179</ele>
        <time>2018-06-14T20:26:58Z</time>
      </trkpt>
      <trkpt lat="43.89748" lon="1.81512">
        <ele>179</ele>
        <time>2018-06-14T20:26:59Z</time>
      </trkpt>
      <trkpt lat="43.89748" lon="1.81515">
        <ele>179</ele>
        <time>2018-06-14T20:27:00Z</time>
      </trkpt>
      <trkpt lat="43.89749" lon="1.81518">
        <ele>179</ele>
        <time>2018-06-14T20:27:01Z</time>
      </trkpt>
      <trkpt lat="43.89749" lon="1.81521">
        <ele>179</ele>
        <time>2018-06-14T20:27:02Z</time>
      </trkpt>
      <trkpt lat="43.89749" lon="1.81525">
        <ele>179</ele>
        <time>2018-06-14T20:27:03Z</time>
      </trkpt>
      <trkpt lat="43.8975" lon="1.81528">
        <ele>179</ele>
        <time>2018-06-14T20:27:04Z</time>
      </trkpt>
      <trkpt lat="43.8975" lon="1.81532">
        <ele>180</ele>
        <time>2018-06-14T20:27:05Z</time>
      </trkpt>
      <trkpt lat="43.8975" lon="1.81535">
        <ele>180</ele>
        <time>2018-06-14T20:27:06Z</time>
      </trkpt>
      <trkpt lat="43.89751" lon="1.81539">
        <ele>180</ele>
        <time>2018-06-14T20:27:07Z</time>
      </trkpt>
      <trkpt lat="43.89751" lon="1.81542">
        <ele>180</ele>
        <time>2018-06-14T20:27:08Z</time>
      </trkpt>
      <trkpt lat="43.89751" lon="1.81546">
        <ele>180</ele>
        <time>2018-06-14T20:27:09Z</time>
      </trkpt>
      <trkpt lat="43.89752" lon="1.81549">
        <ele>180</ele>
        <time>2018-06-14T20:27:10Z</time>
      </trkpt>
      <trkpt lat="43.89752" lon="1.81552">
        <ele>180</ele>
        <time>2018-06-14T20:27:11Z</time>
      </trkpt>
      <trkpt lat="43.89752" lon="1.81556">
        <ele>180</ele>
        <time>2018-06-14T20:27:12Z</time>
      </trkpt>
      <trkpt lat="43.89752" lon="1.81559">
        <ele>180</ele>
        <time>2018-06-14T20:27:13Z</time>
      </trkpt>
      <trkpt lat="43.89753" lon="1.81563">
        <ele>180</ele>
        <time>2018-06-14T20:27:14Z</time>
      </trkpt>
      <trkpt lat="43.89754" lon="1.81567">
        <ele>180</ele>
        <time>2018-06-14T20:27:15Z</time>
      </trkpt>
      <trkpt lat="43.89755" lon="1.8157">
        <ele>180</ele>
        <time>2018-06-14T20:27:16Z</time>
      </trkpt>
      <trkpt lat="43.89755" lon="1.81574">
        <ele>180</ele>
        <time>2018-06-14T20:27:17Z</time>
      </trkpt>
      <trkpt lat="43.89756" lon="1.81578">
        <ele>180</ele>
        <time>2018-06-14T20:27:18Z</time>
      </trkpt>
      <trkpt lat="43.89757" lon="1.81582">
        <ele>180</ele>
        <time>2018-06-14T20:27:19Z</time>
      </trkpt>
      <trkpt lat="43.89758" lon="1.81585">
        <ele>180</ele>
        <time>2018-06-14T20:27:20Z</time>
      </trkpt>
      <trkpt lat="43.89758" lon="1.81589">
        <ele>180</ele>
        <time>2018-06-14T20:27:21Z</time>
      </trkpt>
      <trkpt lat="43.89759" lon="1.81592">
        <ele>180</ele>
        <time>2018-06-14T20:27:22Z</time>
      </trkpt>
      <trkpt lat="43.89759" lon="1.81596">
        <ele>180</ele>
        <time>2018-06-14T20:27:23Z</time>
      </trkpt>
      <trkpt lat="43.8976" lon="1.81599">
        <ele>180</ele>
        <time>2018-06-14T20:27:24Z</time>
      </trkpt>
      <trkpt lat="43.8976" lon="1.81603">
        <ele>180</ele>
        <time>2018-06-14T20:27:25Z</time>
      </trkpt>
      <trkpt lat="43.89761" lon="1.81606">
        <ele>180</ele>
        <time>2018-06-14T20:27:26Z</time>
      </trkpt>
      <trkpt lat="43.89762" lon="1.8161">
        <ele>181</ele>
        <time>2018-06-14T20:27:27Z</time>
      </trkpt>
      <trkpt lat="43.89763" lon="1.81613">
        <ele>181</ele>
        <time>2018-06-14T20:27:28Z</time>
      </trkpt>
      <trkpt lat="43.89764" lon="1.81617">
        <ele>181</ele>
        <time>2018-06-14T20:27:29Z</time>
      </trkpt>
      <trkpt lat="43.89764" lon="1.81621">
        <ele>181</ele>
        <time>2018-06-14T20:27:30Z</time>
      </trkpt>
      <trkpt lat="43.89765" lon="1.81624">
        <ele>181</ele>
        <time>2018-06-14T20:27:31Z</time>
      </trkpt>
      <trkpt lat="43.89766" lon="1.81628">
        <ele>181</ele>
        <time>2018-06-14T20:27:32Z</time>
      </trkpt>
      <trkpt lat="43.89767" lon="1.81631">
        <ele>181</ele>
        <time>2018-06-14T20:27:33Z</time>
      </trkpt>
      <trkpt lat="43.89767" lon="1.81634">
        <ele>181</ele>
        <time>2018-06-14T20:27:34Z</time>
      </trkpt>
      <trkpt lat="43.89768" lon="1.81638">
        <ele>181</ele>
        <time>2018-06-14T20:27:35Z</time>
      </trkpt>
      <trkpt lat="43.89769" lon="1.81641">
        <ele>181</ele>
        <time>2018-06-14T20:27:36Z</time>
      </trkpt>
      <trkpt lat="43.8977" lon="1.81645">
        <ele>181</ele>
        <time>2018-06-14T20:27:37Z</time>
      </trkpt>
      <trkpt lat="43.8977" lon="1.81648">
        <ele>181</ele>
        <time>2018-06-14T20:27:38Z</time>
      </trkpt>
      <trkpt lat="43.89771" lon="1.81651">
        <ele>181</ele>
        <time>2018-06-14T20:27:39Z</time>
      </trkpt>
      <trkpt lat="43.89772" lon="1.81654">
        <ele>181</ele>
        <time>2018-06-14T20:27:40Z</time>
      </trkpt>
      <trkpt lat="43.89772" lon="1.81658">
        <ele>181</ele>
        <time>2018-06-14T20:27:41Z</time>
      </trkpt>
      <trkpt lat="43.89773" lon="1.81661">
        <ele>181</ele>
        <time>2018-06-14T20:27:42Z</time>
      </trkpt>
      <trkpt lat="43.89774" lon="1.81665">
        <ele>181</ele>
        <time>2018-06-14T20:27:43Z</time>
      </trkpt>
      <trkpt lat="43.89775" lon="1.81668">
        <ele>182</ele>
        <time>2018-06-14T20:27:44Z</time>
      </trkpt>
      <trkpt lat="43.89775" lon="1.81671">
        <ele>182</ele>
        <time>2018-06-14T20:27:45Z</time>
      </trkpt>
      <trkpt lat="43.89776" lon="1.81675">
        <ele>182</ele>
        <time>2018-06-14T20:27:46Z</time>
      </trkpt>
      <trkpt lat="43.89777" lon="1.81679">
        <ele>182</ele>
        <time>2018-06-14T20:27:47Z</time>
      </trkpt>
      <trkpt lat="43.89777" lon="1.81682">
        <ele>182</ele>
        <time>2018-06-14T20:27:48Z</time>
      </trkpt>
      <trkpt lat="43.89778" lon="1.81686">
        <ele>182</ele>
        <time>2018-06-14T20:27:49Z</time>
      </trkpt>
      <trkpt lat="43.89779" lon="1.81689">
        <ele>182</ele>
        <time>2018-06-14T20:27:50Z</time>
      </trkpt>
      <trkpt lat="43.89779" lon="1.81693">
        <ele>182</ele>
        <time>2018-06-14T20:27:51Z</time>
      </trkpt>
      <trkpt lat="43.8978" lon="1.81696">
        <ele>182</ele>
        <time>2018-06-14T20:27:52Z</time>
      </trkpt>
      <trkpt lat="43.8978" lon="1.81699">
        <ele>182</ele>
        <time>2018-06-14T20:27:53Z</time>
      </trkpt>
      <trkpt lat="43.89781" lon="1.81702">
        <ele>182</ele>
        <time>2018-06-14T20:27:54Z</time>
      </trkpt>
      <trkpt lat="43.89782" lon="1.81705">
        <ele>183</ele>
        <time>2018-06-14T20:27:55Z</time>
      </trkpt>
      <trkpt lat="43.89782" lon="1.81708">
        <ele>183</ele>
        <time>2018-06-14T20:27:56Z</time>
      </trkpt>
      <trkpt lat="43.89783" lon="1.81712">
        <ele>183</ele>
        <time>2018-06-14T20:27:57Z</time>
      </trkpt>
      <trkpt lat="43.89783" lon="1.81715">
        <ele>183</ele>
        <time>2018-06-14T20:27:58Z</time>
      </trkpt>
      <trkpt lat="43.89784" lon="1.81718">
        <ele>183</ele>
        <time>2018-06-14T20:27:59Z</time>
      </trkpt>
      <trkpt lat="43.89785" lon="1.81721">
        <ele>183</ele>
        <time>2018-06-14T20:28:00Z</time>
      </trkpt>
      <trkpt lat="43.89786" lon="1.81724">
        <ele>183</ele>
        <time>2018-06-14T20:28:01Z</time>
      </trkpt>
      <trkpt lat="43.89787" lon="1.81727">
        <ele>183</ele>
        <time>2018-06-14T20:28:02Z</time>
      </trkpt>
      <trkpt lat="43.89787" lon="1.8173">
        <ele>183</ele>
        <time>2018-06-14T20:28:03Z</time>
      </trkpt>
      <trkpt lat="43.89788" lon="1.81733">
        <ele>183</ele>
        <time>2018-06-14T20:28:04Z</time>
      </trkpt>
      <trkpt lat="43.8979" lon="1.81736">
        <ele>183</ele>
        <time>2018-06-14T20:28:05Z</time>
      </trkpt>
      <trkpt lat="43.89792" lon="1.81739">
        <ele>183</ele>
        <time>2018-06-14T20:28:06Z</time>
      </trkpt>
      <trkpt lat="43.89793" lon="1.81741">
        <ele>183</ele>
        <time>2018-06-14T20:28:07Z</time>
      </trkpt>
      <trkpt lat="43.89795" lon="1.81744">
        <ele>183</ele>
        <time>2018-06-14T20:28:08Z</time>
      </trkpt>
      <trkpt lat="43.89797" lon="1.81746">
        <ele>183</ele>
        <time>2018-06-14T20:28:09Z</time>
      </trkpt>
      <trkpt lat="43.89799" lon="1.81747">
        <ele>183</ele>
        <time>2018-06-14T20:28:10Z</time>
      </trkpt>
      <trkpt lat="43.89801" lon="1.8175">
        <ele>184</ele>
        <time>2018-06-14T20:28:11Z</time>
      </trkpt>
      <trkpt lat="43.89802" lon="1.81752">
        <ele>184</ele>
        <time>2018-06-14T20:28:12Z</time>
      </trkpt>
      <trkpt lat="43.89804" lon="1.81753">
        <ele>184</ele>
        <time>2018-06-14T20:28:13Z</time>
      </trkpt>
      <trkpt lat="43.89806" lon="1.81755">
        <ele>184</ele>
        <time>2018-06-14T20:28:14Z</time>
      </trkpt>
      <trkpt lat="43.89808" lon="1.81757">
        <ele>184</ele>
        <time>2018-06-14T20:28:15Z</time>
      </trkpt>
      <trkpt lat="43.8981" lon="1.81759">
        <ele>184</ele>
        <time>2018-06-14T20:28:16Z</time>
      </trkpt>
      <trkpt lat="43.89812" lon="1.81761">
        <ele>184</ele>
        <time>2018-06-14T20:28:17Z</time>
      </trkpt>
      <trkpt lat="43.89814" lon="1.81763">
        <ele>184</ele>
        <time>2018-06-14T20:28:18Z</time>
      </trkpt>
      <trkpt lat="43.89815" lon="1.81765">
        <ele>184</ele>
        <time>2018-06-14T20:28:19Z</time>
      </trkpt>
      <trkpt lat="43.89817" lon="1.81767">
        <ele>184</ele>
        <time>2018-06-14T20:28:20Z</time>
      </trkpt>
      <trkpt lat="43.89818" lon="1.8177">
        <ele>184</ele>
        <time>2018-06-14T20:28:21Z</time>
      </trkpt>
      <trkpt lat="43.8982" lon="1.81771">
        <ele>184</ele>
        <time>2018-06-14T20:28:22Z</time>
      </trkpt>
      <trkpt lat="43.89822" lon="1.81773">
        <ele>185</ele>
        <time>2018-06-14T20:28:23Z</time>
      </trkpt>
      <trkpt lat="43.89823" lon="1.81775">
        <ele>185</ele>
        <time>2018-06-14T20:28:24Z</time>
      </trkpt>
      <trkpt lat="43.89825" lon="1.81777">
        <ele>185</ele>
        <time>2018-06-14T20:28:25Z</time>
      </trkpt>
      <trkpt lat="43.89826" lon="1.81779">
        <ele>185</ele>
        <time>2018-06-14T20:28:26Z</time>
      </trkpt>
      <trkpt lat="43.89827" lon="1.81781">
        <ele>185</ele>
        <time>2018-06-14T20:28:27Z</time>
      </trkpt>
      <trkpt lat="43.89829" lon="1.81783">
        <ele>185</ele>
        <time>2018-06-14T20:28:28Z</time>
      </trkpt>
      <trkpt lat="43.89829" lon="1.81785">
        <ele>186</ele>
        <time>2018-06-14T20:28:29Z</time>
      </trkpt>
      <trkpt lat="43.8983" lon="1.81787">
        <ele>186</ele>
        <time>2018-06-14T20:28:30Z</time>
      </trkpt>
      <trkpt lat="43.89831" lon="1.81788">
        <ele>186</ele>
        <time>2018-06-14T20:28:31Z</time>
      </trkpt>
      <trkpt lat="43.89832" lon="1.8179">
        <ele>186</ele>
        <time>2018-06-14T20:28:32Z</time>
      </trkpt>
      <trkpt lat="43.89833" lon="1.81792">
        <ele>186</ele>
        <time>2018-06-14T20:28:33Z</time>
      </trkpt>
      <trkpt lat="43.89833" lon="1.81794">
        <ele>186</ele>
        <time>2018-06-14T20:28:34Z</time>
      </trkpt>
      <trkpt lat="43.89834" lon="1.81795">
        <ele>186</ele>
        <time>2018-06-14T20:28:35Z</time>
      </trkpt>
      <trkpt lat="43.89834" lon="1.81797">
        <ele>186</ele>
        <time>2018-06-14T20:28:36Z</time>
      </trkpt>
      <trkpt lat="43.89835" lon="1.81798">
        <ele>186</ele>
        <time>2018-06-14T20:28:37Z</time>
      </trkpt>
      <trkpt lat="43.89835" lon="1.818">
        <ele>186</ele>
        <time>2018-06-14T20:28:38Z</time>
      </trkpt>
      <trkpt lat="43.89836" lon="1.81801">
        <ele>186</ele>
        <time>2018-06-14T20:28:39Z</time>
      </trkpt>
      <trkpt lat="43.89836" lon="1.81803">
        <ele>186</ele>
        <time>2018-06-14T20:28:40Z</time>
      </trkpt>
      <trkpt lat="43.89836" lon="1.81804">
        <ele>186</ele>
        <time>2018-06-14T20:28:41Z</time>
      </trkpt>
      <trkpt lat="43.89837" lon="1.81806">
        <ele>186</ele>
        <time>2018-06-14T20:28:42Z</time>
      </trkpt>
      <trkpt lat="43.89837" lon="1.81808">
        <ele>186</ele>
        <time>2018-06-14T20:28:43Z</time>
      </trkpt>
      <trkpt lat="43.89837" lon="1.8181">
        <ele>186</ele>
        <time>2018-06-14T20:28:44Z</time>
      </trkpt>
      <trkpt lat="43.89838" lon="1.81812">
        <ele>186</ele>
        <time>2018-06-14T20:28:45Z</time>
      </trkpt>
      <trkpt lat="43.89838" lon="1.81814">
        <ele>186</ele>
        <time>2018-06-14T20:28:46Z</time>
      </trkpt>
      <trkpt lat="43.89839" lon="1.81816">
        <ele>187</ele>
        <time>2018-06-14T20:28:47Z</time>
      </trkpt>
      <trkpt lat="43.8984" lon="1.81818">
        <ele>186</ele>
        <time>2018-06-14T20:28:48Z</time>
      </trkpt>
      <trkpt lat="43.89841" lon="1.8182">
        <ele>187</ele>
        <time>2018-06-14T20:28:49Z</time>
      </trkpt>
      <trkpt lat="43.89842" lon="1.81822">
        <ele>187</ele>
        <time>2018-06-14T20:28:50Z</time>
      </trkpt>
      <trkpt lat="43.89842" lon="1.81824">
        <ele>187</ele>
        <time>2018-06-14T20:28:51Z</time>
      </trkpt>
      <trkpt lat="43.89843" lon="1.81825">
        <ele>187</ele>
        <time>2018-06-14T20:28:52Z</time>
      </trkpt>
      <trkpt lat="43.89844" lon="1.81827">
        <ele>187</ele>
        <time>2018-06-14T20:28:53Z</time>
      </trkpt>
      <trkpt lat="43.89845" lon="1.81829">
        <ele>187</ele>
        <time>2018-06-14T20:28:54Z</time>
      </trkpt>
      <trkpt lat="43.89846" lon="1.81831">
        <ele>187</ele>
        <time>2018-06-14T20:28:55Z</time>
      </trkpt>
      <trkpt lat="43.89846" lon="1.81833">
        <ele>187</ele>
        <time>2018-06-14T20:28:56Z</time>
      </trkpt>
      <trkpt lat="43.89847" lon="1.81835">
        <ele>187</ele>
        <time>2018-06-14T20:28:57Z</time>
      </trkpt>
      <trkpt lat="43.89848" lon="1.81837">
        <ele>187</ele>
        <time>2018-06-14T20:28:58Z</time>
      </trkpt>
      <trkpt lat="43.89849" lon="1.81839">
        <ele>187</ele>
        <time>2018-06-14T20:28:59Z</time>
      </trkpt>
      <trkpt lat="43.89851" lon="1.81841">
        <ele>187</ele>
        <time>2018-06-14T20:29:00Z</time>
      </trkpt>
      <trkpt lat="43.89852" lon="1.81843">
        <ele>187</ele>
        <time>2018-06-14T20:29:01Z</time>
      </trkpt>
      <trkpt lat="43.89853" lon="1.81845">
        <ele>187</ele>
        <time>2018-06-14T20:29:02Z</time>
      </trkpt>
      <trkpt lat="43.89854" lon="1.81847">
        <ele>187</ele>
        <time>2018-06-14T20:29:03Z</time>
      </trkpt>
      <trkpt lat="43.89854" lon="1.81849">
        <ele>187</ele>
        <time>2018-06-14T20:29:04Z</time>
      </trkpt>
      <trkpt lat="43.89855" lon="1.81852">
        <ele>187</ele>
        <time>2018-06-14T20:29:05Z</time>
      </trkpt>
      <trkpt lat="43.89855" lon="1.81855">
        <ele>187</ele>
        <time>2018-06-14T20:29:06Z</time>
      </trkpt>
      <trkpt lat="43.89856" lon="1.81857">
        <ele>187</ele>
        <time>2018-06-14T20:29:07Z</time>
      </trkpt>
      <trkpt lat="43.89856" lon="1.8186">
        <ele>187</ele>
        <time>2018-06-14T20:29:08Z</time>
      </trkpt>
      <trkpt lat="43.89856" lon="1.81862">
        <ele>187</ele>
        <time>2018-06-14T20:29:09Z</time>
      </trkpt>
      <trkpt lat="43.89857" lon="1.81865">
        <ele>187</ele>
        <time>2018-06-14T20:29:10Z</time>
      </trkpt>
      <trkpt lat="43.89857" lon="1.81868">
        <ele>187</ele>
        <time>2018-06-14T20:29:11Z</time>
      </trkpt>
      <trkpt lat="43.89858" lon="1.8187">
        <ele>187</ele>
        <time>2018-06-14T20:29:12Z</time>
      </trkpt>
      <trkpt lat="43.89858" lon="1.81872">
        <ele>187</ele>
        <time>2018-06-14T20:29:13Z</time>
      </trkpt>
      <trkpt lat="43.89858" lon="1.81875">
        <ele>187</ele>
        <time>2018-06-14T20:29:14Z</time>
      </trkpt>
      <trkpt lat="43.89858" lon="1.81877">
        <ele>187</ele>
        <time>2018-06-14T20:29:15Z</time>
      </trkpt>
      <trkpt lat="43.89859" lon="1.8188">
        <ele>187</ele>
        <time>2018-06-14T20:29:16Z</time>
      </trkpt>
      <trkpt lat="43.89859" lon="1.81883">
        <ele>187</ele>
        <time>2018-06-14T20:29:17Z</time>
      </trkpt>
      <trkpt lat="43.89859" lon="1.81885">
        <ele>187</ele>
        <time>2018-06-14T20:29:18Z</time>
      </trkpt>
      <trkpt lat="43.8986" lon="1.81888">
        <ele>187</ele>
        <time>2018-06-14T20:29:19Z</time>
      </trkpt>
      <trkpt lat="43.8986" lon="1.81891">
        <ele>187</ele>
        <time>2018-06-14T20:29:20Z</time>
      </trkpt>
      <trkpt lat="43.8986" lon="1.81894">
        <ele>187</ele>
        <time>2018-06-14T20:29:21Z</time>
      </trkpt>
      <trkpt lat="43.8986" lon="1.81897">
        <ele>187</ele>
        <time>2018-06-14T20:29:22Z</time>
      </trkpt>
      <trkpt lat="43.89861" lon="1.819">
        <ele>187</ele>
        <time>2018-06-14T20:29:23Z</time>
      </trkpt>
      <trkpt lat="43.89861" lon="1.81902">
        <ele>187</ele>
        <time>2018-06-14T20:29:24Z</time>
      </trkpt>
      <trkpt lat="43.89862" lon="1.81904">
        <ele>187</ele>
        <time>2018-06-14T20:29:25Z</time>
      </trkpt>
      <trkpt lat="43.89862" lon="1.81907">
        <ele>187</ele>
        <time>2018-06-14T20:29:26Z</time>
      </trkpt>
      <trkpt lat="43.89862" lon="1.81909">
        <ele>187</ele>
        <time>2018-06-14T20:29:27Z</time>
      </trkpt>
      <trkpt lat="43.89862" lon="1.81912">
        <ele>187</ele>
        <time>2018-06-14T20:29:28Z</time>
      </trkpt>
      <trkpt lat="43.89863" lon="1.81915">
        <ele>187</ele>
        <time>2018-06-14T20:29:29Z</time>
      </trkpt>
      <trkpt lat="43.89863" lon="1.81918">
        <ele>187</ele>
        <time>2018-06-14T20:29:30Z</time>
      </trkpt>
      <trkpt lat="43.89864" lon="1.81921">
        <ele>187</ele>
        <time>2018-06-14T20:29:31Z</time>
      </trkpt>
      <trkpt lat="43.89864" lon="1.81924">
        <ele>187</ele>
        <time>2018-06-14T20:29:32Z</time>
      </trkpt>
      <trkpt lat="43.89864" lon="1.81927">
        <ele>187</ele>
        <time>2018-06-14T20:29:33Z</time>
      </trkpt>
      <trkpt lat="43.89865" lon="1.8193">
        <ele>187</ele>
        <time>2018-06-14T20:29:34Z</time>
      </trkpt>
      <trkpt lat="43.89866" lon="1.81933">
        <ele>187</ele>
        <time>2018-06-14T20:29:35Z</time>
      </trkpt>
      <trkpt lat="43.89866" lon="1.81936">
        <ele>187</ele>
        <time>2018-06-14T20:29:36Z</time>
      </trkpt>
      <trkpt lat="43.89866" lon="1.81939">
        <ele>187</ele>
        <time>2018-06-14T20:29:37Z</time>
      </trkpt>
      <trkpt lat="43.89867" lon="1.81941">
        <ele>187</ele>
        <time>2018-06-14T20:29:38Z</time>
      </trkpt>
      <trkpt lat="43.89867" lon="1.81944">
        <ele>187</ele>
        <time>2018-06-14T20:29:39Z</time>
      </trkpt>
      <trkpt lat="43.89868" lon="1.81947">
        <ele>187</ele>
        <time>2018-06-14T20:29:40Z</time>
      </trkpt>
      <trkpt lat="43.89868" lon="1.8195">
        <ele>187</ele>
        <time>2018-06-14T20:29:41Z</time>
      </trkpt>
      <trkpt lat="43.89869" lon="1.81952">
        <ele>188</ele>
        <time>2018-06-14T20:29:42Z</time>
      </trkpt>
      <trkpt lat="43.89869" lon="1.81954">
        <ele>188</ele>
        <time>2018-06-14T20:29:43Z</time>
      </trkpt>
      <trkpt lat="43.89869" lon="1.81957">
        <ele>188</ele>
        <time>2018-06-14T20:29:44Z</time>
      </trkpt>
      <trkpt lat="43.8987" lon="1.81959">
        <ele>188</ele>
        <time>2018-06-14T20:29:45Z</time>
      </trkpt>
      <trkpt lat="43.89871" lon="1.81961">
        <ele>188</ele>
        <time>2018-06-14T20:29:46Z</time>
      </trkpt>
      <trkpt lat="43.89871" lon="1.81964">
        <ele>188</ele>
        <time>2018-06-14T20:29:47Z</time>
      </trkpt>
      <trkpt lat="43.89872" lon="1.81966">
        <ele>188</ele>
        <time>2018-06-14T20:29:48Z</time>
      </trkpt>
      <trkpt lat="43.89873" lon="1.81969">
        <ele>188</ele>
        <time>2018-06-14T20:29:49Z</time>
      </trkpt>
      <trkpt lat="43.89874" lon="1.81971">
        <ele>188</ele>
        <time>2018-06-14T20:29:50Z</time>
      </trkpt>
      <trkpt lat="43.89874" lon="1.81973">
        <ele>188</ele>
        <time>2018-06-14T20:29:51Z</time>
      </trkpt>
      <trkpt lat="43.89874" lon="1.81976">
        <ele>188</ele>
        <time>2018-06-14T20:29:52Z</time>
      </trkpt>
      <trkpt lat="43.89875" lon="1.81978">
        <ele>188</ele>
        <time>2018-06-14T20:29:53Z</time>
      </trkpt>
      <trkpt lat="43.89875" lon="1.81981">
        <ele>188</ele>
        <time>2018-06-14T20:29:54Z</time>
      </trkpt>
      <trkpt lat="43.89876" lon="1.81983">
        <ele>188</ele>
        <time>2018-06-14T20:29:55Z</time>
      </trkpt>
      <trkpt lat="43.89877" lon="1.81985">
        <ele>188</ele>
        <time>2018-06-14T20:29:56Z</time>
      </trkpt>
      <trkpt lat="43.89878" lon="1.81988">
        <ele>188</ele>
        <time>2018-06-14T20:29:57Z</time>
      </trkpt>
      <trkpt lat="43.89879" lon="1.8199">
        <ele>188</ele>
        <time>2018-06-14T20:29:58Z</time>
      </trkpt>
      <trkpt lat="43.8988" lon="1.81993">
        <ele>188</ele>
        <time>2018-06-14T20:29:59Z</time>
      </trkpt>
      <trkpt lat="43.89881" lon="1.81995">
        <ele>188</ele>
        <time>2018-06-14T20:30:00Z</time>
      </trkpt>
      <trkpt lat="43.89882" lon="1.81998">
        <ele>189</ele>
        <time>2018-06-14T20:30:01Z</time>
      </trkpt>
      <trkpt lat="43.89882" lon="1.82001">
        <ele>189</ele>
        <time>2018-06-14T20:30:02Z</time>
      </trkpt>
      <trkpt lat="43.89883" lon="1.82003">
        <ele>189</ele>
        <time>2018-06-14T20:30:03Z</time>
      </trkpt>
      <trkpt lat="43.89883" lon="1.82006">
        <ele>189</ele>
        <time>2018-06-14T20:30:04Z</time>
      </trkpt>
      <trkpt lat="43.89883" lon="1.82009">
        <ele>189</ele>
        <time>2018-06-14T20:30:05Z</time>
      </trkpt>
      <trkpt lat="43.89883" lon="1.82011">
        <ele>189</ele>
        <time>2018-06-14T20:30:06Z</time>
      </trkpt>
      <trkpt lat="43.89884" lon="1.82014">
        <ele>189</ele>
        <time>2018-06-14T20:30:07Z</time>
      </trkpt>
      <trkpt lat="43.89885" lon="1.82016">
        <ele>189</ele>
        <time>2018-06-14T20:30:08Z</time>
      </trkpt>
      <trkpt lat="43.89886" lon="1.82019">
        <ele>189</ele>
        <time>2018-06-14T20:30:09Z</time>
      </trkpt>
      <trkpt lat="43.89886" lon="1.82021">
        <ele>189</ele>
        <time>2018-06-14T20:30:10Z</time>
      </trkpt>
      <trkpt lat="43.89887" lon="1.82024">
        <ele>189</ele>
        <time>2018-06-14T20:30:11Z</time>
      </trkpt>
      <trkpt lat="43.89888" lon="1.82026">
        <ele>189</ele>
        <time>2018-06-14T20:30:12Z</time>
      </trkpt>
      <trkpt lat="43.89889" lon="1.82029">
        <ele>189</ele>
        <time>2018-06-14T20:30:13Z</time>
      </trkpt>
      <trkpt lat="43.8989" lon="1.82031">
        <ele>189</ele>
        <time>2018-06-14T20:30:14Z</time>
      </trkpt>
      <trkpt lat="43.8989" lon="1.82034">
        <ele>189</ele>
        <time>2018-06-14T20:30:15Z</time>
      </trkpt>
      <trkpt lat="43.89891" lon="1.82036">
        <ele>189</ele>
        <time>2018-06-14T20:30:16Z</time>
      </trkpt>
      <trkpt lat="43.89891" lon="1.82039">
        <ele>189</ele>
        <time>2018-06-14T20:30:17Z</time>
      </trkpt>
      <trkpt lat="43.89892" lon="1.82041">
        <ele>189</ele>
        <time>2018-06-14T20:30:18Z</time>
      </trkpt>
      <trkpt lat="43.89893" lon="1.82044">
        <ele>189</ele>
        <time>2018-06-14T20:30:19Z</time>
      </trkpt>
      <trkpt lat="43.89893" lon="1.82047">
        <ele>189</ele>
        <time>2018-06-14T20:30:20Z</time>
      </trkpt>
      <trkpt lat="43.89894" lon="1.82049">
        <ele>189</ele>
        <time>2018-06-14T20:30:21Z</time>
      </trkpt>
      <trkpt lat="43.89894" lon="1.82052">
        <ele>189</ele>
        <time>2018-06-14T20:30:22Z</time>
      </trkpt>
      <trkpt lat="43.89895" lon="1.82054">
        <ele>189</ele>
        <time>2018-06-14T20:30:23Z</time>
      </trkpt>
      <trkpt lat="43.89896" lon="1.82057">
        <ele>189</ele>
        <time>2018-06-14T20:30:24Z</time>
      </trkpt>
      <trkpt lat="43.89896" lon="1.82059">
        <ele>189</ele>
        <time>2018-06-14T20:30:25Z</time>
      </trkpt>
      <trkpt lat="43.89897" lon="1.82062">
        <ele>189</ele>
        <time>2018-06-14T20:30:26Z</time>
      </trkpt>
      <trkpt lat="43.89897" lon="1.82064">
        <ele>189</ele>
        <time>2018-06-14T20:30:27Z</time>
      </trkpt>
      <trkpt lat="43.89898" lon="1.82066">
        <ele>189</ele>
        <time>2018-06-14T20:30:28Z</time>
      </trkpt>
      <trkpt lat="43.89899" lon="1.82069">
        <ele>189</ele>
        <time>2018-06-14T20:30:29Z</time>
      </trkpt>
      <trkpt lat="43.89899" lon="1.82072">
        <ele>190</ele>
        <time>2018-06-14T20:30:30Z</time>
      </trkpt>
      <trkpt lat="43.899" lon="1.82075">
        <ele>190</ele>
        <time>2018-06-14T20:30:31Z</time>
      </trkpt>
      <trkpt lat="43.89901" lon="1.82077">
        <ele>190</ele>
        <time>2018-06-14T20:30:32Z</time>
      </trkpt>
      <trkpt lat="43.89901" lon="1.8208">
        <ele>190</ele>
        <time>2018-06-14T20:30:33Z</time>
      </trkpt>
      <trkpt lat="43.89902" lon="1.82083">
        <ele>190</ele>
        <time>2018-06-14T20:30:34Z</time>
      </trkpt>
      <trkpt lat="43.89903" lon="1.82085">
        <ele>190</ele>
        <time>2018-06-14T20:30:35Z</time>
      </trkpt>
      <trkpt lat="43.89903" lon="1.82088">
        <ele>190</ele>
        <time>2018-06-14T20:30:36Z</time>
      </trkpt>
      <trkpt lat="43.89903" lon="1.8209">
        <ele>190</ele>
        <time>2018-06-14T20:30:37Z</time>
      </trkpt>
      <trkpt lat="43.89904" lon="1.82093">
        <ele>190</ele>
        <time>2018-06-14T20:30:38Z</time>
      </trkpt>
      <trkpt lat="43.89904" lon="1.82095">
        <ele>190</ele>
        <time>2018-06-14T20:30:39Z</time>
      </trkpt>
      <trkpt lat="43.89904" lon="1.82097">
        <ele>190</ele>
        <time>2018-06-14T20:30:40Z</time>
      </trkpt>
      <trkpt lat="43.89904" lon="1.821">
        <ele>190</ele>
        <time>2018-06-14T20:30:41Z</time>
      </trkpt>
      <trkpt lat="43.89905" lon="1.82102">
        <ele>190</ele>
        <time>2018-06-14T20:30:42Z</time>
      </trkpt>
      <trkpt lat="43.89905" lon="1.82104">
        <ele>191</ele>
        <time>2018-06-14T20:30:43Z</time>
      </trkpt>
      <trkpt lat="43.89905" lon="1.82106">
        <ele>191</ele>
        <time>2018-06-14T20:30:44Z</time>
      </trkpt>
      <trkpt lat="43.89906" lon="1.82108">
        <ele>191</ele>
        <time>2018-06-14T20:30:45Z</time>
      </trkpt>
      <trkpt lat="43.89906" lon="1.8211">
        <ele>191</ele>
        <time>2018-06-14T20:30:46Z</time>
      </trkpt>
      <trkpt lat="43.89906" lon="1.82112">
        <ele>191</ele>
        <time>2018-06-14T20:30:47Z</time>
      </trkpt>
      <trkpt lat="43.89907" lon="1.82114">
        <ele>191</ele>
        <time>2018-06-14T20:30:48Z</time>
      </trkpt>
      <trkpt lat="43.89907" lon="1.82116">
        <ele>191</ele>
        <time>2018-06-14T20:30:49Z</time>
      </trkpt>
      <trkpt lat="43.89908" lon="1.82118">
        <ele>191</ele>
        <time>2018-06-14T20:30:50Z</time>
      </trkpt>
      <trkpt lat="43.89909" lon="1.82121">
        <ele>191</ele>
        <time>2018-06-14T20:30:51Z</time>
      </trkpt>
      <trkpt lat="43.8991" lon="1.82123">
        <ele>191</ele>
        <time>2018-06-14T20:30:52Z</time>
      </trkpt>
      <trkpt lat="43.8991" lon="1.82126">
        <ele>191</ele>
        <time>2018-06-14T20:30:53Z</time>
      </trkpt>
      <trkpt lat="43.89911" lon="1.82129">
        <ele>191</ele>
        <time>2018-06-14T20:30:54Z</time>
      </trkpt>
      <trkpt lat="43.89912" lon="1.82132">
        <ele>191</ele>
        <time>2018-06-14T20:30:55Z</time>
      </trkpt>
      <trkpt lat="43.89912" lon="1.82135">
        <ele>191</ele>
        <time>2018-06-14T20:30:56Z</time>
      </trkpt>
      <trkpt lat="43.89913" lon="1.82138">
        <ele>191</ele>
        <time>2018-06-14T20:30:57Z</time>
      </trkpt>
      <trkpt lat="43.89914" lon="1.82141">
        <ele>191</ele>
        <time>2018-06-14T20:30:58Z</time>
      </trkpt>
      <trkpt lat="43.89914" lon="1.82144">
        <ele>191</ele>
        <time>2018-06-14T20:30:59Z</time>
      </trkpt>
      <trkpt lat="43.89915" lon="1.82146">
        <ele>191</ele>
        <time>2018-06-14T20:31:00Z</time>
      </trkpt>
      <trkpt lat="43.89915" lon="1.82149">
        <ele>191</ele>
        <time>2018-06-14T20:31:01Z</time>
      </trkpt>
      <trkpt lat="43.89916" lon="1.82151">
        <ele>191</ele>
        <time>2018-06-14T20:31:02Z</time>
      </trkpt>
      <trkpt lat="43.89917" lon="1.82154">
        <ele>191</ele>
        <time>2018-06-14T20:31:03Z</time>
      </trkpt>
      <trkpt lat="43.89918" lon="1.82156">
        <ele>191</ele>
        <time>2018-06-14T20:31:04Z</time>
      </trkpt>
      <trkpt lat="43.89918" lon="1.82158">
        <ele>192</ele>
        <time>2018-06-14T20:31:05Z</time>
      </trkpt>
      <trkpt lat="43.89919" lon="1.8216">
        <ele>192</ele>
        <time>2018-06-14T20:31:06Z</time>
      </trkpt>
      <trkpt lat="43.8992" lon="1.82162">
        <ele>192</ele>
        <time>2018-06-14T20:31:07Z</time>
      </trkpt>
      <trkpt lat="43.8992" lon="1.82164">
        <ele>192</ele>
        <time>2018-06-14T20:31:08Z</time>
      </trkpt>
      <trkpt lat="43.89921" lon="1.82166">
        <ele>192</ele>
        <time>2018-06-14T20:31:09Z</time>
      </trkpt>
      <trkpt lat="43.89921" lon="1.82168">
        <ele>192</ele>
        <time>2018-06-14T20:31:10Z</time>
      </trkpt>
      <trkpt lat="43.89922" lon="1.82171">
        <ele>192</ele>
        <time>2018-06-14T20:31:11Z</time>
      </trkpt>
      <trkpt lat="43.89923" lon="1.82173">
        <ele>192</ele>
        <time>2018-06-14T20:31:12Z</time>
      </trkpt>
      <trkpt lat="43.89923" lon="1.82176">
        <ele>192</ele>
        <time>2018-06-14T20:31:13Z</time>
      </trkpt>
      <trkpt lat="43.89924" lon="1.82178">
        <ele>192</ele>
        <time>2018-06-14T20:31:14Z</time>
      </trkpt>
      <trkpt lat="43.89925" lon="1.82181">
        <ele>192</ele>
        <time>2018-06-14T20:31:15Z</time>
      </trkpt>
      <trkpt lat="43.89926" lon="1.82183">
        <ele>192</ele>
        <time>2018-06-14T20:31:16Z</time>
      </trkpt>
      <trkpt lat="43.89927" lon="1.82186">
        <ele>192</ele>
        <time>2018-06-14T20:31:17Z</time>
      </trkpt>
      <trkpt lat="43.89927" lon="1.82188">
        <ele>192</ele>
        <time>2018-06-14T20:31:18Z</time>
      </trkpt>
      <trkpt lat="43.89928" lon="1.8219">
        <ele>192</ele>
        <time>2018-06-14T20:31:19Z</time>
      </trkpt>
      <trkpt lat="43.89929" lon="1.82192">
        <ele>192</ele>
        <time>2018-06-14T20:31:20Z</time>
      </trkpt>
      <trkpt lat="43.8993" lon="1.82194">
        <ele>192</ele>
        <time>2018-06-14T20:31:21Z</time>
      </trkpt>
      <trkpt lat="43.89931" lon="1.82196">
        <ele>192</ele>
        <time>2018-06-14T20:31:22Z</time>
      </trkpt>
      <trkpt lat="43.89932" lon="1.82198">
        <ele>192</ele>
        <time>2018-06-14T20:31:23Z</time>
      </trkpt>
      <trkpt lat="43.89932" lon="1.822">
        <ele>192</ele>
        <time>2018-06-14T20:31:24Z</time>
      </trkpt>
      <trkpt lat="43.89933" lon="1.82202">
        <ele>192</ele>
        <time>2018-06-14T20:31:25Z</time>
      </trkpt>
      <trkpt lat="43.89934" lon="1.82205">
        <ele>192</ele>
        <time>2018-06-14T20:31:26Z</time>
      </trkpt>
      <trkpt lat="43.89934" lon="1.82207">
        <ele>192</ele>
        <time>2018-06-14T20:31:27Z</time>
      </trkpt>
      <trkpt lat="43.89935" lon="1.82209">
        <ele>192</ele>
        <time>2018-06-14T20:31:28Z</time>
      </trkpt>
      <trkpt lat="43.89935" lon="1.82211">
        <ele>192</ele>
        <time>2018-06-14T20:31:29Z</time>
      </trkpt>
      <trkpt lat="43.89935" lon="1.82212">
        <ele>192</ele>
        <time>2018-06-14T20:31:30Z</time>
      </trkpt>
      <trkpt lat="43.89936" lon="1.82214">
        <ele>192</ele>
        <time>2018-06-14T20:31:31Z</time>
      </trkpt>
      <trkpt lat="43.89936" lon="1.82216">
        <ele>193</ele>
        <time>2018-06-14T20:31:32Z</time>
      </trkpt>
      <trkpt lat="43.89937" lon="1.82217">
        <ele>192</ele>
        <time>2018-06-14T20:31:33Z</time>
      </trkpt>
      <trkpt lat="43.89937" lon="1.82219">
        <ele>192</ele>
        <time>2018-06-14T20:31:34Z</time>
      </trkpt>
      <trkpt lat="43.89938" lon="1.82221">
        <ele>192</ele>
        <time>2018-06-14T20:31:35Z</time>
      </trkpt>
      <trkpt lat="43.89938" lon="1.82223">
        <ele>192</ele>
        <time>2018-06-14T20:31:36Z</time>
      </trkpt>
      <trkpt lat="43.89939" lon="1.82225">
        <ele>192</ele>
        <time>2018-06-14T20:31:37Z</time>
      </trkpt>
      <trkpt lat="43.89939" lon="1.82227">
        <ele>193</ele>
        <time>2018-06-14T20:31:38Z</time>
      </trkpt>
      <trkpt lat="43.89939" lon="1.82229">
        <ele>193</ele>
        <time>2018-06-14T20:31:39Z</time>
      </trkpt>
      <trkpt lat="43.89939" lon="1.82229">
        <ele>193</ele>
        <time>2018-06-14T20:31:40Z</time>
      </trkpt>
      <trkpt lat="43.8994" lon="1.82233">
        <ele>193</ele>
        <time>2018-06-14T20:31:41Z</time>
      </trkpt>
      <trkpt lat="43.89941" lon="1.82235">
        <ele>193</ele>
        <time>2018-06-14T20:31:42Z</time>
      </trkpt>
      <trkpt lat="43.89941" lon="1.82237">
        <ele>193</ele>
        <time>2018-06-14T20:31:43Z</time>
      </trkpt>
      <trkpt lat="43.89942" lon="1.82239">
        <ele>193</ele>
        <time>2018-06-14T20:31:44Z</time>
      </trkpt>
      <trkpt lat="43.89943" lon="1.82241">
        <ele>193</ele>
        <time>2018-06-14T20:31:45Z</time>
      </trkpt>
      <trkpt lat="43.89944" lon="1.82243">
        <ele>193</ele>
        <time>2018-06-14T20:31:46Z</time>
      </trkpt>
      <trkpt lat="43.89944" lon="1.82245">
        <ele>193</ele>
        <time>2018-06-14T20:31:47Z</time>
      </trkpt>
      <trkpt lat="43.89945" lon="1.82247">
        <ele>193</ele>
        <time>2018-06-14T20:31:48Z</time>
      </trkpt>
      <trkpt lat="43.89945" lon="1.82247">
        <ele>193</ele>
        <time>2018-06-14T20:31:49Z</time>
      </trkpt>
      <trkpt lat="43.89946" lon="1.82251">
        <ele>193</ele>
        <time>2018-06-14T20:31:50Z</time>
      </trkpt>
      <trkpt lat="43.89946" lon="1.82253">
        <ele>193</ele>
        <time>2018-06-14T20:31:51Z</time>
      </trkpt>
      <trkpt lat="43.89947" lon="1.82255">
        <ele>193</ele>
        <time>2018-06-14T20:31:52Z</time>
      </trkpt>
      <trkpt lat="43.89948" lon="1.82257">
        <ele>193</ele>
        <time>2018-06-14T20:31:53Z</time>
      </trkpt>
      <trkpt lat="43.8995" lon="1.8226">
        <ele>193</ele>
        <time>2018-06-14T20:31:54Z</time>
      </trkpt>
      <trkpt lat="43.89951" lon="1.82263">
        <ele>193</ele>
        <time>2018-06-14T20:31:55Z</time>
      </trkpt>
      <trkpt lat="43.89952" lon="1.82266">
        <ele>194</ele>
        <time>2018-06-14T20:31:56Z</time>
      </trkpt>
      <trkpt lat="43.89954" lon="1.82269">
        <ele>194</ele>
        <time>2018-06-14T20:31:57Z</time>
      </trkpt>
      <trkpt lat="43.89954" lon="1.82273">
        <ele>194</ele>
        <time>2018-06-14T20:31:58Z</time>
      </trkpt>
      <trkpt lat="43.89955" lon="1.82276">
        <ele>194</ele>
        <time>2018-06-14T20:31:59Z</time>
      </trkpt>
      <trkpt lat="43.89955" lon="1.82279">
        <ele>194</ele>
        <time>2018-06-14T20:32:00Z</time>
      </trkpt>
      <trkpt lat="43.89955" lon="1.82278">
        <ele>194</ele>
        <time>2018-06-14T20:32:01Z</time>
      </trkpt>
      <trkpt lat="43.89957" lon="1.82284">
        <ele>194</ele>
        <time>2018-06-14T20:32:02Z</time>
      </trkpt>
      <trkpt lat="43.89957" lon="1.82286">
        <ele>194</ele>
        <time>2018-06-14T20:32:03Z</time>
      </trkpt>
      <trkpt lat="43.89957" lon="1.82286">
        <ele>195</ele>
        <time>2018-06-14T20:32:04Z</time>
      </trkpt>
      <trkpt lat="43.89958" lon="1.8229">
        <ele>195</ele>
        <time>2018-06-14T20:32:05Z</time>
      </trkpt>
      <trkpt lat="43.89958" lon="1.8229">
        <ele>195</ele>
        <time>2018-06-14T20:32:06Z</time>
      </trkpt>
      <trkpt lat="43.89958" lon="1.82294">
        <ele>195</ele>
        <time>2018-06-14T20:32:07Z</time>
      </trkpt>
      <trkpt lat="43.89958" lon="1.82297">
        <ele>195</ele>
        <time>2018-06-14T20:32:08Z</time>
      </trkpt>
      <trkpt lat="43.89958" lon="1.82297">
        <ele>195</ele>
        <time>2018-06-14T20:32:09Z</time>
      </trkpt>
      <trkpt lat="43.89958" lon="1.82301">
        <ele>195</ele>
        <time>2018-06-14T20:32:10Z</time>
      </trkpt>
      <trkpt lat="43.89958" lon="1.82301">
        <ele>195</ele>
        <time>2018-06-14T20:32:11Z</time>
      </trkpt>
      <trkpt lat="43.89958" lon="1.82305">
        <ele>195</ele>
        <time>2018-06-14T20:32:12Z</time>
      </trkpt>
      <trkpt lat="43.89958" lon="1.82306">
        <ele>195</ele>
        <time>2018-06-14T20:32:13Z</time>
      </trkpt>
      <trkpt lat="43.89958" lon="1.82308">
        <ele>195</ele>
        <time>2018-06-14T20:32:14Z</time>
      </trkpt>
      <trkpt lat="43.89958" lon="1.8231">
        <ele>195</ele>
        <time>2018-06-14T20:32:15Z</time>
      </trkpt>
      <trkpt lat="43.89958" lon="1.82311">
        <ele>195</ele>
        <time>2018-06-14T20:32:16Z</time>
      </trkpt>
      <trkpt lat="43.89958" lon="1.82313">
        <ele>195</ele>
        <time>2018-06-14T20:32:17Z</time>
      </trkpt>
      <trkpt lat="43.89958" lon="1.82315">
        <ele>195</ele>
        <time>2018-06-14T20:32:18Z</time>
      </trkpt>
      <trkpt lat="43.89958" lon="1.82316">
        <ele>195</ele>
        <time>2018-06-14T20:32:19Z</time>
      </trkpt>
      <trkpt lat="43.89958" lon="1.82316">
        <ele>195</ele>
        <time>2018-06-14T20:32:20Z</time>
      </trkpt>
      <trkpt lat="43.89959" lon="1.82319">
        <ele>195</ele>
        <time>2018-06-14T20:32:21Z</time>
      </trkpt>
      <trkpt lat="43.89959" lon="1.82321">
        <ele>195</ele>
        <time>2018-06-14T20:32:22Z</time>
      </trkpt>
      <trkpt lat="43.89959" lon="1.82323">
        <ele>195</ele>
        <time>2018-06-14T20:32:23Z</time>
      </trkpt>
      <trkpt lat="43.89959" lon="1.82325">
        <ele>195</ele>
        <time>2018-06-14T20:32:24Z</time>
      </trkpt>
      <trkpt lat="43.89959" lon="1.82326">
        <ele>195</ele>
        <time>2018-06-14T20:32:25Z</time>
      </trkpt>
      <trkpt lat="43.89959" lon="1.82328">
        <ele>195</ele>
        <time>2018-06-14T20:32:26Z</time>
      </trkpt>
      <trkpt lat="43.89959" lon="1.8233">
        <ele>195</ele>
        <time>2018-06-14T20:32:27Z</time>
      </trkpt>
      <trkpt lat="43.89958" lon="1.82331">
        <ele>195</ele>
        <time>2018-06-14T20:32:28Z</time>
      </trkpt>
      <trkpt lat="43.89959" lon="1.82331">
        <ele>195</ele>
        <time>2018-06-14T20:32:29Z</time>
      </trkpt>
      <trkpt lat="43.89958" lon="1.82334">
        <ele>195</ele>
        <time>2018-06-14T20:32:30Z</time>
      </trkpt>
      <trkpt lat="43.89957" lon="1.82335">
        <ele>195</ele>
        <time>2018-06-14T20:32:31Z</time>
      </trkpt>
      <trkpt lat="43.89958" lon="1.82337">
        <ele>195</ele>
        <time>2018-06-14T20:32:32Z</time>
      </trkpt>
      <trkpt lat="43.89957" lon="1.82339">
        <ele>195</ele>
        <time>2018-06-14T20:32:33Z</time>
      </trkpt>
      <trkpt lat="43.89957" lon="1.8234">
        <ele>195</ele>
        <time>2018-06-14T20:32:34Z</time>
      </trkpt>
      <trkpt lat="43.89956" lon="1.82342">
        <ele>195</ele>
        <time>2018-06-14T20:32:35Z</time>
      </trkpt>
      <trkpt lat="43.89956" lon="1.82341">
        <ele>195</ele>
        <time>2018-06-14T20:32:36Z</time>
      </trkpt>
      <trkpt lat="43.89955" lon="1.82345">
        <ele>196</ele>
        <time>2018-06-14T20:32:37Z</time>
      </trkpt>
      <trkpt lat="43.89955" lon="1.82344">
        <ele>195</ele>
        <time>2018-06-14T20:32:38Z</time>
      </trkpt>
      <trkpt lat="43.89954" lon="1.82348">
        <ele>196</ele>
        <time>2018-06-14T20:32:39Z</time>
      </trkpt>
      <trkpt lat="43.89953" lon="1.82349">
        <ele>195</ele>
        <time>2018-06-14T20:32:40Z</time>
      </trkpt>
      <trkpt lat="43.89951" lon="1.8235">
        <ele>196</ele>
        <time>2018-06-14T20:32:41Z</time>
      </trkpt>
      <trkpt lat="43.89952" lon="1.8235">
        <ele>196</ele>
        <time>2018-06-14T20:32:42Z</time>
      </trkpt>
      <trkpt lat="43.8995" lon="1.82352">
        <ele>196</ele>
        <time>2018-06-14T20:32:43Z</time>
      </trkpt>
      <trkpt lat="43.89949" lon="1.82354">
        <ele>196</ele>
        <time>2018-06-14T20:32:44Z</time>
      </trkpt>
      <trkpt lat="43.89947" lon="1.82355">
        <ele>196</ele>
        <time>2018-06-14T20:32:45Z</time>
      </trkpt>
      <trkpt lat="43.89948" lon="1.82355">
        <ele>196</ele>
        <time>2018-06-14T20:32:46Z</time>
      </trkpt>
      <trkpt lat="43.89945" lon="1.82358">
        <ele>196</ele>
        <time>2018-06-14T20:32:47Z</time>
      </trkpt>
      <trkpt lat="43.89944" lon="1.82359">
        <ele>196</ele>
        <time>2018-06-14T20:32:48Z</time>
      </trkpt>
      <trkpt lat="43.89944" lon="1.82359">
        <ele>196</ele>
        <time>2018-06-14T20:32:49Z</time>
      </trkpt>
      <trkpt lat="43.89942" lon="1.8236">
        <ele>196</ele>
        <time>2018-06-14T20:32:50Z</time>
      </trkpt>
      <trkpt lat="43.8994" lon="1.82361">
        <ele>196</ele>
        <time>2018-06-14T20:32:51Z</time>
      </trkpt>
      <trkpt lat="43.89941" lon="1.82361">
        <ele>196</ele>
        <time>2018-06-14T20:32:52Z</time>
      </trkpt>
      <trkpt lat="43.89938" lon="1.82362">
        <ele>196</ele>
        <time>2018-06-14T20:32:53Z</time>
      </trkpt>
      <trkpt lat="43.89937" lon="1.82364">
        <ele>196</ele>
        <time>2018-06-14T20:32:54Z</time>
      </trkpt>
      <trkpt lat="43.89936" lon="1.82365">
        <ele>196</ele>
        <time>2018-06-14T20:32:55Z</time>
      </trkpt>
      <trkpt lat="43.89935" lon="1.82366">
        <ele>196</ele>
        <time>2018-06-14T20:32:56Z</time>
      </trkpt>
      <trkpt lat="43.89934" lon="1.82367">
        <ele>196</ele>
        <time>2018-06-14T20:32:57Z</time>
      </trkpt>
      <trkpt lat="43.89934" lon="1.82367">
        <ele>196</ele>
        <time>2018-06-14T20:32:58Z</time>
      </trkpt>
      <trkpt lat="43.89933" lon="1.8237">
        <ele>196</ele>
        <time>2018-06-14T20:32:59Z</time>
      </trkpt>
      <trkpt lat="43.89933" lon="1.82372">
        <ele>196</ele>
        <time>2018-06-14T20:33:00Z</time>
      </trkpt>
      <trkpt lat="43.89934" lon="1.82373">
        <ele>197</ele>
        <time>2018-06-14T20:33:01Z</time>
      </trkpt>
      <trkpt lat="43.89934" lon="1.82375">
        <ele>197</ele>
        <time>2018-06-14T20:33:02Z</time>
      </trkpt>
      <trkpt lat="43.89934" lon="1.82376">
        <ele>197</ele>
        <time>2018-06-14T20:33:03Z</time>
      </trkpt>
      <trkpt lat="43.89935" lon="1.82378">
        <ele>197</ele>
        <time>2018-06-14T20:33:04Z</time>
      </trkpt>
      <trkpt lat="43.89935" lon="1.82379">
        <ele>197</ele>
        <time>2018-06-14T20:33:05Z</time>
      </trkpt>
      <trkpt lat="43.89935" lon="1.8238">
        <ele>197</ele>
        <time>2018-06-14T20:33:06Z</time>
      </trkpt>
      <trkpt lat="43.89935" lon="1.82382">
        <ele>197</ele>
        <time>2018-06-14T20:33:07Z</time>
      </trkpt>
      <trkpt lat="43.89936" lon="1.82383">
        <ele>197</ele>
        <time>2018-06-14T20:33:08Z</time>
      </trkpt>
      <trkpt lat="43.89936" lon="1.82383">
        <ele>198</ele>
        <time>2018-06-14T20:33:09Z</time>
      </trkpt>
      <trkpt lat="43.89936" lon="1.82385">
        <ele>198</ele>
        <time>2018-06-14T20:33:10Z</time>
      </trkpt>
      <trkpt lat="43.89936" lon="1.82386">
        <ele>198</ele>
        <time>2018-06-14T20:33:11Z</time>
      </trkpt>
      <trkpt lat="43.89936" lon="1.82387">
        <ele>198</ele>
        <time>2018-06-14T20:33:12Z</time>
      </trkpt>
      <trkpt lat="43.89936" lon="1.82388">
        <ele>198</ele>
        <time>2018-06-14T20:33:13Z</time>
      </trkpt>
      <trkpt lat="43.89936" lon="1.8239">
        <ele>198</ele>
        <time>2018-06-14T20:33:14Z</time>
      </trkpt>
      <trkpt lat="43.89936" lon="1.82391">
        <ele>198</ele>
        <time>2018-06-14T20:33:15Z</time>
      </trkpt>
      <trkpt lat="43.89937" lon="1.82392">
        <ele>198</ele>
        <time>2018-06-14T20:33:16Z</time>
      </trkpt>
      <trkpt lat="43.89937" lon="1.82394">
        <ele>198</ele>
        <time>2018-06-14T20:33:17Z</time>
      </trkpt>
      <trkpt lat="43.89937" lon="1.82395">
        <ele>198</ele>
        <time>2018-06-14T20:33:18Z</time>
      </trkpt>
      <trkpt lat="43.89938" lon="1.82396">
        <ele>198</ele>
        <time>2018-06-14T20:33:19Z</time>
      </trkpt>
      <trkpt lat="43.89938" lon="1.82398">
        <ele>198</ele>
        <time>2018-06-14T20:33:20Z</time>
      </trkpt>
      <trkpt lat="43.89938" lon="1.82399">
        <ele>198</ele>
        <time>2018-06-14T20:33:21Z</time>
      </trkpt>
      <trkpt lat="43.89938" lon="1.82401">
        <ele>198</ele>
        <time>2018-06-14T20:33:22Z</time>
      </trkpt>
      <trkpt lat="43.89939" lon="1.82403">
        <ele>198</ele>
        <time>2018-06-14T20:33:23Z</time>
      </trkpt>
      <trkpt lat="43.89939" lon="1.82405">
        <ele>198</ele>
        <time>2018-06-14T20:33:24Z</time>
      </trkpt>
      <trkpt lat="43.89939" lon="1.82404">
        <ele>198</ele>
        <time>2018-06-14T20:33:25Z</time>
      </trkpt>
      <trkpt lat="43.8994" lon="1.82406">
        <ele>198</ele>
        <time>2018-06-14T20:33:26Z</time>
      </trkpt>
      <trkpt lat="43.8994" lon="1.82406">
        <ele>198</ele>
        <time>2018-06-14T20:34:06Z</time>
      </trkpt>
      <trkpt lat="43.8994" lon="1.82407">
        <ele>198</ele>
        <time>2018-06-14T20:34:30Z</time>
      </trkpt>
      <trkpt lat="43.89941" lon="1.82408">
        <ele>198</ele>
        <time>2018-06-14T20:34:31Z</time>
      </trkpt>
      <trkpt lat="43.89942" lon="1.82409">
        <ele>198</ele>
        <time>2018-06-14T20:34:36Z</time>
      </trkpt>
      <trkpt lat="43.89941" lon="1.82409">
        <ele>198</ele>
        <time>2018-06-14T20:34:38Z</time>
      </trkpt>
      <trkpt lat="43.89942" lon="1.8241">
        <ele>198</ele>
        <time>2018-06-14T20:34:44Z</time>
      </trkpt>
      <trkpt lat="43.89942" lon="1.82411">
        <ele>198</ele>
        <time>2018-06-14T20:34:47Z</time>
      </trkpt>
      <trkpt lat="43.89943" lon="1.82412">
        <ele>198</ele>
        <time>2018-06-14T20:34:48Z</time>
      </trkpt>
      <trkpt lat="43.89943" lon="1.82414">
        <ele>198</ele>
        <time>2018-06-14T20:34:49Z</time>
      </trkpt>
      <trkpt lat="43.89944" lon="1.82415">
        <ele>198</ele>
        <time>2018-06-14T20:34:50Z</time>
      </trkpt>
      <trkpt lat="43.89944" lon="1.82416">
        <ele>198</ele>
        <time>2018-06-14T20:34:51Z</time>
      </trkpt>
      <trkpt lat="43.89945" lon="1.82418">
        <ele>198</ele>
        <time>2018-06-14T20:34:52Z</time>
      </trkpt>
      <trkpt lat="43.89945" lon="1.82418">
        <ele>198</ele>
        <time>2018-06-14T20:34:53Z</time>
      </trkpt>
      <trkpt lat="43.89946" lon="1.8242">
        <ele>198</ele>
        <time>2018-06-14T20:34:54Z</time>
      </trkpt>
      <trkpt lat="43.89947" lon="1.82422">
        <ele>199</ele>
        <time>2018-06-14T20:34:55Z</time>
      </trkpt>
      <trkpt lat="43.89947" lon="1.82422">
        <ele>199</ele>
        <time>2018-06-14T20:34:59Z</time>
      </trkpt>
      <trkpt lat="43.89947" lon="1.82423">
        <ele>198</ele>
        <time>2018-06-14T20:35:30Z</time>
      </trkpt>
      <trkpt lat="43.89947" lon="1.82424">
        <ele>198</ele>
        <time>2018-06-14T20:35:31Z</time>
      </trkpt>
      <trkpt lat="43.89948" lon="1.82427">
        <ele>198</ele>
        <time>2018-06-14T20:35:32Z</time>
      </trkpt>
      <trkpt lat="43.89949" lon="1.82428">
        <ele>198</ele>
        <time>2018-06-14T20:35:33Z</time>
      </trkpt>
      <trkpt lat="43.8995" lon="1.8243">
        <ele>198</ele>
        <time>2018-06-14T20:35:34Z</time>
      </trkpt>
      <trkpt lat="43.89951" lon="1.82432">
        <ele>198</ele>
        <time>2018-06-14T20:35:35Z</time>
      </trkpt>
      <trkpt lat="43.89952" lon="1.82434">
        <ele>199</ele>
        <time>2018-06-14T20:35:36Z</time>
      </trkpt>
      <trkpt lat="43.89952" lon="1.82435">
        <ele>199</ele>
        <time>2018-06-14T20:35:37Z</time>
      </trkpt>
      <trkpt lat="43.89953" lon="1.82437">
        <ele>199</ele>
        <time>2018-06-14T20:35:38Z</time>
      </trkpt>
      <trkpt lat="43.89953" lon="1.82436">
        <ele>199</ele>
        <time>2018-06-14T20:35:39Z</time>
      </trkpt>
      <trkpt lat="43.89953" lon="1.82439">
        <ele>199</ele>
        <time>2018-06-14T20:35:40Z</time>
      </trkpt>
      <trkpt lat="43.89954" lon="1.82441">
        <ele>199</ele>
        <time>2018-06-14T20:35:41Z</time>
      </trkpt>
      <trkpt lat="43.89955" lon="1.82442">
        <ele>199</ele>
        <time>2018-06-14T20:35:42Z</time>
      </trkpt>
      <trkpt lat="43.89956" lon="1.82443">
        <ele>199</ele>
        <time>2018-06-14T20:35:43Z</time>
      </trkpt>
      <trkpt lat="43.89955" lon="1.82443">
        <ele>199</ele>
        <time>2018-06-14T20:35:44Z</time>
      </trkpt>
      <trkpt lat="43.89957" lon="1.82446">
        <ele>199</ele>
        <time>2018-06-14T20:35:45Z</time>
      </trkpt>
      <trkpt lat="43.89957" lon="1.82448">
        <ele>199</ele>
        <time>2018-06-14T20:35:46Z</time>
      </trkpt>
      <trkpt lat="43.89958" lon="1.8245">
        <ele>199</ele>
        <time>2018-06-14T20:35:47Z</time>
      </trkpt>
      <trkpt lat="43.89958" lon="1.82451">
        <ele>199</ele>
        <time>2018-06-14T20:35:48Z</time>
      </trkpt>
      <trkpt lat="43.89959" lon="1.82453">
        <ele>199</ele>
        <time>2018-06-14T20:35:49Z</time>
      </trkpt>
      <trkpt lat="43.8996" lon="1.82454">
        <ele>199</ele>
        <time>2018-06-14T20:35:50Z</time>
      </trkpt>
      <trkpt lat="43.8996" lon="1.82456">
        <ele>199</ele>
        <time>2018-06-14T20:35:51Z</time>
      </trkpt>
      <trkpt lat="43.8996" lon="1.82457">
        <ele>199</ele>
        <time>2018-06-14T20:35:52Z</time>
      </trkpt>
      <trkpt lat="43.89961" lon="1.82459">
        <ele>199</ele>
        <time>2018-06-14T20:35:53Z</time>
      </trkpt>
      <trkpt lat="43.89961" lon="1.82461">
        <ele>199</ele>
        <time>2018-06-14T20:35:54Z</time>
      </trkpt>
      <trkpt lat="43.89962" lon="1.82463">
        <ele>200</ele>
        <time>2018-06-14T20:35:55Z</time>
      </trkpt>
      <trkpt lat="43.89962" lon="1.82464">
        <ele>200</ele>
        <time>2018-06-14T20:35:56Z</time>
      </trkpt>
      <trkpt lat="43.89962" lon="1.82466">
        <ele>200</ele>
        <time>2018-06-14T20:35:57Z</time>
      </trkpt>
      <trkpt lat="43.89963" lon="1.82468">
        <ele>200</ele>
        <time>2018-06-14T20:35:58Z</time>
      </trkpt>
      <trkpt lat="43.89963" lon="1.82469">
        <ele>200</ele>
        <time>2018-06-14T20:35:59Z</time>
      </trkpt>
      <trkpt lat="43.89963" lon="1.82471">
        <ele>200</ele>
        <time>2018-06-14T20:36:00Z</time>
      </trkpt>
      <trkpt lat="43.89963" lon="1.82472">
        <ele>200</ele>
        <time>2018-06-14T20:36:01Z</time>
      </trkpt>
      <trkpt lat="43.89964" lon="1.82474">
        <ele>200</ele>
        <time>2018-06-14T20:36:02Z</time>
      </trkpt>
      <trkpt lat="43.89964" lon="1.82475">
        <ele>200</ele>
        <time>2018-06-14T20:36:03Z</time>
      </trkpt>
      <trkpt lat="43.89964" lon="1.82476">
        <ele>200</ele>
        <time>2018-06-14T20:36:04Z</time>
      </trkpt>
      <trkpt lat="43.89965" lon="1.82478">
        <ele>200</ele>
        <time>2018-06-14T20:36:05Z</time>
      </trkpt>
      <trkpt lat="43.89965" lon="1.8248">
        <ele>200</ele>
        <time>2018-06-14T20:36:06Z</time>
      </trkpt>
      <trkpt lat="43.89965" lon="1.82481">
        <ele>200</ele>
        <time>2018-06-14T20:36:07Z</time>
      </trkpt>
      <trkpt lat="43.89966" lon="1.82483">
        <ele>201</ele>
        <time>2018-06-14T20:36:08Z</time>
      </trkpt>
      <trkpt lat="43.89967" lon="1.82485">
        <ele>201</ele>
        <time>2018-06-14T20:36:09Z</time>
      </trkpt>
      <trkpt lat="43.89967" lon="1.82486">
        <ele>201</ele>
        <time>2018-06-14T20:36:10Z</time>
      </trkpt>
      <trkpt lat="43.89968" lon="1.82487">
        <ele>201</ele>
        <time>2018-06-14T20:36:11Z</time>
      </trkpt>
      <trkpt lat="43.89968" lon="1.82489">
        <ele>201</ele>
        <time>2018-06-14T20:36:12Z</time>
      </trkpt>
      <trkpt lat="43.89969" lon="1.8249">
        <ele>201</ele>
        <time>2018-06-14T20:36:13Z</time>
      </trkpt>
      <trkpt lat="43.89969" lon="1.82492">
        <ele>201</ele>
        <time>2018-06-14T20:36:14Z</time>
      </trkpt>
      <trkpt lat="43.8997" lon="1.82493">
        <ele>201</ele>
        <time>2018-06-14T20:36:15Z</time>
      </trkpt>
      <trkpt lat="43.89971" lon="1.82495">
        <ele>201</ele>
        <time>2018-06-14T20:36:16Z</time>
      </trkpt>
      <trkpt lat="43.89972" lon="1.82497">
        <ele>201</ele>
        <time>2018-06-14T20:36:17Z</time>
      </trkpt>
      <trkpt lat="43.89973" lon="1.82498">
        <ele>202</ele>
        <time>2018-06-14T20:36:18Z</time>
      </trkpt>
      <trkpt lat="43.89973" lon="1.825">
        <ele>202</ele>
        <time>2018-06-14T20:36:19Z</time>
      </trkpt>
      <trkpt lat="43.89974" lon="1.82502">
        <ele>202</ele>
        <time>2018-06-14T20:36:20Z</time>
      </trkpt>
      <trkpt lat="43.89973" lon="1.82501">
        <ele>202</ele>
        <time>2018-06-14T20:36:21Z</time>
      </trkpt>
      <trkpt lat="43.89975" lon="1.82504">
        <ele>202</ele>
        <time>2018-06-14T20:36:22Z</time>
      </trkpt>
      <trkpt lat="43.89975" lon="1.82504">
        <ele>202</ele>
        <time>2018-06-14T20:36:23Z</time>
      </trkpt>
      <trkpt lat="43.89976" lon="1.82507">
        <ele>202</ele>
        <time>2018-06-14T20:36:24Z</time>
      </trkpt>
      <trkpt lat="43.89976" lon="1.82509">
        <ele>202</ele>
        <time>2018-06-14T20:36:25Z</time>
      </trkpt>
      <trkpt lat="43.89977" lon="1.82511">
        <ele>203</ele>
        <time>2018-06-14T20:36:26Z</time>
      </trkpt>
      <trkpt lat="43.89977" lon="1.82512">
        <ele>203</ele>
        <time>2018-06-14T20:36:27Z</time>
      </trkpt>
      <trkpt lat="43.89978" lon="1.82514">
        <ele>203</ele>
        <time>2018-06-14T20:36:28Z</time>
      </trkpt>
      <trkpt lat="43.89979" lon="1.82516">
        <ele>203</ele>
        <time>2018-06-14T20:36:29Z</time>
      </trkpt>
      <trkpt lat="43.89979" lon="1.82517">
        <ele>203</ele>
        <time>2018-06-14T20:36:30Z</time>
      </trkpt>
      <trkpt lat="43.8998" lon="1.82518">
        <ele>203</ele>
        <time>2018-06-14T20:36:31Z</time>
      </trkpt>
      <trkpt lat="43.8998" lon="1.8252">
        <ele>203</ele>
        <time>2018-06-14T20:36:32Z</time>
      </trkpt>
      <trkpt lat="43.8998" lon="1.82521">
        <ele>204</ele>
        <time>2018-06-14T20:36:33Z</time>
      </trkpt>
      <trkpt lat="43.8998" lon="1.82523">
        <ele>204</ele>
        <time>2018-06-14T20:36:34Z</time>
      </trkpt>
      <trkpt lat="43.8998" lon="1.82524">
        <ele>204</ele>
        <time>2018-06-14T20:36:35Z</time>
      </trkpt>
      <trkpt lat="43.8998" lon="1.82526">
        <ele>204</ele>
        <time>2018-06-14T20:36:36Z</time>
      </trkpt>
      <trkpt lat="43.8998" lon="1.82527">
        <ele>204</ele>
        <time>2018-06-14T20:36:37Z</time>
      </trkpt>
      <trkpt lat="43.8998" lon="1.82527">
        <ele>204</ele>
        <time>2018-06-14T20:36:38Z</time>
      </trkpt>
      <trkpt lat="43.89979" lon="1.82529">
        <ele>204</ele>
        <time>2018-06-14T20:36:39Z</time>
      </trkpt>
      <trkpt lat="43.89979" lon="1.82531">
        <ele>205</ele>
        <time>2018-06-14T20:36:40Z</time>
      </trkpt>
      <trkpt lat="43.89979" lon="1.8253">
        <ele>205</ele>
        <time>2018-06-14T20:36:41Z</time>
      </trkpt>
      <trkpt lat="43.89979" lon="1.82533">
        <ele>205</ele>
        <time>2018-06-14T20:36:42Z</time>
      </trkpt>
      <trkpt lat="43.89978" lon="1.82534">
        <ele>205</ele>
        <time>2018-06-14T20:36:43Z</time>
      </trkpt>
      <trkpt lat="43.89978" lon="1.82535">
        <ele>205</ele>
        <time>2018-06-14T20:36:44Z</time>
      </trkpt>
      <trkpt lat="43.89979" lon="1.82536">
        <ele>206</ele>
        <time>2018-06-14T20:36:45Z</time>
      </trkpt>
      <trkpt lat="43.89979" lon="1.82537">
        <ele>206</ele>
        <time>2018-06-14T20:36:46Z</time>
      </trkpt>
      <trkpt lat="43.89979" lon="1.82538">
        <ele>206</ele>
        <time>2018-06-14T20:36:47Z</time>
      </trkpt>
      <trkpt lat="43.89979" lon="1.8254">
        <ele>206</ele>
        <time>2018-06-14T20:36:48Z</time>
      </trkpt>
      <trkpt lat="43.89979" lon="1.82542">
        <ele>206</ele>
        <time>2018-06-14T20:36:49Z</time>
      </trkpt>
      <trkpt lat="43.89979" lon="1.82542">
        <ele>206</ele>
        <time>2018-06-14T20:36:50Z</time>
      </trkpt>
      <trkpt lat="43.8998" lon="1.82546">
        <ele>206</ele>
        <time>2018-06-14T20:36:51Z</time>
      </trkpt>
      <trkpt lat="43.8998" lon="1.82548">
        <ele>207</ele>
        <time>2018-06-14T20:36:52Z</time>
      </trkpt>
      <trkpt lat="43.8998" lon="1.8255">
        <ele>207</ele>
        <time>2018-06-14T20:36:53Z</time>
      </trkpt>
      <trkpt lat="43.8998" lon="1.8255">
        <ele>207</ele>
        <time>2018-06-14T20:36:54Z</time>
      </trkpt>
      <trkpt lat="43.8998" lon="1.82554">
        <ele>207</ele>
        <time>2018-06-14T20:36:55Z</time>
      </trkpt>
      <trkpt lat="43.8998" lon="1.82554">
        <ele>207</ele>
        <time>2018-06-14T20:36:56Z</time>
      </trkpt>
      <trkpt lat="43.89981" lon="1.82557">
        <ele>207</ele>
        <time>2018-06-14T20:36:57Z</time>
      </trkpt>
      <trkpt lat="43.89982" lon="1.8256">
        <ele>207</ele>
        <time>2018-06-14T20:36:58Z</time>
      </trkpt>
      <trkpt lat="43.89982" lon="1.82562">
        <ele>207</ele>
        <time>2018-06-14T20:36:59Z</time>
      </trkpt>
      <trkpt lat="43.89982" lon="1.82563">
        <ele>208</ele>
        <time>2018-06-14T20:37:00Z</time>
      </trkpt>
      <trkpt lat="43.89982" lon="1.82565">
        <ele>208</ele>
        <time>2018-06-14T20:37:01Z</time>
      </trkpt>
      <trkpt lat="43.89982" lon="1.82564">
        <ele>208</ele>
        <time>2018-06-14T20:37:02Z</time>
      </trkpt>
      <trkpt lat="43.89983" lon="1.82568">
        <ele>208</ele>
        <time>2018-06-14T20:37:03Z</time>
      </trkpt>
      <trkpt lat="43.89983" lon="1.82568">
        <ele>208</ele>
        <time>2018-06-14T20:37:04Z</time>
      </trkpt>
      <trkpt lat="43.89983" lon="1.82571">
        <ele>209</ele>
        <time>2018-06-14T20:37:05Z</time>
      </trkpt>
      <trkpt lat="43.89984" lon="1.82573">
        <ele>209</ele>
        <time>2018-06-14T20:37:06Z</time>
      </trkpt>
      <trkpt lat="43.89984" lon="1.82575">
        <ele>209</ele>
        <time>2018-06-14T20:37:07Z</time>
      </trkpt>
      <trkpt lat="43.89985" lon="1.82577">
        <ele>209</ele>
        <time>2018-06-14T20:37:08Z</time>
      </trkpt>
      <trkpt lat="43.89985" lon="1.82578">
        <ele>209</ele>
        <time>2018-06-14T20:37:09Z</time>
      </trkpt>
      <trkpt lat="43.89985" lon="1.8258">
        <ele>210</ele>
        <time>2018-06-14T20:37:10Z</time>
      </trkpt>
      <trkpt lat="43.89986" lon="1.82581">
        <ele>210</ele>
        <time>2018-06-14T20:37:11Z</time>
      </trkpt>
      <trkpt lat="43.89986" lon="1.82583">
        <ele>210</ele>
        <time>2018-06-14T20:37:12Z</time>
      </trkpt>
      <trkpt lat="43.89986" lon="1.82585">
        <ele>210</ele>
        <time>2018-06-14T20:37:13Z</time>
      </trkpt>
      <trkpt lat="43.89986" lon="1.82588">
        <ele>210</ele>
        <time>2018-06-14T20:37:14Z</time>
      </trkpt>
      <trkpt lat="43.89987" lon="1.8259">
        <ele>210</ele>
        <time>2018-06-14T20:37:15Z</time>
      </trkpt>
      <trkpt lat="43.89987" lon="1.82593">
        <ele>211</ele>
        <time>2018-06-14T20:37:16Z</time>
      </trkpt>
      <trkpt lat="43.89987" lon="1.82592">
        <ele>211</ele>
        <time>2018-06-14T20:37:17Z</time>
      </trkpt>
      <trkpt lat="43.89987" lon="1.82596">
        <ele>211</ele>
        <time>2018-06-14T20:37:18Z</time>
      </trkpt>
      <trkpt lat="43.89987" lon="1.82598">
        <ele>211</ele>
        <time>2018-06-14T20:37:19Z</time>
      </trkpt>
      <trkpt lat="43.89987" lon="1.826">
        <ele>211</ele>
        <time>2018-06-14T20:37:20Z</time>
      </trkpt>
      <trkpt lat="43.89988" lon="1.82602">
        <ele>211</ele>
        <time>2018-06-14T20:37:21Z</time>
      </trkpt>
      <trkpt lat="43.89988" lon="1.82602">
        <ele>211</ele>
        <time>2018-06-14T20:37:22Z</time>
      </trkpt>
      <trkpt lat="43.89989" lon="1.82606">
        <ele>211</ele>
        <time>2018-06-14T20:37:23Z</time>
      </trkpt>
      <trkpt lat="43.89989" lon="1.82608">
        <ele>211</ele>
        <time>2018-06-14T20:37:24Z</time>
      </trkpt>
      <trkpt lat="43.89989" lon="1.8261">
        <ele>212</ele>
        <time>2018-06-14T20:37:25Z</time>
      </trkpt>
      <trkpt lat="43.89989" lon="1.8261">
        <ele>212</ele>
        <time>2018-06-14T20:37:26Z</time>
      </trkpt>
      <trkpt lat="43.8999" lon="1.82614">
        <ele>212</ele>
        <time>2018-06-14T20:37:27Z</time>
      </trkpt>
      <trkpt lat="43.8999" lon="1.82616">
        <ele>212</ele>
        <time>2018-06-14T20:37:28Z</time>
      </trkpt>
      <trkpt lat="43.8999" lon="1.82615">
        <ele>212</ele>
        <time>2018-06-14T20:37:29Z</time>
      </trkpt>
      <trkpt lat="43.89991" lon="1.82619">
        <ele>212</ele>
        <time>2018-06-14T20:37:30Z</time>
      </trkpt>
      <trkpt lat="43.89991" lon="1.82621">
        <ele>212</ele>
        <time>2018-06-14T20:37:31Z</time>
      </trkpt>
      <trkpt lat="43.89991" lon="1.82623">
        <ele>212</ele>
        <time>2018-06-14T20:37:32Z</time>
      </trkpt>
      <trkpt lat="43.89991" lon="1.82625">
        <ele>212</ele>
        <time>2018-06-14T20:37:33Z</time>
      </trkpt>
      <trkpt lat="43.89991" lon="1.82627">
        <ele>212</ele>
        <time>2018-06-14T20:37:34Z</time>
      </trkpt>
      <trkpt lat="43.89991" lon="1.82629">
        <ele>212</ele>
        <time>2018-06-14T20:37:35Z</time>
      </trkpt>
      <trkpt lat="43.89991" lon="1.82628">
        <ele>212</ele>
        <time>2018-06-14T20:37:36Z</time>
      </trkpt>
      <trkpt lat="43.89992" lon="1.82631">
        <ele>213</ele>
        <time>2018-06-14T20:37:37Z</time>
      </trkpt>
      <trkpt lat="43.89992" lon="1.82632">
        <ele>213</ele>
        <time>2018-06-14T20:37:38Z</time>
      </trkpt>
      <trkpt lat="43.89992" lon="1.82634">
        <ele>213</ele>
        <time>2018-06-14T20:37:39Z</time>
      </trkpt>
      <trkpt lat="43.89992" lon="1.82634">
        <ele>213</ele>
        <time>2018-06-14T20:37:40Z</time>
      </trkpt>
      <trkpt lat="43.89992" lon="1.82638">
        <ele>213</ele>
        <time>2018-06-14T20:37:41Z</time>
      </trkpt>
      <trkpt lat="43.89992" lon="1.82637">
        <ele>213</ele>
        <time>2018-06-14T20:37:42Z</time>
      </trkpt>
      <trkpt lat="43.89991" lon="1.8264">
        <ele>213</ele>
        <time>2018-06-14T20:37:43Z</time>
      </trkpt>
      <trkpt lat="43.89991" lon="1.82642">
        <ele>214</ele>
        <time>2018-06-14T20:37:44Z</time>
      </trkpt>
      <trkpt lat="43.8999" lon="1.82643">
        <ele>214</ele>
        <time>2018-06-14T20:37:45Z</time>
      </trkpt>
      <trkpt lat="43.8999" lon="1.82645">
        <ele>214</ele>
        <time>2018-06-14T20:37:46Z</time>
      </trkpt>
      <trkpt lat="43.89991" lon="1.82647">
        <ele>214</ele>
        <time>2018-06-14T20:37:47Z</time>
      </trkpt>
      <trkpt lat="43.89991" lon="1.82649">
        <ele>214</ele>
        <time>2018-06-14T20:37:48Z</time>
      </trkpt>
      <trkpt lat="43.89991" lon="1.82651">
        <ele>214</ele>
        <time>2018-06-14T20:37:49Z</time>
      </trkpt>
      <trkpt lat="43.8999" lon="1.82654">
        <ele>215</ele>
        <time>2018-06-14T20:37:50Z</time>
      </trkpt>
      <trkpt lat="43.8999" lon="1.82656">
        <ele>215</ele>
        <time>2018-06-14T20:37:51Z</time>
      </trkpt>
      <trkpt lat="43.8999" lon="1.82658">
        <ele>215</ele>
        <time>2018-06-14T20:37:52Z</time>
      </trkpt>
      <trkpt lat="43.89989" lon="1.82659">
        <ele>215</ele>
        <time>2018-06-14T20:37:53Z</time>
      </trkpt>
      <trkpt lat="43.89989" lon="1.82661">
        <ele>215</ele>
        <time>2018-06-14T20:37:54Z</time>
      </trkpt>
      <trkpt lat="43.89989" lon="1.82663">
        <ele>215</ele>
        <time>2018-06-14T20:37:55Z</time>
      </trkpt>
      <trkpt lat="43.89989" lon="1.82662">
        <ele>216</ele>
        <time>2018-06-14T20:37:56Z</time>
      </trkpt>
      <trkpt lat="43.89988" lon="1.82666">
        <ele>216</ele>
        <time>2018-06-14T20:37:57Z</time>
      </trkpt>
      <trkpt lat="43.89988" lon="1.82667">
        <ele>216</ele>
        <time>2018-06-14T20:37:58Z</time>
      </trkpt>
      <trkpt lat="43.89988" lon="1.82669">
        <ele>216</ele>
        <time>2018-06-14T20:37:59Z</time>
      </trkpt>
      <trkpt lat="43.89988" lon="1.82671">
        <ele>216</ele>
        <time>2018-06-14T20:38:00Z</time>
      </trkpt>
      <trkpt lat="43.89988" lon="1.82673">
        <ele>216</ele>
        <time>2018-06-14T20:38:01Z</time>
      </trkpt>
      <trkpt lat="43.89988" lon="1.82675">
        <ele>216</ele>
        <time>2018-06-14T20:38:02Z</time>
      </trkpt>
      <trkpt lat="43.89988" lon="1.82677">
        <ele>217</ele>
        <time>2018-06-14T20:38:03Z</time>
      </trkpt>
      <trkpt lat="43.89988" lon="1.82679">
        <ele>217</ele>
        <time>2018-06-14T20:38:04Z</time>
      </trkpt>
      <trkpt lat="43.89988" lon="1.82681">
        <ele>217</ele>
        <time>2018-06-14T20:38:05Z</time>
      </trkpt>
      <trkpt lat="43.89988" lon="1.82682">
        <ele>217</ele>
        <time>2018-06-14T20:38:06Z</time>
      </trkpt>
      <trkpt lat="43.89987" lon="1.82684">
        <ele>217</ele>
        <time>2018-06-14T20:38:07Z</time>
      </trkpt>
      <trkpt lat="43.89987" lon="1.82685">
        <ele>217</ele>
        <time>2018-06-14T20:38:08Z</time>
      </trkpt>
      <trkpt lat="43.89987" lon="1.82685">
        <ele>217</ele>
        <time>2018-06-14T20:38:09Z</time>
      </trkpt>
      <trkpt lat="43.89986" lon="1.82688">
        <ele>218</ele>
        <time>2018-06-14T20:38:10Z</time>
      </trkpt>
      <trkpt lat="43.89986" lon="1.8269">
        <ele>218</ele>
        <time>2018-06-14T20:38:11Z</time>
      </trkpt>
      <trkpt lat="43.89985" lon="1.82692">
        <ele>218</ele>
        <time>2018-06-14T20:38:12Z</time>
      </trkpt>
      <trkpt lat="43.89984" lon="1.82694">
        <ele>219</ele>
        <time>2018-06-14T20:38:13Z</time>
      </trkpt>
      <trkpt lat="43.89984" lon="1.82696">
        <ele>219</ele>
        <time>2018-06-14T20:38:14Z</time>
      </trkpt>
      <trkpt lat="43.89984" lon="1.82698">
        <ele>219</ele>
        <time>2018-06-14T20:38:15Z</time>
      </trkpt>
      <trkpt lat="43.89984" lon="1.82697">
        <ele>219</ele>
        <time>2018-06-14T20:38:16Z</time>
      </trkpt>
      <trkpt lat="43.89983" lon="1.827">
        <ele>219</ele>
        <time>2018-06-14T20:38:17Z</time>
      </trkpt>
      <trkpt lat="43.89982" lon="1.82701">
        <ele>219</ele>
        <time>2018-06-14T20:38:18Z</time>
      </trkpt>
      <trkpt lat="43.89981" lon="1.82702">
        <ele>219</ele>
        <time>2018-06-14T20:38:19Z</time>
      </trkpt>
      <trkpt lat="43.8998" lon="1.82704">
        <ele>220</ele>
        <time>2018-06-14T20:38:20Z</time>
      </trkpt>
      <trkpt lat="43.89981" lon="1.82703">
        <ele>220</ele>
        <time>2018-06-14T20:38:21Z</time>
      </trkpt>
      <trkpt lat="43.89979" lon="1.82707">
        <ele>220</ele>
        <time>2018-06-14T20:38:22Z</time>
      </trkpt>
      <trkpt lat="43.89978" lon="1.82709">
        <ele>220</ele>
        <time>2018-06-14T20:38:23Z</time>
      </trkpt>
      <trkpt lat="43.89978" lon="1.82711">
        <ele>220</ele>
        <time>2018-06-14T20:38:24Z</time>
      </trkpt>
      <trkpt lat="43.89977" lon="1.82713">
        <ele>220</ele>
        <time>2018-06-14T20:38:25Z</time>
      </trkpt>
      <trkpt lat="43.89976" lon="1.82714">
        <ele>220</ele>
        <time>2018-06-14T20:38:26Z</time>
      </trkpt>
      <trkpt lat="43.89976" lon="1.82716">
        <ele>220</ele>
        <time>2018-06-14T20:38:27Z</time>
      </trkpt>
      <trkpt lat="43.89975" lon="1.82717">
        <ele>220</ele>
        <time>2018-06-14T20:38:28Z</time>
      </trkpt>
      <trkpt lat="43.89974" lon="1.82719">
        <ele>221</ele>
        <time>2018-06-14T20:38:29Z</time>
      </trkpt>
      <trkpt lat="43.89974" lon="1.82721">
        <ele>221</ele>
        <time>2018-06-14T20:38:30Z</time>
      </trkpt>
      <trkpt lat="43.89973" lon="1.82723">
        <ele>221</ele>
        <time>2018-06-14T20:38:31Z</time>
      </trkpt>
      <trkpt lat="43.89973" lon="1.82725">
        <ele>221</ele>
        <time>2018-06-14T20:38:32Z</time>
      </trkpt>
      <trkpt lat="43.89973" lon="1.82726">
        <ele>221</ele>
        <time>2018-06-14T20:38:33Z</time>
      </trkpt>
      <trkpt lat="43.89972" lon="1.82728">
        <ele>221</ele>
        <time>2018-06-14T20:38:34Z</time>
      </trkpt>
      <trkpt lat="43.89972" lon="1.8273">
        <ele>221</ele>
        <time>2018-06-14T20:38:35Z</time>
      </trkpt>
      <trkpt lat="43.89971" lon="1.82731">
        <ele>222</ele>
        <time>2018-06-14T20:38:36Z</time>
      </trkpt>
      <trkpt lat="43.8997" lon="1.82732">
        <ele>222</ele>
        <time>2018-06-14T20:38:37Z</time>
      </trkpt>
      <trkpt lat="43.89971" lon="1.82732">
        <ele>222</ele>
        <time>2018-06-14T20:38:38Z</time>
      </trkpt>
      <trkpt lat="43.89969" lon="1.82734">
        <ele>222</ele>
        <time>2018-06-14T20:38:39Z</time>
      </trkpt>
      <trkpt lat="43.89968" lon="1.82735">
        <ele>222</ele>
        <time>2018-06-14T20:38:40Z</time>
      </trkpt>
      <trkpt lat="43.89967" lon="1.82736">
        <ele>222</ele>
        <time>2018-06-14T20:38:41Z</time>
      </trkpt>
      <trkpt lat="43.89967" lon="1.82737">
        <ele>222</ele>
        <time>2018-06-14T20:38:42Z</time>
      </trkpt>
      <trkpt lat="43.89966" lon="1.82738">
        <ele>222</ele>
        <time>2018-06-14T20:38:43Z</time>
      </trkpt>
      <trkpt lat="43.89966" lon="1.82738">
        <ele>222</ele>
        <time>2018-06-14T20:38:44Z</time>
      </trkpt>
      <trkpt lat="43.89966" lon="1.82738">
        <ele>222</ele>
        <time>2018-06-14T20:39:24Z</time>
      </trkpt>
      <trkpt lat="43.89966" lon="1.82738">
        <ele>222</ele>
        <time>2018-06-14T20:40:04Z</time>
      </trkpt>
      <trkpt lat="43.89966" lon="1.82739">
        <ele>222</ele>
        <time>2018-06-14T20:40:44Z</time>
      </trkpt>
      <trkpt lat="43.89966" lon="1.82739">
        <ele>221</ele>
        <time>2018-06-14T20:41:24Z</time>
      </trkpt>
      <trkpt lat="43.89965" lon="1.8274">
        <ele>222</ele>
        <time>2018-06-14T20:41:57Z</time>
      </trkpt>
      <trkpt lat="43.89964" lon="1.82741">
        <ele>221</ele>
        <time>2018-06-14T20:41:58Z</time>
      </trkpt>
      <trkpt lat="43.89963" lon="1.82743">
        <ele>221</ele>
        <time>2018-06-14T20:41:59Z</time>
      </trkpt>
      <trkpt lat="43.8996" lon="1.82744">
        <ele>221</ele>
        <time>2018-06-14T20:42:00Z</time>
      </trkpt>
      <trkpt lat="43.89958" lon="1.82744">
        <ele>221</ele>
        <time>2018-06-14T20:42:01Z</time>
      </trkpt>
      <trkpt lat="43.89955" lon="1.82745">
        <ele>220</ele>
        <time>2018-06-14T20:42:02Z</time>
      </trkpt>
      <trkpt lat="43.89952" lon="1.82746">
        <ele>220</ele>
        <time>2018-06-14T20:42:03Z</time>
      </trkpt>
      <trkpt lat="43.89948" lon="1.82747">
        <ele>219</ele>
        <time>2018-06-14T20:42:04Z</time>
      </trkpt>
      <trkpt lat="43.89945" lon="1.82748">
        <ele>219</ele>
        <time>2018-06-14T20:42:05Z</time>
      </trkpt>
      <trkpt lat="43.89942" lon="1.82748">
        <ele>218</ele>
        <time>2018-06-14T20:42:06Z</time>
      </trkpt>
      <trkpt lat="43.89939" lon="1.8275">
        <ele>217</ele>
        <time>2018-06-14T20:42:07Z</time>
      </trkpt>
      <trkpt lat="43.89936" lon="1.82751">
        <ele>217</ele>
        <time>2018-06-14T20:42:08Z</time>
      </trkpt>
      <trkpt lat="43.89932" lon="1.82754">
        <ele>216</ele>
        <time>2018-06-14T20:42:09Z</time>
      </trkpt>
      <trkpt lat="43.89928" lon="1.82755">
        <ele>215</ele>
        <time>2018-06-14T20:42:10Z</time>
      </trkpt>
      <trkpt lat="43.89924" lon="1.82757">
        <ele>214</ele>
        <time>2018-06-14T20:42:11Z</time>
      </trkpt>
      <trkpt lat="43.89919" lon="1.82759">
        <ele>213</ele>
        <time>2018-06-14T20:42:12Z</time>
      </trkpt>
      <trkpt lat="43.89915" lon="1.8276">
        <ele>212</ele>
        <time>2018-06-14T20:42:13Z</time>
      </trkpt>
      <trkpt lat="43.8991" lon="1.82761">
        <ele>211</ele>
        <time>2018-06-14T20:42:14Z</time>
      </trkpt>
      <trkpt lat="43.89905" lon="1.82762">
        <ele>210</ele>
        <time>2018-06-14T20:42:15Z</time>
      </trkpt>
      <trkpt lat="43.89901" lon="1.82763">
        <ele>209</ele>
        <time>2018-06-14T20:42:16Z</time>
      </trkpt>
      <trkpt lat="43.89896" lon="1.82764">
        <ele>209</ele>
        <time>2018-06-14T20:42:17Z</time>
      </trkpt>
      <trkpt lat="43.89892" lon="1.82764">
        <ele>208</ele>
        <time>2018-06-14T20:42:18Z</time>
      </trkpt>
      <trkpt lat="43.89888" lon="1.82765">
        <ele>208</ele>
        <time>2018-06-14T20:42:19Z</time>
      </trkpt>
      <trkpt lat="43.89884" lon="1.82766">
        <ele>207</ele>
        <time>2018-06-14T20:42:20Z</time>
      </trkpt>
      <trkpt lat="43.8988" lon="1.82766">
        <ele>206</ele>
        <time>2018-06-14T20:42:21Z</time>
      </trkpt>
      <trkpt lat="43.89876" lon="1.82767">
        <ele>206</ele>
        <time>2018-06-14T20:42:22Z</time>
      </trkpt>
      <trkpt lat="43.89872" lon="1.82768">
        <ele>206</ele>
        <time>2018-06-14T20:42:23Z</time>
      </trkpt>
      <trkpt lat="43.89868" lon="1.82769">
        <ele>206</ele>
        <time>2018-06-14T20:42:24Z</time>
      </trkpt>
      <trkpt lat="43.89864" lon="1.82771">
        <ele>205</ele>
        <time>2018-06-14T20:42:25Z</time>
      </trkpt>
      <trkpt lat="43.8986" lon="1.82773">
        <ele>205</ele>
        <time>2018-06-14T20:42:26Z</time>
      </trkpt>
      <trkpt lat="43.89856" lon="1.82775">
        <ele>204</ele>
        <time>2018-06-14T20:42:27Z</time>
      </trkpt>
      <trkpt lat="43.89852" lon="1.82777">
        <ele>204</ele>
        <time>2018-06-14T20:42:28Z</time>
      </trkpt>
      <trkpt lat="43.89849" lon="1.8278">
        <ele>203</ele>
        <time>2018-06-14T20:42:29Z</time>
      </trkpt>
      <trkpt lat="43.89845" lon="1.82783">
        <ele>203</ele>
        <time>2018-06-14T20:42:30Z</time>
      </trkpt>
      <trkpt lat="43.89842" lon="1.82787">
        <ele>202</ele>
        <time>2018-06-14T20:42:31Z</time>
      </trkpt>
      <trkpt lat="43.89839" lon="1.82791">
        <ele>202</ele>
        <time>2018-06-14T20:42:32Z</time>
      </trkpt>
      <trkpt lat="43.89835" lon="1.82796">
        <ele>201</ele>
        <time>2018-06-14T20:42:33Z</time>
      </trkpt>
      <trkpt lat="43.89832" lon="1.82801">
        <ele>200</ele>
        <time>2018-06-14T20:42:34Z</time>
      </trkpt>
      <trkpt lat="43.89829" lon="1.82805">
        <ele>200</ele>
        <time>2018-06-14T20:42:35Z</time>
      </trkpt>
      <trkpt lat="43.89827" lon="1.8281">
        <ele>199</ele>
        <time>2018-06-14T20:42:36Z</time>
      </trkpt>
      <trkpt lat="43.89825" lon="1.82815">
        <ele>198</ele>
        <time>2018-06-14T20:42:37Z</time>
      </trkpt>
      <trkpt lat="43.89825" lon="1.8282">
        <ele>198</ele>
        <time>2018-06-14T20:42:38Z</time>
      </trkpt>
      <trkpt lat="43.89826" lon="1.82825">
        <ele>197</ele>
        <time>2018-06-14T20:42:39Z</time>
      </trkpt>
      <trkpt lat="43.89828" lon="1.82829">
        <ele>196</ele>
        <time>2018-06-14T20:42:40Z</time>
      </trkpt>
      <trkpt lat="43.89831" lon="1.82832">
        <ele>195</ele>
        <time>2018-06-14T20:42:41Z</time>
      </trkpt>
      <trkpt lat="43.89834" lon="1.82835">
        <ele>195</ele>
        <time>2018-06-14T20:42:42Z</time>
      </trkpt>
      <trkpt lat="43.89837" lon="1.82839">
        <ele>194</ele>
        <time>2018-06-14T20:42:43Z</time>
      </trkpt>
      <trkpt lat="43.89841" lon="1.82843">
        <ele>194</ele>
        <time>2018-06-14T20:42:44Z</time>
      </trkpt>
      <trkpt lat="43.89844" lon="1.82847">
        <ele>193</ele>
        <time>2018-06-14T20:42:45Z</time>
      </trkpt>
      <trkpt lat="43.89848" lon="1.8285">
        <ele>193</ele>
        <time>2018-06-14T20:42:46Z</time>
      </trkpt>
      <trkpt lat="43.89851" lon="1.82854">
        <ele>192</ele>
        <time>2018-06-14T20:42:47Z</time>
      </trkpt>
      <trkpt lat="43.89855" lon="1.82858">
        <ele>192</ele>
        <time>2018-06-14T20:42:48Z</time>
      </trkpt>
      <trkpt lat="43.89859" lon="1.82862">
        <ele>191</ele>
        <time>2018-06-14T20:42:49Z</time>
      </trkpt>
      <trkpt lat="43.89862" lon="1.82867">
        <ele>191</ele>
        <time>2018-06-14T20:42:50Z</time>
      </trkpt>
      <trkpt lat="43.89865" lon="1.82873">
        <ele>190</ele>
        <time>2018-06-14T20:42:51Z</time>
      </trkpt>
      <trkpt lat="43.89869" lon="1.82879">
        <ele>190</ele>
        <time>2018-06-14T20:42:52Z</time>
      </trkpt>
      <trkpt lat="43.89872" lon="1.82886">
        <ele>189</ele>
        <time>2018-06-14T20:42:53Z</time>
      </trkpt>
      <trkpt lat="43.89874" lon="1.82892">
        <ele>188</ele>
        <time>2018-06-14T20:42:54Z</time>
      </trkpt>
      <trkpt lat="43.89876" lon="1.82899">
        <ele>188</ele>
        <time>2018-06-14T20:42:55Z</time>
      </trkpt>
      <trkpt lat="43.89877" lon="1.82905">
        <ele>187</ele>
        <time>2018-06-14T20:42:56Z</time>
      </trkpt>
      <trkpt lat="43.89876" lon="1.82911">
        <ele>186</ele>
        <time>2018-06-14T20:42:57Z</time>
      </trkpt>
      <trkpt lat="43.89875" lon="1.82917">
        <ele>186</ele>
        <time>2018-06-14T20:42:58Z</time>
      </trkpt>
      <trkpt lat="43.89872" lon="1.82922">
        <ele>185</ele>
        <time>2018-06-14T20:42:59Z</time>
      </trkpt>
      <trkpt lat="43.89869" lon="1.82926">
        <ele>184</ele>
        <time>2018-06-14T20:43:00Z</time>
      </trkpt>
      <trkpt lat="43.89865" lon="1.8293">
        <ele>184</ele>
        <time>2018-06-14T20:43:01Z</time>
      </trkpt>
      <trkpt lat="43.89861" lon="1.82935">
        <ele>183</ele>
        <time>2018-06-14T20:43:02Z</time>
      </trkpt>
      <trkpt lat="43.89856" lon="1.8294">
        <ele>181</ele>
        <time>2018-06-14T20:43:03Z</time>
      </trkpt>
      <trkpt lat="43.8985" lon="1.82945">
        <ele>180</ele>
        <time>2018-06-14T20:43:04Z</time>
      </trkpt>
      <trkpt lat="43.89845" lon="1.8295">
        <ele>179</ele>
        <time>2018-06-14T20:43:05Z</time>
      </trkpt>
      <trkpt lat="43.89839" lon="1.82955">
        <ele>178</ele>
        <time>2018-06-14T20:43:06Z</time>
      </trkpt>
      <trkpt lat="43.89833" lon="1.82959">
        <ele>177</ele>
        <time>2018-06-14T20:43:07Z</time>
      </trkpt>
      <trkpt lat="43.89827" lon="1.82963">
        <ele>176</ele>
        <time>2018-06-14T20:43:08Z</time>
      </trkpt>
      <trkpt lat="43.89821" lon="1.82967">
        <ele>175</ele>
        <time>2018-06-14T20:43:09Z</time>
      </trkpt>
      <trkpt lat="43.89815" lon="1.8297">
        <ele>174</ele>
        <time>2018-06-14T20:43:10Z</time>
      </trkpt>
      <trkpt lat="43.89809" lon="1.82974">
        <ele>173</ele>
        <time>2018-06-14T20:43:11Z</time>
      </trkpt>
      <trkpt lat="43.89803" lon="1.82978">
        <ele>172</ele>
        <time>2018-06-14T20:43:12Z</time>
      </trkpt>
      <trkpt lat="43.89797" lon="1.82982">
        <ele>171</ele>
        <time>2018-06-14T20:43:13Z</time>
      </trkpt>
      <trkpt lat="43.89791" lon="1.82986">
        <ele>170</ele>
        <time>2018-06-14T20:43:14Z</time>
      </trkpt>
      <trkpt lat="43.89784" lon="1.8299">
        <ele>169</ele>
        <time>2018-06-14T20:43:15Z</time>
      </trkpt>
      <trkpt lat="43.89777" lon="1.82994">
        <ele>168</ele>
        <time>2018-06-14T20:43:16Z</time>
      </trkpt>
      <trkpt lat="43.89769" lon="1.82999">
        <ele>167</ele>
        <time>2018-06-14T20:43:17Z</time>
      </trkpt>
      <trkpt lat="43.89762" lon="1.83003">
        <ele>166</ele>
        <time>2018-06-14T20:43:18Z</time>
      </trkpt>
      <trkpt lat="43.89754" lon="1.83008">
        <ele>165</ele>
        <time>2018-06-14T20:43:19Z</time>
      </trkpt>
      <trkpt lat="43.89746" lon="1.83013">
        <ele>163</ele>
        <time>2018-06-14T20:43:20Z</time>
      </trkpt>
      <trkpt lat="43.89738" lon="1.83018">
        <ele>162</ele>
        <time>2018-06-14T20:43:21Z</time>
      </trkpt>
      <trkpt lat="43.89729" lon="1.83023">
        <ele>161</ele>
        <time>2018-06-14T20:43:22Z</time>
      </trkpt>
      <trkpt lat="43.8972" lon="1.83029">
        <ele>160</ele>
        <time>2018-06-14T20:43:23Z</time>
      </trkpt>
      <trkpt lat="43.89712" lon="1.83034">
        <ele>158</ele>
        <time>2018-06-14T20:43:24Z</time>
      </trkpt>
      <trkpt lat="43.89703" lon="1.83039">
        <ele>158</ele>
        <time>2018-06-14T20:43:25Z</time>
      </trkpt>
      <trkpt lat="43.89695" lon="1.83043">
        <ele>157</ele>
        <time>2018-06-14T20:43:26Z</time>
      </trkpt>
      <trkpt lat="43.89687" lon="1.83047">
        <ele>155</ele>
        <time>2018-06-14T20:43:27Z</time>
      </trkpt>
      <trkpt lat="43.89679" lon="1.83051">
        <ele>154</ele>
        <time>2018-06-14T20:43:28Z</time>
      </trkpt>
      <trkpt lat="43.89673" lon="1.83054">
        <ele>154</ele>
        <time>2018-06-14T20:43:29Z</time>
      </trkpt>
      <trkpt lat="43.89667" lon="1.83057">
        <ele>153</ele>
        <time>2018-06-14T20:43:30Z</time>
      </trkpt>
      <trkpt lat="43.89663" lon="1.8306">
        <ele>153</ele>
        <time>2018-06-14T20:43:31Z</time>
      </trkpt>
      <trkpt lat="43.89659" lon="1.83062">
        <ele>152</ele>
        <time>2018-06-14T20:43:32Z</time>
      </trkpt>
      <trkpt lat="43.89657" lon="1.83063">
        <ele>152</ele>
        <time>2018-06-14T20:43:33Z</time>
      </trkpt>
      <trkpt lat="43.89655" lon="1.83066">
        <ele>152</ele>
        <time>2018-06-14T20:43:34Z</time>
      </trkpt>
      <trkpt lat="43.89653" lon="1.83068">
        <ele>151</ele>
        <time>2018-06-14T20:43:35Z</time>
      </trkpt>
      <trkpt lat="43.89653" lon="1.8307">
        <ele>151</ele>
        <time>2018-06-14T20:43:36Z</time>
      </trkpt>
      <trkpt lat="43.89653" lon="1.83072">
        <ele>151</ele>
        <time>2018-06-14T20:43:37Z</time>
      </trkpt>
      <trkpt lat="43.89653" lon="1.83074">
        <ele>151</ele>
        <time>2018-06-14T20:43:38Z</time>
      </trkpt>
      <trkpt lat="43.89653" lon="1.83076">
        <ele>150</ele>
        <time>2018-06-14T20:43:39Z</time>
      </trkpt>
      <trkpt lat="43.89654" lon="1.83078">
        <ele>150</ele>
        <time>2018-06-14T20:43:40Z</time>
      </trkpt>
      <trkpt lat="43.89655" lon="1.83079">
        <ele>150</ele>
        <time>2018-06-14T20:43:41Z</time>
      </trkpt>
      <trkpt lat="43.89656" lon="1.83081">
        <ele>150</ele>
        <time>2018-06-14T20:43:42Z</time>
      </trkpt>
      <trkpt lat="43.89656" lon="1.83082">
        <ele>150</ele>
        <time>2018-06-14T20:43:43Z</time>
      </trkpt>
      <trkpt lat="43.89657" lon="1.83084">
        <ele>150</ele>
        <time>2018-06-14T20:43:44Z</time>
      </trkpt>
      <trkpt lat="43.89658" lon="1.83084">
        <ele>150</ele>
        <time>2018-06-14T20:43:45Z</time>
      </trkpt>
      <trkpt lat="43.89659" lon="1.83085">
        <ele>150</ele>
        <time>2018-06-14T20:43:46Z</time>
      </trkpt>
      <trkpt lat="43.8966" lon="1.83085">
        <ele>151</ele>
        <time>2018-06-14T20:43:47Z</time>
      </trkpt>
      <trkpt lat="43.89661" lon="1.83086">
        <ele>151</ele>
        <time>2018-06-14T20:43:48Z</time>
      </trkpt>
      <trkpt lat="43.8966" lon="1.83086">
        <ele>151</ele>
        <time>2018-06-14T20:43:49Z</time>
      </trkpt>
      <trkpt lat="43.89661" lon="1.83086">
        <ele>151</ele>
        <time>2018-06-14T20:43:50Z</time>
      </trkpt>
      <trkpt lat="43.89662" lon="1.83087">
        <ele>151</ele>
        <time>2018-06-14T20:44:23Z</time>
      </trkpt>
      <trkpt lat="43.89662" lon="1.83089">
        <ele>151</ele>
        <time>2018-06-14T20:44:24Z</time>
      </trkpt>
      <trkpt lat="43.89663" lon="1.8309">
        <ele>151</ele>
        <time>2018-06-14T20:44:25Z</time>
      </trkpt>
      <trkpt lat="43.89663" lon="1.83089">
        <ele>151</ele>
        <time>2018-06-14T20:44:26Z</time>
      </trkpt>
      <trkpt lat="43.89664" lon="1.8309">
        <ele>151</ele>
        <time>2018-06-14T20:44:27Z</time>
      </trkpt>
      <trkpt lat="43.89665" lon="1.8309">
        <ele>151</ele>
        <time>2018-06-14T20:44:47Z</time>
      </trkpt>
      <trkpt lat="43.89665" lon="1.8309">
        <ele>151</ele>
        <time>2018-06-14T20:44:48Z</time>
      </trkpt>
      <trkpt lat="43.89666" lon="1.83091">
        <ele>151</ele>
        <time>2018-06-14T20:44:49Z</time>
      </trkpt>
      <trkpt lat="43.89666" lon="1.83092">
        <ele>150</ele>
        <time>2018-06-14T20:44:51Z</time>
      </trkpt>
      <trkpt lat="43.89667" lon="1.83093">
        <ele>150</ele>
        <time>2018-06-14T20:44:52Z</time>
      </trkpt>
      <trkpt lat="43.89668" lon="1.83095">
        <ele>151</ele>
        <time>2018-06-14T20:44:53Z</time>
      </trkpt>
      <trkpt lat="43.89669" lon="1.83097">
        <ele>151</ele>
        <time>2018-06-14T20:44:54Z</time>
      </trkpt>
      <trkpt lat="43.89671" lon="1.83099">
        <ele>151</ele>
        <time>2018-06-14T20:44:55Z</time>
      </trkpt>
      <trkpt lat="43.89672" lon="1.83101">
        <ele>151</ele>
        <time>2018-06-14T20:44:56Z</time>
      </trkpt>
      <trkpt lat="43.89673" lon="1.83103">
        <ele>151</ele>
        <time>2018-06-14T20:44:57Z</time>
      </trkpt>
      <trkpt lat="43.89674" lon="1.83105">
        <ele>151</ele>
        <time>2018-06-14T20:44:58Z</time>
      </trkpt>
      <trkpt lat="43.89675" lon="1.83107">
        <ele>151</ele>
        <time>2018-06-14T20:44:59Z</time>
      </trkpt>
      <trkpt lat="43.89676" lon="1.83109">
        <ele>151</ele>
        <time>2018-06-14T20:45:00Z</time>
      </trkpt>
      <trkpt lat="43.89677" lon="1.8311">
        <ele>151</ele>
        <time>2018-06-14T20:45:01Z</time>
      </trkpt>
      <trkpt lat="43.89678" lon="1.83111">
        <ele>151</ele>
        <time>2018-06-14T20:45:02Z</time>
      </trkpt>
      <trkpt lat="43.89679" lon="1.83113">
        <ele>152</ele>
        <time>2018-06-14T20:45:03Z</time>
      </trkpt>
      <trkpt lat="43.8968" lon="1.83115">
        <ele>152</ele>
        <time>2018-06-14T20:45:04Z</time>
      </trkpt>
      <trkpt lat="43.89681" lon="1.83117">
        <ele>152</ele>
        <time>2018-06-14T20:45:05Z</time>
      </trkpt>
      <trkpt lat="43.89681" lon="1.83119">
        <ele>152</ele>
        <time>2018-06-14T20:45:06Z</time>
      </trkpt>
      <trkpt lat="43.89682" lon="1.83122">
        <ele>152</ele>
        <time>2018-06-14T20:45:07Z</time>
      </trkpt>
      <trkpt lat="43.89684" lon="1.83124">
        <ele>152</ele>
        <time>2018-06-14T20:45:08Z</time>
      </trkpt>
      <trkpt lat="43.89685" lon="1.83127">
        <ele>152</ele>
        <time>2018-06-14T20:45:09Z</time>
      </trkpt>
      <trkpt lat="43.89686" lon="1.83129">
        <ele>152</ele>
        <time>2018-06-14T20:45:10Z</time>
      </trkpt>
      <trkpt lat="43.89687" lon="1.83132">
        <ele>152</ele>
        <time>2018-06-14T20:45:11Z</time>
      </trkpt>
      <trkpt lat="43.89688" lon="1.83135">
        <ele>152</ele>
        <time>2018-06-14T20:45:12Z</time>
      </trkpt>
      <trkpt lat="43.8969" lon="1.83138">
        <ele>152</ele>
        <time>2018-06-14T20:45:13Z</time>
      </trkpt>
      <trkpt lat="43.89691" lon="1.83141">
        <ele>152</ele>
        <time>2018-06-14T20:45:14Z</time>
      </trkpt>
      <trkpt lat="43.89692" lon="1.83144">
        <ele>152</ele>
        <time>2018-06-14T20:45:15Z</time>
      </trkpt>
      <trkpt lat="43.89693" lon="1.83148">
        <ele>152</ele>
        <time>2018-06-14T20:45:16Z</time>
      </trkpt>
      <trkpt lat="43.89694" lon="1.83151">
        <ele>152</ele>
        <time>2018-06-14T20:45:17Z</time>
      </trkpt>
      <trkpt lat="43.89695" lon="1.83154">
        <ele>152</ele>
        <time>2018-06-14T20:45:18Z</time>
      </trkpt>
      <trkpt lat="43.89696" lon="1.83158">
        <ele>152</ele>
        <time>2018-06-14T20:45:19Z</time>
      </trkpt>
      <trkpt lat="43.89697" lon="1.83161">
        <ele>152</ele>
        <time>2018-06-14T20:45:20Z</time>
      </trkpt>
      <trkpt lat="43.89698" lon="1.83164">
        <ele>152</ele>
        <time>2018-06-14T20:45:21Z</time>
      </trkpt>
      <trkpt lat="43.89699" lon="1.83168">
        <ele>152</ele>
        <time>2018-06-14T20:45:22Z</time>
      </trkpt>
      <trkpt lat="43.897" lon="1.83171">
        <ele>152</ele>
        <time>2018-06-14T20:45:23Z</time>
      </trkpt>
      <trkpt lat="43.89701" lon="1.83174">
        <ele>152</ele>
        <time>2018-06-14T20:45:24Z</time>
      </trkpt>
      <trkpt lat="43.89703" lon="1.83177">
        <ele>152</ele>
        <time>2018-06-14T20:45:25Z</time>
      </trkpt>
      <trkpt lat="43.89704" lon="1.8318">
        <ele>152</ele>
        <time>2018-06-14T20:45:26Z</time>
      </trkpt>
      <trkpt lat="43.89705" lon="1.83183">
        <ele>152</ele>
        <time>2018-06-14T20:45:27Z</time>
      </trkpt>
      <trkpt lat="43.89706" lon="1.83187">
        <ele>152</ele>
        <time>2018-06-14T20:45:28Z</time>
      </trkpt>
      <trkpt lat="43.89707" lon="1.8319">
        <ele>152</ele>
        <time>2018-06-14T20:45:29Z</time>
      </trkpt>
      <trkpt lat="43.89708" lon="1.83194">
        <ele>152</ele>
        <time>2018-06-14T20:45:30Z</time>
      </trkpt>
      <trkpt lat="43.8971" lon="1.83197">
        <ele>152</ele>
        <time>2018-06-14T20:45:31Z</time>
      </trkpt>
      <trkpt lat="43.89711" lon="1.83201">
        <ele>152</ele>
        <time>2018-06-14T20:45:32Z</time>
      </trkpt>
      <trkpt lat="43.89711" lon="1.83204">
        <ele>152</ele>
        <time>2018-06-14T20:45:33Z</time>
      </trkpt>
      <trkpt lat="43.89713" lon="1.83207">
        <ele>152</ele>
        <time>2018-06-14T20:45:34Z</time>
      </trkpt>
      <trkpt lat="43.89713" lon="1.8321">
        <ele>152</ele>
        <time>2018-06-14T20:45:35Z</time>
      </trkpt>
      <trkpt lat="43.89714" lon="1.83214">
        <ele>152</ele>
        <time>2018-06-14T20:45:36Z</time>
      </trkpt>
      <trkpt lat="43.89715" lon="1.83218">
        <ele>152</ele>
        <time>2018-06-14T20:45:37Z</time>
      </trkpt>
      <trkpt lat="43.89716" lon="1.83221">
        <ele>152</ele>
        <time>2018-06-14T20:45:38Z</time>
      </trkpt>
      <trkpt lat="43.89718" lon="1.83225">
        <ele>152</ele>
        <time>2018-06-14T20:45:39Z</time>
      </trkpt>
      <trkpt lat="43.89719" lon="1.83229">
        <ele>152</ele>
        <time>2018-06-14T20:45:40Z</time>
      </trkpt>
      <trkpt lat="43.8972" lon="1.83233">
        <ele>152</ele>
        <time>2018-06-14T20:45:41Z</time>
      </trkpt>
      <trkpt lat="43.89721" lon="1.83236">
        <ele>152</ele>
        <time>2018-06-14T20:45:42Z</time>
      </trkpt>
      <trkpt lat="43.89722" lon="1.8324">
        <ele>152</ele>
        <time>2018-06-14T20:45:43Z</time>
      </trkpt>
      <trkpt lat="43.89724" lon="1.83243">
        <ele>153</ele>
        <time>2018-06-14T20:45:44Z</time>
      </trkpt>
      <trkpt lat="43.89724" lon="1.83247">
        <ele>153</ele>
        <time>2018-06-14T20:45:45Z</time>
      </trkpt>
      <trkpt lat="43.89725" lon="1.8325">
        <ele>153</ele>
        <time>2018-06-14T20:45:46Z</time>
      </trkpt>
      <trkpt lat="43.89726" lon="1.83254">
        <ele>153</ele>
        <time>2018-06-14T20:45:47Z</time>
      </trkpt>
      <trkpt lat="43.89727" lon="1.83257">
        <ele>153</ele>
        <time>2018-06-14T20:45:48Z</time>
      </trkpt>
      <trkpt lat="43.89728" lon="1.8326">
        <ele>153</ele>
        <time>2018-06-14T20:45:49Z</time>
      </trkpt>
      <trkpt lat="43.89729" lon="1.83264">
        <ele>153</ele>
        <time>2018-06-14T20:45:50Z</time>
      </trkpt>
      <trkpt lat="43.8973" lon="1.83267">
        <ele>153</ele>
        <time>2018-06-14T20:45:51Z</time>
      </trkpt>
      <trkpt lat="43.8973" lon="1.8327">
        <ele>153</ele>
        <time>2018-06-14T20:45:52Z</time>
      </trkpt>
      <trkpt lat="43.89731" lon="1.83275">
        <ele>153</ele>
        <time>2018-06-14T20:45:53Z</time>
      </trkpt>
      <trkpt lat="43.89732" lon="1.83279">
        <ele>153</ele>
        <time>2018-06-14T20:45:54Z</time>
      </trkpt>
      <trkpt lat="43.89733" lon="1.83284">
        <ele>153</ele>
        <time>2018-06-14T20:45:55Z</time>
      </trkpt>
      <trkpt lat="43.89734" lon="1.83288">
        <ele>153</ele>
        <time>2018-06-14T20:45:56Z</time>
      </trkpt>
      <trkpt lat="43.89735" lon="1.83293">
        <ele>153</ele>
        <time>2018-06-14T20:45:57Z</time>
      </trkpt>
      <trkpt lat="43.89736" lon="1.83297">
        <ele>153</ele>
        <time>2018-06-14T20:45:58Z</time>
      </trkpt>
      <trkpt lat="43.89737" lon="1.83301">
        <ele>153</ele>
        <time>2018-06-14T20:45:59Z</time>
      </trkpt>
      <trkpt lat="43.89737" lon="1.83305">
        <ele>153</ele>
        <time>2018-06-14T20:46:00Z</time>
      </trkpt>
      <trkpt lat="43.89737" lon="1.83309">
        <ele>153</ele>
        <time>2018-06-14T20:46:01Z</time>
      </trkpt>
      <trkpt lat="43.89738" lon="1.83313">
        <ele>153</ele>
        <time>2018-06-14T20:46:02Z</time>
      </trkpt>
      <trkpt lat="43.89739" lon="1.83317">
        <ele>153</ele>
        <time>2018-06-14T20:46:03Z</time>
      </trkpt>
      <trkpt lat="43.8974" lon="1.83322">
        <ele>153</ele>
        <time>2018-06-14T20:46:04Z</time>
      </trkpt>
      <trkpt lat="43.8974" lon="1.83326">
        <ele>154</ele>
        <time>2018-06-14T20:46:05Z</time>
      </trkpt>
      <trkpt lat="43.89741" lon="1.83331">
        <ele>154</ele>
        <time>2018-06-14T20:46:06Z</time>
      </trkpt>
      <trkpt lat="43.89741" lon="1.83335">
        <ele>154</ele>
        <time>2018-06-14T20:46:07Z</time>
      </trkpt>
      <trkpt lat="43.89742" lon="1.83339">
        <ele>154</ele>
        <time>2018-06-14T20:46:08Z</time>
      </trkpt>
      <trkpt lat="43.89742" lon="1.83344">
        <ele>154</ele>
        <time>2018-06-14T20:46:09Z</time>
      </trkpt>
      <trkpt lat="43.89743" lon="1.83348">
        <ele>154</ele>
        <time>2018-06-14T20:46:10Z</time>
      </trkpt>
      <trkpt lat="43.89743" lon="1.83353">
        <ele>154</ele>
        <time>2018-06-14T20:46:11Z</time>
      </trkpt>
      <trkpt lat="43.89744" lon="1.83358">
        <ele>154</ele>
        <time>2018-06-14T20:46:12Z</time>
      </trkpt>
      <trkpt lat="43.89745" lon="1.83363">
        <ele>154</ele>
        <time>2018-06-14T20:46:13Z</time>
      </trkpt>
      <trkpt lat="43.89746" lon="1.83368">
        <ele>154</ele>
        <time>2018-06-14T20:46:14Z</time>
      </trkpt>
      <trkpt lat="43.89746" lon="1.83373">
        <ele>154</ele>
        <time>2018-06-14T20:46:15Z</time>
      </trkpt>
      <trkpt lat="43.89747" lon="1.83377">
        <ele>154</ele>
        <time>2018-06-14T20:46:16Z</time>
      </trkpt>
      <trkpt lat="43.89747" lon="1.83382">
        <ele>154</ele>
        <time>2018-06-14T20:46:17Z</time>
      </trkpt>
      <trkpt lat="43.89748" lon="1.83387">
        <ele>154</ele>
        <time>2018-06-14T20:46:18Z</time>
      </trkpt>
      <trkpt lat="43.89749" lon="1.83391">
        <ele>154</ele>
        <time>2018-06-14T20:46:19Z</time>
      </trkpt>
      <trkpt lat="43.89749" lon="1.83396">
        <ele>154</ele>
        <time>2018-06-14T20:46:20Z</time>
      </trkpt>
      <trkpt lat="43.8975" lon="1.83401">
        <ele>154</ele>
        <time>2018-06-14T20:46:21Z</time>
      </trkpt>
      <trkpt lat="43.89751" lon="1.83406">
        <ele>154</ele>
        <time>2018-06-14T20:46:22Z</time>
      </trkpt>
      <trkpt lat="43.89752" lon="1.83411">
        <ele>154</ele>
        <time>2018-06-14T20:46:23Z</time>
      </trkpt>
      <trkpt lat="43.89753" lon="1.83415">
        <ele>154</ele>
        <time>2018-06-14T20:46:24Z</time>
      </trkpt>
      <trkpt lat="43.89753" lon="1.8342">
        <ele>154</ele>
        <time>2018-06-14T20:46:25Z</time>
      </trkpt>
      <trkpt lat="43.89754" lon="1.83425">
        <ele>154</ele>
        <time>2018-06-14T20:46:26Z</time>
      </trkpt>
      <trkpt lat="43.89754" lon="1.83429">
        <ele>155</ele>
        <time>2018-06-14T20:46:27Z</time>
      </trkpt>
      <trkpt lat="43.89755" lon="1.83433">
        <ele>155</ele>
        <time>2018-06-14T20:46:28Z</time>
      </trkpt>
      <trkpt lat="43.89756" lon="1.83437">
        <ele>155</ele>
        <time>2018-06-14T20:46:29Z</time>
      </trkpt>
      <trkpt lat="43.89757" lon="1.8344">
        <ele>155</ele>
        <time>2018-06-14T20:46:30Z</time>
      </trkpt>
      <trkpt lat="43.89757" lon="1.83444">
        <ele>155</ele>
        <time>2018-06-14T20:46:31Z</time>
      </trkpt>
      <trkpt lat="43.89758" lon="1.83448">
        <ele>155</ele>
        <time>2018-06-14T20:46:32Z</time>
      </trkpt>
      <trkpt lat="43.89759" lon="1.83452">
        <ele>155</ele>
        <time>2018-06-14T20:46:33Z</time>
      </trkpt>
      <trkpt lat="43.89759" lon="1.83456">
        <ele>155</ele>
        <time>2018-06-14T20:46:34Z</time>
      </trkpt>
      <trkpt lat="43.89759" lon="1.8346">
        <ele>155</ele>
        <time>2018-06-14T20:46:35Z</time>
      </trkpt>
      <trkpt lat="43.89759" lon="1.83465">
        <ele>155</ele>
        <time>2018-06-14T20:46:36Z</time>
      </trkpt>
      <trkpt lat="43.8976" lon="1.83469">
        <ele>155</ele>
        <time>2018-06-14T20:46:37Z</time>
      </trkpt>
      <trkpt lat="43.89761" lon="1.83473">
        <ele>155</ele>
        <time>2018-06-14T20:46:38Z</time>
      </trkpt>
      <trkpt lat="43.89761" lon="1.83478">
        <ele>155</ele>
        <time>2018-06-14T20:46:39Z</time>
      </trkpt>
      <trkpt lat="43.89762" lon="1.83482">
        <ele>155</ele>
        <time>2018-06-14T20:46:40Z</time>
      </trkpt>
      <trkpt lat="43.89763" lon="1.83486">
        <ele>155</ele>
        <time>2018-06-14T20:46:41Z</time>
      </trkpt>
      <trkpt lat="43.89763" lon="1.8349">
        <ele>155</ele>
        <time>2018-06-14T20:46:42Z</time>
      </trkpt>
      <trkpt lat="43.89764" lon="1.83495">
        <ele>155</ele>
        <time>2018-06-14T20:46:43Z</time>
      </trkpt>
      <trkpt lat="43.89764" lon="1.83499">
        <ele>155</ele>
        <time>2018-06-14T20:46:44Z</time>
      </trkpt>
      <trkpt lat="43.89765" lon="1.83503">
        <ele>155</ele>
        <time>2018-06-14T20:46:45Z</time>
      </trkpt>
      <trkpt lat="43.89765" lon="1.83507">
        <ele>155</ele>
        <time>2018-06-14T20:46:46Z</time>
      </trkpt>
      <trkpt lat="43.89766" lon="1.83512">
        <ele>156</ele>
        <time>2018-06-14T20:46:47Z</time>
      </trkpt>
      <trkpt lat="43.89766" lon="1.83516">
        <ele>156</ele>
        <time>2018-06-14T20:46:48Z</time>
      </trkpt>
      <trkpt lat="43.89767" lon="1.8352">
        <ele>156</ele>
        <time>2018-06-14T20:46:49Z</time>
      </trkpt>
      <trkpt lat="43.89768" lon="1.83524">
        <ele>156</ele>
        <time>2018-06-14T20:46:50Z</time>
      </trkpt>
      <trkpt lat="43.89769" lon="1.83529">
        <ele>156</ele>
        <time>2018-06-14T20:46:51Z</time>
      </trkpt>
      <trkpt lat="43.89769" lon="1.83533">
        <ele>156</ele>
        <time>2018-06-14T20:46:52Z</time>
      </trkpt>
      <trkpt lat="43.8977" lon="1.83537">
        <ele>156</ele>
        <time>2018-06-14T20:46:53Z</time>
      </trkpt>
      <trkpt lat="43.8977" lon="1.83542">
        <ele>156</ele>
        <time>2018-06-14T20:46:54Z</time>
      </trkpt>
      <trkpt lat="43.89771" lon="1.83546">
        <ele>156</ele>
        <time>2018-06-14T20:46:55Z</time>
      </trkpt>
      <trkpt lat="43.89771" lon="1.83551">
        <ele>156</ele>
        <time>2018-06-14T20:46:56Z</time>
      </trkpt>
      <trkpt lat="43.89772" lon="1.83556">
        <ele>156</ele>
        <time>2018-06-14T20:46:57Z</time>
      </trkpt>
      <trkpt lat="43.89773" lon="1.83561">
        <ele>156</ele>
        <time>2018-06-14T20:46:58Z</time>
      </trkpt>
      <trkpt lat="43.89773" lon="1.83565">
        <ele>156</ele>
        <time>2018-06-14T20:46:59Z</time>
      </trkpt>
      <trkpt lat="43.89774" lon="1.8357">
        <ele>156</ele>
        <time>2018-06-14T20:47:00Z</time>
      </trkpt>
      <trkpt lat="43.89775" lon="1.83575">
        <ele>156</ele>
        <time>2018-06-14T20:47:01Z</time>
      </trkpt>
      <trkpt lat="43.89776" lon="1.8358">
        <ele>156</ele>
        <time>2018-06-14T20:47:02Z</time>
      </trkpt>
      <trkpt lat="43.89777" lon="1.83585">
        <ele>156</ele>
        <time>2018-06-14T20:47:03Z</time>
      </trkpt>
      <trkpt lat="43.89778" lon="1.8359">
        <ele>157</ele>
        <time>2018-06-14T20:47:04Z</time>
      </trkpt>
      <trkpt lat="43.89779" lon="1.83595">
        <ele>157</ele>
        <time>2018-06-14T20:47:05Z</time>
      </trkpt>
      <trkpt lat="43.89779" lon="1.83599">
        <ele>157</ele>
        <time>2018-06-14T20:47:06Z</time>
      </trkpt>
      <trkpt lat="43.8978" lon="1.83604">
        <ele>157</ele>
        <time>2018-06-14T20:47:07Z</time>
      </trkpt>
      <trkpt lat="43.8978" lon="1.83609">
        <ele>157</ele>
        <time>2018-06-14T20:47:08Z</time>
      </trkpt>
      <trkpt lat="43.89781" lon="1.83614">
        <ele>157</ele>
        <time>2018-06-14T20:47:09Z</time>
      </trkpt>
      <trkpt lat="43.89782" lon="1.83619">
        <ele>157</ele>
        <time>2018-06-14T20:47:10Z</time>
      </trkpt>
      <trkpt lat="43.89782" lon="1.83625">
        <ele>157</ele>
        <time>2018-06-14T20:47:11Z</time>
      </trkpt>
      <trkpt lat="43.89784" lon="1.8363">
        <ele>157</ele>
        <time>2018-06-14T20:47:12Z</time>
      </trkpt>
      <trkpt lat="43.89785" lon="1.83635">
        <ele>157</ele>
        <time>2018-06-14T20:47:13Z</time>
      </trkpt>
      <trkpt lat="43.89786" lon="1.83641">
        <ele>157</ele>
        <time>2018-06-14T20:47:14Z</time>
      </trkpt>
      <trkpt lat="43.89786" lon="1.83646">
        <ele>157</ele>
        <time>2018-06-14T20:47:15Z</time>
      </trkpt>
      <trkpt lat="43.89787" lon="1.83651">
        <ele>157</ele>
        <time>2018-06-14T20:47:16Z</time>
      </trkpt>
      <trkpt lat="43.89789" lon="1.83656">
        <ele>157</ele>
        <time>2018-06-14T20:47:17Z</time>
      </trkpt>
      <trkpt lat="43.8979" lon="1.8366">
        <ele>157</ele>
        <time>2018-06-14T20:47:18Z</time>
      </trkpt>
      <trkpt lat="43.89791" lon="1.83665">
        <ele>157</ele>
        <time>2018-06-14T20:47:19Z</time>
      </trkpt>
      <trkpt lat="43.89792" lon="1.8367">
        <ele>157</ele>
        <time>2018-06-14T20:47:20Z</time>
      </trkpt>
      <trkpt lat="43.89793" lon="1.83675">
        <ele>157</ele>
        <time>2018-06-14T20:47:21Z</time>
      </trkpt>
      <trkpt lat="43.89794" lon="1.8368">
        <ele>157</ele>
        <time>2018-06-14T20:47:22Z</time>
      </trkpt>
      <trkpt lat="43.89795" lon="1.83685">
        <ele>157</ele>
        <time>2018-06-14T20:47:23Z</time>
      </trkpt>
      <trkpt lat="43.89796" lon="1.8369">
        <ele>157</ele>
        <time>2018-06-14T20:47:24Z</time>
      </trkpt>
      <trkpt lat="43.89798" lon="1.83694">
        <ele>157</ele>
        <time>2018-06-14T20:47:25Z</time>
      </trkpt>
      <trkpt lat="43.89799" lon="1.83699">
        <ele>157</ele>
        <time>2018-06-14T20:47:26Z</time>
      </trkpt>
      <trkpt lat="43.898" lon="1.83704">
        <ele>157</ele>
        <time>2018-06-14T20:47:27Z</time>
      </trkpt>
      <trkpt lat="43.89801" lon="1.83709">
        <ele>157</ele>
        <time>2018-06-14T20:47:28Z</time>
      </trkpt>
      <trkpt lat="43.89802" lon="1.83713">
        <ele>157</ele>
        <time>2018-06-14T20:47:29Z</time>
      </trkpt>
      <trkpt lat="43.89803" lon="1.83719">
        <ele>157</ele>
        <time>2018-06-14T20:47:30Z</time>
      </trkpt>
      <trkpt lat="43.89804" lon="1.83724">
        <ele>157</ele>
        <time>2018-06-14T20:47:31Z</time>
      </trkpt>
      <trkpt lat="43.89805" lon="1.83729">
        <ele>157</ele>
        <time>2018-06-14T20:47:32Z</time>
      </trkpt>
      <trkpt lat="43.89806" lon="1.83732">
        <ele>157</ele>
        <time>2018-06-14T20:47:33Z</time>
      </trkpt>
      <trkpt lat="43.89806" lon="1.83736">
        <ele>157</ele>
        <time>2018-06-14T20:47:34Z</time>
      </trkpt>
      <trkpt lat="43.89807" lon="1.83739">
        <ele>157</ele>
        <time>2018-06-14T20:47:35Z</time>
      </trkpt>
      <trkpt lat="43.89808" lon="1.83743">
        <ele>156</ele>
        <time>2018-06-14T20:47:36Z</time>
      </trkpt>
      <trkpt lat="43.89808" lon="1.83746">
        <ele>156</ele>
        <time>2018-06-14T20:47:37Z</time>
      </trkpt>
      <trkpt lat="43.89809" lon="1.83749">
        <ele>156</ele>
        <time>2018-06-14T20:47:38Z</time>
      </trkpt>
      <trkpt lat="43.8981" lon="1.83753">
        <ele>156</ele>
        <time>2018-06-14T20:47:39Z</time>
      </trkpt>
      <trkpt lat="43.89811" lon="1.83757">
        <ele>156</ele>
        <time>2018-06-14T20:47:40Z</time>
      </trkpt>
      <trkpt lat="43.89812" lon="1.83761">
        <ele>156</ele>
        <time>2018-06-14T20:47:41Z</time>
      </trkpt>
      <trkpt lat="43.89813" lon="1.83766">
        <ele>156</ele>
        <time>2018-06-14T20:47:42Z</time>
      </trkpt>
      <trkpt lat="43.89815" lon="1.8377">
        <ele>156</ele>
        <time>2018-06-14T20:47:43Z</time>
      </trkpt>
      <trkpt lat="43.89816" lon="1.83776">
        <ele>156</ele>
        <time>2018-06-14T20:47:44Z</time>
      </trkpt>
      <trkpt lat="43.89818" lon="1.83781">
        <ele>156</ele>
        <time>2018-06-14T20:47:45Z</time>
      </trkpt>
      <trkpt lat="43.8982" lon="1.83787">
        <ele>155</ele>
        <time>2018-06-14T20:47:46Z</time>
      </trkpt>
      <trkpt lat="43.89821" lon="1.83793">
        <ele>155</ele>
        <time>2018-06-14T20:47:47Z</time>
      </trkpt>
      <trkpt lat="43.89822" lon="1.83798">
        <ele>155</ele>
        <time>2018-06-14T20:47:48Z</time>
      </trkpt>
      <trkpt lat="43.89824" lon="1.83804">
        <ele>155</ele>
        <time>2018-06-14T20:47:49Z</time>
      </trkpt>
      <trkpt lat="43.89826" lon="1.83809">
        <ele>155</ele>
        <time>2018-06-14T20:47:50Z</time>
      </trkpt>
      <trkpt lat="43.89828" lon="1.83816">
        <ele>155</ele>
        <time>2018-06-14T20:47:51Z</time>
      </trkpt>
      <trkpt lat="43.8983" lon="1.83822">
        <ele>155</ele>
        <time>2018-06-14T20:47:52Z</time>
      </trkpt>
      <trkpt lat="43.89831" lon="1.83828">
        <ele>155</ele>
        <time>2018-06-14T20:47:53Z</time>
      </trkpt>
      <trkpt lat="43.89833" lon="1.83835">
        <ele>154</ele>
        <time>2018-06-14T20:47:54Z</time>
      </trkpt>
      <trkpt lat="43.89835" lon="1.83841">
        <ele>154</ele>
        <time>2018-06-14T20:47:55Z</time>
      </trkpt>
      <trkpt lat="43.89837" lon="1.83847">
        <ele>154</ele>
        <time>2018-06-14T20:47:56Z</time>
      </trkpt>
      <trkpt lat="43.89838" lon="1.83854">
        <ele>154</ele>
        <time>2018-06-14T20:47:57Z</time>
      </trkpt>
      <trkpt lat="43.8984" lon="1.8386">
        <ele>154</ele>
        <time>2018-06-14T20:47:58Z</time>
      </trkpt>
      <trkpt lat="43.89842" lon="1.83867">
        <ele>154</ele>
        <time>2018-06-14T20:47:59Z</time>
      </trkpt>
      <trkpt lat="43.89843" lon="1.83874">
        <ele>154</ele>
        <time>2018-06-14T20:48:00Z</time>
      </trkpt>
      <trkpt lat="43.89845" lon="1.83881">
        <ele>154</ele>
        <time>2018-06-14T20:48:01Z</time>
      </trkpt>
      <trkpt lat="43.89847" lon="1.83887">
        <ele>154</ele>
        <time>2018-06-14T20:48:02Z</time>
      </trkpt>
      <trkpt lat="43.89849" lon="1.83894">
        <ele>154</ele>
        <time>2018-06-14T20:48:03Z</time>
      </trkpt>
      <trkpt lat="43.8985" lon="1.83901">
        <ele>154</ele>
        <time>2018-06-14T20:48:04Z</time>
      </trkpt>
      <trkpt lat="43.89852" lon="1.83908">
        <ele>154</ele>
        <time>2018-06-14T20:48:05Z</time>
      </trkpt>
      <trkpt lat="43.89854" lon="1.83915">
        <ele>154</ele>
        <time>2018-06-14T20:48:06Z</time>
      </trkpt>
      <trkpt lat="43.89856" lon="1.83922">
        <ele>154</ele>
        <time>2018-06-14T20:48:07Z</time>
      </trkpt>
      <trkpt lat="43.89858" lon="1.83929">
        <ele>154</ele>
        <time>2018-06-14T20:48:08Z</time>
      </trkpt>
      <trkpt lat="43.8986" lon="1.83936">
        <ele>154</ele>
        <time>2018-06-14T20:48:09Z</time>
      </trkpt>
      <trkpt lat="43.89861" lon="1.83943">
        <ele>153</ele>
        <time>2018-06-14T20:48:10Z</time>
      </trkpt>
      <trkpt lat="43.89863" lon="1.8395">
        <ele>154</ele>
        <time>2018-06-14T20:48:11Z</time>
      </trkpt>
      <trkpt lat="43.89865" lon="1.83957">
        <ele>153</ele>
        <time>2018-06-14T20:48:12Z</time>
      </trkpt>
      <trkpt lat="43.89866" lon="1.83964">
        <ele>154</ele>
        <time>2018-06-14T20:48:13Z</time>
      </trkpt>
      <trkpt lat="43.89868" lon="1.83971">
        <ele>154</ele>
        <time>2018-06-14T20:48:14Z</time>
      </trkpt>
      <trkpt lat="43.8987" lon="1.83978">
        <ele>154</ele>
        <time>2018-06-14T20:48:15Z</time>
      </trkpt>
      <trkpt lat="43.89872" lon="1.83985">
        <ele>154</ele>
        <time>2018-06-14T20:48:16Z</time>
      </trkpt>
      <trkpt lat="43.89874" lon="1.83991">
        <ele>154</ele>
        <time>2018-06-14T20:48:17Z</time>
      </trkpt>
      <trkpt lat="43.89876" lon="1.83998">
        <ele>154</ele>
        <time>2018-06-14T20:48:18Z</time>
      </trkpt>
      <trkpt lat="43.89877" lon="1.84003">
        <ele>154</ele>
        <time>2018-06-14T20:48:19Z</time>
      </trkpt>
      <trkpt lat="43.89878" lon="1.84009">
        <ele>154</ele>
        <time>2018-06-14T20:48:20Z</time>
      </trkpt>
      <trkpt lat="43.8988" lon="1.84014">
        <ele>154</ele>
        <time>2018-06-14T20:48:21Z</time>
      </trkpt>
      <trkpt lat="43.89881" lon="1.84019">
        <ele>154</ele>
        <time>2018-06-14T20:48:22Z</time>
      </trkpt>
      <trkpt lat="43.89882" lon="1.84024">
        <ele>155</ele>
        <time>2018-06-14T20:48:23Z</time>
      </trkpt>
      <trkpt lat="43.89884" lon="1.84029">
        <ele>155</ele>
        <time>2018-06-14T20:48:24Z</time>
      </trkpt>
      <trkpt lat="43.89885" lon="1.84034">
        <ele>155</ele>
        <time>2018-06-14T20:48:25Z</time>
      </trkpt>
      <trkpt lat="43.89886" lon="1.84039">
        <ele>155</ele>
        <time>2018-06-14T20:48:26Z</time>
      </trkpt>
      <trkpt lat="43.89887" lon="1.84043">
        <ele>155</ele>
        <time>2018-06-14T20:48:27Z</time>
      </trkpt>
      <trkpt lat="43.89888" lon="1.84047">
        <ele>155</ele>
        <time>2018-06-14T20:48:28Z</time>
      </trkpt>
      <trkpt lat="43.89889" lon="1.84051">
        <ele>155</ele>
        <time>2018-06-14T20:48:29Z</time>
      </trkpt>
      <trkpt lat="43.8989" lon="1.84054">
        <ele>155</ele>
        <time>2018-06-14T20:48:30Z</time>
      </trkpt>
      <trkpt lat="43.89891" lon="1.84056">
        <ele>155</ele>
        <time>2018-06-14T20:48:31Z</time>
      </trkpt>
      <trkpt lat="43.89891" lon="1.84058">
        <ele>155</ele>
        <time>2018-06-14T20:48:32Z</time>
      </trkpt>
      <trkpt lat="43.8989" lon="1.8406">
        <ele>155</ele>
        <time>2018-06-14T20:48:33Z</time>
      </trkpt>
      <trkpt lat="43.89889" lon="1.84061">
        <ele>155</ele>
        <time>2018-06-14T20:48:34Z</time>
      </trkpt>
      <trkpt lat="43.89888" lon="1.84061">
        <ele>155</ele>
        <time>2018-06-14T20:48:35Z</time>
      </trkpt>
      <trkpt lat="43.89886" lon="1.84062">
        <ele>155</ele>
        <time>2018-06-14T20:48:36Z</time>
      </trkpt>
      <trkpt lat="43.89884" lon="1.84062">
        <ele>155</ele>
        <time>2018-06-14T20:48:37Z</time>
      </trkpt>
      <trkpt lat="43.89881" lon="1.84063">
        <ele>154</ele>
        <time>2018-06-14T20:48:38Z</time>
      </trkpt>
      <trkpt lat="43.89878" lon="1.84064">
        <ele>154</ele>
        <time>2018-06-14T20:48:39Z</time>
      </trkpt>
      <trkpt lat="43.89875" lon="1.84065">
        <ele>153</ele>
        <time>2018-06-14T20:48:40Z</time>
      </trkpt>
      <trkpt lat="43.89872" lon="1.84066">
        <ele>153</ele>
        <time>2018-06-14T20:48:41Z</time>
      </trkpt>
      <trkpt lat="43.89868" lon="1.84067">
        <ele>152</ele>
        <time>2018-06-14T20:48:42Z</time>
      </trkpt>
      <trkpt lat="43.89865" lon="1.84068">
        <ele>152</ele>
        <time>2018-06-14T20:48:43Z</time>
      </trkpt>
      <trkpt lat="43.89861" lon="1.84069">
        <ele>152</ele>
        <time>2018-06-14T20:48:44Z</time>
      </trkpt>
      <trkpt lat="43.89857" lon="1.84071">
        <ele>151</ele>
        <time>2018-06-14T20:48:45Z</time>
      </trkpt>
      <trkpt lat="43.89853" lon="1.84072">
        <ele>151</ele>
        <time>2018-06-14T20:48:46Z</time>
      </trkpt>
      <trkpt lat="43.89849" lon="1.84073">
        <ele>151</ele>
        <time>2018-06-14T20:48:47Z</time>
      </trkpt>
      <trkpt lat="43.89844" lon="1.84075">
        <ele>150</ele>
        <time>2018-06-14T20:48:48Z</time>
      </trkpt>
      <trkpt lat="43.89839" lon="1.84077">
        <ele>149</ele>
        <time>2018-06-14T20:48:49Z</time>
      </trkpt>
      <trkpt lat="43.89834" lon="1.8408">
        <ele>149</ele>
        <time>2018-06-14T20:48:50Z</time>
      </trkpt>
      <trkpt lat="43.89829" lon="1.84082">
        <ele>149</ele>
        <time>2018-06-14T20:48:51Z</time>
      </trkpt>
      <trkpt lat="43.89824" lon="1.84084">
        <ele>149</ele>
        <time>2018-06-14T20:48:52Z</time>
      </trkpt>
      <trkpt lat="43.89819" lon="1.84086">
        <ele>148</ele>
        <time>2018-06-14T20:48:53Z</time>
      </trkpt>
      <trkpt lat="43.89813" lon="1.84088">
        <ele>148</ele>
        <time>2018-06-14T20:48:54Z</time>
      </trkpt>
      <trkpt lat="43.89808" lon="1.8409">
        <ele>148</ele>
        <time>2018-06-14T20:48:55Z</time>
      </trkpt>
      <trkpt lat="43.89803" lon="1.84093">
        <ele>148</ele>
        <time>2018-06-14T20:48:56Z</time>
      </trkpt>
      <trkpt lat="43.89798" lon="1.84095">
        <ele>147</ele>
        <time>2018-06-14T20:48:57Z</time>
      </trkpt>
      <trkpt lat="43.89792" lon="1.84098">
        <ele>146</ele>
        <time>2018-06-14T20:48:58Z</time>
      </trkpt>
      <trkpt lat="43.89787" lon="1.841">
        <ele>146</ele>
        <time>2018-06-14T20:48:59Z</time>
      </trkpt>
      <trkpt lat="43.89781" lon="1.84103">
        <ele>146</ele>
        <time>2018-06-14T20:49:00Z</time>
      </trkpt>
      <trkpt lat="43.89776" lon="1.84105">
        <ele>146</ele>
        <time>2018-06-14T20:49:01Z</time>
      </trkpt>
      <trkpt lat="43.8977" lon="1.84108">
        <ele>145</ele>
        <time>2018-06-14T20:49:02Z</time>
      </trkpt>
      <trkpt lat="43.89765" lon="1.8411">
        <ele>145</ele>
        <time>2018-06-14T20:49:03Z</time>
      </trkpt>
      <trkpt lat="43.89759" lon="1.84113">
        <ele>145</ele>
        <time>2018-06-14T20:49:04Z</time>
      </trkpt>
      <trkpt lat="43.89753" lon="1.84116">
        <ele>144</ele>
        <time>2018-06-14T20:49:05Z</time>
      </trkpt>
      <trkpt lat="43.89748" lon="1.84119">
        <ele>144</ele>
        <time>2018-06-14T20:49:06Z</time>
      </trkpt>
      <trkpt lat="43.89742" lon="1.84122">
        <ele>144</ele>
        <time>2018-06-14T20:49:07Z</time>
      </trkpt>
      <trkpt lat="43.89736" lon="1.84125">
        <ele>144</ele>
        <time>2018-06-14T20:49:08Z</time>
      </trkpt>
      <trkpt lat="43.8973" lon="1.84128">
        <ele>143</ele>
        <time>2018-06-14T20:49:09Z</time>
      </trkpt>
      <trkpt lat="43.89724" lon="1.84131">
        <ele>143</ele>
        <time>2018-06-14T20:49:10Z</time>
      </trkpt>
      <trkpt lat="43.89718" lon="1.84134">
        <ele>143</ele>
        <time>2018-06-14T20:49:11Z</time>
      </trkpt>
      <trkpt lat="43.89712" lon="1.84137">
        <ele>142</ele>
        <time>2018-06-14T20:49:12Z</time>
      </trkpt>
      <trkpt lat="43.89706" lon="1.8414">
        <ele>142</ele>
        <time>2018-06-14T20:49:13Z</time>
      </trkpt>
      <trkpt lat="43.897" lon="1.84143">
        <ele>142</ele>
        <time>2018-06-14T20:49:14Z</time>
      </trkpt>
      <trkpt lat="43.89694" lon="1.84146">
        <ele>142</ele>
        <time>2018-06-14T20:49:15Z</time>
      </trkpt>
      <trkpt lat="43.89687" lon="1.84149">
        <ele>141</ele>
        <time>2018-06-14T20:49:16Z</time>
      </trkpt>
      <trkpt lat="43.89682" lon="1.84152">
        <ele>141</ele>
        <time>2018-06-14T20:49:17Z</time>
      </trkpt>
      <trkpt lat="43.89675" lon="1.84155">
        <ele>140</ele>
        <time>2018-06-14T20:49:18Z</time>
      </trkpt>
      <trkpt lat="43.89669" lon="1.84159">
        <ele>141</ele>
        <time>2018-06-14T20:49:19Z</time>
      </trkpt>
      <trkpt lat="43.89663" lon="1.84162">
        <ele>141</ele>
        <time>2018-06-14T20:49:20Z</time>
      </trkpt>
      <trkpt lat="43.89657" lon="1.84165">
        <ele>140</ele>
        <time>2018-06-14T20:49:21Z</time>
      </trkpt>
      <trkpt lat="43.89651" lon="1.84168">
        <ele>140</ele>
        <time>2018-06-14T20:49:22Z</time>
      </trkpt>
      <trkpt lat="43.89644" lon="1.84171">
        <ele>140</ele>
        <time>2018-06-14T20:49:23Z</time>
      </trkpt>
      <trkpt lat="43.89638" lon="1.84174">
        <ele>140</ele>
        <time>2018-06-14T20:49:24Z</time>
      </trkpt>
      <trkpt lat="43.89632" lon="1.84176">
        <ele>139</ele>
        <time>2018-06-14T20:49:25Z</time>
      </trkpt>
      <trkpt lat="43.89627" lon="1.84178">
        <ele>139</ele>
        <time>2018-06-14T20:49:26Z</time>
      </trkpt>
      <trkpt lat="43.89623" lon="1.8418">
        <ele>139</ele>
        <time>2018-06-14T20:49:27Z</time>
      </trkpt>
      <trkpt lat="43.8962" lon="1.84182">
        <ele>139</ele>
        <time>2018-06-14T20:49:28Z</time>
      </trkpt>
      <trkpt lat="43.89618" lon="1.84183">
        <ele>139</ele>
        <time>2018-06-14T20:49:29Z</time>
      </trkpt>
      <trkpt lat="43.89616" lon="1.84182">
        <ele>139</ele>
        <time>2018-06-14T20:49:30Z</time>
      </trkpt>
      <trkpt lat="43.89616" lon="1.84182">
        <ele>139</ele>
        <time>2018-06-14T20:49:31Z</time>
      </trkpt>
      <trkpt lat="43.89616" lon="1.84182">
        <ele>139</ele>
        <time>2018-06-14T20:49:32Z</time>
      </trkpt>
      <trkpt lat="43.89615" lon="1.84183">
        <ele>139</ele>
        <time>2018-06-14T20:49:33Z</time>
      </trkpt>
      <trkpt lat="43.89615" lon="1.84183">
        <ele>139</ele>
        <time>2018-06-14T20:49:34Z</time>
      </trkpt>
      <trkpt lat="43.89614" lon="1.84184">
        <ele>139</ele>
        <time>2018-06-14T20:49:35Z</time>
      </trkpt>
      <trkpt lat="43.89615" lon="1.84187">
        <ele>139</ele>
        <time>2018-06-14T20:49:36Z</time>
      </trkpt>
      <trkpt lat="43.89616" lon="1.84188">
        <ele>139</ele>
        <time>2018-06-14T20:49:37Z</time>
      </trkpt>
      <trkpt lat="43.89618" lon="1.84189">
        <ele>139</ele>
        <time>2018-06-14T20:49:38Z</time>
      </trkpt>
      <trkpt lat="43.89619" lon="1.84191">
        <ele>139</ele>
        <time>2018-06-14T20:49:39Z</time>
      </trkpt>
      <trkpt lat="43.89621" lon="1.84194">
        <ele>139</ele>
        <time>2018-06-14T20:49:40Z</time>
      </trkpt>
      <trkpt lat="43.89622" lon="1.84196">
        <ele>139</ele>
        <time>2018-06-14T20:49:41Z</time>
      </trkpt>
      <trkpt lat="43.89624" lon="1.84199">
        <ele>139</ele>
        <time>2018-06-14T20:49:42Z</time>
      </trkpt>
      <trkpt lat="43.89625" lon="1.84203">
        <ele>139</ele>
        <time>2018-06-14T20:49:43Z</time>
      </trkpt>
      <trkpt lat="43.89626" lon="1.84206">
        <ele>139</ele>
        <time>2018-06-14T20:49:44Z</time>
      </trkpt>
      <trkpt lat="43.89628" lon="1.84209">
        <ele>139</ele>
        <time>2018-06-14T20:49:45Z</time>
      </trkpt>
      <trkpt lat="43.89629" lon="1.84212">
        <ele>139</ele>
        <time>2018-06-14T20:49:46Z</time>
      </trkpt>
      <trkpt lat="43.89631" lon="1.84215">
        <ele>139</ele>
        <time>2018-06-14T20:49:47Z</time>
      </trkpt>
      <trkpt lat="43.89632" lon="1.84218">
        <ele>139</ele>
        <time>2018-06-14T20:49:48Z</time>
      </trkpt>
      <trkpt lat="43.89634" lon="1.84221">
        <ele>139</ele>
        <time>2018-06-14T20:49:49Z</time>
      </trkpt>
      <trkpt lat="43.89635" lon="1.84224">
        <ele>139</ele>
        <time>2018-06-14T20:49:50Z</time>
      </trkpt>
      <trkpt lat="43.89637" lon="1.84228">
        <ele>139</ele>
        <time>2018-06-14T20:49:51Z</time>
      </trkpt>
      <trkpt lat="43.89638" lon="1.84231">
        <ele>139</ele>
        <time>2018-06-14T20:49:52Z</time>
      </trkpt>
      <trkpt lat="43.89639" lon="1.84234">
        <ele>139</ele>
        <time>2018-06-14T20:49:53Z</time>
      </trkpt>
      <trkpt lat="43.89641" lon="1.84237">
        <ele>139</ele>
        <time>2018-06-14T20:49:54Z</time>
      </trkpt>
      <trkpt lat="43.89642" lon="1.8424">
        <ele>139</ele>
        <time>2018-06-14T20:49:55Z</time>
      </trkpt>
      <trkpt lat="43.89644" lon="1.84244">
        <ele>139</ele>
        <time>2018-06-14T20:49:56Z</time>
      </trkpt>
      <trkpt lat="43.89646" lon="1.84248">
        <ele>139</ele>
        <time>2018-06-14T20:49:57Z</time>
      </trkpt>
      <trkpt lat="43.89647" lon="1.84251">
        <ele>139</ele>
        <time>2018-06-14T20:49:58Z</time>
      </trkpt>
      <trkpt lat="43.89648" lon="1.84255">
        <ele>139</ele>
        <time>2018-06-14T20:49:59Z</time>
      </trkpt>
      <trkpt lat="43.89649" lon="1.84258">
        <ele>139</ele>
        <time>2018-06-14T20:50:00Z</time>
      </trkpt>
      <trkpt lat="43.89651" lon="1.84262">
        <ele>139</ele>
        <time>2018-06-14T20:50:01Z</time>
      </trkpt>
      <trkpt lat="43.89652" lon="1.84266">
        <ele>139</ele>
        <time>2018-06-14T20:50:02Z</time>
      </trkpt>
      <trkpt lat="43.89653" lon="1.84269">
        <ele>139</ele>
        <time>2018-06-14T20:50:03Z</time>
      </trkpt>
      <trkpt lat="43.89654" lon="1.84272">
        <ele>139</ele>
        <time>2018-06-14T20:50:04Z</time>
      </trkpt>
      <trkpt lat="43.89655" lon="1.84276">
        <ele>139</ele>
        <time>2018-06-14T20:50:05Z</time>
      </trkpt>
      <trkpt lat="43.89657" lon="1.8428">
        <ele>139</ele>
        <time>2018-06-14T20:50:06Z</time>
      </trkpt>
      <trkpt lat="43.89658" lon="1.84284">
        <ele>139</ele>
        <time>2018-06-14T20:50:07Z</time>
      </trkpt>
      <trkpt lat="43.8966" lon="1.84288">
        <ele>139</ele>
        <time>2018-06-14T20:50:08Z</time>
      </trkpt>
      <trkpt lat="43.89661" lon="1.84293">
        <ele>139</ele>
        <time>2018-06-14T20:50:09Z</time>
      </trkpt>
      <trkpt lat="43.89663" lon="1.84297">
        <ele>139</ele>
        <time>2018-06-14T20:50:10Z</time>
      </trkpt>
      <trkpt lat="43.89664" lon="1.84301">
        <ele>139</ele>
        <time>2018-06-14T20:50:11Z</time>
      </trkpt>
      <trkpt lat="43.89666" lon="1.84305">
        <ele>139</ele>
        <time>2018-06-14T20:50:12Z</time>
      </trkpt>
      <trkpt lat="43.89667" lon="1.84309">
        <ele>139</ele>
        <time>2018-06-14T20:50:13Z</time>
      </trkpt>
      <trkpt lat="43.89668" lon="1.84313">
        <ele>139</ele>
        <time>2018-06-14T20:50:14Z</time>
      </trkpt>
      <trkpt lat="43.8967" lon="1.84317">
        <ele>140</ele>
        <time>2018-06-14T20:50:15Z</time>
      </trkpt>
      <trkpt lat="43.89671" lon="1.84321">
        <ele>140</ele>
        <time>2018-06-14T20:50:16Z</time>
      </trkpt>
      <trkpt lat="43.89673" lon="1.84327">
        <ele>140</ele>
        <time>2018-06-14T20:50:17Z</time>
      </trkpt>
      <trkpt lat="43.89675" lon="1.84333">
        <ele>140</ele>
        <time>2018-06-14T20:50:18Z</time>
      </trkpt>
      <trkpt lat="43.89677" lon="1.84339">
        <ele>140</ele>
        <time>2018-06-14T20:50:19Z</time>
      </trkpt>
      <trkpt lat="43.89678" lon="1.84345">
        <ele>140</ele>
        <time>2018-06-14T20:50:20Z</time>
      </trkpt>
      <trkpt lat="43.89679" lon="1.84351">
        <ele>139</ele>
        <time>2018-06-14T20:50:21Z</time>
      </trkpt>
      <trkpt lat="43.89681" lon="1.84356">
        <ele>139</ele>
        <time>2018-06-14T20:50:22Z</time>
      </trkpt>
      <trkpt lat="43.89682" lon="1.84361">
        <ele>139</ele>
        <time>2018-06-14T20:50:23Z</time>
      </trkpt>
      <trkpt lat="43.89684" lon="1.84367">
        <ele>139</ele>
        <time>2018-06-14T20:50:24Z</time>
      </trkpt>
      <trkpt lat="43.89685" lon="1.84372">
        <ele>139</ele>
        <time>2018-06-14T20:50:25Z</time>
      </trkpt>
      <trkpt lat="43.89687" lon="1.84378">
        <ele>139</ele>
        <time>2018-06-14T20:50:26Z</time>
      </trkpt>
      <trkpt lat="43.89688" lon="1.84384">
        <ele>139</ele>
        <time>2018-06-14T20:50:27Z</time>
      </trkpt>
      <trkpt lat="43.89689" lon="1.8439">
        <ele>139</ele>
        <time>2018-06-14T20:50:28Z</time>
      </trkpt>
      <trkpt lat="43.89691" lon="1.84396">
        <ele>139</ele>
        <time>2018-06-14T20:50:29Z</time>
      </trkpt>
      <trkpt lat="43.89692" lon="1.84402">
        <ele>139</ele>
        <time>2018-06-14T20:50:30Z</time>
      </trkpt>
      <trkpt lat="43.89693" lon="1.84408">
        <ele>139</ele>
        <time>2018-06-14T20:50:31Z</time>
      </trkpt>
      <trkpt lat="43.89694" lon="1.84414">
        <ele>139</ele>
        <time>2018-06-14T20:50:32Z</time>
      </trkpt>
      <trkpt lat="43.89695" lon="1.84421">
        <ele>138</ele>
        <time>2018-06-14T20:50:33Z</time>
      </trkpt>
      <trkpt lat="43.89696" lon="1.84427">
        <ele>138</ele>
        <time>2018-06-14T20:50:34Z</time>
      </trkpt>
      <trkpt lat="43.89697" lon="1.84433">
        <ele>138</ele>
        <time>2018-06-14T20:50:35Z</time>
      </trkpt>
      <trkpt lat="43.89698" lon="1.84439">
        <ele>139</ele>
        <time>2018-06-14T20:50:36Z</time>
      </trkpt>
      <trkpt lat="43.89699" lon="1.84446">
        <ele>139</ele>
        <time>2018-06-14T20:50:37Z</time>
      </trkpt>
      <trkpt lat="43.897" lon="1.84452">
        <ele>139</ele>
        <time>2018-06-14T20:50:38Z</time>
      </trkpt>
      <trkpt lat="43.89701" lon="1.84459">
        <ele>139</ele>
        <time>2018-06-14T20:50:39Z</time>
      </trkpt>
      <trkpt lat="43.89702" lon="1.84465">
        <ele>138</ele>
        <time>2018-06-14T20:50:40Z</time>
      </trkpt>
      <trkpt lat="43.89703" lon="1.84471">
        <ele>138</ele>
        <time>2018-06-14T20:50:41Z</time>
      </trkpt>
      <trkpt lat="43.89703" lon="1.84478">
        <ele>138</ele>
        <time>2018-06-14T20:50:42Z</time>
      </trkpt>
      <trkpt lat="43.89704" lon="1.84484">
        <ele>138</ele>
        <time>2018-06-14T20:50:43Z</time>
      </trkpt>
      <trkpt lat="43.89705" lon="1.8449">
        <ele>138</ele>
        <time>2018-06-14T20:50:44Z</time>
      </trkpt>
      <trkpt lat="43.89705" lon="1.84497">
        <ele>139</ele>
        <time>2018-06-14T20:50:45Z</time>
      </trkpt>
      <trkpt lat="43.89705" lon="1.84503">
        <ele>138</ele>
        <time>2018-06-14T20:50:46Z</time>
      </trkpt>
      <trkpt lat="43.89706" lon="1.8451">
        <ele>138</ele>
        <time>2018-06-14T20:50:47Z</time>
      </trkpt>
      <trkpt lat="43.89706" lon="1.84516">
        <ele>138</ele>
        <time>2018-06-14T20:50:48Z</time>
      </trkpt>
      <trkpt lat="43.89707" lon="1.84523">
        <ele>138</ele>
        <time>2018-06-14T20:50:49Z</time>
      </trkpt>
      <trkpt lat="43.89707" lon="1.8453">
        <ele>139</ele>
        <time>2018-06-14T20:50:50Z</time>
      </trkpt>
      <trkpt lat="43.89707" lon="1.84536">
        <ele>139</ele>
        <time>2018-06-14T20:50:51Z</time>
      </trkpt>
      <trkpt lat="43.89708" lon="1.84542">
        <ele>139</ele>
        <time>2018-06-14T20:50:52Z</time>
      </trkpt>
      <trkpt lat="43.89708" lon="1.84549">
        <ele>139</ele>
        <time>2018-06-14T20:50:53Z</time>
      </trkpt>
      <trkpt lat="43.89708" lon="1.84555">
        <ele>139</ele>
        <time>2018-06-14T20:50:54Z</time>
      </trkpt>
      <trkpt lat="43.89709" lon="1.84562">
        <ele>139</ele>
        <time>2018-06-14T20:50:55Z</time>
      </trkpt>
      <trkpt lat="43.89709" lon="1.84568">
        <ele>139</ele>
        <time>2018-06-14T20:50:56Z</time>
      </trkpt>
      <trkpt lat="43.89709" lon="1.84574">
        <ele>139</ele>
        <time>2018-06-14T20:50:57Z</time>
      </trkpt>
      <trkpt lat="43.89709" lon="1.84581">
        <ele>139</ele>
        <time>2018-06-14T20:50:58Z</time>
      </trkpt>
      <trkpt lat="43.8971" lon="1.84587">
        <ele>139</ele>
        <time>2018-06-14T20:50:59Z</time>
      </trkpt>
      <trkpt lat="43.8971" lon="1.84593">
        <ele>139</ele>
        <time>2018-06-14T20:51:00Z</time>
      </trkpt>
      <trkpt lat="43.8971" lon="1.84599">
        <ele>139</ele>
        <time>2018-06-14T20:51:01Z</time>
      </trkpt>
      <trkpt lat="43.8971" lon="1.84606">
        <ele>139</ele>
        <time>2018-06-14T20:51:02Z</time>
      </trkpt>
      <trkpt lat="43.8971" lon="1.84612">
        <ele>139</ele>
        <time>2018-06-14T20:51:03Z</time>
      </trkpt>
      <trkpt lat="43.8971" lon="1.84618">
        <ele>139</ele>
        <time>2018-06-14T20:51:04Z</time>
      </trkpt>
      <trkpt lat="43.89711" lon="1.84624">
        <ele>139</ele>
        <time>2018-06-14T20:51:05Z</time>
      </trkpt>
      <trkpt lat="43.89711" lon="1.84631">
        <ele>139</ele>
        <time>2018-06-14T20:51:06Z</time>
      </trkpt>
      <trkpt lat="43.89711" lon="1.84638">
        <ele>139</ele>
        <time>2018-06-14T20:51:07Z</time>
      </trkpt>
      <trkpt lat="43.89712" lon="1.84644">
        <ele>139</ele>
        <time>2018-06-14T20:51:08Z</time>
      </trkpt>
      <trkpt lat="43.89712" lon="1.84651">
        <ele>139</ele>
        <time>2018-06-14T20:51:09Z</time>
      </trkpt>
      <trkpt lat="43.89713" lon="1.84657">
        <ele>139</ele>
        <time>2018-06-14T20:51:10Z</time>
      </trkpt>
      <trkpt lat="43.89713" lon="1.84663">
        <ele>139</ele>
        <time>2018-06-14T20:51:11Z</time>
      </trkpt>
      <trkpt lat="43.89714" lon="1.84668">
        <ele>139</ele>
        <time>2018-06-14T20:51:12Z</time>
      </trkpt>
      <trkpt lat="43.89715" lon="1.84674">
        <ele>139</ele>
        <time>2018-06-14T20:51:13Z</time>
      </trkpt>
      <trkpt lat="43.89716" lon="1.8468">
        <ele>139</ele>
        <time>2018-06-14T20:51:14Z</time>
      </trkpt>
      <trkpt lat="43.89716" lon="1.84686">
        <ele>139</ele>
        <time>2018-06-14T20:51:15Z</time>
      </trkpt>
      <trkpt lat="43.89717" lon="1.84692">
        <ele>139</ele>
        <time>2018-06-14T20:51:16Z</time>
      </trkpt>
      <trkpt lat="43.89718" lon="1.84698">
        <ele>140</ele>
        <time>2018-06-14T20:51:17Z</time>
      </trkpt>
      <trkpt lat="43.89719" lon="1.84704">
        <ele>140</ele>
        <time>2018-06-14T20:51:18Z</time>
      </trkpt>
      <trkpt lat="43.8972" lon="1.8471">
        <ele>140</ele>
        <time>2018-06-14T20:51:19Z</time>
      </trkpt>
      <trkpt lat="43.89721" lon="1.84715">
        <ele>140</ele>
        <time>2018-06-14T20:51:20Z</time>
      </trkpt>
      <trkpt lat="43.89722" lon="1.84721">
        <ele>140</ele>
        <time>2018-06-14T20:51:21Z</time>
      </trkpt>
      <trkpt lat="43.89722" lon="1.84726">
        <ele>140</ele>
        <time>2018-06-14T20:51:22Z</time>
      </trkpt>
      <trkpt lat="43.89723" lon="1.84733">
        <ele>140</ele>
        <time>2018-06-14T20:51:23Z</time>
      </trkpt>
      <trkpt lat="43.89724" lon="1.84739">
        <ele>140</ele>
        <time>2018-06-14T20:51:24Z</time>
      </trkpt>
      <trkpt lat="43.89725" lon="1.84745">
        <ele>140</ele>
        <time>2018-06-14T20:51:25Z</time>
      </trkpt>
      <trkpt lat="43.89726" lon="1.84751">
        <ele>140</ele>
        <time>2018-06-14T20:51:26Z</time>
      </trkpt>
      <trkpt lat="43.89727" lon="1.84757">
        <ele>140</ele>
        <time>2018-06-14T20:51:27Z</time>
      </trkpt>
      <trkpt lat="43.89727" lon="1.84763">
        <ele>140</ele>
        <time>2018-06-14T20:51:28Z</time>
      </trkpt>
      <trkpt lat="43.89728" lon="1.84769">
        <ele>140</ele>
        <time>2018-06-14T20:51:29Z</time>
      </trkpt>
      <trkpt lat="43.89729" lon="1.84775">
        <ele>140</ele>
        <time>2018-06-14T20:51:30Z</time>
      </trkpt>
      <trkpt lat="43.8973" lon="1.84781">
        <ele>140</ele>
        <time>2018-06-14T20:51:31Z</time>
      </trkpt>
      <trkpt lat="43.8973" lon="1.84786">
        <ele>140</ele>
        <time>2018-06-14T20:51:32Z</time>
      </trkpt>
      <trkpt lat="43.89731" lon="1.84792">
        <ele>140</ele>
        <time>2018-06-14T20:51:33Z</time>
      </trkpt>
      <trkpt lat="43.89732" lon="1.84798">
        <ele>141</ele>
        <time>2018-06-14T20:51:34Z</time>
      </trkpt>
      <trkpt lat="43.89733" lon="1.84804">
        <ele>141</ele>
        <time>2018-06-14T20:51:35Z</time>
      </trkpt>
      <trkpt lat="43.89734" lon="1.84809">
        <ele>141</ele>
        <time>2018-06-14T20:51:36Z</time>
      </trkpt>
      <trkpt lat="43.89735" lon="1.84815">
        <ele>141</ele>
        <time>2018-06-14T20:51:37Z</time>
      </trkpt>
      <trkpt lat="43.89736" lon="1.84821">
        <ele>141</ele>
        <time>2018-06-14T20:51:38Z</time>
      </trkpt>
      <trkpt lat="43.89736" lon="1.84826">
        <ele>141</ele>
        <time>2018-06-14T20:51:39Z</time>
      </trkpt>
      <trkpt lat="43.89737" lon="1.84832">
        <ele>141</ele>
        <time>2018-06-14T20:51:40Z</time>
      </trkpt>
      <trkpt lat="43.89739" lon="1.84838">
        <ele>141</ele>
        <time>2018-06-14T20:51:41Z</time>
      </trkpt>
      <trkpt lat="43.8974" lon="1.84844">
        <ele>141</ele>
        <time>2018-06-14T20:51:42Z</time>
      </trkpt>
      <trkpt lat="43.89741" lon="1.8485">
        <ele>141</ele>
        <time>2018-06-14T20:51:43Z</time>
      </trkpt>
      <trkpt lat="43.89742" lon="1.84856">
        <ele>141</ele>
        <time>2018-06-14T20:51:44Z</time>
      </trkpt>
      <trkpt lat="43.89744" lon="1.84861">
        <ele>141</ele>
        <time>2018-06-14T20:51:45Z</time>
      </trkpt>
      <trkpt lat="43.89745" lon="1.84867">
        <ele>141</ele>
        <time>2018-06-14T20:51:46Z</time>
      </trkpt>
      <trkpt lat="43.89746" lon="1.84873">
        <ele>141</ele>
        <time>2018-06-14T20:51:47Z</time>
      </trkpt>
      <trkpt lat="43.89747" lon="1.84879">
        <ele>141</ele>
        <time>2018-06-14T20:51:48Z</time>
      </trkpt>
      <trkpt lat="43.89748" lon="1.84885">
        <ele>141</ele>
        <time>2018-06-14T20:51:49Z</time>
      </trkpt>
      <trkpt lat="43.8975" lon="1.84891">
        <ele>141</ele>
        <time>2018-06-14T20:51:50Z</time>
      </trkpt>
      <trkpt lat="43.89751" lon="1.84896">
        <ele>141</ele>
        <time>2018-06-14T20:51:51Z</time>
      </trkpt>
      <trkpt lat="43.89752" lon="1.84902">
        <ele>141</ele>
        <time>2018-06-14T20:51:52Z</time>
      </trkpt>
      <trkpt lat="43.89754" lon="1.84908">
        <ele>141</ele>
        <time>2018-06-14T20:51:53Z</time>
      </trkpt>
      <trkpt lat="43.89755" lon="1.84914">
        <ele>141</ele>
        <time>2018-06-14T20:51:54Z</time>
      </trkpt>
      <trkpt lat="43.89757" lon="1.8492">
        <ele>141</ele>
        <time>2018-06-14T20:51:55Z</time>
      </trkpt>
      <trkpt lat="43.89758" lon="1.84925">
        <ele>141</ele>
        <time>2018-06-14T20:51:56Z</time>
      </trkpt>
      <trkpt lat="43.89759" lon="1.84931">
        <ele>141</ele>
        <time>2018-06-14T20:51:57Z</time>
      </trkpt>
      <trkpt lat="43.8976" lon="1.84937">
        <ele>141</ele>
        <time>2018-06-14T20:51:58Z</time>
      </trkpt>
      <trkpt lat="43.89762" lon="1.84943">
        <ele>141</ele>
        <time>2018-06-14T20:51:59Z</time>
      </trkpt>
      <trkpt lat="43.89763" lon="1.84949">
        <ele>141</ele>
        <time>2018-06-14T20:52:00Z</time>
      </trkpt>
      <trkpt lat="43.89764" lon="1.84955">
        <ele>141</ele>
        <time>2018-06-14T20:52:01Z</time>
      </trkpt>
      <trkpt lat="43.89766" lon="1.8496">
        <ele>141</ele>
        <time>2018-06-14T20:52:02Z</time>
      </trkpt>
      <trkpt lat="43.89767" lon="1.84966">
        <ele>141</ele>
        <time>2018-06-14T20:52:03Z</time>
      </trkpt>
      <trkpt lat="43.89769" lon="1.84972">
        <ele>142</ele>
        <time>2018-06-14T20:52:04Z</time>
      </trkpt>
      <trkpt lat="43.8977" lon="1.84978">
        <ele>142</ele>
        <time>2018-06-14T20:52:05Z</time>
      </trkpt>
      <trkpt lat="43.89771" lon="1.84984">
        <ele>142</ele>
        <time>2018-06-14T20:52:06Z</time>
      </trkpt>
      <trkpt lat="43.89773" lon="1.8499">
        <ele>142</ele>
        <time>2018-06-14T20:52:07Z</time>
      </trkpt>
      <trkpt lat="43.89775" lon="1.84996">
        <ele>142</ele>
        <time>2018-06-14T20:52:08Z</time>
      </trkpt>
      <trkpt lat="43.89777" lon="1.85001">
        <ele>142</ele>
        <time>2018-06-14T20:52:09Z</time>
      </trkpt>
      <trkpt lat="43.89778" lon="1.85007">
        <ele>142</ele>
        <time>2018-06-14T20:52:10Z</time>
      </trkpt>
      <trkpt lat="43.8978" lon="1.85013">
        <ele>142</ele>
        <time>2018-06-14T20:52:11Z</time>
      </trkpt>
      <trkpt lat="43.89782" lon="1.85018">
        <ele>142</ele>
        <time>2018-06-14T20:52:12Z</time>
      </trkpt>
      <trkpt lat="43.89784" lon="1.85023">
        <ele>142</ele>
        <time>2018-06-14T20:52:13Z</time>
      </trkpt>
      <trkpt lat="43.89785" lon="1.85028">
        <ele>142</ele>
        <time>2018-06-14T20:52:14Z</time>
      </trkpt>
      <trkpt lat="43.89787" lon="1.85033">
        <ele>142</ele>
        <time>2018-06-14T20:52:15Z</time>
      </trkpt>
      <trkpt lat="43.89788" lon="1.85038">
        <ele>142</ele>
        <time>2018-06-14T20:52:16Z</time>
      </trkpt>
      <trkpt lat="43.89789" lon="1.85044">
        <ele>142</ele>
        <time>2018-06-14T20:52:17Z</time>
      </trkpt>
      <trkpt lat="43.89789" lon="1.85049">
        <ele>142</ele>
        <time>2018-06-14T20:52:18Z</time>
      </trkpt>
      <trkpt lat="43.8979" lon="1.85055">
        <ele>142</ele>
        <time>2018-06-14T20:52:19Z</time>
      </trkpt>
      <trkpt lat="43.89789" lon="1.85061">
        <ele>142</ele>
        <time>2018-06-14T20:52:20Z</time>
      </trkpt>
      <trkpt lat="43.89788" lon="1.85066">
        <ele>142</ele>
        <time>2018-06-14T20:52:21Z</time>
      </trkpt>
      <trkpt lat="43.89786" lon="1.85072">
        <ele>142</ele>
        <time>2018-06-14T20:52:22Z</time>
      </trkpt>
      <trkpt lat="43.89784" lon="1.85077">
        <ele>142</ele>
        <time>2018-06-14T20:52:23Z</time>
      </trkpt>
      <trkpt lat="43.89783" lon="1.85083">
        <ele>142</ele>
        <time>2018-06-14T20:52:24Z</time>
      </trkpt>
      <trkpt lat="43.89783" lon="1.8509">
        <ele>142</ele>
        <time>2018-06-14T20:52:25Z</time>
      </trkpt>
      <trkpt lat="43.89783" lon="1.85096">
        <ele>142</ele>
        <time>2018-06-14T20:52:26Z</time>
      </trkpt>
      <trkpt lat="43.89785" lon="1.85102">
        <ele>141</ele>
        <time>2018-06-14T20:52:27Z</time>
      </trkpt>
      <trkpt lat="43.89787" lon="1.85108">
        <ele>141</ele>
        <time>2018-06-14T20:52:28Z</time>
      </trkpt>
      <trkpt lat="43.8979" lon="1.85115">
        <ele>141</ele>
        <time>2018-06-14T20:52:29Z</time>
      </trkpt>
      <trkpt lat="43.89792" lon="1.85121">
        <ele>141</ele>
        <time>2018-06-14T20:52:30Z</time>
      </trkpt>
      <trkpt lat="43.89795" lon="1.85127">
        <ele>141</ele>
        <time>2018-06-14T20:52:31Z</time>
      </trkpt>
      <trkpt lat="43.89797" lon="1.85133">
        <ele>141</ele>
        <time>2018-06-14T20:52:32Z</time>
      </trkpt>
      <trkpt lat="43.898" lon="1.85139">
        <ele>141</ele>
        <time>2018-06-14T20:52:33Z</time>
      </trkpt>
      <trkpt lat="43.89802" lon="1.85145">
        <ele>141</ele>
        <time>2018-06-14T20:52:34Z</time>
      </trkpt>
      <trkpt lat="43.89805" lon="1.85151">
        <ele>141</ele>
        <time>2018-06-14T20:52:35Z</time>
      </trkpt>
      <trkpt lat="43.89807" lon="1.85157">
        <ele>141</ele>
        <time>2018-06-14T20:52:36Z</time>
      </trkpt>
      <trkpt lat="43.8981" lon="1.85163">
        <ele>140</ele>
        <time>2018-06-14T20:52:37Z</time>
      </trkpt>
      <trkpt lat="43.89812" lon="1.85169">
        <ele>140</ele>
        <time>2018-06-14T20:52:38Z</time>
      </trkpt>
      <trkpt lat="43.89814" lon="1.85175">
        <ele>140</ele>
        <time>2018-06-14T20:52:39Z</time>
      </trkpt>
      <trkpt lat="43.89817" lon="1.85181">
        <ele>140</ele>
        <time>2018-06-14T20:52:40Z</time>
      </trkpt>
      <trkpt lat="43.89819" lon="1.85187">
        <ele>140</ele>
        <time>2018-06-14T20:52:41Z</time>
      </trkpt>
      <trkpt lat="43.89822" lon="1.85194">
        <ele>140</ele>
        <time>2018-06-14T20:52:42Z</time>
      </trkpt>
      <trkpt lat="43.89824" lon="1.852">
        <ele>140</ele>
        <time>2018-06-14T20:52:43Z</time>
      </trkpt>
      <trkpt lat="43.89827" lon="1.85206">
        <ele>140</ele>
        <time>2018-06-14T20:52:44Z</time>
      </trkpt>
      <trkpt lat="43.89829" lon="1.85212">
        <ele>140</ele>
        <time>2018-06-14T20:52:45Z</time>
      </trkpt>
      <trkpt lat="43.89832" lon="1.85218">
        <ele>140</ele>
        <time>2018-06-14T20:52:46Z</time>
      </trkpt>
      <trkpt lat="43.89834" lon="1.85224">
        <ele>140</ele>
        <time>2018-06-14T20:52:47Z</time>
      </trkpt>
      <trkpt lat="43.89837" lon="1.8523">
        <ele>140</ele>
        <time>2018-06-14T20:52:48Z</time>
      </trkpt>
      <trkpt lat="43.89839" lon="1.85237">
        <ele>140</ele>
        <time>2018-06-14T20:52:49Z</time>
      </trkpt>
      <trkpt lat="43.89842" lon="1.85243">
        <ele>140</ele>
        <time>2018-06-14T20:52:50Z</time>
      </trkpt>
      <trkpt lat="43.89844" lon="1.85249">
        <ele>140</ele>
        <time>2018-06-14T20:52:51Z</time>
      </trkpt>
      <trkpt lat="43.89847" lon="1.85255">
        <ele>140</ele>
        <time>2018-06-14T20:52:52Z</time>
      </trkpt>
      <trkpt lat="43.89849" lon="1.85262">
        <ele>139</ele>
        <time>2018-06-14T20:52:53Z</time>
      </trkpt>
      <trkpt lat="43.89852" lon="1.85269">
        <ele>139</ele>
        <time>2018-06-14T20:52:54Z</time>
      </trkpt>
      <trkpt lat="43.89854" lon="1.85276">
        <ele>139</ele>
        <time>2018-06-14T20:52:55Z</time>
      </trkpt>
      <trkpt lat="43.89857" lon="1.85283">
        <ele>139</ele>
        <time>2018-06-14T20:52:56Z</time>
      </trkpt>
      <trkpt lat="43.89859" lon="1.8529">
        <ele>139</ele>
        <time>2018-06-14T20:52:57Z</time>
      </trkpt>
      <trkpt lat="43.89862" lon="1.85297">
        <ele>139</ele>
        <time>2018-06-14T20:52:58Z</time>
      </trkpt>
      <trkpt lat="43.89865" lon="1.85304">
        <ele>139</ele>
        <time>2018-06-14T20:52:59Z</time>
      </trkpt>
      <trkpt lat="43.89867" lon="1.85311">
        <ele>139</ele>
        <time>2018-06-14T20:53:00Z</time>
      </trkpt>
      <trkpt lat="43.89869" lon="1.85318">
        <ele>139</ele>
        <time>2018-06-14T20:53:01Z</time>
      </trkpt>
      <trkpt lat="43.89872" lon="1.85325">
        <ele>139</ele>
        <time>2018-06-14T20:53:02Z</time>
      </trkpt>
      <trkpt lat="43.89874" lon="1.85332">
        <ele>139</ele>
        <time>2018-06-14T20:53:03Z</time>
      </trkpt>
      <trkpt lat="43.89876" lon="1.8534">
        <ele>139</ele>
        <time>2018-06-14T20:53:04Z</time>
      </trkpt>
      <trkpt lat="43.89878" lon="1.85347">
        <ele>139</ele>
        <time>2018-06-14T20:53:05Z</time>
      </trkpt>
      <trkpt lat="43.8988" lon="1.85354">
        <ele>139</ele>
        <time>2018-06-14T20:53:06Z</time>
      </trkpt>
      <trkpt lat="43.89882" lon="1.85362">
        <ele>139</ele>
        <time>2018-06-14T20:53:07Z</time>
      </trkpt>
      <trkpt lat="43.89883" lon="1.8537">
        <ele>139</ele>
        <time>2018-06-14T20:53:08Z</time>
      </trkpt>
      <trkpt lat="43.89884" lon="1.85378">
        <ele>139</ele>
        <time>2018-06-14T20:53:09Z</time>
      </trkpt>
      <trkpt lat="43.89884" lon="1.85386">
        <ele>139</ele>
        <time>2018-06-14T20:53:10Z</time>
      </trkpt>
      <trkpt lat="43.89884" lon="1.85394">
        <ele>139</ele>
        <time>2018-06-14T20:53:11Z</time>
      </trkpt>
      <trkpt lat="43.89883" lon="1.85401">
        <ele>138</ele>
        <time>2018-06-14T20:53:12Z</time>
      </trkpt>
      <trkpt lat="43.89883" lon="1.85409">
        <ele>138</ele>
        <time>2018-06-14T20:53:13Z</time>
      </trkpt>
      <trkpt lat="43.89882" lon="1.85417">
        <ele>138</ele>
        <time>2018-06-14T20:53:14Z</time>
      </trkpt>
      <trkpt lat="43.89882" lon="1.85425">
        <ele>138</ele>
        <time>2018-06-14T20:53:15Z</time>
      </trkpt>
      <trkpt lat="43.89881" lon="1.85433">
        <ele>138</ele>
        <time>2018-06-14T20:53:16Z</time>
      </trkpt>
      <trkpt lat="43.8988" lon="1.85441">
        <ele>138</ele>
        <time>2018-06-14T20:53:17Z</time>
      </trkpt>
      <trkpt lat="43.89879" lon="1.85449">
        <ele>138</ele>
        <time>2018-06-14T20:53:18Z</time>
      </trkpt>
      <trkpt lat="43.89878" lon="1.85457">
        <ele>138</ele>
        <time>2018-06-14T20:53:19Z</time>
      </trkpt>
      <trkpt lat="43.89877" lon="1.85465">
        <ele>138</ele>
        <time>2018-06-14T20:53:20Z</time>
      </trkpt>
      <trkpt lat="43.89876" lon="1.85473">
        <ele>138</ele>
        <time>2018-06-14T20:53:21Z</time>
      </trkpt>
      <trkpt lat="43.89874" lon="1.85481">
        <ele>138</ele>
        <time>2018-06-14T20:53:22Z</time>
      </trkpt>
      <trkpt lat="43.89873" lon="1.85489">
        <ele>138</ele>
        <time>2018-06-14T20:53:23Z</time>
      </trkpt>
      <trkpt lat="43.89872" lon="1.85498">
        <ele>138</ele>
        <time>2018-06-14T20:53:24Z</time>
      </trkpt>
      <trkpt lat="43.89871" lon="1.85506">
        <ele>138</ele>
        <time>2018-06-14T20:53:25Z</time>
      </trkpt>
      <trkpt lat="43.89869" lon="1.85514">
        <ele>138</ele>
        <time>2018-06-14T20:53:26Z</time>
      </trkpt>
      <trkpt lat="43.89868" lon="1.85522">
        <ele>138</ele>
        <time>2018-06-14T20:53:27Z</time>
      </trkpt>
      <trkpt lat="43.89866" lon="1.8553">
        <ele>138</ele>
        <time>2018-06-14T20:53:28Z</time>
      </trkpt>
      <trkpt lat="43.89865" lon="1.85538">
        <ele>137</ele>
        <time>2018-06-14T20:53:29Z</time>
      </trkpt>
      <trkpt lat="43.89864" lon="1.85546">
        <ele>137</ele>
        <time>2018-06-14T20:53:30Z</time>
      </trkpt>
      <trkpt lat="43.89863" lon="1.85553">
        <ele>137</ele>
        <time>2018-06-14T20:53:31Z</time>
      </trkpt>
      <trkpt lat="43.89861" lon="1.85561">
        <ele>137</ele>
        <time>2018-06-14T20:53:32Z</time>
      </trkpt>
      <trkpt lat="43.8986" lon="1.85569">
        <ele>137</ele>
        <time>2018-06-14T20:53:33Z</time>
      </trkpt>
      <trkpt lat="43.89858" lon="1.85576">
        <ele>137</ele>
        <time>2018-06-14T20:53:34Z</time>
      </trkpt>
      <trkpt lat="43.89857" lon="1.85584">
        <ele>137</ele>
        <time>2018-06-14T20:53:35Z</time>
      </trkpt>
      <trkpt lat="43.89855" lon="1.85592">
        <ele>137</ele>
        <time>2018-06-14T20:53:36Z</time>
      </trkpt>
      <trkpt lat="43.89854" lon="1.856">
        <ele>137</ele>
        <time>2018-06-14T20:53:37Z</time>
      </trkpt>
      <trkpt lat="43.89853" lon="1.85607">
        <ele>137</ele>
        <time>2018-06-14T20:53:38Z</time>
      </trkpt>
      <trkpt lat="43.89852" lon="1.85615">
        <ele>137</ele>
        <time>2018-06-14T20:53:39Z</time>
      </trkpt>
      <trkpt lat="43.89851" lon="1.85623">
        <ele>137</ele>
        <time>2018-06-14T20:53:40Z</time>
      </trkpt>
      <trkpt lat="43.8985" lon="1.85632">
        <ele>137</ele>
        <time>2018-06-14T20:53:41Z</time>
      </trkpt>
      <trkpt lat="43.8985" lon="1.8564">
        <ele>137</ele>
        <time>2018-06-14T20:53:42Z</time>
      </trkpt>
      <trkpt lat="43.8985" lon="1.85648">
        <ele>137</ele>
        <time>2018-06-14T20:53:43Z</time>
      </trkpt>
      <trkpt lat="43.89851" lon="1.85656">
        <ele>137</ele>
        <time>2018-06-14T20:53:44Z</time>
      </trkpt>
      <trkpt lat="43.89853" lon="1.85664">
        <ele>137</ele>
        <time>2018-06-14T20:53:45Z</time>
      </trkpt>
      <trkpt lat="43.89856" lon="1.85671">
        <ele>137</ele>
        <time>2018-06-14T20:53:46Z</time>
      </trkpt>
      <trkpt lat="43.89858" lon="1.85679">
        <ele>137</ele>
        <time>2018-06-14T20:53:47Z</time>
      </trkpt>
      <trkpt lat="43.89861" lon="1.85686">
        <ele>137</ele>
        <time>2018-06-14T20:53:48Z</time>
      </trkpt>
      <trkpt lat="43.89863" lon="1.85692">
        <ele>137</ele>
        <time>2018-06-14T20:53:49Z</time>
      </trkpt>
      <trkpt lat="43.89866" lon="1.85699">
        <ele>137</ele>
        <time>2018-06-14T20:53:50Z</time>
      </trkpt>
      <trkpt lat="43.89868" lon="1.85706">
        <ele>137</ele>
        <time>2018-06-14T20:53:51Z</time>
      </trkpt>
      <trkpt lat="43.89871" lon="1.85713">
        <ele>137</ele>
        <time>2018-06-14T20:53:52Z</time>
      </trkpt>
      <trkpt lat="43.89873" lon="1.8572">
        <ele>137</ele>
        <time>2018-06-14T20:53:53Z</time>
      </trkpt>
      <trkpt lat="43.89876" lon="1.85727">
        <ele>137</ele>
        <time>2018-06-14T20:53:54Z</time>
      </trkpt>
      <trkpt lat="43.89878" lon="1.85733">
        <ele>137</ele>
        <time>2018-06-14T20:53:55Z</time>
      </trkpt>
      <trkpt lat="43.89881" lon="1.8574">
        <ele>137</ele>
        <time>2018-06-14T20:53:56Z</time>
      </trkpt>
      <trkpt lat="43.89883" lon="1.85746">
        <ele>137</ele>
        <time>2018-06-14T20:53:57Z</time>
      </trkpt>
      <trkpt lat="43.89885" lon="1.85753">
        <ele>137</ele>
        <time>2018-06-14T20:53:58Z</time>
      </trkpt>
      <trkpt lat="43.89888" lon="1.85759">
        <ele>137</ele>
        <time>2018-06-14T20:53:59Z</time>
      </trkpt>
      <trkpt lat="43.8989" lon="1.85765">
        <ele>138</ele>
        <time>2018-06-14T20:54:00Z</time>
      </trkpt>
      <trkpt lat="43.89892" lon="1.85772">
        <ele>138</ele>
        <time>2018-06-14T20:54:01Z</time>
      </trkpt>
      <trkpt lat="43.89895" lon="1.85778">
        <ele>138</ele>
        <time>2018-06-14T20:54:02Z</time>
      </trkpt>
      <trkpt lat="43.89897" lon="1.85784">
        <ele>138</ele>
        <time>2018-06-14T20:54:03Z</time>
      </trkpt>
      <trkpt lat="43.89899" lon="1.85791">
        <ele>138</ele>
        <time>2018-06-14T20:54:04Z</time>
      </trkpt>
      <trkpt lat="43.89901" lon="1.85797">
        <ele>138</ele>
        <time>2018-06-14T20:54:05Z</time>
      </trkpt>
      <trkpt lat="43.89904" lon="1.85803">
        <ele>138</ele>
        <time>2018-06-14T20:54:06Z</time>
      </trkpt>
      <trkpt lat="43.89906" lon="1.8581">
        <ele>138</ele>
        <time>2018-06-14T20:54:07Z</time>
      </trkpt>
      <trkpt lat="43.89907" lon="1.85817">
        <ele>138</ele>
        <time>2018-06-14T20:54:08Z</time>
      </trkpt>
      <trkpt lat="43.89908" lon="1.85824">
        <ele>138</ele>
        <time>2018-06-14T20:54:09Z</time>
      </trkpt>
      <trkpt lat="43.89907" lon="1.85831">
        <ele>138</ele>
        <time>2018-06-14T20:54:10Z</time>
      </trkpt>
      <trkpt lat="43.89905" lon="1.85838">
        <ele>138</ele>
        <time>2018-06-14T20:54:11Z</time>
      </trkpt>
      <trkpt lat="43.89901" lon="1.85844">
        <ele>138</ele>
        <time>2018-06-14T20:54:12Z</time>
      </trkpt>
      <trkpt lat="43.89897" lon="1.8585">
        <ele>138</ele>
        <time>2018-06-14T20:54:13Z</time>
      </trkpt>
      <trkpt lat="43.89893" lon="1.85855">
        <ele>138</ele>
        <time>2018-06-14T20:54:14Z</time>
      </trkpt>
      <trkpt lat="43.89888" lon="1.85861">
        <ele>138</ele>
        <time>2018-06-14T20:54:15Z</time>
      </trkpt>
      <trkpt lat="43.89883" lon="1.85866">
        <ele>138</ele>
        <time>2018-06-14T20:54:16Z</time>
      </trkpt>
      <trkpt lat="43.89877" lon="1.85871">
        <ele>138</ele>
        <time>2018-06-14T20:54:17Z</time>
      </trkpt>
      <trkpt lat="43.89872" lon="1.85877">
        <ele>138</ele>
        <time>2018-06-14T20:54:18Z</time>
      </trkpt>
      <trkpt lat="43.89867" lon="1.85884">
        <ele>138</ele>
        <time>2018-06-14T20:54:19Z</time>
      </trkpt>
      <trkpt lat="43.89862" lon="1.85891">
        <ele>138</ele>
        <time>2018-06-14T20:54:20Z</time>
      </trkpt>
      <trkpt lat="43.89858" lon="1.85898">
        <ele>138</ele>
        <time>2018-06-14T20:54:21Z</time>
      </trkpt>
      <trkpt lat="43.89854" lon="1.85906">
        <ele>138</ele>
        <time>2018-06-14T20:54:22Z</time>
      </trkpt>
      <trkpt lat="43.89851" lon="1.85916">
        <ele>138</ele>
        <time>2018-06-14T20:54:23Z</time>
      </trkpt>
      <trkpt lat="43.8985" lon="1.85926">
        <ele>138</ele>
        <time>2018-06-14T20:54:24Z</time>
      </trkpt>
      <trkpt lat="43.89848" lon="1.85936">
        <ele>138</ele>
        <time>2018-06-14T20:54:25Z</time>
      </trkpt>
      <trkpt lat="43.89848" lon="1.85947">
        <ele>137</ele>
        <time>2018-06-14T20:54:26Z</time>
      </trkpt>
      <trkpt lat="43.89847" lon="1.85957">
        <ele>138</ele>
        <time>2018-06-14T20:54:27Z</time>
      </trkpt>
      <trkpt lat="43.89845" lon="1.85968">
        <ele>137</ele>
        <time>2018-06-14T20:54:28Z</time>
      </trkpt>
      <trkpt lat="43.89844" lon="1.85978">
        <ele>138</ele>
        <time>2018-06-14T20:54:29Z</time>
      </trkpt>
      <trkpt lat="43.89843" lon="1.85988">
        <ele>138</ele>
        <time>2018-06-14T20:54:30Z</time>
      </trkpt>
      <trkpt lat="43.89842" lon="1.85999">
        <ele>138</ele>
        <time>2018-06-14T20:54:31Z</time>
      </trkpt>
      <trkpt lat="43.89841" lon="1.86009">
        <ele>138</ele>
        <time>2018-06-14T20:54:32Z</time>
      </trkpt>
      <trkpt lat="43.8984" lon="1.86019">
        <ele>137</ele>
        <time>2018-06-14T20:54:33Z</time>
      </trkpt>
      <trkpt lat="43.89838" lon="1.8603">
        <ele>138</ele>
        <time>2018-06-14T20:54:34Z</time>
      </trkpt>
      <trkpt lat="43.89837" lon="1.8604">
        <ele>138</ele>
        <time>2018-06-14T20:54:35Z</time>
      </trkpt>
      <trkpt lat="43.89836" lon="1.8605">
        <ele>138</ele>
        <time>2018-06-14T20:54:36Z</time>
      </trkpt>
      <trkpt lat="43.89835" lon="1.86061">
        <ele>137</ele>
        <time>2018-06-14T20:54:37Z</time>
      </trkpt>
      <trkpt lat="43.89833" lon="1.86071">
        <ele>137</ele>
        <time>2018-06-14T20:54:38Z</time>
      </trkpt>
      <trkpt lat="43.89832" lon="1.86082">
        <ele>137</ele>
        <time>2018-06-14T20:54:39Z</time>
      </trkpt>
      <trkpt lat="43.8983" lon="1.86092">
        <ele>137</ele>
        <time>2018-06-14T20:54:40Z</time>
      </trkpt>
      <trkpt lat="43.89829" lon="1.86102">
        <ele>137</ele>
        <time>2018-06-14T20:54:41Z</time>
      </trkpt>
      <trkpt lat="43.89827" lon="1.86112">
        <ele>137</ele>
        <time>2018-06-14T20:54:42Z</time>
      </trkpt>
      <trkpt lat="43.89825" lon="1.86121">
        <ele>137</ele>
        <time>2018-06-14T20:54:43Z</time>
      </trkpt>
      <trkpt lat="43.89821" lon="1.8613">
        <ele>137</ele>
        <time>2018-06-14T20:54:44Z</time>
      </trkpt>
      <trkpt lat="43.89817" lon="1.86139">
        <ele>137</ele>
        <time>2018-06-14T20:54:45Z</time>
      </trkpt>
      <trkpt lat="43.89811" lon="1.86146">
        <ele>137</ele>
        <time>2018-06-14T20:54:46Z</time>
      </trkpt>
      <trkpt lat="43.89806" lon="1.86153">
        <ele>137</ele>
        <time>2018-06-14T20:54:47Z</time>
      </trkpt>
      <trkpt lat="43.89799" lon="1.86158">
        <ele>137</ele>
        <time>2018-06-14T20:54:48Z</time>
      </trkpt>
      <trkpt lat="43.89793" lon="1.86162">
        <ele>137</ele>
        <time>2018-06-14T20:54:49Z</time>
      </trkpt>
      <trkpt lat="43.89786" lon="1.86165">
        <ele>137</ele>
        <time>2018-06-14T20:54:50Z</time>
      </trkpt>
      <trkpt lat="43.89779" lon="1.86169">
        <ele>137</ele>
        <time>2018-06-14T20:54:51Z</time>
      </trkpt>
      <trkpt lat="43.89773" lon="1.86172">
        <ele>137</ele>
        <time>2018-06-14T20:54:52Z</time>
      </trkpt>
      <trkpt lat="43.89766" lon="1.86174">
        <ele>136</ele>
        <time>2018-06-14T20:54:53Z</time>
      </trkpt>
      <trkpt lat="43.89759" lon="1.86177">
        <ele>137</ele>
        <time>2018-06-14T20:54:54Z</time>
      </trkpt>
      <trkpt lat="43.89752" lon="1.86179">
        <ele>136</ele>
        <time>2018-06-14T20:54:55Z</time>
      </trkpt>
      <trkpt lat="43.89744" lon="1.8618">
        <ele>136</ele>
        <time>2018-06-14T20:54:56Z</time>
      </trkpt>
      <trkpt lat="43.89737" lon="1.86182">
        <ele>136</ele>
        <time>2018-06-14T20:54:57Z</time>
      </trkpt>
      <trkpt lat="43.8973" lon="1.86184">
        <ele>136</ele>
        <time>2018-06-14T20:54:58Z</time>
      </trkpt>
      <trkpt lat="43.89723" lon="1.86185">
        <ele>136</ele>
        <time>2018-06-14T20:54:59Z</time>
      </trkpt>
      <trkpt lat="43.89716" lon="1.86187">
        <ele>136</ele>
        <time>2018-06-14T20:55:00Z</time>
      </trkpt>
      <trkpt lat="43.89709" lon="1.86188">
        <ele>136</ele>
        <time>2018-06-14T20:55:01Z</time>
      </trkpt>
      <trkpt lat="43.89703" lon="1.8619">
        <ele>136</ele>
        <time>2018-06-14T20:55:02Z</time>
      </trkpt>
      <trkpt lat="43.89696" lon="1.86192">
        <ele>136</ele>
        <time>2018-06-14T20:55:03Z</time>
      </trkpt>
      <trkpt lat="43.8969" lon="1.86196">
        <ele>136</ele>
        <time>2018-06-14T20:55:04Z</time>
      </trkpt>
      <trkpt lat="43.89684" lon="1.86203">
        <ele>136</ele>
        <time>2018-06-14T20:55:05Z</time>
      </trkpt>
      <trkpt lat="43.89682" lon="1.86211">
        <ele>136</ele>
        <time>2018-06-14T20:55:06Z</time>
      </trkpt>
      <trkpt lat="43.89682" lon="1.86222">
        <ele>136</ele>
        <time>2018-06-14T20:55:07Z</time>
      </trkpt>
      <trkpt lat="43.89684" lon="1.86232">
        <ele>136</ele>
        <time>2018-06-14T20:55:08Z</time>
      </trkpt>
      <trkpt lat="43.89687" lon="1.86242">
        <ele>136</ele>
        <time>2018-06-14T20:55:09Z</time>
      </trkpt>
      <trkpt lat="43.89689" lon="1.86252">
        <ele>136</ele>
        <time>2018-06-14T20:55:10Z</time>
      </trkpt>
      <trkpt lat="43.89692" lon="1.86263">
        <ele>136</ele>
        <time>2018-06-14T20:55:11Z</time>
      </trkpt>
      <trkpt lat="43.89694" lon="1.86273">
        <ele>136</ele>
        <time>2018-06-14T20:55:12Z</time>
      </trkpt>
      <trkpt lat="43.89697" lon="1.86283">
        <ele>136</ele>
        <time>2018-06-14T20:55:13Z</time>
      </trkpt>
      <trkpt lat="43.897" lon="1.86293">
        <ele>136</ele>
        <time>2018-06-14T20:55:14Z</time>
      </trkpt>
      <trkpt lat="43.89704" lon="1.86303">
        <ele>136</ele>
        <time>2018-06-14T20:55:15Z</time>
      </trkpt>
      <trkpt lat="43.89707" lon="1.86313">
        <ele>136</ele>
        <time>2018-06-14T20:55:16Z</time>
      </trkpt>
      <trkpt lat="43.89709" lon="1.86324">
        <ele>136</ele>
        <time>2018-06-14T20:55:17Z</time>
      </trkpt>
      <trkpt lat="43.89712" lon="1.86334">
        <ele>136</ele>
        <time>2018-06-14T20:55:18Z</time>
      </trkpt>
      <trkpt lat="43.89715" lon="1.86344">
        <ele>136</ele>
        <time>2018-06-14T20:55:19Z</time>
      </trkpt>
      <trkpt lat="43.89718" lon="1.86354">
        <ele>136</ele>
        <time>2018-06-14T20:55:20Z</time>
      </trkpt>
      <trkpt lat="43.89721" lon="1.86364">
        <ele>136</ele>
        <time>2018-06-14T20:55:21Z</time>
      </trkpt>
      <trkpt lat="43.89723" lon="1.86374">
        <ele>136</ele>
        <time>2018-06-14T20:55:22Z</time>
      </trkpt>
      <trkpt lat="43.89726" lon="1.86385">
        <ele>136</ele>
        <time>2018-06-14T20:55:23Z</time>
      </trkpt>
      <trkpt lat="43.89729" lon="1.86395">
        <ele>136</ele>
        <time>2018-06-14T20:55:24Z</time>
      </trkpt>
      <trkpt lat="43.89732" lon="1.86405">
        <ele>136</ele>
        <time>2018-06-14T20:55:25Z</time>
      </trkpt>
      <trkpt lat="43.89735" lon="1.86416">
        <ele>136</ele>
        <time>2018-06-14T20:55:26Z</time>
      </trkpt>
      <trkpt lat="43.89738" lon="1.86426">
        <ele>136</ele>
        <time>2018-06-14T20:55:27Z</time>
      </trkpt>
      <trkpt lat="43.89741" lon="1.86437">
        <ele>136</ele>
        <time>2018-06-14T20:55:28Z</time>
      </trkpt>
      <trkpt lat="43.89744" lon="1.86448">
        <ele>136</ele>
        <time>2018-06-14T20:55:29Z</time>
      </trkpt>
      <trkpt lat="43.89747" lon="1.86458">
        <ele>136</ele>
        <time>2018-06-14T20:55:30Z</time>
      </trkpt>
      <trkpt lat="43.89749" lon="1.86469">
        <ele>136</ele>
        <time>2018-06-14T20:55:31Z</time>
      </trkpt>
      <trkpt lat="43.89751" lon="1.8648">
        <ele>136</ele>
        <time>2018-06-14T20:55:32Z</time>
      </trkpt>
      <trkpt lat="43.89751" lon="1.86492">
        <ele>135</ele>
        <time>2018-06-14T20:55:33Z</time>
      </trkpt>
      <trkpt lat="43.89751" lon="1.86503">
        <ele>135</ele>
        <time>2018-06-14T20:55:34Z</time>
      </trkpt>
      <trkpt lat="43.89749" lon="1.86515">
        <ele>135</ele>
        <time>2018-06-14T20:55:35Z</time>
      </trkpt>
      <trkpt lat="43.89747" lon="1.86525">
        <ele>135</ele>
        <time>2018-06-14T20:55:36Z</time>
      </trkpt>
      <trkpt lat="43.89744" lon="1.86536">
        <ele>136</ele>
        <time>2018-06-14T20:55:37Z</time>
      </trkpt>
      <trkpt lat="43.89741" lon="1.86546">
        <ele>136</ele>
        <time>2018-06-14T20:55:38Z</time>
      </trkpt>
      <trkpt lat="43.89738" lon="1.86557">
        <ele>136</ele>
        <time>2018-06-14T20:55:39Z</time>
      </trkpt>
      <trkpt lat="43.89736" lon="1.86567">
        <ele>136</ele>
        <time>2018-06-14T20:55:40Z</time>
      </trkpt>
      <trkpt lat="43.89735" lon="1.86578">
        <ele>136</ele>
        <time>2018-06-14T20:55:41Z</time>
      </trkpt>
      <trkpt lat="43.89734" lon="1.8659">
        <ele>136</ele>
        <time>2018-06-14T20:55:42Z</time>
      </trkpt>
      <trkpt lat="43.89735" lon="1.86601">
        <ele>136</ele>
        <time>2018-06-14T20:55:43Z</time>
      </trkpt>
      <trkpt lat="43.89737" lon="1.86611">
        <ele>136</ele>
        <time>2018-06-14T20:55:44Z</time>
      </trkpt>
      <trkpt lat="43.89741" lon="1.86621">
        <ele>136</ele>
        <time>2018-06-14T20:55:45Z</time>
      </trkpt>
      <trkpt lat="43.89744" lon="1.86632">
        <ele>136</ele>
        <time>2018-06-14T20:55:46Z</time>
      </trkpt>
      <trkpt lat="43.89748" lon="1.86642">
        <ele>136</ele>
        <time>2018-06-14T20:55:47Z</time>
      </trkpt>
      <trkpt lat="43.89752" lon="1.86651">
        <ele>135</ele>
        <time>2018-06-14T20:55:48Z</time>
      </trkpt>
      <trkpt lat="43.89757" lon="1.8666">
        <ele>135</ele>
        <time>2018-06-14T20:55:49Z</time>
      </trkpt>
      <trkpt lat="43.89762" lon="1.8667">
        <ele>135</ele>
        <time>2018-06-14T20:55:50Z</time>
      </trkpt>
      <trkpt lat="43.89766" lon="1.8668">
        <ele>136</ele>
        <time>2018-06-14T20:55:51Z</time>
      </trkpt>
      <trkpt lat="43.8977" lon="1.8669">
        <ele>136</ele>
        <time>2018-06-14T20:55:52Z</time>
      </trkpt>
      <trkpt lat="43.89772" lon="1.86701">
        <ele>135</ele>
        <time>2018-06-14T20:55:53Z</time>
      </trkpt>
      <trkpt lat="43.89774" lon="1.86713">
        <ele>135</ele>
        <time>2018-06-14T20:55:54Z</time>
      </trkpt>
      <trkpt lat="43.89774" lon="1.86725">
        <ele>135</ele>
        <time>2018-06-14T20:55:55Z</time>
      </trkpt>
      <trkpt lat="43.89774" lon="1.86737">
        <ele>135</ele>
        <time>2018-06-14T20:55:56Z</time>
      </trkpt>
      <trkpt lat="43.89773" lon="1.86749">
        <ele>135</ele>
        <time>2018-06-14T20:55:57Z</time>
      </trkpt>
      <trkpt lat="43.89772" lon="1.86761">
        <ele>135</ele>
        <time>2018-06-14T20:55:58Z</time>
      </trkpt>
      <trkpt lat="43.89771" lon="1.86773">
        <ele>135</ele>
        <time>2018-06-14T20:55:59Z</time>
      </trkpt>
      <trkpt lat="43.8977" lon="1.86785">
        <ele>135</ele>
        <time>2018-06-14T20:56:00Z</time>
      </trkpt>
      <trkpt lat="43.89768" lon="1.86797">
        <ele>135</ele>
        <time>2018-06-14T20:56:01Z</time>
      </trkpt>
      <trkpt lat="43.89766" lon="1.86809">
        <ele>135</ele>
        <time>2018-06-14T20:56:02Z</time>
      </trkpt>
      <trkpt lat="43.89763" lon="1.8682">
        <ele>135</ele>
        <time>2018-06-14T20:56:03Z</time>
      </trkpt>
      <trkpt lat="43.89759" lon="1.86831">
        <ele>135</ele>
        <time>2018-06-14T20:56:04Z</time>
      </trkpt>
      <trkpt lat="43.89754" lon="1.86841">
        <ele>135</ele>
        <time>2018-06-14T20:56:05Z</time>
      </trkpt>
      <trkpt lat="43.89747" lon="1.8685">
        <ele>135</ele>
        <time>2018-06-14T20:56:06Z</time>
      </trkpt>
      <trkpt lat="43.89739" lon="1.86858">
        <ele>135</ele>
        <time>2018-06-14T20:56:07Z</time>
      </trkpt>
      <trkpt lat="43.89731" lon="1.86864">
        <ele>135</ele>
        <time>2018-06-14T20:56:08Z</time>
      </trkpt>
      <trkpt lat="43.89722" lon="1.86869">
        <ele>134</ele>
        <time>2018-06-14T20:56:09Z</time>
      </trkpt>
      <trkpt lat="43.89715" lon="1.86877">
        <ele>134</ele>
        <time>2018-06-14T20:56:10Z</time>
      </trkpt>
      <trkpt lat="43.89709" lon="1.86887">
        <ele>134</ele>
        <time>2018-06-14T20:56:11Z</time>
      </trkpt>
      <trkpt lat="43.89705" lon="1.86898">
        <ele>134</ele>
        <time>2018-06-14T20:56:12Z</time>
      </trkpt>
      <trkpt lat="43.89703" lon="1.86911">
        <ele>134</ele>
        <time>2018-06-14T20:56:13Z</time>
      </trkpt>
      <trkpt lat="43.89702" lon="1.86925">
        <ele>135</ele>
        <time>2018-06-14T20:56:14Z</time>
      </trkpt>
      <trkpt lat="43.89702" lon="1.86938">
        <ele>135</ele>
        <time>2018-06-14T20:56:15Z</time>
      </trkpt>
      <trkpt lat="43.89703" lon="1.8695">
        <ele>135</ele>
        <time>2018-06-14T20:56:16Z</time>
      </trkpt>
      <trkpt lat="43.89704" lon="1.86961">
        <ele>135</ele>
        <time>2018-06-14T20:56:17Z</time>
      </trkpt>
      <trkpt lat="43.89706" lon="1.86971">
        <ele>135</ele>
        <time>2018-06-14T20:56:18Z</time>
      </trkpt>
      <trkpt lat="43.89708" lon="1.86981">
        <ele>135</ele>
        <time>2018-06-14T20:56:19Z</time>
      </trkpt>
      <trkpt lat="43.8971" lon="1.86991">
        <ele>135</ele>
        <time>2018-06-14T20:56:20Z</time>
      </trkpt>
      <trkpt lat="43.89711" lon="1.87001">
        <ele>135</ele>
        <time>2018-06-14T20:56:21Z</time>
      </trkpt>
      <trkpt lat="43.89713" lon="1.8701">
        <ele>135</ele>
        <time>2018-06-14T20:56:22Z</time>
      </trkpt>
      <trkpt lat="43.89716" lon="1.8702">
        <ele>135</ele>
        <time>2018-06-14T20:56:23Z</time>
      </trkpt>
      <trkpt lat="43.89718" lon="1.8703">
        <ele>135</ele>
        <time>2018-06-14T20:56:24Z</time>
      </trkpt>
      <trkpt lat="43.89721" lon="1.8704">
        <ele>134</ele>
        <time>2018-06-14T20:56:25Z</time>
      </trkpt>
      <trkpt lat="43.89724" lon="1.8705">
        <ele>134</ele>
        <time>2018-06-14T20:56:26Z</time>
      </trkpt>
      <trkpt lat="43.89727" lon="1.87061">
        <ele>134</ele>
        <time>2018-06-14T20:56:27Z</time>
      </trkpt>
      <trkpt lat="43.8973" lon="1.87071">
        <ele>134</ele>
        <time>2018-06-14T20:56:28Z</time>
      </trkpt>
      <trkpt lat="43.89733" lon="1.87081">
        <ele>134</ele>
        <time>2018-06-14T20:56:29Z</time>
      </trkpt>
      <trkpt lat="43.89736" lon="1.87091">
        <ele>134</ele>
        <time>2018-06-14T20:56:30Z</time>
      </trkpt>
      <trkpt lat="43.89739" lon="1.871">
        <ele>135</ele>
        <time>2018-06-14T20:56:31Z</time>
      </trkpt>
      <trkpt lat="43.89743" lon="1.8711">
        <ele>135</ele>
        <time>2018-06-14T20:56:32Z</time>
      </trkpt>
      <trkpt lat="43.89746" lon="1.87119">
        <ele>135</ele>
        <time>2018-06-14T20:56:33Z</time>
      </trkpt>
      <trkpt lat="43.8975" lon="1.87128">
        <ele>135</ele>
        <time>2018-06-14T20:56:34Z</time>
      </trkpt>
      <trkpt lat="43.89753" lon="1.87137">
        <ele>135</ele>
        <time>2018-06-14T20:56:35Z</time>
      </trkpt>
      <trkpt lat="43.89757" lon="1.87146">
        <ele>135</ele>
        <time>2018-06-14T20:56:36Z</time>
      </trkpt>
      <trkpt lat="43.89761" lon="1.87155">
        <ele>134</ele>
        <time>2018-06-14T20:56:37Z</time>
      </trkpt>
      <trkpt lat="43.89765" lon="1.87165">
        <ele>134</ele>
        <time>2018-06-14T20:56:38Z</time>
      </trkpt>
      <trkpt lat="43.89768" lon="1.87174">
        <ele>135</ele>
        <time>2018-06-14T20:56:39Z</time>
      </trkpt>
      <trkpt lat="43.8977" lon="1.87184">
        <ele>135</ele>
        <time>2018-06-14T20:56:40Z</time>
      </trkpt>
      <trkpt lat="43.89772" lon="1.87193">
        <ele>135</ele>
        <time>2018-06-14T20:56:41Z</time>
      </trkpt>
      <trkpt lat="43.89773" lon="1.87203">
        <ele>135</ele>
        <time>2018-06-14T20:56:42Z</time>
      </trkpt>
      <trkpt lat="43.89772" lon="1.87211">
        <ele>135</ele>
        <time>2018-06-14T20:56:43Z</time>
      </trkpt>
      <trkpt lat="43.8977" lon="1.87218">
        <ele>135</ele>
        <time>2018-06-14T20:56:44Z</time>
      </trkpt>
      <trkpt lat="43.89767" lon="1.87225">
        <ele>135</ele>
        <time>2018-06-14T20:56:45Z</time>
      </trkpt>
      <trkpt lat="43.89766" lon="1.87232">
        <ele>135</ele>
        <time>2018-06-14T20:56:46Z</time>
      </trkpt>
      <trkpt lat="43.89766" lon="1.8724">
        <ele>135</ele>
        <time>2018-06-14T20:56:47Z</time>
      </trkpt>
      <trkpt lat="43.89766" lon="1.87249">
        <ele>135</ele>
        <time>2018-06-14T20:56:48Z</time>
      </trkpt>
      <trkpt lat="43.89766" lon="1.87257">
        <ele>135</ele>
        <time>2018-06-14T20:56:49Z</time>
      </trkpt>
      <trkpt lat="43.89767" lon="1.87266">
        <ele>135</ele>
        <time>2018-06-14T20:56:50Z</time>
      </trkpt>
      <trkpt lat="43.89769" lon="1.87276">
        <ele>135</ele>
        <time>2018-06-14T20:56:51Z</time>
      </trkpt>
      <trkpt lat="43.8977" lon="1.87285">
        <ele>135</ele>
        <time>2018-06-14T20:56:52Z</time>
      </trkpt>
      <trkpt lat="43.89772" lon="1.87295">
        <ele>135</ele>
        <time>2018-06-14T20:56:53Z</time>
      </trkpt>
      <trkpt lat="43.89773" lon="1.87304">
        <ele>135</ele>
        <time>2018-06-14T20:56:54Z</time>
      </trkpt>
      <trkpt lat="43.89774" lon="1.87314">
        <ele>135</ele>
        <time>2018-06-14T20:56:55Z</time>
      </trkpt>
      <trkpt lat="43.89775" lon="1.87324">
        <ele>135</ele>
        <time>2018-06-14T20:56:56Z</time>
      </trkpt>
      <trkpt lat="43.89775" lon="1.87335">
        <ele>135</ele>
        <time>2018-06-14T20:56:57Z</time>
      </trkpt>
      <trkpt lat="43.89775" lon="1.87345">
        <ele>135</ele>
        <time>2018-06-14T20:56:58Z</time>
      </trkpt>
      <trkpt lat="43.89775" lon="1.87355">
        <ele>135</ele>
        <time>2018-06-14T20:56:59Z</time>
      </trkpt>
      <trkpt lat="43.89773" lon="1.87365">
        <ele>135</ele>
        <time>2018-06-14T20:57:00Z</time>
      </trkpt>
      <trkpt lat="43.8977" lon="1.87375">
        <ele>134</ele>
        <time>2018-06-14T20:57:01Z</time>
      </trkpt>
      <trkpt lat="43.89766" lon="1.87384">
        <ele>135</ele>
        <time>2018-06-14T20:57:02Z</time>
      </trkpt>
      <trkpt lat="43.89763" lon="1.87393">
        <ele>135</ele>
        <time>2018-06-14T20:57:03Z</time>
      </trkpt>
      <trkpt lat="43.89759" lon="1.87402">
        <ele>135</ele>
        <time>2018-06-14T20:57:04Z</time>
      </trkpt>
      <trkpt lat="43.89757" lon="1.87412">
        <ele>135</ele>
        <time>2018-06-14T20:57:05Z</time>
      </trkpt>
      <trkpt lat="43.89757" lon="1.87422">
        <ele>135</ele>
        <time>2018-06-14T20:57:06Z</time>
      </trkpt>
      <trkpt lat="43.89757" lon="1.87433">
        <ele>135</ele>
        <time>2018-06-14T20:57:07Z</time>
      </trkpt>
      <trkpt lat="43.89757" lon="1.87443">
        <ele>135</ele>
        <time>2018-06-14T20:57:08Z</time>
      </trkpt>
      <trkpt lat="43.89758" lon="1.87453">
        <ele>135</ele>
        <time>2018-06-14T20:57:09Z</time>
      </trkpt>
      <trkpt lat="43.89758" lon="1.87464">
        <ele>135</ele>
        <time>2018-06-14T20:57:10Z</time>
      </trkpt>
      <trkpt lat="43.89757" lon="1.87475">
        <ele>135</ele>
        <time>2018-06-14T20:57:11Z</time>
      </trkpt>
      <trkpt lat="43.89756" lon="1.87486">
        <ele>135</ele>
        <time>2018-06-14T20:57:12Z</time>
      </trkpt>
      <trkpt lat="43.89755" lon="1.87497">
        <ele>135</ele>
        <time>2018-06-14T20:57:13Z</time>
      </trkpt>
      <trkpt lat="43.89753" lon="1.87507">
        <ele>135</ele>
        <time>2018-06-14T20:57:14Z</time>
      </trkpt>
      <trkpt lat="43.89752" lon="1.87518">
        <ele>135</ele>
        <time>2018-06-14T20:57:15Z</time>
      </trkpt>
      <trkpt lat="43.89751" lon="1.87529">
        <ele>135</ele>
        <time>2018-06-14T20:57:16Z</time>
      </trkpt>
      <trkpt lat="43.8975" lon="1.8754">
        <ele>135</ele>
        <time>2018-06-14T20:57:17Z</time>
      </trkpt>
      <trkpt lat="43.8975" lon="1.8755">
        <ele>135</ele>
        <time>2018-06-14T20:57:18Z</time>
      </trkpt>
      <trkpt lat="43.89751" lon="1.87561">
        <ele>135</ele>
        <time>2018-06-14T20:57:19Z</time>
      </trkpt>
      <trkpt lat="43.89752" lon="1.87572">
        <ele>135</ele>
        <time>2018-06-14T20:57:20Z</time>
      </trkpt>
      <trkpt lat="43.89753" lon="1.87583">
        <ele>135</ele>
        <time>2018-06-14T20:57:21Z</time>
      </trkpt>
      <trkpt lat="43.89755" lon="1.87593">
        <ele>135</ele>
        <time>2018-06-14T20:57:22Z</time>
      </trkpt>
      <trkpt lat="43.89756" lon="1.87604">
        <ele>135</ele>
        <time>2018-06-14T20:57:23Z</time>
      </trkpt>
      <trkpt lat="43.89758" lon="1.87615">
        <ele>135</ele>
        <time>2018-06-14T20:57:24Z</time>
      </trkpt>
      <trkpt lat="43.8976" lon="1.87625">
        <ele>135</ele>
        <time>2018-06-14T20:57:25Z</time>
      </trkpt>
      <trkpt lat="43.89762" lon="1.87636">
        <ele>135</ele>
        <time>2018-06-14T20:57:26Z</time>
      </trkpt>
      <trkpt lat="43.89763" lon="1.87646">
        <ele>135</ele>
        <time>2018-06-14T20:57:27Z</time>
      </trkpt>
      <trkpt lat="43.89765" lon="1.87657">
        <ele>136</ele>
        <time>2018-06-14T20:57:28Z</time>
      </trkpt>
      <trkpt lat="43.89766" lon="1.87667">
        <ele>136</ele>
        <time>2018-06-14T20:57:29Z</time>
      </trkpt>
      <trkpt lat="43.89767" lon="1.87678">
        <ele>136</ele>
        <time>2018-06-14T20:57:30Z</time>
      </trkpt>
      <trkpt lat="43.89767" lon="1.87689">
        <ele>135</ele>
        <time>2018-06-14T20:57:31Z</time>
      </trkpt>
      <trkpt lat="43.89768" lon="1.87699">
        <ele>135</ele>
        <time>2018-06-14T20:57:32Z</time>
      </trkpt>
      <trkpt lat="43.89769" lon="1.8771">
        <ele>135</ele>
        <time>2018-06-14T20:57:33Z</time>
      </trkpt>
      <trkpt lat="43.8977" lon="1.87721">
        <ele>136</ele>
        <time>2018-06-14T20:57:34Z</time>
      </trkpt>
      <trkpt lat="43.8977" lon="1.87732">
        <ele>136</ele>
        <time>2018-06-14T20:57:35Z</time>
      </trkpt>
      <trkpt lat="43.8977" lon="1.87743">
        <ele>136</ele>
        <time>2018-06-14T20:57:36Z</time>
      </trkpt>
      <trkpt lat="43.8977" lon="1.87754">
        <ele>136</ele>
        <time>2018-06-14T20:57:37Z</time>
      </trkpt>
      <trkpt lat="43.89771" lon="1.87765">
        <ele>135</ele>
        <time>2018-06-14T20:57:38Z</time>
      </trkpt>
      <trkpt lat="43.89771" lon="1.87775">
        <ele>136</ele>
        <time>2018-06-14T20:57:39Z</time>
      </trkpt>
      <trkpt lat="43.89772" lon="1.87786">
        <ele>136</ele>
        <time>2018-06-14T20:57:40Z</time>
      </trkpt>
      <trkpt lat="43.89773" lon="1.87796">
        <ele>136</ele>
        <time>2018-06-14T20:57:41Z</time>
      </trkpt>
      <trkpt lat="43.89775" lon="1.87806">
        <ele>136</ele>
        <time>2018-06-14T20:57:42Z</time>
      </trkpt>
      <trkpt lat="43.89776" lon="1.87817">
        <ele>136</ele>
        <time>2018-06-14T20:57:43Z</time>
      </trkpt>
      <trkpt lat="43.89779" lon="1.87827">
        <ele>136</ele>
        <time>2018-06-14T20:57:44Z</time>
      </trkpt>
      <trkpt lat="43.89782" lon="1.87837">
        <ele>136</ele>
        <time>2018-06-14T20:57:45Z</time>
      </trkpt>
      <trkpt lat="43.89785" lon="1.87846">
        <ele>136</ele>
        <time>2018-06-14T20:57:46Z</time>
      </trkpt>
      <trkpt lat="43.89788" lon="1.87856">
        <ele>136</ele>
        <time>2018-06-14T20:57:47Z</time>
      </trkpt>
      <trkpt lat="43.89791" lon="1.87866">
        <ele>136</ele>
        <time>2018-06-14T20:57:48Z</time>
      </trkpt>
      <trkpt lat="43.89795" lon="1.87875">
        <ele>136</ele>
        <time>2018-06-14T20:57:49Z</time>
      </trkpt>
      <trkpt lat="43.89799" lon="1.87884">
        <ele>136</ele>
        <time>2018-06-14T20:57:50Z</time>
      </trkpt>
      <trkpt lat="43.89803" lon="1.87893">
        <ele>136</ele>
        <time>2018-06-14T20:57:51Z</time>
      </trkpt>
      <trkpt lat="43.89807" lon="1.87901">
        <ele>136</ele>
        <time>2018-06-14T20:57:52Z</time>
      </trkpt>
      <trkpt lat="43.8981" lon="1.8791">
        <ele>136</ele>
        <time>2018-06-14T20:57:53Z</time>
      </trkpt>
      <trkpt lat="43.89814" lon="1.87919">
        <ele>136</ele>
        <time>2018-06-14T20:57:54Z</time>
      </trkpt>
      <trkpt lat="43.89818" lon="1.87928">
        <ele>136</ele>
        <time>2018-06-14T20:57:55Z</time>
      </trkpt>
      <trkpt lat="43.89821" lon="1.87936">
        <ele>136</ele>
        <time>2018-06-14T20:57:56Z</time>
      </trkpt>
      <trkpt lat="43.89825" lon="1.87944">
        <ele>136</ele>
        <time>2018-06-14T20:57:57Z</time>
      </trkpt>
      <trkpt lat="43.89827" lon="1.87952">
        <ele>136</ele>
        <time>2018-06-14T20:57:58Z</time>
      </trkpt>
      <trkpt lat="43.89829" lon="1.87961">
        <ele>136</ele>
        <time>2018-06-14T20:57:59Z</time>
      </trkpt>
      <trkpt lat="43.89829" lon="1.87969">
        <ele>136</ele>
        <time>2018-06-14T20:58:00Z</time>
      </trkpt>
      <trkpt lat="43.89827" lon="1.87977">
        <ele>136</ele>
        <time>2018-06-14T20:58:01Z</time>
      </trkpt>
      <trkpt lat="43.89825" lon="1.87984">
        <ele>136</ele>
        <time>2018-06-14T20:58:02Z</time>
      </trkpt>
      <trkpt lat="43.89822" lon="1.87992">
        <ele>136</ele>
        <time>2018-06-14T20:58:03Z</time>
      </trkpt>
      <trkpt lat="43.89819" lon="1.87999">
        <ele>136</ele>
        <time>2018-06-14T20:58:04Z</time>
      </trkpt>
      <trkpt lat="43.89816" lon="1.88007">
        <ele>136</ele>
        <time>2018-06-14T20:58:05Z</time>
      </trkpt>
      <trkpt lat="43.89813" lon="1.88015">
        <ele>136</ele>
        <time>2018-06-14T20:58:06Z</time>
      </trkpt>
      <trkpt lat="43.89809" lon="1.88023">
        <ele>136</ele>
        <time>2018-06-14T20:58:07Z</time>
      </trkpt>
      <trkpt lat="43.89806" lon="1.88032">
        <ele>136</ele>
        <time>2018-06-14T20:58:08Z</time>
      </trkpt>
      <trkpt lat="43.89803" lon="1.88041">
        <ele>136</ele>
        <time>2018-06-14T20:58:09Z</time>
      </trkpt>
      <trkpt lat="43.89799" lon="1.8805">
        <ele>136</ele>
        <time>2018-06-14T20:58:10Z</time>
      </trkpt>
      <trkpt lat="43.89796" lon="1.88059">
        <ele>136</ele>
        <time>2018-06-14T20:58:11Z</time>
      </trkpt>
      <trkpt lat="43.89793" lon="1.88067">
        <ele>135</ele>
        <time>2018-06-14T20:58:12Z</time>
      </trkpt>
      <trkpt lat="43.89789" lon="1.88074">
        <ele>135</ele>
        <time>2018-06-14T20:58:13Z</time>
      </trkpt>
      <trkpt lat="43.89784" lon="1.88078">
        <ele>135</ele>
        <time>2018-06-14T20:58:14Z</time>
      </trkpt>
      <trkpt lat="43.89778" lon="1.88078">
        <ele>135</ele>
        <time>2018-06-14T20:58:15Z</time>
      </trkpt>
      <trkpt lat="43.89772" lon="1.88074">
        <ele>135</ele>
        <time>2018-06-14T20:58:16Z</time>
      </trkpt>
      <trkpt lat="43.89766" lon="1.88068">
        <ele>134</ele>
        <time>2018-06-14T20:58:17Z</time>
      </trkpt>
      <trkpt lat="43.89761" lon="1.88059">
        <ele>134</ele>
        <time>2018-06-14T20:58:18Z</time>
      </trkpt>
      <trkpt lat="43.89755" lon="1.88051">
        <ele>134</ele>
        <time>2018-06-14T20:58:19Z</time>
      </trkpt>
      <trkpt lat="43.89748" lon="1.88044">
        <ele>134</ele>
        <time>2018-06-14T20:58:20Z</time>
      </trkpt>
      <trkpt lat="43.89742" lon="1.88036">
        <ele>134</ele>
        <time>2018-06-14T20:58:21Z</time>
      </trkpt>
      <trkpt lat="43.89736" lon="1.88028">
        <ele>135</ele>
        <time>2018-06-14T20:58:22Z</time>
      </trkpt>
      <trkpt lat="43.89729" lon="1.8802">
        <ele>135</ele>
        <time>2018-06-14T20:58:23Z</time>
      </trkpt>
      <trkpt lat="43.89723" lon="1.88012">
        <ele>135</ele>
        <time>2018-06-14T20:58:24Z</time>
      </trkpt>
      <trkpt lat="43.89717" lon="1.88005">
        <ele>135</ele>
        <time>2018-06-14T20:58:25Z</time>
      </trkpt>
      <trkpt lat="43.8971" lon="1.87998">
        <ele>135</ele>
        <time>2018-06-14T20:58:26Z</time>
      </trkpt>
      <trkpt lat="43.89704" lon="1.8799">
        <ele>135</ele>
        <time>2018-06-14T20:58:27Z</time>
      </trkpt>
      <trkpt lat="43.89697" lon="1.87983">
        <ele>136</ele>
        <time>2018-06-14T20:58:28Z</time>
      </trkpt>
      <trkpt lat="43.89691" lon="1.87977">
        <ele>136</ele>
        <time>2018-06-14T20:58:29Z</time>
      </trkpt>
      <trkpt lat="43.89686" lon="1.8797">
        <ele>136</ele>
        <time>2018-06-14T20:58:30Z</time>
      </trkpt>
      <trkpt lat="43.8968" lon="1.87964">
        <ele>136</ele>
        <time>2018-06-14T20:58:31Z</time>
      </trkpt>
      <trkpt lat="43.89675" lon="1.87957">
        <ele>136</ele>
        <time>2018-06-14T20:58:32Z</time>
      </trkpt>
      <trkpt lat="43.89669" lon="1.8795">
        <ele>136</ele>
        <time>2018-06-14T20:58:33Z</time>
      </trkpt>
      <trkpt lat="43.89664" lon="1.87943">
        <ele>136</ele>
        <time>2018-06-14T20:58:34Z</time>
      </trkpt>
      <trkpt lat="43.89658" lon="1.87936">
        <ele>136</ele>
        <time>2018-06-14T20:58:35Z</time>
      </trkpt>
      <trkpt lat="43.89653" lon="1.87929">
        <ele>136</ele>
        <time>2018-06-14T20:58:36Z</time>
      </trkpt>
      <trkpt lat="43.89648" lon="1.87921">
        <ele>136</ele>
        <time>2018-06-14T20:58:37Z</time>
      </trkpt>
      <trkpt lat="43.89643" lon="1.87914">
        <ele>136</ele>
        <time>2018-06-14T20:58:38Z</time>
      </trkpt>
      <trkpt lat="43.89637" lon="1.87906">
        <ele>136</ele>
        <time>2018-06-14T20:58:39Z</time>
      </trkpt>
      <trkpt lat="43.89632" lon="1.87899">
        <ele>136</ele>
        <time>2018-06-14T20:58:40Z</time>
      </trkpt>
      <trkpt lat="43.89627" lon="1.87891">
        <ele>135</ele>
        <time>2018-06-14T20:58:41Z</time>
      </trkpt>
      <trkpt lat="43.89622" lon="1.87883">
        <ele>135</ele>
        <time>2018-06-14T20:58:42Z</time>
      </trkpt>
      <trkpt lat="43.8962" lon="1.87873">
        <ele>135</ele>
        <time>2018-06-14T20:58:43Z</time>
      </trkpt>
      <trkpt lat="43.89617" lon="1.87863">
        <ele>135</ele>
        <time>2018-06-14T20:58:44Z</time>
      </trkpt>
      <trkpt lat="43.89615" lon="1.87852">
        <ele>135</ele>
        <time>2018-06-14T20:58:45Z</time>
      </trkpt>
      <trkpt lat="43.89614" lon="1.87842">
        <ele>135</ele>
        <time>2018-06-14T20:58:46Z</time>
      </trkpt>
      <trkpt lat="43.89614" lon="1.87832">
        <ele>135</ele>
        <time>2018-06-14T20:58:47Z</time>
      </trkpt>
      <trkpt lat="43.89613" lon="1.87822">
        <ele>135</ele>
        <time>2018-06-14T20:58:48Z</time>
      </trkpt>
      <trkpt lat="43.89612" lon="1.87812">
        <ele>135</ele>
        <time>2018-06-14T20:58:49Z</time>
      </trkpt>
      <trkpt lat="43.8961" lon="1.87802">
        <ele>135</ele>
        <time>2018-06-14T20:58:50Z</time>
      </trkpt>
      <trkpt lat="43.89607" lon="1.87793">
        <ele>135</ele>
        <time>2018-06-14T20:58:51Z</time>
      </trkpt>
      <trkpt lat="43.89604" lon="1.87785">
        <ele>135</ele>
        <time>2018-06-14T20:58:52Z</time>
      </trkpt>
      <trkpt lat="43.89599" lon="1.87778">
        <ele>135</ele>
        <time>2018-06-14T20:58:53Z</time>
      </trkpt>
      <trkpt lat="43.89592" lon="1.87773">
        <ele>135</ele>
        <time>2018-06-14T20:58:54Z</time>
      </trkpt>
      <trkpt lat="43.89585" lon="1.87771">
        <ele>135</ele>
        <time>2018-06-14T20:58:55Z</time>
      </trkpt>
      <trkpt lat="43.89577" lon="1.87772">
        <ele>135</ele>
        <time>2018-06-14T20:58:56Z</time>
      </trkpt>
      <trkpt lat="43.89569" lon="1.87775">
        <ele>135</ele>
        <time>2018-06-14T20:58:57Z</time>
      </trkpt>
      <trkpt lat="43.89562" lon="1.87781">
        <ele>135</ele>
        <time>2018-06-14T20:58:58Z</time>
      </trkpt>
      <trkpt lat="43.89555" lon="1.87787">
        <ele>135</ele>
        <time>2018-06-14T20:58:59Z</time>
      </trkpt>
      <trkpt lat="43.89548" lon="1.87794">
        <ele>135</ele>
        <time>2018-06-14T20:59:00Z</time>
      </trkpt>
      <trkpt lat="43.8954" lon="1.87801">
        <ele>135</ele>
        <time>2018-06-14T20:59:01Z</time>
      </trkpt>
      <trkpt lat="43.89532" lon="1.87807">
        <ele>134</ele>
        <time>2018-06-14T20:59:02Z</time>
      </trkpt>
      <trkpt lat="43.89524" lon="1.87815">
        <ele>134</ele>
        <time>2018-06-14T20:59:03Z</time>
      </trkpt>
      <trkpt lat="43.89515" lon="1.87821">
        <ele>134</ele>
        <time>2018-06-14T20:59:04Z</time>
      </trkpt>
      <trkpt lat="43.89505" lon="1.87826">
        <ele>134</ele>
        <time>2018-06-14T20:59:05Z</time>
      </trkpt>
      <trkpt lat="43.89495" lon="1.87831">
        <ele>134</ele>
        <time>2018-06-14T20:59:06Z</time>
      </trkpt>
      <trkpt lat="43.89486" lon="1.87837">
        <ele>134</ele>
        <time>2018-06-14T20:59:07Z</time>
      </trkpt>
      <trkpt lat="43.89476" lon="1.87843">
        <ele>134</ele>
        <time>2018-06-14T20:59:08Z</time>
      </trkpt>
      <trkpt lat="43.89466" lon="1.87849">
        <ele>134</ele>
        <time>2018-06-14T20:59:09Z</time>
      </trkpt>
      <trkpt lat="43.89456" lon="1.87853">
        <ele>134</ele>
        <time>2018-06-14T20:59:10Z</time>
      </trkpt>
      <trkpt lat="43.89445" lon="1.87857">
        <ele>134</ele>
        <time>2018-06-14T20:59:11Z</time>
      </trkpt>
      <trkpt lat="43.89434" lon="1.87861">
        <ele>134</ele>
        <time>2018-06-14T20:59:12Z</time>
      </trkpt>
      <trkpt lat="43.89424" lon="1.87866">
        <ele>134</ele>
        <time>2018-06-14T20:59:13Z</time>
      </trkpt>
      <trkpt lat="43.89413" lon="1.8787">
        <ele>134</ele>
        <time>2018-06-14T20:59:14Z</time>
      </trkpt>
      <trkpt lat="43.89403" lon="1.87874">
        <ele>134</ele>
        <time>2018-06-14T20:59:15Z</time>
      </trkpt>
      <trkpt lat="43.89392" lon="1.87879">
        <ele>134</ele>
        <time>2018-06-14T20:59:16Z</time>
      </trkpt>
      <trkpt lat="43.89382" lon="1.87883">
        <ele>134</ele>
        <time>2018-06-14T20:59:17Z</time>
      </trkpt>
      <trkpt lat="43.89372" lon="1.87887">
        <ele>134</ele>
        <time>2018-06-14T20:59:18Z</time>
      </trkpt>
      <trkpt lat="43.89363" lon="1.87891">
        <ele>134</ele>
        <time>2018-06-14T20:59:19Z</time>
      </trkpt>
      <trkpt lat="43.89355" lon="1.87893">
        <ele>134</ele>
        <time>2018-06-14T20:59:20Z</time>
      </trkpt>
      <trkpt lat="43.89349" lon="1.87894">
        <ele>134</ele>
        <time>2018-06-14T20:59:21Z</time>
      </trkpt>
      <trkpt lat="43.89345" lon="1.87892">
        <ele>134</ele>
        <time>2018-06-14T20:59:22Z</time>
      </trkpt>
      <trkpt lat="43.89342" lon="1.87886">
        <ele>134</ele>
        <time>2018-06-14T20:59:23Z</time>
      </trkpt>
      <trkpt lat="43.8934" lon="1.8788">
        <ele>134</ele>
        <time>2018-06-14T20:59:24Z</time>
      </trkpt>
      <trkpt lat="43.8934" lon="1.87874">
        <ele>134</ele>
        <time>2018-06-14T20:59:25Z</time>
      </trkpt>
      <trkpt lat="43.8934" lon="1.87868">
        <ele>134</ele>
        <time>2018-06-14T20:59:26Z</time>
      </trkpt>
      <trkpt lat="43.8934" lon="1.87862">
        <ele>134</ele>
        <time>2018-06-14T20:59:27Z</time>
      </trkpt>
      <trkpt lat="43.89339" lon="1.87856">
        <ele>134</ele>
        <time>2018-06-14T20:59:28Z</time>
      </trkpt>
      <trkpt lat="43.89339" lon="1.87851">
        <ele>134</ele>
        <time>2018-06-14T20:59:29Z</time>
      </trkpt>
      <trkpt lat="43.89338" lon="1.87845">
        <ele>134</ele>
        <time>2018-06-14T20:59:30Z</time>
      </trkpt>
      <trkpt lat="43.89337" lon="1.87839">
        <ele>134</ele>
        <time>2018-06-14T20:59:31Z</time>
      </trkpt>
      <trkpt lat="43.89336" lon="1.87834">
        <ele>134</ele>
        <time>2018-06-14T20:59:32Z</time>
      </trkpt>
      <trkpt lat="43.89333" lon="1.87829">
        <ele>134</ele>
        <time>2018-06-14T20:59:33Z</time>
      </trkpt>
      <trkpt lat="43.8933" lon="1.87825">
        <ele>134</ele>
        <time>2018-06-14T20:59:34Z</time>
      </trkpt>
      <trkpt lat="43.89327" lon="1.8782">
        <ele>134</ele>
        <time>2018-06-14T20:59:35Z</time>
      </trkpt>
      <trkpt lat="43.89325" lon="1.87815">
        <ele>134</ele>
        <time>2018-06-14T20:59:36Z</time>
      </trkpt>
      <trkpt lat="43.89323" lon="1.8781">
        <ele>134</ele>
        <time>2018-06-14T20:59:37Z</time>
      </trkpt>
      <trkpt lat="43.89321" lon="1.87805">
        <ele>134</ele>
        <time>2018-06-14T20:59:38Z</time>
      </trkpt>
      <trkpt lat="43.89319" lon="1.878">
        <ele>134</ele>
        <time>2018-06-14T20:59:39Z</time>
      </trkpt>
      <trkpt lat="43.89319" lon="1.87794">
        <ele>134</ele>
        <time>2018-06-14T20:59:40Z</time>
      </trkpt>
      <trkpt lat="43.89318" lon="1.87789">
        <ele>134</ele>
        <time>2018-06-14T20:59:41Z</time>
      </trkpt>
      <trkpt lat="43.89317" lon="1.87783">
        <ele>134</ele>
        <time>2018-06-14T20:59:42Z</time>
      </trkpt>
      <trkpt lat="43.89315" lon="1.87778">
        <ele>134</ele>
        <time>2018-06-14T20:59:43Z</time>
      </trkpt>
      <trkpt lat="43.89315" lon="1.87773">
        <ele>134</ele>
        <time>2018-06-14T20:59:44Z</time>
      </trkpt>
      <trkpt lat="43.89313" lon="1.87768">
        <ele>134</ele>
        <time>2018-06-14T20:59:45Z</time>
      </trkpt>
      <trkpt lat="43.89313" lon="1.87762">
        <ele>134</ele>
        <time>2018-06-14T20:59:46Z</time>
      </trkpt>
      <trkpt lat="43.89312" lon="1.87757">
        <ele>134</ele>
        <time>2018-06-14T20:59:47Z</time>
      </trkpt>
      <trkpt lat="43.89311" lon="1.87752">
        <ele>134</ele>
        <time>2018-06-14T20:59:48Z</time>
      </trkpt>
      <trkpt lat="43.89309" lon="1.87747">
        <ele>134</ele>
        <time>2018-06-14T20:59:49Z</time>
      </trkpt>
      <trkpt lat="43.89307" lon="1.87743">
        <ele>134</ele>
        <time>2018-06-14T20:59:50Z</time>
      </trkpt>
      <trkpt lat="43.89304" lon="1.87739">
        <ele>134</ele>
        <time>2018-06-14T20:59:51Z</time>
      </trkpt>
      <trkpt lat="43.893" lon="1.87737">
        <ele>134</ele>
        <time>2018-06-14T20:59:52Z</time>
      </trkpt>
      <trkpt lat="43.89296" lon="1.87736">
        <ele>134</ele>
        <time>2018-06-14T20:59:53Z</time>
      </trkpt>
      <trkpt lat="43.89293" lon="1.87737">
        <ele>134</ele>
        <time>2018-06-14T20:59:54Z</time>
      </trkpt>
      <trkpt lat="43.89291" lon="1.8774">
        <ele>134</ele>
        <time>2018-06-14T20:59:55Z</time>
      </trkpt>
      <trkpt lat="43.89289" lon="1.87744">
        <ele>134</ele>
        <time>2018-06-14T20:59:56Z</time>
      </trkpt>
      <trkpt lat="43.89287" lon="1.87746">
        <ele>134</ele>
        <time>2018-06-14T20:59:57Z</time>
      </trkpt>
      <trkpt lat="43.89286" lon="1.87747">
        <ele>134</ele>
        <time>2018-06-14T20:59:58Z</time>
      </trkpt>
      <trkpt lat="43.89283" lon="1.87747">
        <ele>134</ele>
        <time>2018-06-14T20:59:59Z</time>
      </trkpt>
      <trkpt lat="43.89282" lon="1.87745">
        <ele>134</ele>
        <time>2018-06-14T21:00:00Z</time>
      </trkpt>
      <trkpt lat="43.89281" lon="1.87744">
        <ele>134</ele>
        <time>2018-06-14T21:00:01Z</time>
      </trkpt>
      <trkpt lat="43.89279" lon="1.87743">
        <ele>134</ele>
        <time>2018-06-14T21:00:02Z</time>
      </trkpt>
      <trkpt lat="43.89278" lon="1.87743">
        <ele>134</ele>
        <time>2018-06-14T21:00:03Z</time>
      </trkpt>
      <trkpt lat="43.89277" lon="1.87744">
        <ele>134</ele>
        <time>2018-06-14T21:00:04Z</time>
      </trkpt>
      <trkpt lat="43.89276" lon="1.87745">
        <ele>134</ele>
        <time>2018-06-14T21:00:05Z</time>
      </trkpt>
      <trkpt lat="43.89276" lon="1.87746">
        <ele>134</ele>
        <time>2018-06-14T21:00:06Z</time>
      </trkpt>
      <trkpt lat="43.89276" lon="1.87748">
        <ele>134</ele>
        <time>2018-06-14T21:00:07Z</time>
      </trkpt>
      <trkpt lat="43.89276" lon="1.8775">
        <ele>134</ele>
        <time>2018-06-14T21:00:08Z</time>
      </trkpt>
      <trkpt lat="43.89276" lon="1.87752">
        <ele>134</ele>
        <time>2018-06-14T21:00:09Z</time>
      </trkpt>
      <trkpt lat="43.89275" lon="1.87753">
        <ele>134</ele>
        <time>2018-06-14T21:00:10Z</time>
      </trkpt>
      <trkpt lat="43.89273" lon="1.87754">
        <ele>134</ele>
        <time>2018-06-14T21:00:11Z</time>
      </trkpt>
      <trkpt lat="43.89272" lon="1.87754">
        <ele>134</ele>
        <time>2018-06-14T21:00:12Z</time>
      </trkpt>
      <trkpt lat="43.89271" lon="1.87752">
        <ele>134</ele>
        <time>2018-06-14T21:00:13Z</time>
      </trkpt>
      <trkpt lat="43.8927" lon="1.8775">
        <ele>134</ele>
        <time>2018-06-14T21:00:14Z</time>
      </trkpt>
      <trkpt lat="43.89271" lon="1.87748">
        <ele>134</ele>
        <time>2018-06-14T21:00:15Z</time>
      </trkpt>
      <trkpt lat="43.89272" lon="1.87746">
        <ele>134</ele>
        <time>2018-06-14T21:00:16Z</time>
      </trkpt>
      <trkpt lat="43.89273" lon="1.87744">
        <ele>134</ele>
        <time>2018-06-14T21:00:17Z</time>
      </trkpt>
      <trkpt lat="43.89274" lon="1.87744">
        <ele>134</ele>
        <time>2018-06-14T21:00:18Z</time>
      </trkpt>
      <trkpt lat="43.89275" lon="1.87743">
        <ele>134</ele>
        <time>2018-06-14T21:00:19Z</time>
      </trkpt>
      <trkpt lat="43.89277" lon="1.87744">
        <ele>134</ele>
        <time>2018-06-14T21:00:20Z</time>
      </trkpt>
      <trkpt lat="43.89278" lon="1.87744">
        <ele>134</ele>
        <time>2018-06-14T21:00:21Z</time>
      </trkpt>
      <trkpt lat="43.89279" lon="1.87745">
        <ele>134</ele>
        <time>2018-06-14T21:00:22Z</time>
      </trkpt>
      <trkpt lat="43.89278" lon="1.87744">
        <ele>134</ele>
        <time>2018-06-14T21:00:23Z</time>
      </trkpt>
      <trkpt lat="43.89279" lon="1.87744">
        <ele>134</ele>
        <time>2018-06-14T21:00:24Z</time>
      </trkpt>
      <trkpt lat="43.89278" lon="1.87745">
        <ele>134</ele>
        <time>2018-06-14T21:00:25Z</time>
      </trkpt>
      <trkpt lat="43.89279" lon="1.87745">
        <ele>133</ele>
        <time>2018-06-14T21:01:03Z</time>
      </trkpt>
      <trkpt lat="43.89279" lon="1.87745">
        <ele>133</ele>
        <time>2018-06-14T21:01:43Z</time>
      </trkpt>
      <trkpt lat="43.89279" lon="1.87745">
        <ele>133</ele>
        <time>2018-06-14T21:02:23Z</time>
      </trkpt>
      <trkpt lat="43.89278" lon="1.87745">
        <ele>133</ele>
        <time>2018-06-14T21:03:03Z</time>
      </trkpt>
      <trkpt lat="43.89279" lon="1.87745">
        <ele>133</ele>
        <time>2018-06-14T21:03:43Z</time>
      </trkpt>
      <trkpt lat="43.89278" lon="1.87746">
        <ele>133</ele>
        <time>2018-06-14T21:04:23Z</time>
      </trkpt>
      <trkpt lat="43.89278" lon="1.87746">
        <ele>133</ele>
        <time>2018-06-14T21:05:03Z</time>
      </trkpt>
      <trkpt lat="43.89278" lon="1.87747">
        <ele>133</ele>
        <time>2018-06-14T21:05:43Z</time>
      </trkpt>
      <trkpt lat="43.89279" lon="1.87747">
        <ele>133</ele>
        <time>2018-06-14T21:06:23Z</time>
      </trkpt>
      <trkpt lat="43.8928" lon="1.87748">
        <ele>133</ele>
        <time>2018-06-14T21:07:03Z</time>
      </trkpt>
      <trkpt lat="43.89281" lon="1.87748">
        <ele>133</ele>
        <time>2018-06-14T21:07:43Z</time>
      </trkpt>
      <trkpt lat="43.89281" lon="1.87748">
        <ele>133</ele>
        <time>2018-06-14T21:08:22Z</time>
      </trkpt>
      <trkpt lat="43.8928" lon="1.87748">
        <ele>133</ele>
        <time>2018-06-14T21:09:02Z</time>
      </trkpt>
      <trkpt lat="43.8928" lon="1.87748">
        <ele>133</ele>
        <time>2018-06-14T21:09:43Z</time>
      </trkpt>
      <trkpt lat="43.8928" lon="1.87747">
        <ele>133</ele>
        <time>2018-06-14T21:10:22Z</time>
      </trkpt>
      <trkpt lat="43.8928" lon="1.87747">
        <ele>133</ele>
        <time>2018-06-14T21:11:02Z</time>
      </trkpt>
      <trkpt lat="43.8928" lon="1.87747">
        <ele>133</ele>
        <time>2018-06-14T21:11:42Z</time>
      </trkpt>
      <trkpt lat="43.8928" lon="1.87747">
        <ele>133</ele>
        <time>2018-06-14T21:12:22Z</time>
      </trkpt>
      <trkpt lat="43.8928" lon="1.87746">
        <ele>133</ele>
        <time>2018-06-14T21:13:02Z</time>
      </trkpt>
      <trkpt lat="43.8928" lon="1.87746">
        <ele>133</ele>
        <time>2018-06-14T21:13:42Z</time>
      </trkpt>
      <trkpt lat="43.8928" lon="1.87746">
        <ele>133</ele>
        <time>2018-06-14T21:14:22Z</time>
      </trkpt>
      <trkpt lat="43.8928" lon="1.87746">
        <ele>133</ele>
        <time>2018-06-14T21:15:02Z</time>
      </trkpt>
      <trkpt lat="43.8928" lon="1.87746">
        <ele>133</ele>
        <time>2018-06-14T21:15:42Z</time>
      </trkpt>
      <trkpt lat="43.8928" lon="1.87745">
        <ele>133</ele>
        <time>2018-06-14T21:16:22Z</time>
      </trkpt>
      <trkpt lat="43.8928" lon="1.87745">
        <ele>133</ele>
        <time>2018-06-14T21:17:02Z</time>
      </trkpt>
      <trkpt lat="43.8928" lon="1.87745">
        <ele>133</ele>
        <time>2018-06-14T21:17:42Z</time>
      </trkpt>
      <trkpt lat="43.8928" lon="1.87745">
        <ele>132</ele>
        <time>2018-06-14T21:18:22Z</time>
      </trkpt>
      <trkpt lat="43.8928" lon="1.87746">
        <ele>132</ele>
        <time>2018-06-14T21:19:02Z</time>
      </trkpt>
      <trkpt lat="43.8928" lon="1.87745">
        <ele>132</ele>
        <time>2018-06-14T21:19:42Z</time>
      </trkpt>
      <trkpt lat="43.89279" lon="1.87745">
        <ele>132</ele>
        <time>2018-06-14T21:20:22Z</time>
      </trkpt>
      <trkpt lat="43.8928" lon="1.87745">
        <ele>132</ele>
        <time>2018-06-14T21:21:02Z</time>
      </trkpt>
      <trkpt lat="43.89279" lon="1.87745">
        <ele>132</ele>
        <time>2018-06-14T21:21:05Z</time>
      </trkpt>
      <trkpt lat="43.89279" lon="1.87745">
        <ele>132</ele>
        <time>2018-06-14T21:21:06Z</time>
      </trkpt>
      <trkpt lat="43.89279" lon="1.87745">
        <ele>133</ele>
        <time>2018-06-14T21:21:07Z</time>
      </trkpt>
      <trkpt lat="43.8928" lon="1.87745">
        <ele>133</ele>
        <time>2018-06-14T21:21:08Z</time>
      </trkpt>
      <trkpt lat="43.8928" lon="1.87745">
        <ele>133</ele>
        <time>2018-06-14T21:21:09Z</time>
      </trkpt>
      <trkpt lat="43.8928" lon="1.87746">
        <ele>133</ele>
        <time>2018-06-14T21:21:10Z</time>
      </trkpt>
      <trkpt lat="43.8928" lon="1.87746">
        <ele>133</ele>
        <time>2018-06-14T21:21:11Z</time>
      </trkpt>
    </trkseg>
  </trk>
</gpx>